<?xml version="1.0" encoding="UTF-8" standalone="no" ?>
<gpx xmlns="http://www.topografix.com/GPX/1/1" xmlns:xsi="http://www.w3.org/2001/XMLSchema-instance" xsi:schemaLocation="http://www.topografix.com/GPX/1/1 http://www.topografix.com/GPX/1/1/gpx.xsd" version="1.1" creator="VisuGPX - https://www.visugpx.com">
  <metadata>
    <name>Hendaye_Orléans</name>
    <desc><![CDATA[Départ d'Ascain pour rejoindre Hendaye puis remonter jusqu'à Nantes par la Vélodyssée puis retour à Orléans via "La Loire à Vélo".]]></desc>
  </metadata>
  <trk>
    <name><![CDATA[Hendaye_Orléans_1]]></name>
    <trkseg>
      <trkpt lat="43.34544" lon="-1.6374">
        <ele>59</ele>
        <time>2019-04-24T06:19:31Z</time>
      </trkpt>
      <trkpt lat="43.34548" lon="-1.63739">
        <ele>59</ele>
        <time>2019-04-24T06:24:55Z</time>
      </trkpt>
      <trkpt lat="43.34546" lon="-1.63739">
        <ele>59</ele>
        <time>2019-04-24T06:25:01Z</time>
      </trkpt>
      <trkpt lat="43.34543" lon="-1.63733">
        <ele>59</ele>
        <time>2019-04-24T06:26:07Z</time>
      </trkpt>
      <trkpt lat="43.34544" lon="-1.63737">
        <ele>59</ele>
        <time>2019-04-24T06:27:01Z</time>
      </trkpt>
      <trkpt lat="43.34525" lon="-1.63733">
        <ele>61</ele>
        <time>2019-04-24T06:27:31Z</time>
      </trkpt>
      <trkpt lat="43.34527" lon="-1.63729">
        <ele>63</ele>
        <time>2019-04-24T06:27:37Z</time>
      </trkpt>
      <trkpt lat="43.34525" lon="-1.63697">
        <ele>63</ele>
        <time>2019-04-24T06:27:49Z</time>
      </trkpt>
      <trkpt lat="43.34516" lon="-1.63623">
        <ele>66</ele>
        <time>2019-04-24T06:28:13Z</time>
      </trkpt>
      <trkpt lat="43.34502" lon="-1.6361">
        <ele>66</ele>
        <time>2019-04-24T06:28:25Z</time>
      </trkpt>
      <trkpt lat="43.34443" lon="-1.63647">
        <ele>65</ele>
        <time>2019-04-24T06:28:43Z</time>
      </trkpt>
      <trkpt lat="43.34316" lon="-1.63738">
        <ele>59</ele>
        <time>2019-04-24T06:29:01Z</time>
      </trkpt>
      <trkpt lat="43.34228" lon="-1.6375">
        <ele>51</ele>
        <time>2019-04-24T06:29:31Z</time>
      </trkpt>
      <trkpt lat="43.34224" lon="-1.63767">
        <ele>51</ele>
        <time>2019-04-24T06:29:37Z</time>
      </trkpt>
      <trkpt lat="43.34228" lon="-1.63798">
        <ele>51</ele>
        <time>2019-04-24T06:29:43Z</time>
      </trkpt>
      <trkpt lat="43.3423" lon="-1.63884">
        <ele>49</ele>
        <time>2019-04-24T06:29:55Z</time>
      </trkpt>
      <trkpt lat="43.34221" lon="-1.63927">
        <ele>48</ele>
        <time>2019-04-24T06:30:01Z</time>
      </trkpt>
      <trkpt lat="43.34187" lon="-1.64008">
        <ele>47</ele>
        <time>2019-04-24T06:30:13Z</time>
      </trkpt>
      <trkpt lat="43.34172" lon="-1.64028">
        <ele>47</ele>
        <time>2019-04-24T06:30:28Z</time>
      </trkpt>
      <trkpt lat="43.34086" lon="-1.64084">
        <ele>38</ele>
        <time>2019-04-24T06:30:51Z</time>
      </trkpt>
      <trkpt lat="43.34025" lon="-1.64176">
        <ele>35</ele>
        <time>2019-04-24T06:31:03Z</time>
      </trkpt>
      <trkpt lat="43.34026" lon="-1.64276">
        <ele>34</ele>
        <time>2019-04-24T06:31:15Z</time>
      </trkpt>
      <trkpt lat="43.34012" lon="-1.64364">
        <ele>35</ele>
        <time>2019-04-24T06:31:27Z</time>
      </trkpt>
      <trkpt lat="43.33986" lon="-1.64487">
        <ele>38</ele>
        <time>2019-04-24T06:31:45Z</time>
      </trkpt>
      <trkpt lat="43.33966" lon="-1.64559">
        <ele>37</ele>
        <time>2019-04-24T06:31:57Z</time>
      </trkpt>
      <trkpt lat="43.33947" lon="-1.64661">
        <ele>41</ele>
        <time>2019-04-24T06:32:15Z</time>
      </trkpt>
      <trkpt lat="43.33925" lon="-1.64744">
        <ele>44</ele>
        <time>2019-04-24T06:32:33Z</time>
      </trkpt>
      <trkpt lat="43.33847" lon="-1.65135">
        <ele>54</ele>
        <time>2019-04-24T06:33:58Z</time>
      </trkpt>
      <trkpt lat="43.33763" lon="-1.65507">
        <ele>65</ele>
        <time>2019-04-24T06:35:28Z</time>
      </trkpt>
      <trkpt lat="43.33743" lon="-1.65607">
        <ele>64</ele>
        <time>2019-04-24T06:35:52Z</time>
      </trkpt>
      <trkpt lat="43.33735" lon="-1.65665">
        <ele>64</ele>
        <time>2019-04-24T06:36:04Z</time>
      </trkpt>
      <trkpt lat="43.33717" lon="-1.65743">
        <ele>66</ele>
        <time>2019-04-24T06:36:21Z</time>
      </trkpt>
      <trkpt lat="43.33699" lon="-1.65908">
        <ele>67</ele>
        <time>2019-04-24T06:36:57Z</time>
      </trkpt>
      <trkpt lat="43.33683" lon="-1.65993">
        <ele>69</ele>
        <time>2019-04-24T06:37:15Z</time>
      </trkpt>
      <trkpt lat="43.33687" lon="-1.66028">
        <ele>69</ele>
        <time>2019-04-24T06:37:33Z</time>
      </trkpt>
      <trkpt lat="43.33688" lon="-1.66025">
        <ele>69</ele>
        <time>2019-04-24T06:39:20Z</time>
      </trkpt>
      <trkpt lat="43.33646" lon="-1.66193">
        <ele>67</ele>
        <time>2019-04-24T06:39:55Z</time>
      </trkpt>
      <trkpt lat="43.33653" lon="-1.66493">
        <ele>58</ele>
        <time>2019-04-24T06:40:24Z</time>
      </trkpt>
      <trkpt lat="43.33622" lon="-1.66633">
        <ele>54</ele>
        <time>2019-04-24T06:40:40Z</time>
      </trkpt>
      <trkpt lat="43.33581" lon="-1.6672">
        <ele>50</ele>
        <time>2019-04-24T06:40:54Z</time>
      </trkpt>
      <trkpt lat="43.33485" lon="-1.66899">
        <ele>47</ele>
        <time>2019-04-24T06:41:33Z</time>
      </trkpt>
      <trkpt lat="43.33458" lon="-1.67039">
        <ele>54</ele>
        <time>2019-04-24T06:41:58Z</time>
      </trkpt>
      <trkpt lat="43.33446" lon="-1.67214">
        <ele>50</ele>
        <time>2019-04-24T06:42:10Z</time>
      </trkpt>
      <trkpt lat="43.33462" lon="-1.67328">
        <ele>52</ele>
        <time>2019-04-24T06:42:28Z</time>
      </trkpt>
      <trkpt lat="43.33468" lon="-1.67425">
        <ele>56</ele>
        <time>2019-04-24T06:42:46Z</time>
      </trkpt>
      <trkpt lat="43.33462" lon="-1.6753">
        <ele>60</ele>
        <time>2019-04-24T06:43:10Z</time>
      </trkpt>
      <trkpt lat="43.33456" lon="-1.67584">
        <ele>62</ele>
        <time>2019-04-24T06:43:22Z</time>
      </trkpt>
      <trkpt lat="43.33444" lon="-1.67642">
        <ele>62</ele>
        <time>2019-04-24T06:43:34Z</time>
      </trkpt>
      <trkpt lat="43.33424" lon="-1.67782">
        <ele>65</ele>
        <time>2019-04-24T06:44:04Z</time>
      </trkpt>
      <trkpt lat="43.33421" lon="-1.6797">
        <ele>69</ele>
        <time>2019-04-24T06:44:58Z</time>
      </trkpt>
      <trkpt lat="43.33415" lon="-1.68051">
        <ele>74</ele>
        <time>2019-04-24T06:45:22Z</time>
      </trkpt>
      <trkpt lat="43.33416" lon="-1.68086">
        <ele>74</ele>
        <time>2019-04-24T06:45:34Z</time>
      </trkpt>
      <trkpt lat="43.33407" lon="-1.68155">
        <ele>75</ele>
        <time>2019-04-24T06:45:58Z</time>
      </trkpt>
      <trkpt lat="43.33403" lon="-1.68233">
        <ele>80</ele>
        <time>2019-04-24T06:46:22Z</time>
      </trkpt>
      <trkpt lat="43.33408" lon="-1.68307">
        <ele>83</ele>
        <time>2019-04-24T06:46:46Z</time>
      </trkpt>
      <trkpt lat="43.33406" lon="-1.68423">
        <ele>85</ele>
        <time>2019-04-24T06:47:22Z</time>
      </trkpt>
      <trkpt lat="43.33397" lon="-1.68563">
        <ele>93</ele>
        <time>2019-04-24T06:48:04Z</time>
      </trkpt>
      <trkpt lat="43.33397" lon="-1.68606">
        <ele>95</ele>
        <time>2019-04-24T06:48:16Z</time>
      </trkpt>
      <trkpt lat="43.33393" lon="-1.68647">
        <ele>100</ele>
        <time>2019-04-24T06:48:28Z</time>
      </trkpt>
      <trkpt lat="43.33393" lon="-1.68723">
        <ele>102</ele>
        <time>2019-04-24T06:48:52Z</time>
      </trkpt>
      <trkpt lat="43.3341" lon="-1.6876">
        <ele>101</ele>
        <time>2019-04-24T06:49:04Z</time>
      </trkpt>
      <trkpt lat="43.33418" lon="-1.68813">
        <ele>98</ele>
        <time>2019-04-24T06:49:16Z</time>
      </trkpt>
      <trkpt lat="43.33431" lon="-1.68873">
        <ele>94</ele>
        <time>2019-04-24T06:49:28Z</time>
      </trkpt>
      <trkpt lat="43.33487" lon="-1.68961">
        <ele>72</ele>
        <time>2019-04-24T06:49:40Z</time>
      </trkpt>
      <trkpt lat="43.33594" lon="-1.69016">
        <ele>75</ele>
        <time>2019-04-24T06:49:52Z</time>
      </trkpt>
      <trkpt lat="43.33704" lon="-1.69096">
        <ele>68</ele>
        <time>2019-04-24T06:50:04Z</time>
      </trkpt>
      <trkpt lat="43.33848" lon="-1.69051">
        <ele>68</ele>
        <time>2019-04-24T06:50:16Z</time>
      </trkpt>
      <trkpt lat="43.34034" lon="-1.69091">
        <ele>59</ele>
        <time>2019-04-24T06:50:34Z</time>
      </trkpt>
      <trkpt lat="43.34098" lon="-1.69077">
        <ele>55</ele>
        <time>2019-04-24T06:50:40Z</time>
      </trkpt>
      <trkpt lat="43.3421" lon="-1.69041">
        <ele>55</ele>
        <time>2019-04-24T06:50:52Z</time>
      </trkpt>
      <trkpt lat="43.34313" lon="-1.69024">
        <ele>49</ele>
        <time>2019-04-24T06:51:04Z</time>
      </trkpt>
      <trkpt lat="43.34476" lon="-1.68988">
        <ele>43</ele>
        <time>2019-04-24T06:51:22Z</time>
      </trkpt>
      <trkpt lat="43.34583" lon="-1.68984">
        <ele>42</ele>
        <time>2019-04-24T06:51:34Z</time>
      </trkpt>
      <trkpt lat="43.34625" lon="-1.68966">
        <ele>39</ele>
        <time>2019-04-24T06:51:40Z</time>
      </trkpt>
      <trkpt lat="43.34737" lon="-1.68883">
        <ele>38</ele>
        <time>2019-04-24T06:51:58Z</time>
      </trkpt>
      <trkpt lat="43.34818" lon="-1.68858">
        <ele>36</ele>
        <time>2019-04-24T06:52:10Z</time>
      </trkpt>
      <trkpt lat="43.34858" lon="-1.68864">
        <ele>35</ele>
        <time>2019-04-24T06:52:16Z</time>
      </trkpt>
      <trkpt lat="43.34883" lon="-1.68853">
        <ele>35</ele>
        <time>2019-04-24T06:52:28Z</time>
      </trkpt>
      <trkpt lat="43.34912" lon="-1.68864">
        <ele>35</ele>
        <time>2019-04-24T06:53:10Z</time>
      </trkpt>
      <trkpt lat="43.34938" lon="-1.68855">
        <ele>34</ele>
        <time>2019-04-24T06:53:16Z</time>
      </trkpt>
      <trkpt lat="43.35002" lon="-1.6886">
        <ele>34</ele>
        <time>2019-04-24T06:53:28Z</time>
      </trkpt>
      <trkpt lat="43.35121" lon="-1.68888">
        <ele>31</ele>
        <time>2019-04-24T06:53:46Z</time>
      </trkpt>
      <trkpt lat="43.35212" lon="-1.68926">
        <ele>30</ele>
        <time>2019-04-24T06:53:58Z</time>
      </trkpt>
      <trkpt lat="43.35295" lon="-1.68972">
        <ele>26</ele>
        <time>2019-04-24T06:54:10Z</time>
      </trkpt>
      <trkpt lat="43.3534" lon="-1.69005">
        <ele>25</ele>
        <time>2019-04-24T06:54:16Z</time>
      </trkpt>
      <trkpt lat="43.35445" lon="-1.69065">
        <ele>21</ele>
        <time>2019-04-24T06:54:28Z</time>
      </trkpt>
      <trkpt lat="43.35497" lon="-1.69064">
        <ele>21</ele>
        <time>2019-04-24T06:54:34Z</time>
      </trkpt>
      <trkpt lat="43.35585" lon="-1.6908">
        <ele>23</ele>
        <time>2019-04-24T06:54:46Z</time>
      </trkpt>
      <trkpt lat="43.35696" lon="-1.69131">
        <ele>25</ele>
        <time>2019-04-24T06:55:04Z</time>
      </trkpt>
      <trkpt lat="43.3583" lon="-1.69203">
        <ele>18</ele>
        <time>2019-04-24T06:55:22Z</time>
      </trkpt>
      <trkpt lat="43.3596" lon="-1.69211">
        <ele>15</ele>
        <time>2019-04-24T06:55:34Z</time>
      </trkpt>
      <trkpt lat="43.36127" lon="-1.69242">
        <ele>13</ele>
        <time>2019-04-24T06:55:52Z</time>
      </trkpt>
      <trkpt lat="43.36168" lon="-1.69212">
        <ele>16</ele>
        <time>2019-04-24T06:55:58Z</time>
      </trkpt>
      <trkpt lat="43.36194" lon="-1.69171">
        <ele>17</ele>
        <time>2019-04-24T06:56:04Z</time>
      </trkpt>
      <trkpt lat="43.36242" lon="-1.69124">
        <ele>17</ele>
        <time>2019-04-24T06:56:16Z</time>
      </trkpt>
      <trkpt lat="43.36262" lon="-1.69149">
        <ele>17</ele>
        <time>2019-04-24T06:56:22Z</time>
      </trkpt>
      <trkpt lat="43.36319" lon="-1.69189">
        <ele>17</ele>
        <time>2019-04-24T06:56:34Z</time>
      </trkpt>
      <trkpt lat="43.36324" lon="-1.69216">
        <ele>16</ele>
        <time>2019-04-24T06:56:40Z</time>
      </trkpt>
      <trkpt lat="43.36298" lon="-1.69248">
        <ele>15</ele>
        <time>2019-04-24T06:56:52Z</time>
      </trkpt>
      <trkpt lat="43.36291" lon="-1.6928">
        <ele>15</ele>
        <time>2019-04-24T06:56:58Z</time>
      </trkpt>
      <trkpt lat="43.36284" lon="-1.69347">
        <ele>14</ele>
        <time>2019-04-24T06:57:10Z</time>
      </trkpt>
      <trkpt lat="43.3628" lon="-1.69358">
        <ele>14</ele>
        <time>2019-04-24T06:57:22Z</time>
      </trkpt>
      <trkpt lat="43.36274" lon="-1.69358">
        <ele>14</ele>
        <time>2019-04-24T06:57:34Z</time>
      </trkpt>
      <trkpt lat="43.36267" lon="-1.69374">
        <ele>14</ele>
        <time>2019-04-24T07:00:26Z</time>
      </trkpt>
      <trkpt lat="43.36246" lon="-1.69439">
        <ele>13</ele>
        <time>2019-04-24T07:00:56Z</time>
      </trkpt>
      <trkpt lat="43.36211" lon="-1.69519">
        <ele>13</ele>
        <time>2019-04-24T07:01:20Z</time>
      </trkpt>
      <trkpt lat="43.36177" lon="-1.69618">
        <ele>14</ele>
        <time>2019-04-24T07:01:38Z</time>
      </trkpt>
      <trkpt lat="43.36146" lon="-1.69683">
        <ele>17</ele>
        <time>2019-04-24T07:01:50Z</time>
      </trkpt>
      <trkpt lat="43.36125" lon="-1.69744">
        <ele>17</ele>
        <time>2019-04-24T07:02:02Z</time>
      </trkpt>
      <trkpt lat="43.36099" lon="-1.69848">
        <ele>18</ele>
        <time>2019-04-24T07:02:26Z</time>
      </trkpt>
      <trkpt lat="43.36089" lon="-1.6995">
        <ele>19</ele>
        <time>2019-04-24T07:02:50Z</time>
      </trkpt>
      <trkpt lat="43.36088" lon="-1.70009">
        <ele>20</ele>
        <time>2019-04-24T07:03:32Z</time>
      </trkpt>
      <trkpt lat="43.36094" lon="-1.70076">
        <ele>21</ele>
        <time>2019-04-24T07:03:44Z</time>
      </trkpt>
      <trkpt lat="43.36098" lon="-1.70117">
        <ele>21</ele>
        <time>2019-04-24T07:03:50Z</time>
      </trkpt>
      <trkpt lat="43.36113" lon="-1.70201">
        <ele>21</ele>
        <time>2019-04-24T07:04:02Z</time>
      </trkpt>
      <trkpt lat="43.3617" lon="-1.70428">
        <ele>26</ele>
        <time>2019-04-24T07:04:44Z</time>
      </trkpt>
      <trkpt lat="43.36184" lon="-1.70477">
        <ele>26</ele>
        <time>2019-04-24T07:04:56Z</time>
      </trkpt>
      <trkpt lat="43.36196" lon="-1.70554">
        <ele>27</ele>
        <time>2019-04-24T07:05:14Z</time>
      </trkpt>
      <trkpt lat="43.36193" lon="-1.70783">
        <ele>35</ele>
        <time>2019-04-24T07:06:08Z</time>
      </trkpt>
      <trkpt lat="43.36198" lon="-1.70876">
        <ele>38</ele>
        <time>2019-04-24T07:06:32Z</time>
      </trkpt>
      <trkpt lat="43.36193" lon="-1.70942">
        <ele>38</ele>
        <time>2019-04-24T07:06:50Z</time>
      </trkpt>
      <trkpt lat="43.36198" lon="-1.71004">
        <ele>39</ele>
        <time>2019-04-24T07:07:08Z</time>
      </trkpt>
      <trkpt lat="43.36197" lon="-1.71116">
        <ele>40</ele>
        <time>2019-04-24T07:07:38Z</time>
      </trkpt>
      <trkpt lat="43.362" lon="-1.71191">
        <ele>42</ele>
        <time>2019-04-24T07:08:02Z</time>
      </trkpt>
      <trkpt lat="43.36196" lon="-1.71282">
        <ele>45</ele>
        <time>2019-04-24T07:08:32Z</time>
      </trkpt>
      <trkpt lat="43.36197" lon="-1.713">
        <ele>47</ele>
        <time>2019-04-24T07:08:38Z</time>
      </trkpt>
      <trkpt lat="43.36204" lon="-1.71314">
        <ele>47</ele>
        <time>2019-04-24T07:09:14Z</time>
      </trkpt>
      <trkpt lat="43.36201" lon="-1.71354">
        <ele>53</ele>
        <time>2019-04-24T07:10:37Z</time>
      </trkpt>
      <trkpt lat="43.36201" lon="-1.71508">
        <ele>59</ele>
        <time>2019-04-24T07:11:19Z</time>
      </trkpt>
      <trkpt lat="43.36197" lon="-1.71616">
        <ele>61</ele>
        <time>2019-04-24T07:11:43Z</time>
      </trkpt>
      <trkpt lat="43.36201" lon="-1.71688">
        <ele>63</ele>
        <time>2019-04-24T07:12:07Z</time>
      </trkpt>
      <trkpt lat="43.36197" lon="-1.71741">
        <ele>68</ele>
        <time>2019-04-24T07:12:25Z</time>
      </trkpt>
      <trkpt lat="43.36177" lon="-1.7184">
        <ele>70</ele>
        <time>2019-04-24T07:12:55Z</time>
      </trkpt>
      <trkpt lat="43.36157" lon="-1.71934">
        <ele>72</ele>
        <time>2019-04-24T07:13:25Z</time>
      </trkpt>
      <trkpt lat="43.36147" lon="-1.71969">
        <ele>76</ele>
        <time>2019-04-24T07:13:37Z</time>
      </trkpt>
      <trkpt lat="43.36125" lon="-1.72076">
        <ele>89</ele>
        <time>2019-04-24T07:14:07Z</time>
      </trkpt>
      <trkpt lat="43.36117" lon="-1.72132">
        <ele>87</ele>
        <time>2019-04-24T07:14:25Z</time>
      </trkpt>
      <trkpt lat="43.36082" lon="-1.72265">
        <ele>83</ele>
        <time>2019-04-24T07:15:07Z</time>
      </trkpt>
      <trkpt lat="43.36072" lon="-1.72325">
        <ele>82</ele>
        <time>2019-04-24T07:15:25Z</time>
      </trkpt>
      <trkpt lat="43.36049" lon="-1.7242">
        <ele>85</ele>
        <time>2019-04-24T07:15:55Z</time>
      </trkpt>
      <trkpt lat="43.36046" lon="-1.72441">
        <ele>85</ele>
        <time>2019-04-24T07:16:01Z</time>
      </trkpt>
      <trkpt lat="43.36051" lon="-1.72446">
        <ele>85</ele>
        <time>2019-04-24T07:22:53Z</time>
      </trkpt>
      <trkpt lat="43.35983" lon="-1.72705">
        <ele>100</ele>
        <time>2019-04-24T07:26:13Z</time>
      </trkpt>
      <trkpt lat="43.35962" lon="-1.72826">
        <ele>98</ele>
        <time>2019-04-24T07:26:36Z</time>
      </trkpt>
      <trkpt lat="43.35939" lon="-1.72921">
        <ele>101</ele>
        <time>2019-04-24T07:27:06Z</time>
      </trkpt>
      <trkpt lat="43.35934" lon="-1.72964">
        <ele>101</ele>
        <time>2019-04-24T07:27:18Z</time>
      </trkpt>
      <trkpt lat="43.35862" lon="-1.73284">
        <ele>106</ele>
        <time>2019-04-24T07:28:54Z</time>
      </trkpt>
      <trkpt lat="43.35847" lon="-1.73336">
        <ele>106</ele>
        <time>2019-04-24T07:29:06Z</time>
      </trkpt>
      <trkpt lat="43.35825" lon="-1.73379">
        <ele>107</ele>
        <time>2019-04-24T07:29:18Z</time>
      </trkpt>
      <trkpt lat="43.358" lon="-1.73417">
        <ele>107</ele>
        <time>2019-04-24T07:29:30Z</time>
      </trkpt>
      <trkpt lat="43.35755" lon="-1.73475">
        <ele>112</ele>
        <time>2019-04-24T07:29:54Z</time>
      </trkpt>
      <trkpt lat="43.35731" lon="-1.73501">
        <ele>115</ele>
        <time>2019-04-24T07:30:06Z</time>
      </trkpt>
      <trkpt lat="43.35709" lon="-1.73533">
        <ele>115</ele>
        <time>2019-04-24T07:30:18Z</time>
      </trkpt>
      <trkpt lat="43.3564" lon="-1.7361">
        <ele>117</ele>
        <time>2019-04-24T07:30:53Z</time>
      </trkpt>
      <trkpt lat="43.35593" lon="-1.73655">
        <ele>118</ele>
        <time>2019-04-24T07:31:17Z</time>
      </trkpt>
      <trkpt lat="43.3558" lon="-1.73663">
        <ele>118</ele>
        <time>2019-04-24T07:31:23Z</time>
      </trkpt>
      <trkpt lat="43.3555" lon="-1.73672">
        <ele>118</ele>
        <time>2019-04-24T07:31:35Z</time>
      </trkpt>
      <trkpt lat="43.35449" lon="-1.73694">
        <ele>119</ele>
        <time>2019-04-24T07:32:17Z</time>
      </trkpt>
      <trkpt lat="43.35375" lon="-1.73697">
        <ele>128</ele>
        <time>2019-04-24T07:32:47Z</time>
      </trkpt>
      <trkpt lat="43.35293" lon="-1.73712">
        <ele>133</ele>
        <time>2019-04-24T07:33:17Z</time>
      </trkpt>
      <trkpt lat="43.35277" lon="-1.73722">
        <ele>134</ele>
        <time>2019-04-24T07:33:23Z</time>
      </trkpt>
      <trkpt lat="43.35243" lon="-1.7377">
        <ele>136</ele>
        <time>2019-04-24T07:33:41Z</time>
      </trkpt>
      <trkpt lat="43.35228" lon="-1.73839">
        <ele>135</ele>
        <time>2019-04-24T07:33:59Z</time>
      </trkpt>
      <trkpt lat="43.3523" lon="-1.73858">
        <ele>135</ele>
        <time>2019-04-24T07:34:05Z</time>
      </trkpt>
      <trkpt lat="43.35228" lon="-1.73895">
        <ele>134</ele>
        <time>2019-04-24T07:34:17Z</time>
      </trkpt>
      <trkpt lat="43.35206" lon="-1.73875">
        <ele>133</ele>
        <time>2019-04-24T07:34:29Z</time>
      </trkpt>
      <trkpt lat="43.3522" lon="-1.73865">
        <ele>134</ele>
        <time>2019-04-24T07:34:35Z</time>
      </trkpt>
      <trkpt lat="43.35241" lon="-1.73877">
        <ele>134</ele>
        <time>2019-04-24T07:34:41Z</time>
      </trkpt>
      <trkpt lat="43.35269" lon="-1.73877">
        <ele>133</ele>
        <time>2019-04-24T07:35:11Z</time>
      </trkpt>
      <trkpt lat="43.35293" lon="-1.73919">
        <ele>132</ele>
        <time>2019-04-24T07:35:29Z</time>
      </trkpt>
      <trkpt lat="43.35316" lon="-1.7398">
        <ele>137</ele>
        <time>2019-04-24T07:35:47Z</time>
      </trkpt>
      <trkpt lat="43.35335" lon="-1.7402">
        <ele>141</ele>
        <time>2019-04-24T07:35:59Z</time>
      </trkpt>
      <trkpt lat="43.35348" lon="-1.74069">
        <ele>145</ele>
        <time>2019-04-24T07:36:17Z</time>
      </trkpt>
      <trkpt lat="43.35374" lon="-1.74108">
        <ele>145</ele>
        <time>2019-04-24T07:36:29Z</time>
      </trkpt>
      <trkpt lat="43.35395" lon="-1.74131">
        <ele>142</ele>
        <time>2019-04-24T07:36:35Z</time>
      </trkpt>
      <trkpt lat="43.35465" lon="-1.74158">
        <ele>134</ele>
        <time>2019-04-24T07:36:47Z</time>
      </trkpt>
      <trkpt lat="43.35568" lon="-1.74212">
        <ele>126</ele>
        <time>2019-04-24T07:36:59Z</time>
      </trkpt>
      <trkpt lat="43.3565" lon="-1.74364">
        <ele>115</ele>
        <time>2019-04-24T07:37:11Z</time>
      </trkpt>
      <trkpt lat="43.35711" lon="-1.74403">
        <ele>117</ele>
        <time>2019-04-24T07:37:17Z</time>
      </trkpt>
      <trkpt lat="43.3584" lon="-1.74458">
        <ele>113</ele>
        <time>2019-04-24T07:37:29Z</time>
      </trkpt>
      <trkpt lat="43.35913" lon="-1.74438">
        <ele>103</ele>
        <time>2019-04-24T07:37:35Z</time>
      </trkpt>
      <trkpt lat="43.36046" lon="-1.74429">
        <ele>82</ele>
        <time>2019-04-24T07:37:47Z</time>
      </trkpt>
      <trkpt lat="43.36086" lon="-1.74496">
        <ele>93</ele>
        <time>2019-04-24T07:37:53Z</time>
      </trkpt>
      <trkpt lat="43.36122" lon="-1.74659">
        <ele>79</ele>
        <time>2019-04-24T07:38:05Z</time>
      </trkpt>
      <trkpt lat="43.36248" lon="-1.74768">
        <ele>67</ele>
        <time>2019-04-24T07:38:17Z</time>
      </trkpt>
      <trkpt lat="43.36361" lon="-1.74707">
        <ele>66</ele>
        <time>2019-04-24T07:38:29Z</time>
      </trkpt>
      <trkpt lat="43.36422" lon="-1.74647">
        <ele>53</ele>
        <time>2019-04-24T07:38:35Z</time>
      </trkpt>
      <trkpt lat="43.36509" lon="-1.74553">
        <ele>46</ele>
        <time>2019-04-24T07:38:47Z</time>
      </trkpt>
      <trkpt lat="43.36629" lon="-1.74585">
        <ele>43</ele>
        <time>2019-04-24T07:39:05Z</time>
      </trkpt>
      <trkpt lat="43.3669" lon="-1.74621">
        <ele>42</ele>
        <time>2019-04-24T07:39:17Z</time>
      </trkpt>
      <trkpt lat="43.36767" lon="-1.74646">
        <ele>43</ele>
        <time>2019-04-24T07:39:41Z</time>
      </trkpt>
      <trkpt lat="43.36806" lon="-1.74635">
        <ele>43</ele>
        <time>2019-04-24T07:39:47Z</time>
      </trkpt>
      <trkpt lat="43.36893" lon="-1.74583">
        <ele>43</ele>
        <time>2019-04-24T07:39:59Z</time>
      </trkpt>
      <trkpt lat="43.37006" lon="-1.746">
        <ele>38</ele>
        <time>2019-04-24T07:40:17Z</time>
      </trkpt>
      <trkpt lat="43.37056" lon="-1.74578">
        <ele>37</ele>
        <time>2019-04-24T07:40:29Z</time>
      </trkpt>
      <trkpt lat="43.37124" lon="-1.74523">
        <ele>36</ele>
        <time>2019-04-24T07:40:59Z</time>
      </trkpt>
      <trkpt lat="43.3715" lon="-1.74515">
        <ele>37</ele>
        <time>2019-04-24T07:41:11Z</time>
      </trkpt>
      <trkpt lat="43.37178" lon="-1.74512">
        <ele>36</ele>
        <time>2019-04-24T07:41:23Z</time>
      </trkpt>
      <trkpt lat="43.37187" lon="-1.74561">
        <ele>37</ele>
        <time>2019-04-24T07:41:41Z</time>
      </trkpt>
      <trkpt lat="43.37191" lon="-1.74615">
        <ele>39</ele>
        <time>2019-04-24T07:41:59Z</time>
      </trkpt>
      <trkpt lat="43.372" lon="-1.74669">
        <ele>40</ele>
        <time>2019-04-24T07:42:17Z</time>
      </trkpt>
      <trkpt lat="43.37215" lon="-1.7472">
        <ele>46</ele>
        <time>2019-04-24T07:42:35Z</time>
      </trkpt>
      <trkpt lat="43.3723" lon="-1.7475">
        <ele>46</ele>
        <time>2019-04-24T07:42:47Z</time>
      </trkpt>
      <trkpt lat="43.37251" lon="-1.74803">
        <ele>48</ele>
        <time>2019-04-24T07:43:05Z</time>
      </trkpt>
      <trkpt lat="43.37404" lon="-1.74992">
        <ele>56</ele>
        <time>2019-04-24T07:44:29Z</time>
      </trkpt>
      <trkpt lat="43.37434" lon="-1.75035">
        <ele>56</ele>
        <time>2019-04-24T07:44:47Z</time>
      </trkpt>
      <trkpt lat="43.37504" lon="-1.75164">
        <ele>66</ele>
        <time>2019-04-24T07:45:35Z</time>
      </trkpt>
      <trkpt lat="43.37502" lon="-1.75194">
        <ele>66</ele>
        <time>2019-04-24T07:45:47Z</time>
      </trkpt>
      <trkpt lat="43.37469" lon="-1.75191">
        <ele>64</ele>
        <time>2019-04-24T07:45:59Z</time>
      </trkpt>
      <trkpt lat="43.3747" lon="-1.75196">
        <ele>64</ele>
        <time>2019-04-24T07:46:35Z</time>
      </trkpt>
      <trkpt lat="43.37471" lon="-1.75193">
        <ele>64</ele>
        <time>2019-04-24T07:46:47Z</time>
      </trkpt>
      <trkpt lat="43.37454" lon="-1.75198">
        <ele>62</ele>
        <time>2019-04-24T07:47:11Z</time>
      </trkpt>
      <trkpt lat="43.37418" lon="-1.75224">
        <ele>60</ele>
        <time>2019-04-24T07:47:23Z</time>
      </trkpt>
      <trkpt lat="43.37383" lon="-1.75297">
        <ele>54</ele>
        <time>2019-04-24T07:47:35Z</time>
      </trkpt>
      <trkpt lat="43.37364" lon="-1.75398">
        <ele>51</ele>
        <time>2019-04-24T07:47:47Z</time>
      </trkpt>
      <trkpt lat="43.37351" lon="-1.75476">
        <ele>47</ele>
        <time>2019-04-24T07:47:59Z</time>
      </trkpt>
      <trkpt lat="43.37367" lon="-1.75573">
        <ele>44</ele>
        <time>2019-04-24T07:48:29Z</time>
      </trkpt>
      <trkpt lat="43.37423" lon="-1.75633">
        <ele>36</ele>
        <time>2019-04-24T07:48:41Z</time>
      </trkpt>
      <trkpt lat="43.37465" lon="-1.7573">
        <ele>32</ele>
        <time>2019-04-24T07:48:53Z</time>
      </trkpt>
      <trkpt lat="43.37451" lon="-1.7578">
        <ele>31</ele>
        <time>2019-04-24T07:48:59Z</time>
      </trkpt>
      <trkpt lat="43.37419" lon="-1.75822">
        <ele>29</ele>
        <time>2019-04-24T07:49:05Z</time>
      </trkpt>
      <trkpt lat="43.37367" lon="-1.75917">
        <ele>27</ele>
        <time>2019-04-24T07:49:17Z</time>
      </trkpt>
      <trkpt lat="43.37396" lon="-1.76019">
        <ele>20</ele>
        <time>2019-04-24T07:49:29Z</time>
      </trkpt>
      <trkpt lat="43.37474" lon="-1.76064">
        <ele>14</ele>
        <time>2019-04-24T07:49:41Z</time>
      </trkpt>
      <trkpt lat="43.37501" lon="-1.76087">
        <ele>13</ele>
        <time>2019-04-24T07:49:47Z</time>
      </trkpt>
      <trkpt lat="43.37527" lon="-1.76116">
        <ele>12</ele>
        <time>2019-04-24T07:49:59Z</time>
      </trkpt>
      <trkpt lat="43.37547" lon="-1.76176">
        <ele>9</ele>
        <time>2019-04-24T07:50:11Z</time>
      </trkpt>
      <trkpt lat="43.37558" lon="-1.76192">
        <ele>9</ele>
        <time>2019-04-24T07:50:23Z</time>
      </trkpt>
      <trkpt lat="43.37563" lon="-1.76213">
        <ele>6</ele>
        <time>2019-04-24T07:50:35Z</time>
      </trkpt>
      <trkpt lat="43.3756" lon="-1.7625">
        <ele>7</ele>
        <time>2019-04-24T07:50:47Z</time>
      </trkpt>
      <trkpt lat="43.3757" lon="-1.76273">
        <ele>5</ele>
        <time>2019-04-24T07:51:29Z</time>
      </trkpt>
      <trkpt lat="43.3757" lon="-1.76282">
        <ele>5</ele>
        <time>2019-04-24T07:51:41Z</time>
      </trkpt>
      <trkpt lat="43.37524" lon="-1.76484">
        <ele>5</ele>
        <time>2019-04-24T07:56:17Z</time>
      </trkpt>
      <trkpt lat="43.37485" lon="-1.76637">
        <ele>6</ele>
        <time>2019-04-24T07:56:53Z</time>
      </trkpt>
      <trkpt lat="43.37415" lon="-1.76969">
        <ele>2</ele>
        <time>2019-04-24T07:58:11Z</time>
      </trkpt>
      <trkpt lat="43.37382" lon="-1.77108">
        <ele>3</ele>
        <time>2019-04-24T07:58:41Z</time>
      </trkpt>
      <trkpt lat="43.37347" lon="-1.77278">
        <ele>4</ele>
        <time>2019-04-24T07:59:23Z</time>
      </trkpt>
      <trkpt lat="43.37336" lon="-1.77349">
        <ele>4</ele>
        <time>2019-04-24T07:59:41Z</time>
      </trkpt>
      <trkpt lat="43.37321" lon="-1.77391">
        <ele>6</ele>
        <time>2019-04-24T07:59:53Z</time>
      </trkpt>
      <trkpt lat="43.37313" lon="-1.77458">
        <ele>6</ele>
        <time>2019-04-24T08:00:11Z</time>
      </trkpt>
      <trkpt lat="43.3731" lon="-1.77511">
        <ele>5</ele>
        <time>2019-04-24T08:00:23Z</time>
      </trkpt>
      <trkpt lat="43.37277" lon="-1.77746">
        <ele>4</ele>
        <time>2019-04-24T08:01:23Z</time>
      </trkpt>
      <trkpt lat="43.37261" lon="-1.77788">
        <ele>5</ele>
        <time>2019-04-24T08:01:35Z</time>
      </trkpt>
      <trkpt lat="43.37267" lon="-1.77836">
        <ele>3</ele>
        <time>2019-04-24T08:01:47Z</time>
      </trkpt>
      <trkpt lat="43.37238" lon="-1.78047">
        <ele>2</ele>
        <time>2019-04-24T08:02:35Z</time>
      </trkpt>
      <trkpt lat="43.37228" lon="-1.78097">
        <ele>4</ele>
        <time>2019-04-24T08:02:47Z</time>
      </trkpt>
      <trkpt lat="43.37225" lon="-1.78141">
        <ele>3</ele>
        <time>2019-04-24T08:02:59Z</time>
      </trkpt>
      <trkpt lat="43.37188" lon="-1.78361">
        <ele>2</ele>
        <time>2019-04-24T08:03:41Z</time>
      </trkpt>
      <trkpt lat="43.37165" lon="-1.78461">
        <ele>4</ele>
        <time>2019-04-24T08:04:05Z</time>
      </trkpt>
      <trkpt lat="43.3714" lon="-1.78593">
        <ele>4</ele>
        <time>2019-04-24T08:04:29Z</time>
      </trkpt>
      <trkpt lat="43.37131" lon="-1.7865">
        <ele>2</ele>
        <time>2019-04-24T08:04:41Z</time>
      </trkpt>
      <trkpt lat="43.37125" lon="-1.78736">
        <ele>3</ele>
        <time>2019-04-24T08:04:59Z</time>
      </trkpt>
      <trkpt lat="43.37116" lon="-1.78786">
        <ele>2</ele>
        <time>2019-04-24T08:05:11Z</time>
      </trkpt>
      <trkpt lat="43.37104" lon="-1.78805">
        <ele>3.7</ele>
        <time>2019-04-24T08:05:23Z</time>
      </trkpt>
      <trkpt lat="43.37035" lon="-1.78784">
        <ele>3.6</ele>
        <time>2019-04-24T08:06:47Z</time>
      </trkpt>
      <trkpt lat="43.37008" lon="-1.78769">
        <ele>2.4</ele>
        <time>2019-04-24T08:07:17Z</time>
      </trkpt>
      <trkpt lat="43.37015" lon="-1.78773">
        <ele>3</ele>
        <time>2019-04-24T08:07:59Z</time>
      </trkpt>
      <trkpt lat="43.37012" lon="-1.78774">
        <ele>2.8</ele>
        <time>2019-04-24T08:08:11Z</time>
      </trkpt>
      <trkpt lat="43.37017" lon="-1.78776">
        <ele>3.2</ele>
        <time>2019-04-24T08:09:23Z</time>
      </trkpt>
      <trkpt lat="43.37014" lon="-1.78777">
        <ele>3</ele>
        <time>2019-04-24T08:11:47Z</time>
      </trkpt>
      <trkpt lat="43.37101" lon="-1.78805">
        <ele>3.6</ele>
        <time>2019-04-24T08:13:11Z</time>
      </trkpt>
      <trkpt lat="43.37112" lon="-1.78793">
        <ele>2</ele>
        <time>2019-04-24T08:13:17Z</time>
      </trkpt>
      <trkpt lat="43.37123" lon="-1.78752">
        <ele>3</ele>
        <time>2019-04-24T08:13:29Z</time>
      </trkpt>
      <trkpt lat="43.37131" lon="-1.78704">
        <ele>2</ele>
        <time>2019-04-24T08:13:41Z</time>
      </trkpt>
      <trkpt lat="43.37129" lon="-1.78671">
        <ele>1</ele>
        <time>2019-04-24T08:14:23Z</time>
      </trkpt>
      <trkpt lat="43.37154" lon="-1.78538">
        <ele>4</ele>
        <time>2019-04-24T08:15:23Z</time>
      </trkpt>
      <trkpt lat="43.37155" lon="-1.78512">
        <ele>5</ele>
        <time>2019-04-24T08:15:29Z</time>
      </trkpt>
      <trkpt lat="43.37162" lon="-1.7848">
        <ele>4</ele>
        <time>2019-04-24T08:15:35Z</time>
      </trkpt>
      <trkpt lat="43.37168" lon="-1.78422">
        <ele>4</ele>
        <time>2019-04-24T08:15:47Z</time>
      </trkpt>
      <trkpt lat="43.37174" lon="-1.78392">
        <ele>4</ele>
        <time>2019-04-24T08:15:53Z</time>
      </trkpt>
      <trkpt lat="43.37195" lon="-1.78329">
        <ele>2</ele>
        <time>2019-04-24T08:16:05Z</time>
      </trkpt>
      <trkpt lat="43.37214" lon="-1.78236">
        <ele>1</ele>
        <time>2019-04-24T08:16:23Z</time>
      </trkpt>
      <trkpt lat="43.37226" lon="-1.78155">
        <ele>3</ele>
        <time>2019-04-24T08:16:41Z</time>
      </trkpt>
      <trkpt lat="43.37229" lon="-1.7809">
        <ele>4</ele>
        <time>2019-04-24T08:17:05Z</time>
      </trkpt>
      <trkpt lat="43.37236" lon="-1.78076">
        <ele>4</ele>
        <time>2019-04-24T08:17:53Z</time>
      </trkpt>
      <trkpt lat="43.37244" lon="-1.7803">
        <ele>2</ele>
        <time>2019-04-24T08:18:05Z</time>
      </trkpt>
      <trkpt lat="43.37244" lon="-1.78007">
        <ele>2</ele>
        <time>2019-04-24T08:18:11Z</time>
      </trkpt>
      <trkpt lat="43.37255" lon="-1.7793">
        <ele>2</ele>
        <time>2019-04-24T08:18:29Z</time>
      </trkpt>
      <trkpt lat="43.37266" lon="-1.77877">
        <ele>1</ele>
        <time>2019-04-24T08:18:41Z</time>
      </trkpt>
      <trkpt lat="43.37269" lon="-1.77836">
        <ele>3</ele>
        <time>2019-04-24T08:18:53Z</time>
      </trkpt>
      <trkpt lat="43.37277" lon="-1.77821">
        <ele>3</ele>
        <time>2019-04-24T08:19:05Z</time>
      </trkpt>
      <trkpt lat="43.3727" lon="-1.77797">
        <ele>3</ele>
        <time>2019-04-24T08:20:05Z</time>
      </trkpt>
      <trkpt lat="43.37285" lon="-1.77726">
        <ele>4</ele>
        <time>2019-04-24T08:20:29Z</time>
      </trkpt>
      <trkpt lat="43.37284" lon="-1.77673">
        <ele>4</ele>
        <time>2019-04-24T08:21:05Z</time>
      </trkpt>
      <trkpt lat="43.37293" lon="-1.77621">
        <ele>4</ele>
        <time>2019-04-24T08:21:17Z</time>
      </trkpt>
      <trkpt lat="43.37305" lon="-1.77489">
        <ele>6</ele>
        <time>2019-04-24T08:21:47Z</time>
      </trkpt>
      <trkpt lat="43.3732" lon="-1.7742">
        <ele>6</ele>
        <time>2019-04-24T08:22:05Z</time>
      </trkpt>
      <trkpt lat="43.37329" lon="-1.77298">
        <ele>6</ele>
        <time>2019-04-24T08:22:29Z</time>
      </trkpt>
      <trkpt lat="43.37346" lon="-1.7725">
        <ele>5</ele>
        <time>2019-04-24T08:22:41Z</time>
      </trkpt>
      <trkpt lat="43.37359" lon="-1.77194">
        <ele>5</ele>
        <time>2019-04-24T08:22:53Z</time>
      </trkpt>
      <trkpt lat="43.37378" lon="-1.77131">
        <ele>3</ele>
        <time>2019-04-24T08:23:05Z</time>
      </trkpt>
      <trkpt lat="43.37382" lon="-1.771">
        <ele>3</ele>
        <time>2019-04-24T08:23:11Z</time>
      </trkpt>
      <trkpt lat="43.37421" lon="-1.76924">
        <ele>3</ele>
        <time>2019-04-24T08:23:47Z</time>
      </trkpt>
      <trkpt lat="43.37441" lon="-1.76862">
        <ele>3</ele>
        <time>2019-04-24T08:24:23Z</time>
      </trkpt>
      <trkpt lat="43.37484" lon="-1.76661">
        <ele>5</ele>
        <time>2019-04-24T08:25:17Z</time>
      </trkpt>
      <trkpt lat="43.37573" lon="-1.76284">
        <ele>5</ele>
        <time>2019-04-24T08:26:41Z</time>
      </trkpt>
      <trkpt lat="43.37571" lon="-1.7628">
        <ele>5</ele>
        <time>2019-04-24T08:29:53Z</time>
      </trkpt>
      <trkpt lat="43.37575" lon="-1.76274">
        <ele>5</ele>
        <time>2019-04-24T08:30:59Z</time>
      </trkpt>
      <trkpt lat="43.37567" lon="-1.76257">
        <ele>6</ele>
        <time>2019-04-24T08:31:11Z</time>
      </trkpt>
      <trkpt lat="43.37569" lon="-1.76214">
        <ele>6</ele>
        <time>2019-04-24T08:31:29Z</time>
      </trkpt>
      <trkpt lat="43.37514" lon="-1.76096">
        <ele>12</ele>
        <time>2019-04-24T08:32:17Z</time>
      </trkpt>
      <trkpt lat="43.37455" lon="-1.76052">
        <ele>16</ele>
        <time>2019-04-24T08:32:47Z</time>
      </trkpt>
      <trkpt lat="43.37415" lon="-1.76037">
        <ele>17</ele>
        <time>2019-04-24T08:33:11Z</time>
      </trkpt>
      <trkpt lat="43.37393" lon="-1.7602">
        <ele>20</ele>
        <time>2019-04-24T08:33:23Z</time>
      </trkpt>
      <trkpt lat="43.37375" lon="-1.75999">
        <ele>21</ele>
        <time>2019-04-24T08:33:35Z</time>
      </trkpt>
      <trkpt lat="43.37365" lon="-1.75945">
        <ele>25</ele>
        <time>2019-04-24T08:33:59Z</time>
      </trkpt>
      <trkpt lat="43.37367" lon="-1.75929">
        <ele>25</ele>
        <time>2019-04-24T08:34:05Z</time>
      </trkpt>
      <trkpt lat="43.37376" lon="-1.75898">
        <ele>27</ele>
        <time>2019-04-24T08:34:17Z</time>
      </trkpt>
      <trkpt lat="43.3739" lon="-1.75868">
        <ele>28</ele>
        <time>2019-04-24T08:34:29Z</time>
      </trkpt>
      <trkpt lat="43.37461" lon="-1.75764">
        <ele>31</ele>
        <time>2019-04-24T08:35:17Z</time>
      </trkpt>
      <trkpt lat="43.37467" lon="-1.75716">
        <ele>32</ele>
        <time>2019-04-24T08:35:35Z</time>
      </trkpt>
      <trkpt lat="43.37457" lon="-1.75661">
        <ele>34</ele>
        <time>2019-04-24T08:35:53Z</time>
      </trkpt>
      <trkpt lat="43.37435" lon="-1.75637">
        <ele>36</ele>
        <time>2019-04-24T08:36:05Z</time>
      </trkpt>
      <trkpt lat="43.37406" lon="-1.75619">
        <ele>38</ele>
        <time>2019-04-24T08:36:17Z</time>
      </trkpt>
      <trkpt lat="43.37375" lon="-1.75585">
        <ele>41</ele>
        <time>2019-04-24T08:36:35Z</time>
      </trkpt>
      <trkpt lat="43.37368" lon="-1.75567">
        <ele>44</ele>
        <time>2019-04-24T08:36:41Z</time>
      </trkpt>
      <trkpt lat="43.37353" lon="-1.755">
        <ele>47</ele>
        <time>2019-04-24T08:37:05Z</time>
      </trkpt>
      <trkpt lat="43.37364" lon="-1.75443">
        <ele>49</ele>
        <time>2019-04-24T08:37:23Z</time>
      </trkpt>
      <trkpt lat="43.37364" lon="-1.75426">
        <ele>50</ele>
        <time>2019-04-24T08:37:29Z</time>
      </trkpt>
      <trkpt lat="43.37379" lon="-1.75322">
        <ele>53</ele>
        <time>2019-04-24T08:38:05Z</time>
      </trkpt>
      <trkpt lat="43.3739" lon="-1.75275">
        <ele>57</ele>
        <time>2019-04-24T08:38:23Z</time>
      </trkpt>
      <trkpt lat="43.37405" lon="-1.75245">
        <ele>57</ele>
        <time>2019-04-24T08:38:35Z</time>
      </trkpt>
      <trkpt lat="43.37414" lon="-1.75232">
        <ele>59</ele>
        <time>2019-04-24T08:38:41Z</time>
      </trkpt>
      <trkpt lat="43.37442" lon="-1.75204">
        <ele>62</ele>
        <time>2019-04-24T08:38:59Z</time>
      </trkpt>
      <trkpt lat="43.37476" lon="-1.75195">
        <ele>64</ele>
        <time>2019-04-24T08:39:17Z</time>
      </trkpt>
      <trkpt lat="43.37489" lon="-1.75159">
        <ele>66</ele>
        <time>2019-04-24T08:39:29Z</time>
      </trkpt>
      <trkpt lat="43.375" lon="-1.75165">
        <ele>66</ele>
        <time>2019-04-24T08:39:35Z</time>
      </trkpt>
      <trkpt lat="43.37518" lon="-1.75181">
        <ele>66</ele>
        <time>2019-04-24T08:39:47Z</time>
      </trkpt>
      <trkpt lat="43.37533" lon="-1.75179">
        <ele>66</ele>
        <time>2019-04-24T08:39:59Z</time>
      </trkpt>
      <trkpt lat="43.37546" lon="-1.75172">
        <ele>66</ele>
        <time>2019-04-24T08:40:11Z</time>
      </trkpt>
      <trkpt lat="43.37566" lon="-1.75153">
        <ele>66</ele>
        <time>2019-04-24T08:40:29Z</time>
      </trkpt>
      <trkpt lat="43.3757" lon="-1.75142">
        <ele>66</ele>
        <time>2019-04-24T08:40:35Z</time>
      </trkpt>
      <trkpt lat="43.37584" lon="-1.75123">
        <ele>66</ele>
        <time>2019-04-24T08:40:47Z</time>
      </trkpt>
      <trkpt lat="43.37589" lon="-1.75102">
        <ele>67</ele>
        <time>2019-04-24T08:41:11Z</time>
      </trkpt>
      <trkpt lat="43.37601" lon="-1.75083">
        <ele>67</ele>
        <time>2019-04-24T08:41:23Z</time>
      </trkpt>
      <trkpt lat="43.37599" lon="-1.75076">
        <ele>67</ele>
        <time>2019-04-24T08:41:53Z</time>
      </trkpt>
      <trkpt lat="43.37599" lon="-1.75083">
        <ele>67</ele>
        <time>2019-04-24T08:42:05Z</time>
      </trkpt>
      <trkpt lat="43.37611" lon="-1.75072">
        <ele>67</ele>
        <time>2019-04-24T08:42:17Z</time>
      </trkpt>
      <trkpt lat="43.37632" lon="-1.75044">
        <ele>69</ele>
        <time>2019-04-24T08:42:35Z</time>
      </trkpt>
      <trkpt lat="43.37644" lon="-1.75022">
        <ele>71</ele>
        <time>2019-04-24T08:42:53Z</time>
      </trkpt>
      <trkpt lat="43.3765" lon="-1.75004">
        <ele>71</ele>
        <time>2019-04-24T08:43:05Z</time>
      </trkpt>
      <trkpt lat="43.37672" lon="-1.74981">
        <ele>71</ele>
        <time>2019-04-24T08:43:29Z</time>
      </trkpt>
      <trkpt lat="43.37676" lon="-1.74981">
        <ele>71</ele>
        <time>2019-04-24T08:43:59Z</time>
      </trkpt>
      <trkpt lat="43.3768" lon="-1.74972">
        <ele>71</ele>
        <time>2019-04-24T08:44:41Z</time>
      </trkpt>
      <trkpt lat="43.37678" lon="-1.74965">
        <ele>71</ele>
        <time>2019-04-24T08:46:53Z</time>
      </trkpt>
      <trkpt lat="43.37681" lon="-1.7497">
        <ele>71</ele>
        <time>2019-04-24T08:49:06Z</time>
      </trkpt>
      <trkpt lat="43.37675" lon="-1.74975">
        <ele>71</ele>
        <time>2019-04-24T08:50:30Z</time>
      </trkpt>
      <trkpt lat="43.37675" lon="-1.7498">
        <ele>71</ele>
        <time>2019-04-24T08:51:06Z</time>
      </trkpt>
      <trkpt lat="43.37673" lon="-1.74974">
        <ele>71</ele>
        <time>2019-04-24T08:52:12Z</time>
      </trkpt>
      <trkpt lat="43.37674" lon="-1.74978">
        <ele>71</ele>
        <time>2019-04-24T08:53:30Z</time>
      </trkpt>
      <trkpt lat="43.37663" lon="-1.74991">
        <ele>71</ele>
        <time>2019-04-24T08:54:06Z</time>
      </trkpt>
      <trkpt lat="43.3761" lon="-1.75073">
        <ele>67</ele>
        <time>2019-04-24T08:54:30Z</time>
      </trkpt>
      <trkpt lat="43.376" lon="-1.75081">
        <ele>67</ele>
        <time>2019-04-24T08:54:36Z</time>
      </trkpt>
      <trkpt lat="43.37595" lon="-1.75072">
        <ele>67</ele>
        <time>2019-04-24T08:54:48Z</time>
      </trkpt>
      <trkpt lat="43.37614" lon="-1.74969">
        <ele>71</ele>
        <time>2019-04-24T08:55:06Z</time>
      </trkpt>
      <trkpt lat="43.37617" lon="-1.74921">
        <ele>69</ele>
        <time>2019-04-24T08:55:12Z</time>
      </trkpt>
      <trkpt lat="43.3763" lon="-1.7484">
        <ele>66</ele>
        <time>2019-04-24T08:55:24Z</time>
      </trkpt>
      <trkpt lat="43.37699" lon="-1.74722">
        <ele>63</ele>
        <time>2019-04-24T08:55:42Z</time>
      </trkpt>
      <trkpt lat="43.3773" lon="-1.74617">
        <ele>60</ele>
        <time>2019-04-24T08:56:00Z</time>
      </trkpt>
      <trkpt lat="43.37744" lon="-1.74531">
        <ele>56</ele>
        <time>2019-04-24T08:56:12Z</time>
      </trkpt>
      <trkpt lat="43.3774" lon="-1.74327">
        <ele>44</ele>
        <time>2019-04-24T08:56:42Z</time>
      </trkpt>
      <trkpt lat="43.37709" lon="-1.74236">
        <ele>44</ele>
        <time>2019-04-24T08:57:12Z</time>
      </trkpt>
      <trkpt lat="43.37671" lon="-1.74145">
        <ele>45</ele>
        <time>2019-04-24T08:57:30Z</time>
      </trkpt>
      <trkpt lat="43.37645" lon="-1.74043">
        <ele>41</ele>
        <time>2019-04-24T08:57:42Z</time>
      </trkpt>
      <trkpt lat="43.3766" lon="-1.73968">
        <ele>38</ele>
        <time>2019-04-24T08:57:48Z</time>
      </trkpt>
      <trkpt lat="43.37692" lon="-1.73931">
        <ele>35</ele>
        <time>2019-04-24T08:57:54Z</time>
      </trkpt>
      <trkpt lat="43.37749" lon="-1.73857">
        <ele>26</ele>
        <time>2019-04-24T08:58:06Z</time>
      </trkpt>
      <trkpt lat="43.37763" lon="-1.73794">
        <ele>24</ele>
        <time>2019-04-24T08:58:12Z</time>
      </trkpt>
      <trkpt lat="43.37751" lon="-1.73727">
        <ele>24</ele>
        <time>2019-04-24T08:58:18Z</time>
      </trkpt>
      <trkpt lat="43.37741" lon="-1.73611">
        <ele>24</ele>
        <time>2019-04-24T08:58:30Z</time>
      </trkpt>
      <trkpt lat="43.37763" lon="-1.7355">
        <ele>22</ele>
        <time>2019-04-24T08:58:36Z</time>
      </trkpt>
      <trkpt lat="43.37876" lon="-1.73368">
        <ele>14</ele>
        <time>2019-04-24T08:59:00Z</time>
      </trkpt>
      <trkpt lat="43.37896" lon="-1.73337">
        <ele>15</ele>
        <time>2019-04-24T08:59:06Z</time>
      </trkpt>
      <trkpt lat="43.37913" lon="-1.7332">
        <ele>15</ele>
        <time>2019-04-24T08:59:18Z</time>
      </trkpt>
      <trkpt lat="43.37919" lon="-1.73301">
        <ele>16</ele>
        <time>2019-04-24T08:59:42Z</time>
      </trkpt>
      <trkpt lat="43.38018" lon="-1.73235">
        <ele>16</ele>
        <time>2019-04-24T09:00:24Z</time>
      </trkpt>
      <trkpt lat="43.38036" lon="-1.73229">
        <ele>15</ele>
        <time>2019-04-24T09:00:30Z</time>
      </trkpt>
      <trkpt lat="43.38111" lon="-1.73227">
        <ele>15</ele>
        <time>2019-04-24T09:01:00Z</time>
      </trkpt>
      <trkpt lat="43.38128" lon="-1.73221">
        <ele>15</ele>
        <time>2019-04-24T09:01:06Z</time>
      </trkpt>
      <trkpt lat="43.38157" lon="-1.73194">
        <ele>19</ele>
        <time>2019-04-24T09:01:18Z</time>
      </trkpt>
      <trkpt lat="43.38168" lon="-1.73175">
        <ele>12</ele>
        <time>2019-04-24T09:01:24Z</time>
      </trkpt>
      <trkpt lat="43.3818" lon="-1.73105">
        <ele>12</ele>
        <time>2019-04-24T09:01:36Z</time>
      </trkpt>
      <trkpt lat="43.38165" lon="-1.72925">
        <ele>19</ele>
        <time>2019-04-24T09:01:54Z</time>
      </trkpt>
      <trkpt lat="43.38174" lon="-1.72875">
        <ele>20</ele>
        <time>2019-04-24T09:02:00Z</time>
      </trkpt>
      <trkpt lat="43.38209" lon="-1.72741">
        <ele>19</ele>
        <time>2019-04-24T09:02:18Z</time>
      </trkpt>
      <trkpt lat="43.38239" lon="-1.72697">
        <ele>21</ele>
        <time>2019-04-24T09:02:30Z</time>
      </trkpt>
      <trkpt lat="43.38376" lon="-1.72571">
        <ele>25</ele>
        <time>2019-04-24T09:03:24Z</time>
      </trkpt>
      <trkpt lat="43.38402" lon="-1.72537">
        <ele>26</ele>
        <time>2019-04-24T09:03:36Z</time>
      </trkpt>
      <trkpt lat="43.3842" lon="-1.72501">
        <ele>26</ele>
        <time>2019-04-24T09:03:48Z</time>
      </trkpt>
      <trkpt lat="43.38433" lon="-1.72444">
        <ele>30</ele>
        <time>2019-04-24T09:04:06Z</time>
      </trkpt>
      <trkpt lat="43.38433" lon="-1.72385">
        <ele>31</ele>
        <time>2019-04-24T09:04:24Z</time>
      </trkpt>
      <trkpt lat="43.38405" lon="-1.72252">
        <ele>39</ele>
        <time>2019-04-24T09:05:06Z</time>
      </trkpt>
      <trkpt lat="43.38403" lon="-1.72232">
        <ele>40</ele>
        <time>2019-04-24T09:05:12Z</time>
      </trkpt>
      <trkpt lat="43.38404" lon="-1.72187">
        <ele>41</ele>
        <time>2019-04-24T09:05:24Z</time>
      </trkpt>
      <trkpt lat="43.38417" lon="-1.72141">
        <ele>39</ele>
        <time>2019-04-24T09:05:36Z</time>
      </trkpt>
      <trkpt lat="43.38561" lon="-1.7175">
        <ele>23</ele>
        <time>2019-04-24T09:06:18Z</time>
      </trkpt>
      <trkpt lat="43.38612" lon="-1.7159">
        <ele>22</ele>
        <time>2019-04-24T09:06:30Z</time>
      </trkpt>
      <trkpt lat="43.3867" lon="-1.71383">
        <ele>15</ele>
        <time>2019-04-24T09:06:48Z</time>
      </trkpt>
      <trkpt lat="43.38679" lon="-1.71313">
        <ele>14</ele>
        <time>2019-04-24T09:06:54Z</time>
      </trkpt>
      <trkpt lat="43.3867" lon="-1.71242">
        <ele>15</ele>
        <time>2019-04-24T09:07:00Z</time>
      </trkpt>
      <trkpt lat="43.38646" lon="-1.71155">
        <ele>18</ele>
        <time>2019-04-24T09:07:12Z</time>
      </trkpt>
      <trkpt lat="43.38633" lon="-1.71093">
        <ele>23</ele>
        <time>2019-04-24T09:07:30Z</time>
      </trkpt>
      <trkpt lat="43.3863" lon="-1.71052">
        <ele>25</ele>
        <time>2019-04-24T09:07:42Z</time>
      </trkpt>
      <trkpt lat="43.38636" lon="-1.71013">
        <ele>25</ele>
        <time>2019-04-24T09:07:54Z</time>
      </trkpt>
      <trkpt lat="43.38651" lon="-1.7098">
        <ele>27</ele>
        <time>2019-04-24T09:08:06Z</time>
      </trkpt>
      <trkpt lat="43.38673" lon="-1.70955">
        <ele>29</ele>
        <time>2019-04-24T09:08:18Z</time>
      </trkpt>
      <trkpt lat="43.38716" lon="-1.70932">
        <ele>29</ele>
        <time>2019-04-24T09:08:36Z</time>
      </trkpt>
      <trkpt lat="43.38834" lon="-1.70888">
        <ele>30</ele>
        <time>2019-04-24T09:09:24Z</time>
      </trkpt>
      <trkpt lat="43.38861" lon="-1.70868">
        <ele>29</ele>
        <time>2019-04-24T09:09:36Z</time>
      </trkpt>
      <trkpt lat="43.38877" lon="-1.70832">
        <ele>32</ele>
        <time>2019-04-24T09:09:48Z</time>
      </trkpt>
      <trkpt lat="43.3889" lon="-1.70727">
        <ele>37</ele>
        <time>2019-04-24T09:10:18Z</time>
      </trkpt>
      <trkpt lat="43.38901" lon="-1.7068">
        <ele>39</ele>
        <time>2019-04-24T09:10:30Z</time>
      </trkpt>
      <trkpt lat="43.38921" lon="-1.70635">
        <ele>41</ele>
        <time>2019-04-24T09:10:42Z</time>
      </trkpt>
      <trkpt lat="43.3895" lon="-1.70585">
        <ele>41</ele>
        <time>2019-04-24T09:10:54Z</time>
      </trkpt>
      <trkpt lat="43.38988" lon="-1.70459">
        <ele>37</ele>
        <time>2019-04-24T09:11:12Z</time>
      </trkpt>
      <trkpt lat="43.39057" lon="-1.70254">
        <ele>29</ele>
        <time>2019-04-24T09:11:30Z</time>
      </trkpt>
      <trkpt lat="43.39065" lon="-1.70197">
        <ele>29</ele>
        <time>2019-04-24T09:11:36Z</time>
      </trkpt>
      <trkpt lat="43.39048" lon="-1.7009">
        <ele>36</ele>
        <time>2019-04-24T09:12:00Z</time>
      </trkpt>
      <trkpt lat="43.39087" lon="-1.70085">
        <ele>38</ele>
        <time>2019-04-24T09:12:12Z</time>
      </trkpt>
      <trkpt lat="43.39135" lon="-1.70059">
        <ele>32</ele>
        <time>2019-04-24T09:12:24Z</time>
      </trkpt>
      <trkpt lat="43.39145" lon="-1.70033">
        <ele>34</ele>
        <time>2019-04-24T09:12:30Z</time>
      </trkpt>
      <trkpt lat="43.3914" lon="-1.69855">
        <ele>45</ele>
        <time>2019-04-24T09:13:06Z</time>
      </trkpt>
      <trkpt lat="43.39152" lon="-1.69783">
        <ele>42</ele>
        <time>2019-04-24T09:13:18Z</time>
      </trkpt>
      <trkpt lat="43.39218" lon="-1.69608">
        <ele>25</ele>
        <time>2019-04-24T09:13:36Z</time>
      </trkpt>
      <trkpt lat="43.39301" lon="-1.69446">
        <ele>28</ele>
        <time>2019-04-24T09:13:54Z</time>
      </trkpt>
      <trkpt lat="43.39339" lon="-1.69379">
        <ele>22</ele>
        <time>2019-04-24T09:14:06Z</time>
      </trkpt>
      <trkpt lat="43.39368" lon="-1.69313">
        <ele>19</ele>
        <time>2019-04-24T09:14:18Z</time>
      </trkpt>
      <trkpt lat="43.39391" lon="-1.69141">
        <ele>17</ele>
        <time>2019-04-24T09:14:36Z</time>
      </trkpt>
      <trkpt lat="43.39431" lon="-1.6891">
        <ele>14</ele>
        <time>2019-04-24T09:14:54Z</time>
      </trkpt>
      <trkpt lat="43.39387" lon="-1.68779">
        <ele>15</ele>
        <time>2019-04-24T09:15:06Z</time>
      </trkpt>
      <trkpt lat="43.39347" lon="-1.68744">
        <ele>14</ele>
        <time>2019-04-24T09:15:12Z</time>
      </trkpt>
      <trkpt lat="43.39267" lon="-1.68698">
        <ele>13</ele>
        <time>2019-04-24T09:15:24Z</time>
      </trkpt>
      <trkpt lat="43.39239" lon="-1.68658">
        <ele>11</ele>
        <time>2019-04-24T09:15:30Z</time>
      </trkpt>
      <trkpt lat="43.39201" lon="-1.68623">
        <ele>9</ele>
        <time>2019-04-24T09:15:42Z</time>
      </trkpt>
      <trkpt lat="43.39176" lon="-1.68616">
        <ele>8</ele>
        <time>2019-04-24T09:15:48Z</time>
      </trkpt>
      <trkpt lat="43.39128" lon="-1.68612">
        <ele>7</ele>
        <time>2019-04-24T09:16:00Z</time>
      </trkpt>
      <trkpt lat="43.39108" lon="-1.68605">
        <ele>7</ele>
        <time>2019-04-24T09:16:06Z</time>
      </trkpt>
      <trkpt lat="43.39096" lon="-1.68593">
        <ele>6</ele>
        <time>2019-04-24T09:16:18Z</time>
      </trkpt>
      <trkpt lat="43.39093" lon="-1.68608">
        <ele>6</ele>
        <time>2019-04-24T09:17:53Z</time>
      </trkpt>
      <trkpt lat="43.39094" lon="-1.6859">
        <ele>6</ele>
        <time>2019-04-24T09:22:47Z</time>
      </trkpt>
      <trkpt lat="43.39091" lon="-1.68604">
        <ele>6</ele>
        <time>2019-04-24T09:24:23Z</time>
      </trkpt>
      <trkpt lat="43.39101" lon="-1.68555">
        <ele>6</ele>
        <time>2019-04-24T09:25:05Z</time>
      </trkpt>
      <trkpt lat="43.39128" lon="-1.68545">
        <ele>7</ele>
        <time>2019-04-24T09:25:17Z</time>
      </trkpt>
      <trkpt lat="43.39165" lon="-1.68548">
        <ele>8</ele>
        <time>2019-04-24T09:25:29Z</time>
      </trkpt>
      <trkpt lat="43.39205" lon="-1.68536">
        <ele>7</ele>
        <time>2019-04-24T09:25:41Z</time>
      </trkpt>
      <trkpt lat="43.39272" lon="-1.68501">
        <ele>6</ele>
        <time>2019-04-24T09:25:59Z</time>
      </trkpt>
      <trkpt lat="43.39342" lon="-1.68487">
        <ele>6</ele>
        <time>2019-04-24T09:26:23Z</time>
      </trkpt>
      <trkpt lat="43.39363" lon="-1.68477">
        <ele>6</ele>
        <time>2019-04-24T09:26:59Z</time>
      </trkpt>
      <trkpt lat="43.39365" lon="-1.68467">
        <ele>4</ele>
        <time>2019-04-24T09:27:11Z</time>
      </trkpt>
      <trkpt lat="43.39368" lon="-1.68473">
        <ele>6</ele>
        <time>2019-04-24T09:27:35Z</time>
      </trkpt>
      <trkpt lat="43.39358" lon="-1.68479">
        <ele>6</ele>
        <time>2019-04-24T09:27:41Z</time>
      </trkpt>
      <trkpt lat="43.39348" lon="-1.68466">
        <ele>4</ele>
        <time>2019-04-24T09:27:47Z</time>
      </trkpt>
      <trkpt lat="43.39329" lon="-1.68433">
        <ele>3</ele>
        <time>2019-04-24T09:27:59Z</time>
      </trkpt>
      <trkpt lat="43.3926" lon="-1.68345">
        <ele>3.8</ele>
        <time>2019-04-24T09:28:29Z</time>
      </trkpt>
      <trkpt lat="43.39235" lon="-1.68338">
        <ele>3.6</ele>
        <time>2019-04-24T09:28:35Z</time>
      </trkpt>
      <trkpt lat="43.39223" lon="-1.68356">
        <ele>3.8</ele>
        <time>2019-04-24T09:28:41Z</time>
      </trkpt>
      <trkpt lat="43.3919" lon="-1.68374">
        <ele>4</ele>
        <time>2019-04-24T09:28:53Z</time>
      </trkpt>
      <trkpt lat="43.39158" lon="-1.68407">
        <ele>2</ele>
        <time>2019-04-24T09:29:05Z</time>
      </trkpt>
      <trkpt lat="43.39091" lon="-1.68453">
        <ele>4</ele>
        <time>2019-04-24T09:29:23Z</time>
      </trkpt>
      <trkpt lat="43.39028" lon="-1.68527">
        <ele>4</ele>
        <time>2019-04-24T09:29:41Z</time>
      </trkpt>
      <trkpt lat="43.39001" lon="-1.68507">
        <ele>5</ele>
        <time>2019-04-24T09:29:53Z</time>
      </trkpt>
      <trkpt lat="43.3899" lon="-1.68456">
        <ele>6</ele>
        <time>2019-04-24T09:30:05Z</time>
      </trkpt>
      <trkpt lat="43.38982" lon="-1.68391">
        <ele>5</ele>
        <time>2019-04-24T09:30:17Z</time>
      </trkpt>
      <trkpt lat="43.38957" lon="-1.68283">
        <ele>5</ele>
        <time>2019-04-24T09:30:41Z</time>
      </trkpt>
      <trkpt lat="43.38944" lon="-1.6821">
        <ele>6</ele>
        <time>2019-04-24T09:31:05Z</time>
      </trkpt>
      <trkpt lat="43.38893" lon="-1.68036">
        <ele>7</ele>
        <time>2019-04-24T09:31:47Z</time>
      </trkpt>
      <trkpt lat="43.38858" lon="-1.67969">
        <ele>11</ele>
        <time>2019-04-24T09:32:11Z</time>
      </trkpt>
      <trkpt lat="43.38843" lon="-1.67891">
        <ele>9</ele>
        <time>2019-04-24T09:32:41Z</time>
      </trkpt>
      <trkpt lat="43.38819" lon="-1.67825">
        <ele>15</ele>
        <time>2019-04-24T09:33:11Z</time>
      </trkpt>
      <trkpt lat="43.3881" lon="-1.6777">
        <ele>13</ele>
        <time>2019-04-24T09:33:29Z</time>
      </trkpt>
      <trkpt lat="43.38812" lon="-1.67491">
        <ele>16</ele>
        <time>2019-04-24T09:34:35Z</time>
      </trkpt>
      <trkpt lat="43.38818" lon="-1.67348">
        <ele>21</ele>
        <time>2019-04-24T09:34:59Z</time>
      </trkpt>
      <trkpt lat="43.38844" lon="-1.67283">
        <ele>17</ele>
        <time>2019-04-24T09:35:11Z</time>
      </trkpt>
      <trkpt lat="43.38851" lon="-1.67213">
        <ele>11</ele>
        <time>2019-04-24T09:35:23Z</time>
      </trkpt>
      <trkpt lat="43.38822" lon="-1.67127">
        <ele>11</ele>
        <time>2019-04-24T09:35:35Z</time>
      </trkpt>
      <trkpt lat="43.38772" lon="-1.67051">
        <ele>12</ele>
        <time>2019-04-24T09:35:47Z</time>
      </trkpt>
      <trkpt lat="43.38738" lon="-1.66968">
        <ele>4</ele>
        <time>2019-04-24T09:35:59Z</time>
      </trkpt>
      <trkpt lat="43.38633" lon="-1.66829">
        <ele>5</ele>
        <time>2019-04-24T09:36:35Z</time>
      </trkpt>
      <trkpt lat="43.3859" lon="-1.66781">
        <ele>3</ele>
        <time>2019-04-24T09:36:53Z</time>
      </trkpt>
      <trkpt lat="43.3857" lon="-1.6675">
        <ele>3</ele>
        <time>2019-04-24T09:37:05Z</time>
      </trkpt>
      <trkpt lat="43.38549" lon="-1.6673">
        <ele>5</ele>
        <time>2019-04-24T09:37:47Z</time>
      </trkpt>
      <trkpt lat="43.38554" lon="-1.6673">
        <ele>5</ele>
        <time>2019-04-24T09:37:53Z</time>
      </trkpt>
      <trkpt lat="43.38565" lon="-1.66743">
        <ele>3</ele>
        <time>2019-04-24T09:38:05Z</time>
      </trkpt>
      <trkpt lat="43.38581" lon="-1.66753">
        <ele>4</ele>
        <time>2019-04-24T09:38:17Z</time>
      </trkpt>
      <trkpt lat="43.38601" lon="-1.66717">
        <ele>1</ele>
        <time>2019-04-24T09:39:35Z</time>
      </trkpt>
      <trkpt lat="43.38593" lon="-1.66743">
        <ele>2.5</ele>
        <time>2019-04-24T09:40:11Z</time>
      </trkpt>
      <trkpt lat="43.38565" lon="-1.66743">
        <ele>3</ele>
        <time>2019-04-24T09:40:23Z</time>
      </trkpt>
      <trkpt lat="43.38499" lon="-1.6668">
        <ele>4</ele>
        <time>2019-04-24T09:40:53Z</time>
      </trkpt>
      <trkpt lat="43.38476" lon="-1.66637">
        <ele>4</ele>
        <time>2019-04-24T09:41:05Z</time>
      </trkpt>
      <trkpt lat="43.38477" lon="-1.66623">
        <ele>4</ele>
        <time>2019-04-24T09:42:11Z</time>
      </trkpt>
      <trkpt lat="43.38478" lon="-1.66642">
        <ele>4</ele>
        <time>2019-04-24T09:42:29Z</time>
      </trkpt>
      <trkpt lat="43.38486" lon="-1.66667">
        <ele>4</ele>
        <time>2019-04-24T09:42:41Z</time>
      </trkpt>
      <trkpt lat="43.385" lon="-1.66685">
        <ele>5</ele>
        <time>2019-04-24T09:42:53Z</time>
      </trkpt>
      <trkpt lat="43.38497" lon="-1.66687">
        <ele>5</ele>
        <time>2019-04-24T09:42:59Z</time>
      </trkpt>
      <trkpt lat="43.38496" lon="-1.66676">
        <ele>4</ele>
        <time>2019-04-24T09:43:11Z</time>
      </trkpt>
      <trkpt lat="43.38492" lon="-1.66689">
        <ele>5</ele>
        <time>2019-04-24T09:43:23Z</time>
      </trkpt>
      <trkpt lat="43.38488" lon="-1.66687">
        <ele>5</ele>
        <time>2019-04-24T09:43:53Z</time>
      </trkpt>
      <trkpt lat="43.38491" lon="-1.66687">
        <ele>5</ele>
        <time>2019-04-24T09:48:05Z</time>
      </trkpt>
      <trkpt lat="43.3849" lon="-1.6669">
        <ele>5</ele>
        <time>2019-04-24T09:53:17Z</time>
      </trkpt>
      <trkpt lat="43.38488" lon="-1.66686">
        <ele>5</ele>
        <time>2019-04-24T09:56:17Z</time>
      </trkpt>
      <trkpt lat="43.38492" lon="-1.66682">
        <ele>4</ele>
        <time>2019-04-24T09:56:35Z</time>
      </trkpt>
      <trkpt lat="43.3849" lon="-1.66675">
        <ele>4</ele>
        <time>2019-04-24T09:57:41Z</time>
      </trkpt>
      <trkpt lat="43.38476" lon="-1.6665">
        <ele>5</ele>
        <time>2019-04-24T09:57:53Z</time>
      </trkpt>
      <trkpt lat="43.38479" lon="-1.66617">
        <ele>4</ele>
        <time>2019-04-24T09:58:05Z</time>
      </trkpt>
      <trkpt lat="43.38476" lon="-1.6661">
        <ele>4</ele>
        <time>2019-04-24T09:58:11Z</time>
      </trkpt>
      <trkpt lat="43.38458" lon="-1.66601">
        <ele>4</ele>
        <time>2019-04-24T09:58:23Z</time>
      </trkpt>
      <trkpt lat="43.38438" lon="-1.66567">
        <ele>5</ele>
        <time>2019-04-24T09:58:35Z</time>
      </trkpt>
      <trkpt lat="43.38441" lon="-1.66546">
        <ele>5</ele>
        <time>2019-04-24T09:58:41Z</time>
      </trkpt>
      <trkpt lat="43.38454" lon="-1.66507">
        <ele>6</ele>
        <time>2019-04-24T09:58:53Z</time>
      </trkpt>
      <trkpt lat="43.38495" lon="-1.66408">
        <ele>1.54</ele>
        <time>2019-04-24T09:59:23Z</time>
      </trkpt>
      <trkpt lat="43.38513" lon="-1.66378">
        <time>2019-04-24T09:59:59Z</time>
      </trkpt>
      <trkpt lat="43.38521" lon="-1.66352">
        <ele>5.76</ele>
        <time>2019-04-24T10:00:05Z</time>
      </trkpt>
      <trkpt lat="43.38534" lon="-1.66328">
        <ele>2</ele>
        <time>2019-04-24T10:00:17Z</time>
      </trkpt>
      <trkpt lat="43.38544" lon="-1.6629">
        <ele>3</ele>
        <time>2019-04-24T10:00:29Z</time>
      </trkpt>
      <trkpt lat="43.38561" lon="-1.66249">
        <ele>3</ele>
        <time>2019-04-24T10:00:41Z</time>
      </trkpt>
      <trkpt lat="43.3857" lon="-1.66235">
        <ele>4</ele>
        <time>2019-04-24T10:00:47Z</time>
      </trkpt>
      <trkpt lat="43.38586" lon="-1.6623">
        <ele>4</ele>
        <time>2019-04-24T10:00:59Z</time>
      </trkpt>
      <trkpt lat="43.3863" lon="-1.66267">
        <ele>4</ele>
        <time>2019-04-24T10:01:17Z</time>
      </trkpt>
      <trkpt lat="43.38648" lon="-1.66303">
        <ele>3</ele>
        <time>2019-04-24T10:01:29Z</time>
      </trkpt>
      <trkpt lat="43.38684" lon="-1.663">
        <ele>5</ele>
        <time>2019-04-24T10:01:41Z</time>
      </trkpt>
      <trkpt lat="43.38706" lon="-1.6626">
        <ele>6</ele>
        <time>2019-04-24T10:01:53Z</time>
      </trkpt>
      <trkpt lat="43.38719" lon="-1.66207">
        <ele>8</ele>
        <time>2019-04-24T10:02:05Z</time>
      </trkpt>
      <trkpt lat="43.38737" lon="-1.66151">
        <ele>9</ele>
        <time>2019-04-24T10:02:17Z</time>
      </trkpt>
      <trkpt lat="43.38755" lon="-1.66105">
        <ele>8</ele>
        <time>2019-04-24T10:02:29Z</time>
      </trkpt>
      <trkpt lat="43.38775" lon="-1.66067">
        <ele>7</ele>
        <time>2019-04-24T10:02:41Z</time>
      </trkpt>
      <trkpt lat="43.38804" lon="-1.65988">
        <ele>6</ele>
        <time>2019-04-24T10:03:05Z</time>
      </trkpt>
      <trkpt lat="43.38818" lon="-1.65934">
        <ele>7</ele>
        <time>2019-04-24T10:03:17Z</time>
      </trkpt>
      <trkpt lat="43.38839" lon="-1.65884">
        <ele>9</ele>
        <time>2019-04-24T10:03:29Z</time>
      </trkpt>
      <trkpt lat="43.38854" lon="-1.6586">
        <ele>9</ele>
        <time>2019-04-24T10:03:35Z</time>
      </trkpt>
      <trkpt lat="43.38877" lon="-1.65851">
        <ele>10</ele>
        <time>2019-04-24T10:03:41Z</time>
      </trkpt>
      <trkpt lat="43.38899" lon="-1.65829">
        <ele>11</ele>
        <time>2019-04-24T10:04:09Z</time>
      </trkpt>
      <trkpt lat="43.38918" lon="-1.65833">
        <ele>11</ele>
        <time>2019-04-24T10:04:20Z</time>
      </trkpt>
      <trkpt lat="43.3894" lon="-1.65849">
        <ele>12</ele>
        <time>2019-04-24T10:04:31Z</time>
      </trkpt>
      <trkpt lat="43.39005" lon="-1.65887">
        <ele>13</ele>
        <time>2019-04-24T10:04:55Z</time>
      </trkpt>
      <trkpt lat="43.39128" lon="-1.65937">
        <ele>14</ele>
        <time>2019-04-24T10:05:18Z</time>
      </trkpt>
      <trkpt lat="43.39152" lon="-1.65943">
        <ele>14</ele>
        <time>2019-04-24T10:05:24Z</time>
      </trkpt>
      <trkpt lat="43.39221" lon="-1.65948">
        <ele>14</ele>
        <time>2019-04-24T10:05:42Z</time>
      </trkpt>
      <trkpt lat="43.39315" lon="-1.65976">
        <ele>8</ele>
        <time>2019-04-24T10:05:54Z</time>
      </trkpt>
      <trkpt lat="43.39505" lon="-1.65998">
        <ele>6</ele>
        <time>2019-04-24T10:06:36Z</time>
      </trkpt>
      <trkpt lat="43.3953" lon="-1.66009">
        <ele>9</ele>
        <time>2019-04-24T10:06:42Z</time>
      </trkpt>
      <trkpt lat="43.39579" lon="-1.66014">
        <ele>6</ele>
        <time>2019-04-24T10:06:54Z</time>
      </trkpt>
      <trkpt lat="43.39679" lon="-1.66038">
        <ele>10.5</ele>
        <time>2019-04-24T10:07:18Z</time>
      </trkpt>
      <trkpt lat="43.39718" lon="-1.6604">
        <ele>13.8</ele>
        <time>2019-04-24T10:07:30Z</time>
      </trkpt>
      <trkpt lat="43.39734" lon="-1.6605">
        <ele>6</ele>
        <time>2019-04-24T10:07:36Z</time>
      </trkpt>
      <trkpt lat="43.39775" lon="-1.66066">
        <ele>10</ele>
        <time>2019-04-24T10:07:54Z</time>
      </trkpt>
      <trkpt lat="43.39808" lon="-1.66089">
        <ele>18</ele>
        <time>2019-04-24T10:08:12Z</time>
      </trkpt>
      <trkpt lat="43.39885" lon="-1.66169">
        <ele>16</ele>
        <time>2019-04-24T10:08:54Z</time>
      </trkpt>
      <trkpt lat="43.39905" lon="-1.66199">
        <ele>16</ele>
        <time>2019-04-24T10:09:06Z</time>
      </trkpt>
      <trkpt lat="43.39922" lon="-1.66216">
        <ele>18</ele>
        <time>2019-04-24T10:09:18Z</time>
      </trkpt>
      <trkpt lat="43.39897" lon="-1.66167">
        <ele>23</ele>
        <time>2019-04-24T10:09:41Z</time>
      </trkpt>
      <trkpt lat="43.39882" lon="-1.66149">
        <ele>23</ele>
        <time>2019-04-24T10:09:53Z</time>
      </trkpt>
      <trkpt lat="43.39883" lon="-1.66121">
        <ele>26</ele>
        <time>2019-04-24T10:10:05Z</time>
      </trkpt>
      <trkpt lat="43.39895" lon="-1.66098">
        <ele>28</ele>
        <time>2019-04-24T10:10:17Z</time>
      </trkpt>
      <trkpt lat="43.39921" lon="-1.66079">
        <ele>31</ele>
        <time>2019-04-24T10:10:35Z</time>
      </trkpt>
      <trkpt lat="43.39958" lon="-1.66077">
        <ele>33</ele>
        <time>2019-04-24T10:10:53Z</time>
      </trkpt>
      <trkpt lat="43.40074" lon="-1.66041">
        <ele>33</ele>
        <time>2019-04-24T10:11:23Z</time>
      </trkpt>
      <trkpt lat="43.40106" lon="-1.66008">
        <ele>33</ele>
        <time>2019-04-24T10:11:35Z</time>
      </trkpt>
      <trkpt lat="43.40121" lon="-1.65969">
        <ele>34</ele>
        <time>2019-04-24T10:11:47Z</time>
      </trkpt>
      <trkpt lat="43.40132" lon="-1.6596">
        <ele>34</ele>
        <time>2019-04-24T10:11:53Z</time>
      </trkpt>
      <trkpt lat="43.40153" lon="-1.65967">
        <ele>34</ele>
        <time>2019-04-24T10:12:05Z</time>
      </trkpt>
      <trkpt lat="43.40159" lon="-1.65929">
        <ele>33</ele>
        <time>2019-04-24T10:12:29Z</time>
      </trkpt>
      <trkpt lat="43.40159" lon="-1.65877">
        <ele>34</ele>
        <time>2019-04-24T10:15:59Z</time>
      </trkpt>
      <trkpt lat="43.40151" lon="-1.65823">
        <ele>35</ele>
        <time>2019-04-24T10:16:11Z</time>
      </trkpt>
      <trkpt lat="43.4015" lon="-1.6574">
        <ele>35</ele>
        <time>2019-04-24T10:16:29Z</time>
      </trkpt>
      <trkpt lat="43.40166" lon="-1.65695">
        <ele>34</ele>
        <time>2019-04-24T10:16:41Z</time>
      </trkpt>
      <trkpt lat="43.40178" lon="-1.65637">
        <ele>38</ele>
        <time>2019-04-24T10:16:59Z</time>
      </trkpt>
      <trkpt lat="43.40197" lon="-1.65582">
        <ele>40</ele>
        <time>2019-04-24T10:17:17Z</time>
      </trkpt>
      <trkpt lat="43.40219" lon="-1.6554">
        <ele>39</ele>
        <time>2019-04-24T10:17:35Z</time>
      </trkpt>
      <trkpt lat="43.4024" lon="-1.65471">
        <ele>37</ele>
        <time>2019-04-24T10:17:59Z</time>
      </trkpt>
      <trkpt lat="43.40245" lon="-1.65314">
        <ele>39</ele>
        <time>2019-04-24T10:18:35Z</time>
      </trkpt>
      <trkpt lat="43.40251" lon="-1.65254">
        <ele>38</ele>
        <time>2019-04-24T10:18:47Z</time>
      </trkpt>
      <trkpt lat="43.40279" lon="-1.65102">
        <ele>46</ele>
        <time>2019-04-24T10:19:17Z</time>
      </trkpt>
      <trkpt lat="43.4029" lon="-1.65071">
        <ele>44</ele>
        <time>2019-04-24T10:19:23Z</time>
      </trkpt>
      <trkpt lat="43.40337" lon="-1.64971">
        <ele>44</ele>
        <time>2019-04-24T10:19:47Z</time>
      </trkpt>
      <trkpt lat="43.40341" lon="-1.64895">
        <ele>38</ele>
        <time>2019-04-24T10:19:59Z</time>
      </trkpt>
      <trkpt lat="43.40352" lon="-1.64836">
        <ele>36</ele>
        <time>2019-04-24T10:20:11Z</time>
      </trkpt>
      <trkpt lat="43.40365" lon="-1.64792">
        <ele>30</ele>
        <time>2019-04-24T10:20:17Z</time>
      </trkpt>
      <trkpt lat="43.40409" lon="-1.64721">
        <ele>22</ele>
        <time>2019-04-24T10:20:35Z</time>
      </trkpt>
      <trkpt lat="43.40445" lon="-1.64588">
        <ele>19</ele>
        <time>2019-04-24T10:21:17Z</time>
      </trkpt>
      <trkpt lat="43.40448" lon="-1.64575">
        <ele>19</ele>
        <time>2019-04-24T10:21:23Z</time>
      </trkpt>
      <trkpt lat="43.40446" lon="-1.64551">
        <ele>19</ele>
        <time>2019-04-24T10:21:35Z</time>
      </trkpt>
      <trkpt lat="43.40479" lon="-1.6447">
        <ele>19</ele>
        <time>2019-04-24T10:22:11Z</time>
      </trkpt>
      <trkpt lat="43.40487" lon="-1.64398">
        <ele>19</ele>
        <time>2019-04-24T10:22:35Z</time>
      </trkpt>
      <trkpt lat="43.40477" lon="-1.64338">
        <ele>16</ele>
        <time>2019-04-24T10:22:53Z</time>
      </trkpt>
      <trkpt lat="43.40476" lon="-1.64268">
        <ele>13</ele>
        <time>2019-04-24T10:23:05Z</time>
      </trkpt>
      <trkpt lat="43.40496" lon="-1.64252">
        <ele>12</ele>
        <time>2019-04-24T10:23:11Z</time>
      </trkpt>
      <trkpt lat="43.40519" lon="-1.64248">
        <ele>12</ele>
        <time>2019-04-24T10:23:17Z</time>
      </trkpt>
      <trkpt lat="43.40553" lon="-1.64232">
        <ele>11</ele>
        <time>2019-04-24T10:23:29Z</time>
      </trkpt>
      <trkpt lat="43.40633" lon="-1.64176">
        <ele>8</ele>
        <time>2019-04-24T10:23:59Z</time>
      </trkpt>
      <trkpt lat="43.40652" lon="-1.64159">
        <ele>8</ele>
        <time>2019-04-24T10:24:05Z</time>
      </trkpt>
      <trkpt lat="43.40676" lon="-1.64126">
        <ele>7</ele>
        <time>2019-04-24T10:24:17Z</time>
      </trkpt>
      <trkpt lat="43.407" lon="-1.64103">
        <ele>5</ele>
        <time>2019-04-24T10:24:29Z</time>
      </trkpt>
      <trkpt lat="43.4071" lon="-1.64099">
        <ele>2</ele>
        <time>2019-04-24T10:24:41Z</time>
      </trkpt>
      <trkpt lat="43.40708" lon="-1.64097">
        <ele>2</ele>
        <time>2019-04-24T10:25:41Z</time>
      </trkpt>
      <trkpt lat="43.40688" lon="-1.64124">
        <ele>4</ele>
        <time>2019-04-24T10:26:05Z</time>
      </trkpt>
      <trkpt lat="43.40681" lon="-1.64147">
        <ele>2</ele>
        <time>2019-04-24T10:26:23Z</time>
      </trkpt>
      <trkpt lat="43.40681" lon="-1.64163">
        <ele>2</ele>
        <time>2019-04-24T10:26:35Z</time>
      </trkpt>
      <trkpt lat="43.40673" lon="-1.64158">
        <ele>6</ele>
        <time>2019-04-24T10:32:35Z</time>
      </trkpt>
      <trkpt lat="43.40671" lon="-1.6416">
        <ele>6</ele>
        <time>2019-04-24T10:49:23Z</time>
      </trkpt>
      <trkpt lat="43.4068" lon="-1.64156">
        <ele>2</ele>
        <time>2019-04-24T11:04:40Z</time>
      </trkpt>
      <trkpt lat="43.40679" lon="-1.64151">
        <ele>6</ele>
        <time>2019-04-24T11:04:52Z</time>
      </trkpt>
      <trkpt lat="43.40661" lon="-1.64165">
        <ele>6</ele>
        <time>2019-04-24T11:05:40Z</time>
      </trkpt>
      <trkpt lat="43.40664" lon="-1.64167">
        <ele>6</ele>
        <time>2019-04-24T11:07:28Z</time>
      </trkpt>
      <trkpt lat="43.40669" lon="-1.64163">
        <ele>6</ele>
        <time>2019-04-24T11:07:40Z</time>
      </trkpt>
      <trkpt lat="43.40697" lon="-1.6411">
        <ele>4</ele>
        <time>2019-04-24T11:07:58Z</time>
      </trkpt>
      <trkpt lat="43.40701" lon="-1.6409">
        <ele>5</ele>
        <time>2019-04-24T11:08:04Z</time>
      </trkpt>
      <trkpt lat="43.40724" lon="-1.64041">
        <ele>4</ele>
        <time>2019-04-24T11:08:22Z</time>
      </trkpt>
      <trkpt lat="43.40742" lon="-1.63993">
        <ele>4</ele>
        <time>2019-04-24T11:08:40Z</time>
      </trkpt>
      <trkpt lat="43.40785" lon="-1.63909">
        <ele>2</ele>
        <time>2019-04-24T11:09:22Z</time>
      </trkpt>
      <trkpt lat="43.40766" lon="-1.63859">
        <ele>5</ele>
        <time>2019-04-24T11:09:34Z</time>
      </trkpt>
      <trkpt lat="43.40759" lon="-1.6381">
        <ele>6</ele>
        <time>2019-04-24T11:09:46Z</time>
      </trkpt>
      <trkpt lat="43.4077" lon="-1.63814">
        <ele>6</ele>
        <time>2019-04-24T11:09:52Z</time>
      </trkpt>
      <trkpt lat="43.40777" lon="-1.63825">
        <ele>6</ele>
        <time>2019-04-24T11:09:58Z</time>
      </trkpt>
      <trkpt lat="43.40805" lon="-1.63846">
        <ele>5</ele>
        <time>2019-04-24T11:10:10Z</time>
      </trkpt>
      <trkpt lat="43.40816" lon="-1.63831">
        <ele>9</ele>
        <time>2019-04-24T11:10:16Z</time>
      </trkpt>
      <trkpt lat="43.40822" lon="-1.63817">
        <ele>9</ele>
        <time>2019-04-24T11:10:22Z</time>
      </trkpt>
      <trkpt lat="43.40839" lon="-1.6379">
        <ele>12</ele>
        <time>2019-04-24T11:10:34Z</time>
      </trkpt>
      <trkpt lat="43.40856" lon="-1.63775">
        <ele>12</ele>
        <time>2019-04-24T11:10:46Z</time>
      </trkpt>
      <trkpt lat="43.4088" lon="-1.63734">
        <ele>12</ele>
        <time>2019-04-24T11:11:04Z</time>
      </trkpt>
      <trkpt lat="43.40908" lon="-1.63703">
        <ele>13</ele>
        <time>2019-04-24T11:11:22Z</time>
      </trkpt>
      <trkpt lat="43.40915" lon="-1.63679">
        <ele>15</ele>
        <time>2019-04-24T11:11:34Z</time>
      </trkpt>
      <trkpt lat="43.40913" lon="-1.63648">
        <ele>18</ele>
        <time>2019-04-24T11:11:52Z</time>
      </trkpt>
      <trkpt lat="43.40916" lon="-1.63641">
        <ele>18</ele>
        <time>2019-04-24T11:11:58Z</time>
      </trkpt>
      <trkpt lat="43.40922" lon="-1.63638">
        <ele>18</ele>
        <time>2019-04-24T11:12:10Z</time>
      </trkpt>
      <trkpt lat="43.40917" lon="-1.63649">
        <ele>18</ele>
        <time>2019-04-24T11:12:52Z</time>
      </trkpt>
      <trkpt lat="43.40914" lon="-1.6364">
        <ele>18</ele>
        <time>2019-04-24T11:13:04Z</time>
      </trkpt>
      <trkpt lat="43.40945" lon="-1.63602">
        <ele>21</ele>
        <time>2019-04-24T11:13:28Z</time>
      </trkpt>
      <trkpt lat="43.40994" lon="-1.63568">
        <ele>23</ele>
        <time>2019-04-24T11:13:46Z</time>
      </trkpt>
      <trkpt lat="43.41003" lon="-1.63554">
        <ele>23</ele>
        <time>2019-04-24T11:13:52Z</time>
      </trkpt>
      <trkpt lat="43.41033" lon="-1.6353">
        <ele>26</ele>
        <time>2019-04-24T11:14:04Z</time>
      </trkpt>
      <trkpt lat="43.41045" lon="-1.63516">
        <ele>25</ele>
        <time>2019-04-24T11:14:10Z</time>
      </trkpt>
      <trkpt lat="43.41073" lon="-1.6347">
        <ele>26</ele>
        <time>2019-04-24T11:14:22Z</time>
      </trkpt>
      <trkpt lat="43.41091" lon="-1.63425">
        <ele>27</ele>
        <time>2019-04-24T11:14:34Z</time>
      </trkpt>
      <trkpt lat="43.41121" lon="-1.63313">
        <ele>32</ele>
        <time>2019-04-24T11:15:04Z</time>
      </trkpt>
      <trkpt lat="43.41145" lon="-1.63214">
        <ele>31</ele>
        <time>2019-04-24T11:15:34Z</time>
      </trkpt>
      <trkpt lat="43.4115" lon="-1.63198">
        <ele>31</ele>
        <time>2019-04-24T11:15:40Z</time>
      </trkpt>
      <trkpt lat="43.41172" lon="-1.63172">
        <ele>29</ele>
        <time>2019-04-24T11:15:52Z</time>
      </trkpt>
      <trkpt lat="43.41174" lon="-1.63155">
        <ele>29</ele>
        <time>2019-04-24T11:15:58Z</time>
      </trkpt>
      <trkpt lat="43.41162" lon="-1.63131">
        <ele>30</ele>
        <time>2019-04-24T11:16:10Z</time>
      </trkpt>
      <trkpt lat="43.41166" lon="-1.63105">
        <ele>32</ele>
        <time>2019-04-24T11:16:22Z</time>
      </trkpt>
      <trkpt lat="43.41167" lon="-1.63064">
        <ele>34</ele>
        <time>2019-04-24T11:16:40Z</time>
      </trkpt>
      <trkpt lat="43.41196" lon="-1.62971">
        <ele>35</ele>
        <time>2019-04-24T11:17:28Z</time>
      </trkpt>
      <trkpt lat="43.412" lon="-1.62935">
        <ele>37</ele>
        <time>2019-04-24T11:17:40Z</time>
      </trkpt>
      <trkpt lat="43.41214" lon="-1.62867">
        <ele>39</ele>
        <time>2019-04-24T11:18:04Z</time>
      </trkpt>
      <trkpt lat="43.41238" lon="-1.62776">
        <ele>41</ele>
        <time>2019-04-24T11:18:34Z</time>
      </trkpt>
      <trkpt lat="43.41247" lon="-1.62703">
        <ele>45</ele>
        <time>2019-04-24T11:18:46Z</time>
      </trkpt>
      <trkpt lat="43.41274" lon="-1.62599">
        <ele>44</ele>
        <time>2019-04-24T11:19:10Z</time>
      </trkpt>
      <trkpt lat="43.41278" lon="-1.6249">
        <ele>44</ele>
        <time>2019-04-24T11:19:34Z</time>
      </trkpt>
      <trkpt lat="43.41289" lon="-1.62485">
        <ele>44</ele>
        <time>2019-04-24T11:19:46Z</time>
      </trkpt>
      <trkpt lat="43.41316" lon="-1.6251">
        <ele>44</ele>
        <time>2019-04-24T11:20:04Z</time>
      </trkpt>
      <trkpt lat="43.41415" lon="-1.62629">
        <ele>38</ele>
        <time>2019-04-24T11:20:28Z</time>
      </trkpt>
      <trkpt lat="43.4145" lon="-1.62648">
        <ele>35</ele>
        <time>2019-04-24T11:20:34Z</time>
      </trkpt>
      <trkpt lat="43.41503" lon="-1.62628">
        <ele>37</ele>
        <time>2019-04-24T11:20:46Z</time>
      </trkpt>
      <trkpt lat="43.41531" lon="-1.62584">
        <ele>36</ele>
        <time>2019-04-24T11:20:52Z</time>
      </trkpt>
      <trkpt lat="43.41741" lon="-1.622">
        <ele>18</ele>
        <time>2019-04-24T11:21:40Z</time>
      </trkpt>
      <trkpt lat="43.41817" lon="-1.62075">
        <ele>17</ele>
        <time>2019-04-24T11:21:58Z</time>
      </trkpt>
      <trkpt lat="43.41842" lon="-1.62028">
        <ele>15</ele>
        <time>2019-04-24T11:22:10Z</time>
      </trkpt>
      <trkpt lat="43.41882" lon="-1.61992">
        <ele>13</ele>
        <time>2019-04-24T11:22:22Z</time>
      </trkpt>
      <trkpt lat="43.41942" lon="-1.6193">
        <ele>13</ele>
        <time>2019-04-24T11:22:52Z</time>
      </trkpt>
      <trkpt lat="43.41968" lon="-1.61918">
        <ele>15</ele>
        <time>2019-04-24T11:23:04Z</time>
      </trkpt>
      <trkpt lat="43.41996" lon="-1.61921">
        <ele>17</ele>
        <time>2019-04-24T11:23:16Z</time>
      </trkpt>
      <trkpt lat="43.42024" lon="-1.61941">
        <ele>19</ele>
        <time>2019-04-24T11:23:28Z</time>
      </trkpt>
      <trkpt lat="43.42058" lon="-1.61954">
        <ele>18</ele>
        <time>2019-04-24T11:23:40Z</time>
      </trkpt>
      <trkpt lat="43.4209" lon="-1.6194">
        <ele>24</ele>
        <time>2019-04-24T11:23:52Z</time>
      </trkpt>
      <trkpt lat="43.42129" lon="-1.6193">
        <ele>23</ele>
        <time>2019-04-24T11:24:10Z</time>
      </trkpt>
      <trkpt lat="43.4216" lon="-1.61897">
        <ele>24</ele>
        <time>2019-04-24T11:24:28Z</time>
      </trkpt>
      <trkpt lat="43.42175" lon="-1.61865">
        <ele>24</ele>
        <time>2019-04-24T11:24:40Z</time>
      </trkpt>
      <trkpt lat="43.42179" lon="-1.61847">
        <ele>22</ele>
        <time>2019-04-24T11:24:46Z</time>
      </trkpt>
      <trkpt lat="43.42178" lon="-1.61815">
        <ele>22</ele>
        <time>2019-04-24T11:24:58Z</time>
      </trkpt>
      <trkpt lat="43.42193" lon="-1.61746">
        <ele>22</ele>
        <time>2019-04-24T11:25:22Z</time>
      </trkpt>
      <trkpt lat="43.4223" lon="-1.6181">
        <ele>18</ele>
        <time>2019-04-24T11:25:34Z</time>
      </trkpt>
      <trkpt lat="43.42254" lon="-1.61819">
        <ele>17</ele>
        <time>2019-04-24T11:25:46Z</time>
      </trkpt>
      <trkpt lat="43.42271" lon="-1.6179">
        <ele>18</ele>
        <time>2019-04-24T11:25:58Z</time>
      </trkpt>
      <trkpt lat="43.42287" lon="-1.61772">
        <ele>21</ele>
        <time>2019-04-24T11:26:10Z</time>
      </trkpt>
      <trkpt lat="43.42298" lon="-1.61748">
        <ele>21</ele>
        <time>2019-04-24T11:26:22Z</time>
      </trkpt>
      <trkpt lat="43.42323" lon="-1.61661">
        <ele>29</ele>
        <time>2019-04-24T11:27:04Z</time>
      </trkpt>
      <trkpt lat="43.42333" lon="-1.61595">
        <ele>35</ele>
        <time>2019-04-24T11:27:34Z</time>
      </trkpt>
      <trkpt lat="43.42372" lon="-1.61545">
        <ele>36</ele>
        <time>2019-04-24T11:28:04Z</time>
      </trkpt>
      <trkpt lat="43.424" lon="-1.61492">
        <ele>32</ele>
        <time>2019-04-24T11:28:22Z</time>
      </trkpt>
      <trkpt lat="43.42415" lon="-1.61462">
        <ele>33</ele>
        <time>2019-04-24T11:28:28Z</time>
      </trkpt>
      <trkpt lat="43.42432" lon="-1.61409">
        <ele>29</ele>
        <time>2019-04-24T11:28:34Z</time>
      </trkpt>
      <trkpt lat="43.4247" lon="-1.61315">
        <ele>30</ele>
        <time>2019-04-24T11:28:46Z</time>
      </trkpt>
      <trkpt lat="43.42501" lon="-1.61259">
        <ele>25</ele>
        <time>2019-04-24T11:29:04Z</time>
      </trkpt>
      <trkpt lat="43.42524" lon="-1.61174">
        <ele>29</ele>
        <time>2019-04-24T11:29:28Z</time>
      </trkpt>
      <trkpt lat="43.42535" lon="-1.61102">
        <ele>25</ele>
        <time>2019-04-24T11:29:40Z</time>
      </trkpt>
      <trkpt lat="43.42553" lon="-1.61024">
        <ele>22</ele>
        <time>2019-04-24T11:29:52Z</time>
      </trkpt>
      <trkpt lat="43.42559" lon="-1.6097">
        <ele>25</ele>
        <time>2019-04-24T11:30:04Z</time>
      </trkpt>
      <trkpt lat="43.42586" lon="-1.60924">
        <ele>19</ele>
        <time>2019-04-24T11:30:28Z</time>
      </trkpt>
      <trkpt lat="43.42586" lon="-1.6091">
        <ele>26</ele>
        <time>2019-04-24T11:30:34Z</time>
      </trkpt>
      <trkpt lat="43.42575" lon="-1.60883">
        <ele>27</ele>
        <time>2019-04-24T11:31:16Z</time>
      </trkpt>
      <trkpt lat="43.4256" lon="-1.60881">
        <ele>28</ele>
        <time>2019-04-24T11:31:28Z</time>
      </trkpt>
      <trkpt lat="43.42526" lon="-1.60898">
        <ele>29</ele>
        <time>2019-04-24T11:35:10Z</time>
      </trkpt>
      <trkpt lat="43.42511" lon="-1.60894">
        <ele>31</ele>
        <time>2019-04-24T11:35:58Z</time>
      </trkpt>
      <trkpt lat="43.42507" lon="-1.60883">
        <ele>31</ele>
        <time>2019-04-24T11:39:58Z</time>
      </trkpt>
      <trkpt lat="43.42508" lon="-1.60891">
        <ele>31</ele>
        <time>2019-04-24T11:41:52Z</time>
      </trkpt>
      <trkpt lat="43.42509" lon="-1.60884">
        <ele>31</ele>
        <time>2019-04-24T11:44:16Z</time>
      </trkpt>
      <trkpt lat="43.4251" lon="-1.60888">
        <ele>31</ele>
        <time>2019-04-24T11:45:04Z</time>
      </trkpt>
      <trkpt lat="43.42507" lon="-1.60888">
        <ele>31</ele>
        <time>2019-04-24T11:45:58Z</time>
      </trkpt>
      <trkpt lat="43.42507" lon="-1.60892">
        <ele>31</ele>
        <time>2019-04-24T11:47:46Z</time>
      </trkpt>
      <trkpt lat="43.42506" lon="-1.60881">
        <ele>32</ele>
        <time>2019-04-24T11:53:28Z</time>
      </trkpt>
      <trkpt lat="43.42509" lon="-1.60896">
        <ele>31</ele>
        <time>2019-04-24T11:55:22Z</time>
      </trkpt>
      <trkpt lat="43.42525" lon="-1.60926">
        <ele>28</ele>
        <time>2019-04-24T11:55:46Z</time>
      </trkpt>
      <trkpt lat="43.42521" lon="-1.60961">
        <ele>29</ele>
        <time>2019-04-24T11:55:52Z</time>
      </trkpt>
      <trkpt lat="43.42491" lon="-1.6104">
        <ele>32</ele>
        <time>2019-04-24T11:56:10Z</time>
      </trkpt>
      <trkpt lat="43.42442" lon="-1.61114">
        <ele>38</ele>
        <time>2019-04-24T11:56:46Z</time>
      </trkpt>
      <trkpt lat="43.42418" lon="-1.61139">
        <ele>42</ele>
        <time>2019-04-24T11:57:04Z</time>
      </trkpt>
      <trkpt lat="43.42396" lon="-1.61139">
        <ele>44</ele>
        <time>2019-04-24T11:57:16Z</time>
      </trkpt>
      <trkpt lat="43.42376" lon="-1.61103">
        <ele>45</ele>
        <time>2019-04-24T11:57:34Z</time>
      </trkpt>
      <trkpt lat="43.4235" lon="-1.61068">
        <ele>47</ele>
        <time>2019-04-24T11:57:52Z</time>
      </trkpt>
      <trkpt lat="43.42303" lon="-1.61029">
        <ele>47</ele>
        <time>2019-04-24T11:58:10Z</time>
      </trkpt>
      <trkpt lat="43.42296" lon="-1.61018">
        <ele>48</ele>
        <time>2019-04-24T11:58:16Z</time>
      </trkpt>
      <trkpt lat="43.42249" lon="-1.60969">
        <ele>49</ele>
        <time>2019-04-24T11:58:40Z</time>
      </trkpt>
      <trkpt lat="43.42218" lon="-1.6091">
        <ele>49</ele>
        <time>2019-04-24T11:58:58Z</time>
      </trkpt>
      <trkpt lat="43.42197" lon="-1.60854">
        <ele>49</ele>
        <time>2019-04-24T11:59:10Z</time>
      </trkpt>
      <trkpt lat="43.42169" lon="-1.60809">
        <ele>49</ele>
        <time>2019-04-24T11:59:28Z</time>
      </trkpt>
      <trkpt lat="43.42134" lon="-1.60735">
        <ele>50</ele>
        <time>2019-04-24T11:59:52Z</time>
      </trkpt>
      <trkpt lat="43.42112" lon="-1.60698">
        <ele>52</ele>
        <time>2019-04-24T12:00:10Z</time>
      </trkpt>
      <trkpt lat="43.42083" lon="-1.60669">
        <ele>53</ele>
        <time>2019-04-24T12:00:52Z</time>
      </trkpt>
      <trkpt lat="43.42081" lon="-1.60655">
        <ele>53</ele>
        <time>2019-04-24T12:00:58Z</time>
      </trkpt>
      <trkpt lat="43.42084" lon="-1.60629">
        <ele>53</ele>
        <time>2019-04-24T12:02:16Z</time>
      </trkpt>
      <trkpt lat="43.4212" lon="-1.60532">
        <ele>53</ele>
        <time>2019-04-24T12:02:34Z</time>
      </trkpt>
      <trkpt lat="43.42159" lon="-1.60497">
        <ele>50</ele>
        <time>2019-04-24T12:02:40Z</time>
      </trkpt>
      <trkpt lat="43.42213" lon="-1.60494">
        <ele>47</ele>
        <time>2019-04-24T12:02:46Z</time>
      </trkpt>
      <trkpt lat="43.42277" lon="-1.60515">
        <ele>38</ele>
        <time>2019-04-24T12:02:58Z</time>
      </trkpt>
      <trkpt lat="43.42375" lon="-1.60496">
        <ele>35</ele>
        <time>2019-04-24T12:03:16Z</time>
      </trkpt>
      <trkpt lat="43.42642" lon="-1.60372">
        <ele>29</ele>
        <time>2019-04-24T12:03:58Z</time>
      </trkpt>
      <trkpt lat="43.42686" lon="-1.60386">
        <ele>29</ele>
        <time>2019-04-24T12:04:04Z</time>
      </trkpt>
      <trkpt lat="43.42713" lon="-1.60382">
        <ele>29</ele>
        <time>2019-04-24T12:04:10Z</time>
      </trkpt>
      <trkpt lat="43.42716" lon="-1.6037">
        <ele>29</ele>
        <time>2019-04-24T12:04:22Z</time>
      </trkpt>
      <trkpt lat="43.42713" lon="-1.60369">
        <ele>29</ele>
        <time>2019-04-24T12:04:34Z</time>
      </trkpt>
      <trkpt lat="43.42709" lon="-1.60374">
        <ele>29</ele>
        <time>2019-04-24T12:04:46Z</time>
      </trkpt>
      <trkpt lat="43.42709" lon="-1.60395">
        <ele>29</ele>
        <time>2019-04-24T12:04:58Z</time>
      </trkpt>
      <trkpt lat="43.42732" lon="-1.60421">
        <ele>29</ele>
        <time>2019-04-24T12:05:10Z</time>
      </trkpt>
      <trkpt lat="43.42755" lon="-1.6043">
        <ele>30</ele>
        <time>2019-04-24T12:05:28Z</time>
      </trkpt>
      <trkpt lat="43.42748" lon="-1.60434">
        <ele>29</ele>
        <time>2019-04-24T12:05:40Z</time>
      </trkpt>
      <trkpt lat="43.4275" lon="-1.60446">
        <ele>27</ele>
        <time>2019-04-24T12:05:52Z</time>
      </trkpt>
      <trkpt lat="43.42746" lon="-1.60434">
        <ele>29</ele>
        <time>2019-04-24T12:06:04Z</time>
      </trkpt>
      <trkpt lat="43.42811" lon="-1.60417">
        <ele>30</ele>
        <time>2019-04-24T12:07:10Z</time>
      </trkpt>
      <trkpt lat="43.42825" lon="-1.6043">
        <ele>29</ele>
        <time>2019-04-24T12:07:22Z</time>
      </trkpt>
      <trkpt lat="43.42825" lon="-1.60452">
        <ele>25</ele>
        <time>2019-04-24T12:07:34Z</time>
      </trkpt>
      <trkpt lat="43.42821" lon="-1.60443">
        <ele>26</ele>
        <time>2019-04-24T12:07:52Z</time>
      </trkpt>
      <trkpt lat="43.42824" lon="-1.60419">
        <ele>29</ele>
        <time>2019-04-24T12:08:04Z</time>
      </trkpt>
      <trkpt lat="43.42836" lon="-1.60394">
        <ele>32</ele>
        <time>2019-04-24T12:08:16Z</time>
      </trkpt>
      <trkpt lat="43.42867" lon="-1.60349">
        <ele>33</ele>
        <time>2019-04-24T12:08:34Z</time>
      </trkpt>
      <trkpt lat="43.42904" lon="-1.60306">
        <ele>29</ele>
        <time>2019-04-24T12:08:52Z</time>
      </trkpt>
      <trkpt lat="43.42929" lon="-1.6027">
        <ele>27</ele>
        <time>2019-04-24T12:09:04Z</time>
      </trkpt>
      <trkpt lat="43.42972" lon="-1.60236">
        <ele>25</ele>
        <time>2019-04-24T12:09:16Z</time>
      </trkpt>
      <trkpt lat="43.4298" lon="-1.60204">
        <ele>21</ele>
        <time>2019-04-24T12:09:22Z</time>
      </trkpt>
      <trkpt lat="43.42963" lon="-1.60058">
        <ele>17</ele>
        <time>2019-04-24T12:09:40Z</time>
      </trkpt>
      <trkpt lat="43.42965" lon="-1.60016">
        <ele>12</ele>
        <time>2019-04-24T12:09:58Z</time>
      </trkpt>
      <trkpt lat="43.42976" lon="-1.59991">
        <ele>12</ele>
        <time>2019-04-24T12:10:16Z</time>
      </trkpt>
      <trkpt lat="43.42999" lon="-1.59965">
        <ele>10</ele>
        <time>2019-04-24T12:10:22Z</time>
      </trkpt>
      <trkpt lat="43.43032" lon="-1.59915">
        <ele>7</ele>
        <time>2019-04-24T12:10:34Z</time>
      </trkpt>
      <trkpt lat="43.43062" lon="-1.59879">
        <ele>6</ele>
        <time>2019-04-24T12:11:04Z</time>
      </trkpt>
      <trkpt lat="43.43095" lon="-1.5983">
        <ele>5</ele>
        <time>2019-04-24T12:11:16Z</time>
      </trkpt>
      <trkpt lat="43.43121" lon="-1.59778">
        <ele>5</ele>
        <time>2019-04-24T12:11:28Z</time>
      </trkpt>
      <trkpt lat="43.43159" lon="-1.59736">
        <ele>5</ele>
        <time>2019-04-24T12:11:40Z</time>
      </trkpt>
      <trkpt lat="43.43224" lon="-1.5964">
        <ele>6</ele>
        <time>2019-04-24T12:12:04Z</time>
      </trkpt>
      <trkpt lat="43.43246" lon="-1.59615">
        <ele>6</ele>
        <time>2019-04-24T12:13:04Z</time>
      </trkpt>
      <trkpt lat="43.43253" lon="-1.59627">
        <ele>6</ele>
        <time>2019-04-24T12:13:16Z</time>
      </trkpt>
      <trkpt lat="43.43249" lon="-1.59648">
        <ele>7</ele>
        <time>2019-04-24T12:13:28Z</time>
      </trkpt>
      <trkpt lat="43.43282" lon="-1.59671">
        <ele>7</ele>
        <time>2019-04-24T12:13:40Z</time>
      </trkpt>
      <trkpt lat="43.43333" lon="-1.59694">
        <ele>9</ele>
        <time>2019-04-24T12:13:58Z</time>
      </trkpt>
      <trkpt lat="43.43366" lon="-1.59689">
        <ele>10</ele>
        <time>2019-04-24T12:14:10Z</time>
      </trkpt>
      <trkpt lat="43.4341" lon="-1.59671">
        <ele>12</ele>
        <time>2019-04-24T12:14:28Z</time>
      </trkpt>
      <trkpt lat="43.43435" lon="-1.59661">
        <ele>14</ele>
        <time>2019-04-24T12:14:40Z</time>
      </trkpt>
      <trkpt lat="43.43479" lon="-1.59635">
        <ele>18</ele>
        <time>2019-04-24T12:15:04Z</time>
      </trkpt>
      <trkpt lat="43.43552" lon="-1.59553">
        <ele>20</ele>
        <time>2019-04-24T12:15:40Z</time>
      </trkpt>
      <trkpt lat="43.43586" lon="-1.59499">
        <ele>20</ele>
        <time>2019-04-24T12:15:58Z</time>
      </trkpt>
      <trkpt lat="43.43663" lon="-1.59401">
        <ele>23</ele>
        <time>2019-04-24T12:16:40Z</time>
      </trkpt>
      <trkpt lat="43.43694" lon="-1.59367">
        <ele>25</ele>
        <time>2019-04-24T12:16:58Z</time>
      </trkpt>
      <trkpt lat="43.43713" lon="-1.59336">
        <ele>28</ele>
        <time>2019-04-24T12:17:16Z</time>
      </trkpt>
      <trkpt lat="43.43746" lon="-1.59301">
        <ele>33</ele>
        <time>2019-04-24T12:17:40Z</time>
      </trkpt>
      <trkpt lat="43.43752" lon="-1.59287">
        <ele>33</ele>
        <time>2019-04-24T12:17:46Z</time>
      </trkpt>
      <trkpt lat="43.4377" lon="-1.59263">
        <ele>31</ele>
        <time>2019-04-24T12:17:58Z</time>
      </trkpt>
      <trkpt lat="43.43802" lon="-1.5924">
        <ele>40</ele>
        <time>2019-04-24T12:18:16Z</time>
      </trkpt>
      <trkpt lat="43.43863" lon="-1.59208">
        <ele>45</ele>
        <time>2019-04-24T12:18:52Z</time>
      </trkpt>
      <trkpt lat="43.43882" lon="-1.59194">
        <ele>48</ele>
        <time>2019-04-24T12:19:04Z</time>
      </trkpt>
      <trkpt lat="43.43894" lon="-1.59162">
        <ele>49</ele>
        <time>2019-04-24T12:19:16Z</time>
      </trkpt>
      <trkpt lat="43.43899" lon="-1.59127">
        <ele>53</ele>
        <time>2019-04-24T12:19:28Z</time>
      </trkpt>
      <trkpt lat="43.43921" lon="-1.59045">
        <ele>58</ele>
        <time>2019-04-24T12:20:04Z</time>
      </trkpt>
      <trkpt lat="43.4392" lon="-1.59018">
        <ele>55</ele>
        <time>2019-04-24T12:20:16Z</time>
      </trkpt>
      <trkpt lat="43.43922" lon="-1.59012">
        <ele>58</ele>
        <time>2019-04-24T12:24:40Z</time>
      </trkpt>
      <trkpt lat="43.43944" lon="-1.5901">
        <ele>58</ele>
        <time>2019-04-24T12:25:10Z</time>
      </trkpt>
      <trkpt lat="43.43965" lon="-1.58986">
        <ele>60</ele>
        <time>2019-04-24T12:25:28Z</time>
      </trkpt>
      <trkpt lat="43.44035" lon="-1.5893">
        <ele>68</ele>
        <time>2019-04-24T12:26:10Z</time>
      </trkpt>
      <trkpt lat="43.44075" lon="-1.58907">
        <ele>71</ele>
        <time>2019-04-24T12:26:34Z</time>
      </trkpt>
      <trkpt lat="43.44099" lon="-1.58878">
        <ele>72</ele>
        <time>2019-04-24T12:26:52Z</time>
      </trkpt>
      <trkpt lat="43.44118" lon="-1.58851">
        <ele>71</ele>
        <time>2019-04-24T12:27:04Z</time>
      </trkpt>
      <trkpt lat="43.4416" lon="-1.58772">
        <ele>69</ele>
        <time>2019-04-24T12:27:16Z</time>
      </trkpt>
      <trkpt lat="43.44217" lon="-1.58684">
        <ele>69</ele>
        <time>2019-04-24T12:27:34Z</time>
      </trkpt>
      <trkpt lat="43.44258" lon="-1.58611">
        <ele>71</ele>
        <time>2019-04-24T12:27:52Z</time>
      </trkpt>
      <trkpt lat="43.44287" lon="-1.58576">
        <ele>71</ele>
        <time>2019-04-24T12:28:04Z</time>
      </trkpt>
      <trkpt lat="43.44294" lon="-1.58558">
        <ele>71</ele>
        <time>2019-04-24T12:28:10Z</time>
      </trkpt>
      <trkpt lat="43.44293" lon="-1.58529">
        <ele>71</ele>
        <time>2019-04-24T12:28:28Z</time>
      </trkpt>
      <trkpt lat="43.44312" lon="-1.58519">
        <ele>71</ele>
        <time>2019-04-24T12:28:34Z</time>
      </trkpt>
      <trkpt lat="43.44323" lon="-1.5854">
        <ele>69</ele>
        <time>2019-04-24T12:28:46Z</time>
      </trkpt>
      <trkpt lat="43.44325" lon="-1.58537">
        <ele>69</ele>
        <time>2019-04-24T12:28:58Z</time>
      </trkpt>
      <trkpt lat="43.4434" lon="-1.58535">
        <ele>69</ele>
        <time>2019-04-24T12:29:28Z</time>
      </trkpt>
      <trkpt lat="43.44404" lon="-1.58492">
        <ele>68</ele>
        <time>2019-04-24T12:29:46Z</time>
      </trkpt>
      <trkpt lat="43.44481" lon="-1.58484">
        <ele>66</ele>
        <time>2019-04-24T12:30:04Z</time>
      </trkpt>
      <trkpt lat="43.44526" lon="-1.5846">
        <ele>70</ele>
        <time>2019-04-24T12:30:16Z</time>
      </trkpt>
      <trkpt lat="43.44614" lon="-1.58435">
        <ele>75</ele>
        <time>2019-04-24T12:30:40Z</time>
      </trkpt>
      <trkpt lat="43.44655" lon="-1.58414">
        <ele>74</ele>
        <time>2019-04-24T12:30:52Z</time>
      </trkpt>
      <trkpt lat="43.44729" lon="-1.58363">
        <ele>73</ele>
        <time>2019-04-24T12:31:16Z</time>
      </trkpt>
      <trkpt lat="43.44761" lon="-1.58346">
        <ele>71</ele>
        <time>2019-04-24T12:31:28Z</time>
      </trkpt>
      <trkpt lat="43.44788" lon="-1.58325">
        <ele>74</ele>
        <time>2019-04-24T12:31:40Z</time>
      </trkpt>
      <trkpt lat="43.4481" lon="-1.58193">
        <ele>77</ele>
        <time>2019-04-24T12:32:10Z</time>
      </trkpt>
      <trkpt lat="43.44822" lon="-1.58177">
        <ele>77</ele>
        <time>2019-04-24T12:32:16Z</time>
      </trkpt>
      <trkpt lat="43.44834" lon="-1.58097">
        <ele>76</ele>
        <time>2019-04-24T12:32:34Z</time>
      </trkpt>
      <trkpt lat="43.44842" lon="-1.58078">
        <ele>76</ele>
        <time>2019-04-24T12:32:40Z</time>
      </trkpt>
      <trkpt lat="43.44891" lon="-1.58035">
        <ele>76</ele>
        <time>2019-04-24T12:32:58Z</time>
      </trkpt>
      <trkpt lat="43.44923" lon="-1.57988">
        <ele>69</ele>
        <time>2019-04-24T12:33:10Z</time>
      </trkpt>
      <trkpt lat="43.44938" lon="-1.57942">
        <ele>69</ele>
        <time>2019-04-24T12:33:16Z</time>
      </trkpt>
      <trkpt lat="43.44977" lon="-1.57772">
        <ele>67</ele>
        <time>2019-04-24T12:33:34Z</time>
      </trkpt>
      <trkpt lat="43.45028" lon="-1.5766">
        <ele>62</ele>
        <time>2019-04-24T12:33:46Z</time>
      </trkpt>
      <trkpt lat="43.45068" lon="-1.57524">
        <ele>61</ele>
        <time>2019-04-24T12:33:58Z</time>
      </trkpt>
      <trkpt lat="43.45142" lon="-1.57431">
        <ele>55</ele>
        <time>2019-04-24T12:34:10Z</time>
      </trkpt>
      <trkpt lat="43.45185" lon="-1.57409">
        <ele>54</ele>
        <time>2019-04-24T12:34:22Z</time>
      </trkpt>
      <trkpt lat="43.45287" lon="-1.57395">
        <ele>50</ele>
        <time>2019-04-24T12:34:40Z</time>
      </trkpt>
      <trkpt lat="43.45356" lon="-1.57379">
        <ele>41</ele>
        <time>2019-04-24T12:34:52Z</time>
      </trkpt>
      <trkpt lat="43.45441" lon="-1.57353">
        <ele>37</ele>
        <time>2019-04-24T12:35:10Z</time>
      </trkpt>
      <trkpt lat="43.45539" lon="-1.57337">
        <ele>39</ele>
        <time>2019-04-24T12:35:28Z</time>
      </trkpt>
      <trkpt lat="43.45564" lon="-1.57325">
        <ele>40</ele>
        <time>2019-04-24T12:35:34Z</time>
      </trkpt>
      <trkpt lat="43.45657" lon="-1.57248">
        <ele>37</ele>
        <time>2019-04-24T12:35:58Z</time>
      </trkpt>
      <trkpt lat="43.45694" lon="-1.57243">
        <ele>37</ele>
        <time>2019-04-24T12:36:04Z</time>
      </trkpt>
      <trkpt lat="43.45793" lon="-1.57257">
        <ele>34</ele>
        <time>2019-04-24T12:36:22Z</time>
      </trkpt>
      <trkpt lat="43.45826" lon="-1.57266">
        <ele>33</ele>
        <time>2019-04-24T12:36:34Z</time>
      </trkpt>
      <trkpt lat="43.46098" lon="-1.57096">
        <ele>18</ele>
        <time>2019-04-24T12:37:16Z</time>
      </trkpt>
      <trkpt lat="43.46156" lon="-1.57064">
        <ele>22</ele>
        <time>2019-04-24T12:37:28Z</time>
      </trkpt>
      <trkpt lat="43.46191" lon="-1.57069">
        <ele>25</ele>
        <time>2019-04-24T12:37:40Z</time>
      </trkpt>
      <trkpt lat="43.46215" lon="-1.5706">
        <ele>27</ele>
        <time>2019-04-24T12:37:52Z</time>
      </trkpt>
      <trkpt lat="43.4625" lon="-1.57073">
        <ele>27</ele>
        <time>2019-04-24T12:38:04Z</time>
      </trkpt>
      <trkpt lat="43.46289" lon="-1.57062">
        <ele>31</ele>
        <time>2019-04-24T12:38:16Z</time>
      </trkpt>
      <trkpt lat="43.46345" lon="-1.57058">
        <ele>32</ele>
        <time>2019-04-24T12:38:34Z</time>
      </trkpt>
      <trkpt lat="43.4639" lon="-1.5706">
        <ele>31</ele>
        <time>2019-04-24T12:38:46Z</time>
      </trkpt>
      <trkpt lat="43.46419" lon="-1.57072">
        <ele>28</ele>
        <time>2019-04-24T12:38:52Z</time>
      </trkpt>
      <trkpt lat="43.46457" lon="-1.57104">
        <ele>27</ele>
        <time>2019-04-24T12:38:58Z</time>
      </trkpt>
      <trkpt lat="43.46556" lon="-1.57203">
        <ele>18</ele>
        <time>2019-04-24T12:39:16Z</time>
      </trkpt>
      <trkpt lat="43.46645" lon="-1.57209">
        <ele>19</ele>
        <time>2019-04-24T12:39:28Z</time>
      </trkpt>
      <trkpt lat="43.46688" lon="-1.57157">
        <ele>21</ele>
        <time>2019-04-24T12:39:40Z</time>
      </trkpt>
      <trkpt lat="43.46697" lon="-1.57131">
        <ele>21</ele>
        <time>2019-04-24T12:39:46Z</time>
      </trkpt>
      <trkpt lat="43.46705" lon="-1.57081">
        <ele>21</ele>
        <time>2019-04-24T12:39:58Z</time>
      </trkpt>
      <trkpt lat="43.4672" lon="-1.57037">
        <ele>22</ele>
        <time>2019-04-24T12:40:10Z</time>
      </trkpt>
      <trkpt lat="43.4681" lon="-1.56918">
        <ele>25</ele>
        <time>2019-04-24T12:40:52Z</time>
      </trkpt>
      <trkpt lat="43.46865" lon="-1.56857">
        <ele>31</ele>
        <time>2019-04-24T12:41:16Z</time>
      </trkpt>
      <trkpt lat="43.46925" lon="-1.56816">
        <ele>38</ele>
        <time>2019-04-24T12:41:40Z</time>
      </trkpt>
      <trkpt lat="43.46995" lon="-1.5676">
        <ele>45</ele>
        <time>2019-04-24T12:42:10Z</time>
      </trkpt>
      <trkpt lat="43.47134" lon="-1.56679">
        <ele>49</ele>
        <time>2019-04-24T12:43:10Z</time>
      </trkpt>
      <trkpt lat="43.47168" lon="-1.56663">
        <ele>48</ele>
        <time>2019-04-24T12:43:28Z</time>
      </trkpt>
      <trkpt lat="43.47195" lon="-1.56657">
        <ele>47</ele>
        <time>2019-04-24T12:43:40Z</time>
      </trkpt>
      <trkpt lat="43.4726" lon="-1.56657">
        <ele>48</ele>
        <time>2019-04-24T12:44:04Z</time>
      </trkpt>
      <trkpt lat="43.47295" lon="-1.56644">
        <ele>48</ele>
        <time>2019-04-24T12:44:16Z</time>
      </trkpt>
      <trkpt lat="43.47324" lon="-1.56666">
        <ele>47</ele>
        <time>2019-04-24T12:44:28Z</time>
      </trkpt>
      <trkpt lat="43.47336" lon="-1.56665">
        <ele>46</ele>
        <time>2019-04-24T12:44:33Z</time>
      </trkpt>
      <trkpt lat="43.47342" lon="-1.56667">
        <ele>46</ele>
        <time>2019-04-24T12:44:45Z</time>
      </trkpt>
      <trkpt lat="43.4734" lon="-1.56669">
        <ele>46</ele>
        <time>2019-04-24T12:45:33Z</time>
      </trkpt>
      <trkpt lat="43.4744" lon="-1.56656">
        <ele>45</ele>
        <time>2019-04-24T12:46:21Z</time>
      </trkpt>
      <trkpt lat="43.47516" lon="-1.56621">
        <ele>46</ele>
        <time>2019-04-24T12:46:39Z</time>
      </trkpt>
      <trkpt lat="43.47565" lon="-1.5661">
        <ele>40</ele>
        <time>2019-04-24T12:46:51Z</time>
      </trkpt>
      <trkpt lat="43.47634" lon="-1.56586">
        <ele>36</ele>
        <time>2019-04-24T12:47:09Z</time>
      </trkpt>
      <trkpt lat="43.47674" lon="-1.56562">
        <ele>36</ele>
        <time>2019-04-24T12:47:21Z</time>
      </trkpt>
      <trkpt lat="43.47694" lon="-1.56528">
        <ele>46</ele>
        <time>2019-04-24T12:47:33Z</time>
      </trkpt>
      <trkpt lat="43.47739" lon="-1.56526">
        <ele>45</ele>
        <time>2019-04-24T12:47:45Z</time>
      </trkpt>
      <trkpt lat="43.47834" lon="-1.56495">
        <ele>47</ele>
        <time>2019-04-24T12:48:03Z</time>
      </trkpt>
      <trkpt lat="43.47863" lon="-1.56467">
        <ele>52</ele>
        <time>2019-04-24T12:48:15Z</time>
      </trkpt>
      <trkpt lat="43.47883" lon="-1.56491">
        <ele>48</ele>
        <time>2019-04-24T12:48:27Z</time>
      </trkpt>
      <trkpt lat="43.47886" lon="-1.56492">
        <ele>48</ele>
        <time>2019-04-24T12:48:33Z</time>
      </trkpt>
      <trkpt lat="43.47889" lon="-1.56487">
        <ele>48</ele>
        <time>2019-04-24T12:53:41Z</time>
      </trkpt>
      <trkpt lat="43.47889" lon="-1.56513">
        <ele>48</ele>
        <time>2019-04-24T12:53:59Z</time>
      </trkpt>
      <trkpt lat="43.47909" lon="-1.5654">
        <ele>38</ele>
        <time>2019-04-24T12:54:11Z</time>
      </trkpt>
      <trkpt lat="43.47948" lon="-1.56539">
        <ele>36</ele>
        <time>2019-04-24T12:54:23Z</time>
      </trkpt>
      <trkpt lat="43.47985" lon="-1.56532">
        <ele>33</ele>
        <time>2019-04-24T12:54:35Z</time>
      </trkpt>
      <trkpt lat="43.48068" lon="-1.56573">
        <ele>27</ele>
        <time>2019-04-24T12:54:53Z</time>
      </trkpt>
      <trkpt lat="43.48084" lon="-1.566">
        <ele>24</ele>
        <time>2019-04-24T12:54:59Z</time>
      </trkpt>
      <trkpt lat="43.48094" lon="-1.56632">
        <ele>21</ele>
        <time>2019-04-24T12:55:17Z</time>
      </trkpt>
      <trkpt lat="43.48091" lon="-1.56635">
        <ele>21</ele>
        <time>2019-04-24T12:55:35Z</time>
      </trkpt>
      <trkpt lat="43.48096" lon="-1.56638">
        <ele>21</ele>
        <time>2019-04-24T12:56:11Z</time>
      </trkpt>
      <trkpt lat="43.48112" lon="-1.56663">
        <ele>20</ele>
        <time>2019-04-24T12:56:23Z</time>
      </trkpt>
      <trkpt lat="43.48132" lon="-1.56755">
        <ele>14</ele>
        <time>2019-04-24T12:56:35Z</time>
      </trkpt>
      <trkpt lat="43.48156" lon="-1.56838">
        <ele>25.8</ele>
        <time>2019-04-24T12:56:47Z</time>
      </trkpt>
      <trkpt lat="43.48167" lon="-1.56847">
        <ele>4</ele>
        <time>2019-04-24T12:56:53Z</time>
      </trkpt>
      <trkpt lat="43.4818" lon="-1.5684">
        <ele>4</ele>
        <time>2019-04-24T12:57:05Z</time>
      </trkpt>
      <trkpt lat="43.48191" lon="-1.5682">
        <ele>10</ele>
        <time>2019-04-24T12:57:11Z</time>
      </trkpt>
      <trkpt lat="43.48188" lon="-1.56795">
        <ele>13</ele>
        <time>2019-04-24T12:57:23Z</time>
      </trkpt>
      <trkpt lat="43.48195" lon="-1.56778">
        <ele>13</ele>
        <time>2019-04-24T12:58:17Z</time>
      </trkpt>
      <trkpt lat="43.4818" lon="-1.56692">
        <ele>21</ele>
        <time>2019-04-24T12:58:47Z</time>
      </trkpt>
      <trkpt lat="43.4818" lon="-1.56658">
        <ele>21</ele>
        <time>2019-04-24T12:59:05Z</time>
      </trkpt>
      <trkpt lat="43.48175" lon="-1.56624">
        <ele>23</ele>
        <time>2019-04-24T12:59:17Z</time>
      </trkpt>
      <trkpt lat="43.48178" lon="-1.56612">
        <ele>26</ele>
        <time>2019-04-24T12:59:23Z</time>
      </trkpt>
      <trkpt lat="43.48178" lon="-1.56577">
        <ele>27</ele>
        <time>2019-04-24T12:59:41Z</time>
      </trkpt>
      <trkpt lat="43.48184" lon="-1.56528">
        <ele>28</ele>
        <time>2019-04-24T13:00:11Z</time>
      </trkpt>
      <trkpt lat="43.48193" lon="-1.56499">
        <ele>29</ele>
        <time>2019-04-24T13:00:23Z</time>
      </trkpt>
      <trkpt lat="43.48193" lon="-1.5643">
        <ele>32</ele>
        <time>2019-04-24T13:00:47Z</time>
      </trkpt>
      <trkpt lat="43.48202" lon="-1.56378">
        <ele>35</ele>
        <time>2019-04-24T13:00:59Z</time>
      </trkpt>
      <trkpt lat="43.48208" lon="-1.56368">
        <ele>32</ele>
        <time>2019-04-24T13:02:05Z</time>
      </trkpt>
      <trkpt lat="43.48207" lon="-1.56375">
        <ele>35</ele>
        <time>2019-04-24T13:02:23Z</time>
      </trkpt>
      <trkpt lat="43.48212" lon="-1.56384">
        <ele>30</ele>
        <time>2019-04-24T13:02:35Z</time>
      </trkpt>
      <trkpt lat="43.4824" lon="-1.5639">
        <ele>26</ele>
        <time>2019-04-24T13:02:41Z</time>
      </trkpt>
      <trkpt lat="43.48286" lon="-1.5639">
        <ele>15</ele>
        <time>2019-04-24T13:02:53Z</time>
      </trkpt>
      <trkpt lat="43.4829" lon="-1.56376">
        <ele>18</ele>
        <time>2019-04-24T13:03:11Z</time>
      </trkpt>
      <trkpt lat="43.48296" lon="-1.56378">
        <ele>18</ele>
        <time>2019-04-24T13:04:23Z</time>
      </trkpt>
      <trkpt lat="43.48298" lon="-1.56371">
        <ele>18</ele>
        <time>2019-04-24T13:04:53Z</time>
      </trkpt>
      <trkpt lat="43.48295" lon="-1.56373">
        <ele>18</ele>
        <time>2019-04-24T13:05:17Z</time>
      </trkpt>
      <trkpt lat="43.48301" lon="-1.56364">
        <ele>18</ele>
        <time>2019-04-24T13:06:41Z</time>
      </trkpt>
      <trkpt lat="43.48325" lon="-1.56294">
        <ele>20</ele>
        <time>2019-04-24T13:06:53Z</time>
      </trkpt>
      <trkpt lat="43.48364" lon="-1.56239">
        <ele>9.9</ele>
        <time>2019-04-24T13:07:05Z</time>
      </trkpt>
      <trkpt lat="43.48365" lon="-1.56201">
        <ele>9.2</ele>
        <time>2019-04-24T13:07:11Z</time>
      </trkpt>
      <trkpt lat="43.48336" lon="-1.5614">
        <ele>8</ele>
        <time>2019-04-24T13:07:23Z</time>
      </trkpt>
      <trkpt lat="43.48338" lon="-1.56065">
        <ele>9</ele>
        <time>2019-04-24T13:07:35Z</time>
      </trkpt>
      <trkpt lat="43.48323" lon="-1.56001">
        <ele>15</ele>
        <time>2019-04-24T13:07:59Z</time>
      </trkpt>
      <trkpt lat="43.48324" lon="-1.55977">
        <ele>15</ele>
        <time>2019-04-24T13:08:11Z</time>
      </trkpt>
      <trkpt lat="43.48337" lon="-1.55963">
        <ele>17</ele>
        <time>2019-04-24T13:08:17Z</time>
      </trkpt>
      <trkpt lat="43.48375" lon="-1.55907">
        <ele>19</ele>
        <time>2019-04-24T13:08:50Z</time>
      </trkpt>
      <trkpt lat="43.48469" lon="-1.55801">
        <ele>23</ele>
        <time>2019-04-24T13:09:26Z</time>
      </trkpt>
      <trkpt lat="43.4855" lon="-1.557">
        <ele>12</ele>
        <time>2019-04-24T13:09:37Z</time>
      </trkpt>
      <trkpt lat="43.48549" lon="-1.55669">
        <ele>14</ele>
        <time>2019-04-24T13:09:43Z</time>
      </trkpt>
      <trkpt lat="43.4854" lon="-1.55642">
        <ele>16</ele>
        <time>2019-04-24T13:10:13Z</time>
      </trkpt>
      <trkpt lat="43.48554" lon="-1.55598">
        <ele>19</ele>
        <time>2019-04-24T13:10:35Z</time>
      </trkpt>
      <trkpt lat="43.48576" lon="-1.5557">
        <ele>20</ele>
        <time>2019-04-24T13:10:47Z</time>
      </trkpt>
      <trkpt lat="43.48655" lon="-1.55518">
        <ele>21</ele>
        <time>2019-04-24T13:11:23Z</time>
      </trkpt>
      <trkpt lat="43.48798" lon="-1.55357">
        <ele>33</ele>
        <time>2019-04-24T13:12:47Z</time>
      </trkpt>
      <trkpt lat="43.48821" lon="-1.55339">
        <ele>36</ele>
        <time>2019-04-24T13:12:59Z</time>
      </trkpt>
      <trkpt lat="43.48865" lon="-1.55312">
        <ele>40</ele>
        <time>2019-04-24T13:13:05Z</time>
      </trkpt>
      <trkpt lat="43.48887" lon="-1.55303">
        <ele>41</ele>
        <time>2019-04-24T13:13:17Z</time>
      </trkpt>
      <trkpt lat="43.48914" lon="-1.55284">
        <ele>39</ele>
        <time>2019-04-24T13:13:29Z</time>
      </trkpt>
      <trkpt lat="43.49016" lon="-1.55233">
        <ele>39</ele>
        <time>2019-04-24T13:14:11Z</time>
      </trkpt>
      <trkpt lat="43.49035" lon="-1.55227">
        <ele>37</ele>
        <time>2019-04-24T13:14:17Z</time>
      </trkpt>
      <trkpt lat="43.49076" lon="-1.55205">
        <ele>38</ele>
        <time>2019-04-24T13:14:29Z</time>
      </trkpt>
      <trkpt lat="43.49119" lon="-1.55206">
        <ele>35</ele>
        <time>2019-04-24T13:14:41Z</time>
      </trkpt>
      <trkpt lat="43.49141" lon="-1.55194">
        <ele>34</ele>
        <time>2019-04-24T13:14:47Z</time>
      </trkpt>
      <trkpt lat="43.49178" lon="-1.55158">
        <ele>39</ele>
        <time>2019-04-24T13:14:59Z</time>
      </trkpt>
      <trkpt lat="43.49193" lon="-1.55136">
        <ele>43</ele>
        <time>2019-04-24T13:15:05Z</time>
      </trkpt>
      <trkpt lat="43.49215" lon="-1.55081">
        <ele>41</ele>
        <time>2019-04-24T13:15:17Z</time>
      </trkpt>
      <trkpt lat="43.49221" lon="-1.55025">
        <ele>41</ele>
        <time>2019-04-24T13:15:29Z</time>
      </trkpt>
      <trkpt lat="43.49237" lon="-1.5492">
        <ele>36</ele>
        <time>2019-04-24T13:15:53Z</time>
      </trkpt>
      <trkpt lat="43.49252" lon="-1.54764">
        <ele>37</ele>
        <time>2019-04-24T13:16:29Z</time>
      </trkpt>
      <trkpt lat="43.49269" lon="-1.54708">
        <ele>35</ele>
        <time>2019-04-24T13:17:35Z</time>
      </trkpt>
      <trkpt lat="43.49317" lon="-1.54621">
        <ele>38</ele>
        <time>2019-04-24T13:18:11Z</time>
      </trkpt>
      <trkpt lat="43.49335" lon="-1.54594">
        <ele>37</ele>
        <time>2019-04-24T13:18:23Z</time>
      </trkpt>
      <trkpt lat="43.49358" lon="-1.54571">
        <ele>33</ele>
        <time>2019-04-24T13:18:35Z</time>
      </trkpt>
      <trkpt lat="43.49375" lon="-1.54534">
        <ele>35</ele>
        <time>2019-04-24T13:18:53Z</time>
      </trkpt>
      <trkpt lat="43.49384" lon="-1.54524">
        <ele>33</ele>
        <time>2019-04-24T13:18:59Z</time>
      </trkpt>
      <trkpt lat="43.49392" lon="-1.54522">
        <ele>33</ele>
        <time>2019-04-24T13:19:11Z</time>
      </trkpt>
      <trkpt lat="43.49407" lon="-1.54476">
        <ele>36</ele>
        <time>2019-04-24T13:19:29Z</time>
      </trkpt>
      <trkpt lat="43.49446" lon="-1.5441">
        <ele>42</ele>
        <time>2019-04-24T13:19:47Z</time>
      </trkpt>
      <trkpt lat="43.49488" lon="-1.54308">
        <ele>39</ele>
        <time>2019-04-24T13:20:05Z</time>
      </trkpt>
      <trkpt lat="43.49517" lon="-1.54303">
        <ele>38</ele>
        <time>2019-04-24T13:20:11Z</time>
      </trkpt>
      <trkpt lat="43.49588" lon="-1.54309">
        <ele>34</ele>
        <time>2019-04-24T13:20:29Z</time>
      </trkpt>
      <trkpt lat="43.49661" lon="-1.54282">
        <ele>31</ele>
        <time>2019-04-24T13:20:41Z</time>
      </trkpt>
      <trkpt lat="43.49757" lon="-1.54267">
        <ele>20</ele>
        <time>2019-04-24T13:20:53Z</time>
      </trkpt>
      <trkpt lat="43.49823" lon="-1.54151">
        <ele>26</ele>
        <time>2019-04-24T13:21:05Z</time>
      </trkpt>
      <trkpt lat="43.49877" lon="-1.54133">
        <ele>19</ele>
        <time>2019-04-24T13:21:11Z</time>
      </trkpt>
      <trkpt lat="43.49922" lon="-1.54084">
        <ele>19</ele>
        <time>2019-04-24T13:21:17Z</time>
      </trkpt>
      <trkpt lat="43.49944" lon="-1.54038">
        <ele>19</ele>
        <time>2019-04-24T13:21:29Z</time>
      </trkpt>
      <trkpt lat="43.49966" lon="-1.54055">
        <ele>16</ele>
        <time>2019-04-24T13:21:41Z</time>
      </trkpt>
      <trkpt lat="43.49997" lon="-1.54011">
        <ele>15</ele>
        <time>2019-04-24T13:21:59Z</time>
      </trkpt>
      <trkpt lat="43.50026" lon="-1.53929">
        <ele>13</ele>
        <time>2019-04-24T13:22:11Z</time>
      </trkpt>
      <trkpt lat="43.50085" lon="-1.53856">
        <ele>13</ele>
        <time>2019-04-24T13:22:23Z</time>
      </trkpt>
      <trkpt lat="43.50094" lon="-1.53817">
        <ele>15</ele>
        <time>2019-04-24T13:22:35Z</time>
      </trkpt>
      <trkpt lat="43.50123" lon="-1.53825">
        <ele>15</ele>
        <time>2019-04-24T13:22:47Z</time>
      </trkpt>
      <trkpt lat="43.50222" lon="-1.53726">
        <ele>10</ele>
        <time>2019-04-24T13:23:29Z</time>
      </trkpt>
      <trkpt lat="43.50264" lon="-1.53694">
        <ele>10</ele>
        <time>2019-04-24T13:23:41Z</time>
      </trkpt>
      <trkpt lat="43.50324" lon="-1.53655">
        <ele>11</ele>
        <time>2019-04-24T13:23:59Z</time>
      </trkpt>
      <trkpt lat="43.50348" lon="-1.53623">
        <ele>12</ele>
        <time>2019-04-24T13:24:11Z</time>
      </trkpt>
      <trkpt lat="43.50538" lon="-1.53483">
        <ele>13</ele>
        <time>2019-04-24T13:25:05Z</time>
      </trkpt>
      <trkpt lat="43.50571" lon="-1.53452">
        <ele>14</ele>
        <time>2019-04-24T13:25:17Z</time>
      </trkpt>
      <trkpt lat="43.50681" lon="-1.53382">
        <ele>15</ele>
        <time>2019-04-24T13:25:41Z</time>
      </trkpt>
      <trkpt lat="43.50697" lon="-1.53365">
        <ele>15</ele>
        <time>2019-04-24T13:25:47Z</time>
      </trkpt>
      <trkpt lat="43.50736" lon="-1.53338">
        <ele>14</ele>
        <time>2019-04-24T13:25:59Z</time>
      </trkpt>
      <trkpt lat="43.50773" lon="-1.53302">
        <ele>13</ele>
        <time>2019-04-24T13:26:11Z</time>
      </trkpt>
      <trkpt lat="43.5082" lon="-1.53235">
        <ele>14</ele>
        <time>2019-04-24T13:26:29Z</time>
      </trkpt>
      <trkpt lat="43.50902" lon="-1.53083">
        <ele>15</ele>
        <time>2019-04-24T13:27:05Z</time>
      </trkpt>
      <trkpt lat="43.50923" lon="-1.53062">
        <ele>14</ele>
        <time>2019-04-24T13:27:17Z</time>
      </trkpt>
      <trkpt lat="43.50942" lon="-1.53009">
        <ele>14</ele>
        <time>2019-04-24T13:27:29Z</time>
      </trkpt>
      <trkpt lat="43.51024" lon="-1.5289">
        <ele>12</ele>
        <time>2019-04-24T13:27:53Z</time>
      </trkpt>
      <trkpt lat="43.51183" lon="-1.52732">
        <ele>11</ele>
        <time>2019-04-24T13:28:29Z</time>
      </trkpt>
      <trkpt lat="43.51211" lon="-1.52708">
        <ele>10</ele>
        <time>2019-04-24T13:28:35Z</time>
      </trkpt>
      <trkpt lat="43.51271" lon="-1.52666">
        <ele>8</ele>
        <time>2019-04-24T13:28:47Z</time>
      </trkpt>
      <trkpt lat="43.51332" lon="-1.52614">
        <ele>9</ele>
        <time>2019-04-24T13:29:05Z</time>
      </trkpt>
      <trkpt lat="43.51367" lon="-1.52595">
        <ele>10</ele>
        <time>2019-04-24T13:29:17Z</time>
      </trkpt>
      <trkpt lat="43.5143" lon="-1.52528">
        <ele>12</ele>
        <time>2019-04-24T13:29:41Z</time>
      </trkpt>
      <trkpt lat="43.51475" lon="-1.52496">
        <ele>13</ele>
        <time>2019-04-24T13:29:53Z</time>
      </trkpt>
      <trkpt lat="43.5158" lon="-1.52436">
        <ele>12</ele>
        <time>2019-04-24T13:30:17Z</time>
      </trkpt>
      <trkpt lat="43.51648" lon="-1.52379">
        <ele>10</ele>
        <time>2019-04-24T13:30:35Z</time>
      </trkpt>
      <trkpt lat="43.51677" lon="-1.52366">
        <ele>10</ele>
        <time>2019-04-24T13:30:41Z</time>
      </trkpt>
      <trkpt lat="43.51733" lon="-1.52356">
        <ele>10</ele>
        <time>2019-04-24T13:30:53Z</time>
      </trkpt>
      <trkpt lat="43.51783" lon="-1.52364">
        <ele>11</ele>
        <time>2019-04-24T13:31:05Z</time>
      </trkpt>
      <trkpt lat="43.5182" lon="-1.52387">
        <ele>13</ele>
        <time>2019-04-24T13:31:17Z</time>
      </trkpt>
      <trkpt lat="43.51862" lon="-1.52392">
        <ele>12</ele>
        <time>2019-04-24T13:31:29Z</time>
      </trkpt>
      <trkpt lat="43.51889" lon="-1.52393">
        <ele>12</ele>
        <time>2019-04-24T13:31:35Z</time>
      </trkpt>
      <trkpt lat="43.51942" lon="-1.52372">
        <ele>11</ele>
        <time>2019-04-24T13:31:47Z</time>
      </trkpt>
      <trkpt lat="43.51967" lon="-1.52353">
        <ele>9</ele>
        <time>2019-04-24T13:31:53Z</time>
      </trkpt>
      <trkpt lat="43.5215" lon="-1.52158">
        <ele>6</ele>
        <time>2019-04-24T13:32:35Z</time>
      </trkpt>
      <trkpt lat="43.52233" lon="-1.52078">
        <ele>7</ele>
        <time>2019-04-24T13:32:53Z</time>
      </trkpt>
      <trkpt lat="43.52253" lon="-1.52052">
        <ele>9</ele>
        <time>2019-04-24T13:32:59Z</time>
      </trkpt>
      <trkpt lat="43.52414" lon="-1.51882">
        <ele>10</ele>
        <time>2019-04-24T13:33:40Z</time>
      </trkpt>
      <trkpt lat="43.52436" lon="-1.51863">
        <ele>10</ele>
        <time>2019-04-24T13:33:46Z</time>
      </trkpt>
      <trkpt lat="43.52523" lon="-1.5177">
        <ele>7</ele>
        <time>2019-04-24T13:34:10Z</time>
      </trkpt>
      <trkpt lat="43.52576" lon="-1.51724">
        <ele>6</ele>
        <time>2019-04-24T13:34:58Z</time>
      </trkpt>
      <trkpt lat="43.52586" lon="-1.51665">
        <ele>6</ele>
        <time>2019-04-24T13:35:16Z</time>
      </trkpt>
      <trkpt lat="43.52585" lon="-1.51582">
        <ele>7</ele>
        <time>2019-04-24T13:35:34Z</time>
      </trkpt>
      <trkpt lat="43.52597" lon="-1.51496">
        <ele>7</ele>
        <time>2019-04-24T13:35:52Z</time>
      </trkpt>
      <trkpt lat="43.52584" lon="-1.51433">
        <ele>9</ele>
        <time>2019-04-24T13:36:04Z</time>
      </trkpt>
      <trkpt lat="43.52631" lon="-1.51346">
        <ele>8</ele>
        <time>2019-04-24T13:36:28Z</time>
      </trkpt>
      <trkpt lat="43.52646" lon="-1.51343">
        <ele>6</ele>
        <time>2019-04-24T13:36:40Z</time>
      </trkpt>
      <trkpt lat="43.5265" lon="-1.51314">
        <ele>7</ele>
        <time>2019-04-24T13:36:46Z</time>
      </trkpt>
      <trkpt lat="43.52652" lon="-1.51245">
        <ele>4</ele>
        <time>2019-04-24T13:36:58Z</time>
      </trkpt>
      <trkpt lat="43.52638" lon="-1.51182">
        <ele>3</ele>
        <time>2019-04-24T13:37:10Z</time>
      </trkpt>
      <trkpt lat="43.52573" lon="-1.5101">
        <ele>5</ele>
        <time>2019-04-24T13:37:46Z</time>
      </trkpt>
      <trkpt lat="43.52578" lon="-1.50966">
        <ele>3</ele>
        <time>2019-04-24T13:37:58Z</time>
      </trkpt>
      <trkpt lat="43.52504" lon="-1.50756">
        <ele>2</ele>
        <time>2019-04-24T13:38:46Z</time>
      </trkpt>
      <trkpt lat="43.52485" lon="-1.50714">
        <ele>2</ele>
        <time>2019-04-24T13:38:58Z</time>
      </trkpt>
      <trkpt lat="43.52472" lon="-1.50499">
        <ele>2</ele>
        <time>2019-04-24T13:39:40Z</time>
      </trkpt>
      <trkpt lat="43.52449" lon="-1.50493">
        <ele>3</ele>
        <time>2019-04-24T13:39:52Z</time>
      </trkpt>
      <trkpt lat="43.52433" lon="-1.5046">
        <ele>4</ele>
        <time>2019-04-24T13:40:04Z</time>
      </trkpt>
      <trkpt lat="43.5241" lon="-1.50432">
        <ele>5</ele>
        <time>2019-04-24T13:40:16Z</time>
      </trkpt>
      <trkpt lat="43.52293" lon="-1.50359">
        <ele>9</ele>
        <time>2019-04-24T13:40:52Z</time>
      </trkpt>
      <trkpt lat="43.52258" lon="-1.50348">
        <ele>10</ele>
        <time>2019-04-24T13:41:04Z</time>
      </trkpt>
      <trkpt lat="43.52214" lon="-1.50345">
        <ele>8</ele>
        <time>2019-04-24T13:41:16Z</time>
      </trkpt>
      <trkpt lat="43.52167" lon="-1.50332">
        <ele>7</ele>
        <time>2019-04-24T13:41:28Z</time>
      </trkpt>
      <trkpt lat="43.52127" lon="-1.50294">
        <ele>5</ele>
        <time>2019-04-24T13:41:46Z</time>
      </trkpt>
      <trkpt lat="43.52118" lon="-1.50283">
        <ele>5</ele>
        <time>2019-04-24T13:41:58Z</time>
      </trkpt>
      <trkpt lat="43.52106" lon="-1.50283">
        <ele>5</ele>
        <time>2019-04-24T13:42:04Z</time>
      </trkpt>
      <trkpt lat="43.52055" lon="-1.50237">
        <ele>3</ele>
        <time>2019-04-24T13:42:22Z</time>
      </trkpt>
      <trkpt lat="43.51993" lon="-1.50191">
        <ele>3</ele>
        <time>2019-04-24T13:42:46Z</time>
      </trkpt>
      <trkpt lat="43.51954" lon="-1.50178">
        <ele>4</ele>
        <time>2019-04-24T13:42:58Z</time>
      </trkpt>
      <trkpt lat="43.51905" lon="-1.50172">
        <ele>4</ele>
        <time>2019-04-24T13:43:16Z</time>
      </trkpt>
      <trkpt lat="43.51839" lon="-1.50173">
        <ele>5</ele>
        <time>2019-04-24T13:43:46Z</time>
      </trkpt>
      <trkpt lat="43.51649" lon="-1.50163">
        <ele>4</ele>
        <time>2019-04-24T13:45:04Z</time>
      </trkpt>
      <trkpt lat="43.51616" lon="-1.50152">
        <ele>5</ele>
        <time>2019-04-24T13:45:16Z</time>
      </trkpt>
      <trkpt lat="43.51604" lon="-1.50143">
        <ele>5</ele>
        <time>2019-04-24T13:45:22Z</time>
      </trkpt>
      <trkpt lat="43.51586" lon="-1.50139">
        <ele>5</ele>
        <time>2019-04-24T13:45:28Z</time>
      </trkpt>
      <trkpt lat="43.51553" lon="-1.5012">
        <ele>6</ele>
        <time>2019-04-24T13:45:40Z</time>
      </trkpt>
      <trkpt lat="43.51512" lon="-1.50105">
        <ele>8</ele>
        <time>2019-04-24T13:45:52Z</time>
      </trkpt>
      <trkpt lat="43.51454" lon="-1.50074">
        <ele>10</ele>
        <time>2019-04-24T13:46:16Z</time>
      </trkpt>
      <trkpt lat="43.51419" lon="-1.50064">
        <ele>7</ele>
        <time>2019-04-24T13:46:28Z</time>
      </trkpt>
      <trkpt lat="43.51352" lon="-1.50028">
        <ele>6</ele>
        <time>2019-04-24T13:46:52Z</time>
      </trkpt>
      <trkpt lat="43.51283" lon="-1.50012">
        <ele>5</ele>
        <time>2019-04-24T13:47:16Z</time>
      </trkpt>
      <trkpt lat="43.51246" lon="-1.49994">
        <ele>5</ele>
        <time>2019-04-24T13:47:28Z</time>
      </trkpt>
      <trkpt lat="43.51157" lon="-1.50005">
        <ele>5</ele>
        <time>2019-04-24T13:47:58Z</time>
      </trkpt>
      <trkpt lat="43.51141" lon="-1.49968">
        <ele>5</ele>
        <time>2019-04-24T13:48:10Z</time>
      </trkpt>
      <trkpt lat="43.51121" lon="-1.49968">
        <ele>5</ele>
        <time>2019-04-24T13:48:16Z</time>
      </trkpt>
      <trkpt lat="43.51088" lon="-1.49978">
        <ele>5</ele>
        <time>2019-04-24T13:48:28Z</time>
      </trkpt>
      <trkpt lat="43.51029" lon="-1.49961">
        <ele>4</ele>
        <time>2019-04-24T13:48:52Z</time>
      </trkpt>
      <trkpt lat="43.51016" lon="-1.49946">
        <ele>3</ele>
        <time>2019-04-24T13:48:58Z</time>
      </trkpt>
      <trkpt lat="43.51006" lon="-1.49901">
        <ele>3</ele>
        <time>2019-04-24T13:49:10Z</time>
      </trkpt>
      <trkpt lat="43.50989" lon="-1.49891">
        <ele>3</ele>
        <time>2019-04-24T13:49:16Z</time>
      </trkpt>
      <trkpt lat="43.50974" lon="-1.49895">
        <ele>3</ele>
        <time>2019-04-24T13:49:22Z</time>
      </trkpt>
      <trkpt lat="43.5094" lon="-1.4989">
        <ele>3</ele>
        <time>2019-04-24T13:49:34Z</time>
      </trkpt>
      <trkpt lat="43.50792" lon="-1.49783">
        <ele>4</ele>
        <time>2019-04-24T13:50:28Z</time>
      </trkpt>
      <trkpt lat="43.50731" lon="-1.4973">
        <ele>4</ele>
        <time>2019-04-24T13:50:52Z</time>
      </trkpt>
      <trkpt lat="43.5068" lon="-1.49694">
        <ele>4</ele>
        <time>2019-04-24T13:51:10Z</time>
      </trkpt>
      <trkpt lat="43.50517" lon="-1.49569">
        <ele>3</ele>
        <time>2019-04-24T13:52:04Z</time>
      </trkpt>
      <trkpt lat="43.50477" lon="-1.49542">
        <ele>3</ele>
        <time>2019-04-24T13:52:16Z</time>
      </trkpt>
      <trkpt lat="43.50376" lon="-1.49494">
        <ele>3</ele>
        <time>2019-04-24T13:52:46Z</time>
      </trkpt>
      <trkpt lat="43.50321" lon="-1.49455">
        <ele>1</ele>
        <time>2019-04-24T13:53:04Z</time>
      </trkpt>
      <trkpt lat="43.50166" lon="-1.49291">
        <ele>1</ele>
        <time>2019-04-24T13:53:52Z</time>
      </trkpt>
      <trkpt lat="43.50126" lon="-1.49247">
        <ele>1</ele>
        <time>2019-04-24T13:54:04Z</time>
      </trkpt>
      <trkpt lat="43.5009" lon="-1.49201">
        <ele>1</ele>
        <time>2019-04-24T13:54:16Z</time>
      </trkpt>
      <trkpt lat="43.50032" lon="-1.4911">
        <ele>2</ele>
        <time>2019-04-24T13:54:40Z</time>
      </trkpt>
      <trkpt lat="43.49965" lon="-1.48986">
        <ele>1</ele>
        <time>2019-04-24T13:55:10Z</time>
      </trkpt>
      <trkpt lat="43.49929" lon="-1.48913">
        <ele>2</ele>
        <time>2019-04-24T13:55:28Z</time>
      </trkpt>
      <trkpt lat="43.49895" lon="-1.48834">
        <ele>1</ele>
        <time>2019-04-24T13:55:46Z</time>
      </trkpt>
      <trkpt lat="43.49851" lon="-1.48753">
        <ele>2</ele>
        <time>2019-04-24T13:56:04Z</time>
      </trkpt>
      <trkpt lat="43.49833" lon="-1.48698">
        <ele>2</ele>
        <time>2019-04-24T13:56:16Z</time>
      </trkpt>
      <trkpt lat="43.49819" lon="-1.48671">
        <ele>2</ele>
        <time>2019-04-24T13:56:22Z</time>
      </trkpt>
      <trkpt lat="43.49774" lon="-1.48554">
        <ele>2</ele>
        <time>2019-04-24T13:56:46Z</time>
      </trkpt>
      <trkpt lat="43.4976" lon="-1.48489">
        <ele>3</ele>
        <time>2019-04-24T13:56:58Z</time>
      </trkpt>
      <trkpt lat="43.49729" lon="-1.48403">
        <ele>4</ele>
        <time>2019-04-24T13:57:16Z</time>
      </trkpt>
      <trkpt lat="43.49731" lon="-1.48348">
        <ele>1</ele>
        <time>2019-04-24T13:57:28Z</time>
      </trkpt>
      <trkpt lat="43.49722" lon="-1.48288">
        <ele>3.1</ele>
        <time>2019-04-24T13:57:40Z</time>
      </trkpt>
      <trkpt lat="43.49672" lon="-1.48205">
        <ele>1</ele>
        <time>2019-04-24T13:58:04Z</time>
      </trkpt>
      <trkpt lat="43.49633" lon="-1.48093">
        <ele>3</ele>
        <time>2019-04-24T13:58:28Z</time>
      </trkpt>
      <trkpt lat="43.49609" lon="-1.48003">
        <ele>1</ele>
        <time>2019-04-24T13:58:46Z</time>
      </trkpt>
      <trkpt lat="43.49601" lon="-1.47993">
        <ele>2</ele>
        <time>2019-04-24T13:58:52Z</time>
      </trkpt>
      <trkpt lat="43.49583" lon="-1.47991">
        <ele>4</ele>
        <time>2019-04-24T13:59:25Z</time>
      </trkpt>
      <trkpt lat="43.49533" lon="-1.47861">
        <ele>4</ele>
        <time>2019-04-24T14:00:15Z</time>
      </trkpt>
      <trkpt lat="43.4953" lon="-1.47835">
        <ele>2</ele>
        <time>2019-04-24T14:00:21Z</time>
      </trkpt>
      <trkpt lat="43.49539" lon="-1.47814">
        <ele>2</ele>
        <time>2019-04-24T14:00:27Z</time>
      </trkpt>
      <trkpt lat="43.49544" lon="-1.47741">
        <ele>3.2</ele>
        <time>2019-04-24T14:00:39Z</time>
      </trkpt>
      <trkpt lat="43.49541" lon="-1.47714">
        <ele>4</ele>
        <time>2019-04-24T14:00:45Z</time>
      </trkpt>
      <trkpt lat="43.49531" lon="-1.47688">
        <ele>3.8</ele>
        <time>2019-04-24T14:00:51Z</time>
      </trkpt>
      <trkpt lat="43.49519" lon="-1.4764">
        <ele>2</ele>
        <time>2019-04-24T14:01:03Z</time>
      </trkpt>
      <trkpt lat="43.49501" lon="-1.47602">
        <ele>3.7</ele>
        <time>2019-04-24T14:01:15Z</time>
      </trkpt>
      <trkpt lat="43.49501" lon="-1.47589">
        <ele>3.2</ele>
        <time>2019-04-24T14:02:15Z</time>
      </trkpt>
      <trkpt lat="43.49505" lon="-1.47587">
        <ele>3.1</ele>
        <time>2019-04-24T14:04:27Z</time>
      </trkpt>
      <trkpt lat="43.49492" lon="-1.47576">
        <ele>3</ele>
        <time>2019-04-24T14:05:15Z</time>
      </trkpt>
      <trkpt lat="43.49461" lon="-1.47526">
        <ele>1.8</ele>
        <time>2019-04-24T14:05:33Z</time>
      </trkpt>
      <trkpt lat="43.49424" lon="-1.47491">
        <ele>2</ele>
        <time>2019-04-24T14:05:51Z</time>
      </trkpt>
      <trkpt lat="43.49357" lon="-1.47456">
        <ele>3</ele>
        <time>2019-04-24T14:06:15Z</time>
      </trkpt>
      <trkpt lat="43.49322" lon="-1.47449">
        <ele>4</ele>
        <time>2019-04-24T14:06:27Z</time>
      </trkpt>
      <trkpt lat="43.49254" lon="-1.47445">
        <ele>6</ele>
        <time>2019-04-24T14:07:25Z</time>
      </trkpt>
      <trkpt lat="43.49243" lon="-1.47435">
        <ele>3</ele>
        <time>2019-04-24T14:08:42Z</time>
      </trkpt>
      <trkpt lat="43.49246" lon="-1.47445">
        <ele>6</ele>
        <time>2019-04-24T14:12:55Z</time>
      </trkpt>
      <trkpt lat="43.49206" lon="-1.47438">
        <ele>1</ele>
        <time>2019-04-24T14:13:50Z</time>
      </trkpt>
      <trkpt lat="43.49158" lon="-1.4745">
        <ele>3</ele>
        <time>2019-04-24T14:14:12Z</time>
      </trkpt>
      <trkpt lat="43.49119" lon="-1.47462">
        <ele>3</ele>
        <time>2019-04-24T14:14:35Z</time>
      </trkpt>
      <trkpt lat="43.49105" lon="-1.47483">
        <ele>7</ele>
        <time>2019-04-24T14:14:57Z</time>
      </trkpt>
      <trkpt lat="43.49092" lon="-1.47625">
        <ele>18</ele>
        <time>2019-04-24T14:16:47Z</time>
      </trkpt>
      <trkpt lat="43.49078" lon="-1.47676">
        <ele>20</ele>
        <time>2019-04-24T14:17:31Z</time>
      </trkpt>
      <trkpt lat="43.49076" lon="-1.47712">
        <ele>20</ele>
        <time>2019-04-24T14:19:43Z</time>
      </trkpt>
      <trkpt lat="43.49079" lon="-1.47705">
        <ele>20</ele>
        <time>2019-04-24T14:23:23Z</time>
      </trkpt>
      <trkpt lat="43.49084" lon="-1.47704">
        <ele>20</ele>
        <time>2019-04-24T14:27:47Z</time>
      </trkpt>
      <trkpt lat="43.49082" lon="-1.47701">
        <ele>20</ele>
        <time>2019-04-24T14:30:32Z</time>
      </trkpt>
      <trkpt lat="43.49083" lon="-1.47697">
        <ele>19</ele>
        <time>2019-04-24T14:32:22Z</time>
      </trkpt>
      <trkpt lat="43.49059" lon="-1.47676">
        <ele>20</ele>
        <time>2019-04-24T14:33:17Z</time>
      </trkpt>
      <trkpt lat="43.49052" lon="-1.4765">
        <ele>20</ele>
        <time>2019-04-24T14:33:39Z</time>
      </trkpt>
      <trkpt lat="43.49053" lon="-1.47543">
        <ele>14</ele>
        <time>2019-04-24T14:34:56Z</time>
      </trkpt>
      <trkpt lat="43.49055" lon="-1.47547">
        <ele>14</ele>
        <time>2019-04-24T14:35:18Z</time>
      </trkpt>
      <trkpt lat="43.49055" lon="-1.47567">
        <ele>15</ele>
        <time>2019-04-24T14:35:40Z</time>
      </trkpt>
      <trkpt lat="43.49061" lon="-1.47581">
        <ele>16</ele>
        <time>2019-04-24T14:36:02Z</time>
      </trkpt>
      <trkpt lat="43.49094" lon="-1.47596">
        <ele>18</ele>
        <time>2019-04-24T14:36:46Z</time>
      </trkpt>
      <trkpt lat="43.49147" lon="-1.47648">
        <ele>17</ele>
        <time>2019-04-24T14:37:52Z</time>
      </trkpt>
      <trkpt lat="43.49178" lon="-1.47703">
        <ele>17</ele>
        <time>2019-04-24T14:38:47Z</time>
      </trkpt>
      <trkpt lat="43.49203" lon="-1.47739">
        <ele>16</ele>
        <time>2019-04-24T14:39:31Z</time>
      </trkpt>
      <trkpt lat="43.49271" lon="-1.47878">
        <ele>12</ele>
        <time>2019-04-24T14:40:39Z</time>
      </trkpt>
      <trkpt lat="43.49304" lon="-1.47889">
        <ele>12</ele>
        <time>2019-04-24T14:41:01Z</time>
      </trkpt>
      <trkpt lat="43.49354" lon="-1.47869">
        <ele>11</ele>
        <time>2019-04-24T14:41:24Z</time>
      </trkpt>
      <trkpt lat="43.49386" lon="-1.47849">
        <ele>9</ele>
        <time>2019-04-24T14:41:58Z</time>
      </trkpt>
      <trkpt lat="43.49399" lon="-1.47844">
        <ele>8</ele>
        <time>2019-04-24T14:43:04Z</time>
      </trkpt>
      <trkpt lat="43.49401" lon="-1.47846">
        <ele>8</ele>
        <time>2019-04-24T14:46:11Z</time>
      </trkpt>
      <trkpt lat="43.49402" lon="-1.47841">
        <ele>8</ele>
        <time>2019-04-24T14:48:23Z</time>
      </trkpt>
      <trkpt lat="43.49397" lon="-1.47838">
        <ele>8</ele>
        <time>2019-04-24T14:49:07Z</time>
      </trkpt>
      <trkpt lat="43.49395" lon="-1.47845">
        <ele>8</ele>
        <time>2019-04-24T14:50:57Z</time>
      </trkpt>
      <trkpt lat="43.49397" lon="-1.4784">
        <ele>8</ele>
        <time>2019-04-24T14:52:36Z</time>
      </trkpt>
      <trkpt lat="43.49397" lon="-1.47844">
        <ele>8</ele>
        <time>2019-04-24T14:54:48Z</time>
      </trkpt>
      <trkpt lat="43.494" lon="-1.47845">
        <ele>8</ele>
        <time>2019-04-24T14:56:16Z</time>
      </trkpt>
      <trkpt lat="43.49399" lon="-1.47842">
        <ele>8</ele>
        <time>2019-04-24T14:57:22Z</time>
      </trkpt>
      <trkpt lat="43.49401" lon="-1.47844">
        <ele>8</ele>
        <time>2019-04-24T14:58:17Z</time>
      </trkpt>
      <trkpt lat="43.49403" lon="-1.47838">
        <ele>8</ele>
        <time>2019-04-24T15:01:13Z</time>
      </trkpt>
      <trkpt lat="43.49401" lon="-1.47841">
        <ele>8</ele>
        <time>2019-04-24T15:02:19Z</time>
      </trkpt>
      <trkpt lat="43.49405" lon="-1.47845">
        <ele>8</ele>
        <time>2019-04-24T15:03:14Z</time>
      </trkpt>
      <trkpt lat="43.494" lon="-1.47851">
        <ele>8</ele>
        <time>2019-04-24T15:04:09Z</time>
      </trkpt>
      <trkpt lat="43.49396" lon="-1.47838">
        <ele>8</ele>
        <time>2019-04-24T15:05:04Z</time>
      </trkpt>
      <trkpt lat="43.49409" lon="-1.47829">
        <ele>8</ele>
        <time>2019-04-24T15:05:59Z</time>
      </trkpt>
      <trkpt lat="43.49431" lon="-1.47797">
        <ele>8</ele>
        <time>2019-04-24T15:06:43Z</time>
      </trkpt>
      <trkpt lat="43.49442" lon="-1.47764">
        <ele>8</ele>
        <time>2019-04-24T15:06:59Z</time>
      </trkpt>
      <trkpt lat="43.49426" lon="-1.47723">
        <ele>7</ele>
        <time>2019-04-24T15:07:11Z</time>
      </trkpt>
      <trkpt lat="43.49419" lon="-1.47718">
        <ele>7</ele>
        <time>2019-04-24T15:07:17Z</time>
      </trkpt>
      <trkpt lat="43.49408" lon="-1.47727">
        <ele>8</ele>
        <time>2019-04-24T15:07:29Z</time>
      </trkpt>
      <trkpt lat="43.49401" lon="-1.47727">
        <ele>8</ele>
        <time>2019-04-24T15:07:41Z</time>
      </trkpt>
      <trkpt lat="43.49392" lon="-1.4771">
        <ele>8</ele>
        <time>2019-04-24T15:07:47Z</time>
      </trkpt>
      <trkpt lat="43.49367" lon="-1.47685">
        <ele>10</ele>
        <time>2019-04-24T15:07:59Z</time>
      </trkpt>
      <trkpt lat="43.49348" lon="-1.47649">
        <ele>12</ele>
        <time>2019-04-24T15:08:05Z</time>
      </trkpt>
      <trkpt lat="43.49327" lon="-1.47599">
        <ele>11</ele>
        <time>2019-04-24T15:08:17Z</time>
      </trkpt>
      <trkpt lat="43.49373" lon="-1.47526">
        <ele>5</ele>
        <time>2019-04-24T15:08:41Z</time>
      </trkpt>
      <trkpt lat="43.49377" lon="-1.47489">
        <ele>4</ele>
        <time>2019-04-24T15:08:53Z</time>
      </trkpt>
      <trkpt lat="43.49328" lon="-1.47447">
        <ele>4</ele>
        <time>2019-04-24T15:09:17Z</time>
      </trkpt>
      <trkpt lat="43.49314" lon="-1.47449">
        <ele>4</ele>
        <time>2019-04-24T15:09:23Z</time>
      </trkpt>
      <trkpt lat="43.49257" lon="-1.47446">
        <ele>6</ele>
        <time>2019-04-24T15:09:41Z</time>
      </trkpt>
      <trkpt lat="43.49245" lon="-1.47428">
        <ele>3</ele>
        <time>2019-04-24T15:09:53Z</time>
      </trkpt>
      <trkpt lat="43.49271" lon="-1.47371">
        <ele>4.2</ele>
        <time>2019-04-24T15:10:23Z</time>
      </trkpt>
      <trkpt lat="43.49305" lon="-1.47354">
        <ele>5</ele>
        <time>2019-04-24T15:10:41Z</time>
      </trkpt>
      <trkpt lat="43.49324" lon="-1.47335">
        <ele>5</ele>
        <time>2019-04-24T15:10:53Z</time>
      </trkpt>
      <trkpt lat="43.49323" lon="-1.47325">
        <ele>5</ele>
        <time>2019-04-24T15:11:00Z</time>
      </trkpt>
      <trkpt lat="43.49328" lon="-1.47314">
        <ele>5</ele>
        <time>2019-04-24T15:11:59Z</time>
      </trkpt>
      <trkpt lat="43.49329" lon="-1.47296">
        <ele>4.4</ele>
        <time>2019-04-24T15:12:11Z</time>
      </trkpt>
      <trkpt lat="43.49327" lon="-1.47283">
        <ele>3.6</ele>
        <time>2019-04-24T15:12:17Z</time>
      </trkpt>
      <trkpt lat="43.4932" lon="-1.47273">
        <ele>3.3</ele>
        <time>2019-04-24T15:13:29Z</time>
      </trkpt>
      <trkpt lat="43.4933" lon="-1.47284">
        <ele>3.5</ele>
        <time>2019-04-24T15:13:47Z</time>
      </trkpt>
      <trkpt lat="43.49343" lon="-1.47276">
        <ele>2.9</ele>
        <time>2019-04-24T15:13:53Z</time>
      </trkpt>
      <trkpt lat="43.49379" lon="-1.47235">
        <time>2019-04-24T15:14:11Z</time>
      </trkpt>
      <trkpt lat="43.4951" lon="-1.47072">
        <ele>4</ele>
        <time>2019-04-24T15:15:11Z</time>
      </trkpt>
      <trkpt lat="43.49529" lon="-1.47034">
        <ele>5</ele>
        <time>2019-04-24T15:15:23Z</time>
      </trkpt>
      <trkpt lat="43.49552" lon="-1.47003">
        <ele>4</ele>
        <time>2019-04-24T15:15:35Z</time>
      </trkpt>
      <trkpt lat="43.49566" lon="-1.4701">
        <ele>5</ele>
        <time>2019-04-24T15:15:41Z</time>
      </trkpt>
      <trkpt lat="43.4955" lon="-1.47033">
        <ele>5</ele>
        <time>2019-04-24T15:15:53Z</time>
      </trkpt>
      <trkpt lat="43.49536" lon="-1.47068">
        <ele>5</ele>
        <time>2019-04-24T15:16:18Z</time>
      </trkpt>
      <trkpt lat="43.49543" lon="-1.47112">
        <ele>5</ele>
        <time>2019-04-24T15:16:30Z</time>
      </trkpt>
      <trkpt lat="43.49557" lon="-1.4715">
        <ele>5</ele>
        <time>2019-04-24T15:16:42Z</time>
      </trkpt>
      <trkpt lat="43.49567" lon="-1.47205">
        <ele>5</ele>
        <time>2019-04-24T15:17:00Z</time>
      </trkpt>
      <trkpt lat="43.49592" lon="-1.47282">
        <ele>5</ele>
        <time>2019-04-24T15:17:24Z</time>
      </trkpt>
      <trkpt lat="43.49602" lon="-1.47324">
        <ele>4</ele>
        <time>2019-04-24T15:17:36Z</time>
      </trkpt>
      <trkpt lat="43.49653" lon="-1.47479">
        <ele>5</ele>
        <time>2019-04-24T15:18:12Z</time>
      </trkpt>
      <trkpt lat="43.49665" lon="-1.47547">
        <ele>6</ele>
        <time>2019-04-24T15:18:24Z</time>
      </trkpt>
      <trkpt lat="43.49695" lon="-1.47658">
        <ele>4</ele>
        <time>2019-04-24T15:18:42Z</time>
      </trkpt>
      <trkpt lat="43.49735" lon="-1.47837">
        <ele>1</ele>
        <time>2019-04-24T15:19:12Z</time>
      </trkpt>
      <trkpt lat="43.49782" lon="-1.47974">
        <ele>2</ele>
        <time>2019-04-24T15:19:36Z</time>
      </trkpt>
      <trkpt lat="43.49829" lon="-1.48092">
        <ele>2</ele>
        <time>2019-04-24T15:20:00Z</time>
      </trkpt>
      <trkpt lat="43.499" lon="-1.48227">
        <ele>1</ele>
        <time>2019-04-24T15:20:36Z</time>
      </trkpt>
      <trkpt lat="43.4994" lon="-1.48198">
        <ele>3</ele>
        <time>2019-04-24T15:20:54Z</time>
      </trkpt>
      <trkpt lat="43.4994" lon="-1.48176">
        <ele>3</ele>
        <time>2019-04-24T15:21:12Z</time>
      </trkpt>
      <trkpt lat="43.49949" lon="-1.48117">
        <ele>3</ele>
        <time>2019-04-24T15:21:30Z</time>
      </trkpt>
      <trkpt lat="43.49973" lon="-1.48071">
        <ele>5</ele>
        <time>2019-04-24T15:21:48Z</time>
      </trkpt>
      <trkpt lat="43.49996" lon="-1.48039">
        <ele>6</ele>
        <time>2019-04-24T15:22:12Z</time>
      </trkpt>
      <trkpt lat="43.50113" lon="-1.47926">
        <ele>6</ele>
        <time>2019-04-24T15:23:01Z</time>
      </trkpt>
      <trkpt lat="43.5014" lon="-1.47907">
        <ele>7</ele>
        <time>2019-04-24T15:23:06Z</time>
      </trkpt>
      <trkpt lat="43.50175" lon="-1.47895">
        <ele>9</ele>
        <time>2019-04-24T15:23:18Z</time>
      </trkpt>
      <trkpt lat="43.50174" lon="-1.47908">
        <ele>8</ele>
        <time>2019-04-24T15:23:24Z</time>
      </trkpt>
      <trkpt lat="43.50103" lon="-1.47974">
        <ele>5</ele>
        <time>2019-04-24T15:23:42Z</time>
      </trkpt>
      <trkpt lat="43.50105" lon="-1.47992">
        <ele>5</ele>
        <time>2019-04-24T15:23:48Z</time>
      </trkpt>
      <trkpt lat="43.5015" lon="-1.48063">
        <ele>3</ele>
        <time>2019-04-24T15:24:06Z</time>
      </trkpt>
      <trkpt lat="43.50168" lon="-1.48085">
        <ele>3</ele>
        <time>2019-04-24T15:24:12Z</time>
      </trkpt>
      <trkpt lat="43.50196" lon="-1.48094">
        <ele>4</ele>
        <time>2019-04-24T15:24:30Z</time>
      </trkpt>
      <trkpt lat="43.50201" lon="-1.48113">
        <ele>4</ele>
        <time>2019-04-24T15:24:36Z</time>
      </trkpt>
      <trkpt lat="43.50229" lon="-1.48164">
        <ele>3</ele>
        <time>2019-04-24T15:24:48Z</time>
      </trkpt>
      <trkpt lat="43.50349" lon="-1.48331">
        <ele>2</ele>
        <time>2019-04-24T15:25:30Z</time>
      </trkpt>
      <trkpt lat="43.5039" lon="-1.48381">
        <ele>2</ele>
        <time>2019-04-24T15:25:42Z</time>
      </trkpt>
      <trkpt lat="43.50442" lon="-1.48436">
        <ele>1</ele>
        <time>2019-04-24T15:26:00Z</time>
      </trkpt>
      <trkpt lat="43.50486" lon="-1.48474">
        <ele>1</ele>
        <time>2019-04-24T15:26:12Z</time>
      </trkpt>
      <trkpt lat="43.5054" lon="-1.48511">
        <ele>1</ele>
        <time>2019-04-24T15:26:24Z</time>
      </trkpt>
      <trkpt lat="43.50645" lon="-1.48567">
        <ele>2</ele>
        <time>2019-04-24T15:26:48Z</time>
      </trkpt>
      <trkpt lat="43.50694" lon="-1.48587">
        <ele>3</ele>
        <time>2019-04-24T15:27:00Z</time>
      </trkpt>
      <trkpt lat="43.50738" lon="-1.486">
        <ele>3</ele>
        <time>2019-04-24T15:27:12Z</time>
      </trkpt>
      <trkpt lat="43.50865" lon="-1.48659">
        <ele>3</ele>
        <time>2019-04-24T15:27:54Z</time>
      </trkpt>
      <trkpt lat="43.50939" lon="-1.48689">
        <ele>3</ele>
        <time>2019-04-24T15:28:12Z</time>
      </trkpt>
      <trkpt lat="43.50993" lon="-1.48707">
        <ele>3</ele>
        <time>2019-04-24T15:28:24Z</time>
      </trkpt>
      <trkpt lat="43.51078" lon="-1.48721">
        <ele>3</ele>
        <time>2019-04-24T15:28:42Z</time>
      </trkpt>
      <trkpt lat="43.51104" lon="-1.48722">
        <ele>3</ele>
        <time>2019-04-24T15:28:48Z</time>
      </trkpt>
      <trkpt lat="43.51156" lon="-1.48713">
        <ele>3</ele>
        <time>2019-04-24T15:29:00Z</time>
      </trkpt>
      <trkpt lat="43.51196" lon="-1.48723">
        <ele>3</ele>
        <time>2019-04-24T15:29:12Z</time>
      </trkpt>
      <trkpt lat="43.5134" lon="-1.487">
        <ele>4</ele>
        <time>2019-04-24T15:29:48Z</time>
      </trkpt>
      <trkpt lat="43.51398" lon="-1.48696">
        <ele>4</ele>
        <time>2019-04-24T15:30:00Z</time>
      </trkpt>
      <trkpt lat="43.51491" lon="-1.48671">
        <ele>5</ele>
        <time>2019-04-24T15:30:18Z</time>
      </trkpt>
      <trkpt lat="43.5158" lon="-1.48654">
        <ele>4</ele>
        <time>2019-04-24T15:30:36Z</time>
      </trkpt>
      <trkpt lat="43.5171" lon="-1.48642">
        <ele>5</ele>
        <time>2019-04-24T15:31:06Z</time>
      </trkpt>
      <trkpt lat="43.51756" lon="-1.48645">
        <ele>5</ele>
        <time>2019-04-24T15:31:18Z</time>
      </trkpt>
      <trkpt lat="43.51879" lon="-1.48642">
        <ele>6</ele>
        <time>2019-04-24T15:31:42Z</time>
      </trkpt>
      <trkpt lat="43.51944" lon="-1.48652">
        <ele>6</ele>
        <time>2019-04-24T15:31:54Z</time>
      </trkpt>
      <trkpt lat="43.52084" lon="-1.4874">
        <ele>5</ele>
        <time>2019-04-24T15:32:24Z</time>
      </trkpt>
      <trkpt lat="43.52135" lon="-1.48765">
        <ele>5</ele>
        <time>2019-04-24T15:32:36Z</time>
      </trkpt>
      <trkpt lat="43.52155" lon="-1.48792">
        <ele>5</ele>
        <time>2019-04-24T15:32:42Z</time>
      </trkpt>
      <trkpt lat="43.52198" lon="-1.48882">
        <ele>3</ele>
        <time>2019-04-24T15:33:00Z</time>
      </trkpt>
      <trkpt lat="43.52217" lon="-1.48905">
        <ele>2</ele>
        <time>2019-04-24T15:33:06Z</time>
      </trkpt>
      <trkpt lat="43.52284" lon="-1.48944">
        <ele>4</ele>
        <time>2019-04-24T15:33:24Z</time>
      </trkpt>
      <trkpt lat="43.52345" lon="-1.49004">
        <ele>4</ele>
        <time>2019-04-24T15:33:42Z</time>
      </trkpt>
      <trkpt lat="43.52416" lon="-1.49113">
        <ele>4</ele>
        <time>2019-04-24T15:34:06Z</time>
      </trkpt>
      <trkpt lat="43.52447" lon="-1.49119">
        <ele>5</ele>
        <time>2019-04-24T15:34:12Z</time>
      </trkpt>
      <trkpt lat="43.52508" lon="-1.49148">
        <ele>5</ele>
        <time>2019-04-24T15:34:24Z</time>
      </trkpt>
      <trkpt lat="43.5256" lon="-1.49127">
        <ele>5</ele>
        <time>2019-04-24T15:34:36Z</time>
      </trkpt>
      <trkpt lat="43.52651" lon="-1.49111">
        <ele>5</ele>
        <time>2019-04-24T15:35:00Z</time>
      </trkpt>
      <trkpt lat="43.52697" lon="-1.49086">
        <ele>7</ele>
        <time>2019-04-24T15:35:12Z</time>
      </trkpt>
      <trkpt lat="43.52742" lon="-1.49098">
        <ele>7</ele>
        <time>2019-04-24T15:35:24Z</time>
      </trkpt>
      <trkpt lat="43.528" lon="-1.49103">
        <ele>8</ele>
        <time>2019-04-24T15:35:42Z</time>
      </trkpt>
      <trkpt lat="43.52809" lon="-1.49123">
        <ele>6</ele>
        <time>2019-04-24T15:35:48Z</time>
      </trkpt>
      <trkpt lat="43.52815" lon="-1.49159">
        <ele>5</ele>
        <time>2019-04-24T15:35:54Z</time>
      </trkpt>
      <trkpt lat="43.5283" lon="-1.49203">
        <ele>5</ele>
        <time>2019-04-24T15:36:06Z</time>
      </trkpt>
      <trkpt lat="43.52883" lon="-1.49188">
        <ele>5</ele>
        <time>2019-04-24T15:36:18Z</time>
      </trkpt>
      <trkpt lat="43.52938" lon="-1.49209">
        <ele>5</ele>
        <time>2019-04-24T15:36:30Z</time>
      </trkpt>
      <trkpt lat="43.52991" lon="-1.49218">
        <ele>7</ele>
        <time>2019-04-24T15:36:42Z</time>
      </trkpt>
      <trkpt lat="43.5304" lon="-1.49211">
        <ele>7</ele>
        <time>2019-04-24T15:36:54Z</time>
      </trkpt>
      <trkpt lat="43.53056" lon="-1.49197">
        <ele>8</ele>
        <time>2019-04-24T15:37:00Z</time>
      </trkpt>
      <trkpt lat="43.53081" lon="-1.49149">
        <ele>9</ele>
        <time>2019-04-24T15:37:12Z</time>
      </trkpt>
      <trkpt lat="43.53111" lon="-1.49137">
        <ele>9</ele>
        <time>2019-04-24T15:37:24Z</time>
      </trkpt>
      <trkpt lat="43.53134" lon="-1.49156">
        <ele>9</ele>
        <time>2019-04-24T15:37:36Z</time>
      </trkpt>
      <trkpt lat="43.5314" lon="-1.49182">
        <ele>8</ele>
        <time>2019-04-24T15:37:48Z</time>
      </trkpt>
      <trkpt lat="43.53172" lon="-1.49226">
        <ele>7</ele>
        <time>2019-04-24T15:38:00Z</time>
      </trkpt>
      <trkpt lat="43.53249" lon="-1.49236">
        <ele>6</ele>
        <time>2019-04-24T15:38:12Z</time>
      </trkpt>
      <trkpt lat="43.53283" lon="-1.49276">
        <ele>6</ele>
        <time>2019-04-24T15:38:24Z</time>
      </trkpt>
      <trkpt lat="43.53328" lon="-1.4923">
        <ele>6</ele>
        <time>2019-04-24T15:38:36Z</time>
      </trkpt>
      <trkpt lat="43.53567" lon="-1.49006">
        <ele>6</ele>
        <time>2019-04-24T15:39:24Z</time>
      </trkpt>
      <trkpt lat="43.53585" lon="-1.48979">
        <ele>6</ele>
        <time>2019-04-24T15:39:30Z</time>
      </trkpt>
      <trkpt lat="43.53637" lon="-1.48931">
        <ele>7</ele>
        <time>2019-04-24T15:39:48Z</time>
      </trkpt>
      <trkpt lat="43.53652" lon="-1.48941">
        <ele>7</ele>
        <time>2019-04-24T15:39:54Z</time>
      </trkpt>
      <trkpt lat="43.53681" lon="-1.48995">
        <ele>8</ele>
        <time>2019-04-24T15:40:12Z</time>
      </trkpt>
      <trkpt lat="43.53709" lon="-1.49027">
        <ele>9</ele>
        <time>2019-04-24T15:40:24Z</time>
      </trkpt>
      <trkpt lat="43.5373" lon="-1.49019">
        <ele>9</ele>
        <time>2019-04-24T15:40:30Z</time>
      </trkpt>
      <trkpt lat="43.53806" lon="-1.48955">
        <ele>7</ele>
        <time>2019-04-24T15:40:54Z</time>
      </trkpt>
      <trkpt lat="43.5393" lon="-1.48837">
        <ele>7</ele>
        <time>2019-04-24T15:41:30Z</time>
      </trkpt>
      <trkpt lat="43.53938" lon="-1.48808">
        <ele>8</ele>
        <time>2019-04-24T15:41:36Z</time>
      </trkpt>
      <trkpt lat="43.53911" lon="-1.48752">
        <ele>8</ele>
        <time>2019-04-24T15:41:54Z</time>
      </trkpt>
      <trkpt lat="43.53922" lon="-1.48737">
        <ele>7</ele>
        <time>2019-04-24T15:42:00Z</time>
      </trkpt>
      <trkpt lat="43.53959" lon="-1.48708">
        <ele>8</ele>
        <time>2019-04-24T15:42:12Z</time>
      </trkpt>
      <trkpt lat="43.54016" lon="-1.48645">
        <ele>7</ele>
        <time>2019-04-24T15:42:30Z</time>
      </trkpt>
      <trkpt lat="43.54137" lon="-1.48528">
        <ele>7</ele>
        <time>2019-04-24T15:43:12Z</time>
      </trkpt>
      <trkpt lat="43.54135" lon="-1.48508">
        <ele>7</ele>
        <time>2019-04-24T15:43:18Z</time>
      </trkpt>
      <trkpt lat="43.54105" lon="-1.48449">
        <ele>6</ele>
        <time>2019-04-24T15:43:36Z</time>
      </trkpt>
      <trkpt lat="43.54098" lon="-1.48424">
        <ele>6</ele>
        <time>2019-04-24T15:43:54Z</time>
      </trkpt>
      <trkpt lat="43.54093" lon="-1.48417">
        <ele>6</ele>
        <time>2019-04-24T15:44:12Z</time>
      </trkpt>
      <trkpt lat="43.54098" lon="-1.48404">
        <ele>6</ele>
        <time>2019-04-24T15:44:18Z</time>
      </trkpt>
      <trkpt lat="43.54113" lon="-1.48392">
        <ele>6</ele>
        <time>2019-04-24T15:45:04Z</time>
      </trkpt>
      <trkpt lat="43.54132" lon="-1.48388">
        <ele>6</ele>
        <time>2019-04-24T15:46:27Z</time>
      </trkpt>
      <trkpt lat="43.54128" lon="-1.4839">
        <ele>6</ele>
        <time>2019-04-24T15:47:33Z</time>
      </trkpt>
      <trkpt lat="43.5412" lon="-1.48407">
        <ele>6</ele>
        <time>2019-04-24T15:47:57Z</time>
      </trkpt>
      <trkpt lat="43.54115" lon="-1.4841">
        <ele>6</ele>
        <time>2019-04-24T15:48:15Z</time>
      </trkpt>
      <trkpt lat="43.54113" lon="-1.48405">
        <ele>6</ele>
        <time>2019-04-24T15:51:33Z</time>
      </trkpt>
      <trkpt lat="43.54116" lon="-1.48405">
        <ele>6</ele>
        <time>2019-04-24T15:53:08Z</time>
      </trkpt>
      <trkpt lat="43.54116" lon="-1.48402">
        <ele>6</ele>
        <time>2019-04-24T15:55:20Z</time>
      </trkpt>
      <trkpt lat="43.54115" lon="-1.48405">
        <ele>6</ele>
        <time>2019-04-24T15:55:50Z</time>
      </trkpt>
      <trkpt lat="43.54188" lon="-1.48393">
        <ele>7</ele>
        <time>2019-04-24T15:56:14Z</time>
      </trkpt>
      <trkpt lat="43.54229" lon="-1.484">
        <ele>8</ele>
        <time>2019-04-24T15:56:26Z</time>
      </trkpt>
      <trkpt lat="43.5427" lon="-1.48429">
        <ele>8</ele>
        <time>2019-04-24T15:56:38Z</time>
      </trkpt>
      <trkpt lat="43.54289" lon="-1.48447">
        <ele>8</ele>
        <time>2019-04-24T15:56:44Z</time>
      </trkpt>
      <trkpt lat="43.54731" lon="-1.48804">
        <ele>8</ele>
        <time>2019-04-24T15:58:44Z</time>
      </trkpt>
      <trkpt lat="43.54754" lon="-1.48803">
        <ele>9</ele>
        <time>2019-04-24T15:58:56Z</time>
      </trkpt>
      <trkpt lat="43.54793" lon="-1.48719">
        <ele>9</ele>
        <time>2019-04-24T15:59:14Z</time>
      </trkpt>
      <trkpt lat="43.54879" lon="-1.48517">
        <ele>9</ele>
        <time>2019-04-24T15:59:50Z</time>
      </trkpt>
      <trkpt lat="43.54914" lon="-1.48445">
        <ele>8</ele>
        <time>2019-04-24T16:00:02Z</time>
      </trkpt>
      <trkpt lat="43.54957" lon="-1.48337">
        <ele>7</ele>
        <time>2019-04-24T16:00:20Z</time>
      </trkpt>
      <trkpt lat="43.54988" lon="-1.48268">
        <ele>6</ele>
        <time>2019-04-24T16:00:32Z</time>
      </trkpt>
      <trkpt lat="43.55099" lon="-1.48003">
        <ele>8</ele>
        <time>2019-04-24T16:01:20Z</time>
      </trkpt>
      <trkpt lat="43.55135" lon="-1.47905">
        <ele>8</ele>
        <time>2019-04-24T16:01:38Z</time>
      </trkpt>
      <trkpt lat="43.55176" lon="-1.47772">
        <ele>9</ele>
        <time>2019-04-24T16:02:02Z</time>
      </trkpt>
      <trkpt lat="43.55209" lon="-1.47737">
        <ele>10</ele>
        <time>2019-04-24T16:02:14Z</time>
      </trkpt>
      <trkpt lat="43.55209" lon="-1.4766">
        <ele>11</ele>
        <time>2019-04-24T16:02:26Z</time>
      </trkpt>
      <trkpt lat="43.55218" lon="-1.47593">
        <ele>11</ele>
        <time>2019-04-24T16:02:38Z</time>
      </trkpt>
      <trkpt lat="43.55225" lon="-1.47452">
        <ele>8</ele>
        <time>2019-04-24T16:03:02Z</time>
      </trkpt>
      <trkpt lat="43.5522" lon="-1.47283">
        <ele>8</ele>
        <time>2019-04-24T16:03:44Z</time>
      </trkpt>
      <trkpt lat="43.55231" lon="-1.47118">
        <ele>9</ele>
        <time>2019-04-24T16:04:14Z</time>
      </trkpt>
      <trkpt lat="43.55216" lon="-1.47026">
        <ele>11</ele>
        <time>2019-04-24T16:04:26Z</time>
      </trkpt>
      <trkpt lat="43.55199" lon="-1.47033">
        <ele>13</ele>
        <time>2019-04-24T16:04:32Z</time>
      </trkpt>
      <trkpt lat="43.55201" lon="-1.47067">
        <ele>13</ele>
        <time>2019-04-24T16:04:38Z</time>
      </trkpt>
      <trkpt lat="43.55048" lon="-1.47392">
        <ele>7</ele>
        <time>2019-04-24T16:05:50Z</time>
      </trkpt>
      <trkpt lat="43.55019" lon="-1.47436">
        <ele>7</ele>
        <time>2019-04-24T16:06:02Z</time>
      </trkpt>
      <trkpt lat="43.54968" lon="-1.47486">
        <ele>7</ele>
        <time>2019-04-24T16:06:20Z</time>
      </trkpt>
      <trkpt lat="43.54934" lon="-1.47514">
        <ele>8</ele>
        <time>2019-04-24T16:06:32Z</time>
      </trkpt>
      <trkpt lat="43.54777" lon="-1.47555">
        <ele>13</ele>
        <time>2019-04-24T16:07:20Z</time>
      </trkpt>
      <trkpt lat="43.54721" lon="-1.47578">
        <ele>11</ele>
        <time>2019-04-24T16:07:38Z</time>
      </trkpt>
      <trkpt lat="43.54612" lon="-1.47646">
        <ele>8</ele>
        <time>2019-04-24T16:08:20Z</time>
      </trkpt>
      <trkpt lat="43.54462" lon="-1.47732">
        <ele>7</ele>
        <time>2019-04-24T16:09:14Z</time>
      </trkpt>
      <trkpt lat="43.54443" lon="-1.4774">
        <ele>7</ele>
        <time>2019-04-24T16:09:20Z</time>
      </trkpt>
      <trkpt lat="43.54351" lon="-1.47741">
        <ele>7</ele>
        <time>2019-04-24T16:09:50Z</time>
      </trkpt>
      <trkpt lat="43.54305" lon="-1.47764">
        <ele>8</ele>
        <time>2019-04-24T16:10:08Z</time>
      </trkpt>
      <trkpt lat="43.54215" lon="-1.47803">
        <ele>9</ele>
        <time>2019-04-24T16:10:32Z</time>
      </trkpt>
      <trkpt lat="43.54195" lon="-1.47802">
        <ele>10</ele>
        <time>2019-04-24T16:10:38Z</time>
      </trkpt>
      <trkpt lat="43.54106" lon="-1.47768">
        <ele>10</ele>
        <time>2019-04-24T16:11:08Z</time>
      </trkpt>
      <trkpt lat="43.54046" lon="-1.47685">
        <ele>13</ele>
        <time>2019-04-24T16:11:44Z</time>
      </trkpt>
      <trkpt lat="43.54052" lon="-1.47599">
        <ele>13</ele>
        <time>2019-04-24T16:12:14Z</time>
      </trkpt>
      <trkpt lat="43.54083" lon="-1.47574">
        <ele>13</ele>
        <time>2019-04-24T16:14:50Z</time>
      </trkpt>
      <trkpt lat="43.54085" lon="-1.47576">
        <ele>13</ele>
        <time>2019-04-24T16:14:56Z</time>
      </trkpt>
      <trkpt lat="43.54063" lon="-1.47599">
        <ele>13</ele>
        <time>2019-04-24T16:15:08Z</time>
      </trkpt>
      <trkpt lat="43.54051" lon="-1.4762">
        <ele>13</ele>
        <time>2019-04-24T16:15:14Z</time>
      </trkpt>
      <trkpt lat="43.54047" lon="-1.47639">
        <ele>13</ele>
        <time>2019-04-24T16:15:26Z</time>
      </trkpt>
      <trkpt lat="43.54046" lon="-1.47658">
        <ele>13</ele>
        <time>2019-04-24T16:15:32Z</time>
      </trkpt>
      <trkpt lat="43.5405" lon="-1.47662">
        <ele>13</ele>
        <time>2019-04-24T16:17:44Z</time>
      </trkpt>
      <trkpt lat="43.54056" lon="-1.47682">
        <ele>13</ele>
        <time>2019-04-24T16:18:20Z</time>
      </trkpt>
      <trkpt lat="43.54067" lon="-1.47705">
        <ele>12</ele>
        <time>2019-04-24T16:18:26Z</time>
      </trkpt>
      <trkpt lat="43.54101" lon="-1.47755">
        <ele>11</ele>
        <time>2019-04-24T16:18:38Z</time>
      </trkpt>
      <trkpt lat="43.54122" lon="-1.47773">
        <ele>10</ele>
        <time>2019-04-24T16:18:44Z</time>
      </trkpt>
      <trkpt lat="43.54205" lon="-1.478">
        <ele>10</ele>
        <time>2019-04-24T16:19:02Z</time>
      </trkpt>
      <trkpt lat="43.54284" lon="-1.47771">
        <ele>8</ele>
        <time>2019-04-24T16:19:20Z</time>
      </trkpt>
      <trkpt lat="43.54354" lon="-1.47735">
        <ele>7</ele>
        <time>2019-04-24T16:19:38Z</time>
      </trkpt>
      <trkpt lat="43.54441" lon="-1.47739">
        <ele>7</ele>
        <time>2019-04-24T16:19:56Z</time>
      </trkpt>
      <trkpt lat="43.54717" lon="-1.47578">
        <ele>11</ele>
        <time>2019-04-24T16:21:02Z</time>
      </trkpt>
      <trkpt lat="43.54745" lon="-1.47566">
        <ele>12</ele>
        <time>2019-04-24T16:21:08Z</time>
      </trkpt>
      <trkpt lat="43.54919" lon="-1.47521">
        <ele>8</ele>
        <time>2019-04-24T16:21:44Z</time>
      </trkpt>
      <trkpt lat="43.54946" lon="-1.47505">
        <ele>8</ele>
        <time>2019-04-24T16:21:50Z</time>
      </trkpt>
      <trkpt lat="43.55028" lon="-1.47427">
        <ele>7</ele>
        <time>2019-04-24T16:22:14Z</time>
      </trkpt>
      <trkpt lat="43.55012" lon="-1.47385">
        <ele>9</ele>
        <time>2019-04-24T16:22:26Z</time>
      </trkpt>
      <trkpt lat="43.54976" lon="-1.47354">
        <ele>12</ele>
        <time>2019-04-24T16:22:38Z</time>
      </trkpt>
      <trkpt lat="43.54957" lon="-1.47357">
        <ele>12</ele>
        <time>2019-04-24T16:22:44Z</time>
      </trkpt>
      <trkpt lat="43.54905" lon="-1.47395">
        <ele>13</ele>
        <time>2019-04-24T16:23:14Z</time>
      </trkpt>
      <trkpt lat="43.54877" lon="-1.47404">
        <ele>18</ele>
        <time>2019-04-24T16:23:32Z</time>
      </trkpt>
      <trkpt lat="43.54847" lon="-1.47406">
        <ele>19</ele>
        <time>2019-04-24T16:23:50Z</time>
      </trkpt>
      <trkpt lat="43.54831" lon="-1.47397">
        <ele>22</ele>
        <time>2019-04-24T16:24:02Z</time>
      </trkpt>
      <trkpt lat="43.54808" lon="-1.47374">
        <ele>24</ele>
        <time>2019-04-24T16:24:20Z</time>
      </trkpt>
      <trkpt lat="43.54801" lon="-1.47353">
        <ele>25</ele>
        <time>2019-04-24T16:24:32Z</time>
      </trkpt>
      <trkpt lat="43.54776" lon="-1.47307">
        <ele>27</ele>
        <time>2019-04-24T16:24:56Z</time>
      </trkpt>
      <trkpt lat="43.54772" lon="-1.4728">
        <ele>28</ele>
        <time>2019-04-24T16:25:08Z</time>
      </trkpt>
      <trkpt lat="43.54829" lon="-1.47246">
        <ele>29</ele>
        <time>2019-04-24T16:26:08Z</time>
      </trkpt>
      <trkpt lat="43.54835" lon="-1.47257">
        <ele>28</ele>
        <time>2019-04-24T16:26:20Z</time>
      </trkpt>
      <trkpt lat="43.54839" lon="-1.47257">
        <ele>28</ele>
        <time>2019-04-24T16:26:38Z</time>
      </trkpt>
      <trkpt lat="43.54839" lon="-1.47269">
        <ele>27</ele>
        <time>2019-04-24T16:26:50Z</time>
      </trkpt>
      <trkpt lat="43.54845" lon="-1.47273">
        <ele>27</ele>
        <time>2019-04-24T16:27:02Z</time>
      </trkpt>
      <trkpt lat="43.54849" lon="-1.47288">
        <ele>26</ele>
        <time>2019-04-24T16:28:44Z</time>
      </trkpt>
      <trkpt lat="43.54856" lon="-1.47293">
        <ele>25</ele>
        <time>2019-04-24T16:34:14Z</time>
      </trkpt>
      <trkpt lat="43.54852" lon="-1.47289">
        <ele>26</ele>
        <time>2019-04-24T16:35:44Z</time>
      </trkpt>
      <trkpt lat="43.5485" lon="-1.47293">
        <ele>26</ele>
        <time>2019-04-24T16:36:20Z</time>
      </trkpt>
      <trkpt lat="43.54853" lon="-1.47292">
        <ele>26</ele>
        <time>2019-04-24T16:36:32Z</time>
      </trkpt>
      <trkpt lat="43.54853" lon="-1.47294">
        <ele>26</ele>
        <time>2019-04-24T16:36:44Z</time>
      </trkpt>
      <trkpt lat="43.54848" lon="-1.47291">
        <ele>26</ele>
        <time>2019-04-24T16:40:44Z</time>
      </trkpt>
      <trkpt lat="43.54847" lon="-1.47297">
        <ele>26</ele>
        <time>2019-04-24T16:41:38Z</time>
      </trkpt>
      <trkpt lat="43.54847" lon="-1.47294">
        <ele>26</ele>
        <time>2019-04-24T16:42:56Z</time>
      </trkpt>
      <trkpt lat="43.54851" lon="-1.47299">
        <ele>26</ele>
        <time>2019-04-24T16:45:38Z</time>
      </trkpt>
      <trkpt lat="43.54839" lon="-1.47296">
        <ele>26</ele>
        <time>2019-04-24T16:49:56Z</time>
      </trkpt>
      <trkpt lat="43.54842" lon="-1.47296">
        <ele>26</ele>
        <time>2019-04-24T16:51:38Z</time>
      </trkpt>
      <trkpt lat="43.54842" lon="-1.47299">
        <ele>26</ele>
        <time>2019-04-24T16:52:56Z</time>
      </trkpt>
      <trkpt lat="43.54845" lon="-1.47296">
        <ele>26</ele>
        <time>2019-04-24T16:54:56Z</time>
      </trkpt>
      <trkpt lat="43.54842" lon="-1.47297">
        <ele>26</ele>
        <time>2019-04-24T16:57:38Z</time>
      </trkpt>
      <trkpt lat="43.54839" lon="-1.47305">
        <ele>26</ele>
        <time>2019-04-24T17:06:01Z</time>
      </trkpt>
      <trkpt lat="43.54843" lon="-1.473">
        <ele>26</ele>
        <time>2019-04-24T17:08:43Z</time>
      </trkpt>
      <trkpt lat="43.54841" lon="-1.47292">
        <ele>26</ele>
        <time>2019-04-24T17:10:43Z</time>
      </trkpt>
      <trkpt lat="43.54845" lon="-1.47294">
        <ele>26</ele>
        <time>2019-04-24T17:11:43Z</time>
      </trkpt>
      <trkpt lat="43.54839" lon="-1.47303">
        <ele>26</ele>
        <time>2019-04-24T17:21:01Z</time>
      </trkpt>
      <trkpt lat="43.54838" lon="-1.473">
        <ele>26</ele>
        <time>2019-04-24T17:22:12Z</time>
      </trkpt>
      <trkpt lat="43.54842" lon="-1.47301">
        <ele>26</ele>
        <time>2019-04-24T17:26:30Z</time>
      </trkpt>
      <trkpt lat="43.5484" lon="-1.47302">
        <ele>26</ele>
        <time>2019-04-24T17:27:36Z</time>
      </trkpt>
      <trkpt lat="43.5484" lon="-1.47299">
        <ele>26</ele>
        <time>2019-04-24T17:29:36Z</time>
      </trkpt>
      <trkpt lat="43.54843" lon="-1.47303">
        <ele>26</ele>
        <time>2019-04-24T17:31:54Z</time>
      </trkpt>
      <trkpt lat="43.5484" lon="-1.47301">
        <ele>26</ele>
        <time>2019-04-24T17:32:54Z</time>
      </trkpt>
      <trkpt lat="43.54843" lon="-1.47296">
        <ele>26</ele>
        <time>2019-04-24T17:34:24Z</time>
      </trkpt>
      <trkpt lat="43.5484" lon="-1.47304">
        <ele>26</ele>
        <time>2019-04-24T17:38:06Z</time>
      </trkpt>
      <trkpt lat="43.54851" lon="-1.47303">
        <ele>25</ele>
        <time>2019-04-24T17:42:47Z</time>
      </trkpt>
      <trkpt lat="43.54843" lon="-1.47304">
        <ele>25</ele>
        <time>2019-04-24T17:46:17Z</time>
      </trkpt>
      <trkpt lat="43.54838" lon="-1.47291">
        <ele>26</ele>
        <time>2019-04-24T17:50:35Z</time>
      </trkpt>
      <trkpt lat="43.5484" lon="-1.47284">
        <ele>27</ele>
        <time>2019-04-24T17:51:42Z</time>
      </trkpt>
      <trkpt lat="43.5484" lon="-1.47289">
        <ele>26</ele>
        <time>2019-04-24T17:52:47Z</time>
      </trkpt>
      <trkpt lat="43.54838" lon="-1.47286">
        <ele>26</ele>
        <time>2019-04-24T17:54:29Z</time>
      </trkpt>
      <trkpt lat="43.54842" lon="-1.47291">
        <ele>26</ele>
        <time>2019-04-24T17:55:29Z</time>
      </trkpt>
      <trkpt lat="43.54839" lon="-1.47281">
        <ele>27</ele>
        <time>2019-04-25T06:06:57Z</time>
      </trkpt>
      <trkpt lat="43.54846" lon="-1.47292">
        <ele>26</ele>
        <time>2019-04-25T06:07:27Z</time>
      </trkpt>
      <trkpt lat="43.54843" lon="-1.47299">
        <ele>26</ele>
        <time>2019-04-25T06:08:21Z</time>
      </trkpt>
      <trkpt lat="43.54841" lon="-1.47294">
        <ele>26</ele>
        <time>2019-04-25T06:09:45Z</time>
      </trkpt>
      <trkpt lat="43.54847" lon="-1.47293">
        <ele>26</ele>
        <time>2019-04-25T06:11:27Z</time>
      </trkpt>
      <trkpt lat="43.54852" lon="-1.47297">
        <ele>26</ele>
        <time>2019-04-25T06:11:57Z</time>
      </trkpt>
      <trkpt lat="43.54858" lon="-1.47287">
        <ele>25</ele>
        <time>2019-04-25T06:12:15Z</time>
      </trkpt>
      <trkpt lat="43.54856" lon="-1.47293">
        <ele>25</ele>
        <time>2019-04-25T06:12:39Z</time>
      </trkpt>
      <trkpt lat="43.54841" lon="-1.47302">
        <ele>26</ele>
        <time>2019-04-25T06:12:51Z</time>
      </trkpt>
      <trkpt lat="43.54844" lon="-1.47293">
        <ele>26</ele>
        <time>2019-04-25T06:14:15Z</time>
      </trkpt>
      <trkpt lat="43.54846" lon="-1.47298">
        <ele>26</ele>
        <time>2019-04-25T06:14:45Z</time>
      </trkpt>
      <trkpt lat="43.54852" lon="-1.47296">
        <ele>26</ele>
        <time>2019-04-25T06:18:51Z</time>
      </trkpt>
      <trkpt lat="43.54852" lon="-1.4729">
        <ele>26</ele>
        <time>2019-04-25T06:19:27Z</time>
      </trkpt>
      <trkpt lat="43.54846" lon="-1.47294">
        <ele>26</ele>
        <time>2019-04-25T06:21:33Z</time>
      </trkpt>
      <trkpt lat="43.5485" lon="-1.47294">
        <ele>26</ele>
        <time>2019-04-25T06:21:57Z</time>
      </trkpt>
      <trkpt lat="43.54849" lon="-1.47289">
        <ele>26</ele>
        <time>2019-04-25T06:22:15Z</time>
      </trkpt>
      <trkpt lat="43.54849" lon="-1.47294">
        <ele>26</ele>
        <time>2019-04-25T06:22:45Z</time>
      </trkpt>
      <trkpt lat="43.54855" lon="-1.47296">
        <ele>25</ele>
        <time>2019-04-25T06:23:15Z</time>
      </trkpt>
      <trkpt lat="43.54847" lon="-1.47294">
        <ele>26</ele>
        <time>2019-04-25T06:28:46Z</time>
      </trkpt>
      <trkpt lat="43.54854" lon="-1.47289">
        <ele>26</ele>
        <time>2019-04-25T06:35:23Z</time>
      </trkpt>
      <trkpt lat="43.54847" lon="-1.473">
        <ele>26</ele>
        <time>2019-04-25T06:36:53Z</time>
      </trkpt>
      <trkpt lat="43.54847" lon="-1.47296">
        <ele>26</ele>
        <time>2019-04-25T06:37:47Z</time>
      </trkpt>
      <trkpt lat="43.54843" lon="-1.47297">
        <ele>26</ele>
        <time>2019-04-25T06:38:23Z</time>
      </trkpt>
      <trkpt lat="43.54842" lon="-1.47287">
        <ele>26</ele>
        <time>2019-04-25T06:39:11Z</time>
      </trkpt>
      <trkpt lat="43.54828" lon="-1.4726">
        <ele>28</ele>
        <time>2019-04-25T06:39:29Z</time>
      </trkpt>
      <trkpt lat="43.54797" lon="-1.47272">
        <ele>28</ele>
        <time>2019-04-25T06:39:41Z</time>
      </trkpt>
      <trkpt lat="43.54772" lon="-1.47291">
        <ele>27</ele>
        <time>2019-04-25T06:39:53Z</time>
      </trkpt>
      <trkpt lat="43.54797" lon="-1.47347">
        <ele>26</ele>
        <time>2019-04-25T06:40:05Z</time>
      </trkpt>
      <trkpt lat="43.54838" lon="-1.474">
        <ele>20</ele>
        <time>2019-04-25T06:40:17Z</time>
      </trkpt>
      <trkpt lat="43.54876" lon="-1.47395">
        <ele>18</ele>
        <time>2019-04-25T06:40:23Z</time>
      </trkpt>
      <trkpt lat="43.54966" lon="-1.47349">
        <ele>13</ele>
        <time>2019-04-25T06:40:35Z</time>
      </trkpt>
      <trkpt lat="43.55011" lon="-1.47372">
        <ele>9</ele>
        <time>2019-04-25T06:40:41Z</time>
      </trkpt>
      <trkpt lat="43.55035" lon="-1.47408">
        <ele>7</ele>
        <time>2019-04-25T06:41:41Z</time>
      </trkpt>
      <trkpt lat="43.55057" lon="-1.4737">
        <ele>7</ele>
        <time>2019-04-25T06:41:53Z</time>
      </trkpt>
      <trkpt lat="43.55186" lon="-1.47094">
        <ele>12</ele>
        <time>2019-04-25T06:42:53Z</time>
      </trkpt>
      <trkpt lat="43.55185" lon="-1.47045">
        <ele>14</ele>
        <time>2019-04-25T06:43:05Z</time>
      </trkpt>
      <trkpt lat="43.55195" lon="-1.46995">
        <ele>16</ele>
        <time>2019-04-25T06:43:17Z</time>
      </trkpt>
      <trkpt lat="43.55206" lon="-1.46975">
        <ele>13</ele>
        <time>2019-04-25T06:43:23Z</time>
      </trkpt>
      <trkpt lat="43.55242" lon="-1.46984">
        <ele>10</ele>
        <time>2019-04-25T06:43:35Z</time>
      </trkpt>
      <trkpt lat="43.55237" lon="-1.47043">
        <ele>10</ele>
        <time>2019-04-25T06:43:47Z</time>
      </trkpt>
      <trkpt lat="43.55248" lon="-1.47186">
        <ele>8</ele>
        <time>2019-04-25T06:44:23Z</time>
      </trkpt>
      <trkpt lat="43.55245" lon="-1.47231">
        <ele>8</ele>
        <time>2019-04-25T06:44:35Z</time>
      </trkpt>
      <trkpt lat="43.55235" lon="-1.47282">
        <ele>8</ele>
        <time>2019-04-25T06:44:47Z</time>
      </trkpt>
      <trkpt lat="43.55238" lon="-1.47351">
        <ele>7</ele>
        <time>2019-04-25T06:44:59Z</time>
      </trkpt>
      <trkpt lat="43.55231" lon="-1.47505">
        <ele>10</ele>
        <time>2019-04-25T06:45:17Z</time>
      </trkpt>
      <trkpt lat="43.55222" lon="-1.47605">
        <ele>11</ele>
        <time>2019-04-25T06:45:29Z</time>
      </trkpt>
      <trkpt lat="43.55223" lon="-1.47696">
        <ele>11</ele>
        <time>2019-04-25T06:45:41Z</time>
      </trkpt>
      <trkpt lat="43.55251" lon="-1.47724">
        <ele>11</ele>
        <time>2019-04-25T06:45:53Z</time>
      </trkpt>
      <trkpt lat="43.55235" lon="-1.47641">
        <ele>12</ele>
        <time>2019-04-25T06:46:11Z</time>
      </trkpt>
      <trkpt lat="43.55255" lon="-1.47626">
        <ele>12</ele>
        <time>2019-04-25T06:46:23Z</time>
      </trkpt>
      <trkpt lat="43.55282" lon="-1.47635">
        <ele>13</ele>
        <time>2019-04-25T06:46:35Z</time>
      </trkpt>
      <trkpt lat="43.5532" lon="-1.47686">
        <ele>14</ele>
        <time>2019-04-25T06:47:05Z</time>
      </trkpt>
      <trkpt lat="43.55371" lon="-1.47802">
        <ele>13</ele>
        <time>2019-04-25T06:47:41Z</time>
      </trkpt>
      <trkpt lat="43.55393" lon="-1.47843">
        <ele>13</ele>
        <time>2019-04-25T06:47:53Z</time>
      </trkpt>
      <trkpt lat="43.55403" lon="-1.47866">
        <ele>12</ele>
        <time>2019-04-25T06:47:59Z</time>
      </trkpt>
      <trkpt lat="43.55413" lon="-1.47905">
        <ele>14</ele>
        <time>2019-04-25T06:48:11Z</time>
      </trkpt>
      <trkpt lat="43.55425" lon="-1.47922">
        <ele>14</ele>
        <time>2019-04-25T06:48:17Z</time>
      </trkpt>
      <trkpt lat="43.55441" lon="-1.47969">
        <ele>13</ele>
        <time>2019-04-25T06:48:29Z</time>
      </trkpt>
      <trkpt lat="43.55476" lon="-1.48029">
        <ele>14</ele>
        <time>2019-04-25T06:48:47Z</time>
      </trkpt>
      <trkpt lat="43.55481" lon="-1.48073">
        <ele>13</ele>
        <time>2019-04-25T06:48:59Z</time>
      </trkpt>
      <trkpt lat="43.55523" lon="-1.48169">
        <ele>12</ele>
        <time>2019-04-25T06:49:17Z</time>
      </trkpt>
      <trkpt lat="43.55537" lon="-1.48237">
        <ele>9</ele>
        <time>2019-04-25T06:49:29Z</time>
      </trkpt>
      <trkpt lat="43.55544" lon="-1.48298">
        <ele>10</ele>
        <time>2019-04-25T06:49:41Z</time>
      </trkpt>
      <trkpt lat="43.55568" lon="-1.48346">
        <ele>9</ele>
        <time>2019-04-25T06:49:53Z</time>
      </trkpt>
      <trkpt lat="43.55613" lon="-1.48459">
        <ele>13</ele>
        <time>2019-04-25T06:50:17Z</time>
      </trkpt>
      <trkpt lat="43.55627" lon="-1.48529">
        <ele>14</ele>
        <time>2019-04-25T06:50:29Z</time>
      </trkpt>
      <trkpt lat="43.55681" lon="-1.48581">
        <ele>14</ele>
        <time>2019-04-25T06:50:53Z</time>
      </trkpt>
      <trkpt lat="43.55713" lon="-1.48604">
        <ele>14</ele>
        <time>2019-04-25T06:50:59Z</time>
      </trkpt>
      <trkpt lat="43.5574" lon="-1.48632">
        <ele>14</ele>
        <time>2019-04-25T06:51:11Z</time>
      </trkpt>
      <trkpt lat="43.55742" lon="-1.48682">
        <ele>15</ele>
        <time>2019-04-25T06:51:23Z</time>
      </trkpt>
      <trkpt lat="43.5576" lon="-1.48736">
        <ele>14</ele>
        <time>2019-04-25T06:51:35Z</time>
      </trkpt>
      <trkpt lat="43.55771" lon="-1.48791">
        <ele>13</ele>
        <time>2019-04-25T06:51:47Z</time>
      </trkpt>
      <trkpt lat="43.55787" lon="-1.48842">
        <ele>12</ele>
        <time>2019-04-25T06:51:59Z</time>
      </trkpt>
      <trkpt lat="43.55816" lon="-1.48908">
        <ele>11</ele>
        <time>2019-04-25T06:52:17Z</time>
      </trkpt>
      <trkpt lat="43.55838" lon="-1.48986">
        <ele>10</ele>
        <time>2019-04-25T06:53:23Z</time>
      </trkpt>
      <trkpt lat="43.55836" lon="-1.48994">
        <ele>10</ele>
        <time>2019-04-25T06:54:05Z</time>
      </trkpt>
      <trkpt lat="43.55832" lon="-1.4899">
        <ele>10</ele>
        <time>2019-04-25T06:54:17Z</time>
      </trkpt>
      <trkpt lat="43.55869" lon="-1.49078">
        <ele>9</ele>
        <time>2019-04-25T06:54:53Z</time>
      </trkpt>
      <trkpt lat="43.55913" lon="-1.49221">
        <ele>8</ele>
        <time>2019-04-25T06:55:23Z</time>
      </trkpt>
      <trkpt lat="43.5594" lon="-1.49269">
        <ele>7</ele>
        <time>2019-04-25T06:55:35Z</time>
      </trkpt>
      <trkpt lat="43.5596" lon="-1.49338">
        <ele>8</ele>
        <time>2019-04-25T06:55:53Z</time>
      </trkpt>
      <trkpt lat="43.55974" lon="-1.49358">
        <ele>9</ele>
        <time>2019-04-25T06:55:59Z</time>
      </trkpt>
      <trkpt lat="43.56014" lon="-1.49392">
        <ele>10</ele>
        <time>2019-04-25T06:56:11Z</time>
      </trkpt>
      <trkpt lat="43.56024" lon="-1.49442">
        <ele>9</ele>
        <time>2019-04-25T06:56:23Z</time>
      </trkpt>
      <trkpt lat="43.5602" lon="-1.49494">
        <ele>7</ele>
        <time>2019-04-25T06:56:35Z</time>
      </trkpt>
      <trkpt lat="43.55912" lon="-1.49563">
        <ele>8</ele>
        <time>2019-04-25T06:57:11Z</time>
      </trkpt>
      <trkpt lat="43.55856" lon="-1.49614">
        <ele>7</ele>
        <time>2019-04-25T06:57:29Z</time>
      </trkpt>
      <trkpt lat="43.55781" lon="-1.49661">
        <ele>6</ele>
        <time>2019-04-25T06:57:53Z</time>
      </trkpt>
      <trkpt lat="43.55773" lon="-1.49685">
        <ele>6</ele>
        <time>2019-04-25T06:58:11Z</time>
      </trkpt>
      <trkpt lat="43.5577" lon="-1.49684">
        <ele>6</ele>
        <time>2019-04-25T06:58:23Z</time>
      </trkpt>
      <trkpt lat="43.5577" lon="-1.49675">
        <ele>6</ele>
        <time>2019-04-25T06:58:35Z</time>
      </trkpt>
      <trkpt lat="43.55803" lon="-1.49637">
        <ele>6</ele>
        <time>2019-04-25T06:59:23Z</time>
      </trkpt>
      <trkpt lat="43.5589" lon="-1.49558">
        <ele>8</ele>
        <time>2019-04-25T06:59:59Z</time>
      </trkpt>
      <trkpt lat="43.55947" lon="-1.49534">
        <ele>8</ele>
        <time>2019-04-25T07:00:11Z</time>
      </trkpt>
      <trkpt lat="43.56014" lon="-1.4949">
        <ele>7</ele>
        <time>2019-04-25T07:00:29Z</time>
      </trkpt>
      <trkpt lat="43.56025" lon="-1.49469">
        <ele>8</ele>
        <time>2019-04-25T07:00:35Z</time>
      </trkpt>
      <trkpt lat="43.56014" lon="-1.49409">
        <ele>10</ele>
        <time>2019-04-25T07:00:47Z</time>
      </trkpt>
      <trkpt lat="43.5598" lon="-1.49379">
        <ele>9</ele>
        <time>2019-04-25T07:00:59Z</time>
      </trkpt>
      <trkpt lat="43.5595" lon="-1.49334">
        <ele>8</ele>
        <time>2019-04-25T07:01:11Z</time>
      </trkpt>
      <trkpt lat="43.55919" lon="-1.4922">
        <ele>8</ele>
        <time>2019-04-25T07:01:41Z</time>
      </trkpt>
      <trkpt lat="43.55863" lon="-1.49065">
        <ele>9</ele>
        <time>2019-04-25T07:02:11Z</time>
      </trkpt>
      <trkpt lat="43.55822" lon="-1.48967">
        <ele>11</ele>
        <time>2019-04-25T07:02:35Z</time>
      </trkpt>
      <trkpt lat="43.55794" lon="-1.48873">
        <ele>12</ele>
        <time>2019-04-25T07:02:59Z</time>
      </trkpt>
      <trkpt lat="43.55745" lon="-1.48748">
        <ele>14</ele>
        <time>2019-04-25T07:03:29Z</time>
      </trkpt>
      <trkpt lat="43.55738" lon="-1.48717">
        <ele>14</ele>
        <time>2019-04-25T07:03:35Z</time>
      </trkpt>
      <trkpt lat="43.55737" lon="-1.48653">
        <ele>14</ele>
        <time>2019-04-25T07:03:47Z</time>
      </trkpt>
      <trkpt lat="43.55725" lon="-1.48637">
        <ele>14</ele>
        <time>2019-04-25T07:03:53Z</time>
      </trkpt>
      <trkpt lat="43.55667" lon="-1.48595">
        <ele>15</ele>
        <time>2019-04-25T07:04:11Z</time>
      </trkpt>
      <trkpt lat="43.55617" lon="-1.48551">
        <ele>15</ele>
        <time>2019-04-25T07:04:23Z</time>
      </trkpt>
      <trkpt lat="43.55594" lon="-1.48433">
        <ele>12</ele>
        <time>2019-04-25T07:04:47Z</time>
      </trkpt>
      <trkpt lat="43.55584" lon="-1.4841">
        <ele>11</ele>
        <time>2019-04-25T07:04:53Z</time>
      </trkpt>
      <trkpt lat="43.5556" lon="-1.48371">
        <ele>11</ele>
        <time>2019-04-25T07:05:05Z</time>
      </trkpt>
      <trkpt lat="43.55533" lon="-1.48302">
        <ele>10</ele>
        <time>2019-04-25T07:05:23Z</time>
      </trkpt>
      <trkpt lat="43.55525" lon="-1.48229">
        <ele>13</ele>
        <time>2019-04-25T07:05:41Z</time>
      </trkpt>
      <trkpt lat="43.55515" lon="-1.48205">
        <ele>13</ele>
        <time>2019-04-25T07:05:47Z</time>
      </trkpt>
      <trkpt lat="43.55507" lon="-1.48137">
        <ele>12</ele>
        <time>2019-04-25T07:05:59Z</time>
      </trkpt>
      <trkpt lat="43.55495" lon="-1.48091">
        <ele>14</ele>
        <time>2019-04-25T07:06:11Z</time>
      </trkpt>
      <trkpt lat="43.55475" lon="-1.48042">
        <ele>14</ele>
        <time>2019-04-25T07:06:23Z</time>
      </trkpt>
      <trkpt lat="43.55429" lon="-1.47965">
        <ele>13</ele>
        <time>2019-04-25T07:06:41Z</time>
      </trkpt>
      <trkpt lat="43.55415" lon="-1.47917">
        <ele>14</ele>
        <time>2019-04-25T07:06:53Z</time>
      </trkpt>
      <trkpt lat="43.55379" lon="-1.47844">
        <ele>13</ele>
        <time>2019-04-25T07:07:11Z</time>
      </trkpt>
      <trkpt lat="43.55365" lon="-1.478">
        <ele>13</ele>
        <time>2019-04-25T07:07:23Z</time>
      </trkpt>
      <trkpt lat="43.5534" lon="-1.47754">
        <ele>14</ele>
        <time>2019-04-25T07:07:35Z</time>
      </trkpt>
      <trkpt lat="43.55289" lon="-1.47681">
        <ele>14</ele>
        <time>2019-04-25T07:07:59Z</time>
      </trkpt>
      <trkpt lat="43.55243" lon="-1.47643">
        <ele>12</ele>
        <time>2019-04-25T07:08:17Z</time>
      </trkpt>
      <trkpt lat="43.55237" lon="-1.47627">
        <ele>12</ele>
        <time>2019-04-25T07:08:23Z</time>
      </trkpt>
      <trkpt lat="43.55229" lon="-1.47618">
        <ele>12</ele>
        <time>2019-04-25T07:08:35Z</time>
      </trkpt>
      <trkpt lat="43.5523" lon="-1.47569">
        <ele>12</ele>
        <time>2019-04-25T07:08:53Z</time>
      </trkpt>
      <trkpt lat="43.55238" lon="-1.47479">
        <ele>9</ele>
        <time>2019-04-25T07:09:11Z</time>
      </trkpt>
      <trkpt lat="43.55238" lon="-1.47396">
        <ele>7</ele>
        <time>2019-04-25T07:09:29Z</time>
      </trkpt>
      <trkpt lat="43.55249" lon="-1.47304">
        <ele>8</ele>
        <time>2019-04-25T07:09:41Z</time>
      </trkpt>
      <trkpt lat="43.55293" lon="-1.4723">
        <ele>7</ele>
        <time>2019-04-25T07:09:53Z</time>
      </trkpt>
      <trkpt lat="43.55399" lon="-1.47116">
        <ele>10</ele>
        <time>2019-04-25T07:10:23Z</time>
      </trkpt>
      <trkpt lat="43.55441" lon="-1.47075">
        <ele>8</ele>
        <time>2019-04-25T07:10:41Z</time>
      </trkpt>
      <trkpt lat="43.55465" lon="-1.47056">
        <ele>10</ele>
        <time>2019-04-25T07:10:53Z</time>
      </trkpt>
      <trkpt lat="43.55467" lon="-1.4706">
        <ele>10</ele>
        <time>2019-04-25T07:12:29Z</time>
      </trkpt>
      <trkpt lat="43.55475" lon="-1.47054">
        <ele>10</ele>
        <time>2019-04-25T07:12:41Z</time>
      </trkpt>
      <trkpt lat="43.55606" lon="-1.4693">
        <ele>5</ele>
        <time>2019-04-25T07:13:17Z</time>
      </trkpt>
      <trkpt lat="43.5568" lon="-1.46855">
        <ele>11</ele>
        <time>2019-04-25T07:13:35Z</time>
      </trkpt>
      <trkpt lat="43.5581" lon="-1.46736">
        <ele>9</ele>
        <time>2019-04-25T07:14:05Z</time>
      </trkpt>
      <trkpt lat="43.55908" lon="-1.46637">
        <ele>10</ele>
        <time>2019-04-25T07:14:29Z</time>
      </trkpt>
      <trkpt lat="43.55956" lon="-1.46596">
        <ele>10</ele>
        <time>2019-04-25T07:14:47Z</time>
      </trkpt>
      <trkpt lat="43.55965" lon="-1.46604">
        <ele>13</ele>
        <time>2019-04-25T07:15:17Z</time>
      </trkpt>
      <trkpt lat="43.55997" lon="-1.46704">
        <ele>12</ele>
        <time>2019-04-25T07:16:05Z</time>
      </trkpt>
      <trkpt lat="43.56027" lon="-1.46773">
        <ele>12</ele>
        <time>2019-04-25T07:16:29Z</time>
      </trkpt>
      <trkpt lat="43.56038" lon="-1.46789">
        <ele>12</ele>
        <time>2019-04-25T07:16:35Z</time>
      </trkpt>
      <trkpt lat="43.56061" lon="-1.46797">
        <ele>14</ele>
        <time>2019-04-25T07:16:47Z</time>
      </trkpt>
      <trkpt lat="43.56122" lon="-1.46774">
        <ele>15</ele>
        <time>2019-04-25T07:17:05Z</time>
      </trkpt>
      <trkpt lat="43.5619" lon="-1.46735">
        <ele>14</ele>
        <time>2019-04-25T07:17:23Z</time>
      </trkpt>
      <trkpt lat="43.56227" lon="-1.46706">
        <ele>14</ele>
        <time>2019-04-25T07:17:35Z</time>
      </trkpt>
      <trkpt lat="43.56249" lon="-1.46699">
        <ele>15</ele>
        <time>2019-04-25T07:17:41Z</time>
      </trkpt>
      <trkpt lat="43.56368" lon="-1.46632">
        <ele>15</ele>
        <time>2019-04-25T07:18:17Z</time>
      </trkpt>
      <trkpt lat="43.56408" lon="-1.46604">
        <ele>15</ele>
        <time>2019-04-25T07:18:29Z</time>
      </trkpt>
      <trkpt lat="43.56477" lon="-1.46571">
        <ele>15</ele>
        <time>2019-04-25T07:18:47Z</time>
      </trkpt>
      <trkpt lat="43.56492" lon="-1.46595">
        <ele>15</ele>
        <time>2019-04-25T07:18:53Z</time>
      </trkpt>
      <trkpt lat="43.56535" lon="-1.46714">
        <ele>14</ele>
        <time>2019-04-25T07:19:23Z</time>
      </trkpt>
      <trkpt lat="43.56561" lon="-1.46768">
        <ele>13</ele>
        <time>2019-04-25T07:19:35Z</time>
      </trkpt>
      <trkpt lat="43.56614" lon="-1.46831">
        <ele>12</ele>
        <time>2019-04-25T07:19:53Z</time>
      </trkpt>
      <trkpt lat="43.56693" lon="-1.46951">
        <ele>13</ele>
        <time>2019-04-25T07:20:23Z</time>
      </trkpt>
      <trkpt lat="43.5674" lon="-1.47013">
        <ele>13</ele>
        <time>2019-04-25T07:20:41Z</time>
      </trkpt>
      <trkpt lat="43.56824" lon="-1.47112">
        <ele>14</ele>
        <time>2019-04-25T07:21:11Z</time>
      </trkpt>
      <trkpt lat="43.56892" lon="-1.47211">
        <ele>12</ele>
        <time>2019-04-25T07:21:35Z</time>
      </trkpt>
      <trkpt lat="43.56986" lon="-1.47107">
        <ele>11</ele>
        <time>2019-04-25T07:22:35Z</time>
      </trkpt>
      <trkpt lat="43.56996" lon="-1.47106">
        <ele>10</ele>
        <time>2019-04-25T07:22:47Z</time>
      </trkpt>
      <trkpt lat="43.57008" lon="-1.47119">
        <ele>11</ele>
        <time>2019-04-25T07:22:53Z</time>
      </trkpt>
      <trkpt lat="43.57019" lon="-1.47118">
        <ele>11</ele>
        <time>2019-04-25T07:22:59Z</time>
      </trkpt>
      <trkpt lat="43.57052" lon="-1.47137">
        <ele>9</ele>
        <time>2019-04-25T07:23:11Z</time>
      </trkpt>
      <trkpt lat="43.57107" lon="-1.47187">
        <ele>9</ele>
        <time>2019-04-25T07:23:29Z</time>
      </trkpt>
      <trkpt lat="43.57136" lon="-1.4722">
        <ele>9</ele>
        <time>2019-04-25T07:23:41Z</time>
      </trkpt>
      <trkpt lat="43.57195" lon="-1.47176">
        <ele>9</ele>
        <time>2019-04-25T07:24:05Z</time>
      </trkpt>
      <trkpt lat="43.57204" lon="-1.47153">
        <ele>9</ele>
        <time>2019-04-25T07:24:17Z</time>
      </trkpt>
      <trkpt lat="43.57198" lon="-1.47141">
        <ele>9</ele>
        <time>2019-04-25T07:24:23Z</time>
      </trkpt>
      <trkpt lat="43.57188" lon="-1.47131">
        <ele>8</ele>
        <time>2019-04-25T07:24:35Z</time>
      </trkpt>
      <trkpt lat="43.57167" lon="-1.47083">
        <ele>8</ele>
        <time>2019-04-25T07:24:59Z</time>
      </trkpt>
      <trkpt lat="43.57158" lon="-1.47033">
        <ele>8</ele>
        <time>2019-04-25T07:25:11Z</time>
      </trkpt>
      <trkpt lat="43.57136" lon="-1.46982">
        <ele>8</ele>
        <time>2019-04-25T07:25:29Z</time>
      </trkpt>
      <trkpt lat="43.57053" lon="-1.46719">
        <ele>11</ele>
        <time>2019-04-25T07:26:41Z</time>
      </trkpt>
      <trkpt lat="43.57035" lon="-1.46687">
        <ele>9</ele>
        <time>2019-04-25T07:26:53Z</time>
      </trkpt>
      <trkpt lat="43.57005" lon="-1.46385">
        <ele>7</ele>
        <time>2019-04-25T07:27:47Z</time>
      </trkpt>
      <trkpt lat="43.56993" lon="-1.46322">
        <ele>9</ele>
        <time>2019-04-25T07:27:59Z</time>
      </trkpt>
      <trkpt lat="43.56986" lon="-1.46223">
        <ele>10</ele>
        <time>2019-04-25T07:28:17Z</time>
      </trkpt>
      <trkpt lat="43.56963" lon="-1.46089">
        <ele>9</ele>
        <time>2019-04-25T07:28:41Z</time>
      </trkpt>
      <trkpt lat="43.56903" lon="-1.45847">
        <ele>7</ele>
        <time>2019-04-25T07:29:23Z</time>
      </trkpt>
      <trkpt lat="43.5689" lon="-1.45775">
        <ele>6</ele>
        <time>2019-04-25T07:29:35Z</time>
      </trkpt>
      <trkpt lat="43.56876" lon="-1.45732">
        <ele>5</ele>
        <time>2019-04-25T07:30:11Z</time>
      </trkpt>
      <trkpt lat="43.56878" lon="-1.45729">
        <ele>5</ele>
        <time>2019-04-25T07:30:23Z</time>
      </trkpt>
      <trkpt lat="43.56888" lon="-1.45739">
        <ele>5</ele>
        <time>2019-04-25T07:30:29Z</time>
      </trkpt>
      <trkpt lat="43.56904" lon="-1.45784">
        <ele>6</ele>
        <time>2019-04-25T07:30:41Z</time>
      </trkpt>
      <trkpt lat="43.56917" lon="-1.45837">
        <ele>6</ele>
        <time>2019-04-25T07:30:53Z</time>
      </trkpt>
      <trkpt lat="43.56932" lon="-1.45918">
        <ele>7</ele>
        <time>2019-04-25T07:31:11Z</time>
      </trkpt>
      <trkpt lat="43.56967" lon="-1.46025">
        <ele>7</ele>
        <time>2019-04-25T07:31:35Z</time>
      </trkpt>
      <trkpt lat="43.5698" lon="-1.46091">
        <ele>8</ele>
        <time>2019-04-25T07:31:47Z</time>
      </trkpt>
      <trkpt lat="43.56993" lon="-1.46242">
        <ele>10</ele>
        <time>2019-04-25T07:32:17Z</time>
      </trkpt>
      <trkpt lat="43.5701" lon="-1.46349">
        <ele>8</ele>
        <time>2019-04-25T07:32:35Z</time>
      </trkpt>
      <trkpt lat="43.57014" lon="-1.46424">
        <ele>6</ele>
        <time>2019-04-25T07:32:47Z</time>
      </trkpt>
      <trkpt lat="43.57027" lon="-1.46523">
        <ele>6</ele>
        <time>2019-04-25T07:33:05Z</time>
      </trkpt>
      <trkpt lat="43.57038" lon="-1.46658">
        <ele>8</ele>
        <time>2019-04-25T07:33:29Z</time>
      </trkpt>
      <trkpt lat="43.57054" lon="-1.46684">
        <ele>10</ele>
        <time>2019-04-25T07:33:41Z</time>
      </trkpt>
      <trkpt lat="43.57102" lon="-1.46622">
        <ele>10</ele>
        <time>2019-04-25T07:33:59Z</time>
      </trkpt>
      <trkpt lat="43.57185" lon="-1.4655">
        <ele>12</ele>
        <time>2019-04-25T07:34:23Z</time>
      </trkpt>
      <trkpt lat="43.57201" lon="-1.46521">
        <ele>12</ele>
        <time>2019-04-25T07:34:35Z</time>
      </trkpt>
      <trkpt lat="43.57234" lon="-1.46478">
        <ele>13</ele>
        <time>2019-04-25T07:34:53Z</time>
      </trkpt>
      <trkpt lat="43.57276" lon="-1.46428">
        <ele>15</ele>
        <time>2019-04-25T07:35:05Z</time>
      </trkpt>
      <trkpt lat="43.57319" lon="-1.46388">
        <ele>16</ele>
        <time>2019-04-25T07:35:17Z</time>
      </trkpt>
      <trkpt lat="43.57335" lon="-1.46364">
        <ele>16</ele>
        <time>2019-04-25T07:35:23Z</time>
      </trkpt>
      <trkpt lat="43.57365" lon="-1.46331">
        <ele>16</ele>
        <time>2019-04-25T07:35:35Z</time>
      </trkpt>
      <trkpt lat="43.57426" lon="-1.46269">
        <ele>9</ele>
        <time>2019-04-25T07:35:53Z</time>
      </trkpt>
      <trkpt lat="43.5747" lon="-1.46242">
        <ele>8</ele>
        <time>2019-04-25T07:36:05Z</time>
      </trkpt>
      <trkpt lat="43.57569" lon="-1.46092">
        <ele>6</ele>
        <time>2019-04-25T07:36:41Z</time>
      </trkpt>
      <trkpt lat="43.57615" lon="-1.46058">
        <ele>7</ele>
        <time>2019-04-25T07:36:53Z</time>
      </trkpt>
      <trkpt lat="43.57683" lon="-1.4604">
        <ele>10</ele>
        <time>2019-04-25T07:37:11Z</time>
      </trkpt>
      <trkpt lat="43.57733" lon="-1.46016">
        <ele>12</ele>
        <time>2019-04-25T07:37:23Z</time>
      </trkpt>
      <trkpt lat="43.57751" lon="-1.45991">
        <ele>14</ele>
        <time>2019-04-25T07:37:29Z</time>
      </trkpt>
      <trkpt lat="43.57787" lon="-1.45914">
        <ele>14</ele>
        <time>2019-04-25T07:37:47Z</time>
      </trkpt>
      <trkpt lat="43.57809" lon="-1.45854">
        <ele>14</ele>
        <time>2019-04-25T07:37:59Z</time>
      </trkpt>
      <trkpt lat="43.57845" lon="-1.458">
        <ele>13</ele>
        <time>2019-04-25T07:38:11Z</time>
      </trkpt>
      <trkpt lat="43.57868" lon="-1.45774">
        <ele>10</ele>
        <time>2019-04-25T07:38:17Z</time>
      </trkpt>
      <trkpt lat="43.57897" lon="-1.45758">
        <ele>9</ele>
        <time>2019-04-25T07:38:23Z</time>
      </trkpt>
      <trkpt lat="43.57941" lon="-1.45715">
        <ele>9</ele>
        <time>2019-04-25T07:38:35Z</time>
      </trkpt>
      <trkpt lat="43.57995" lon="-1.45689">
        <ele>11</ele>
        <time>2019-04-25T07:38:47Z</time>
      </trkpt>
      <trkpt lat="43.58052" lon="-1.45679">
        <ele>10</ele>
        <time>2019-04-25T07:38:59Z</time>
      </trkpt>
      <trkpt lat="43.58128" lon="-1.45656">
        <ele>8</ele>
        <time>2019-04-25T07:39:17Z</time>
      </trkpt>
      <trkpt lat="43.58252" lon="-1.45646">
        <ele>6</ele>
        <time>2019-04-25T07:39:41Z</time>
      </trkpt>
      <trkpt lat="43.58421" lon="-1.45621">
        <ele>7</ele>
        <time>2019-04-25T07:40:17Z</time>
      </trkpt>
      <trkpt lat="43.58482" lon="-1.45618">
        <ele>8</ele>
        <time>2019-04-25T07:40:29Z</time>
      </trkpt>
      <trkpt lat="43.58505" lon="-1.4561">
        <ele>9</ele>
        <time>2019-04-25T07:40:35Z</time>
      </trkpt>
      <trkpt lat="43.58521" lon="-1.45588">
        <ele>8</ele>
        <time>2019-04-25T07:40:41Z</time>
      </trkpt>
      <trkpt lat="43.58548" lon="-1.45563">
        <ele>7</ele>
        <time>2019-04-25T07:40:53Z</time>
      </trkpt>
      <trkpt lat="43.58618" lon="-1.45661">
        <ele>9</ele>
        <time>2019-04-25T07:41:23Z</time>
      </trkpt>
      <trkpt lat="43.5873" lon="-1.45786">
        <ele>10</ele>
        <time>2019-04-25T07:41:53Z</time>
      </trkpt>
      <trkpt lat="43.5878" lon="-1.45836">
        <ele>9</ele>
        <time>2019-04-25T07:42:05Z</time>
      </trkpt>
      <trkpt lat="43.58938" lon="-1.45959">
        <ele>7</ele>
        <time>2019-04-25T07:42:41Z</time>
      </trkpt>
      <trkpt lat="43.58967" lon="-1.45976">
        <ele>7</ele>
        <time>2019-04-25T07:42:47Z</time>
      </trkpt>
      <trkpt lat="43.59052" lon="-1.46012">
        <ele>7</ele>
        <time>2019-04-25T07:43:05Z</time>
      </trkpt>
      <trkpt lat="43.59108" lon="-1.46024">
        <ele>7</ele>
        <time>2019-04-25T07:43:17Z</time>
      </trkpt>
      <trkpt lat="43.59176" lon="-1.46048">
        <ele>6</ele>
        <time>2019-04-25T07:43:29Z</time>
      </trkpt>
      <trkpt lat="43.59237" lon="-1.46057">
        <ele>7</ele>
        <time>2019-04-25T07:43:41Z</time>
      </trkpt>
      <trkpt lat="43.59357" lon="-1.4606">
        <ele>8</ele>
        <time>2019-04-25T07:44:05Z</time>
      </trkpt>
      <trkpt lat="43.595" lon="-1.4605">
        <ele>7</ele>
        <time>2019-04-25T07:44:35Z</time>
      </trkpt>
      <trkpt lat="43.59561" lon="-1.46041">
        <ele>6</ele>
        <time>2019-04-25T07:44:47Z</time>
      </trkpt>
      <trkpt lat="43.59594" lon="-1.46014">
        <ele>6</ele>
        <time>2019-04-25T07:44:59Z</time>
      </trkpt>
      <trkpt lat="43.59626" lon="-1.4602">
        <ele>6</ele>
        <time>2019-04-25T07:46:05Z</time>
      </trkpt>
      <trkpt lat="43.59678" lon="-1.46011">
        <ele>6</ele>
        <time>2019-04-25T07:46:29Z</time>
      </trkpt>
      <trkpt lat="43.59758" lon="-1.46016">
        <ele>6</ele>
        <time>2019-04-25T07:46:53Z</time>
      </trkpt>
      <trkpt lat="43.59828" lon="-1.46007">
        <ele>5</ele>
        <time>2019-04-25T07:47:11Z</time>
      </trkpt>
      <trkpt lat="43.5989" lon="-1.45989">
        <ele>6</ele>
        <time>2019-04-25T07:47:23Z</time>
      </trkpt>
      <trkpt lat="43.59921" lon="-1.45979">
        <ele>7</ele>
        <time>2019-04-25T07:47:29Z</time>
      </trkpt>
      <trkpt lat="43.59976" lon="-1.45952">
        <ele>6</ele>
        <time>2019-04-25T07:47:41Z</time>
      </trkpt>
      <trkpt lat="43.60098" lon="-1.45869">
        <ele>9</ele>
        <time>2019-04-25T07:48:11Z</time>
      </trkpt>
      <trkpt lat="43.60123" lon="-1.4585">
        <ele>8</ele>
        <time>2019-04-25T07:48:17Z</time>
      </trkpt>
      <trkpt lat="43.60181" lon="-1.45782">
        <ele>6</ele>
        <time>2019-04-25T07:48:35Z</time>
      </trkpt>
      <trkpt lat="43.60209" lon="-1.45758">
        <ele>6</ele>
        <time>2019-04-25T07:48:41Z</time>
      </trkpt>
      <trkpt lat="43.60261" lon="-1.45725">
        <ele>6</ele>
        <time>2019-04-25T07:48:53Z</time>
      </trkpt>
      <trkpt lat="43.60318" lon="-1.45693">
        <ele>5</ele>
        <time>2019-04-25T07:49:05Z</time>
      </trkpt>
      <trkpt lat="43.60426" lon="-1.45662">
        <ele>5</ele>
        <time>2019-04-25T07:49:29Z</time>
      </trkpt>
      <trkpt lat="43.60478" lon="-1.45634">
        <ele>7</ele>
        <time>2019-04-25T07:49:41Z</time>
      </trkpt>
      <trkpt lat="43.60552" lon="-1.4557">
        <ele>7</ele>
        <time>2019-04-25T07:49:59Z</time>
      </trkpt>
      <trkpt lat="43.60598" lon="-1.45519">
        <ele>5</ele>
        <time>2019-04-25T07:50:11Z</time>
      </trkpt>
      <trkpt lat="43.60653" lon="-1.45476">
        <ele>5</ele>
        <time>2019-04-25T07:50:23Z</time>
      </trkpt>
      <trkpt lat="43.60712" lon="-1.45459">
        <ele>5</ele>
        <time>2019-04-25T07:50:35Z</time>
      </trkpt>
      <trkpt lat="43.60758" lon="-1.45455">
        <ele>5</ele>
        <time>2019-04-25T07:50:47Z</time>
      </trkpt>
      <trkpt lat="43.60888" lon="-1.45425">
        <ele>7</ele>
        <time>2019-04-25T07:51:11Z</time>
      </trkpt>
      <trkpt lat="43.60921" lon="-1.45423">
        <ele>7</ele>
        <time>2019-04-25T07:51:17Z</time>
      </trkpt>
      <trkpt lat="43.60974" lon="-1.45453">
        <ele>6</ele>
        <time>2019-04-25T07:51:29Z</time>
      </trkpt>
      <trkpt lat="43.6104" lon="-1.4546">
        <ele>6</ele>
        <time>2019-04-25T07:51:47Z</time>
      </trkpt>
      <trkpt lat="43.61064" lon="-1.45459">
        <ele>6</ele>
        <time>2019-04-25T07:51:53Z</time>
      </trkpt>
      <trkpt lat="43.61125" lon="-1.45427">
        <ele>7</ele>
        <time>2019-04-25T07:52:17Z</time>
      </trkpt>
      <trkpt lat="43.61223" lon="-1.45326">
        <ele>6</ele>
        <time>2019-04-25T07:52:41Z</time>
      </trkpt>
      <trkpt lat="43.61241" lon="-1.453">
        <ele>6</ele>
        <time>2019-04-25T07:52:47Z</time>
      </trkpt>
      <trkpt lat="43.61309" lon="-1.45227">
        <ele>6</ele>
        <time>2019-04-25T07:53:05Z</time>
      </trkpt>
      <trkpt lat="43.61383" lon="-1.4514">
        <ele>5</ele>
        <time>2019-04-25T07:53:23Z</time>
      </trkpt>
      <trkpt lat="43.61434" lon="-1.4507">
        <ele>5</ele>
        <time>2019-04-25T07:53:35Z</time>
      </trkpt>
      <trkpt lat="43.61602" lon="-1.4476">
        <ele>5</ele>
        <time>2019-04-25T07:54:29Z</time>
      </trkpt>
      <trkpt lat="43.61709" lon="-1.44539">
        <ele>4</ele>
        <time>2019-04-25T07:55:05Z</time>
      </trkpt>
      <trkpt lat="43.61735" lon="-1.44517">
        <ele>4</ele>
        <time>2019-04-25T07:55:11Z</time>
      </trkpt>
      <trkpt lat="43.61791" lon="-1.44499">
        <ele>5</ele>
        <time>2019-04-25T07:55:23Z</time>
      </trkpt>
      <trkpt lat="43.61825" lon="-1.44467">
        <ele>5</ele>
        <time>2019-04-25T07:55:35Z</time>
      </trkpt>
      <trkpt lat="43.61935" lon="-1.44391">
        <ele>7</ele>
        <time>2019-04-25T07:55:59Z</time>
      </trkpt>
      <trkpt lat="43.62105" lon="-1.44309">
        <ele>7</ele>
        <time>2019-04-25T07:56:35Z</time>
      </trkpt>
      <trkpt lat="43.62168" lon="-1.44285">
        <ele>8</ele>
        <time>2019-04-25T07:57:11Z</time>
      </trkpt>
      <trkpt lat="43.62172" lon="-1.44253">
        <ele>9</ele>
        <time>2019-04-25T07:58:23Z</time>
      </trkpt>
      <trkpt lat="43.62165" lon="-1.44203">
        <ele>10</ele>
        <time>2019-04-25T07:58:35Z</time>
      </trkpt>
      <trkpt lat="43.62177" lon="-1.44089">
        <ele>8</ele>
        <time>2019-04-25T07:58:59Z</time>
      </trkpt>
      <trkpt lat="43.62158" lon="-1.44018">
        <ele>8</ele>
        <time>2019-04-25T07:59:17Z</time>
      </trkpt>
      <trkpt lat="43.62157" lon="-1.43983">
        <ele>7</ele>
        <time>2019-04-25T07:59:29Z</time>
      </trkpt>
      <trkpt lat="43.62238" lon="-1.4392">
        <ele>6</ele>
        <time>2019-04-25T07:59:53Z</time>
      </trkpt>
      <trkpt lat="43.62287" lon="-1.43891">
        <ele>8</ele>
        <time>2019-04-25T08:00:05Z</time>
      </trkpt>
      <trkpt lat="43.62384" lon="-1.43823">
        <ele>8</ele>
        <time>2019-04-25T08:00:29Z</time>
      </trkpt>
      <trkpt lat="43.62429" lon="-1.43785">
        <ele>8</ele>
        <time>2019-04-25T08:00:41Z</time>
      </trkpt>
      <trkpt lat="43.62586" lon="-1.4368">
        <ele>11</ele>
        <time>2019-04-25T08:01:17Z</time>
      </trkpt>
      <trkpt lat="43.62655" lon="-1.43627">
        <ele>12</ele>
        <time>2019-04-25T08:01:35Z</time>
      </trkpt>
      <trkpt lat="43.62711" lon="-1.43578">
        <ele>11</ele>
        <time>2019-04-25T08:01:53Z</time>
      </trkpt>
      <trkpt lat="43.6287" lon="-1.43473">
        <ele>10</ele>
        <time>2019-04-25T08:02:29Z</time>
      </trkpt>
      <trkpt lat="43.62892" lon="-1.43485">
        <ele>12</ele>
        <time>2019-04-25T08:02:35Z</time>
      </trkpt>
      <trkpt lat="43.62917" lon="-1.43534">
        <ele>13</ele>
        <time>2019-04-25T08:02:47Z</time>
      </trkpt>
      <trkpt lat="43.63007" lon="-1.4359">
        <ele>11</ele>
        <time>2019-04-25T08:03:05Z</time>
      </trkpt>
      <trkpt lat="43.63066" lon="-1.43621">
        <ele>8</ele>
        <time>2019-04-25T08:03:17Z</time>
      </trkpt>
      <trkpt lat="43.63117" lon="-1.43657">
        <ele>8</ele>
        <time>2019-04-25T08:03:29Z</time>
      </trkpt>
      <trkpt lat="43.63239" lon="-1.43774">
        <ele>5</ele>
        <time>2019-04-25T08:03:59Z</time>
      </trkpt>
      <trkpt lat="43.63273" lon="-1.43822">
        <ele>3</ele>
        <time>2019-04-25T08:04:11Z</time>
      </trkpt>
      <trkpt lat="43.63321" lon="-1.4387">
        <ele>4</ele>
        <time>2019-04-25T08:04:29Z</time>
      </trkpt>
      <trkpt lat="43.63342" lon="-1.43885">
        <ele>4</ele>
        <time>2019-04-25T08:04:35Z</time>
      </trkpt>
      <trkpt lat="43.63391" lon="-1.43903">
        <ele>4</ele>
        <time>2019-04-25T08:04:47Z</time>
      </trkpt>
      <trkpt lat="43.63435" lon="-1.439">
        <ele>4</ele>
        <time>2019-04-25T08:04:59Z</time>
      </trkpt>
      <trkpt lat="43.63529" lon="-1.43886">
        <ele>5</ele>
        <time>2019-04-25T08:05:23Z</time>
      </trkpt>
      <trkpt lat="43.63604" lon="-1.43863">
        <ele>7</ele>
        <time>2019-04-25T08:05:41Z</time>
      </trkpt>
      <trkpt lat="43.63683" lon="-1.43821">
        <ele>6</ele>
        <time>2019-04-25T08:06:05Z</time>
      </trkpt>
      <trkpt lat="43.63725" lon="-1.43823">
        <ele>6</ele>
        <time>2019-04-25T08:06:29Z</time>
      </trkpt>
      <trkpt lat="43.63723" lon="-1.43814">
        <ele>6</ele>
        <time>2019-04-25T08:06:41Z</time>
      </trkpt>
      <trkpt lat="43.63736" lon="-1.43781">
        <ele>6</ele>
        <time>2019-04-25T08:06:53Z</time>
      </trkpt>
      <trkpt lat="43.6382" lon="-1.4368">
        <ele>5</ele>
        <time>2019-04-25T08:07:23Z</time>
      </trkpt>
      <trkpt lat="43.63837" lon="-1.43666">
        <ele>5</ele>
        <time>2019-04-25T08:07:29Z</time>
      </trkpt>
      <trkpt lat="43.63877" lon="-1.43671">
        <ele>5</ele>
        <time>2019-04-25T08:07:41Z</time>
      </trkpt>
      <trkpt lat="43.63941" lon="-1.43734">
        <ele>5</ele>
        <time>2019-04-25T08:08:04Z</time>
      </trkpt>
      <trkpt lat="43.63951" lon="-1.43766">
        <ele>5</ele>
        <time>2019-04-25T08:08:10Z</time>
      </trkpt>
      <trkpt lat="43.63977" lon="-1.4394">
        <ele>4</ele>
        <time>2019-04-25T08:08:40Z</time>
      </trkpt>
      <trkpt lat="43.63987" lon="-1.43969">
        <ele>5</ele>
        <time>2019-04-25T08:08:46Z</time>
      </trkpt>
      <trkpt lat="43.64031" lon="-1.44039">
        <ele>6</ele>
        <time>2019-04-25T08:09:04Z</time>
      </trkpt>
      <trkpt lat="43.64057" lon="-1.44072">
        <ele>6</ele>
        <time>2019-04-25T08:09:16Z</time>
      </trkpt>
      <trkpt lat="43.64117" lon="-1.44163">
        <ele>5</ele>
        <time>2019-04-25T08:09:46Z</time>
      </trkpt>
      <trkpt lat="43.64134" lon="-1.44151">
        <ele>5</ele>
        <time>2019-04-25T08:09:58Z</time>
      </trkpt>
      <trkpt lat="43.64191" lon="-1.44157">
        <ele>5</ele>
        <time>2019-04-25T08:10:16Z</time>
      </trkpt>
      <trkpt lat="43.64257" lon="-1.44136">
        <ele>6</ele>
        <time>2019-04-25T08:10:34Z</time>
      </trkpt>
      <trkpt lat="43.64323" lon="-1.44122">
        <ele>6</ele>
        <time>2019-04-25T08:10:52Z</time>
      </trkpt>
      <trkpt lat="43.64382" lon="-1.44116">
        <ele>7</ele>
        <time>2019-04-25T08:11:10Z</time>
      </trkpt>
      <trkpt lat="43.64419" lon="-1.44105">
        <ele>8</ele>
        <time>2019-04-25T08:11:22Z</time>
      </trkpt>
      <trkpt lat="43.64639" lon="-1.44002">
        <ele>8</ele>
        <time>2019-04-25T08:12:04Z</time>
      </trkpt>
      <trkpt lat="43.64698" lon="-1.43959">
        <ele>8</ele>
        <time>2019-04-25T08:12:22Z</time>
      </trkpt>
      <trkpt lat="43.647" lon="-1.43947">
        <ele>7</ele>
        <time>2019-04-25T08:12:28Z</time>
      </trkpt>
      <trkpt lat="43.64666" lon="-1.43892">
        <ele>6</ele>
        <time>2019-04-25T08:12:40Z</time>
      </trkpt>
      <trkpt lat="43.64609" lon="-1.43782">
        <ele>4</ele>
        <time>2019-04-25T08:12:58Z</time>
      </trkpt>
      <trkpt lat="43.64539" lon="-1.43667">
        <ele>3</ele>
        <time>2019-04-25T08:13:22Z</time>
      </trkpt>
      <trkpt lat="43.6445" lon="-1.43503">
        <ele>4</ele>
        <time>2019-04-25T08:13:58Z</time>
      </trkpt>
      <trkpt lat="43.64421" lon="-1.43399">
        <ele>3</ele>
        <time>2019-04-25T08:14:34Z</time>
      </trkpt>
      <trkpt lat="43.64414" lon="-1.43338">
        <ele>3</ele>
        <time>2019-04-25T08:14:58Z</time>
      </trkpt>
      <trkpt lat="43.64473" lon="-1.43326">
        <ele>3</ele>
        <time>2019-04-25T08:15:10Z</time>
      </trkpt>
      <trkpt lat="43.64529" lon="-1.4333">
        <ele>4</ele>
        <time>2019-04-25T08:15:22Z</time>
      </trkpt>
      <trkpt lat="43.64589" lon="-1.43341">
        <ele>4</ele>
        <time>2019-04-25T08:15:34Z</time>
      </trkpt>
      <trkpt lat="43.64642" lon="-1.43378">
        <ele>4</ele>
        <time>2019-04-25T08:15:46Z</time>
      </trkpt>
      <trkpt lat="43.64705" lon="-1.43465">
        <ele>3</ele>
        <time>2019-04-25T08:16:04Z</time>
      </trkpt>
      <trkpt lat="43.64717" lon="-1.43506">
        <ele>3</ele>
        <time>2019-04-25T08:16:16Z</time>
      </trkpt>
      <trkpt lat="43.64734" lon="-1.43494">
        <ele>3</ele>
        <time>2019-04-25T08:17:28Z</time>
      </trkpt>
      <trkpt lat="43.64779" lon="-1.43529">
        <ele>3</ele>
        <time>2019-04-25T08:18:10Z</time>
      </trkpt>
      <trkpt lat="43.6486" lon="-1.43556">
        <ele>3</ele>
        <time>2019-04-25T08:18:34Z</time>
      </trkpt>
      <trkpt lat="43.64885" lon="-1.43517">
        <ele>3</ele>
        <time>2019-04-25T08:18:52Z</time>
      </trkpt>
      <trkpt lat="43.64922" lon="-1.43511">
        <ele>3</ele>
        <time>2019-04-25T08:19:04Z</time>
      </trkpt>
      <trkpt lat="43.64977" lon="-1.43424">
        <ele>4</ele>
        <time>2019-04-25T08:19:28Z</time>
      </trkpt>
      <trkpt lat="43.64998" lon="-1.43423">
        <ele>4</ele>
        <time>2019-04-25T08:19:34Z</time>
      </trkpt>
      <trkpt lat="43.65043" lon="-1.43437">
        <ele>4</ele>
        <time>2019-04-25T08:19:58Z</time>
      </trkpt>
      <trkpt lat="43.65065" lon="-1.43454">
        <ele>3</ele>
        <time>2019-04-25T08:20:10Z</time>
      </trkpt>
      <trkpt lat="43.65095" lon="-1.43461">
        <ele>3</ele>
        <time>2019-04-25T08:20:22Z</time>
      </trkpt>
      <trkpt lat="43.65137" lon="-1.4348">
        <ele>2</ele>
        <time>2019-04-25T08:20:40Z</time>
      </trkpt>
      <trkpt lat="43.65163" lon="-1.43464">
        <ele>2</ele>
        <time>2019-04-25T08:20:52Z</time>
      </trkpt>
      <trkpt lat="43.65193" lon="-1.43464">
        <ele>2</ele>
        <time>2019-04-25T08:21:04Z</time>
      </trkpt>
      <trkpt lat="43.65222" lon="-1.43439">
        <ele>1</ele>
        <time>2019-04-25T08:21:16Z</time>
      </trkpt>
      <trkpt lat="43.65225" lon="-1.43421">
        <ele>3</ele>
        <time>2019-04-25T08:21:22Z</time>
      </trkpt>
      <trkpt lat="43.65205" lon="-1.43399">
        <ele>2</ele>
        <time>2019-04-25T08:25:22Z</time>
      </trkpt>
      <trkpt lat="43.6526" lon="-1.43249">
        <ele>3</ele>
        <time>2019-04-25T08:26:16Z</time>
      </trkpt>
      <trkpt lat="43.653" lon="-1.43067">
        <ele>3</ele>
        <time>2019-04-25T08:27:04Z</time>
      </trkpt>
      <trkpt lat="43.65333" lon="-1.43044">
        <ele>4</ele>
        <time>2019-04-25T08:27:16Z</time>
      </trkpt>
      <trkpt lat="43.65361" lon="-1.43017">
        <ele>4</ele>
        <time>2019-04-25T08:27:28Z</time>
      </trkpt>
      <trkpt lat="43.65397" lon="-1.4301">
        <ele>3</ele>
        <time>2019-04-25T08:27:40Z</time>
      </trkpt>
      <trkpt lat="43.65427" lon="-1.43053">
        <ele>4</ele>
        <time>2019-04-25T08:27:52Z</time>
      </trkpt>
      <trkpt lat="43.65428" lon="-1.43161">
        <ele>4</ele>
        <time>2019-04-25T08:28:16Z</time>
      </trkpt>
      <trkpt lat="43.65444" lon="-1.43159">
        <ele>4</ele>
        <time>2019-04-25T08:28:22Z</time>
      </trkpt>
      <trkpt lat="43.65473" lon="-1.43196">
        <ele>7</ele>
        <time>2019-04-25T08:28:34Z</time>
      </trkpt>
      <trkpt lat="43.65503" lon="-1.43223">
        <ele>8</ele>
        <time>2019-04-25T08:28:46Z</time>
      </trkpt>
      <trkpt lat="43.6554" lon="-1.43273">
        <ele>6</ele>
        <time>2019-04-25T08:28:58Z</time>
      </trkpt>
      <trkpt lat="43.65592" lon="-1.43309">
        <ele>6</ele>
        <time>2019-04-25T08:29:16Z</time>
      </trkpt>
      <trkpt lat="43.65632" lon="-1.43317">
        <ele>5</ele>
        <time>2019-04-25T08:29:34Z</time>
      </trkpt>
      <trkpt lat="43.65679" lon="-1.43315">
        <ele>4</ele>
        <time>2019-04-25T08:29:52Z</time>
      </trkpt>
      <trkpt lat="43.65725" lon="-1.43302">
        <ele>5</ele>
        <time>2019-04-25T08:30:10Z</time>
      </trkpt>
      <trkpt lat="43.6574" lon="-1.43291">
        <ele>5</ele>
        <time>2019-04-25T08:30:16Z</time>
      </trkpt>
      <trkpt lat="43.65816" lon="-1.43203">
        <ele>5</ele>
        <time>2019-04-25T08:30:46Z</time>
      </trkpt>
      <trkpt lat="43.65981" lon="-1.43107">
        <ele>6</ele>
        <time>2019-04-25T08:31:46Z</time>
      </trkpt>
      <trkpt lat="43.65997" lon="-1.43113">
        <ele>6</ele>
        <time>2019-04-25T08:31:52Z</time>
      </trkpt>
      <trkpt lat="43.66019" lon="-1.4314">
        <ele>5</ele>
        <time>2019-04-25T08:32:04Z</time>
      </trkpt>
      <trkpt lat="43.66036" lon="-1.43148">
        <ele>5</ele>
        <time>2019-04-25T08:32:16Z</time>
      </trkpt>
      <trkpt lat="43.66106" lon="-1.43263">
        <ele>6</ele>
        <time>2019-04-25T08:36:46Z</time>
      </trkpt>
      <trkpt lat="43.66121" lon="-1.43267">
        <ele>6</ele>
        <time>2019-04-25T08:36:52Z</time>
      </trkpt>
      <trkpt lat="43.66182" lon="-1.43259">
        <ele>6</ele>
        <time>2019-04-25T08:37:10Z</time>
      </trkpt>
      <trkpt lat="43.66224" lon="-1.43266">
        <ele>6</ele>
        <time>2019-04-25T08:37:22Z</time>
      </trkpt>
      <trkpt lat="43.66259" lon="-1.43307">
        <ele>8</ele>
        <time>2019-04-25T08:37:34Z</time>
      </trkpt>
      <trkpt lat="43.66281" lon="-1.43371">
        <ele>9</ele>
        <time>2019-04-25T08:37:46Z</time>
      </trkpt>
      <trkpt lat="43.66325" lon="-1.43425">
        <ele>11</ele>
        <time>2019-04-25T08:38:10Z</time>
      </trkpt>
      <trkpt lat="43.66334" lon="-1.43451">
        <ele>12</ele>
        <time>2019-04-25T08:38:16Z</time>
      </trkpt>
      <trkpt lat="43.66333" lon="-1.435">
        <ele>13</ele>
        <time>2019-04-25T08:38:28Z</time>
      </trkpt>
      <trkpt lat="43.66346" lon="-1.43584">
        <ele>10</ele>
        <time>2019-04-25T08:38:40Z</time>
      </trkpt>
      <trkpt lat="43.66366" lon="-1.43632">
        <ele>9</ele>
        <time>2019-04-25T08:38:46Z</time>
      </trkpt>
      <trkpt lat="43.66445" lon="-1.43759">
        <ele>6</ele>
        <time>2019-04-25T08:39:04Z</time>
      </trkpt>
      <trkpt lat="43.66456" lon="-1.43799">
        <ele>5</ele>
        <time>2019-04-25T08:39:10Z</time>
      </trkpt>
      <trkpt lat="43.66432" lon="-1.43914">
        <ele>4</ele>
        <time>2019-04-25T08:39:28Z</time>
      </trkpt>
      <trkpt lat="43.66442" lon="-1.43961">
        <ele>4</ele>
        <time>2019-04-25T08:39:40Z</time>
      </trkpt>
      <trkpt lat="43.66469" lon="-1.44">
        <ele>5</ele>
        <time>2019-04-25T08:39:52Z</time>
      </trkpt>
      <trkpt lat="43.66497" lon="-1.44001">
        <ele>5</ele>
        <time>2019-04-25T08:39:58Z</time>
      </trkpt>
      <trkpt lat="43.66775" lon="-1.43957">
        <ele>7</ele>
        <time>2019-04-25T08:40:52Z</time>
      </trkpt>
      <trkpt lat="43.67" lon="-1.43933">
        <ele>5</ele>
        <time>2019-04-25T08:41:34Z</time>
      </trkpt>
      <trkpt lat="43.67058" lon="-1.43911">
        <ele>4</ele>
        <time>2019-04-25T08:41:46Z</time>
      </trkpt>
      <trkpt lat="43.67108" lon="-1.43936">
        <ele>5</ele>
        <time>2019-04-25T08:41:58Z</time>
      </trkpt>
      <trkpt lat="43.67172" lon="-1.43921">
        <ele>5</ele>
        <time>2019-04-25T08:42:10Z</time>
      </trkpt>
      <trkpt lat="43.67361" lon="-1.43897">
        <ele>7</ele>
        <time>2019-04-25T08:42:40Z</time>
      </trkpt>
      <trkpt lat="43.6743" lon="-1.4386">
        <ele>6</ele>
        <time>2019-04-25T08:42:52Z</time>
      </trkpt>
      <trkpt lat="43.67511" lon="-1.43765">
        <ele>6</ele>
        <time>2019-04-25T08:43:16Z</time>
      </trkpt>
      <trkpt lat="43.67563" lon="-1.43751">
        <ele>5</ele>
        <time>2019-04-25T08:43:28Z</time>
      </trkpt>
      <trkpt lat="43.67592" lon="-1.43752">
        <ele>5</ele>
        <time>2019-04-25T08:43:34Z</time>
      </trkpt>
      <trkpt lat="43.67694" lon="-1.43794">
        <ele>5</ele>
        <time>2019-04-25T08:43:52Z</time>
      </trkpt>
      <trkpt lat="43.67842" lon="-1.43842">
        <ele>6</ele>
        <time>2019-04-25T08:44:16Z</time>
      </trkpt>
      <trkpt lat="43.67938" lon="-1.43852">
        <ele>7</ele>
        <time>2019-04-25T08:44:34Z</time>
      </trkpt>
      <trkpt lat="43.67996" lon="-1.43834">
        <ele>7</ele>
        <time>2019-04-25T08:44:46Z</time>
      </trkpt>
      <trkpt lat="43.68076" lon="-1.4379">
        <ele>6</ele>
        <time>2019-04-25T08:44:58Z</time>
      </trkpt>
      <trkpt lat="43.68115" lon="-1.43757">
        <ele>6</ele>
        <time>2019-04-25T08:45:04Z</time>
      </trkpt>
      <trkpt lat="43.68187" lon="-1.4367">
        <ele>4</ele>
        <time>2019-04-25T08:45:22Z</time>
      </trkpt>
      <trkpt lat="43.68197" lon="-1.43677">
        <ele>4</ele>
        <time>2019-04-25T08:45:28Z</time>
      </trkpt>
      <trkpt lat="43.68267" lon="-1.43648">
        <ele>3</ele>
        <time>2019-04-25T08:45:46Z</time>
      </trkpt>
      <trkpt lat="43.68296" lon="-1.43649">
        <ele>3</ele>
        <time>2019-04-25T08:45:52Z</time>
      </trkpt>
      <trkpt lat="43.68456" lon="-1.43677">
        <ele>6</ele>
        <time>2019-04-25T08:46:28Z</time>
      </trkpt>
      <trkpt lat="43.68505" lon="-1.43691">
        <ele>7</ele>
        <time>2019-04-25T08:46:40Z</time>
      </trkpt>
      <trkpt lat="43.68556" lon="-1.43697">
        <ele>6</ele>
        <time>2019-04-25T08:46:52Z</time>
      </trkpt>
      <trkpt lat="43.68652" lon="-1.43668">
        <ele>4</ele>
        <time>2019-04-25T08:47:16Z</time>
      </trkpt>
      <trkpt lat="43.68677" lon="-1.4367">
        <ele>5</ele>
        <time>2019-04-25T08:47:22Z</time>
      </trkpt>
      <trkpt lat="43.68708" lon="-1.43684">
        <ele>8</ele>
        <time>2019-04-25T08:47:34Z</time>
      </trkpt>
      <trkpt lat="43.68797" lon="-1.43682">
        <ele>8</ele>
        <time>2019-04-25T08:48:04Z</time>
      </trkpt>
      <trkpt lat="43.68878" lon="-1.43657">
        <ele>8</ele>
        <time>2019-04-25T08:48:22Z</time>
      </trkpt>
      <trkpt lat="43.69001" lon="-1.43635">
        <ele>8</ele>
        <time>2019-04-25T08:48:52Z</time>
      </trkpt>
      <trkpt lat="43.69052" lon="-1.4362">
        <ele>8</ele>
        <time>2019-04-25T08:49:04Z</time>
      </trkpt>
      <trkpt lat="43.69071" lon="-1.43624">
        <ele>8</ele>
        <time>2019-04-25T08:49:10Z</time>
      </trkpt>
      <trkpt lat="43.6912" lon="-1.43617">
        <ele>8</ele>
        <time>2019-04-25T08:49:22Z</time>
      </trkpt>
      <trkpt lat="43.69158" lon="-1.43587">
        <ele>7</ele>
        <time>2019-04-25T08:49:34Z</time>
      </trkpt>
      <trkpt lat="43.69183" lon="-1.43588">
        <ele>7</ele>
        <time>2019-04-25T08:49:40Z</time>
      </trkpt>
      <trkpt lat="43.69253" lon="-1.43604">
        <ele>8</ele>
        <time>2019-04-25T08:49:58Z</time>
      </trkpt>
      <trkpt lat="43.69382" lon="-1.43584">
        <ele>7</ele>
        <time>2019-04-25T08:50:22Z</time>
      </trkpt>
      <trkpt lat="43.69419" lon="-1.43598">
        <ele>7</ele>
        <time>2019-04-25T08:50:28Z</time>
      </trkpt>
      <trkpt lat="43.69463" lon="-1.43623">
        <ele>8</ele>
        <time>2019-04-25T08:50:40Z</time>
      </trkpt>
      <trkpt lat="43.69508" lon="-1.43625">
        <ele>9</ele>
        <time>2019-04-25T08:50:52Z</time>
      </trkpt>
      <trkpt lat="43.69544" lon="-1.43612">
        <ele>9</ele>
        <time>2019-04-25T08:51:04Z</time>
      </trkpt>
      <trkpt lat="43.6956" lon="-1.436">
        <ele>8</ele>
        <time>2019-04-25T08:51:16Z</time>
      </trkpt>
      <trkpt lat="43.69562" lon="-1.43593">
        <ele>8</ele>
        <time>2019-04-25T08:51:22Z</time>
      </trkpt>
      <trkpt lat="43.69558" lon="-1.4356">
        <ele>8</ele>
        <time>2019-04-25T08:51:34Z</time>
      </trkpt>
      <trkpt lat="43.69567" lon="-1.43538">
        <ele>8</ele>
        <time>2019-04-25T08:51:40Z</time>
      </trkpt>
      <trkpt lat="43.6958" lon="-1.43485">
        <ele>8</ele>
        <time>2019-04-25T08:51:52Z</time>
      </trkpt>
      <trkpt lat="43.69613" lon="-1.43412">
        <ele>6</ele>
        <time>2019-04-25T08:52:04Z</time>
      </trkpt>
      <trkpt lat="43.69644" lon="-1.43388">
        <ele>6</ele>
        <time>2019-04-25T08:52:10Z</time>
      </trkpt>
      <trkpt lat="43.69744" lon="-1.43375">
        <ele>6</ele>
        <time>2019-04-25T08:52:28Z</time>
      </trkpt>
      <trkpt lat="43.69777" lon="-1.43382">
        <ele>5</ele>
        <time>2019-04-25T08:52:40Z</time>
      </trkpt>
      <trkpt lat="43.69773" lon="-1.43385">
        <ele>5</ele>
        <time>2019-04-25T09:01:09Z</time>
      </trkpt>
      <trkpt lat="43.69776" lon="-1.43402">
        <ele>5</ele>
        <time>2019-04-25T09:01:27Z</time>
      </trkpt>
      <trkpt lat="43.69802" lon="-1.43443">
        <ele>7</ele>
        <time>2019-04-25T09:01:39Z</time>
      </trkpt>
      <trkpt lat="43.6981" lon="-1.43496">
        <ele>7</ele>
        <time>2019-04-25T09:01:57Z</time>
      </trkpt>
      <trkpt lat="43.69806" lon="-1.43547">
        <ele>8</ele>
        <time>2019-04-25T09:02:15Z</time>
      </trkpt>
      <trkpt lat="43.6977" lon="-1.43664">
        <ele>9</ele>
        <time>2019-04-25T09:02:39Z</time>
      </trkpt>
      <trkpt lat="43.69779" lon="-1.43678">
        <ele>9</ele>
        <time>2019-04-25T09:02:45Z</time>
      </trkpt>
      <trkpt lat="43.6977" lon="-1.43733">
        <ele>11</ele>
        <time>2019-04-25T09:03:03Z</time>
      </trkpt>
      <trkpt lat="43.69773" lon="-1.43801">
        <ele>12</ele>
        <time>2019-04-25T09:03:27Z</time>
      </trkpt>
      <trkpt lat="43.69765" lon="-1.43825">
        <ele>11</ele>
        <time>2019-04-25T09:03:33Z</time>
      </trkpt>
      <trkpt lat="43.69767" lon="-1.4384">
        <ele>10</ele>
        <time>2019-04-25T09:21:27Z</time>
      </trkpt>
      <trkpt lat="43.69765" lon="-1.43803">
        <ele>12</ele>
        <time>2019-04-25T09:22:15Z</time>
      </trkpt>
      <trkpt lat="43.6977" lon="-1.43798">
        <ele>12</ele>
        <time>2019-04-25T09:22:27Z</time>
      </trkpt>
      <trkpt lat="43.69766" lon="-1.43778">
        <ele>11</ele>
        <time>2019-04-25T09:22:39Z</time>
      </trkpt>
      <trkpt lat="43.69767" lon="-1.43735">
        <ele>11</ele>
        <time>2019-04-25T09:22:51Z</time>
      </trkpt>
      <trkpt lat="43.69776" lon="-1.43689">
        <ele>10</ele>
        <time>2019-04-25T09:23:03Z</time>
      </trkpt>
      <trkpt lat="43.69767" lon="-1.43659">
        <ele>9</ele>
        <time>2019-04-25T09:23:15Z</time>
      </trkpt>
      <trkpt lat="43.69808" lon="-1.43521">
        <ele>8</ele>
        <time>2019-04-25T09:23:51Z</time>
      </trkpt>
      <trkpt lat="43.69802" lon="-1.43457">
        <ele>7</ele>
        <time>2019-04-25T09:24:09Z</time>
      </trkpt>
      <trkpt lat="43.69778" lon="-1.43415">
        <ele>6</ele>
        <time>2019-04-25T09:24:21Z</time>
      </trkpt>
      <trkpt lat="43.69791" lon="-1.4337">
        <ele>6</ele>
        <time>2019-04-25T09:24:33Z</time>
      </trkpt>
      <trkpt lat="43.69864" lon="-1.4336">
        <ele>5</ele>
        <time>2019-04-25T09:24:51Z</time>
      </trkpt>
      <trkpt lat="43.69929" lon="-1.43358">
        <ele>7</ele>
        <time>2019-04-25T09:25:09Z</time>
      </trkpt>
      <trkpt lat="43.69943" lon="-1.43353">
        <ele>7</ele>
        <time>2019-04-25T09:25:15Z</time>
      </trkpt>
      <trkpt lat="43.69966" lon="-1.4333">
        <ele>7</ele>
        <time>2019-04-25T09:25:27Z</time>
      </trkpt>
      <trkpt lat="43.69999" lon="-1.4335">
        <ele>8</ele>
        <time>2019-04-25T09:25:45Z</time>
      </trkpt>
      <trkpt lat="43.70187" lon="-1.43347">
        <ele>7</ele>
        <time>2019-04-25T09:26:33Z</time>
      </trkpt>
      <trkpt lat="43.70264" lon="-1.4334">
        <ele>7</ele>
        <time>2019-04-25T09:26:45Z</time>
      </trkpt>
      <trkpt lat="43.70283" lon="-1.43326">
        <ele>7</ele>
        <time>2019-04-25T09:26:51Z</time>
      </trkpt>
      <trkpt lat="43.70316" lon="-1.43317">
        <ele>7</ele>
        <time>2019-04-25T09:27:09Z</time>
      </trkpt>
      <trkpt lat="43.70361" lon="-1.43293">
        <ele>7</ele>
        <time>2019-04-25T09:27:27Z</time>
      </trkpt>
      <trkpt lat="43.70491" lon="-1.4321">
        <ele>6</ele>
        <time>2019-04-25T09:27:57Z</time>
      </trkpt>
      <trkpt lat="43.70516" lon="-1.43175">
        <ele>7</ele>
        <time>2019-04-25T09:28:03Z</time>
      </trkpt>
      <trkpt lat="43.70568" lon="-1.43148">
        <ele>8</ele>
        <time>2019-04-25T09:28:15Z</time>
      </trkpt>
      <trkpt lat="43.70657" lon="-1.43072">
        <ele>8</ele>
        <time>2019-04-25T09:28:33Z</time>
      </trkpt>
      <trkpt lat="43.70699" lon="-1.43028">
        <ele>10</ele>
        <time>2019-04-25T09:28:45Z</time>
      </trkpt>
      <trkpt lat="43.70722" lon="-1.42957">
        <ele>13</ele>
        <time>2019-04-25T09:29:09Z</time>
      </trkpt>
      <trkpt lat="43.70731" lon="-1.42844">
        <ele>16</ele>
        <time>2019-04-25T09:29:27Z</time>
      </trkpt>
      <trkpt lat="43.70772" lon="-1.42747">
        <ele>17</ele>
        <time>2019-04-25T09:29:51Z</time>
      </trkpt>
      <trkpt lat="43.70776" lon="-1.42715">
        <ele>16</ele>
        <time>2019-04-25T09:29:57Z</time>
      </trkpt>
      <trkpt lat="43.70811" lon="-1.42616">
        <ele>17</ele>
        <time>2019-04-25T09:30:21Z</time>
      </trkpt>
      <trkpt lat="43.70828" lon="-1.42553">
        <ele>18</ele>
        <time>2019-04-25T09:30:33Z</time>
      </trkpt>
      <trkpt lat="43.70833" lon="-1.42525">
        <ele>19</ele>
        <time>2019-04-25T09:30:39Z</time>
      </trkpt>
      <trkpt lat="43.70838" lon="-1.42417">
        <ele>21</ele>
        <time>2019-04-25T09:31:00Z</time>
      </trkpt>
      <trkpt lat="43.70816" lon="-1.42353">
        <ele>22</ele>
        <time>2019-04-25T09:31:13Z</time>
      </trkpt>
      <trkpt lat="43.70718" lon="-1.42131">
        <ele>17</ele>
        <time>2019-04-25T09:31:41Z</time>
      </trkpt>
      <trkpt lat="43.70671" lon="-1.42075">
        <ele>16</ele>
        <time>2019-04-25T09:31:53Z</time>
      </trkpt>
      <trkpt lat="43.70614" lon="-1.42053">
        <ele>14</ele>
        <time>2019-04-25T09:32:05Z</time>
      </trkpt>
      <trkpt lat="43.70586" lon="-1.41974">
        <ele>15</ele>
        <time>2019-04-25T09:32:17Z</time>
      </trkpt>
      <trkpt lat="43.70593" lon="-1.41895">
        <ele>14</ele>
        <time>2019-04-25T09:32:29Z</time>
      </trkpt>
      <trkpt lat="43.70588" lon="-1.4186">
        <ele>14</ele>
        <time>2019-04-25T09:32:41Z</time>
      </trkpt>
      <trkpt lat="43.70594" lon="-1.41839">
        <ele>14</ele>
        <time>2019-04-25T09:32:47Z</time>
      </trkpt>
      <trkpt lat="43.70617" lon="-1.41788">
        <ele>13</ele>
        <time>2019-04-25T09:32:59Z</time>
      </trkpt>
      <trkpt lat="43.70668" lon="-1.41764">
        <ele>12</ele>
        <time>2019-04-25T09:33:17Z</time>
      </trkpt>
      <trkpt lat="43.70684" lon="-1.41744">
        <ele>12</ele>
        <time>2019-04-25T09:33:23Z</time>
      </trkpt>
      <trkpt lat="43.70708" lon="-1.41728">
        <ele>13</ele>
        <time>2019-04-25T09:33:29Z</time>
      </trkpt>
      <trkpt lat="43.70752" lon="-1.41688">
        <ele>15</ele>
        <time>2019-04-25T09:33:41Z</time>
      </trkpt>
      <trkpt lat="43.708" lon="-1.41691">
        <ele>18</ele>
        <time>2019-04-25T09:33:53Z</time>
      </trkpt>
      <trkpt lat="43.7085" lon="-1.41729">
        <ele>23</ele>
        <time>2019-04-25T09:34:05Z</time>
      </trkpt>
      <trkpt lat="43.70913" lon="-1.41838">
        <ele>19</ele>
        <time>2019-04-25T09:34:23Z</time>
      </trkpt>
      <trkpt lat="43.7097" lon="-1.41882">
        <ele>14</ele>
        <time>2019-04-25T09:34:35Z</time>
      </trkpt>
      <trkpt lat="43.71005" lon="-1.41894">
        <ele>14</ele>
        <time>2019-04-25T09:34:41Z</time>
      </trkpt>
      <trkpt lat="43.71136" lon="-1.41877">
        <ele>14</ele>
        <time>2019-04-25T09:34:59Z</time>
      </trkpt>
      <trkpt lat="43.71204" lon="-1.41877">
        <ele>13</ele>
        <time>2019-04-25T09:35:11Z</time>
      </trkpt>
      <trkpt lat="43.71251" lon="-1.41916">
        <ele>13</ele>
        <time>2019-04-25T09:35:23Z</time>
      </trkpt>
      <trkpt lat="43.713" lon="-1.41942">
        <ele>11</ele>
        <time>2019-04-25T09:35:35Z</time>
      </trkpt>
      <trkpt lat="43.71359" lon="-1.42018">
        <ele>9</ele>
        <time>2019-04-25T09:35:47Z</time>
      </trkpt>
      <trkpt lat="43.71408" lon="-1.42058">
        <ele>9</ele>
        <time>2019-04-25T09:35:59Z</time>
      </trkpt>
      <trkpt lat="43.71461" lon="-1.42087">
        <ele>9</ele>
        <time>2019-04-25T09:36:11Z</time>
      </trkpt>
      <trkpt lat="43.71527" lon="-1.42097">
        <ele>9</ele>
        <time>2019-04-25T09:36:23Z</time>
      </trkpt>
      <trkpt lat="43.71552" lon="-1.42086">
        <ele>9</ele>
        <time>2019-04-25T09:36:29Z</time>
      </trkpt>
      <trkpt lat="43.71629" lon="-1.42034">
        <ele>7</ele>
        <time>2019-04-25T09:36:47Z</time>
      </trkpt>
      <trkpt lat="43.71647" lon="-1.42009">
        <ele>7</ele>
        <time>2019-04-25T09:36:53Z</time>
      </trkpt>
      <trkpt lat="43.7168" lon="-1.41913">
        <ele>21</ele>
        <time>2019-04-25T09:37:17Z</time>
      </trkpt>
      <trkpt lat="43.7171" lon="-1.41878">
        <ele>22</ele>
        <time>2019-04-25T09:37:29Z</time>
      </trkpt>
      <trkpt lat="43.71765" lon="-1.41827">
        <ele>22</ele>
        <time>2019-04-25T09:37:41Z</time>
      </trkpt>
      <trkpt lat="43.71868" lon="-1.41703">
        <ele>19</ele>
        <time>2019-04-25T09:37:59Z</time>
      </trkpt>
      <trkpt lat="43.71912" lon="-1.41671">
        <ele>15</ele>
        <time>2019-04-25T09:38:05Z</time>
      </trkpt>
      <trkpt lat="43.7198" lon="-1.41596">
        <ele>16</ele>
        <time>2019-04-25T09:38:17Z</time>
      </trkpt>
      <trkpt lat="43.72027" lon="-1.41562">
        <ele>22</ele>
        <time>2019-04-25T09:38:23Z</time>
      </trkpt>
      <trkpt lat="43.72072" lon="-1.41544">
        <ele>24</ele>
        <time>2019-04-25T09:38:29Z</time>
      </trkpt>
      <trkpt lat="43.72163" lon="-1.41496">
        <ele>19</ele>
        <time>2019-04-25T09:38:47Z</time>
      </trkpt>
      <trkpt lat="43.72252" lon="-1.41425">
        <ele>19</ele>
        <time>2019-04-25T09:39:05Z</time>
      </trkpt>
      <trkpt lat="43.723" lon="-1.41371">
        <ele>19</ele>
        <time>2019-04-25T09:39:17Z</time>
      </trkpt>
      <trkpt lat="43.72331" lon="-1.41355">
        <ele>19</ele>
        <time>2019-04-25T09:39:23Z</time>
      </trkpt>
      <trkpt lat="43.72376" lon="-1.41353">
        <ele>19</ele>
        <time>2019-04-25T09:39:29Z</time>
      </trkpt>
      <trkpt lat="43.72449" lon="-1.41327">
        <ele>23</ele>
        <time>2019-04-25T09:39:41Z</time>
      </trkpt>
      <trkpt lat="43.72606" lon="-1.41219">
        <ele>16</ele>
        <time>2019-04-25T09:40:17Z</time>
      </trkpt>
      <trkpt lat="43.72658" lon="-1.41175">
        <ele>17</ele>
        <time>2019-04-25T09:40:47Z</time>
      </trkpt>
      <trkpt lat="43.72699" lon="-1.41155">
        <ele>16</ele>
        <time>2019-04-25T09:41:05Z</time>
      </trkpt>
      <trkpt lat="43.72739" lon="-1.41128">
        <ele>16</ele>
        <time>2019-04-25T09:41:17Z</time>
      </trkpt>
      <trkpt lat="43.72771" lon="-1.41122">
        <ele>16</ele>
        <time>2019-04-25T09:41:23Z</time>
      </trkpt>
      <trkpt lat="43.72838" lon="-1.41133">
        <ele>16</ele>
        <time>2019-04-25T09:41:35Z</time>
      </trkpt>
      <trkpt lat="43.72932" lon="-1.41187">
        <ele>15</ele>
        <time>2019-04-25T09:41:53Z</time>
      </trkpt>
      <trkpt lat="43.72985" lon="-1.41232">
        <ele>16</ele>
        <time>2019-04-25T09:42:05Z</time>
      </trkpt>
      <trkpt lat="43.73041" lon="-1.41271">
        <ele>16</ele>
        <time>2019-04-25T09:42:17Z</time>
      </trkpt>
      <trkpt lat="43.73109" lon="-1.41264">
        <ele>15</ele>
        <time>2019-04-25T09:42:29Z</time>
      </trkpt>
      <trkpt lat="43.73174" lon="-1.41225">
        <ele>16</ele>
        <time>2019-04-25T09:42:47Z</time>
      </trkpt>
      <trkpt lat="43.7322" lon="-1.41203">
        <ele>15</ele>
        <time>2019-04-25T09:42:59Z</time>
      </trkpt>
      <trkpt lat="43.73351" lon="-1.41111">
        <ele>14</ele>
        <time>2019-04-25T09:43:29Z</time>
      </trkpt>
      <trkpt lat="43.73439" lon="-1.41115">
        <ele>13</ele>
        <time>2019-04-25T09:43:41Z</time>
      </trkpt>
      <trkpt lat="43.7353" lon="-1.41165">
        <ele>13</ele>
        <time>2019-04-25T09:43:59Z</time>
      </trkpt>
      <trkpt lat="43.73599" lon="-1.4119">
        <ele>14</ele>
        <time>2019-04-25T09:44:11Z</time>
      </trkpt>
      <trkpt lat="43.73665" lon="-1.4117">
        <ele>16</ele>
        <time>2019-04-25T09:44:23Z</time>
      </trkpt>
      <trkpt lat="43.7376" lon="-1.41122">
        <ele>13</ele>
        <time>2019-04-25T09:44:35Z</time>
      </trkpt>
      <trkpt lat="43.73833" lon="-1.41074">
        <ele>11</ele>
        <time>2019-04-25T09:44:47Z</time>
      </trkpt>
      <trkpt lat="43.73929" lon="-1.40993">
        <ele>11</ele>
        <time>2019-04-25T09:45:05Z</time>
      </trkpt>
      <trkpt lat="43.74013" lon="-1.40913">
        <ele>8</ele>
        <time>2019-04-25T09:45:23Z</time>
      </trkpt>
      <trkpt lat="43.74085" lon="-1.40869">
        <ele>8</ele>
        <time>2019-04-25T09:45:35Z</time>
      </trkpt>
      <trkpt lat="43.74145" lon="-1.40821">
        <ele>9</ele>
        <time>2019-04-25T09:45:47Z</time>
      </trkpt>
      <trkpt lat="43.74233" lon="-1.4074">
        <ele>11</ele>
        <time>2019-04-25T09:46:05Z</time>
      </trkpt>
      <trkpt lat="43.74267" lon="-1.40721">
        <ele>11</ele>
        <time>2019-04-25T09:46:11Z</time>
      </trkpt>
      <trkpt lat="43.74567" lon="-1.4049">
        <ele>15</ele>
        <time>2019-04-25T09:47:05Z</time>
      </trkpt>
      <trkpt lat="43.74626" lon="-1.40432">
        <ele>10</ele>
        <time>2019-04-25T09:47:17Z</time>
      </trkpt>
      <trkpt lat="43.74694" lon="-1.40373">
        <ele>18</ele>
        <time>2019-04-25T09:47:29Z</time>
      </trkpt>
      <trkpt lat="43.74974" lon="-1.4016">
        <ele>19</ele>
        <time>2019-04-25T09:48:17Z</time>
      </trkpt>
      <trkpt lat="43.75084" lon="-1.40061">
        <ele>17</ele>
        <time>2019-04-25T09:48:40Z</time>
      </trkpt>
      <trkpt lat="43.75126" lon="-1.40018">
        <ele>13</ele>
        <time>2019-04-25T09:48:52Z</time>
      </trkpt>
      <trkpt lat="43.75152" lon="-1.39951">
        <ele>15</ele>
        <time>2019-04-25T09:49:04Z</time>
      </trkpt>
      <trkpt lat="43.75202" lon="-1.39899">
        <ele>16</ele>
        <time>2019-04-25T09:49:16Z</time>
      </trkpt>
      <trkpt lat="43.75466" lon="-1.39741">
        <ele>17</ele>
        <time>2019-04-25T09:50:07Z</time>
      </trkpt>
      <trkpt lat="43.75584" lon="-1.39658">
        <ele>14</ele>
        <time>2019-04-25T09:50:25Z</time>
      </trkpt>
      <trkpt lat="43.75714" lon="-1.39557">
        <ele>14</ele>
        <time>2019-04-25T09:50:49Z</time>
      </trkpt>
      <trkpt lat="43.758" lon="-1.39484">
        <ele>17</ele>
        <time>2019-04-25T09:51:07Z</time>
      </trkpt>
      <trkpt lat="43.75819" lon="-1.39464">
        <ele>17</ele>
        <time>2019-04-25T09:51:13Z</time>
      </trkpt>
      <trkpt lat="43.75844" lon="-1.39404">
        <ele>18</ele>
        <time>2019-04-25T09:51:25Z</time>
      </trkpt>
      <trkpt lat="43.75911" lon="-1.39336">
        <ele>19</ele>
        <time>2019-04-25T09:51:43Z</time>
      </trkpt>
      <trkpt lat="43.76107" lon="-1.39225">
        <ele>10</ele>
        <time>2019-04-25T09:52:31Z</time>
      </trkpt>
      <trkpt lat="43.76199" lon="-1.39161">
        <ele>12</ele>
        <time>2019-04-25T09:52:37Z</time>
      </trkpt>
      <trkpt lat="43.7623" lon="-1.39136">
        <ele>12</ele>
        <time>2019-04-25T09:52:43Z</time>
      </trkpt>
      <trkpt lat="43.76252" lon="-1.39108">
        <ele>12</ele>
        <time>2019-04-25T09:53:37Z</time>
      </trkpt>
      <trkpt lat="43.76283" lon="-1.39108">
        <ele>12</ele>
        <time>2019-04-25T09:55:25Z</time>
      </trkpt>
      <trkpt lat="43.76295" lon="-1.39122">
        <ele>12</ele>
        <time>2019-04-25T09:55:43Z</time>
      </trkpt>
      <trkpt lat="43.76381" lon="-1.39171">
        <ele>10</ele>
        <time>2019-04-25T09:56:13Z</time>
      </trkpt>
      <trkpt lat="43.76463" lon="-1.39201">
        <ele>7</ele>
        <time>2019-04-25T09:56:37Z</time>
      </trkpt>
      <trkpt lat="43.76606" lon="-1.39281">
        <ele>6</ele>
        <time>2019-04-25T09:57:07Z</time>
      </trkpt>
      <trkpt lat="43.76715" lon="-1.39335">
        <ele>12</ele>
        <time>2019-04-25T09:57:31Z</time>
      </trkpt>
      <trkpt lat="43.76771" lon="-1.39341">
        <ele>13</ele>
        <time>2019-04-25T09:57:43Z</time>
      </trkpt>
      <trkpt lat="43.76831" lon="-1.39356">
        <ele>12</ele>
        <time>2019-04-25T09:57:55Z</time>
      </trkpt>
      <trkpt lat="43.76932" lon="-1.39327">
        <ele>6</ele>
        <time>2019-04-25T09:58:19Z</time>
      </trkpt>
      <trkpt lat="43.76986" lon="-1.39299">
        <ele>6</ele>
        <time>2019-04-25T09:58:31Z</time>
      </trkpt>
      <trkpt lat="43.77037" lon="-1.39284">
        <ele>5</ele>
        <time>2019-04-25T09:58:43Z</time>
      </trkpt>
      <trkpt lat="43.77102" lon="-1.39319">
        <ele>5</ele>
        <time>2019-04-25T09:59:01Z</time>
      </trkpt>
      <trkpt lat="43.77154" lon="-1.3934">
        <ele>7</ele>
        <time>2019-04-25T09:59:13Z</time>
      </trkpt>
      <trkpt lat="43.77272" lon="-1.39419">
        <ele>6</ele>
        <time>2019-04-25T09:59:43Z</time>
      </trkpt>
      <trkpt lat="43.77381" lon="-1.39481">
        <ele>4</ele>
        <time>2019-04-25T10:00:13Z</time>
      </trkpt>
      <trkpt lat="43.77404" lon="-1.39471">
        <ele>4</ele>
        <time>2019-04-25T10:00:25Z</time>
      </trkpt>
      <trkpt lat="43.77432" lon="-1.3939">
        <ele>3</ele>
        <time>2019-04-25T10:00:55Z</time>
      </trkpt>
      <trkpt lat="43.77467" lon="-1.39363">
        <ele>3</ele>
        <time>2019-04-25T10:01:07Z</time>
      </trkpt>
      <trkpt lat="43.77556" lon="-1.39405">
        <ele>3</ele>
        <time>2019-04-25T10:01:31Z</time>
      </trkpt>
      <trkpt lat="43.77655" lon="-1.39463">
        <ele>7</ele>
        <time>2019-04-25T10:01:55Z</time>
      </trkpt>
      <trkpt lat="43.77677" lon="-1.39467">
        <ele>7</ele>
        <time>2019-04-25T10:02:01Z</time>
      </trkpt>
      <trkpt lat="43.7791" lon="-1.39591">
        <ele>14</ele>
        <time>2019-04-25T10:02:49Z</time>
      </trkpt>
      <trkpt lat="43.78023" lon="-1.39623">
        <ele>9</ele>
        <time>2019-04-25T10:03:13Z</time>
      </trkpt>
      <trkpt lat="43.7812" lon="-1.39627">
        <ele>8</ele>
        <time>2019-04-25T10:03:31Z</time>
      </trkpt>
      <trkpt lat="43.7819" lon="-1.39625">
        <ele>8</ele>
        <time>2019-04-25T10:03:43Z</time>
      </trkpt>
      <trkpt lat="43.78216" lon="-1.39619">
        <ele>7</ele>
        <time>2019-04-25T10:03:49Z</time>
      </trkpt>
      <trkpt lat="43.78269" lon="-1.39616">
        <ele>6</ele>
        <time>2019-04-25T10:04:01Z</time>
      </trkpt>
      <trkpt lat="43.78333" lon="-1.3962">
        <ele>4</ele>
        <time>2019-04-25T10:04:13Z</time>
      </trkpt>
      <trkpt lat="43.78391" lon="-1.39613">
        <ele>4</ele>
        <time>2019-04-25T10:04:25Z</time>
      </trkpt>
      <trkpt lat="43.78497" lon="-1.3957">
        <ele>5</ele>
        <time>2019-04-25T10:04:55Z</time>
      </trkpt>
      <trkpt lat="43.78542" lon="-1.39556">
        <ele>5</ele>
        <time>2019-04-25T10:05:07Z</time>
      </trkpt>
      <trkpt lat="43.78585" lon="-1.39534">
        <ele>5</ele>
        <time>2019-04-25T10:05:19Z</time>
      </trkpt>
      <trkpt lat="43.78609" lon="-1.39529">
        <ele>6</ele>
        <time>2019-04-25T10:05:43Z</time>
      </trkpt>
      <trkpt lat="43.78621" lon="-1.39596">
        <ele>6</ele>
        <time>2019-04-25T10:06:01Z</time>
      </trkpt>
      <trkpt lat="43.78617" lon="-1.39761">
        <ele>5</ele>
        <time>2019-04-25T10:06:37Z</time>
      </trkpt>
      <trkpt lat="43.78613" lon="-1.39776">
        <ele>5</ele>
        <time>2019-04-25T10:06:55Z</time>
      </trkpt>
      <trkpt lat="43.78597" lon="-1.3978">
        <ele>5</ele>
        <time>2019-04-25T10:07:01Z</time>
      </trkpt>
      <trkpt lat="43.78582" lon="-1.39799">
        <ele>5</ele>
        <time>2019-04-25T10:07:13Z</time>
      </trkpt>
      <trkpt lat="43.7858" lon="-1.39843">
        <ele>4</ele>
        <time>2019-04-25T10:07:31Z</time>
      </trkpt>
      <trkpt lat="43.78587" lon="-1.39888">
        <ele>4</ele>
        <time>2019-04-25T10:07:43Z</time>
      </trkpt>
      <trkpt lat="43.78586" lon="-1.39913">
        <ele>4</ele>
        <time>2019-04-25T10:08:07Z</time>
      </trkpt>
      <trkpt lat="43.7859" lon="-1.39926">
        <ele>4</ele>
        <time>2019-04-25T10:08:31Z</time>
      </trkpt>
      <trkpt lat="43.78582" lon="-1.39933">
        <ele>4</ele>
        <time>2019-04-25T10:16:25Z</time>
      </trkpt>
      <trkpt lat="43.7859" lon="-1.39941">
        <ele>4</ele>
        <time>2019-04-25T10:16:49Z</time>
      </trkpt>
      <trkpt lat="43.78592" lon="-1.3996">
        <ele>4</ele>
        <time>2019-04-25T10:17:13Z</time>
      </trkpt>
      <trkpt lat="43.78609" lon="-1.40004">
        <ele>5</ele>
        <time>2019-04-25T10:17:49Z</time>
      </trkpt>
      <trkpt lat="43.78602" lon="-1.40005">
        <ele>5</ele>
        <time>2019-04-25T10:18:01Z</time>
      </trkpt>
      <trkpt lat="43.786" lon="-1.40031">
        <ele>5</ele>
        <time>2019-04-25T10:18:25Z</time>
      </trkpt>
      <trkpt lat="43.78607" lon="-1.40056">
        <ele>5</ele>
        <time>2019-04-25T10:18:43Z</time>
      </trkpt>
      <trkpt lat="43.78609" lon="-1.40096">
        <ele>4</ele>
        <time>2019-04-25T10:19:13Z</time>
      </trkpt>
      <trkpt lat="43.78626" lon="-1.40131">
        <ele>4</ele>
        <time>2019-04-25T10:19:37Z</time>
      </trkpt>
      <trkpt lat="43.78622" lon="-1.40147">
        <ele>3</ele>
        <time>2019-04-25T10:19:49Z</time>
      </trkpt>
      <trkpt lat="43.78626" lon="-1.40162">
        <ele>3</ele>
        <time>2019-04-25T10:20:01Z</time>
      </trkpt>
      <trkpt lat="43.78633" lon="-1.40172">
        <ele>3</ele>
        <time>2019-04-25T10:20:13Z</time>
      </trkpt>
      <trkpt lat="43.78657" lon="-1.40185">
        <ele>3</ele>
        <time>2019-04-25T10:31:49Z</time>
      </trkpt>
      <trkpt lat="43.7862" lon="-1.40165">
        <ele>3</ele>
        <time>2019-04-25T10:33:37Z</time>
      </trkpt>
      <trkpt lat="43.78617" lon="-1.40145">
        <ele>3</ele>
        <time>2019-04-25T10:34:01Z</time>
      </trkpt>
      <trkpt lat="43.78624" lon="-1.40134">
        <ele>4</ele>
        <time>2019-04-25T10:34:13Z</time>
      </trkpt>
      <trkpt lat="43.78666" lon="-1.4012">
        <ele>3</ele>
        <time>2019-04-25T10:35:07Z</time>
      </trkpt>
      <trkpt lat="43.78677" lon="-1.40111">
        <ele>3</ele>
        <time>2019-04-25T10:35:25Z</time>
      </trkpt>
      <trkpt lat="43.78737" lon="-1.40097">
        <ele>3</ele>
        <time>2019-04-25T10:36:00Z</time>
      </trkpt>
      <trkpt lat="43.78779" lon="-1.40071">
        <ele>4</ele>
        <time>2019-04-25T10:36:18Z</time>
      </trkpt>
      <trkpt lat="43.78793" lon="-1.40071">
        <ele>4</ele>
        <time>2019-04-25T10:36:24Z</time>
      </trkpt>
      <trkpt lat="43.78802" lon="-1.40085">
        <ele>3</ele>
        <time>2019-04-25T10:36:42Z</time>
      </trkpt>
      <trkpt lat="43.78798" lon="-1.40091">
        <ele>3</ele>
        <time>2019-04-25T10:37:00Z</time>
      </trkpt>
      <trkpt lat="43.78796" lon="-1.40088">
        <ele>3</ele>
        <time>2019-04-25T10:37:06Z</time>
      </trkpt>
      <trkpt lat="43.78811" lon="-1.40076">
        <ele>3</ele>
        <time>2019-04-25T10:37:24Z</time>
      </trkpt>
      <trkpt lat="43.78814" lon="-1.40075">
        <ele>4</ele>
        <time>2019-04-25T10:37:30Z</time>
      </trkpt>
      <trkpt lat="43.78819" lon="-1.40083">
        <ele>3</ele>
        <time>2019-04-25T10:38:36Z</time>
      </trkpt>
      <trkpt lat="43.78821" lon="-1.4008">
        <ele>3</ele>
        <time>2019-04-25T10:40:30Z</time>
      </trkpt>
      <trkpt lat="43.78819" lon="-1.40078">
        <ele>3</ele>
        <time>2019-04-25T10:41:18Z</time>
      </trkpt>
      <trkpt lat="43.78822" lon="-1.4008">
        <ele>3</ele>
        <time>2019-04-25T10:47:36Z</time>
      </trkpt>
      <trkpt lat="43.78819" lon="-1.40078">
        <ele>3</ele>
        <time>2019-04-25T10:49:36Z</time>
      </trkpt>
      <trkpt lat="43.78822" lon="-1.40078">
        <ele>3</ele>
        <time>2019-04-25T10:54:36Z</time>
      </trkpt>
      <trkpt lat="43.78817" lon="-1.4008">
        <ele>3</ele>
        <time>2019-04-25T11:11:42Z</time>
      </trkpt>
      <trkpt lat="43.7882" lon="-1.40082">
        <ele>3</ele>
        <time>2019-04-25T11:13:30Z</time>
      </trkpt>
      <trkpt lat="43.78824" lon="-1.40078">
        <ele>3</ele>
        <time>2019-04-25T11:24:47Z</time>
      </trkpt>
      <trkpt lat="43.78821" lon="-1.40078">
        <ele>3</ele>
        <time>2019-04-25T11:29:47Z</time>
      </trkpt>
      <trkpt lat="43.78821" lon="-1.40082">
        <ele>3</ele>
        <time>2019-04-25T11:33:53Z</time>
      </trkpt>
      <trkpt lat="43.78823" lon="-1.40079">
        <ele>3</ele>
        <time>2019-04-25T11:35:29Z</time>
      </trkpt>
      <trkpt lat="43.78817" lon="-1.40077">
        <ele>3</ele>
        <time>2019-04-25T11:36:23Z</time>
      </trkpt>
      <trkpt lat="43.78691" lon="-1.40123">
        <ele>3</ele>
        <time>2019-04-25T11:37:23Z</time>
      </trkpt>
      <trkpt lat="43.78637" lon="-1.40138">
        <ele>4</ele>
        <time>2019-04-25T11:37:59Z</time>
      </trkpt>
      <trkpt lat="43.78628" lon="-1.40136">
        <ele>4</ele>
        <time>2019-04-25T11:38:05Z</time>
      </trkpt>
      <trkpt lat="43.78615" lon="-1.401">
        <ele>4</ele>
        <time>2019-04-25T11:38:23Z</time>
      </trkpt>
      <trkpt lat="43.78604" lon="-1.4008">
        <ele>4</ele>
        <time>2019-04-25T11:38:41Z</time>
      </trkpt>
      <trkpt lat="43.78611" lon="-1.40065">
        <ele>5</ele>
        <time>2019-04-25T11:40:47Z</time>
      </trkpt>
      <trkpt lat="43.78615" lon="-1.40063">
        <ele>5</ele>
        <time>2019-04-25T11:41:05Z</time>
      </trkpt>
      <trkpt lat="43.78615" lon="-1.4007">
        <ele>5</ele>
        <time>2019-04-25T11:45:59Z</time>
      </trkpt>
      <trkpt lat="43.78617" lon="-1.40061">
        <ele>5</ele>
        <time>2019-04-25T11:53:17Z</time>
      </trkpt>
      <trkpt lat="43.78616" lon="-1.40065">
        <ele>5</ele>
        <time>2019-04-25T11:55:17Z</time>
      </trkpt>
      <trkpt lat="43.78614" lon="-1.40062">
        <ele>5</ele>
        <time>2019-04-25T11:58:05Z</time>
      </trkpt>
      <trkpt lat="43.78618" lon="-1.40061">
        <ele>5</ele>
        <time>2019-04-25T11:59:59Z</time>
      </trkpt>
      <trkpt lat="43.78612" lon="-1.40063">
        <ele>5</ele>
        <time>2019-04-25T12:00:59Z</time>
      </trkpt>
      <trkpt lat="43.7861" lon="-1.4007">
        <ele>5</ele>
        <time>2019-04-25T12:01:29Z</time>
      </trkpt>
      <trkpt lat="43.78608" lon="-1.40061">
        <ele>5</ele>
        <time>2019-04-25T12:04:35Z</time>
      </trkpt>
      <trkpt lat="43.78611" lon="-1.4006">
        <ele>5</ele>
        <time>2019-04-25T12:07:58Z</time>
      </trkpt>
      <trkpt lat="43.78604" lon="-1.40064">
        <ele>5</ele>
        <time>2019-04-25T12:09:46Z</time>
      </trkpt>
      <trkpt lat="43.78602" lon="-1.40059">
        <ele>5</ele>
        <time>2019-04-25T12:10:04Z</time>
      </trkpt>
      <trkpt lat="43.78595" lon="-1.39988">
        <ele>4</ele>
        <time>2019-04-25T12:10:22Z</time>
      </trkpt>
      <trkpt lat="43.78572" lon="-1.39853">
        <ele>4</ele>
        <time>2019-04-25T12:10:58Z</time>
      </trkpt>
      <trkpt lat="43.7857" lon="-1.39816">
        <ele>4</ele>
        <time>2019-04-25T12:11:10Z</time>
      </trkpt>
      <trkpt lat="43.78565" lon="-1.39809">
        <ele>4</ele>
        <time>2019-04-25T12:11:40Z</time>
      </trkpt>
      <trkpt lat="43.78573" lon="-1.39797">
        <ele>5</ele>
        <time>2019-04-25T12:11:46Z</time>
      </trkpt>
      <trkpt lat="43.78609" lon="-1.39765">
        <ele>5</ele>
        <time>2019-04-25T12:12:04Z</time>
      </trkpt>
      <trkpt lat="43.78606" lon="-1.39744">
        <ele>5</ele>
        <time>2019-04-25T12:12:10Z</time>
      </trkpt>
      <trkpt lat="43.78617" lon="-1.39619">
        <ele>6</ele>
        <time>2019-04-25T12:12:40Z</time>
      </trkpt>
      <trkpt lat="43.78609" lon="-1.39541">
        <ele>6</ele>
        <time>2019-04-25T12:12:58Z</time>
      </trkpt>
      <trkpt lat="43.78627" lon="-1.39525">
        <ele>6</ele>
        <time>2019-04-25T12:13:04Z</time>
      </trkpt>
      <trkpt lat="43.78695" lon="-1.39491">
        <ele>6</ele>
        <time>2019-04-25T12:13:22Z</time>
      </trkpt>
      <trkpt lat="43.78767" lon="-1.39434">
        <ele>7</ele>
        <time>2019-04-25T12:13:40Z</time>
      </trkpt>
      <trkpt lat="43.78812" lon="-1.39389">
        <ele>6</ele>
        <time>2019-04-25T12:13:52Z</time>
      </trkpt>
      <trkpt lat="43.78999" lon="-1.39168">
        <ele>5</ele>
        <time>2019-04-25T12:14:52Z</time>
      </trkpt>
      <trkpt lat="43.79134" lon="-1.38994">
        <ele>7</ele>
        <time>2019-04-25T12:15:34Z</time>
      </trkpt>
      <trkpt lat="43.79288" lon="-1.38823">
        <ele>13</ele>
        <time>2019-04-25T12:16:16Z</time>
      </trkpt>
      <trkpt lat="43.7933" lon="-1.38766">
        <ele>7</ele>
        <time>2019-04-25T12:16:34Z</time>
      </trkpt>
      <trkpt lat="43.79357" lon="-1.38722">
        <ele>7</ele>
        <time>2019-04-25T12:16:46Z</time>
      </trkpt>
      <trkpt lat="43.79447" lon="-1.38619">
        <ele>8</ele>
        <time>2019-04-25T12:17:10Z</time>
      </trkpt>
      <trkpt lat="43.79507" lon="-1.38538">
        <ele>8</ele>
        <time>2019-04-25T12:17:28Z</time>
      </trkpt>
      <trkpt lat="43.79572" lon="-1.38469">
        <ele>11</ele>
        <time>2019-04-25T12:17:46Z</time>
      </trkpt>
      <trkpt lat="43.79694" lon="-1.38321">
        <ele>12</ele>
        <time>2019-04-25T12:18:22Z</time>
      </trkpt>
      <trkpt lat="43.79741" lon="-1.38286">
        <ele>9</ele>
        <time>2019-04-25T12:18:34Z</time>
      </trkpt>
      <trkpt lat="43.79863" lon="-1.38211">
        <ele>5</ele>
        <time>2019-04-25T12:19:04Z</time>
      </trkpt>
      <trkpt lat="43.79895" lon="-1.38199">
        <ele>4</ele>
        <time>2019-04-25T12:19:10Z</time>
      </trkpt>
      <trkpt lat="43.80058" lon="-1.38108">
        <ele>8</ele>
        <time>2019-04-25T12:19:46Z</time>
      </trkpt>
      <trkpt lat="43.80112" lon="-1.38071">
        <ele>9</ele>
        <time>2019-04-25T12:19:58Z</time>
      </trkpt>
      <trkpt lat="43.8029" lon="-1.37899">
        <ele>12</ele>
        <time>2019-04-25T12:20:40Z</time>
      </trkpt>
      <trkpt lat="43.80364" lon="-1.37819">
        <ele>11</ele>
        <time>2019-04-25T12:20:58Z</time>
      </trkpt>
      <trkpt lat="43.8043" lon="-1.3776">
        <ele>12</ele>
        <time>2019-04-25T12:21:16Z</time>
      </trkpt>
      <trkpt lat="43.80463" lon="-1.37718">
        <ele>14</ele>
        <time>2019-04-25T12:21:28Z</time>
      </trkpt>
      <trkpt lat="43.80529" lon="-1.37657">
        <ele>13</ele>
        <time>2019-04-25T12:21:46Z</time>
      </trkpt>
      <trkpt lat="43.80572" lon="-1.37607">
        <ele>13</ele>
        <time>2019-04-25T12:21:58Z</time>
      </trkpt>
      <trkpt lat="43.80659" lon="-1.37531">
        <ele>12</ele>
        <time>2019-04-25T12:22:22Z</time>
      </trkpt>
      <trkpt lat="43.80828" lon="-1.37363">
        <ele>7</ele>
        <time>2019-04-25T12:23:10Z</time>
      </trkpt>
      <trkpt lat="43.80951" lon="-1.3725">
        <ele>9</ele>
        <time>2019-04-25T12:23:46Z</time>
      </trkpt>
      <trkpt lat="43.80953" lon="-1.37237">
        <ele>9</ele>
        <time>2019-04-25T12:23:52Z</time>
      </trkpt>
      <trkpt lat="43.80971" lon="-1.37223">
        <ele>9</ele>
        <time>2019-04-25T12:23:58Z</time>
      </trkpt>
      <trkpt lat="43.81078" lon="-1.37108">
        <ele>19</ele>
        <time>2019-04-25T12:24:28Z</time>
      </trkpt>
      <trkpt lat="43.8133" lon="-1.36876">
        <ele>19</ele>
        <time>2019-04-25T12:25:28Z</time>
      </trkpt>
      <trkpt lat="43.81408" lon="-1.3683">
        <ele>19</ele>
        <time>2019-04-25T12:25:46Z</time>
      </trkpt>
      <trkpt lat="43.8149" lon="-1.36811">
        <ele>16</ele>
        <time>2019-04-25T12:26:10Z</time>
      </trkpt>
      <trkpt lat="43.81562" lon="-1.36783">
        <ele>15</ele>
        <time>2019-04-25T12:26:28Z</time>
      </trkpt>
      <trkpt lat="43.81621" lon="-1.36777">
        <ele>16</ele>
        <time>2019-04-25T12:26:40Z</time>
      </trkpt>
      <trkpt lat="43.81765" lon="-1.3675">
        <ele>15</ele>
        <time>2019-04-25T12:27:10Z</time>
      </trkpt>
      <trkpt lat="43.81887" lon="-1.36734">
        <ele>13</ele>
        <time>2019-04-25T12:27:34Z</time>
      </trkpt>
      <trkpt lat="43.82236" lon="-1.36541">
        <ele>24</ele>
        <time>2019-04-25T12:28:46Z</time>
      </trkpt>
      <trkpt lat="43.82338" lon="-1.36475">
        <ele>15</ele>
        <time>2019-04-25T12:29:10Z</time>
      </trkpt>
      <trkpt lat="43.82419" lon="-1.36432">
        <ele>14</ele>
        <time>2019-04-25T12:29:28Z</time>
      </trkpt>
      <trkpt lat="43.82493" lon="-1.36382">
        <ele>14</ele>
        <time>2019-04-25T12:29:46Z</time>
      </trkpt>
      <trkpt lat="43.82661" lon="-1.36293">
        <ele>27</ele>
        <time>2019-04-25T12:30:22Z</time>
      </trkpt>
      <trkpt lat="43.82713" lon="-1.36261">
        <ele>28</ele>
        <time>2019-04-25T12:30:34Z</time>
      </trkpt>
      <trkpt lat="43.82779" lon="-1.36234">
        <ele>27</ele>
        <time>2019-04-25T12:30:46Z</time>
      </trkpt>
      <trkpt lat="43.83268" lon="-1.35957">
        <ele>25</ele>
        <time>2019-04-25T12:32:34Z</time>
      </trkpt>
      <trkpt lat="43.83355" lon="-1.35942">
        <ele>26</ele>
        <time>2019-04-25T12:32:52Z</time>
      </trkpt>
      <trkpt lat="43.83504" lon="-1.35952">
        <ele>24</ele>
        <time>2019-04-25T12:33:22Z</time>
      </trkpt>
      <trkpt lat="43.83615" lon="-1.35951">
        <ele>22</ele>
        <time>2019-04-25T12:33:46Z</time>
      </trkpt>
      <trkpt lat="43.83726" lon="-1.35909">
        <ele>22</ele>
        <time>2019-04-25T12:34:10Z</time>
      </trkpt>
      <trkpt lat="43.83783" lon="-1.35878">
        <ele>20</ele>
        <time>2019-04-25T12:34:22Z</time>
      </trkpt>
      <trkpt lat="43.83812" lon="-1.35857">
        <ele>23</ele>
        <time>2019-04-25T12:34:28Z</time>
      </trkpt>
      <trkpt lat="43.83897" lon="-1.35809">
        <ele>25</ele>
        <time>2019-04-25T12:34:46Z</time>
      </trkpt>
      <trkpt lat="43.8395" lon="-1.35774">
        <ele>30</ele>
        <time>2019-04-25T12:34:58Z</time>
      </trkpt>
      <trkpt lat="43.84044" lon="-1.35723">
        <ele>25</ele>
        <time>2019-04-25T12:35:16Z</time>
      </trkpt>
      <trkpt lat="43.84097" lon="-1.35688">
        <ele>22</ele>
        <time>2019-04-25T12:35:28Z</time>
      </trkpt>
      <trkpt lat="43.84147" lon="-1.35648">
        <ele>23</ele>
        <time>2019-04-25T12:35:40Z</time>
      </trkpt>
      <trkpt lat="43.84383" lon="-1.3553">
        <ele>23</ele>
        <time>2019-04-25T12:36:34Z</time>
      </trkpt>
      <trkpt lat="43.84415" lon="-1.35502">
        <ele>20</ele>
        <time>2019-04-25T12:36:46Z</time>
      </trkpt>
      <trkpt lat="43.84456" lon="-1.3548">
        <ele>19</ele>
        <time>2019-04-25T12:36:58Z</time>
      </trkpt>
      <trkpt lat="43.84497" lon="-1.35449">
        <ele>19</ele>
        <time>2019-04-25T12:37:10Z</time>
      </trkpt>
      <trkpt lat="43.84526" lon="-1.35439">
        <ele>19</ele>
        <time>2019-04-25T12:37:16Z</time>
      </trkpt>
      <trkpt lat="43.84642" lon="-1.35377">
        <ele>21</ele>
        <time>2019-04-25T12:37:46Z</time>
      </trkpt>
      <trkpt lat="43.84758" lon="-1.35305">
        <ele>21</ele>
        <time>2019-04-25T12:38:16Z</time>
      </trkpt>
      <trkpt lat="43.84859" lon="-1.35232">
        <ele>19</ele>
        <time>2019-04-25T12:39:04Z</time>
      </trkpt>
      <trkpt lat="43.84899" lon="-1.35211">
        <ele>18</ele>
        <time>2019-04-25T12:39:16Z</time>
      </trkpt>
      <trkpt lat="43.84971" lon="-1.35153">
        <ele>18</ele>
        <time>2019-04-25T12:39:34Z</time>
      </trkpt>
      <trkpt lat="43.85033" lon="-1.35062">
        <ele>17</ele>
        <time>2019-04-25T12:39:52Z</time>
      </trkpt>
      <trkpt lat="43.85101" lon="-1.34934">
        <ele>17</ele>
        <time>2019-04-25T12:40:16Z</time>
      </trkpt>
      <trkpt lat="43.85171" lon="-1.34785">
        <ele>22</ele>
        <time>2019-04-25T12:40:46Z</time>
      </trkpt>
      <trkpt lat="43.85243" lon="-1.34648">
        <ele>22</ele>
        <time>2019-04-25T12:41:10Z</time>
      </trkpt>
      <trkpt lat="43.85296" lon="-1.34522">
        <ele>21</ele>
        <time>2019-04-25T12:41:34Z</time>
      </trkpt>
      <trkpt lat="43.85466" lon="-1.34202">
        <ele>24</ele>
        <time>2019-04-25T12:42:34Z</time>
      </trkpt>
      <trkpt lat="43.8551" lon="-1.34105">
        <ele>25</ele>
        <time>2019-04-25T12:42:52Z</time>
      </trkpt>
      <trkpt lat="43.85601" lon="-1.33959">
        <ele>38</ele>
        <time>2019-04-25T12:43:22Z</time>
      </trkpt>
      <trkpt lat="43.85671" lon="-1.33855">
        <ele>36</ele>
        <time>2019-04-25T12:43:46Z</time>
      </trkpt>
      <trkpt lat="43.85718" lon="-1.33796">
        <ele>32</ele>
        <time>2019-04-25T12:43:58Z</time>
      </trkpt>
      <trkpt lat="43.85766" lon="-1.33727">
        <ele>28</ele>
        <time>2019-04-25T12:44:10Z</time>
      </trkpt>
      <trkpt lat="43.85856" lon="-1.33586">
        <ele>20</ele>
        <time>2019-04-25T12:44:34Z</time>
      </trkpt>
      <trkpt lat="43.85902" lon="-1.33477">
        <ele>26</ele>
        <time>2019-04-25T12:44:52Z</time>
      </trkpt>
      <trkpt lat="43.85947" lon="-1.33329">
        <ele>27</ele>
        <time>2019-04-25T12:45:16Z</time>
      </trkpt>
      <trkpt lat="43.85974" lon="-1.33219">
        <ele>28</ele>
        <time>2019-04-25T12:45:34Z</time>
      </trkpt>
      <trkpt lat="43.86022" lon="-1.33062">
        <ele>42</ele>
        <time>2019-04-25T12:46:04Z</time>
      </trkpt>
      <trkpt lat="43.86082" lon="-1.32925">
        <ele>44</ele>
        <time>2019-04-25T12:46:28Z</time>
      </trkpt>
      <trkpt lat="43.86104" lon="-1.32888">
        <ele>44</ele>
        <time>2019-04-25T12:46:34Z</time>
      </trkpt>
      <trkpt lat="43.86251" lon="-1.32698">
        <ele>29</ele>
        <time>2019-04-25T12:47:10Z</time>
      </trkpt>
      <trkpt lat="43.86366" lon="-1.32566">
        <ele>30</ele>
        <time>2019-04-25T12:47:34Z</time>
      </trkpt>
      <trkpt lat="43.86392" lon="-1.3253">
        <ele>30</ele>
        <time>2019-04-25T12:47:40Z</time>
      </trkpt>
      <trkpt lat="43.86468" lon="-1.32399">
        <ele>20</ele>
        <time>2019-04-25T12:48:10Z</time>
      </trkpt>
      <trkpt lat="43.86495" lon="-1.32306">
        <ele>21</ele>
        <time>2019-04-25T12:48:28Z</time>
      </trkpt>
      <trkpt lat="43.86511" lon="-1.32218">
        <ele>21</ele>
        <time>2019-04-25T12:48:40Z</time>
      </trkpt>
      <trkpt lat="43.86533" lon="-1.32132">
        <ele>24</ele>
        <time>2019-04-25T12:48:52Z</time>
      </trkpt>
      <trkpt lat="43.86553" lon="-1.32035">
        <ele>20</ele>
        <time>2019-04-25T12:49:04Z</time>
      </trkpt>
      <trkpt lat="43.86629" lon="-1.3174">
        <ele>20</ele>
        <time>2019-04-25T12:49:40Z</time>
      </trkpt>
      <trkpt lat="43.86662" lon="-1.31563">
        <ele>24</ele>
        <time>2019-04-25T12:50:04Z</time>
      </trkpt>
      <trkpt lat="43.86677" lon="-1.31516">
        <ele>23</ele>
        <time>2019-04-25T12:50:10Z</time>
      </trkpt>
      <trkpt lat="43.86769" lon="-1.311">
        <ele>30</ele>
        <time>2019-04-25T12:51:10Z</time>
      </trkpt>
      <trkpt lat="43.868" lon="-1.30986">
        <ele>29</ele>
        <time>2019-04-25T12:51:22Z</time>
      </trkpt>
      <trkpt lat="43.86857" lon="-1.30864">
        <ele>27</ele>
        <time>2019-04-25T12:51:40Z</time>
      </trkpt>
      <trkpt lat="43.86897" lon="-1.30795">
        <ele>26</ele>
        <time>2019-04-25T12:51:52Z</time>
      </trkpt>
      <trkpt lat="43.8694" lon="-1.3073">
        <ele>21</ele>
        <time>2019-04-25T12:52:04Z</time>
      </trkpt>
      <trkpt lat="43.87054" lon="-1.30506">
        <ele>21</ele>
        <time>2019-04-25T12:52:46Z</time>
      </trkpt>
      <trkpt lat="43.87083" lon="-1.30439">
        <ele>22</ele>
        <time>2019-04-25T12:52:58Z</time>
      </trkpt>
      <trkpt lat="43.8711" lon="-1.30355">
        <ele>21</ele>
        <time>2019-04-25T12:53:10Z</time>
      </trkpt>
      <trkpt lat="43.87163" lon="-1.30221">
        <ele>19</ele>
        <time>2019-04-25T12:53:34Z</time>
      </trkpt>
      <trkpt lat="43.87187" lon="-1.30148">
        <ele>18</ele>
        <time>2019-04-25T12:53:52Z</time>
      </trkpt>
      <trkpt lat="43.87198" lon="-1.30146">
        <ele>18</ele>
        <time>2019-04-25T12:53:58Z</time>
      </trkpt>
      <trkpt lat="43.87219" lon="-1.30119">
        <ele>18</ele>
        <time>2019-04-25T12:54:10Z</time>
      </trkpt>
      <trkpt lat="43.87245" lon="-1.30054">
        <ele>18</ele>
        <time>2019-04-25T12:54:28Z</time>
      </trkpt>
      <trkpt lat="43.87265" lon="-1.30049">
        <ele>18</ele>
        <time>2019-04-25T12:54:46Z</time>
      </trkpt>
      <trkpt lat="43.87302" lon="-1.30067">
        <ele>18</ele>
        <time>2019-04-25T12:55:04Z</time>
      </trkpt>
      <trkpt lat="43.8732" lon="-1.3009">
        <ele>18</ele>
        <time>2019-04-25T12:55:10Z</time>
      </trkpt>
      <trkpt lat="43.87351" lon="-1.30116">
        <ele>18</ele>
        <time>2019-04-25T12:55:22Z</time>
      </trkpt>
      <trkpt lat="43.87403" lon="-1.3011">
        <ele>18</ele>
        <time>2019-04-25T12:55:46Z</time>
      </trkpt>
      <trkpt lat="43.87422" lon="-1.30093">
        <ele>18</ele>
        <time>2019-04-25T12:55:58Z</time>
      </trkpt>
      <trkpt lat="43.8744" lon="-1.30092">
        <ele>18</ele>
        <time>2019-04-25T12:56:22Z</time>
      </trkpt>
      <trkpt lat="43.87442" lon="-1.30096">
        <ele>18</ele>
        <time>2019-04-25T12:58:22Z</time>
      </trkpt>
      <trkpt lat="43.8744" lon="-1.30092">
        <ele>18</ele>
        <time>2019-04-25T12:59:34Z</time>
      </trkpt>
      <trkpt lat="43.87487" lon="-1.30088">
        <ele>18</ele>
        <time>2019-04-25T13:00:10Z</time>
      </trkpt>
      <trkpt lat="43.87526" lon="-1.30106">
        <ele>18</ele>
        <time>2019-04-25T13:00:22Z</time>
      </trkpt>
      <trkpt lat="43.87601" lon="-1.30159">
        <ele>20</ele>
        <time>2019-04-25T13:00:40Z</time>
      </trkpt>
      <trkpt lat="43.87673" lon="-1.30194">
        <ele>20</ele>
        <time>2019-04-25T13:00:58Z</time>
      </trkpt>
      <trkpt lat="43.87736" lon="-1.30246">
        <ele>18</ele>
        <time>2019-04-25T13:01:16Z</time>
      </trkpt>
      <trkpt lat="43.87758" lon="-1.30244">
        <ele>18</ele>
        <time>2019-04-25T13:01:22Z</time>
      </trkpt>
      <trkpt lat="43.87867" lon="-1.30206">
        <ele>16</ele>
        <time>2019-04-25T13:01:46Z</time>
      </trkpt>
      <trkpt lat="43.87919" lon="-1.30181">
        <ele>16</ele>
        <time>2019-04-25T13:02:04Z</time>
      </trkpt>
      <trkpt lat="43.87929" lon="-1.30171">
        <ele>16</ele>
        <time>2019-04-25T13:02:10Z</time>
      </trkpt>
      <trkpt lat="43.87909" lon="-1.30135">
        <ele>16</ele>
        <time>2019-04-25T13:02:28Z</time>
      </trkpt>
      <trkpt lat="43.87905" lon="-1.30117">
        <ele>17</ele>
        <time>2019-04-25T13:03:40Z</time>
      </trkpt>
      <trkpt lat="43.87911" lon="-1.30119">
        <ele>16</ele>
        <time>2019-04-25T13:03:58Z</time>
      </trkpt>
      <trkpt lat="43.87912" lon="-1.30132">
        <ele>16</ele>
        <time>2019-04-25T13:05:22Z</time>
      </trkpt>
      <trkpt lat="43.87915" lon="-1.30126">
        <ele>16</ele>
        <time>2019-04-25T13:07:16Z</time>
      </trkpt>
      <trkpt lat="43.87912" lon="-1.30125">
        <ele>16</ele>
        <time>2019-04-25T13:08:58Z</time>
      </trkpt>
      <trkpt lat="43.87913" lon="-1.30131">
        <ele>16</ele>
        <time>2019-04-25T13:10:34Z</time>
      </trkpt>
      <trkpt lat="43.87916" lon="-1.30126">
        <ele>16</ele>
        <time>2019-04-25T13:12:34Z</time>
      </trkpt>
      <trkpt lat="43.87906" lon="-1.3012">
        <ele>16</ele>
        <time>2019-04-25T13:12:58Z</time>
      </trkpt>
      <trkpt lat="43.87908" lon="-1.30113">
        <ele>17</ele>
        <time>2019-04-25T13:13:52Z</time>
      </trkpt>
      <trkpt lat="43.87907" lon="-1.30122">
        <ele>16</ele>
        <time>2019-04-25T13:14:04Z</time>
      </trkpt>
      <trkpt lat="43.87903" lon="-1.30121">
        <ele>16</ele>
        <time>2019-04-25T13:14:46Z</time>
      </trkpt>
      <trkpt lat="43.87903" lon="-1.30118">
        <ele>17</ele>
        <time>2019-04-25T13:15:10Z</time>
      </trkpt>
      <trkpt lat="43.87907" lon="-1.3012">
        <ele>16</ele>
        <time>2019-04-25T13:15:22Z</time>
      </trkpt>
      <trkpt lat="43.87917" lon="-1.30142">
        <ele>16</ele>
        <time>2019-04-25T13:15:46Z</time>
      </trkpt>
      <trkpt lat="43.87938" lon="-1.30169">
        <ele>16</ele>
        <time>2019-04-25T13:18:10Z</time>
      </trkpt>
      <trkpt lat="43.88024" lon="-1.30132">
        <ele>17</ele>
        <time>2019-04-25T13:19:58Z</time>
      </trkpt>
      <trkpt lat="43.88048" lon="-1.30134">
        <ele>17</ele>
        <time>2019-04-25T13:20:16Z</time>
      </trkpt>
      <trkpt lat="43.88104" lon="-1.30157">
        <ele>17</ele>
        <time>2019-04-25T13:21:46Z</time>
      </trkpt>
      <trkpt lat="43.88143" lon="-1.30166">
        <ele>18</ele>
        <time>2019-04-25T13:22:04Z</time>
      </trkpt>
      <trkpt lat="43.88171" lon="-1.30165">
        <ele>17</ele>
        <time>2019-04-25T13:22:16Z</time>
      </trkpt>
      <trkpt lat="43.88216" lon="-1.30144">
        <ele>17</ele>
        <time>2019-04-25T13:22:46Z</time>
      </trkpt>
      <trkpt lat="43.88255" lon="-1.30117">
        <ele>18</ele>
        <time>2019-04-25T13:23:10Z</time>
      </trkpt>
      <trkpt lat="43.88269" lon="-1.30102">
        <ele>16</ele>
        <time>2019-04-25T13:23:16Z</time>
      </trkpt>
      <trkpt lat="43.88298" lon="-1.30058">
        <ele>16</ele>
        <time>2019-04-25T13:23:28Z</time>
      </trkpt>
      <trkpt lat="43.88339" lon="-1.3002">
        <ele>11</ele>
        <time>2019-04-25T13:23:40Z</time>
      </trkpt>
      <trkpt lat="43.88367" lon="-1.29983">
        <ele>11</ele>
        <time>2019-04-25T13:23:52Z</time>
      </trkpt>
      <trkpt lat="43.88454" lon="-1.29899">
        <ele>11</ele>
        <time>2019-04-25T13:24:28Z</time>
      </trkpt>
      <trkpt lat="43.88479" lon="-1.29859">
        <ele>11</ele>
        <time>2019-04-25T13:24:40Z</time>
      </trkpt>
      <trkpt lat="43.88547" lon="-1.29709">
        <ele>10</ele>
        <time>2019-04-25T13:25:22Z</time>
      </trkpt>
      <trkpt lat="43.88613" lon="-1.29578">
        <ele>15</ele>
        <time>2019-04-25T13:26:04Z</time>
      </trkpt>
      <trkpt lat="43.88664" lon="-1.29492">
        <ele>14</ele>
        <time>2019-04-25T13:26:28Z</time>
      </trkpt>
      <trkpt lat="43.88693" lon="-1.29459">
        <ele>14</ele>
        <time>2019-04-25T13:26:40Z</time>
      </trkpt>
      <trkpt lat="43.8871" lon="-1.29424">
        <ele>13</ele>
        <time>2019-04-25T13:26:52Z</time>
      </trkpt>
      <trkpt lat="43.88749" lon="-1.29389">
        <ele>13</ele>
        <time>2019-04-25T13:27:10Z</time>
      </trkpt>
      <trkpt lat="43.88756" lon="-1.29378">
        <ele>12</ele>
        <time>2019-04-25T13:27:16Z</time>
      </trkpt>
      <trkpt lat="43.88759" lon="-1.29358">
        <ele>12</ele>
        <time>2019-04-25T13:27:28Z</time>
      </trkpt>
      <trkpt lat="43.88804" lon="-1.29352">
        <ele>11</ele>
        <time>2019-04-25T13:27:52Z</time>
      </trkpt>
      <trkpt lat="43.89017" lon="-1.29276">
        <ele>10</ele>
        <time>2019-04-25T13:28:58Z</time>
      </trkpt>
      <trkpt lat="43.8905" lon="-1.29256">
        <ele>11</ele>
        <time>2019-04-25T13:29:10Z</time>
      </trkpt>
      <trkpt lat="43.89059" lon="-1.29255">
        <ele>11</ele>
        <time>2019-04-25T13:29:16Z</time>
      </trkpt>
      <trkpt lat="43.89072" lon="-1.29276">
        <ele>11</ele>
        <time>2019-04-25T13:29:34Z</time>
      </trkpt>
      <trkpt lat="43.89203" lon="-1.29231">
        <ele>13</ele>
        <time>2019-04-25T13:30:10Z</time>
      </trkpt>
      <trkpt lat="43.89249" lon="-1.29206">
        <ele>11</ele>
        <time>2019-04-25T13:30:29Z</time>
      </trkpt>
      <trkpt lat="43.8933" lon="-1.29175">
        <ele>13</ele>
        <time>2019-04-25T13:30:54Z</time>
      </trkpt>
      <trkpt lat="43.89387" lon="-1.29165">
        <ele>14</ele>
        <time>2019-04-25T13:31:07Z</time>
      </trkpt>
      <trkpt lat="43.89506" lon="-1.29169">
        <ele>14</ele>
        <time>2019-04-25T13:31:33Z</time>
      </trkpt>
      <trkpt lat="43.89679" lon="-1.29194">
        <ele>16</ele>
        <time>2019-04-25T13:31:59Z</time>
      </trkpt>
      <trkpt lat="43.89806" lon="-1.2922">
        <ele>20</ele>
        <time>2019-04-25T13:32:23Z</time>
      </trkpt>
      <trkpt lat="43.89868" lon="-1.29225">
        <ele>23</ele>
        <time>2019-04-25T13:32:35Z</time>
      </trkpt>
      <trkpt lat="43.89981" lon="-1.29248">
        <ele>22</ele>
        <time>2019-04-25T13:32:59Z</time>
      </trkpt>
      <trkpt lat="43.90166" lon="-1.29263">
        <ele>27</ele>
        <time>2019-04-25T13:33:41Z</time>
      </trkpt>
      <trkpt lat="43.90267" lon="-1.29278">
        <ele>28</ele>
        <time>2019-04-25T13:34:05Z</time>
      </trkpt>
      <trkpt lat="43.903" lon="-1.29286">
        <ele>26</ele>
        <time>2019-04-25T13:34:17Z</time>
      </trkpt>
      <trkpt lat="43.90327" lon="-1.29329">
        <ele>28</ele>
        <time>2019-04-25T13:34:35Z</time>
      </trkpt>
      <trkpt lat="43.90349" lon="-1.29379">
        <ele>28</ele>
        <time>2019-04-25T13:34:46Z</time>
      </trkpt>
      <trkpt lat="43.90396" lon="-1.29618">
        <ele>28</ele>
        <time>2019-04-25T13:35:28Z</time>
      </trkpt>
      <trkpt lat="43.90409" lon="-1.29977">
        <ele>19</ele>
        <time>2019-04-25T13:36:22Z</time>
      </trkpt>
      <trkpt lat="43.90411" lon="-1.30126">
        <ele>16</ele>
        <time>2019-04-25T13:36:46Z</time>
      </trkpt>
      <trkpt lat="43.90397" lon="-1.30197">
        <ele>18</ele>
        <time>2019-04-25T13:36:58Z</time>
      </trkpt>
      <trkpt lat="43.90386" lon="-1.30234">
        <ele>18</ele>
        <time>2019-04-25T13:37:04Z</time>
      </trkpt>
      <trkpt lat="43.9036" lon="-1.30289">
        <ele>16</ele>
        <time>2019-04-25T13:37:16Z</time>
      </trkpt>
      <trkpt lat="43.90346" lon="-1.30361">
        <ele>15</ele>
        <time>2019-04-25T13:37:28Z</time>
      </trkpt>
      <trkpt lat="43.90363" lon="-1.30449">
        <ele>14</ele>
        <time>2019-04-25T13:37:40Z</time>
      </trkpt>
      <trkpt lat="43.90404" lon="-1.30558">
        <ele>12</ele>
        <time>2019-04-25T13:37:58Z</time>
      </trkpt>
      <trkpt lat="43.90427" lon="-1.30643">
        <ele>10</ele>
        <time>2019-04-25T13:38:10Z</time>
      </trkpt>
      <trkpt lat="43.9043" lon="-1.30684">
        <ele>6</ele>
        <time>2019-04-25T13:38:16Z</time>
      </trkpt>
      <trkpt lat="43.90425" lon="-1.30721">
        <ele>6</ele>
        <time>2019-04-25T13:38:22Z</time>
      </trkpt>
      <trkpt lat="43.90421" lon="-1.30789">
        <ele>9</ele>
        <time>2019-04-25T13:38:34Z</time>
      </trkpt>
      <trkpt lat="43.90426" lon="-1.30845">
        <ele>10</ele>
        <time>2019-04-25T13:38:46Z</time>
      </trkpt>
      <trkpt lat="43.9044" lon="-1.30883">
        <ele>9</ele>
        <time>2019-04-25T13:38:58Z</time>
      </trkpt>
      <trkpt lat="43.90448" lon="-1.30951">
        <ele>10</ele>
        <time>2019-04-25T13:39:10Z</time>
      </trkpt>
      <trkpt lat="43.90475" lon="-1.30995">
        <ele>10</ele>
        <time>2019-04-25T13:39:28Z</time>
      </trkpt>
      <trkpt lat="43.90502" lon="-1.31002">
        <ele>11</ele>
        <time>2019-04-25T13:39:40Z</time>
      </trkpt>
      <trkpt lat="43.9052" lon="-1.31038">
        <ele>14</ele>
        <time>2019-04-25T13:39:52Z</time>
      </trkpt>
      <trkpt lat="43.90595" lon="-1.31154">
        <ele>18</ele>
        <time>2019-04-25T13:40:22Z</time>
      </trkpt>
      <trkpt lat="43.90625" lon="-1.31208">
        <ele>18</ele>
        <time>2019-04-25T13:40:34Z</time>
      </trkpt>
      <trkpt lat="43.90638" lon="-1.31241">
        <ele>19</ele>
        <time>2019-04-25T13:40:40Z</time>
      </trkpt>
      <trkpt lat="43.90662" lon="-1.31368">
        <ele>18</ele>
        <time>2019-04-25T13:41:04Z</time>
      </trkpt>
      <trkpt lat="43.90679" lon="-1.3143">
        <ele>16</ele>
        <time>2019-04-25T13:41:16Z</time>
      </trkpt>
      <trkpt lat="43.90696" lon="-1.31436">
        <ele>11</ele>
        <time>2019-04-25T13:41:22Z</time>
      </trkpt>
      <trkpt lat="43.90753" lon="-1.31431">
        <ele>9</ele>
        <time>2019-04-25T13:41:40Z</time>
      </trkpt>
      <trkpt lat="43.90818" lon="-1.31414">
        <ele>12</ele>
        <time>2019-04-25T13:41:58Z</time>
      </trkpt>
      <trkpt lat="43.90866" lon="-1.31415">
        <ele>13</ele>
        <time>2019-04-25T13:42:10Z</time>
      </trkpt>
      <trkpt lat="43.90908" lon="-1.31457">
        <ele>13</ele>
        <time>2019-04-25T13:42:22Z</time>
      </trkpt>
      <trkpt lat="43.90922" lon="-1.31534">
        <ele>14</ele>
        <time>2019-04-25T13:42:34Z</time>
      </trkpt>
      <trkpt lat="43.90916" lon="-1.31567">
        <ele>14</ele>
        <time>2019-04-25T13:42:40Z</time>
      </trkpt>
      <trkpt lat="43.90907" lon="-1.31676">
        <ele>14</ele>
        <time>2019-04-25T13:42:58Z</time>
      </trkpt>
      <trkpt lat="43.90905" lon="-1.31754">
        <ele>15</ele>
        <time>2019-04-25T13:43:10Z</time>
      </trkpt>
      <trkpt lat="43.90896" lon="-1.31824">
        <ele>16</ele>
        <time>2019-04-25T13:43:22Z</time>
      </trkpt>
      <trkpt lat="43.90895" lon="-1.31906">
        <ele>14</ele>
        <time>2019-04-25T13:43:34Z</time>
      </trkpt>
      <trkpt lat="43.90881" lon="-1.31959">
        <ele>14</ele>
        <time>2019-04-25T13:43:46Z</time>
      </trkpt>
      <trkpt lat="43.90886" lon="-1.31963">
        <ele>14</ele>
        <time>2019-04-25T13:43:58Z</time>
      </trkpt>
      <trkpt lat="43.90913" lon="-1.31961">
        <ele>14</ele>
        <time>2019-04-25T13:44:16Z</time>
      </trkpt>
      <trkpt lat="43.91165" lon="-1.31912">
        <ele>19</ele>
        <time>2019-04-25T13:46:07Z</time>
      </trkpt>
      <trkpt lat="43.91203" lon="-1.31973">
        <ele>20</ele>
        <time>2019-04-25T13:46:40Z</time>
      </trkpt>
      <trkpt lat="43.91214" lon="-1.3202">
        <ele>19</ele>
        <time>2019-04-25T13:46:52Z</time>
      </trkpt>
      <trkpt lat="43.91257" lon="-1.32339">
        <ele>13</ele>
        <time>2019-04-25T13:47:39Z</time>
      </trkpt>
      <trkpt lat="43.913" lon="-1.32468">
        <ele>15</ele>
        <time>2019-04-25T13:47:57Z</time>
      </trkpt>
      <trkpt lat="43.91299" lon="-1.32497">
        <ele>15</ele>
        <time>2019-04-25T13:48:03Z</time>
      </trkpt>
      <trkpt lat="43.91271" lon="-1.32559">
        <ele>15</ele>
        <time>2019-04-25T13:48:15Z</time>
      </trkpt>
      <trkpt lat="43.91264" lon="-1.326">
        <ele>16</ele>
        <time>2019-04-25T13:48:27Z</time>
      </trkpt>
      <trkpt lat="43.91244" lon="-1.32662">
        <ele>17</ele>
        <time>2019-04-25T13:48:45Z</time>
      </trkpt>
      <trkpt lat="43.91224" lon="-1.32704">
        <ele>17</ele>
        <time>2019-04-25T13:48:57Z</time>
      </trkpt>
      <trkpt lat="43.91213" lon="-1.32755">
        <ele>18</ele>
        <time>2019-04-25T13:49:09Z</time>
      </trkpt>
      <trkpt lat="43.91211" lon="-1.32812">
        <ele>20</ele>
        <time>2019-04-25T13:49:21Z</time>
      </trkpt>
      <trkpt lat="43.9122" lon="-1.32855">
        <ele>20</ele>
        <time>2019-04-25T13:49:33Z</time>
      </trkpt>
      <trkpt lat="43.91228" lon="-1.32957">
        <ele>24</ele>
        <time>2019-04-25T13:49:51Z</time>
      </trkpt>
      <trkpt lat="43.91258" lon="-1.33206">
        <ele>32</ele>
        <time>2019-04-25T13:51:21Z</time>
      </trkpt>
      <trkpt lat="43.91235" lon="-1.33377">
        <ele>42</ele>
        <time>2019-04-25T13:52:18Z</time>
      </trkpt>
      <trkpt lat="43.9123" lon="-1.33569">
        <ele>38</ele>
        <time>2019-04-25T13:53:06Z</time>
      </trkpt>
      <trkpt lat="43.91222" lon="-1.33661">
        <ele>40</ele>
        <time>2019-04-25T13:53:30Z</time>
      </trkpt>
      <trkpt lat="43.91191" lon="-1.33802">
        <ele>39</ele>
        <time>2019-04-25T13:54:06Z</time>
      </trkpt>
      <trkpt lat="43.91163" lon="-1.33978">
        <ele>43</ele>
        <time>2019-04-25T13:54:31Z</time>
      </trkpt>
      <trkpt lat="43.91167" lon="-1.34016">
        <ele>43</ele>
        <time>2019-04-25T13:54:43Z</time>
      </trkpt>
      <trkpt lat="43.912" lon="-1.3409">
        <ele>47</ele>
        <time>2019-04-25T13:55:01Z</time>
      </trkpt>
      <trkpt lat="43.91223" lon="-1.34179">
        <ele>46</ele>
        <time>2019-04-25T13:55:13Z</time>
      </trkpt>
      <trkpt lat="43.91268" lon="-1.34409">
        <ele>40</ele>
        <time>2019-04-25T13:55:43Z</time>
      </trkpt>
      <trkpt lat="43.9128" lon="-1.3452">
        <ele>38</ele>
        <time>2019-04-25T13:55:55Z</time>
      </trkpt>
      <trkpt lat="43.91284" lon="-1.34642">
        <ele>33</ele>
        <time>2019-04-25T13:56:07Z</time>
      </trkpt>
      <trkpt lat="43.91271" lon="-1.34813">
        <ele>39</ele>
        <time>2019-04-25T13:56:25Z</time>
      </trkpt>
      <trkpt lat="43.9124" lon="-1.34968">
        <ele>33</ele>
        <time>2019-04-25T13:56:55Z</time>
      </trkpt>
      <trkpt lat="43.91235" lon="-1.35009">
        <ele>26</ele>
        <time>2019-04-25T13:57:01Z</time>
      </trkpt>
      <trkpt lat="43.91229" lon="-1.35115">
        <ele>23</ele>
        <time>2019-04-25T13:57:13Z</time>
      </trkpt>
      <trkpt lat="43.91241" lon="-1.35175">
        <ele>17</ele>
        <time>2019-04-25T13:57:19Z</time>
      </trkpt>
      <trkpt lat="43.91272" lon="-1.35232">
        <ele>12</ele>
        <time>2019-04-25T13:58:07Z</time>
      </trkpt>
      <trkpt lat="43.9127" lon="-1.35237">
        <ele>12</ele>
        <time>2019-04-25T13:58:43Z</time>
      </trkpt>
      <trkpt lat="43.91323" lon="-1.35262">
        <ele>11</ele>
        <time>2019-04-25T14:00:23Z</time>
      </trkpt>
      <trkpt lat="43.91368" lon="-1.35269">
        <ele>11</ele>
        <time>2019-04-25T14:00:35Z</time>
      </trkpt>
      <trkpt lat="43.91486" lon="-1.35269">
        <ele>9</ele>
        <time>2019-04-25T14:01:01Z</time>
      </trkpt>
      <trkpt lat="43.9162" lon="-1.35307">
        <ele>9</ele>
        <time>2019-04-25T14:01:27Z</time>
      </trkpt>
      <trkpt lat="43.91774" lon="-1.35389">
        <ele>8</ele>
        <time>2019-04-25T14:01:55Z</time>
      </trkpt>
      <trkpt lat="43.91885" lon="-1.35457">
        <ele>9</ele>
        <time>2019-04-25T14:02:22Z</time>
      </trkpt>
      <trkpt lat="43.91937" lon="-1.35491">
        <ele>11</ele>
        <time>2019-04-25T14:03:18Z</time>
      </trkpt>
      <trkpt lat="43.92023" lon="-1.35564">
        <ele>10</ele>
        <time>2019-04-25T14:05:28Z</time>
      </trkpt>
      <trkpt lat="43.92067" lon="-1.35588">
        <ele>11</ele>
        <time>2019-04-25T14:05:40Z</time>
      </trkpt>
      <trkpt lat="43.92114" lon="-1.35595">
        <ele>11</ele>
        <time>2019-04-25T14:05:52Z</time>
      </trkpt>
      <trkpt lat="43.92156" lon="-1.3559">
        <ele>13</ele>
        <time>2019-04-25T14:06:04Z</time>
      </trkpt>
      <trkpt lat="43.92226" lon="-1.35563">
        <ele>17</ele>
        <time>2019-04-25T14:06:22Z</time>
      </trkpt>
      <trkpt lat="43.92308" lon="-1.35527">
        <ele>18</ele>
        <time>2019-04-25T14:06:40Z</time>
      </trkpt>
      <trkpt lat="43.92392" lon="-1.3548">
        <ele>17</ele>
        <time>2019-04-25T14:06:58Z</time>
      </trkpt>
      <trkpt lat="43.92485" lon="-1.35438">
        <ele>19</ele>
        <time>2019-04-25T14:07:22Z</time>
      </trkpt>
      <trkpt lat="43.92549" lon="-1.35366">
        <ele>18</ele>
        <time>2019-04-25T14:07:40Z</time>
      </trkpt>
      <trkpt lat="43.92614" lon="-1.35277">
        <ele>13</ele>
        <time>2019-04-25T14:07:58Z</time>
      </trkpt>
      <trkpt lat="43.92719" lon="-1.35172">
        <ele>11</ele>
        <time>2019-04-25T14:08:22Z</time>
      </trkpt>
      <trkpt lat="43.92775" lon="-1.35153">
        <ele>11</ele>
        <time>2019-04-25T14:08:34Z</time>
      </trkpt>
      <trkpt lat="43.92866" lon="-1.3516">
        <ele>11</ele>
        <time>2019-04-25T14:08:52Z</time>
      </trkpt>
      <trkpt lat="43.92962" lon="-1.35186">
        <ele>12</ele>
        <time>2019-04-25T14:09:10Z</time>
      </trkpt>
      <trkpt lat="43.93084" lon="-1.35207">
        <ele>21</ele>
        <time>2019-04-25T14:09:34Z</time>
      </trkpt>
      <trkpt lat="43.9314" lon="-1.35229">
        <ele>22</ele>
        <time>2019-04-25T14:09:46Z</time>
      </trkpt>
      <trkpt lat="43.93225" lon="-1.35246">
        <ele>22</ele>
        <time>2019-04-25T14:10:04Z</time>
      </trkpt>
      <trkpt lat="43.9331" lon="-1.35271">
        <ele>21</ele>
        <time>2019-04-25T14:10:22Z</time>
      </trkpt>
      <trkpt lat="43.93364" lon="-1.35314">
        <ele>20</ele>
        <time>2019-04-25T14:10:34Z</time>
      </trkpt>
      <trkpt lat="43.93519" lon="-1.3546">
        <ele>19</ele>
        <time>2019-04-25T14:11:10Z</time>
      </trkpt>
      <trkpt lat="43.93531" lon="-1.35508">
        <ele>17</ele>
        <time>2019-04-25T14:11:16Z</time>
      </trkpt>
      <trkpt lat="43.93559" lon="-1.35573">
        <ele>17</ele>
        <time>2019-04-25T14:11:28Z</time>
      </trkpt>
      <trkpt lat="43.93615" lon="-1.35577">
        <ele>16</ele>
        <time>2019-04-25T14:11:40Z</time>
      </trkpt>
      <trkpt lat="43.93639" lon="-1.35575">
        <ele>16</ele>
        <time>2019-04-25T14:11:46Z</time>
      </trkpt>
      <trkpt lat="43.93729" lon="-1.35527">
        <ele>14</ele>
        <time>2019-04-25T14:12:17Z</time>
      </trkpt>
      <trkpt lat="43.93816" lon="-1.35524">
        <ele>15</ele>
        <time>2019-04-25T14:12:42Z</time>
      </trkpt>
      <trkpt lat="43.93946" lon="-1.35489">
        <ele>11</ele>
        <time>2019-04-25T14:13:01Z</time>
      </trkpt>
      <trkpt lat="43.93987" lon="-1.35461">
        <ele>11</ele>
        <time>2019-04-25T14:13:13Z</time>
      </trkpt>
      <trkpt lat="43.94069" lon="-1.35432">
        <ele>11</ele>
        <time>2019-04-25T14:13:47Z</time>
      </trkpt>
      <trkpt lat="43.94272" lon="-1.35448">
        <ele>14</ele>
        <time>2019-04-25T14:14:27Z</time>
      </trkpt>
      <trkpt lat="43.94392" lon="-1.3544">
        <ele>18</ele>
        <time>2019-04-25T14:14:53Z</time>
      </trkpt>
      <trkpt lat="43.9451" lon="-1.35377">
        <ele>19</ele>
        <time>2019-04-25T14:15:19Z</time>
      </trkpt>
      <trkpt lat="43.94662" lon="-1.35331">
        <ele>20</ele>
        <time>2019-04-25T14:15:47Z</time>
      </trkpt>
      <trkpt lat="43.94733" lon="-1.35324">
        <ele>20</ele>
        <time>2019-04-25T14:16:01Z</time>
      </trkpt>
      <trkpt lat="43.94895" lon="-1.35349">
        <ele>20</ele>
        <time>2019-04-25T14:16:39Z</time>
      </trkpt>
      <trkpt lat="43.94982" lon="-1.35354">
        <ele>21</ele>
        <time>2019-04-25T14:16:53Z</time>
      </trkpt>
      <trkpt lat="43.95176" lon="-1.35348">
        <ele>18</ele>
        <time>2019-04-25T14:17:46Z</time>
      </trkpt>
      <trkpt lat="43.95188" lon="-1.35356">
        <ele>18</ele>
        <time>2019-04-25T14:17:57Z</time>
      </trkpt>
      <trkpt lat="43.95207" lon="-1.35358">
        <ele>18</ele>
        <time>2019-04-25T14:20:20Z</time>
      </trkpt>
      <trkpt lat="43.95533" lon="-1.35322">
        <ele>17</ele>
        <time>2019-04-25T14:26:08Z</time>
      </trkpt>
      <trkpt lat="43.95661" lon="-1.35287">
        <ele>17</ele>
        <time>2019-04-25T14:26:34Z</time>
      </trkpt>
      <trkpt lat="43.95721" lon="-1.35254">
        <ele>20</ele>
        <time>2019-04-25T14:26:47Z</time>
      </trkpt>
      <trkpt lat="43.95878" lon="-1.35142">
        <ele>21</ele>
        <time>2019-04-25T14:27:10Z</time>
      </trkpt>
      <trkpt lat="43.96164" lon="-1.3498">
        <ele>19</ele>
        <time>2019-04-25T14:28:27Z</time>
      </trkpt>
      <trkpt lat="43.96262" lon="-1.34854">
        <ele>24</ele>
        <time>2019-04-25T14:28:53Z</time>
      </trkpt>
      <trkpt lat="43.96372" lon="-1.34778">
        <ele>21</ele>
        <time>2019-04-25T14:29:19Z</time>
      </trkpt>
      <trkpt lat="43.96429" lon="-1.34762">
        <ele>21</ele>
        <time>2019-04-25T14:29:32Z</time>
      </trkpt>
      <trkpt lat="43.96566" lon="-1.34756">
        <ele>21</ele>
        <time>2019-04-25T14:29:56Z</time>
      </trkpt>
      <trkpt lat="43.96661" lon="-1.34773">
        <ele>23</ele>
        <time>2019-04-25T14:30:20Z</time>
      </trkpt>
      <trkpt lat="43.96756" lon="-1.34806">
        <ele>23</ele>
        <time>2019-04-25T14:30:38Z</time>
      </trkpt>
      <trkpt lat="43.96814" lon="-1.34809">
        <ele>21</ele>
        <time>2019-04-25T14:30:50Z</time>
      </trkpt>
      <trkpt lat="43.96839" lon="-1.34798">
        <ele>21</ele>
        <time>2019-04-25T14:30:56Z</time>
      </trkpt>
      <trkpt lat="43.96883" lon="-1.3477">
        <ele>21</ele>
        <time>2019-04-25T14:31:08Z</time>
      </trkpt>
      <trkpt lat="43.97007" lon="-1.34675">
        <ele>22</ele>
        <time>2019-04-25T14:31:44Z</time>
      </trkpt>
      <trkpt lat="43.97093" lon="-1.34616">
        <ele>23</ele>
        <time>2019-04-25T14:32:02Z</time>
      </trkpt>
      <trkpt lat="43.97265" lon="-1.34481">
        <ele>21</ele>
        <time>2019-04-25T14:32:32Z</time>
      </trkpt>
      <trkpt lat="43.97307" lon="-1.34444">
        <ele>19</ele>
        <time>2019-04-25T14:32:44Z</time>
      </trkpt>
      <trkpt lat="43.97394" lon="-1.34406">
        <ele>19</ele>
        <time>2019-04-25T14:33:02Z</time>
      </trkpt>
      <trkpt lat="43.97471" lon="-1.34381">
        <ele>19</ele>
        <time>2019-04-25T14:33:14Z</time>
      </trkpt>
      <trkpt lat="43.97635" lon="-1.34346">
        <ele>22</ele>
        <time>2019-04-25T14:33:44Z</time>
      </trkpt>
      <trkpt lat="43.97962" lon="-1.34253">
        <ele>25</ele>
        <time>2019-04-25T14:34:50Z</time>
      </trkpt>
      <trkpt lat="43.98105" lon="-1.3422">
        <ele>23</ele>
        <time>2019-04-25T14:35:20Z</time>
      </trkpt>
      <trkpt lat="43.98294" lon="-1.3416">
        <ele>21</ele>
        <time>2019-04-25T14:35:56Z</time>
      </trkpt>
      <trkpt lat="43.98355" lon="-1.34126">
        <ele>22</ele>
        <time>2019-04-25T14:36:08Z</time>
      </trkpt>
      <trkpt lat="43.98413" lon="-1.34087">
        <ele>23</ele>
        <time>2019-04-25T14:36:20Z</time>
      </trkpt>
      <trkpt lat="43.98486" lon="-1.33943">
        <ele>23</ele>
        <time>2019-04-25T14:36:44Z</time>
      </trkpt>
      <trkpt lat="43.98544" lon="-1.33837">
        <ele>25</ele>
        <time>2019-04-25T14:37:02Z</time>
      </trkpt>
      <trkpt lat="43.98562" lon="-1.33797">
        <ele>26</ele>
        <time>2019-04-25T14:37:08Z</time>
      </trkpt>
      <trkpt lat="43.98585" lon="-1.33724">
        <ele>31</ele>
        <time>2019-04-25T14:37:20Z</time>
      </trkpt>
      <trkpt lat="43.98612" lon="-1.33674">
        <ele>30</ele>
        <time>2019-04-25T14:37:32Z</time>
      </trkpt>
      <trkpt lat="43.98638" lon="-1.33652">
        <ele>30</ele>
        <time>2019-04-25T14:37:38Z</time>
      </trkpt>
      <trkpt lat="43.98721" lon="-1.33615">
        <ele>25</ele>
        <time>2019-04-25T14:37:50Z</time>
      </trkpt>
      <trkpt lat="43.9887" lon="-1.33559">
        <ele>22</ele>
        <time>2019-04-25T14:38:14Z</time>
      </trkpt>
      <trkpt lat="43.98908" lon="-1.33549">
        <ele>23</ele>
        <time>2019-04-25T14:38:20Z</time>
      </trkpt>
      <trkpt lat="43.98984" lon="-1.33541">
        <ele>24</ele>
        <time>2019-04-25T14:38:32Z</time>
      </trkpt>
      <trkpt lat="43.99116" lon="-1.33547">
        <ele>25</ele>
        <time>2019-04-25T14:38:56Z</time>
      </trkpt>
      <trkpt lat="43.99249" lon="-1.33563">
        <ele>20</ele>
        <time>2019-04-25T14:39:20Z</time>
      </trkpt>
      <trkpt lat="43.99373" lon="-1.33557">
        <ele>19</ele>
        <time>2019-04-25T14:39:44Z</time>
      </trkpt>
      <trkpt lat="43.99456" lon="-1.33566">
        <ele>17</ele>
        <time>2019-04-25T14:40:02Z</time>
      </trkpt>
      <trkpt lat="43.99503" lon="-1.33566">
        <ele>16</ele>
        <time>2019-04-25T14:40:14Z</time>
      </trkpt>
      <trkpt lat="43.99659" lon="-1.33601">
        <ele>16</ele>
        <time>2019-04-25T14:40:50Z</time>
      </trkpt>
      <trkpt lat="43.99712" lon="-1.33618">
        <ele>19</ele>
        <time>2019-04-25T14:41:02Z</time>
      </trkpt>
      <trkpt lat="43.99788" lon="-1.33619">
        <ele>20</ele>
        <time>2019-04-25T14:41:20Z</time>
      </trkpt>
      <trkpt lat="43.99872" lon="-1.33592">
        <ele>19</ele>
        <time>2019-04-25T14:41:44Z</time>
      </trkpt>
      <trkpt lat="43.99915" lon="-1.33563">
        <ele>20</ele>
        <time>2019-04-25T14:41:56Z</time>
      </trkpt>
      <trkpt lat="43.99989" lon="-1.33471">
        <ele>20</ele>
        <time>2019-04-25T14:42:14Z</time>
      </trkpt>
      <trkpt lat="44.00086" lon="-1.33312">
        <ele>23</ele>
        <time>2019-04-25T14:42:56Z</time>
      </trkpt>
      <trkpt lat="44.00136" lon="-1.33205">
        <ele>20</ele>
        <time>2019-04-25T14:43:08Z</time>
      </trkpt>
      <trkpt lat="44.00187" lon="-1.33077">
        <ele>26</ele>
        <time>2019-04-25T14:43:20Z</time>
      </trkpt>
      <trkpt lat="44.00276" lon="-1.32959">
        <ele>29</ele>
        <time>2019-04-25T14:43:44Z</time>
      </trkpt>
      <trkpt lat="44.00308" lon="-1.32927">
        <ele>27</ele>
        <time>2019-04-25T14:43:50Z</time>
      </trkpt>
      <trkpt lat="44.00375" lon="-1.32916">
        <ele>19</ele>
        <time>2019-04-25T14:44:02Z</time>
      </trkpt>
      <trkpt lat="44.00416" lon="-1.32893">
        <ele>19</ele>
        <time>2019-04-25T14:44:08Z</time>
      </trkpt>
      <trkpt lat="44.00496" lon="-1.32829">
        <ele>18</ele>
        <time>2019-04-25T14:44:26Z</time>
      </trkpt>
      <trkpt lat="44.00552" lon="-1.32815">
        <ele>19</ele>
        <time>2019-04-25T14:44:38Z</time>
      </trkpt>
      <trkpt lat="44.00615" lon="-1.32813">
        <ele>21</ele>
        <time>2019-04-25T14:44:50Z</time>
      </trkpt>
      <trkpt lat="44.00703" lon="-1.32801">
        <ele>22</ele>
        <time>2019-04-25T14:45:08Z</time>
      </trkpt>
      <trkpt lat="44.00799" lon="-1.32771">
        <ele>22</ele>
        <time>2019-04-25T14:45:26Z</time>
      </trkpt>
      <trkpt lat="44.00869" lon="-1.32759">
        <ele>21</ele>
        <time>2019-04-25T14:45:38Z</time>
      </trkpt>
      <trkpt lat="44.00995" lon="-1.32722">
        <ele>24</ele>
        <time>2019-04-25T14:46:02Z</time>
      </trkpt>
      <trkpt lat="44.01026" lon="-1.32721">
        <ele>26</ele>
        <time>2019-04-25T14:46:14Z</time>
      </trkpt>
      <trkpt lat="44.01154" lon="-1.32736">
        <ele>21</ele>
        <time>2019-04-25T14:46:38Z</time>
      </trkpt>
      <trkpt lat="44.01217" lon="-1.32756">
        <ele>21</ele>
        <time>2019-04-25T14:46:44Z</time>
      </trkpt>
      <trkpt lat="44.01294" lon="-1.32805">
        <ele>19</ele>
        <time>2019-04-25T14:46:56Z</time>
      </trkpt>
      <trkpt lat="44.01332" lon="-1.3281">
        <ele>19</ele>
        <time>2019-04-25T14:47:02Z</time>
      </trkpt>
      <trkpt lat="44.01439" lon="-1.32796">
        <ele>22</ele>
        <time>2019-04-25T14:47:20Z</time>
      </trkpt>
      <trkpt lat="44.01578" lon="-1.32833">
        <ele>22</ele>
        <time>2019-04-25T14:47:44Z</time>
      </trkpt>
      <trkpt lat="44.01625" lon="-1.32838">
        <ele>23</ele>
        <time>2019-04-25T14:47:56Z</time>
      </trkpt>
      <trkpt lat="44.01689" lon="-1.32825">
        <ele>24</ele>
        <time>2019-04-25T14:48:08Z</time>
      </trkpt>
      <trkpt lat="44.01754" lon="-1.32765">
        <ele>23</ele>
        <time>2019-04-25T14:48:20Z</time>
      </trkpt>
      <trkpt lat="44.01826" lon="-1.32725">
        <ele>24</ele>
        <time>2019-04-25T14:48:32Z</time>
      </trkpt>
      <trkpt lat="44.01857" lon="-1.32724">
        <ele>24</ele>
        <time>2019-04-25T14:48:38Z</time>
      </trkpt>
      <trkpt lat="44.0192" lon="-1.3271">
        <ele>23</ele>
        <time>2019-04-25T14:48:50Z</time>
      </trkpt>
      <trkpt lat="44.02048" lon="-1.32701">
        <ele>24</ele>
        <time>2019-04-25T14:49:14Z</time>
      </trkpt>
      <trkpt lat="44.02078" lon="-1.32702">
        <ele>24</ele>
        <time>2019-04-25T14:49:20Z</time>
      </trkpt>
      <trkpt lat="44.02171" lon="-1.32737">
        <ele>23</ele>
        <time>2019-04-25T14:49:38Z</time>
      </trkpt>
      <trkpt lat="44.02284" lon="-1.32739">
        <ele>23</ele>
        <time>2019-04-25T14:49:56Z</time>
      </trkpt>
      <trkpt lat="44.02459" lon="-1.32768">
        <ele>23</ele>
        <time>2019-04-25T14:50:20Z</time>
      </trkpt>
      <trkpt lat="44.02642" lon="-1.32779">
        <ele>25</ele>
        <time>2019-04-25T14:50:56Z</time>
      </trkpt>
      <trkpt lat="44.02825" lon="-1.32776">
        <ele>23</ele>
        <time>2019-04-25T14:51:32Z</time>
      </trkpt>
      <trkpt lat="44.0287" lon="-1.32779">
        <ele>23</ele>
        <time>2019-04-25T14:51:38Z</time>
      </trkpt>
      <trkpt lat="44.02944" lon="-1.32793">
        <ele>23</ele>
        <time>2019-04-25T14:51:50Z</time>
      </trkpt>
      <trkpt lat="44.03015" lon="-1.3279">
        <ele>23</ele>
        <time>2019-04-25T14:52:02Z</time>
      </trkpt>
      <trkpt lat="44.03126" lon="-1.32801">
        <ele>20</ele>
        <time>2019-04-25T14:52:20Z</time>
      </trkpt>
      <trkpt lat="44.03215" lon="-1.32826">
        <ele>19</ele>
        <time>2019-04-25T14:52:32Z</time>
      </trkpt>
      <trkpt lat="44.03326" lon="-1.3282">
        <ele>19</ele>
        <time>2019-04-25T14:52:50Z</time>
      </trkpt>
      <trkpt lat="44.03412" lon="-1.32822">
        <ele>16</ele>
        <time>2019-04-25T14:53:08Z</time>
      </trkpt>
      <trkpt lat="44.03445" lon="-1.32813">
        <ele>14</ele>
        <time>2019-04-25T14:53:32Z</time>
      </trkpt>
      <trkpt lat="44.0345" lon="-1.32814">
        <ele>14</ele>
        <time>2019-04-25T14:53:38Z</time>
      </trkpt>
      <trkpt lat="44.03452" lon="-1.32828">
        <ele>14</ele>
        <time>2019-04-25T14:54:14Z</time>
      </trkpt>
      <trkpt lat="44.03456" lon="-1.32823">
        <ele>14</ele>
        <time>2019-04-25T14:54:26Z</time>
      </trkpt>
      <trkpt lat="44.03464" lon="-1.32826">
        <ele>14</ele>
        <time>2019-04-25T15:01:20Z</time>
      </trkpt>
      <trkpt lat="44.03495" lon="-1.32879">
        <ele>16</ele>
        <time>2019-04-25T15:02:02Z</time>
      </trkpt>
      <trkpt lat="44.03526" lon="-1.32893">
        <ele>16</ele>
        <time>2019-04-25T15:02:14Z</time>
      </trkpt>
      <trkpt lat="44.03554" lon="-1.32886">
        <ele>17</ele>
        <time>2019-04-25T15:02:32Z</time>
      </trkpt>
      <trkpt lat="44.03564" lon="-1.32899">
        <ele>17</ele>
        <time>2019-04-25T15:02:50Z</time>
      </trkpt>
      <trkpt lat="44.0357" lon="-1.329">
        <ele>17</ele>
        <time>2019-04-25T15:05:13Z</time>
      </trkpt>
      <trkpt lat="44.03638" lon="-1.32855">
        <ele>14</ele>
        <time>2019-04-25T15:07:59Z</time>
      </trkpt>
      <trkpt lat="44.03769" lon="-1.32742">
        <ele>16</ele>
        <time>2019-04-25T15:08:37Z</time>
      </trkpt>
      <trkpt lat="44.03888" lon="-1.32658">
        <ele>9</ele>
        <time>2019-04-25T15:08:55Z</time>
      </trkpt>
      <trkpt lat="44.04081" lon="-1.32605">
        <ele>10</ele>
        <time>2019-04-25T15:09:31Z</time>
      </trkpt>
      <trkpt lat="44.04144" lon="-1.32581">
        <ele>10</ele>
        <time>2019-04-25T15:09:43Z</time>
      </trkpt>
      <trkpt lat="44.04205" lon="-1.3257">
        <ele>9</ele>
        <time>2019-04-25T15:09:55Z</time>
      </trkpt>
      <trkpt lat="44.04288" lon="-1.32546">
        <ele>11</ele>
        <time>2019-04-25T15:10:13Z</time>
      </trkpt>
      <trkpt lat="44.04343" lon="-1.32522">
        <ele>10</ele>
        <time>2019-04-25T15:10:25Z</time>
      </trkpt>
      <trkpt lat="44.0446" lon="-1.32486">
        <ele>10</ele>
        <time>2019-04-25T15:10:49Z</time>
      </trkpt>
      <trkpt lat="44.0454" lon="-1.32456">
        <ele>10</ele>
        <time>2019-04-25T15:11:07Z</time>
      </trkpt>
      <trkpt lat="44.04567" lon="-1.32439">
        <ele>18</ele>
        <time>2019-04-25T15:11:13Z</time>
      </trkpt>
      <trkpt lat="44.04621" lon="-1.32417">
        <ele>23</ele>
        <time>2019-04-25T15:11:25Z</time>
      </trkpt>
      <trkpt lat="44.04649" lon="-1.32397">
        <ele>23</ele>
        <time>2019-04-25T15:11:31Z</time>
      </trkpt>
      <trkpt lat="44.047" lon="-1.32372">
        <ele>23</ele>
        <time>2019-04-25T15:11:43Z</time>
      </trkpt>
      <trkpt lat="44.04777" lon="-1.3232">
        <ele>23</ele>
        <time>2019-04-25T15:12:01Z</time>
      </trkpt>
      <trkpt lat="44.04809" lon="-1.32315">
        <ele>23</ele>
        <time>2019-04-25T15:12:07Z</time>
      </trkpt>
      <trkpt lat="44.04893" lon="-1.3226">
        <ele>25</ele>
        <time>2019-04-25T15:12:25Z</time>
      </trkpt>
      <trkpt lat="44.04963" lon="-1.32235">
        <ele>17</ele>
        <time>2019-04-25T15:12:43Z</time>
      </trkpt>
      <trkpt lat="44.04983" lon="-1.32245">
        <ele>17</ele>
        <time>2019-04-25T15:12:49Z</time>
      </trkpt>
      <trkpt lat="44.05049" lon="-1.32259">
        <ele>28</ele>
        <time>2019-04-25T15:13:13Z</time>
      </trkpt>
      <trkpt lat="44.05079" lon="-1.32252">
        <ele>28</ele>
        <time>2019-04-25T15:13:25Z</time>
      </trkpt>
      <trkpt lat="44.0511" lon="-1.32259">
        <ele>27</ele>
        <time>2019-04-25T15:13:37Z</time>
      </trkpt>
      <trkpt lat="44.05278" lon="-1.32326">
        <ele>23</ele>
        <time>2019-04-25T15:14:07Z</time>
      </trkpt>
      <trkpt lat="44.05358" lon="-1.32366">
        <ele>18</ele>
        <time>2019-04-25T15:14:19Z</time>
      </trkpt>
      <trkpt lat="44.05534" lon="-1.32426">
        <ele>17</ele>
        <time>2019-04-25T15:14:49Z</time>
      </trkpt>
      <trkpt lat="44.05637" lon="-1.32443">
        <ele>19</ele>
        <time>2019-04-25T15:15:07Z</time>
      </trkpt>
      <trkpt lat="44.05694" lon="-1.32423">
        <ele>18</ele>
        <time>2019-04-25T15:15:25Z</time>
      </trkpt>
      <trkpt lat="44.05697" lon="-1.32428">
        <ele>18</ele>
        <time>2019-04-25T15:15:46Z</time>
      </trkpt>
      <trkpt lat="44.05743" lon="-1.32425">
        <ele>16</ele>
        <time>2019-04-25T15:16:08Z</time>
      </trkpt>
      <trkpt lat="44.05911" lon="-1.32449">
        <ele>18</ele>
        <time>2019-04-25T15:16:46Z</time>
      </trkpt>
      <trkpt lat="44.06083" lon="-1.325">
        <ele>17</ele>
        <time>2019-04-25T15:17:05Z</time>
      </trkpt>
      <trkpt lat="44.06156" lon="-1.32528">
        <ele>17</ele>
        <time>2019-04-25T15:17:17Z</time>
      </trkpt>
      <trkpt lat="44.06212" lon="-1.32559">
        <ele>17</ele>
        <time>2019-04-25T15:17:29Z</time>
      </trkpt>
      <trkpt lat="44.06269" lon="-1.32578">
        <ele>17</ele>
        <time>2019-04-25T15:17:41Z</time>
      </trkpt>
      <trkpt lat="44.06373" lon="-1.32534">
        <ele>14</ele>
        <time>2019-04-25T15:17:59Z</time>
      </trkpt>
      <trkpt lat="44.06433" lon="-1.32496">
        <ele>15</ele>
        <time>2019-04-25T15:18:11Z</time>
      </trkpt>
      <trkpt lat="44.06509" lon="-1.32431">
        <ele>15</ele>
        <time>2019-04-25T15:18:29Z</time>
      </trkpt>
      <trkpt lat="44.06554" lon="-1.32381">
        <ele>16</ele>
        <time>2019-04-25T15:18:41Z</time>
      </trkpt>
      <trkpt lat="44.06583" lon="-1.32359">
        <ele>16</ele>
        <time>2019-04-25T15:18:47Z</time>
      </trkpt>
      <trkpt lat="44.06628" lon="-1.32315">
        <ele>17</ele>
        <time>2019-04-25T15:18:59Z</time>
      </trkpt>
      <trkpt lat="44.06635" lon="-1.32298">
        <ele>17</ele>
        <time>2019-04-25T15:19:05Z</time>
      </trkpt>
      <trkpt lat="44.06654" lon="-1.3228">
        <ele>18</ele>
        <time>2019-04-25T15:19:11Z</time>
      </trkpt>
      <trkpt lat="44.06727" lon="-1.32171">
        <ele>18</ele>
        <time>2019-04-25T15:19:35Z</time>
      </trkpt>
      <trkpt lat="44.06788" lon="-1.32142">
        <ele>18</ele>
        <time>2019-04-25T15:19:47Z</time>
      </trkpt>
      <trkpt lat="44.06903" lon="-1.32105">
        <ele>18</ele>
        <time>2019-04-25T15:20:11Z</time>
      </trkpt>
      <trkpt lat="44.07" lon="-1.3205">
        <ele>9</ele>
        <time>2019-04-25T15:20:35Z</time>
      </trkpt>
      <trkpt lat="44.07028" lon="-1.32038">
        <ele>13</ele>
        <time>2019-04-25T15:20:41Z</time>
      </trkpt>
      <trkpt lat="44.07081" lon="-1.32025">
        <ele>11</ele>
        <time>2019-04-25T15:20:53Z</time>
      </trkpt>
      <trkpt lat="44.07128" lon="-1.31994">
        <ele>9</ele>
        <time>2019-04-25T15:21:05Z</time>
      </trkpt>
      <trkpt lat="44.07169" lon="-1.31976">
        <ele>8</ele>
        <time>2019-04-25T15:21:17Z</time>
      </trkpt>
      <trkpt lat="44.07249" lon="-1.31952">
        <ele>10</ele>
        <time>2019-04-25T15:21:35Z</time>
      </trkpt>
      <trkpt lat="44.07301" lon="-1.31925">
        <ele>9</ele>
        <time>2019-04-25T15:21:47Z</time>
      </trkpt>
      <trkpt lat="44.07367" lon="-1.31875">
        <ele>12</ele>
        <time>2019-04-25T15:21:59Z</time>
      </trkpt>
      <trkpt lat="44.0743" lon="-1.31841">
        <ele>11</ele>
        <time>2019-04-25T15:22:11Z</time>
      </trkpt>
      <trkpt lat="44.07699" lon="-1.31725">
        <ele>17</ele>
        <time>2019-04-25T15:23:05Z</time>
      </trkpt>
      <trkpt lat="44.07805" lon="-1.31683">
        <ele>15</ele>
        <time>2019-04-25T15:23:29Z</time>
      </trkpt>
      <trkpt lat="44.07888" lon="-1.31658">
        <ele>9</ele>
        <time>2019-04-25T15:23:59Z</time>
      </trkpt>
      <trkpt lat="44.07962" lon="-1.31654">
        <ele>9</ele>
        <time>2019-04-25T15:24:23Z</time>
      </trkpt>
      <trkpt lat="44.0804" lon="-1.31638">
        <ele>10</ele>
        <time>2019-04-25T15:24:41Z</time>
      </trkpt>
      <trkpt lat="44.08263" lon="-1.31629">
        <ele>11</ele>
        <time>2019-04-25T15:25:31Z</time>
      </trkpt>
      <trkpt lat="44.08341" lon="-1.31622">
        <ele>12</ele>
        <time>2019-04-25T15:25:36Z</time>
      </trkpt>
      <trkpt lat="44.08358" lon="-1.31613">
        <ele>12</ele>
        <time>2019-04-25T15:25:48Z</time>
      </trkpt>
      <trkpt lat="44.08375" lon="-1.31481">
        <ele>11</ele>
        <time>2019-04-25T15:27:30Z</time>
      </trkpt>
      <trkpt lat="44.0837" lon="-1.31407">
        <ele>10</ele>
        <time>2019-04-25T15:27:42Z</time>
      </trkpt>
      <trkpt lat="44.08372" lon="-1.31334">
        <ele>10</ele>
        <time>2019-04-25T15:27:54Z</time>
      </trkpt>
      <trkpt lat="44.08367" lon="-1.31247">
        <ele>10</ele>
        <time>2019-04-25T15:28:12Z</time>
      </trkpt>
      <trkpt lat="44.08376" lon="-1.31199">
        <ele>12</ele>
        <time>2019-04-25T15:28:24Z</time>
      </trkpt>
      <trkpt lat="44.08405" lon="-1.31128">
        <ele>13</ele>
        <time>2019-04-25T15:28:42Z</time>
      </trkpt>
      <trkpt lat="44.08417" lon="-1.31078">
        <ele>14</ele>
        <time>2019-04-25T15:28:54Z</time>
      </trkpt>
      <trkpt lat="44.08447" lon="-1.31035">
        <ele>14</ele>
        <time>2019-04-25T15:29:06Z</time>
      </trkpt>
      <trkpt lat="44.08471" lon="-1.3099">
        <ele>13</ele>
        <time>2019-04-25T15:29:30Z</time>
      </trkpt>
      <trkpt lat="44.08494" lon="-1.30959">
        <ele>13</ele>
        <time>2019-04-25T15:29:42Z</time>
      </trkpt>
      <trkpt lat="44.08542" lon="-1.3097">
        <ele>12</ele>
        <time>2019-04-25T15:30:00Z</time>
      </trkpt>
      <trkpt lat="44.0865" lon="-1.31007">
        <ele>12</ele>
        <time>2019-04-25T15:30:42Z</time>
      </trkpt>
      <trkpt lat="44.08678" lon="-1.31023">
        <ele>14</ele>
        <time>2019-04-25T15:30:54Z</time>
      </trkpt>
      <trkpt lat="44.08711" lon="-1.31055">
        <ele>17</ele>
        <time>2019-04-25T15:31:06Z</time>
      </trkpt>
      <trkpt lat="44.0876" lon="-1.31176">
        <ele>19</ele>
        <time>2019-04-25T15:31:30Z</time>
      </trkpt>
      <trkpt lat="44.0879" lon="-1.31291">
        <ele>19</ele>
        <time>2019-04-25T15:31:54Z</time>
      </trkpt>
      <trkpt lat="44.08867" lon="-1.31507">
        <ele>16</ele>
        <time>2019-04-25T15:32:36Z</time>
      </trkpt>
      <trkpt lat="44.08892" lon="-1.31593">
        <ele>16</ele>
        <time>2019-04-25T15:32:54Z</time>
      </trkpt>
      <trkpt lat="44.08893" lon="-1.31614">
        <ele>16</ele>
        <time>2019-04-25T15:33:00Z</time>
      </trkpt>
      <trkpt lat="44.08872" lon="-1.31638">
        <ele>14</ele>
        <time>2019-04-25T15:33:12Z</time>
      </trkpt>
      <trkpt lat="44.08882" lon="-1.31678">
        <ele>14</ele>
        <time>2019-04-25T15:33:36Z</time>
      </trkpt>
      <trkpt lat="44.08894" lon="-1.31695">
        <ele>14</ele>
        <time>2019-04-25T15:34:06Z</time>
      </trkpt>
      <trkpt lat="44.0889" lon="-1.31706">
        <ele>14</ele>
        <time>2019-04-25T15:37:24Z</time>
      </trkpt>
      <trkpt lat="44.08892" lon="-1.31704">
        <ele>14</ele>
        <time>2019-04-25T15:38:00Z</time>
      </trkpt>
      <trkpt lat="44.08881" lon="-1.31678">
        <ele>14</ele>
        <time>2019-04-25T15:38:12Z</time>
      </trkpt>
      <trkpt lat="44.08877" lon="-1.31633">
        <ele>14</ele>
        <time>2019-04-25T15:38:24Z</time>
      </trkpt>
      <trkpt lat="44.08891" lon="-1.31624">
        <ele>16</ele>
        <time>2019-04-25T15:38:36Z</time>
      </trkpt>
      <trkpt lat="44.0897" lon="-1.31849">
        <ele>13</ele>
        <time>2019-04-25T15:39:30Z</time>
      </trkpt>
      <trkpt lat="44.08999" lon="-1.31896">
        <ele>13</ele>
        <time>2019-04-25T15:39:42Z</time>
      </trkpt>
      <trkpt lat="44.09074" lon="-1.3198">
        <ele>13</ele>
        <time>2019-04-25T15:40:06Z</time>
      </trkpt>
      <trkpt lat="44.09097" lon="-1.32018">
        <ele>13</ele>
        <time>2019-04-25T15:40:18Z</time>
      </trkpt>
      <trkpt lat="44.09104" lon="-1.32066">
        <ele>13</ele>
        <time>2019-04-25T15:40:30Z</time>
      </trkpt>
      <trkpt lat="44.09096" lon="-1.32264">
        <ele>13</ele>
        <time>2019-04-25T15:42:06Z</time>
      </trkpt>
      <trkpt lat="44.09097" lon="-1.32336">
        <ele>12</ele>
        <time>2019-04-25T15:42:24Z</time>
      </trkpt>
      <trkpt lat="44.091" lon="-1.32362">
        <ele>12</ele>
        <time>2019-04-25T15:42:36Z</time>
      </trkpt>
      <trkpt lat="44.09092" lon="-1.32356">
        <ele>12</ele>
        <time>2019-04-25T15:42:42Z</time>
      </trkpt>
      <trkpt lat="44.09088" lon="-1.32345">
        <ele>12</ele>
        <time>2019-04-25T15:42:48Z</time>
      </trkpt>
      <trkpt lat="44.09092" lon="-1.32341">
        <ele>12</ele>
        <time>2019-04-25T15:43:00Z</time>
      </trkpt>
      <trkpt lat="44.09093" lon="-1.3235">
        <ele>12</ele>
        <time>2019-04-25T15:43:06Z</time>
      </trkpt>
      <trkpt lat="44.09087" lon="-1.32343">
        <ele>12</ele>
        <time>2019-04-25T15:44:18Z</time>
      </trkpt>
      <trkpt lat="44.09091" lon="-1.32335">
        <ele>12</ele>
        <time>2019-04-25T15:45:06Z</time>
      </trkpt>
      <trkpt lat="44.09086" lon="-1.32342">
        <ele>12</ele>
        <time>2019-04-25T15:56:18Z</time>
      </trkpt>
      <trkpt lat="44.09082" lon="-1.3234">
        <ele>12</ele>
        <time>2019-04-25T16:01:36Z</time>
      </trkpt>
      <trkpt lat="44.09085" lon="-1.3234">
        <ele>12</ele>
        <time>2019-04-25T16:07:42Z</time>
      </trkpt>
      <trkpt lat="44.09082" lon="-1.32345">
        <ele>12</ele>
        <time>2019-04-25T16:10:36Z</time>
      </trkpt>
      <trkpt lat="44.09087" lon="-1.32341">
        <ele>12</ele>
        <time>2019-04-25T16:18:42Z</time>
      </trkpt>
      <trkpt lat="44.09088" lon="-1.32346">
        <ele>12</ele>
        <time>2019-04-25T16:20:36Z</time>
      </trkpt>
      <trkpt lat="44.09081" lon="-1.32343">
        <ele>12</ele>
        <time>2019-04-25T16:25:36Z</time>
      </trkpt>
      <trkpt lat="44.09085" lon="-1.32346">
        <ele>12</ele>
        <time>2019-04-25T16:28:06Z</time>
      </trkpt>
      <trkpt lat="44.09083" lon="-1.32235">
        <ele>14</ele>
        <time>2019-04-25T16:29:24Z</time>
      </trkpt>
      <trkpt lat="44.09089" lon="-1.32096">
        <ele>13</ele>
        <time>2019-04-25T16:30:06Z</time>
      </trkpt>
      <trkpt lat="44.09082" lon="-1.32003">
        <ele>13</ele>
        <time>2019-04-25T16:30:24Z</time>
      </trkpt>
      <trkpt lat="44.0915" lon="-1.31985">
        <ele>13</ele>
        <time>2019-04-25T16:30:42Z</time>
      </trkpt>
      <trkpt lat="44.09211" lon="-1.31953">
        <ele>12</ele>
        <time>2019-04-25T16:30:59Z</time>
      </trkpt>
      <trkpt lat="44.09237" lon="-1.31937">
        <ele>12</ele>
        <time>2019-04-25T16:31:05Z</time>
      </trkpt>
      <trkpt lat="44.09243" lon="-1.31916">
        <ele>12</ele>
        <time>2019-04-25T16:31:17Z</time>
      </trkpt>
      <trkpt lat="44.09263" lon="-1.31911">
        <ele>11</ele>
        <time>2019-04-25T16:31:29Z</time>
      </trkpt>
      <trkpt lat="44.09367" lon="-1.31837">
        <ele>14</ele>
        <time>2019-04-25T16:31:53Z</time>
      </trkpt>
      <trkpt lat="44.09486" lon="-1.31768">
        <ele>17</ele>
        <time>2019-04-25T16:32:23Z</time>
      </trkpt>
      <trkpt lat="44.09502" lon="-1.31752">
        <ele>18</ele>
        <time>2019-04-25T16:32:29Z</time>
      </trkpt>
      <trkpt lat="44.09562" lon="-1.31672">
        <ele>18</ele>
        <time>2019-04-25T16:32:47Z</time>
      </trkpt>
      <trkpt lat="44.09598" lon="-1.31575">
        <ele>19</ele>
        <time>2019-04-25T16:32:59Z</time>
      </trkpt>
      <trkpt lat="44.0964" lon="-1.31517">
        <ele>19</ele>
        <time>2019-04-25T16:33:11Z</time>
      </trkpt>
      <trkpt lat="44.09762" lon="-1.31434">
        <ele>11</ele>
        <time>2019-04-25T16:33:29Z</time>
      </trkpt>
      <trkpt lat="44.09809" lon="-1.31432">
        <ele>10</ele>
        <time>2019-04-25T16:33:41Z</time>
      </trkpt>
      <trkpt lat="44.09897" lon="-1.3136">
        <ele>7</ele>
        <time>2019-04-25T16:34:05Z</time>
      </trkpt>
      <trkpt lat="44.0997" lon="-1.31279">
        <ele>6</ele>
        <time>2019-04-25T16:34:23Z</time>
      </trkpt>
      <trkpt lat="44.10027" lon="-1.31227">
        <ele>8</ele>
        <time>2019-04-25T16:34:35Z</time>
      </trkpt>
      <trkpt lat="44.1011" lon="-1.312">
        <ele>12</ele>
        <time>2019-04-25T16:34:47Z</time>
      </trkpt>
      <trkpt lat="44.10184" lon="-1.31167">
        <ele>14</ele>
        <time>2019-04-25T16:34:59Z</time>
      </trkpt>
      <trkpt lat="44.10238" lon="-1.31103">
        <ele>13</ele>
        <time>2019-04-25T16:35:11Z</time>
      </trkpt>
      <trkpt lat="44.10394" lon="-1.30971">
        <ele>10</ele>
        <time>2019-04-25T16:35:47Z</time>
      </trkpt>
      <trkpt lat="44.10433" lon="-1.30909">
        <ele>9</ele>
        <time>2019-04-25T16:35:59Z</time>
      </trkpt>
      <trkpt lat="44.10532" lon="-1.30725">
        <ele>13</ele>
        <time>2019-04-25T16:36:35Z</time>
      </trkpt>
      <trkpt lat="44.10599" lon="-1.30642">
        <ele>12</ele>
        <time>2019-04-25T16:36:59Z</time>
      </trkpt>
      <trkpt lat="44.10642" lon="-1.30599">
        <ele>9</ele>
        <time>2019-04-25T16:37:11Z</time>
      </trkpt>
      <trkpt lat="44.10838" lon="-1.30329">
        <ele>10</ele>
        <time>2019-04-25T16:38:05Z</time>
      </trkpt>
      <trkpt lat="44.10919" lon="-1.30234">
        <ele>16</ele>
        <time>2019-04-25T16:38:23Z</time>
      </trkpt>
      <trkpt lat="44.10965" lon="-1.30205">
        <ele>19</ele>
        <time>2019-04-25T16:38:35Z</time>
      </trkpt>
      <trkpt lat="44.11066" lon="-1.30175">
        <ele>20</ele>
        <time>2019-04-25T16:38:59Z</time>
      </trkpt>
      <trkpt lat="44.11147" lon="-1.30142">
        <ele>23</ele>
        <time>2019-04-25T16:39:17Z</time>
      </trkpt>
      <trkpt lat="44.11329" lon="-1.30057">
        <ele>22</ele>
        <time>2019-04-25T16:39:53Z</time>
      </trkpt>
      <trkpt lat="44.11417" lon="-1.30022">
        <ele>21</ele>
        <time>2019-04-25T16:40:11Z</time>
      </trkpt>
      <trkpt lat="44.11501" lon="-1.29997">
        <ele>23</ele>
        <time>2019-04-25T16:40:35Z</time>
      </trkpt>
      <trkpt lat="44.11545" lon="-1.29988">
        <ele>24</ele>
        <time>2019-04-25T16:40:48Z</time>
      </trkpt>
      <trkpt lat="44.11694" lon="-1.30009">
        <ele>22</ele>
        <time>2019-04-25T16:41:11Z</time>
      </trkpt>
      <trkpt lat="44.1177" lon="-1.30001">
        <ele>21</ele>
        <time>2019-04-25T16:41:23Z</time>
      </trkpt>
      <trkpt lat="44.11836" lon="-1.29965">
        <ele>23</ele>
        <time>2019-04-25T16:41:35Z</time>
      </trkpt>
      <trkpt lat="44.11912" lon="-1.29905">
        <ele>24</ele>
        <time>2019-04-25T16:41:53Z</time>
      </trkpt>
      <trkpt lat="44.11959" lon="-1.29874">
        <ele>23</ele>
        <time>2019-04-25T16:42:05Z</time>
      </trkpt>
      <trkpt lat="44.12057" lon="-1.29875">
        <ele>21</ele>
        <time>2019-04-25T16:42:24Z</time>
      </trkpt>
      <trkpt lat="44.12115" lon="-1.29882">
        <ele>20</ele>
        <time>2019-04-25T16:42:35Z</time>
      </trkpt>
      <trkpt lat="44.12145" lon="-1.29874">
        <ele>20</ele>
        <time>2019-04-25T16:42:41Z</time>
      </trkpt>
      <trkpt lat="44.12216" lon="-1.29842">
        <ele>21</ele>
        <time>2019-04-25T16:42:59Z</time>
      </trkpt>
      <trkpt lat="44.12262" lon="-1.29831">
        <ele>20</ele>
        <time>2019-04-25T16:43:11Z</time>
      </trkpt>
      <trkpt lat="44.1232" lon="-1.29833">
        <ele>17</ele>
        <time>2019-04-25T16:43:23Z</time>
      </trkpt>
      <trkpt lat="44.12406" lon="-1.29825">
        <ele>17</ele>
        <time>2019-04-25T16:43:41Z</time>
      </trkpt>
      <trkpt lat="44.12449" lon="-1.29815">
        <ele>17</ele>
        <time>2019-04-25T16:43:53Z</time>
      </trkpt>
      <trkpt lat="44.12499" lon="-1.29793">
        <ele>19</ele>
        <time>2019-04-25T16:44:05Z</time>
      </trkpt>
      <trkpt lat="44.12744" lon="-1.29805">
        <ele>18</ele>
        <time>2019-04-25T16:44:48Z</time>
      </trkpt>
      <trkpt lat="44.12805" lon="-1.29786">
        <ele>11</ele>
        <time>2019-04-25T16:44:59Z</time>
      </trkpt>
      <trkpt lat="44.12952" lon="-1.29765">
        <ele>10</ele>
        <time>2019-04-25T16:45:29Z</time>
      </trkpt>
      <trkpt lat="44.13077" lon="-1.29754">
        <ele>15</ele>
        <time>2019-04-25T16:45:53Z</time>
      </trkpt>
      <trkpt lat="44.13141" lon="-1.29761">
        <ele>19</ele>
        <time>2019-04-25T16:46:06Z</time>
      </trkpt>
      <trkpt lat="44.13207" lon="-1.29781">
        <ele>20</ele>
        <time>2019-04-25T16:46:17Z</time>
      </trkpt>
      <trkpt lat="44.13287" lon="-1.29836">
        <ele>20</ele>
        <time>2019-04-25T16:46:35Z</time>
      </trkpt>
      <trkpt lat="44.13355" lon="-1.29861">
        <ele>20</ele>
        <time>2019-04-25T16:46:47Z</time>
      </trkpt>
      <trkpt lat="44.13475" lon="-1.29872">
        <ele>19</ele>
        <time>2019-04-25T16:47:05Z</time>
      </trkpt>
      <trkpt lat="44.1361" lon="-1.29875">
        <ele>16</ele>
        <time>2019-04-25T16:47:29Z</time>
      </trkpt>
      <trkpt lat="44.13657" lon="-1.29862">
        <ele>17</ele>
        <time>2019-04-25T16:47:41Z</time>
      </trkpt>
      <trkpt lat="44.13781" lon="-1.29806">
        <ele>19</ele>
        <time>2019-04-25T16:48:17Z</time>
      </trkpt>
      <trkpt lat="44.13841" lon="-1.29785">
        <ele>16</ele>
        <time>2019-04-25T16:48:29Z</time>
      </trkpt>
      <trkpt lat="44.13937" lon="-1.29782">
        <ele>15</ele>
        <time>2019-04-25T16:48:53Z</time>
      </trkpt>
      <trkpt lat="44.1398" lon="-1.29775">
        <ele>16</ele>
        <time>2019-04-25T16:49:05Z</time>
      </trkpt>
      <trkpt lat="44.14002" lon="-1.29785">
        <ele>16</ele>
        <time>2019-04-25T16:49:11Z</time>
      </trkpt>
      <trkpt lat="44.14042" lon="-1.29814">
        <ele>17</ele>
        <time>2019-04-25T16:49:23Z</time>
      </trkpt>
      <trkpt lat="44.14194" lon="-1.29989">
        <ele>20</ele>
        <time>2019-04-25T16:50:11Z</time>
      </trkpt>
      <trkpt lat="44.14239" lon="-1.30024">
        <ele>23</ele>
        <time>2019-04-25T16:50:24Z</time>
      </trkpt>
      <trkpt lat="44.14288" lon="-1.30042">
        <ele>23</ele>
        <time>2019-04-25T16:50:35Z</time>
      </trkpt>
      <trkpt lat="44.1433" lon="-1.30032">
        <ele>21</ele>
        <time>2019-04-25T16:50:41Z</time>
      </trkpt>
      <trkpt lat="44.1445" lon="-1.29971">
        <ele>19</ele>
        <time>2019-04-25T16:51:11Z</time>
      </trkpt>
      <trkpt lat="44.14612" lon="-1.29902">
        <ele>16</ele>
        <time>2019-04-25T16:51:47Z</time>
      </trkpt>
      <trkpt lat="44.14736" lon="-1.29871">
        <ele>15</ele>
        <time>2019-04-25T16:52:05Z</time>
      </trkpt>
      <trkpt lat="44.14798" lon="-1.29863">
        <ele>16</ele>
        <time>2019-04-25T16:52:17Z</time>
      </trkpt>
      <trkpt lat="44.1488" lon="-1.29841">
        <ele>21</ele>
        <time>2019-04-25T16:52:35Z</time>
      </trkpt>
      <trkpt lat="44.14949" lon="-1.29828">
        <ele>22</ele>
        <time>2019-04-25T16:52:53Z</time>
      </trkpt>
      <trkpt lat="44.15093" lon="-1.2979">
        <ele>20</ele>
        <time>2019-04-25T16:53:23Z</time>
      </trkpt>
      <trkpt lat="44.1518" lon="-1.29779">
        <ele>18</ele>
        <time>2019-04-25T16:53:35Z</time>
      </trkpt>
      <trkpt lat="44.1525" lon="-1.29781">
        <ele>20</ele>
        <time>2019-04-25T16:53:47Z</time>
      </trkpt>
      <trkpt lat="44.15276" lon="-1.29797">
        <ele>22</ele>
        <time>2019-04-25T16:53:53Z</time>
      </trkpt>
      <trkpt lat="44.15297" lon="-1.29836">
        <ele>22</ele>
        <time>2019-04-25T16:53:59Z</time>
      </trkpt>
      <trkpt lat="44.15347" lon="-1.29952">
        <ele>20</ele>
        <time>2019-04-25T16:54:17Z</time>
      </trkpt>
      <trkpt lat="44.15374" lon="-1.29997">
        <ele>23</ele>
        <time>2019-04-25T16:54:29Z</time>
      </trkpt>
      <trkpt lat="44.15406" lon="-1.30021">
        <ele>23</ele>
        <time>2019-04-25T16:54:41Z</time>
      </trkpt>
      <trkpt lat="44.15479" lon="-1.30089">
        <ele>17</ele>
        <time>2019-04-25T16:54:59Z</time>
      </trkpt>
      <trkpt lat="44.15551" lon="-1.30201">
        <ele>15</ele>
        <time>2019-04-25T16:55:17Z</time>
      </trkpt>
      <trkpt lat="44.15646" lon="-1.30262">
        <ele>16</ele>
        <time>2019-04-25T16:55:41Z</time>
      </trkpt>
      <trkpt lat="44.15696" lon="-1.30277">
        <ele>17</ele>
        <time>2019-04-25T16:55:53Z</time>
      </trkpt>
      <trkpt lat="44.15757" lon="-1.30285">
        <ele>19</ele>
        <time>2019-04-25T16:56:05Z</time>
      </trkpt>
      <trkpt lat="44.15821" lon="-1.30176">
        <ele>19</ele>
        <time>2019-04-25T16:56:29Z</time>
      </trkpt>
      <trkpt lat="44.15854" lon="-1.30143">
        <ele>19</ele>
        <time>2019-04-25T16:56:41Z</time>
      </trkpt>
      <trkpt lat="44.15886" lon="-1.30132">
        <ele>15</ele>
        <time>2019-04-25T16:56:53Z</time>
      </trkpt>
      <trkpt lat="44.15967" lon="-1.30148">
        <ele>13</ele>
        <time>2019-04-25T16:57:17Z</time>
      </trkpt>
      <trkpt lat="44.15984" lon="-1.30142">
        <ele>13</ele>
        <time>2019-04-25T16:57:23Z</time>
      </trkpt>
      <trkpt lat="44.16032" lon="-1.3011">
        <ele>16</ele>
        <time>2019-04-25T16:57:35Z</time>
      </trkpt>
      <trkpt lat="44.16081" lon="-1.30104">
        <ele>19</ele>
        <time>2019-04-25T16:57:47Z</time>
      </trkpt>
      <trkpt lat="44.1613" lon="-1.30057">
        <ele>21</ele>
        <time>2019-04-25T16:57:59Z</time>
      </trkpt>
      <trkpt lat="44.16201" lon="-1.30069">
        <ele>22</ele>
        <time>2019-04-25T16:58:11Z</time>
      </trkpt>
      <trkpt lat="44.16296" lon="-1.30069">
        <ele>16</ele>
        <time>2019-04-25T16:58:23Z</time>
      </trkpt>
      <trkpt lat="44.16327" lon="-1.3009">
        <ele>14</ele>
        <time>2019-04-25T16:58:29Z</time>
      </trkpt>
      <trkpt lat="44.16359" lon="-1.30133">
        <ele>11</ele>
        <time>2019-04-25T16:58:41Z</time>
      </trkpt>
      <trkpt lat="44.16382" lon="-1.30174">
        <ele>11</ele>
        <time>2019-04-25T16:58:53Z</time>
      </trkpt>
      <trkpt lat="44.16398" lon="-1.30183">
        <ele>11</ele>
        <time>2019-04-25T16:58:59Z</time>
      </trkpt>
      <trkpt lat="44.16417" lon="-1.30187">
        <ele>13</ele>
        <time>2019-04-25T16:59:11Z</time>
      </trkpt>
      <trkpt lat="44.1655" lon="-1.30157">
        <ele>14</ele>
        <time>2019-04-25T16:59:53Z</time>
      </trkpt>
      <trkpt lat="44.16582" lon="-1.30114">
        <ele>15</ele>
        <time>2019-04-25T17:00:05Z</time>
      </trkpt>
      <trkpt lat="44.16693" lon="-1.3002">
        <ele>15</ele>
        <time>2019-04-25T17:00:29Z</time>
      </trkpt>
      <trkpt lat="44.16724" lon="-1.30008">
        <ele>15</ele>
        <time>2019-04-25T17:00:35Z</time>
      </trkpt>
      <trkpt lat="44.16896" lon="-1.2997">
        <ele>15</ele>
        <time>2019-04-25T17:01:06Z</time>
      </trkpt>
      <trkpt lat="44.16957" lon="-1.29943">
        <ele>15</ele>
        <time>2019-04-25T17:01:17Z</time>
      </trkpt>
      <trkpt lat="44.17003" lon="-1.29815">
        <ele>16</ele>
        <time>2019-04-25T17:01:35Z</time>
      </trkpt>
      <trkpt lat="44.17063" lon="-1.29766">
        <ele>15</ele>
        <time>2019-04-25T17:01:47Z</time>
      </trkpt>
      <trkpt lat="44.17112" lon="-1.29754">
        <ele>15</ele>
        <time>2019-04-25T17:01:59Z</time>
      </trkpt>
      <trkpt lat="44.1717" lon="-1.29757">
        <ele>16</ele>
        <time>2019-04-25T17:02:11Z</time>
      </trkpt>
      <trkpt lat="44.17203" lon="-1.2976">
        <ele>16</ele>
        <time>2019-04-25T17:02:17Z</time>
      </trkpt>
      <trkpt lat="44.17296" lon="-1.29781">
        <ele>16</ele>
        <time>2019-04-25T17:02:35Z</time>
      </trkpt>
      <trkpt lat="44.17327" lon="-1.29777">
        <ele>16</ele>
        <time>2019-04-25T17:02:41Z</time>
      </trkpt>
      <trkpt lat="44.1741" lon="-1.29745">
        <ele>15</ele>
        <time>2019-04-25T17:02:59Z</time>
      </trkpt>
      <trkpt lat="44.17621" lon="-1.2964">
        <ele>10</ele>
        <time>2019-04-25T17:03:41Z</time>
      </trkpt>
      <trkpt lat="44.17673" lon="-1.29602">
        <ele>9</ele>
        <time>2019-04-25T17:03:53Z</time>
      </trkpt>
      <trkpt lat="44.17823" lon="-1.29475">
        <ele>7</ele>
        <time>2019-04-25T17:04:29Z</time>
      </trkpt>
      <trkpt lat="44.17876" lon="-1.2944">
        <ele>8</ele>
        <time>2019-04-25T17:04:42Z</time>
      </trkpt>
      <trkpt lat="44.18117" lon="-1.29371">
        <ele>10</ele>
        <time>2019-04-25T17:05:35Z</time>
      </trkpt>
      <trkpt lat="44.18145" lon="-1.29358">
        <ele>10</ele>
        <time>2019-04-25T17:05:41Z</time>
      </trkpt>
      <trkpt lat="44.18164" lon="-1.29342">
        <ele>10</ele>
        <time>2019-04-25T17:05:47Z</time>
      </trkpt>
      <trkpt lat="44.1822" lon="-1.29312">
        <ele>10</ele>
        <time>2019-04-25T17:05:59Z</time>
      </trkpt>
      <trkpt lat="44.18578" lon="-1.29253">
        <ele>8</ele>
        <time>2019-04-25T17:07:17Z</time>
      </trkpt>
      <trkpt lat="44.18692" lon="-1.29249">
        <ele>9</ele>
        <time>2019-04-25T17:07:42Z</time>
      </trkpt>
      <trkpt lat="44.18887" lon="-1.29226">
        <ele>8</ele>
        <time>2019-04-25T17:08:17Z</time>
      </trkpt>
      <trkpt lat="44.18952" lon="-1.29224">
        <ele>9</ele>
        <time>2019-04-25T17:08:29Z</time>
      </trkpt>
      <trkpt lat="44.19057" lon="-1.29207">
        <ele>10</ele>
        <time>2019-04-25T17:08:47Z</time>
      </trkpt>
      <trkpt lat="44.19146" lon="-1.29201">
        <ele>12</ele>
        <time>2019-04-25T17:09:11Z</time>
      </trkpt>
      <trkpt lat="44.19184" lon="-1.2919">
        <ele>12</ele>
        <time>2019-04-25T17:09:23Z</time>
      </trkpt>
      <trkpt lat="44.19247" lon="-1.29191">
        <ele>12</ele>
        <time>2019-04-25T17:09:35Z</time>
      </trkpt>
      <trkpt lat="44.19318" lon="-1.29179">
        <ele>10</ele>
        <time>2019-04-25T17:09:47Z</time>
      </trkpt>
      <trkpt lat="44.19412" lon="-1.2912">
        <ele>8</ele>
        <time>2019-04-25T17:10:05Z</time>
      </trkpt>
      <trkpt lat="44.19428" lon="-1.29086">
        <ele>7</ele>
        <time>2019-04-25T17:10:12Z</time>
      </trkpt>
      <trkpt lat="44.19505" lon="-1.28882">
        <ele>7</ele>
        <time>2019-04-25T17:11:00Z</time>
      </trkpt>
      <trkpt lat="44.19633" lon="-1.28616">
        <ele>7</ele>
        <time>2019-04-25T17:11:52Z</time>
      </trkpt>
      <trkpt lat="44.19708" lon="-1.28501">
        <ele>8</ele>
        <time>2019-04-25T17:12:18Z</time>
      </trkpt>
      <trkpt lat="44.19757" lon="-1.28464">
        <ele>9</ele>
        <time>2019-04-25T17:12:31Z</time>
      </trkpt>
      <trkpt lat="44.19864" lon="-1.28417">
        <ele>9</ele>
        <time>2019-04-25T17:12:57Z</time>
      </trkpt>
      <trkpt lat="44.20122" lon="-1.28368">
        <ele>10</ele>
        <time>2019-04-25T17:13:49Z</time>
      </trkpt>
      <trkpt lat="44.20247" lon="-1.28337">
        <ele>11</ele>
        <time>2019-04-25T17:14:08Z</time>
      </trkpt>
      <trkpt lat="44.20297" lon="-1.28332">
        <ele>11</ele>
        <time>2019-04-25T17:14:20Z</time>
      </trkpt>
      <trkpt lat="44.20378" lon="-1.2833">
        <ele>10</ele>
        <time>2019-04-25T17:14:38Z</time>
      </trkpt>
      <trkpt lat="44.20424" lon="-1.28313">
        <ele>9</ele>
        <time>2019-04-25T17:17:07Z</time>
      </trkpt>
      <trkpt lat="44.20437" lon="-1.2839">
        <ele>10</ele>
        <time>2019-04-25T17:18:07Z</time>
      </trkpt>
      <trkpt lat="44.20609" lon="-1.29179">
        <ele>6</ele>
        <time>2019-04-25T17:20:26Z</time>
      </trkpt>
      <trkpt lat="44.20641" lon="-1.29282">
        <ele>6</ele>
        <time>2019-04-25T17:20:44Z</time>
      </trkpt>
      <trkpt lat="44.20669" lon="-1.29346">
        <ele>6</ele>
        <time>2019-04-25T17:20:55Z</time>
      </trkpt>
      <trkpt lat="44.20686" lon="-1.29376">
        <ele>6</ele>
        <time>2019-04-25T17:21:01Z</time>
      </trkpt>
      <trkpt lat="44.20731" lon="-1.29434">
        <ele>5</ele>
        <time>2019-04-25T17:21:13Z</time>
      </trkpt>
      <trkpt lat="44.20802" lon="-1.29502">
        <ele>5</ele>
        <time>2019-04-25T17:21:31Z</time>
      </trkpt>
      <trkpt lat="44.20863" lon="-1.29525">
        <ele>5</ele>
        <time>2019-04-25T17:21:50Z</time>
      </trkpt>
      <trkpt lat="44.20911" lon="-1.29536">
        <ele>5</ele>
        <time>2019-04-25T17:22:01Z</time>
      </trkpt>
      <trkpt lat="44.20934" lon="-1.29557">
        <ele>5</ele>
        <time>2019-04-25T17:22:13Z</time>
      </trkpt>
      <trkpt lat="44.2099" lon="-1.29546">
        <ele>5</ele>
        <time>2019-04-25T17:22:31Z</time>
      </trkpt>
      <trkpt lat="44.21045" lon="-1.29529">
        <ele>2</ele>
        <time>2019-04-25T17:22:50Z</time>
      </trkpt>
      <trkpt lat="44.21138" lon="-1.29488">
        <ele>6</ele>
        <time>2019-04-25T17:23:19Z</time>
      </trkpt>
      <trkpt lat="44.21191" lon="-1.29453">
        <ele>7</ele>
        <time>2019-04-25T17:23:31Z</time>
      </trkpt>
      <trkpt lat="44.2128" lon="-1.29378">
        <ele>6</ele>
        <time>2019-04-25T17:23:55Z</time>
      </trkpt>
      <trkpt lat="44.21329" lon="-1.29323">
        <ele>6</ele>
        <time>2019-04-25T17:24:13Z</time>
      </trkpt>
      <trkpt lat="44.21385" lon="-1.29313">
        <ele>6</ele>
        <time>2019-04-25T17:24:26Z</time>
      </trkpt>
      <trkpt lat="44.21433" lon="-1.29286">
        <ele>7</ele>
        <time>2019-04-25T17:24:38Z</time>
      </trkpt>
      <trkpt lat="44.21455" lon="-1.29188">
        <ele>9</ele>
        <time>2019-04-25T17:24:55Z</time>
      </trkpt>
      <trkpt lat="44.21518" lon="-1.29031">
        <ele>12</ele>
        <time>2019-04-25T17:25:31Z</time>
      </trkpt>
      <trkpt lat="44.216" lon="-1.28659">
        <ele>7</ele>
        <time>2019-04-25T17:26:50Z</time>
      </trkpt>
      <trkpt lat="44.2162" lon="-1.28582">
        <ele>9</ele>
        <time>2019-04-25T17:27:07Z</time>
      </trkpt>
      <trkpt lat="44.21634" lon="-1.28578">
        <ele>9</ele>
        <time>2019-04-25T17:27:13Z</time>
      </trkpt>
      <trkpt lat="44.21655" lon="-1.28583">
        <ele>9</ele>
        <time>2019-04-25T17:27:25Z</time>
      </trkpt>
      <trkpt lat="44.21663" lon="-1.2859">
        <ele>9</ele>
        <time>2019-04-25T17:27:55Z</time>
      </trkpt>
      <trkpt lat="44.21662" lon="-1.28597">
        <ele>9</ele>
        <time>2019-04-25T17:28:19Z</time>
      </trkpt>
      <trkpt lat="44.21675" lon="-1.28589">
        <ele>12</ele>
        <time>2019-04-25T17:29:31Z</time>
      </trkpt>
      <trkpt lat="44.21683" lon="-1.28576">
        <ele>12</ele>
        <time>2019-04-25T17:29:38Z</time>
      </trkpt>
      <trkpt lat="44.21722" lon="-1.28458">
        <ele>13</ele>
        <time>2019-04-25T17:30:26Z</time>
      </trkpt>
      <trkpt lat="44.21733" lon="-1.28452">
        <ele>13</ele>
        <time>2019-04-25T17:30:31Z</time>
      </trkpt>
      <trkpt lat="44.21794" lon="-1.28463">
        <ele>14</ele>
        <time>2019-04-25T17:31:01Z</time>
      </trkpt>
      <trkpt lat="44.21788" lon="-1.2847">
        <ele>14</ele>
        <time>2019-04-25T17:31:26Z</time>
      </trkpt>
      <trkpt lat="44.21739" lon="-1.28453">
        <ele>13</ele>
        <time>2019-04-25T17:31:49Z</time>
      </trkpt>
      <trkpt lat="44.21733" lon="-1.28431">
        <ele>13</ele>
        <time>2019-04-25T17:31:55Z</time>
      </trkpt>
      <trkpt lat="44.21733" lon="-1.28352">
        <ele>12</ele>
        <time>2019-04-25T17:32:07Z</time>
      </trkpt>
      <trkpt lat="44.21742" lon="-1.28286">
        <ele>10</ele>
        <time>2019-04-25T17:32:20Z</time>
      </trkpt>
      <trkpt lat="44.21783" lon="-1.28239">
        <ele>9</ele>
        <time>2019-04-25T17:32:32Z</time>
      </trkpt>
      <trkpt lat="44.21819" lon="-1.28221">
        <ele>10</ele>
        <time>2019-04-25T17:32:49Z</time>
      </trkpt>
      <trkpt lat="44.21833" lon="-1.28219">
        <ele>10</ele>
        <time>2019-04-25T17:32:55Z</time>
      </trkpt>
      <trkpt lat="44.21852" lon="-1.28225">
        <ele>10</ele>
        <time>2019-04-25T17:33:07Z</time>
      </trkpt>
      <trkpt lat="44.21775" lon="-1.28242">
        <ele>9</ele>
        <time>2019-04-25T17:33:55Z</time>
      </trkpt>
      <trkpt lat="44.21769" lon="-1.28228">
        <ele>9</ele>
        <time>2019-04-25T17:34:08Z</time>
      </trkpt>
      <trkpt lat="44.21766" lon="-1.28206">
        <ele>9</ele>
        <time>2019-04-25T17:34:20Z</time>
      </trkpt>
      <trkpt lat="44.21782" lon="-1.2819">
        <ele>8</ele>
        <time>2019-04-25T17:34:31Z</time>
      </trkpt>
      <trkpt lat="44.21795" lon="-1.28186">
        <ele>8</ele>
        <time>2019-04-25T17:34:44Z</time>
      </trkpt>
      <trkpt lat="44.21778" lon="-1.282">
        <ele>9</ele>
        <time>2019-04-25T17:35:02Z</time>
      </trkpt>
      <trkpt lat="44.2178" lon="-1.28238">
        <ele>9</ele>
        <time>2019-04-25T17:35:14Z</time>
      </trkpt>
      <trkpt lat="44.21779" lon="-1.28231">
        <ele>9</ele>
        <time>2019-04-25T17:35:19Z</time>
      </trkpt>
      <trkpt lat="44.21774" lon="-1.28231">
        <ele>9</ele>
        <time>2019-04-25T17:37:26Z</time>
      </trkpt>
      <trkpt lat="44.2178" lon="-1.28213">
        <ele>9</ele>
        <time>2019-04-25T17:41:25Z</time>
      </trkpt>
      <trkpt lat="44.21781" lon="-1.28217">
        <ele>9</ele>
        <time>2019-04-25T17:41:37Z</time>
      </trkpt>
      <trkpt lat="44.2178" lon="-1.2822">
        <ele>9</ele>
        <time>2019-04-26T07:21:56Z</time>
      </trkpt>
      <trkpt lat="44.21775" lon="-1.28212">
        <ele>9</ele>
        <time>2019-04-26T07:22:04Z</time>
      </trkpt>
      <trkpt lat="44.21782" lon="-1.28225">
        <ele>9</ele>
        <time>2019-04-26T07:22:14Z</time>
      </trkpt>
      <trkpt lat="44.21775" lon="-1.28242">
        <ele>9</ele>
        <time>2019-04-26T07:22:27Z</time>
      </trkpt>
      <trkpt lat="44.21752" lon="-1.2827">
        <ele>10</ele>
        <time>2019-04-26T07:22:49Z</time>
      </trkpt>
      <trkpt lat="44.21739" lon="-1.28316">
        <ele>10</ele>
        <time>2019-04-26T07:23:01Z</time>
      </trkpt>
      <trkpt lat="44.21731" lon="-1.28443">
        <ele>13</ele>
        <time>2019-04-26T07:23:59Z</time>
      </trkpt>
      <trkpt lat="44.21678" lon="-1.28589">
        <ele>12</ele>
        <time>2019-04-26T07:24:29Z</time>
      </trkpt>
      <trkpt lat="44.21664" lon="-1.28592">
        <ele>9</ele>
        <time>2019-04-26T07:24:41Z</time>
      </trkpt>
      <trkpt lat="44.21661" lon="-1.2858">
        <ele>9</ele>
        <time>2019-04-26T07:24:52Z</time>
      </trkpt>
      <trkpt lat="44.21645" lon="-1.28581">
        <ele>9</ele>
        <time>2019-04-26T07:25:00Z</time>
      </trkpt>
      <trkpt lat="44.21633" lon="-1.28546">
        <ele>9</ele>
        <time>2019-04-26T07:25:12Z</time>
      </trkpt>
      <trkpt lat="44.21713" lon="-1.2819">
        <ele>7</ele>
        <time>2019-04-26T07:26:24Z</time>
      </trkpt>
      <trkpt lat="44.21721" lon="-1.28176">
        <ele>7</ele>
        <time>2019-04-26T07:26:30Z</time>
      </trkpt>
      <trkpt lat="44.21893" lon="-1.28143">
        <ele>8</ele>
        <time>2019-04-26T07:27:24Z</time>
      </trkpt>
      <trkpt lat="44.21921" lon="-1.28117">
        <ele>8</ele>
        <time>2019-04-26T07:27:42Z</time>
      </trkpt>
      <trkpt lat="44.21897" lon="-1.27749">
        <ele>10</ele>
        <time>2019-04-26T07:29:00Z</time>
      </trkpt>
      <trkpt lat="44.21917" lon="-1.27612">
        <ele>24</ele>
        <time>2019-04-26T07:29:36Z</time>
      </trkpt>
      <trkpt lat="44.21992" lon="-1.27444">
        <ele>33</ele>
        <time>2019-04-26T07:30:24Z</time>
      </trkpt>
      <trkpt lat="44.22057" lon="-1.27096">
        <ele>17</ele>
        <time>2019-04-26T07:31:18Z</time>
      </trkpt>
      <trkpt lat="44.22105" lon="-1.26929">
        <ele>22</ele>
        <time>2019-04-26T07:31:48Z</time>
      </trkpt>
      <trkpt lat="44.22235" lon="-1.26687">
        <ele>31</ele>
        <time>2019-04-26T07:32:48Z</time>
      </trkpt>
      <trkpt lat="44.22321" lon="-1.26582">
        <ele>16</ele>
        <time>2019-04-26T07:33:12Z</time>
      </trkpt>
      <trkpt lat="44.22374" lon="-1.26482">
        <ele>13</ele>
        <time>2019-04-26T07:33:24Z</time>
      </trkpt>
      <trkpt lat="44.22391" lon="-1.26366">
        <ele>10</ele>
        <time>2019-04-26T07:33:42Z</time>
      </trkpt>
      <trkpt lat="44.22397" lon="-1.2626">
        <ele>9</ele>
        <time>2019-04-26T07:34:00Z</time>
      </trkpt>
      <trkpt lat="44.22442" lon="-1.26022">
        <ele>11</ele>
        <time>2019-04-26T07:34:36Z</time>
      </trkpt>
      <trkpt lat="44.22437" lon="-1.25987">
        <ele>11</ele>
        <time>2019-04-26T07:34:42Z</time>
      </trkpt>
      <trkpt lat="44.22405" lon="-1.25902">
        <ele>11</ele>
        <time>2019-04-26T07:35:00Z</time>
      </trkpt>
      <trkpt lat="44.22283" lon="-1.25643">
        <ele>16</ele>
        <time>2019-04-26T07:35:57Z</time>
      </trkpt>
      <trkpt lat="44.22223" lon="-1.25554">
        <ele>21</ele>
        <time>2019-04-26T07:36:21Z</time>
      </trkpt>
      <trkpt lat="44.22163" lon="-1.2552">
        <ele>22</ele>
        <time>2019-04-26T07:36:51Z</time>
      </trkpt>
      <trkpt lat="44.22106" lon="-1.25433">
        <ele>24</ele>
        <time>2019-04-26T07:37:21Z</time>
      </trkpt>
      <trkpt lat="44.22091" lon="-1.25386">
        <ele>24</ele>
        <time>2019-04-26T07:37:33Z</time>
      </trkpt>
      <trkpt lat="44.22092" lon="-1.25338">
        <ele>27</ele>
        <time>2019-04-26T07:37:45Z</time>
      </trkpt>
      <trkpt lat="44.22167" lon="-1.25272">
        <ele>34</ele>
        <time>2019-04-26T07:38:18Z</time>
      </trkpt>
      <trkpt lat="44.22185" lon="-1.25222">
        <ele>36</ele>
        <time>2019-04-26T07:38:26Z</time>
      </trkpt>
      <trkpt lat="44.22198" lon="-1.2516">
        <ele>41</ele>
        <time>2019-04-26T07:38:38Z</time>
      </trkpt>
      <trkpt lat="44.22188" lon="-1.25099">
        <ele>45</ele>
        <time>2019-04-26T07:38:50Z</time>
      </trkpt>
      <trkpt lat="44.2211" lon="-1.25072">
        <ele>49</ele>
        <time>2019-04-26T07:39:14Z</time>
      </trkpt>
      <trkpt lat="44.21932" lon="-1.25094">
        <ele>46</ele>
        <time>2019-04-26T07:40:14Z</time>
      </trkpt>
      <trkpt lat="44.21893" lon="-1.25082">
        <ele>39</ele>
        <time>2019-04-26T07:40:26Z</time>
      </trkpt>
      <trkpt lat="44.2186" lon="-1.25032">
        <ele>36</ele>
        <time>2019-04-26T07:40:38Z</time>
      </trkpt>
      <trkpt lat="44.21849" lon="-1.24981">
        <ele>36</ele>
        <time>2019-04-26T07:40:44Z</time>
      </trkpt>
      <trkpt lat="44.2185" lon="-1.24844">
        <ele>33</ele>
        <time>2019-04-26T07:40:56Z</time>
      </trkpt>
      <trkpt lat="44.21861" lon="-1.24774">
        <ele>33</ele>
        <time>2019-04-26T07:41:02Z</time>
      </trkpt>
      <trkpt lat="44.21904" lon="-1.24673">
        <ele>31</ele>
        <time>2019-04-26T07:41:14Z</time>
      </trkpt>
      <trkpt lat="44.21929" lon="-1.24476">
        <ele>35</ele>
        <time>2019-04-26T07:41:38Z</time>
      </trkpt>
      <trkpt lat="44.21989" lon="-1.24274">
        <ele>37</ele>
        <time>2019-04-26T07:42:02Z</time>
      </trkpt>
      <trkpt lat="44.21994" lon="-1.24192">
        <ele>35</ele>
        <time>2019-04-26T07:42:14Z</time>
      </trkpt>
      <trkpt lat="44.21961" lon="-1.24026">
        <ele>37</ele>
        <time>2019-04-26T07:42:32Z</time>
      </trkpt>
      <trkpt lat="44.21921" lon="-1.23935">
        <ele>25</ele>
        <time>2019-04-26T07:42:44Z</time>
      </trkpt>
      <trkpt lat="44.21853" lon="-1.23821">
        <ele>24</ele>
        <time>2019-04-26T07:43:02Z</time>
      </trkpt>
      <trkpt lat="44.21839" lon="-1.23756">
        <ele>26</ele>
        <time>2019-04-26T07:43:08Z</time>
      </trkpt>
      <trkpt lat="44.21843" lon="-1.23643">
        <ele>24</ele>
        <time>2019-04-26T07:43:26Z</time>
      </trkpt>
      <trkpt lat="44.21829" lon="-1.23556">
        <ele>24</ele>
        <time>2019-04-26T07:43:38Z</time>
      </trkpt>
      <trkpt lat="44.2181" lon="-1.23525">
        <ele>20</ele>
        <time>2019-04-26T07:43:44Z</time>
      </trkpt>
      <trkpt lat="44.21732" lon="-1.23474">
        <ele>19</ele>
        <time>2019-04-26T07:44:02Z</time>
      </trkpt>
      <trkpt lat="44.21751" lon="-1.23419">
        <ele>22</ele>
        <time>2019-04-26T07:44:20Z</time>
      </trkpt>
      <trkpt lat="44.21742" lon="-1.23333">
        <ele>17</ele>
        <time>2019-04-26T07:44:44Z</time>
      </trkpt>
      <trkpt lat="44.21756" lon="-1.23166">
        <ele>17</ele>
        <time>2019-04-26T07:45:20Z</time>
      </trkpt>
      <trkpt lat="44.21789" lon="-1.23114">
        <ele>25</ele>
        <time>2019-04-26T07:45:38Z</time>
      </trkpt>
      <trkpt lat="44.2185" lon="-1.23063">
        <ele>21</ele>
        <time>2019-04-26T07:45:56Z</time>
      </trkpt>
      <trkpt lat="44.21952" lon="-1.23019">
        <ele>18</ele>
        <time>2019-04-26T07:46:20Z</time>
      </trkpt>
      <trkpt lat="44.22031" lon="-1.22999">
        <ele>20</ele>
        <time>2019-04-26T07:46:44Z</time>
      </trkpt>
      <trkpt lat="44.22352" lon="-1.22848">
        <ele>21</ele>
        <time>2019-04-26T07:47:44Z</time>
      </trkpt>
      <trkpt lat="44.22413" lon="-1.22809">
        <ele>20</ele>
        <time>2019-04-26T07:48:02Z</time>
      </trkpt>
      <trkpt lat="44.22515" lon="-1.22695">
        <ele>26</ele>
        <time>2019-04-26T07:48:32Z</time>
      </trkpt>
      <trkpt lat="44.22773" lon="-1.22363">
        <ele>16</ele>
        <time>2019-04-26T07:49:50Z</time>
      </trkpt>
      <trkpt lat="44.22887" lon="-1.22186">
        <ele>25</ele>
        <time>2019-04-26T07:50:32Z</time>
      </trkpt>
      <trkpt lat="44.22923" lon="-1.22156">
        <ele>23</ele>
        <time>2019-04-26T07:50:44Z</time>
      </trkpt>
      <trkpt lat="44.22976" lon="-1.22147">
        <ele>15</ele>
        <time>2019-04-26T07:50:56Z</time>
      </trkpt>
      <trkpt lat="44.2312" lon="-1.22264">
        <ele>12</ele>
        <time>2019-04-26T07:51:32Z</time>
      </trkpt>
      <trkpt lat="44.23133" lon="-1.22273">
        <ele>12</ele>
        <time>2019-04-26T07:51:51Z</time>
      </trkpt>
      <trkpt lat="44.23334" lon="-1.2236">
        <ele>16</ele>
        <time>2019-04-26T07:52:46Z</time>
      </trkpt>
      <trkpt lat="44.23367" lon="-1.22356">
        <ele>16</ele>
        <time>2019-04-26T07:52:52Z</time>
      </trkpt>
      <trkpt lat="44.23418" lon="-1.22311">
        <ele>16</ele>
        <time>2019-04-26T07:53:04Z</time>
      </trkpt>
      <trkpt lat="44.23539" lon="-1.22018">
        <ele>15</ele>
        <time>2019-04-26T07:53:58Z</time>
      </trkpt>
      <trkpt lat="44.23824" lon="-1.21279">
        <ele>14</ele>
        <time>2019-04-26T07:56:04Z</time>
      </trkpt>
      <trkpt lat="44.24153" lon="-1.20258">
        <ele>20</ele>
        <time>2019-04-26T07:58:58Z</time>
      </trkpt>
      <trkpt lat="44.2418" lon="-1.20196">
        <ele>14</ele>
        <time>2019-04-26T07:59:10Z</time>
      </trkpt>
      <trkpt lat="44.2424" lon="-1.20106">
        <ele>14</ele>
        <time>2019-04-26T07:59:34Z</time>
      </trkpt>
      <trkpt lat="44.24291" lon="-1.2006">
        <ele>17</ele>
        <time>2019-04-26T07:59:46Z</time>
      </trkpt>
      <trkpt lat="44.24479" lon="-1.1994">
        <ele>25</ele>
        <time>2019-04-26T08:00:34Z</time>
      </trkpt>
      <trkpt lat="44.24881" lon="-1.19705">
        <ele>18</ele>
        <time>2019-04-26T08:02:22Z</time>
      </trkpt>
      <trkpt lat="44.24994" lon="-1.19689">
        <ele>19</ele>
        <time>2019-04-26T08:03:12Z</time>
      </trkpt>
      <trkpt lat="44.25638" lon="-1.19678">
        <ele>25</ele>
        <time>2019-04-26T08:05:44Z</time>
      </trkpt>
      <trkpt lat="44.26483" lon="-1.1958">
        <ele>21</ele>
        <time>2019-04-26T08:09:20Z</time>
      </trkpt>
      <trkpt lat="44.26726" lon="-1.19352">
        <ele>24</ele>
        <time>2019-04-26T08:10:26Z</time>
      </trkpt>
      <trkpt lat="44.2696" lon="-1.19029">
        <ele>25</ele>
        <time>2019-04-26T08:11:50Z</time>
      </trkpt>
      <trkpt lat="44.2697" lon="-1.18896">
        <ele>27</ele>
        <time>2019-04-26T08:12:40Z</time>
      </trkpt>
      <trkpt lat="44.27088" lon="-1.1841">
        <ele>25</ele>
        <time>2019-04-26T08:14:16Z</time>
      </trkpt>
      <trkpt lat="44.27198" lon="-1.1838">
        <ele>25</ele>
        <time>2019-04-26T08:14:52Z</time>
      </trkpt>
      <trkpt lat="44.27247" lon="-1.18345">
        <ele>26</ele>
        <time>2019-04-26T08:15:16Z</time>
      </trkpt>
      <trkpt lat="44.27249" lon="-1.18317">
        <ele>26</ele>
        <time>2019-04-26T08:15:34Z</time>
      </trkpt>
      <trkpt lat="44.2725" lon="-1.18327">
        <ele>26</ele>
        <time>2019-04-26T08:15:48Z</time>
      </trkpt>
      <trkpt lat="44.27263" lon="-1.18327">
        <ele>26</ele>
        <time>2019-04-26T08:15:55Z</time>
      </trkpt>
      <trkpt lat="44.27272" lon="-1.18307">
        <ele>28</ele>
        <time>2019-04-26T08:16:07Z</time>
      </trkpt>
      <trkpt lat="44.27244" lon="-1.18217">
        <ele>29</ele>
        <time>2019-04-26T08:16:37Z</time>
      </trkpt>
      <trkpt lat="44.27245" lon="-1.18171">
        <ele>29</ele>
        <time>2019-04-26T08:16:49Z</time>
      </trkpt>
      <trkpt lat="44.27261" lon="-1.18164">
        <ele>29</ele>
        <time>2019-04-26T08:16:55Z</time>
      </trkpt>
      <trkpt lat="44.27399" lon="-1.18191">
        <ele>29</ele>
        <time>2019-04-26T08:17:37Z</time>
      </trkpt>
      <trkpt lat="44.27444" lon="-1.18276">
        <ele>29</ele>
        <time>2019-04-26T08:18:07Z</time>
      </trkpt>
      <trkpt lat="44.27655" lon="-1.18166">
        <ele>32</ele>
        <time>2019-04-26T08:19:13Z</time>
      </trkpt>
      <trkpt lat="44.27691" lon="-1.18167">
        <ele>32</ele>
        <time>2019-04-26T08:19:31Z</time>
      </trkpt>
      <trkpt lat="44.27893" lon="-1.17998">
        <ele>35</ele>
        <time>2019-04-26T08:20:43Z</time>
      </trkpt>
      <trkpt lat="44.28466" lon="-1.17623">
        <ele>35</ele>
        <time>2019-04-26T08:23:19Z</time>
      </trkpt>
      <trkpt lat="44.28945" lon="-1.17287">
        <ele>34</ele>
        <time>2019-04-26T08:25:31Z</time>
      </trkpt>
      <trkpt lat="44.29307" lon="-1.17051">
        <ele>40</ele>
        <time>2019-04-26T08:27:01Z</time>
      </trkpt>
      <trkpt lat="44.29357" lon="-1.17049">
        <ele>40</ele>
        <time>2019-04-26T08:27:13Z</time>
      </trkpt>
      <trkpt lat="44.29432" lon="-1.17005">
        <ele>40</ele>
        <time>2019-04-26T08:27:31Z</time>
      </trkpt>
      <trkpt lat="44.29536" lon="-1.1715">
        <ele>31</ele>
        <time>2019-04-26T08:28:07Z</time>
      </trkpt>
      <trkpt lat="44.29682" lon="-1.17386">
        <ele>30</ele>
        <time>2019-04-26T08:28:55Z</time>
      </trkpt>
      <trkpt lat="44.29747" lon="-1.17465">
        <ele>32</ele>
        <time>2019-04-26T08:29:13Z</time>
      </trkpt>
      <trkpt lat="44.29809" lon="-1.17491">
        <ele>33</ele>
        <time>2019-04-26T08:29:25Z</time>
      </trkpt>
      <trkpt lat="44.30065" lon="-1.17532">
        <ele>29</ele>
        <time>2019-04-26T08:30:13Z</time>
      </trkpt>
      <trkpt lat="44.30401" lon="-1.17665">
        <ele>27</ele>
        <time>2019-04-26T08:31:31Z</time>
      </trkpt>
      <trkpt lat="44.30511" lon="-1.17721">
        <ele>26</ele>
        <time>2019-04-26T08:31:55Z</time>
      </trkpt>
      <trkpt lat="44.30576" lon="-1.17804">
        <ele>29</ele>
        <time>2019-04-26T08:32:13Z</time>
      </trkpt>
      <trkpt lat="44.30584" lon="-1.17839">
        <ele>28</ele>
        <time>2019-04-26T08:32:19Z</time>
      </trkpt>
      <trkpt lat="44.30648" lon="-1.17979">
        <ele>28</ele>
        <time>2019-04-26T08:32:43Z</time>
      </trkpt>
      <trkpt lat="44.30685" lon="-1.18039">
        <ele>28</ele>
        <time>2019-04-26T08:32:55Z</time>
      </trkpt>
      <trkpt lat="44.30719" lon="-1.18128">
        <ele>26</ele>
        <time>2019-04-26T08:33:13Z</time>
      </trkpt>
      <trkpt lat="44.30745" lon="-1.18153">
        <ele>26</ele>
        <time>2019-04-26T08:33:25Z</time>
      </trkpt>
      <trkpt lat="44.30787" lon="-1.18128">
        <ele>27</ele>
        <time>2019-04-26T08:34:07Z</time>
      </trkpt>
      <trkpt lat="44.30782" lon="-1.18139">
        <ele>27</ele>
        <time>2019-04-26T08:34:19Z</time>
      </trkpt>
      <trkpt lat="44.30789" lon="-1.18141">
        <ele>27</ele>
        <time>2019-04-26T08:34:31Z</time>
      </trkpt>
      <trkpt lat="44.30838" lon="-1.18111">
        <ele>26</ele>
        <time>2019-04-26T08:34:49Z</time>
      </trkpt>
      <trkpt lat="44.30942" lon="-1.18094">
        <ele>25</ele>
        <time>2019-04-26T08:35:25Z</time>
      </trkpt>
      <trkpt lat="44.31008" lon="-1.18069">
        <ele>25</ele>
        <time>2019-04-26T08:35:43Z</time>
      </trkpt>
      <trkpt lat="44.3118" lon="-1.17956">
        <ele>33</ele>
        <time>2019-04-26T08:36:25Z</time>
      </trkpt>
      <trkpt lat="44.31266" lon="-1.1784">
        <ele>27</ele>
        <time>2019-04-26T08:36:49Z</time>
      </trkpt>
      <trkpt lat="44.31349" lon="-1.17703">
        <ele>27</ele>
        <time>2019-04-26T08:37:19Z</time>
      </trkpt>
      <trkpt lat="44.31435" lon="-1.17601">
        <ele>25</ele>
        <time>2019-04-26T08:37:49Z</time>
      </trkpt>
      <trkpt lat="44.31473" lon="-1.17521">
        <ele>25</ele>
        <time>2019-04-26T08:38:07Z</time>
      </trkpt>
      <trkpt lat="44.31497" lon="-1.17515">
        <ele>25</ele>
        <time>2019-04-26T08:38:13Z</time>
      </trkpt>
      <trkpt lat="44.31617" lon="-1.1739">
        <ele>26</ele>
        <time>2019-04-26T08:38:49Z</time>
      </trkpt>
      <trkpt lat="44.31711" lon="-1.17246">
        <ele>24</ele>
        <time>2019-04-26T08:39:19Z</time>
      </trkpt>
      <trkpt lat="44.31729" lon="-1.17191">
        <ele>27</ele>
        <time>2019-04-26T08:39:31Z</time>
      </trkpt>
      <trkpt lat="44.31781" lon="-1.17094">
        <ele>28</ele>
        <time>2019-04-26T08:39:49Z</time>
      </trkpt>
      <trkpt lat="44.31824" lon="-1.1706">
        <ele>27</ele>
        <time>2019-04-26T08:40:01Z</time>
      </trkpt>
      <trkpt lat="44.31961" lon="-1.16901">
        <ele>26</ele>
        <time>2019-04-26T08:40:37Z</time>
      </trkpt>
      <trkpt lat="44.3201" lon="-1.16885">
        <ele>24</ele>
        <time>2019-04-26T08:40:49Z</time>
      </trkpt>
      <trkpt lat="44.32094" lon="-1.16793">
        <ele>24</ele>
        <time>2019-04-26T08:41:13Z</time>
      </trkpt>
      <trkpt lat="44.32165" lon="-1.16758">
        <ele>23</ele>
        <time>2019-04-26T08:41:31Z</time>
      </trkpt>
      <trkpt lat="44.32199" lon="-1.16692">
        <ele>23</ele>
        <time>2019-04-26T08:41:43Z</time>
      </trkpt>
      <trkpt lat="44.32258" lon="-1.16671">
        <ele>23</ele>
        <time>2019-04-26T08:42:01Z</time>
      </trkpt>
      <trkpt lat="44.32295" lon="-1.16625">
        <ele>23</ele>
        <time>2019-04-26T08:42:13Z</time>
      </trkpt>
      <trkpt lat="44.32327" lon="-1.1656">
        <ele>24</ele>
        <time>2019-04-26T08:42:25Z</time>
      </trkpt>
      <trkpt lat="44.32336" lon="-1.16487">
        <ele>24</ele>
        <time>2019-04-26T08:42:37Z</time>
      </trkpt>
      <trkpt lat="44.32364" lon="-1.16378">
        <ele>25</ele>
        <time>2019-04-26T08:42:55Z</time>
      </trkpt>
      <trkpt lat="44.32426" lon="-1.1631">
        <ele>26</ele>
        <time>2019-04-26T08:43:13Z</time>
      </trkpt>
      <trkpt lat="44.32508" lon="-1.16151">
        <ele>29</ele>
        <time>2019-04-26T08:43:43Z</time>
      </trkpt>
      <trkpt lat="44.32544" lon="-1.16002">
        <ele>25</ele>
        <time>2019-04-26T08:44:07Z</time>
      </trkpt>
      <trkpt lat="44.32549" lon="-1.15847">
        <ele>26</ele>
        <time>2019-04-26T08:44:31Z</time>
      </trkpt>
      <trkpt lat="44.32561" lon="-1.15768">
        <ele>27</ele>
        <time>2019-04-26T08:44:43Z</time>
      </trkpt>
      <trkpt lat="44.32579" lon="-1.15736">
        <ele>27</ele>
        <time>2019-04-26T08:44:49Z</time>
      </trkpt>
      <trkpt lat="44.32669" lon="-1.15655">
        <ele>24</ele>
        <time>2019-04-26T08:45:13Z</time>
      </trkpt>
      <trkpt lat="44.32686" lon="-1.15517">
        <ele>24</ele>
        <time>2019-04-26T08:45:37Z</time>
      </trkpt>
      <trkpt lat="44.3273" lon="-1.15448">
        <ele>23</ele>
        <time>2019-04-26T08:45:55Z</time>
      </trkpt>
      <trkpt lat="44.32753" lon="-1.15381">
        <ele>24</ele>
        <time>2019-04-26T08:46:07Z</time>
      </trkpt>
      <trkpt lat="44.32747" lon="-1.15285">
        <ele>29</ele>
        <time>2019-04-26T08:46:25Z</time>
      </trkpt>
      <trkpt lat="44.32789" lon="-1.15166">
        <ele>26</ele>
        <time>2019-04-26T08:46:49Z</time>
      </trkpt>
      <trkpt lat="44.32834" lon="-1.15131">
        <ele>23</ele>
        <time>2019-04-26T08:47:01Z</time>
      </trkpt>
      <trkpt lat="44.32865" lon="-1.14959">
        <ele>24</ele>
        <time>2019-04-26T08:47:31Z</time>
      </trkpt>
      <trkpt lat="44.32875" lon="-1.14933">
        <ele>24</ele>
        <time>2019-04-26T08:47:37Z</time>
      </trkpt>
      <trkpt lat="44.32905" lon="-1.14901">
        <ele>21</ele>
        <time>2019-04-26T08:47:49Z</time>
      </trkpt>
      <trkpt lat="44.32911" lon="-1.1487">
        <ele>23</ele>
        <time>2019-04-26T08:47:55Z</time>
      </trkpt>
      <trkpt lat="44.32896" lon="-1.14718">
        <ele>26</ele>
        <time>2019-04-26T08:48:31Z</time>
      </trkpt>
      <trkpt lat="44.32939" lon="-1.14588">
        <ele>24</ele>
        <time>2019-04-26T08:49:01Z</time>
      </trkpt>
      <trkpt lat="44.32984" lon="-1.145">
        <ele>23</ele>
        <time>2019-04-26T08:49:25Z</time>
      </trkpt>
      <trkpt lat="44.32984" lon="-1.14472">
        <ele>23</ele>
        <time>2019-04-26T08:49:31Z</time>
      </trkpt>
      <trkpt lat="44.32923" lon="-1.14303">
        <ele>23</ele>
        <time>2019-04-26T08:50:13Z</time>
      </trkpt>
      <trkpt lat="44.32851" lon="-1.14284">
        <ele>24</ele>
        <time>2019-04-26T08:50:37Z</time>
      </trkpt>
      <trkpt lat="44.32692" lon="-1.14344">
        <ele>27</ele>
        <time>2019-04-26T08:51:25Z</time>
      </trkpt>
      <trkpt lat="44.32656" lon="-1.14341">
        <ele>26</ele>
        <time>2019-04-26T08:51:43Z</time>
      </trkpt>
      <trkpt lat="44.32618" lon="-1.14164">
        <ele>28</ele>
        <time>2019-04-26T08:52:31Z</time>
      </trkpt>
      <trkpt lat="44.32597" lon="-1.13866">
        <ele>31</ele>
        <time>2019-04-26T08:53:19Z</time>
      </trkpt>
      <trkpt lat="44.32517" lon="-1.13648">
        <ele>35</ele>
        <time>2019-04-26T08:53:55Z</time>
      </trkpt>
      <trkpt lat="44.32518" lon="-1.13525">
        <ele>34</ele>
        <time>2019-04-26T08:54:13Z</time>
      </trkpt>
      <trkpt lat="44.32504" lon="-1.1344">
        <ele>34</ele>
        <time>2019-04-26T08:54:25Z</time>
      </trkpt>
      <trkpt lat="44.32461" lon="-1.13377">
        <ele>32</ele>
        <time>2019-04-26T08:54:43Z</time>
      </trkpt>
      <trkpt lat="44.32387" lon="-1.13359">
        <ele>31</ele>
        <time>2019-04-26T08:55:01Z</time>
      </trkpt>
      <trkpt lat="44.32301" lon="-1.13372">
        <ele>29</ele>
        <time>2019-04-26T08:55:25Z</time>
      </trkpt>
      <trkpt lat="44.32284" lon="-1.13348">
        <ele>30</ele>
        <time>2019-04-26T08:55:31Z</time>
      </trkpt>
      <trkpt lat="44.32258" lon="-1.13236">
        <ele>29</ele>
        <time>2019-04-26T08:55:49Z</time>
      </trkpt>
      <trkpt lat="44.32248" lon="-1.13116">
        <ele>31</ele>
        <time>2019-04-26T08:56:07Z</time>
      </trkpt>
      <trkpt lat="44.32249" lon="-1.12794">
        <ele>32</ele>
        <time>2019-04-26T08:56:55Z</time>
      </trkpt>
      <trkpt lat="44.32223" lon="-1.12186">
        <ele>34</ele>
        <time>2019-04-26T08:58:19Z</time>
      </trkpt>
      <trkpt lat="44.32139" lon="-1.11591">
        <ele>36</ele>
        <time>2019-04-26T08:59:31Z</time>
      </trkpt>
      <trkpt lat="44.32155" lon="-1.11405">
        <ele>33</ele>
        <time>2019-04-26T08:59:55Z</time>
      </trkpt>
      <trkpt lat="44.32182" lon="-1.1127">
        <ele>33</ele>
        <time>2019-04-26T09:00:13Z</time>
      </trkpt>
      <trkpt lat="44.32246" lon="-1.10831">
        <ele>37</ele>
        <time>2019-04-26T09:01:07Z</time>
      </trkpt>
      <trkpt lat="44.32258" lon="-1.10542">
        <ele>37</ele>
        <time>2019-04-26T09:01:43Z</time>
      </trkpt>
      <trkpt lat="44.32281" lon="-1.10396">
        <ele>39</ele>
        <time>2019-04-26T09:02:07Z</time>
      </trkpt>
      <trkpt lat="44.32511" lon="-1.09798">
        <ele>37</ele>
        <time>2019-04-26T09:03:19Z</time>
      </trkpt>
      <trkpt lat="44.32666" lon="-1.09621">
        <ele>34</ele>
        <time>2019-04-26T09:03:49Z</time>
      </trkpt>
      <trkpt lat="44.3283" lon="-1.09193">
        <ele>36</ele>
        <time>2019-04-26T09:05:01Z</time>
      </trkpt>
      <trkpt lat="44.32879" lon="-1.09128">
        <ele>35</ele>
        <time>2019-04-26T09:05:13Z</time>
      </trkpt>
      <trkpt lat="44.33083" lon="-1.08912">
        <ele>35</ele>
        <time>2019-04-26T09:06:01Z</time>
      </trkpt>
      <trkpt lat="44.33053" lon="-1.08851">
        <ele>35</ele>
        <time>2019-04-26T09:06:25Z</time>
      </trkpt>
      <trkpt lat="44.33061" lon="-1.08823">
        <ele>35</ele>
        <time>2019-04-26T09:06:31Z</time>
      </trkpt>
      <trkpt lat="44.33117" lon="-1.08737">
        <ele>32</ele>
        <time>2019-04-26T09:06:49Z</time>
      </trkpt>
      <trkpt lat="44.3317" lon="-1.08679">
        <ele>32</ele>
        <time>2019-04-26T09:07:01Z</time>
      </trkpt>
      <trkpt lat="44.33575" lon="-1.08468">
        <ele>25</ele>
        <time>2019-04-26T09:08:19Z</time>
      </trkpt>
      <trkpt lat="44.33686" lon="-1.08322">
        <ele>24</ele>
        <time>2019-04-26T09:08:49Z</time>
      </trkpt>
      <trkpt lat="44.33768" lon="-1.08238">
        <ele>25</ele>
        <time>2019-04-26T09:09:07Z</time>
      </trkpt>
      <trkpt lat="44.33784" lon="-1.08164">
        <ele>28</ele>
        <time>2019-04-26T09:09:19Z</time>
      </trkpt>
      <trkpt lat="44.33919" lon="-1.07915">
        <ele>29</ele>
        <time>2019-04-26T09:10:07Z</time>
      </trkpt>
      <trkpt lat="44.33994" lon="-1.07796">
        <ele>26</ele>
        <time>2019-04-26T09:10:31Z</time>
      </trkpt>
      <trkpt lat="44.34076" lon="-1.0769">
        <ele>23</ele>
        <time>2019-04-26T09:10:49Z</time>
      </trkpt>
      <trkpt lat="44.34178" lon="-1.07519">
        <ele>28</ele>
        <time>2019-04-26T09:11:31Z</time>
      </trkpt>
      <trkpt lat="44.34234" lon="-1.07463">
        <ele>27</ele>
        <time>2019-04-26T09:11:49Z</time>
      </trkpt>
      <trkpt lat="44.34316" lon="-1.07414">
        <ele>28</ele>
        <time>2019-04-26T09:12:13Z</time>
      </trkpt>
      <trkpt lat="44.34385" lon="-1.07418">
        <ele>28</ele>
        <time>2019-04-26T09:12:31Z</time>
      </trkpt>
      <trkpt lat="44.34417" lon="-1.07463">
        <ele>30</ele>
        <time>2019-04-26T09:12:43Z</time>
      </trkpt>
      <trkpt lat="44.34456" lon="-1.07485">
        <ele>31</ele>
        <time>2019-04-26T09:12:55Z</time>
      </trkpt>
      <trkpt lat="44.34492" lon="-1.07455">
        <ele>30</ele>
        <time>2019-04-26T09:13:07Z</time>
      </trkpt>
      <trkpt lat="44.34511" lon="-1.07422">
        <ele>31</ele>
        <time>2019-04-26T09:13:19Z</time>
      </trkpt>
      <trkpt lat="44.34548" lon="-1.07408">
        <ele>30</ele>
        <time>2019-04-26T09:13:31Z</time>
      </trkpt>
      <trkpt lat="44.34553" lon="-1.07494">
        <ele>32</ele>
        <time>2019-04-26T09:13:49Z</time>
      </trkpt>
      <trkpt lat="44.3459" lon="-1.07506">
        <ele>32</ele>
        <time>2019-04-26T09:14:01Z</time>
      </trkpt>
      <trkpt lat="44.34603" lon="-1.07493">
        <ele>32</ele>
        <time>2019-04-26T09:14:07Z</time>
      </trkpt>
      <trkpt lat="44.34634" lon="-1.07397">
        <ele>31</ele>
        <time>2019-04-26T09:14:31Z</time>
      </trkpt>
      <trkpt lat="44.34646" lon="-1.07385">
        <ele>30</ele>
        <time>2019-04-26T09:14:43Z</time>
      </trkpt>
      <trkpt lat="44.34661" lon="-1.07409">
        <ele>31</ele>
        <time>2019-04-26T09:14:55Z</time>
      </trkpt>
      <trkpt lat="44.34719" lon="-1.07642">
        <ele>31</ele>
        <time>2019-04-26T09:16:13Z</time>
      </trkpt>
      <trkpt lat="44.34728" lon="-1.07645">
        <ele>31</ele>
        <time>2019-04-26T09:16:25Z</time>
      </trkpt>
      <trkpt lat="44.34663" lon="-1.07422">
        <ele>31</ele>
        <time>2019-04-26T09:17:48Z</time>
      </trkpt>
      <trkpt lat="44.34709" lon="-1.07596">
        <ele>31</ele>
        <time>2019-04-26T09:18:37Z</time>
      </trkpt>
      <trkpt lat="44.34699" lon="-1.07624">
        <ele>31</ele>
        <time>2019-04-26T09:18:55Z</time>
      </trkpt>
      <trkpt lat="44.34668" lon="-1.07642">
        <ele>30</ele>
        <time>2019-04-26T09:19:13Z</time>
      </trkpt>
      <trkpt lat="44.3466" lon="-1.07658">
        <ele>30</ele>
        <time>2019-04-26T09:19:34Z</time>
      </trkpt>
      <trkpt lat="44.34652" lon="-1.07665">
        <ele>30</ele>
        <time>2019-04-26T09:19:46Z</time>
      </trkpt>
      <trkpt lat="44.34702" lon="-1.07625">
        <ele>31</ele>
        <time>2019-04-26T09:19:57Z</time>
      </trkpt>
      <trkpt lat="44.34738" lon="-1.07658">
        <ele>31</ele>
        <time>2019-04-26T09:20:30Z</time>
      </trkpt>
      <trkpt lat="44.34873" lon="-1.08084">
        <ele>29</ele>
        <time>2019-04-26T09:22:07Z</time>
      </trkpt>
      <trkpt lat="44.34956" lon="-1.08239">
        <ele>29</ele>
        <time>2019-04-26T09:23:01Z</time>
      </trkpt>
      <trkpt lat="44.35031" lon="-1.0832">
        <ele>30</ele>
        <time>2019-04-26T09:23:37Z</time>
      </trkpt>
      <trkpt lat="44.35337" lon="-1.08561">
        <ele>34</ele>
        <time>2019-04-26T09:25:19Z</time>
      </trkpt>
      <trkpt lat="44.35898" lon="-1.08971">
        <ele>37</ele>
        <time>2019-04-26T09:28:13Z</time>
      </trkpt>
      <trkpt lat="44.35903" lon="-1.0901">
        <ele>37</ele>
        <time>2019-04-26T09:28:25Z</time>
      </trkpt>
      <trkpt lat="44.35959" lon="-1.09084">
        <ele>36</ele>
        <time>2019-04-26T09:28:55Z</time>
      </trkpt>
      <trkpt lat="44.36038" lon="-1.09256">
        <ele>35</ele>
        <time>2019-04-26T09:29:37Z</time>
      </trkpt>
      <trkpt lat="44.36284" lon="-1.09854">
        <ele>40</ele>
        <time>2019-04-26T09:32:01Z</time>
      </trkpt>
      <trkpt lat="44.36277" lon="-1.09842">
        <ele>40</ele>
        <time>2019-04-26T09:32:23Z</time>
      </trkpt>
      <trkpt lat="44.36257" lon="-1.09862">
        <ele>43</ele>
        <time>2019-04-26T09:32:49Z</time>
      </trkpt>
      <trkpt lat="44.36275" lon="-1.09847">
        <ele>40</ele>
        <time>2019-04-26T09:33:14Z</time>
      </trkpt>
      <trkpt lat="44.3629" lon="-1.09858">
        <ele>40</ele>
        <time>2019-04-26T09:33:26Z</time>
      </trkpt>
      <trkpt lat="44.36852" lon="-1.11229">
        <ele>37</ele>
        <time>2019-04-26T09:38:56Z</time>
      </trkpt>
      <trkpt lat="44.36911" lon="-1.11401">
        <ele>33</ele>
        <time>2019-04-26T09:39:38Z</time>
      </trkpt>
      <trkpt lat="44.37039" lon="-1.11843">
        <ele>34</ele>
        <time>2019-04-26T09:41:25Z</time>
      </trkpt>
      <trkpt lat="44.37143" lon="-1.12106">
        <ele>32</ele>
        <time>2019-04-26T09:42:20Z</time>
      </trkpt>
      <trkpt lat="44.37625" lon="-1.13194">
        <ele>32</ele>
        <time>2019-04-26T09:46:02Z</time>
      </trkpt>
      <trkpt lat="44.37669" lon="-1.13309">
        <ele>31</ele>
        <time>2019-04-26T09:46:26Z</time>
      </trkpt>
      <trkpt lat="44.37672" lon="-1.13366">
        <ele>31</ele>
        <time>2019-04-26T09:46:38Z</time>
      </trkpt>
      <trkpt lat="44.37726" lon="-1.13426">
        <ele>32</ele>
        <time>2019-04-26T09:46:56Z</time>
      </trkpt>
      <trkpt lat="44.3823" lon="-1.14555">
        <ele>30</ele>
        <time>2019-04-26T09:50:56Z</time>
      </trkpt>
      <trkpt lat="44.38343" lon="-1.14822">
        <ele>29</ele>
        <time>2019-04-26T09:51:56Z</time>
      </trkpt>
      <trkpt lat="44.38346" lon="-1.14889">
        <ele>29</ele>
        <time>2019-04-26T09:52:14Z</time>
      </trkpt>
      <trkpt lat="44.38406" lon="-1.14969">
        <ele>29</ele>
        <time>2019-04-26T09:52:38Z</time>
      </trkpt>
      <trkpt lat="44.38468" lon="-1.15099">
        <ele>29</ele>
        <time>2019-04-26T09:53:14Z</time>
      </trkpt>
      <trkpt lat="44.38543" lon="-1.15225">
        <ele>29</ele>
        <time>2019-04-26T09:53:50Z</time>
      </trkpt>
      <trkpt lat="44.38574" lon="-1.15232">
        <ele>29</ele>
        <time>2019-04-26T09:54:08Z</time>
      </trkpt>
      <trkpt lat="44.38655" lon="-1.15338">
        <ele>30</ele>
        <time>2019-04-26T09:54:44Z</time>
      </trkpt>
      <trkpt lat="44.38677" lon="-1.15391">
        <ele>30</ele>
        <time>2019-04-26T09:54:56Z</time>
      </trkpt>
      <trkpt lat="44.3876" lon="-1.15496">
        <ele>30</ele>
        <time>2019-04-26T09:55:26Z</time>
      </trkpt>
      <trkpt lat="44.38898" lon="-1.15641">
        <ele>30</ele>
        <time>2019-04-26T09:56:20Z</time>
      </trkpt>
      <trkpt lat="44.3902" lon="-1.15821">
        <ele>29</ele>
        <time>2019-04-26T09:57:14Z</time>
      </trkpt>
      <trkpt lat="44.39325" lon="-1.16382">
        <ele>28</ele>
        <time>2019-04-26T09:59:56Z</time>
      </trkpt>
      <trkpt lat="44.39322" lon="-1.16404">
        <ele>28</ele>
        <time>2019-04-26T10:00:08Z</time>
      </trkpt>
      <trkpt lat="44.39332" lon="-1.16422">
        <ele>28</ele>
        <time>2019-04-26T10:00:20Z</time>
      </trkpt>
      <trkpt lat="44.3932" lon="-1.16457">
        <ele>27</ele>
        <time>2019-04-26T10:00:38Z</time>
      </trkpt>
      <trkpt lat="44.3932" lon="-1.165">
        <ele>27</ele>
        <time>2019-04-26T10:01:00Z</time>
      </trkpt>
      <trkpt lat="44.39402" lon="-1.16638">
        <ele>29</ele>
        <time>2019-04-26T10:01:54Z</time>
      </trkpt>
      <trkpt lat="44.39434" lon="-1.16636">
        <ele>29</ele>
        <time>2019-04-26T10:02:12Z</time>
      </trkpt>
      <trkpt lat="44.39552" lon="-1.16538">
        <ele>28</ele>
        <time>2019-04-26T10:03:33Z</time>
      </trkpt>
      <trkpt lat="44.39542" lon="-1.16535">
        <ele>28</ele>
        <time>2019-04-26T10:03:39Z</time>
      </trkpt>
      <trkpt lat="44.39467" lon="-1.16591">
        <ele>28</ele>
        <time>2019-04-26T10:04:42Z</time>
      </trkpt>
      <trkpt lat="44.39412" lon="-1.16649">
        <ele>29</ele>
        <time>2019-04-26T10:05:18Z</time>
      </trkpt>
      <trkpt lat="44.39402" lon="-1.16669">
        <ele>28</ele>
        <time>2019-04-26T10:05:30Z</time>
      </trkpt>
      <trkpt lat="44.39399" lon="-1.167">
        <ele>28</ele>
        <time>2019-04-26T10:05:42Z</time>
      </trkpt>
      <trkpt lat="44.39424" lon="-1.16712">
        <ele>28</ele>
        <time>2019-04-26T10:05:54Z</time>
      </trkpt>
      <trkpt lat="44.39427" lon="-1.1673">
        <ele>28</ele>
        <time>2019-04-26T10:06:06Z</time>
      </trkpt>
      <trkpt lat="44.39461" lon="-1.16744">
        <ele>28</ele>
        <time>2019-04-26T10:06:18Z</time>
      </trkpt>
      <trkpt lat="44.39533" lon="-1.16702">
        <ele>27</ele>
        <time>2019-04-26T10:06:48Z</time>
      </trkpt>
      <trkpt lat="44.3959" lon="-1.1696">
        <ele>29</ele>
        <time>2019-04-26T10:07:42Z</time>
      </trkpt>
      <trkpt lat="44.39611" lon="-1.1702">
        <ele>27</ele>
        <time>2019-04-26T10:07:54Z</time>
      </trkpt>
      <trkpt lat="44.39667" lon="-1.17098">
        <ele>26</ele>
        <time>2019-04-26T10:08:12Z</time>
      </trkpt>
      <trkpt lat="44.39713" lon="-1.17116">
        <ele>28</ele>
        <time>2019-04-26T10:08:24Z</time>
      </trkpt>
      <trkpt lat="44.39815" lon="-1.17131">
        <ele>29</ele>
        <time>2019-04-26T10:08:48Z</time>
      </trkpt>
      <trkpt lat="44.39858" lon="-1.17167">
        <ele>28</ele>
        <time>2019-04-26T10:09:00Z</time>
      </trkpt>
      <trkpt lat="44.39886" lon="-1.17222">
        <ele>26</ele>
        <time>2019-04-26T10:09:12Z</time>
      </trkpt>
      <trkpt lat="44.39932" lon="-1.17417">
        <ele>24</ele>
        <time>2019-04-26T10:09:42Z</time>
      </trkpt>
      <trkpt lat="44.39955" lon="-1.17425">
        <ele>23</ele>
        <time>2019-04-26T10:09:48Z</time>
      </trkpt>
      <trkpt lat="44.40007" lon="-1.17417">
        <ele>22</ele>
        <time>2019-04-26T10:10:00Z</time>
      </trkpt>
      <trkpt lat="44.40087" lon="-1.17375">
        <ele>26</ele>
        <time>2019-04-26T10:10:18Z</time>
      </trkpt>
      <trkpt lat="44.40231" lon="-1.17276">
        <ele>24</ele>
        <time>2019-04-26T10:10:55Z</time>
      </trkpt>
      <trkpt lat="44.40366" lon="-1.17234">
        <ele>25</ele>
        <time>2019-04-26T10:11:24Z</time>
      </trkpt>
      <trkpt lat="44.40599" lon="-1.17097">
        <ele>24</ele>
        <time>2019-04-26T10:12:24Z</time>
      </trkpt>
      <trkpt lat="44.40684" lon="-1.17086">
        <ele>24</ele>
        <time>2019-04-26T10:12:42Z</time>
      </trkpt>
      <trkpt lat="44.40734" lon="-1.17095">
        <ele>24</ele>
        <time>2019-04-26T10:12:54Z</time>
      </trkpt>
      <trkpt lat="44.40878" lon="-1.172">
        <ele>25</ele>
        <time>2019-04-26T10:13:30Z</time>
      </trkpt>
      <trkpt lat="44.40946" lon="-1.17273">
        <ele>24</ele>
        <time>2019-04-26T10:13:48Z</time>
      </trkpt>
      <trkpt lat="44.40998" lon="-1.17359">
        <ele>23</ele>
        <time>2019-04-26T10:14:06Z</time>
      </trkpt>
      <trkpt lat="44.41026" lon="-1.17362">
        <ele>23</ele>
        <time>2019-04-26T10:14:12Z</time>
      </trkpt>
      <trkpt lat="44.41094" lon="-1.17326">
        <ele>26</ele>
        <time>2019-04-26T10:14:30Z</time>
      </trkpt>
      <trkpt lat="44.41105" lon="-1.17289">
        <ele>26</ele>
        <time>2019-04-26T10:14:42Z</time>
      </trkpt>
      <trkpt lat="44.41126" lon="-1.17284">
        <ele>24</ele>
        <time>2019-04-26T10:14:54Z</time>
      </trkpt>
      <trkpt lat="44.41172" lon="-1.17477">
        <ele>22</ele>
        <time>2019-04-26T10:15:42Z</time>
      </trkpt>
      <trkpt lat="44.41474" lon="-1.17498">
        <ele>21</ele>
        <time>2019-04-26T10:16:54Z</time>
      </trkpt>
      <trkpt lat="44.4165" lon="-1.17489">
        <ele>21</ele>
        <time>2019-04-26T10:17:36Z</time>
      </trkpt>
      <trkpt lat="44.4178" lon="-1.17502">
        <ele>21</ele>
        <time>2019-04-26T10:18:06Z</time>
      </trkpt>
      <trkpt lat="44.41897" lon="-1.17492">
        <ele>20</ele>
        <time>2019-04-26T10:18:36Z</time>
      </trkpt>
      <trkpt lat="44.42452" lon="-1.17516">
        <ele>20</ele>
        <time>2019-04-26T10:20:48Z</time>
      </trkpt>
      <trkpt lat="44.42446" lon="-1.17197">
        <ele>23</ele>
        <time>2019-04-26T10:21:36Z</time>
      </trkpt>
      <trkpt lat="44.42427" lon="-1.1696">
        <ele>26</ele>
        <time>2019-04-26T10:22:12Z</time>
      </trkpt>
      <trkpt lat="44.42434" lon="-1.16895">
        <ele>27</ele>
        <time>2019-04-26T10:22:24Z</time>
      </trkpt>
      <trkpt lat="44.42631" lon="-1.16812">
        <ele>23</ele>
        <time>2019-04-26T10:23:19Z</time>
      </trkpt>
      <trkpt lat="44.42724" lon="-1.16812">
        <ele>25</ele>
        <time>2019-04-26T10:23:50Z</time>
      </trkpt>
      <trkpt lat="44.42956" lon="-1.1678">
        <ele>25</ele>
        <time>2019-04-26T10:25:08Z</time>
      </trkpt>
      <trkpt lat="44.43011" lon="-1.17397">
        <ele>24</ele>
        <time>2019-04-26T10:26:59Z</time>
      </trkpt>
      <trkpt lat="44.4302" lon="-1.17631">
        <ele>25</ele>
        <time>2019-04-26T10:28:05Z</time>
      </trkpt>
      <trkpt lat="44.43071" lon="-1.17749">
        <ele>25</ele>
        <time>2019-04-26T10:28:29Z</time>
      </trkpt>
      <trkpt lat="44.43097" lon="-1.17925">
        <ele>30</ele>
        <time>2019-04-26T10:28:59Z</time>
      </trkpt>
      <trkpt lat="44.43142" lon="-1.18012">
        <ele>27</ele>
        <time>2019-04-26T10:29:17Z</time>
      </trkpt>
      <trkpt lat="44.43156" lon="-1.18138">
        <ele>31</ele>
        <time>2019-04-26T10:29:41Z</time>
      </trkpt>
      <trkpt lat="44.43227" lon="-1.18335">
        <ele>29</ele>
        <time>2019-04-26T10:30:17Z</time>
      </trkpt>
      <trkpt lat="44.43241" lon="-1.18428">
        <ele>29</ele>
        <time>2019-04-26T10:30:35Z</time>
      </trkpt>
      <trkpt lat="44.43295" lon="-1.18518">
        <ele>29</ele>
        <time>2019-04-26T10:30:53Z</time>
      </trkpt>
      <trkpt lat="44.4332" lon="-1.18536">
        <ele>29</ele>
        <time>2019-04-26T10:30:59Z</time>
      </trkpt>
      <trkpt lat="44.43433" lon="-1.18706">
        <ele>27</ele>
        <time>2019-04-26T10:31:41Z</time>
      </trkpt>
      <trkpt lat="44.43477" lon="-1.18737">
        <ele>29</ele>
        <time>2019-04-26T10:31:53Z</time>
      </trkpt>
      <trkpt lat="44.43554" lon="-1.18766">
        <ele>26</ele>
        <time>2019-04-26T10:32:11Z</time>
      </trkpt>
      <trkpt lat="44.43588" lon="-1.1881">
        <ele>25</ele>
        <time>2019-04-26T10:32:23Z</time>
      </trkpt>
      <trkpt lat="44.43803" lon="-1.19014">
        <ele>25</ele>
        <time>2019-04-26T10:33:23Z</time>
      </trkpt>
      <trkpt lat="44.43905" lon="-1.19182">
        <ele>23</ele>
        <time>2019-04-26T10:34:05Z</time>
      </trkpt>
      <trkpt lat="44.43947" lon="-1.19282">
        <ele>26</ele>
        <time>2019-04-26T10:34:29Z</time>
      </trkpt>
      <trkpt lat="44.43967" lon="-1.19296">
        <ele>22</ele>
        <time>2019-04-26T10:34:35Z</time>
      </trkpt>
      <trkpt lat="44.44008" lon="-1.1929">
        <ele>22</ele>
        <time>2019-04-26T10:34:47Z</time>
      </trkpt>
      <trkpt lat="44.44044" lon="-1.19365">
        <ele>31</ele>
        <time>2019-04-26T10:35:17Z</time>
      </trkpt>
      <trkpt lat="44.44084" lon="-1.19414">
        <ele>34</ele>
        <time>2019-04-26T10:35:35Z</time>
      </trkpt>
      <trkpt lat="44.44126" lon="-1.19524">
        <ele>30</ele>
        <time>2019-04-26T10:35:53Z</time>
      </trkpt>
      <trkpt lat="44.44201" lon="-1.19506">
        <ele>37</ele>
        <time>2019-04-26T10:36:11Z</time>
      </trkpt>
      <trkpt lat="44.44248" lon="-1.1951">
        <ele>43</ele>
        <time>2019-04-26T10:36:23Z</time>
      </trkpt>
      <trkpt lat="44.44311" lon="-1.19536">
        <ele>39</ele>
        <time>2019-04-26T10:36:41Z</time>
      </trkpt>
      <trkpt lat="44.44445" lon="-1.19617">
        <ele>38</ele>
        <time>2019-04-26T10:37:17Z</time>
      </trkpt>
      <trkpt lat="44.44455" lon="-1.19547">
        <ele>35</ele>
        <time>2019-04-26T10:37:41Z</time>
      </trkpt>
      <trkpt lat="44.44463" lon="-1.1954">
        <ele>32</ele>
        <time>2019-04-26T10:37:45Z</time>
      </trkpt>
      <trkpt lat="44.44459" lon="-1.19495">
        <ele>32</ele>
        <time>2019-04-26T10:37:57Z</time>
      </trkpt>
      <trkpt lat="44.44469" lon="-1.19442">
        <ele>28</ele>
        <time>2019-04-26T10:38:09Z</time>
      </trkpt>
      <trkpt lat="44.44491" lon="-1.1943">
        <ele>28</ele>
        <time>2019-04-26T10:38:15Z</time>
      </trkpt>
      <trkpt lat="44.44598" lon="-1.1946">
        <ele>26</ele>
        <time>2019-04-26T10:38:39Z</time>
      </trkpt>
      <trkpt lat="44.44701" lon="-1.19551">
        <ele>28</ele>
        <time>2019-04-26T10:39:03Z</time>
      </trkpt>
      <trkpt lat="44.44769" lon="-1.19632">
        <ele>24</ele>
        <time>2019-04-26T10:39:21Z</time>
      </trkpt>
      <trkpt lat="44.44798" lon="-1.19629">
        <ele>24</ele>
        <time>2019-04-26T10:39:27Z</time>
      </trkpt>
      <trkpt lat="44.44897" lon="-1.19698">
        <ele>27</ele>
        <time>2019-04-26T10:39:51Z</time>
      </trkpt>
      <trkpt lat="44.44978" lon="-1.19721">
        <ele>22</ele>
        <time>2019-04-26T10:40:09Z</time>
      </trkpt>
      <trkpt lat="44.45152" lon="-1.19804">
        <ele>20</ele>
        <time>2019-04-26T10:40:59Z</time>
      </trkpt>
      <trkpt lat="44.453" lon="-1.19905">
        <ele>29</ele>
        <time>2019-04-26T10:41:36Z</time>
      </trkpt>
      <trkpt lat="44.45359" lon="-1.19925">
        <ele>21</ele>
        <time>2019-04-26T10:41:48Z</time>
      </trkpt>
      <trkpt lat="44.45399" lon="-1.19966">
        <ele>26</ele>
        <time>2019-04-26T10:42:00Z</time>
      </trkpt>
      <trkpt lat="44.45421" lon="-1.19975">
        <ele>26</ele>
        <time>2019-04-26T10:42:06Z</time>
      </trkpt>
      <trkpt lat="44.45429" lon="-1.19967">
        <ele>26</ele>
        <time>2019-04-26T10:42:28Z</time>
      </trkpt>
      <trkpt lat="44.4543" lon="-1.19988">
        <ele>26</ele>
        <time>2019-04-26T10:42:48Z</time>
      </trkpt>
      <trkpt lat="44.45486" lon="-1.20041">
        <ele>27</ele>
        <time>2019-04-26T10:43:12Z</time>
      </trkpt>
      <trkpt lat="44.45608" lon="-1.20106">
        <ele>28</ele>
        <time>2019-04-26T10:44:12Z</time>
      </trkpt>
      <trkpt lat="44.45644" lon="-1.20141">
        <ele>26</ele>
        <time>2019-04-26T10:44:30Z</time>
      </trkpt>
      <trkpt lat="44.45678" lon="-1.20214">
        <ele>32</ele>
        <time>2019-04-26T10:45:00Z</time>
      </trkpt>
      <trkpt lat="44.45691" lon="-1.20224">
        <ele>30</ele>
        <time>2019-04-26T10:45:20Z</time>
      </trkpt>
      <trkpt lat="44.45723" lon="-1.20454">
        <ele>50</ele>
        <time>2019-04-26T10:46:44Z</time>
      </trkpt>
      <trkpt lat="44.45868" lon="-1.20852">
        <ele>51</ele>
        <time>2019-04-26T10:48:02Z</time>
      </trkpt>
      <trkpt lat="44.45867" lon="-1.20967">
        <ele>48</ele>
        <time>2019-04-26T10:48:32Z</time>
      </trkpt>
      <trkpt lat="44.45853" lon="-1.21027">
        <ele>46</ele>
        <time>2019-04-26T10:48:44Z</time>
      </trkpt>
      <trkpt lat="44.45787" lon="-1.21187">
        <ele>43</ele>
        <time>2019-04-26T10:49:20Z</time>
      </trkpt>
      <trkpt lat="44.45743" lon="-1.21206">
        <ele>41</ele>
        <time>2019-04-26T10:49:32Z</time>
      </trkpt>
      <trkpt lat="44.45649" lon="-1.21182">
        <ele>50</ele>
        <time>2019-04-26T10:49:56Z</time>
      </trkpt>
      <trkpt lat="44.45605" lon="-1.21255">
        <ele>47</ele>
        <time>2019-04-26T10:50:14Z</time>
      </trkpt>
      <trkpt lat="44.45575" lon="-1.21208">
        <ele>47</ele>
        <time>2019-04-26T10:50:26Z</time>
      </trkpt>
      <trkpt lat="44.4555" lon="-1.21126">
        <ele>49</ele>
        <time>2019-04-26T10:50:44Z</time>
      </trkpt>
      <trkpt lat="44.45505" lon="-1.21134">
        <ele>47</ele>
        <time>2019-04-26T10:50:56Z</time>
      </trkpt>
      <trkpt lat="44.45476" lon="-1.21118">
        <ele>47</ele>
        <time>2019-04-26T10:51:02Z</time>
      </trkpt>
      <trkpt lat="44.45424" lon="-1.21062">
        <ele>46</ele>
        <time>2019-04-26T10:51:14Z</time>
      </trkpt>
      <trkpt lat="44.45317" lon="-1.21059">
        <ele>42</ele>
        <time>2019-04-26T10:51:32Z</time>
      </trkpt>
      <trkpt lat="44.45284" lon="-1.2108">
        <ele>43</ele>
        <time>2019-04-26T10:51:38Z</time>
      </trkpt>
      <trkpt lat="44.45269" lon="-1.21157">
        <ele>40</ele>
        <time>2019-04-26T10:51:50Z</time>
      </trkpt>
      <trkpt lat="44.4516" lon="-1.2128">
        <ele>44</ele>
        <time>2019-04-26T10:52:14Z</time>
      </trkpt>
      <trkpt lat="44.45069" lon="-1.21356">
        <ele>55</ele>
        <time>2019-04-26T10:52:32Z</time>
      </trkpt>
      <trkpt lat="44.44985" lon="-1.2147">
        <ele>39</ele>
        <time>2019-04-26T10:52:50Z</time>
      </trkpt>
      <trkpt lat="44.44883" lon="-1.21486">
        <ele>47</ele>
        <time>2019-04-26T10:53:08Z</time>
      </trkpt>
      <trkpt lat="44.44857" lon="-1.21511">
        <ele>47</ele>
        <time>2019-04-26T10:53:14Z</time>
      </trkpt>
      <trkpt lat="44.4479" lon="-1.21545">
        <ele>40</ele>
        <time>2019-04-26T10:53:26Z</time>
      </trkpt>
      <trkpt lat="44.4461" lon="-1.2156">
        <ele>33</ele>
        <time>2019-04-26T10:53:50Z</time>
      </trkpt>
      <trkpt lat="44.4462" lon="-1.2163">
        <ele>32</ele>
        <time>2019-04-26T10:54:02Z</time>
      </trkpt>
      <trkpt lat="44.44694" lon="-1.21716">
        <ele>34</ele>
        <time>2019-04-26T10:54:26Z</time>
      </trkpt>
      <trkpt lat="44.44807" lon="-1.21765">
        <ele>42</ele>
        <time>2019-04-26T10:55:32Z</time>
      </trkpt>
      <trkpt lat="44.44858" lon="-1.21837">
        <ele>61</ele>
        <time>2019-04-26T10:56:26Z</time>
      </trkpt>
      <trkpt lat="44.44866" lon="-1.2187">
        <ele>61</ele>
        <time>2019-04-26T10:56:44Z</time>
      </trkpt>
      <trkpt lat="44.44843" lon="-1.21912">
        <ele>69</ele>
        <time>2019-04-26T10:57:08Z</time>
      </trkpt>
      <trkpt lat="44.44772" lon="-1.21928">
        <ele>67</ele>
        <time>2019-04-26T10:57:52Z</time>
      </trkpt>
      <trkpt lat="44.44656" lon="-1.22016">
        <ele>74</ele>
        <time>2019-04-26T10:58:40Z</time>
      </trkpt>
      <trkpt lat="44.44608" lon="-1.22068">
        <ele>74</ele>
        <time>2019-04-26T10:58:52Z</time>
      </trkpt>
      <trkpt lat="44.44515" lon="-1.22616">
        <ele>42</ele>
        <time>2019-04-26T11:00:10Z</time>
      </trkpt>
      <trkpt lat="44.44437" lon="-1.22681">
        <ele>52</ele>
        <time>2019-04-26T11:00:52Z</time>
      </trkpt>
      <trkpt lat="44.44424" lon="-1.22712">
        <ele>55</ele>
        <time>2019-04-26T11:01:04Z</time>
      </trkpt>
      <trkpt lat="44.44395" lon="-1.22741">
        <ele>55</ele>
        <time>2019-04-26T11:01:16Z</time>
      </trkpt>
      <trkpt lat="44.44343" lon="-1.22777">
        <ele>52</ele>
        <time>2019-04-26T11:01:34Z</time>
      </trkpt>
      <trkpt lat="44.44262" lon="-1.22751">
        <ele>49</ele>
        <time>2019-04-26T11:01:52Z</time>
      </trkpt>
      <trkpt lat="44.44183" lon="-1.22784">
        <ele>46</ele>
        <time>2019-04-26T11:02:10Z</time>
      </trkpt>
      <trkpt lat="44.44095" lon="-1.22795">
        <ele>46</ele>
        <time>2019-04-26T11:02:28Z</time>
      </trkpt>
      <trkpt lat="44.44059" lon="-1.22745">
        <ele>45</ele>
        <time>2019-04-26T11:03:07Z</time>
      </trkpt>
      <trkpt lat="44.43897" lon="-1.22664">
        <ele>45</ele>
        <time>2019-04-26T11:03:35Z</time>
      </trkpt>
      <trkpt lat="44.43857" lon="-1.22688">
        <ele>44</ele>
        <time>2019-04-26T11:03:40Z</time>
      </trkpt>
      <trkpt lat="44.43797" lon="-1.22781">
        <ele>44</ele>
        <time>2019-04-26T11:03:52Z</time>
      </trkpt>
      <trkpt lat="44.43804" lon="-1.22875">
        <ele>43</ele>
        <time>2019-04-26T11:04:04Z</time>
      </trkpt>
      <trkpt lat="44.43837" lon="-1.22984">
        <ele>36</ele>
        <time>2019-04-26T11:04:16Z</time>
      </trkpt>
      <trkpt lat="44.43824" lon="-1.23093">
        <ele>34</ele>
        <time>2019-04-26T11:04:27Z</time>
      </trkpt>
      <trkpt lat="44.43757" lon="-1.23223">
        <ele>29</ele>
        <time>2019-04-26T11:04:43Z</time>
      </trkpt>
      <trkpt lat="44.43767" lon="-1.23319">
        <ele>23</ele>
        <time>2019-04-26T11:04:55Z</time>
      </trkpt>
      <trkpt lat="44.43823" lon="-1.23503">
        <ele>19</ele>
        <time>2019-04-26T11:05:25Z</time>
      </trkpt>
      <trkpt lat="44.43939" lon="-1.23687">
        <ele>22</ele>
        <time>2019-04-26T11:05:55Z</time>
      </trkpt>
      <trkpt lat="44.43961" lon="-1.23805">
        <ele>21</ele>
        <time>2019-04-26T11:06:13Z</time>
      </trkpt>
      <trkpt lat="44.44042" lon="-1.23991">
        <ele>24</ele>
        <time>2019-04-26T11:06:49Z</time>
      </trkpt>
      <trkpt lat="44.44143" lon="-1.24194">
        <ele>22</ele>
        <time>2019-04-26T11:07:31Z</time>
      </trkpt>
      <trkpt lat="44.4421" lon="-1.24309">
        <ele>18</ele>
        <time>2019-04-26T11:09:07Z</time>
      </trkpt>
      <trkpt lat="44.44276" lon="-1.24495">
        <ele>18</ele>
        <time>2019-04-26T11:10:01Z</time>
      </trkpt>
      <trkpt lat="44.44325" lon="-1.24682">
        <ele>18</ele>
        <time>2019-04-26T11:10:43Z</time>
      </trkpt>
      <trkpt lat="44.44345" lon="-1.24723">
        <ele>16</ele>
        <time>2019-04-26T11:10:55Z</time>
      </trkpt>
      <trkpt lat="44.44382" lon="-1.24726">
        <ele>16</ele>
        <time>2019-04-26T11:11:07Z</time>
      </trkpt>
      <trkpt lat="44.4448" lon="-1.24676">
        <ele>17</ele>
        <time>2019-04-26T11:11:37Z</time>
      </trkpt>
      <trkpt lat="44.44501" lon="-1.24643">
        <ele>17</ele>
        <time>2019-04-26T11:11:49Z</time>
      </trkpt>
      <trkpt lat="44.44534" lon="-1.24645">
        <ele>17</ele>
        <time>2019-04-26T11:12:01Z</time>
      </trkpt>
      <trkpt lat="44.44822" lon="-1.24506">
        <ele>18</ele>
        <time>2019-04-26T11:13:20Z</time>
      </trkpt>
      <trkpt lat="44.44998" lon="-1.24388">
        <ele>24</ele>
        <time>2019-04-26T11:14:07Z</time>
      </trkpt>
      <trkpt lat="44.45093" lon="-1.24275">
        <ele>21</ele>
        <time>2019-04-26T11:14:37Z</time>
      </trkpt>
      <trkpt lat="44.45121" lon="-1.2422">
        <ele>20</ele>
        <time>2019-04-26T11:14:49Z</time>
      </trkpt>
      <trkpt lat="44.45196" lon="-1.23931">
        <ele>20</ele>
        <time>2019-04-26T11:15:49Z</time>
      </trkpt>
      <trkpt lat="44.45212" lon="-1.23939">
        <ele>20</ele>
        <time>2019-04-26T11:16:01Z</time>
      </trkpt>
      <trkpt lat="44.45279" lon="-1.24116">
        <ele>20</ele>
        <time>2019-04-26T11:16:43Z</time>
      </trkpt>
      <trkpt lat="44.45348" lon="-1.24253">
        <ele>18</ele>
        <time>2019-04-26T11:17:13Z</time>
      </trkpt>
      <trkpt lat="44.45592" lon="-1.24141">
        <ele>17</ele>
        <time>2019-04-26T11:18:25Z</time>
      </trkpt>
      <trkpt lat="44.4564" lon="-1.24113">
        <ele>18</ele>
        <time>2019-04-26T11:18:43Z</time>
      </trkpt>
      <trkpt lat="44.45665" lon="-1.24079">
        <ele>18</ele>
        <time>2019-04-26T11:18:55Z</time>
      </trkpt>
      <trkpt lat="44.45695" lon="-1.24074">
        <ele>18</ele>
        <time>2019-04-26T11:19:07Z</time>
      </trkpt>
      <trkpt lat="44.45783" lon="-1.24272">
        <ele>19</ele>
        <time>2019-04-26T11:19:55Z</time>
      </trkpt>
      <trkpt lat="44.45832" lon="-1.2442">
        <ele>19</ele>
        <time>2019-04-26T11:20:25Z</time>
      </trkpt>
      <trkpt lat="44.45877" lon="-1.24471">
        <ele>19</ele>
        <time>2019-04-26T11:20:43Z</time>
      </trkpt>
      <trkpt lat="44.45924" lon="-1.24483">
        <ele>20</ele>
        <time>2019-04-26T11:20:55Z</time>
      </trkpt>
      <trkpt lat="44.45988" lon="-1.24441">
        <ele>22</ele>
        <time>2019-04-26T11:21:13Z</time>
      </trkpt>
      <trkpt lat="44.46119" lon="-1.24307">
        <ele>23</ele>
        <time>2019-04-26T11:22:01Z</time>
      </trkpt>
      <trkpt lat="44.46157" lon="-1.24287">
        <ele>23</ele>
        <time>2019-04-26T11:22:14Z</time>
      </trkpt>
      <trkpt lat="44.46316" lon="-1.24242">
        <ele>23</ele>
        <time>2019-04-26T11:23:03Z</time>
      </trkpt>
      <trkpt lat="44.4635" lon="-1.24211">
        <ele>24</ele>
        <time>2019-04-26T11:23:15Z</time>
      </trkpt>
      <trkpt lat="44.46402" lon="-1.24127">
        <ele>26</ele>
        <time>2019-04-26T11:23:40Z</time>
      </trkpt>
      <trkpt lat="44.46462" lon="-1.24071">
        <ele>26</ele>
        <time>2019-04-26T11:23:50Z</time>
      </trkpt>
      <trkpt lat="44.46535" lon="-1.24078">
        <ele>27</ele>
        <time>2019-04-26T11:24:20Z</time>
      </trkpt>
      <trkpt lat="44.46658" lon="-1.23998">
        <ele>24</ele>
        <time>2019-04-26T11:25:02Z</time>
      </trkpt>
      <trkpt lat="44.46751" lon="-1.23898">
        <ele>22</ele>
        <time>2019-04-26T11:25:27Z</time>
      </trkpt>
      <trkpt lat="44.46868" lon="-1.23833">
        <ele>23</ele>
        <time>2019-04-26T11:25:50Z</time>
      </trkpt>
      <trkpt lat="44.47082" lon="-1.23589">
        <ele>20</ele>
        <time>2019-04-26T11:26:44Z</time>
      </trkpt>
      <trkpt lat="44.4711" lon="-1.23585">
        <ele>20</ele>
        <time>2019-04-26T11:26:50Z</time>
      </trkpt>
      <trkpt lat="44.47147" lon="-1.23521">
        <ele>20</ele>
        <time>2019-04-26T11:27:08Z</time>
      </trkpt>
      <trkpt lat="44.47184" lon="-1.23496">
        <ele>20</ele>
        <time>2019-04-26T11:27:20Z</time>
      </trkpt>
      <trkpt lat="44.47327" lon="-1.23503">
        <ele>19</ele>
        <time>2019-04-26T11:27:59Z</time>
      </trkpt>
      <trkpt lat="44.47578" lon="-1.2347">
        <ele>19</ele>
        <time>2019-04-26T11:28:42Z</time>
      </trkpt>
      <trkpt lat="44.47713" lon="-1.23478">
        <ele>17</ele>
        <time>2019-04-26T11:29:06Z</time>
      </trkpt>
      <trkpt lat="44.4774" lon="-1.23474">
        <ele>17</ele>
        <time>2019-04-26T11:29:12Z</time>
      </trkpt>
      <trkpt lat="44.47792" lon="-1.23444">
        <ele>17</ele>
        <time>2019-04-26T11:29:24Z</time>
      </trkpt>
      <trkpt lat="44.47892" lon="-1.23435">
        <ele>16</ele>
        <time>2019-04-26T11:29:42Z</time>
      </trkpt>
      <trkpt lat="44.47986" lon="-1.2344">
        <ele>16</ele>
        <time>2019-04-26T11:30:00Z</time>
      </trkpt>
      <trkpt lat="44.48042" lon="-1.23456">
        <ele>18</ele>
        <time>2019-04-26T11:30:12Z</time>
      </trkpt>
      <trkpt lat="44.48168" lon="-1.23561">
        <ele>18</ele>
        <time>2019-04-26T11:30:42Z</time>
      </trkpt>
      <trkpt lat="44.48433" lon="-1.23612">
        <ele>17</ele>
        <time>2019-04-26T11:31:30Z</time>
      </trkpt>
      <trkpt lat="44.48614" lon="-1.23616">
        <ele>17</ele>
        <time>2019-04-26T11:32:06Z</time>
      </trkpt>
      <trkpt lat="44.48936" lon="-1.23597">
        <ele>15</ele>
        <time>2019-04-26T11:33:06Z</time>
      </trkpt>
      <trkpt lat="44.49206" lon="-1.23562">
        <ele>19</ele>
        <time>2019-04-26T11:33:54Z</time>
      </trkpt>
      <trkpt lat="44.49328" lon="-1.23559">
        <ele>18</ele>
        <time>2019-04-26T11:34:18Z</time>
      </trkpt>
      <trkpt lat="44.49378" lon="-1.23537">
        <ele>18</ele>
        <time>2019-04-26T11:34:31Z</time>
      </trkpt>
      <trkpt lat="44.49449" lon="-1.23336">
        <ele>23</ele>
        <time>2019-04-26T11:35:06Z</time>
      </trkpt>
      <trkpt lat="44.49473" lon="-1.23308">
        <ele>25</ele>
        <time>2019-04-26T11:35:12Z</time>
      </trkpt>
      <trkpt lat="44.49586" lon="-1.23246">
        <ele>24</ele>
        <time>2019-04-26T11:35:37Z</time>
      </trkpt>
      <trkpt lat="44.49653" lon="-1.23282">
        <ele>19</ele>
        <time>2019-04-26T11:35:49Z</time>
      </trkpt>
      <trkpt lat="44.49766" lon="-1.23255">
        <ele>18</ele>
        <time>2019-04-26T11:36:06Z</time>
      </trkpt>
      <trkpt lat="44.49829" lon="-1.23251">
        <ele>19</ele>
        <time>2019-04-26T11:36:18Z</time>
      </trkpt>
      <trkpt lat="44.49899" lon="-1.23327">
        <ele>17</ele>
        <time>2019-04-26T11:36:43Z</time>
      </trkpt>
      <trkpt lat="44.49947" lon="-1.2336">
        <ele>16</ele>
        <time>2019-04-26T11:36:54Z</time>
      </trkpt>
      <trkpt lat="44.50055" lon="-1.2334">
        <ele>16</ele>
        <time>2019-04-26T11:37:12Z</time>
      </trkpt>
      <trkpt lat="44.50122" lon="-1.23344">
        <ele>16</ele>
        <time>2019-04-26T11:37:24Z</time>
      </trkpt>
      <trkpt lat="44.5021" lon="-1.23363">
        <ele>16</ele>
        <time>2019-04-26T11:37:42Z</time>
      </trkpt>
      <trkpt lat="44.50319" lon="-1.23412">
        <ele>17</ele>
        <time>2019-04-26T11:38:06Z</time>
      </trkpt>
      <trkpt lat="44.50489" lon="-1.23442">
        <ele>18</ele>
        <time>2019-04-26T11:38:43Z</time>
      </trkpt>
      <trkpt lat="44.50563" lon="-1.23429">
        <ele>17</ele>
        <time>2019-04-26T11:39:00Z</time>
      </trkpt>
      <trkpt lat="44.50653" lon="-1.23379">
        <ele>18</ele>
        <time>2019-04-26T11:39:18Z</time>
      </trkpt>
      <trkpt lat="44.50972" lon="-1.23331">
        <ele>16</ele>
        <time>2019-04-26T11:40:24Z</time>
      </trkpt>
      <trkpt lat="44.51187" lon="-1.2341">
        <ele>17</ele>
        <time>2019-04-26T11:41:18Z</time>
      </trkpt>
      <trkpt lat="44.51217" lon="-1.23411">
        <ele>17</ele>
        <time>2019-04-26T11:41:24Z</time>
      </trkpt>
      <trkpt lat="44.51271" lon="-1.23385">
        <ele>16</ele>
        <time>2019-04-26T11:41:36Z</time>
      </trkpt>
      <trkpt lat="44.51352" lon="-1.23389">
        <ele>17</ele>
        <time>2019-04-26T11:41:54Z</time>
      </trkpt>
      <trkpt lat="44.5138" lon="-1.23408">
        <ele>18</ele>
        <time>2019-04-26T11:42:00Z</time>
      </trkpt>
      <trkpt lat="44.51441" lon="-1.23484">
        <ele>20</ele>
        <time>2019-04-26T11:42:18Z</time>
      </trkpt>
      <trkpt lat="44.51488" lon="-1.23512">
        <ele>23</ele>
        <time>2019-04-26T11:42:30Z</time>
      </trkpt>
      <trkpt lat="44.51545" lon="-1.23514">
        <ele>24</ele>
        <time>2019-04-26T11:42:43Z</time>
      </trkpt>
      <trkpt lat="44.51639" lon="-1.23493">
        <ele>19</ele>
        <time>2019-04-26T11:43:01Z</time>
      </trkpt>
      <trkpt lat="44.51694" lon="-1.23507">
        <ele>16</ele>
        <time>2019-04-26T11:43:12Z</time>
      </trkpt>
      <trkpt lat="44.51722" lon="-1.23564">
        <ele>15</ele>
        <time>2019-04-26T11:43:24Z</time>
      </trkpt>
      <trkpt lat="44.51754" lon="-1.23788">
        <ele>16</ele>
        <time>2019-04-26T11:44:06Z</time>
      </trkpt>
      <trkpt lat="44.51796" lon="-1.242">
        <ele>14</ele>
        <time>2019-04-26T11:45:12Z</time>
      </trkpt>
      <trkpt lat="44.51819" lon="-1.24289">
        <ele>14</ele>
        <time>2019-04-26T11:45:27Z</time>
      </trkpt>
      <trkpt lat="44.5187" lon="-1.24344">
        <ele>16</ele>
        <time>2019-04-26T11:45:39Z</time>
      </trkpt>
      <trkpt lat="44.51974" lon="-1.24414">
        <ele>17</ele>
        <time>2019-04-26T11:45:57Z</time>
      </trkpt>
      <trkpt lat="44.5216" lon="-1.24481">
        <ele>20</ele>
        <time>2019-04-26T11:46:39Z</time>
      </trkpt>
      <trkpt lat="44.52241" lon="-1.24536">
        <ele>18</ele>
        <time>2019-04-26T11:46:57Z</time>
      </trkpt>
      <trkpt lat="44.52417" lon="-1.24541">
        <ele>15</ele>
        <time>2019-04-26T11:47:33Z</time>
      </trkpt>
      <trkpt lat="44.5267" lon="-1.24585">
        <ele>19</ele>
        <time>2019-04-26T11:48:27Z</time>
      </trkpt>
      <trkpt lat="44.52733" lon="-1.24772">
        <ele>14</ele>
        <time>2019-04-26T11:48:57Z</time>
      </trkpt>
      <trkpt lat="44.52747" lon="-1.24904">
        <ele>10</ele>
        <time>2019-04-26T11:49:15Z</time>
      </trkpt>
      <trkpt lat="44.52801" lon="-1.24974">
        <ele>10</ele>
        <time>2019-04-26T11:49:27Z</time>
      </trkpt>
      <trkpt lat="44.53033" lon="-1.24963">
        <ele>11</ele>
        <time>2019-04-26T11:50:15Z</time>
      </trkpt>
      <trkpt lat="44.53114" lon="-1.24941">
        <ele>11</ele>
        <time>2019-04-26T11:50:33Z</time>
      </trkpt>
      <trkpt lat="44.53236" lon="-1.24972">
        <ele>12</ele>
        <time>2019-04-26T11:51:03Z</time>
      </trkpt>
      <trkpt lat="44.53393" lon="-1.24987">
        <ele>11</ele>
        <time>2019-04-26T11:51:39Z</time>
      </trkpt>
      <trkpt lat="44.53496" lon="-1.24976">
        <ele>13</ele>
        <time>2019-04-26T11:52:04Z</time>
      </trkpt>
      <trkpt lat="44.53578" lon="-1.24946">
        <ele>14</ele>
        <time>2019-04-26T11:52:21Z</time>
      </trkpt>
      <trkpt lat="44.53793" lon="-1.24927">
        <ele>14</ele>
        <time>2019-04-26T11:53:09Z</time>
      </trkpt>
      <trkpt lat="44.54017" lon="-1.24868">
        <ele>13</ele>
        <time>2019-04-26T11:54:03Z</time>
      </trkpt>
      <trkpt lat="44.54173" lon="-1.2485">
        <ele>14</ele>
        <time>2019-04-26T11:54:39Z</time>
      </trkpt>
      <trkpt lat="44.54344" lon="-1.24869">
        <ele>15</ele>
        <time>2019-04-26T11:55:15Z</time>
      </trkpt>
      <trkpt lat="44.54481" lon="-1.24837">
        <ele>14</ele>
        <time>2019-04-26T11:55:45Z</time>
      </trkpt>
      <trkpt lat="44.54585" lon="-1.24832">
        <ele>13</ele>
        <time>2019-04-26T11:56:08Z</time>
      </trkpt>
      <trkpt lat="44.54637" lon="-1.24817">
        <ele>13</ele>
        <time>2019-04-26T11:56:20Z</time>
      </trkpt>
      <trkpt lat="44.54675" lon="-1.24791">
        <ele>14</ele>
        <time>2019-04-26T11:56:32Z</time>
      </trkpt>
      <trkpt lat="44.54701" lon="-1.24648">
        <ele>18</ele>
        <time>2019-04-26T11:56:56Z</time>
      </trkpt>
      <trkpt lat="44.5472" lon="-1.2462">
        <ele>18</ele>
        <time>2019-04-26T11:57:02Z</time>
      </trkpt>
      <trkpt lat="44.54785" lon="-1.2457">
        <ele>18</ele>
        <time>2019-04-26T11:57:20Z</time>
      </trkpt>
      <trkpt lat="44.54793" lon="-1.24462">
        <ele>18</ele>
        <time>2019-04-26T11:57:38Z</time>
      </trkpt>
      <trkpt lat="44.5485" lon="-1.24439">
        <ele>18</ele>
        <time>2019-04-26T11:57:57Z</time>
      </trkpt>
      <trkpt lat="44.54908" lon="-1.24387">
        <ele>20</ele>
        <time>2019-04-26T11:58:14Z</time>
      </trkpt>
      <trkpt lat="44.54941" lon="-1.24405">
        <ele>19</ele>
        <time>2019-04-26T11:58:26Z</time>
      </trkpt>
      <trkpt lat="44.54945" lon="-1.24473">
        <ele>19</ele>
        <time>2019-04-26T11:58:38Z</time>
      </trkpt>
      <trkpt lat="44.54961" lon="-1.24547">
        <ele>20</ele>
        <time>2019-04-26T11:58:50Z</time>
      </trkpt>
      <trkpt lat="44.54984" lon="-1.24577">
        <ele>20</ele>
        <time>2019-04-26T11:58:56Z</time>
      </trkpt>
      <trkpt lat="44.55056" lon="-1.24632">
        <ele>13</ele>
        <time>2019-04-26T11:59:14Z</time>
      </trkpt>
      <trkpt lat="44.55206" lon="-1.24501">
        <ele>10</ele>
        <time>2019-04-26T11:59:56Z</time>
      </trkpt>
      <trkpt lat="44.55305" lon="-1.24434">
        <ele>13</ele>
        <time>2019-04-26T12:00:21Z</time>
      </trkpt>
      <trkpt lat="44.5531" lon="-1.2437">
        <ele>13</ele>
        <time>2019-04-26T12:00:32Z</time>
      </trkpt>
      <trkpt lat="44.5534" lon="-1.24266">
        <ele>25</ele>
        <time>2019-04-26T12:00:50Z</time>
      </trkpt>
      <trkpt lat="44.55407" lon="-1.2412">
        <ele>20</ele>
        <time>2019-04-26T12:01:20Z</time>
      </trkpt>
      <trkpt lat="44.55408" lon="-1.24042">
        <ele>16</ele>
        <time>2019-04-26T12:01:32Z</time>
      </trkpt>
      <trkpt lat="44.55367" lon="-1.23936">
        <ele>18</ele>
        <time>2019-04-26T12:01:51Z</time>
      </trkpt>
      <trkpt lat="44.55332" lon="-1.23875">
        <ele>21</ele>
        <time>2019-04-26T12:02:03Z</time>
      </trkpt>
      <trkpt lat="44.55287" lon="-1.23842">
        <ele>22</ele>
        <time>2019-04-26T12:02:14Z</time>
      </trkpt>
      <trkpt lat="44.55194" lon="-1.23805">
        <ele>17</ele>
        <time>2019-04-26T12:02:38Z</time>
      </trkpt>
      <trkpt lat="44.55196" lon="-1.23778">
        <ele>18</ele>
        <time>2019-04-26T12:02:56Z</time>
      </trkpt>
      <trkpt lat="44.55472" lon="-1.23626">
        <ele>35</ele>
        <time>2019-04-26T12:05:14Z</time>
      </trkpt>
      <trkpt lat="44.55512" lon="-1.23594">
        <ele>36</ele>
        <time>2019-04-26T12:05:38Z</time>
      </trkpt>
      <trkpt lat="44.55546" lon="-1.23547">
        <ele>34</ele>
        <time>2019-04-26T12:05:56Z</time>
      </trkpt>
      <trkpt lat="44.55585" lon="-1.23525">
        <ele>34</ele>
        <time>2019-04-26T12:06:08Z</time>
      </trkpt>
      <trkpt lat="44.55713" lon="-1.23531">
        <ele>36</ele>
        <time>2019-04-26T12:06:45Z</time>
      </trkpt>
      <trkpt lat="44.55759" lon="-1.23565">
        <ele>33</ele>
        <time>2019-04-26T12:06:57Z</time>
      </trkpt>
      <trkpt lat="44.55824" lon="-1.23588">
        <ele>32</ele>
        <time>2019-04-26T12:07:14Z</time>
      </trkpt>
      <trkpt lat="44.55903" lon="-1.23593">
        <ele>34</ele>
        <time>2019-04-26T12:07:32Z</time>
      </trkpt>
      <trkpt lat="44.55951" lon="-1.23576">
        <ele>35</ele>
        <time>2019-04-26T12:07:44Z</time>
      </trkpt>
      <trkpt lat="44.56137" lon="-1.23395">
        <ele>29</ele>
        <time>2019-04-26T12:08:08Z</time>
      </trkpt>
      <trkpt lat="44.5634" lon="-1.23298">
        <ele>28</ele>
        <time>2019-04-26T12:08:38Z</time>
      </trkpt>
      <trkpt lat="44.56471" lon="-1.23217">
        <ele>21</ele>
        <time>2019-04-26T12:09:02Z</time>
      </trkpt>
      <trkpt lat="44.56705" lon="-1.22873">
        <ele>24</ele>
        <time>2019-04-26T12:10:38Z</time>
      </trkpt>
      <trkpt lat="44.56818" lon="-1.22735">
        <ele>35</ele>
        <time>2019-04-26T12:11:32Z</time>
      </trkpt>
      <trkpt lat="44.56842" lon="-1.22722">
        <ele>35</ele>
        <time>2019-04-26T12:11:44Z</time>
      </trkpt>
      <trkpt lat="44.56901" lon="-1.2272">
        <ele>31</ele>
        <time>2019-04-26T12:12:20Z</time>
      </trkpt>
      <trkpt lat="44.56976" lon="-1.22677">
        <ele>29</ele>
        <time>2019-04-26T12:13:02Z</time>
      </trkpt>
      <trkpt lat="44.57017" lon="-1.22669">
        <ele>34</ele>
        <time>2019-04-26T12:13:26Z</time>
      </trkpt>
      <trkpt lat="44.57054" lon="-1.22639">
        <ele>44</ele>
        <time>2019-04-26T12:13:50Z</time>
      </trkpt>
      <trkpt lat="44.57091" lon="-1.22596">
        <ele>53</ele>
        <time>2019-04-26T12:14:14Z</time>
      </trkpt>
      <trkpt lat="44.57124" lon="-1.22508">
        <ele>59</ele>
        <time>2019-04-26T12:14:50Z</time>
      </trkpt>
      <trkpt lat="44.5722" lon="-1.22076">
        <ele>52</ele>
        <time>2019-04-26T12:16:43Z</time>
      </trkpt>
      <trkpt lat="44.57283" lon="-1.21903">
        <ele>51</ele>
        <time>2019-04-26T12:17:11Z</time>
      </trkpt>
      <trkpt lat="44.57311" lon="-1.21855">
        <ele>54</ele>
        <time>2019-04-26T12:17:24Z</time>
      </trkpt>
      <trkpt lat="44.5739" lon="-1.21757">
        <ele>58</ele>
        <time>2019-04-26T12:18:11Z</time>
      </trkpt>
      <trkpt lat="44.57512" lon="-1.21521">
        <ele>70</ele>
        <time>2019-04-26T12:19:28Z</time>
      </trkpt>
      <trkpt lat="44.57588" lon="-1.21395">
        <ele>65</ele>
        <time>2019-04-26T12:19:52Z</time>
      </trkpt>
      <trkpt lat="44.57703" lon="-1.2131">
        <ele>53</ele>
        <time>2019-04-26T12:20:10Z</time>
      </trkpt>
      <trkpt lat="44.57756" lon="-1.21281">
        <ele>47</ele>
        <time>2019-04-26T12:20:16Z</time>
      </trkpt>
      <trkpt lat="44.57807" lon="-1.21271">
        <ele>44</ele>
        <time>2019-04-26T12:20:54Z</time>
      </trkpt>
      <trkpt lat="44.57792" lon="-1.21305">
        <ele>51</ele>
        <time>2019-04-26T12:21:31Z</time>
      </trkpt>
      <trkpt lat="44.57783" lon="-1.21298">
        <ele>51</ele>
        <time>2019-04-26T12:21:47Z</time>
      </trkpt>
      <trkpt lat="44.57788" lon="-1.21351">
        <ele>64</ele>
        <time>2019-04-26T12:22:05Z</time>
      </trkpt>
      <trkpt lat="44.57726" lon="-1.21384">
        <ele>63</ele>
        <time>2019-04-26T12:22:27Z</time>
      </trkpt>
      <trkpt lat="44.57718" lon="-1.21452">
        <ele>56</ele>
        <time>2019-04-26T12:22:59Z</time>
      </trkpt>
      <trkpt lat="44.57732" lon="-1.21484">
        <ele>54</ele>
        <time>2019-04-26T12:23:23Z</time>
      </trkpt>
      <trkpt lat="44.57705" lon="-1.21483">
        <ele>56</ele>
        <time>2019-04-26T12:23:37Z</time>
      </trkpt>
      <trkpt lat="44.57701" lon="-1.2147">
        <ele>57</ele>
        <time>2019-04-26T12:23:49Z</time>
      </trkpt>
      <trkpt lat="44.57696" lon="-1.21468">
        <ele>57</ele>
        <time>2019-04-26T12:24:01Z</time>
      </trkpt>
      <trkpt lat="44.57715" lon="-1.21462">
        <ele>55</ele>
        <time>2019-04-27T07:12:49Z</time>
      </trkpt>
      <trkpt lat="44.57705" lon="-1.21469">
        <ele>55</ele>
        <time>2019-04-27T07:12:50Z</time>
      </trkpt>
      <trkpt lat="44.57688" lon="-1.21464">
        <ele>55</ele>
        <time>2019-04-27T07:12:54Z</time>
      </trkpt>
      <trkpt lat="44.57697" lon="-1.21468">
        <ele>55</ele>
        <time>2019-04-27T07:12:58Z</time>
      </trkpt>
      <trkpt lat="44.57691" lon="-1.21467">
        <ele>55</ele>
        <time>2019-04-27T07:13:01Z</time>
      </trkpt>
      <trkpt lat="44.57699" lon="-1.21461">
        <ele>55</ele>
        <time>2019-04-27T07:13:29Z</time>
      </trkpt>
      <trkpt lat="44.57695" lon="-1.21453">
        <ele>55</ele>
        <time>2019-04-27T07:13:35Z</time>
      </trkpt>
      <trkpt lat="44.57702" lon="-1.21463">
        <ele>55</ele>
        <time>2019-04-27T07:13:43Z</time>
      </trkpt>
      <trkpt lat="44.57733" lon="-1.2146">
        <ele>55</ele>
        <time>2019-04-27T07:13:54Z</time>
      </trkpt>
      <trkpt lat="44.57737" lon="-1.21474">
        <ele>55</ele>
        <time>2019-04-27T07:14:05Z</time>
      </trkpt>
      <trkpt lat="44.57729" lon="-1.21482">
        <ele>55</ele>
        <time>2019-04-27T07:14:29Z</time>
      </trkpt>
      <trkpt lat="44.57723" lon="-1.21431">
        <ele>55</ele>
        <time>2019-04-27T07:14:46Z</time>
      </trkpt>
      <trkpt lat="44.57727" lon="-1.21389">
        <ele>59</ele>
        <time>2019-04-27T07:15:16Z</time>
      </trkpt>
      <trkpt lat="44.57747" lon="-1.21359">
        <ele>59</ele>
        <time>2019-04-27T07:15:46Z</time>
      </trkpt>
      <trkpt lat="44.57757" lon="-1.21351">
        <ele>59</ele>
        <time>2019-04-27T07:15:58Z</time>
      </trkpt>
      <trkpt lat="44.57773" lon="-1.21357">
        <ele>59</ele>
        <time>2019-04-27T07:16:16Z</time>
      </trkpt>
      <trkpt lat="44.57803" lon="-1.21352">
        <ele>60</ele>
        <time>2019-04-27T07:16:57Z</time>
      </trkpt>
      <trkpt lat="44.57793" lon="-1.2135">
        <ele>60</ele>
        <time>2019-04-27T07:17:04Z</time>
      </trkpt>
      <trkpt lat="44.57796" lon="-1.21331">
        <ele>60</ele>
        <time>2019-04-27T07:17:22Z</time>
      </trkpt>
      <trkpt lat="44.57786" lon="-1.21324">
        <ele>60</ele>
        <time>2019-04-27T07:17:29Z</time>
      </trkpt>
      <trkpt lat="44.57795" lon="-1.21315">
        <ele>60</ele>
        <time>2019-04-27T07:17:35Z</time>
      </trkpt>
      <trkpt lat="44.57794" lon="-1.21302">
        <ele>60</ele>
        <time>2019-04-27T07:17:53Z</time>
      </trkpt>
      <trkpt lat="44.57801" lon="-1.21298">
        <ele>60</ele>
        <time>2019-04-27T07:17:59Z</time>
      </trkpt>
      <trkpt lat="44.57805" lon="-1.21276">
        <ele>60</ele>
        <time>2019-04-27T07:18:11Z</time>
      </trkpt>
      <trkpt lat="44.57978" lon="-1.21253">
        <ele>48</ele>
        <time>2019-04-27T07:18:59Z</time>
      </trkpt>
      <trkpt lat="44.58227" lon="-1.21167">
        <ele>63</ele>
        <time>2019-04-27T07:20:05Z</time>
      </trkpt>
      <trkpt lat="44.5829" lon="-1.21115">
        <ele>51</ele>
        <time>2019-04-27T07:20:17Z</time>
      </trkpt>
      <trkpt lat="44.58406" lon="-1.20973">
        <ele>45</ele>
        <time>2019-04-27T07:20:35Z</time>
      </trkpt>
      <trkpt lat="44.58466" lon="-1.20862">
        <ele>41</ele>
        <time>2019-04-27T07:20:53Z</time>
      </trkpt>
      <trkpt lat="44.58558" lon="-1.20717">
        <ele>36</ele>
        <time>2019-04-27T07:21:05Z</time>
      </trkpt>
      <trkpt lat="44.58707" lon="-1.20403">
        <ele>39</ele>
        <time>2019-04-27T07:21:47Z</time>
      </trkpt>
      <trkpt lat="44.5874" lon="-1.20347">
        <ele>39</ele>
        <time>2019-04-27T07:21:59Z</time>
      </trkpt>
      <trkpt lat="44.5875" lon="-1.20307">
        <ele>39</ele>
        <time>2019-04-27T07:22:05Z</time>
      </trkpt>
      <trkpt lat="44.58759" lon="-1.20223">
        <ele>42</ele>
        <time>2019-04-27T07:22:17Z</time>
      </trkpt>
      <trkpt lat="44.58883" lon="-1.19934">
        <ele>42</ele>
        <time>2019-04-27T07:23:16Z</time>
      </trkpt>
      <trkpt lat="44.58907" lon="-1.19895">
        <ele>42</ele>
        <time>2019-04-27T07:23:22Z</time>
      </trkpt>
      <trkpt lat="44.59015" lon="-1.19763">
        <ele>37</ele>
        <time>2019-04-27T07:23:46Z</time>
      </trkpt>
      <trkpt lat="44.59146" lon="-1.19638">
        <ele>38</ele>
        <time>2019-04-27T07:24:10Z</time>
      </trkpt>
      <trkpt lat="44.59259" lon="-1.19587">
        <ele>33</ele>
        <time>2019-04-27T07:24:46Z</time>
      </trkpt>
      <trkpt lat="44.59305" lon="-1.19579">
        <ele>33</ele>
        <time>2019-04-27T07:25:10Z</time>
      </trkpt>
      <trkpt lat="44.59362" lon="-1.19585">
        <ele>35</ele>
        <time>2019-04-27T07:25:28Z</time>
      </trkpt>
      <trkpt lat="44.59454" lon="-1.19567">
        <ele>40</ele>
        <time>2019-04-27T07:25:58Z</time>
      </trkpt>
      <trkpt lat="44.59503" lon="-1.1957">
        <ele>40</ele>
        <time>2019-04-27T07:26:16Z</time>
      </trkpt>
      <trkpt lat="44.59584" lon="-1.19603">
        <ele>43</ele>
        <time>2019-04-27T07:26:46Z</time>
      </trkpt>
      <trkpt lat="44.59703" lon="-1.19621">
        <ele>41</ele>
        <time>2019-04-27T07:27:16Z</time>
      </trkpt>
      <trkpt lat="44.59753" lon="-1.19639">
        <ele>39</ele>
        <time>2019-04-27T07:27:28Z</time>
      </trkpt>
      <trkpt lat="44.59777" lon="-1.19642">
        <ele>39</ele>
        <time>2019-04-27T07:27:34Z</time>
      </trkpt>
      <trkpt lat="44.59816" lon="-1.19615">
        <ele>39</ele>
        <time>2019-04-27T07:27:46Z</time>
      </trkpt>
      <trkpt lat="44.5984" lon="-1.19563">
        <ele>36</ele>
        <time>2019-04-27T07:27:58Z</time>
      </trkpt>
      <trkpt lat="44.59848" lon="-1.19432">
        <ele>40</ele>
        <time>2019-04-27T07:28:16Z</time>
      </trkpt>
      <trkpt lat="44.59848" lon="-1.19343">
        <ele>40</ele>
        <time>2019-04-27T07:28:28Z</time>
      </trkpt>
      <trkpt lat="44.59832" lon="-1.19139">
        <ele>35</ele>
        <time>2019-04-27T07:28:52Z</time>
      </trkpt>
      <trkpt lat="44.59842" lon="-1.18972">
        <ele>33</ele>
        <time>2019-04-27T07:29:10Z</time>
      </trkpt>
      <trkpt lat="44.5987" lon="-1.18851">
        <ele>43</ele>
        <time>2019-04-27T07:29:28Z</time>
      </trkpt>
      <trkpt lat="44.5998" lon="-1.18604">
        <ele>45</ele>
        <time>2019-04-27T07:30:16Z</time>
      </trkpt>
      <trkpt lat="44.59993" lon="-1.18536">
        <ele>45</ele>
        <time>2019-04-27T07:30:28Z</time>
      </trkpt>
      <trkpt lat="44.60021" lon="-1.18473">
        <ele>42</ele>
        <time>2019-04-27T07:30:40Z</time>
      </trkpt>
      <trkpt lat="44.60072" lon="-1.18317">
        <ele>38</ele>
        <time>2019-04-27T07:30:58Z</time>
      </trkpt>
      <trkpt lat="44.60051" lon="-1.17668">
        <ele>28</ele>
        <time>2019-04-27T07:31:53Z</time>
      </trkpt>
      <trkpt lat="44.60061" lon="-1.17618">
        <ele>28</ele>
        <time>2019-04-27T07:31:59Z</time>
      </trkpt>
      <trkpt lat="44.60111" lon="-1.17488">
        <ele>35</ele>
        <time>2019-04-27T07:32:17Z</time>
      </trkpt>
      <trkpt lat="44.6021" lon="-1.17305">
        <ele>30</ele>
        <time>2019-04-27T07:32:47Z</time>
      </trkpt>
      <trkpt lat="44.60265" lon="-1.17179">
        <ele>28</ele>
        <time>2019-04-27T07:33:11Z</time>
      </trkpt>
      <trkpt lat="44.60331" lon="-1.17054">
        <ele>27</ele>
        <time>2019-04-27T07:33:35Z</time>
      </trkpt>
      <trkpt lat="44.60354" lon="-1.16985">
        <ele>27</ele>
        <time>2019-04-27T07:33:47Z</time>
      </trkpt>
      <trkpt lat="44.60366" lon="-1.16894">
        <ele>27</ele>
        <time>2019-04-27T07:33:59Z</time>
      </trkpt>
      <trkpt lat="44.60354" lon="-1.16721">
        <ele>28</ele>
        <time>2019-04-27T07:34:23Z</time>
      </trkpt>
      <trkpt lat="44.60357" lon="-1.16676">
        <ele>28</ele>
        <time>2019-04-27T07:34:29Z</time>
      </trkpt>
      <trkpt lat="44.60374" lon="-1.16591">
        <ele>30</ele>
        <time>2019-04-27T07:34:41Z</time>
      </trkpt>
      <trkpt lat="44.60427" lon="-1.16462">
        <ele>28</ele>
        <time>2019-04-27T07:34:59Z</time>
      </trkpt>
      <trkpt lat="44.60546" lon="-1.16238">
        <ele>27</ele>
        <time>2019-04-27T07:35:35Z</time>
      </trkpt>
      <trkpt lat="44.60645" lon="-1.16029">
        <ele>25</ele>
        <time>2019-04-27T07:36:11Z</time>
      </trkpt>
      <trkpt lat="44.60753" lon="-1.15836">
        <ele>23</ele>
        <time>2019-04-27T07:36:53Z</time>
      </trkpt>
      <trkpt lat="44.60831" lon="-1.15741">
        <ele>19</ele>
        <time>2019-04-27T07:37:17Z</time>
      </trkpt>
      <trkpt lat="44.60852" lon="-1.15677">
        <ele>19</ele>
        <time>2019-04-27T07:37:29Z</time>
      </trkpt>
      <trkpt lat="44.60883" lon="-1.15658">
        <ele>19</ele>
        <time>2019-04-27T07:37:41Z</time>
      </trkpt>
      <trkpt lat="44.60904" lon="-1.15665">
        <ele>19</ele>
        <time>2019-04-27T07:37:47Z</time>
      </trkpt>
      <trkpt lat="44.60927" lon="-1.15661">
        <ele>20</ele>
        <time>2019-04-27T07:37:59Z</time>
      </trkpt>
      <trkpt lat="44.60926" lon="-1.15669">
        <ele>20</ele>
        <time>2019-04-27T07:38:20Z</time>
      </trkpt>
      <trkpt lat="44.60923" lon="-1.15666">
        <ele>20</ele>
        <time>2019-04-27T07:38:28Z</time>
      </trkpt>
      <trkpt lat="44.61143" lon="-1.15542">
        <ele>30</ele>
        <time>2019-04-27T07:39:49Z</time>
      </trkpt>
      <trkpt lat="44.61247" lon="-1.1547">
        <ele>27</ele>
        <time>2019-04-27T07:40:25Z</time>
      </trkpt>
      <trkpt lat="44.61301" lon="-1.15405">
        <ele>20</ele>
        <time>2019-04-27T07:40:37Z</time>
      </trkpt>
      <trkpt lat="44.61318" lon="-1.15327">
        <ele>17</ele>
        <time>2019-04-27T07:40:43Z</time>
      </trkpt>
      <trkpt lat="44.61296" lon="-1.15191">
        <ele>18</ele>
        <time>2019-04-27T07:40:55Z</time>
      </trkpt>
      <trkpt lat="44.61288" lon="-1.15085">
        <ele>18</ele>
        <time>2019-04-27T07:41:13Z</time>
      </trkpt>
      <trkpt lat="44.61303" lon="-1.14779">
        <ele>20</ele>
        <time>2019-04-27T07:42:01Z</time>
      </trkpt>
      <trkpt lat="44.61331" lon="-1.14786">
        <ele>20</ele>
        <time>2019-04-27T07:42:18Z</time>
      </trkpt>
      <trkpt lat="44.6136" lon="-1.14771">
        <ele>20</ele>
        <time>2019-04-27T07:42:30Z</time>
      </trkpt>
      <trkpt lat="44.6137" lon="-1.14713">
        <ele>20</ele>
        <time>2019-04-27T07:42:42Z</time>
      </trkpt>
      <trkpt lat="44.61413" lon="-1.14577">
        <ele>19</ele>
        <time>2019-04-27T07:43:06Z</time>
      </trkpt>
      <trkpt lat="44.61436" lon="-1.14527">
        <ele>11</ele>
        <time>2019-04-27T07:43:12Z</time>
      </trkpt>
      <trkpt lat="44.61569" lon="-1.14169">
        <ele>14</ele>
        <time>2019-04-27T07:43:54Z</time>
      </trkpt>
      <trkpt lat="44.61666" lon="-1.13875">
        <ele>14</ele>
        <time>2019-04-27T07:44:42Z</time>
      </trkpt>
      <trkpt lat="44.61697" lon="-1.13819">
        <ele>8</ele>
        <time>2019-04-27T07:45:06Z</time>
      </trkpt>
      <trkpt lat="44.61702" lon="-1.1375">
        <ele>8</ele>
        <time>2019-04-27T07:45:20Z</time>
      </trkpt>
      <trkpt lat="44.61759" lon="-1.13508">
        <ele>8</ele>
        <time>2019-04-27T07:45:56Z</time>
      </trkpt>
      <trkpt lat="44.61804" lon="-1.13264">
        <ele>8</ele>
        <time>2019-04-27T07:46:32Z</time>
      </trkpt>
      <trkpt lat="44.61832" lon="-1.12997">
        <ele>10</ele>
        <time>2019-04-27T07:47:20Z</time>
      </trkpt>
      <trkpt lat="44.61845" lon="-1.12995">
        <ele>10</ele>
        <time>2019-04-27T07:47:26Z</time>
      </trkpt>
      <trkpt lat="44.61874" lon="-1.13014">
        <ele>10</ele>
        <time>2019-04-27T07:47:38Z</time>
      </trkpt>
      <trkpt lat="44.61892" lon="-1.13015">
        <ele>9</ele>
        <time>2019-04-27T07:47:50Z</time>
      </trkpt>
      <trkpt lat="44.61927" lon="-1.13038">
        <ele>8</ele>
        <time>2019-04-27T07:48:08Z</time>
      </trkpt>
      <trkpt lat="44.61961" lon="-1.13076">
        <ele>8</ele>
        <time>2019-04-27T07:48:20Z</time>
      </trkpt>
      <trkpt lat="44.6204" lon="-1.13134">
        <ele>7</ele>
        <time>2019-04-27T07:48:38Z</time>
      </trkpt>
      <trkpt lat="44.62084" lon="-1.1314">
        <ele>7</ele>
        <time>2019-04-27T07:48:59Z</time>
      </trkpt>
      <trkpt lat="44.62095" lon="-1.13125">
        <ele>7</ele>
        <time>2019-04-27T07:49:06Z</time>
      </trkpt>
      <trkpt lat="44.62093" lon="-1.1309">
        <ele>7</ele>
        <time>2019-04-27T07:49:18Z</time>
      </trkpt>
      <trkpt lat="44.62063" lon="-1.1308">
        <ele>7</ele>
        <time>2019-04-27T07:49:30Z</time>
      </trkpt>
      <trkpt lat="44.62043" lon="-1.13053">
        <ele>7</ele>
        <time>2019-04-27T07:49:42Z</time>
      </trkpt>
      <trkpt lat="44.61888" lon="-1.12571">
        <ele>11</ele>
        <time>2019-04-27T07:51:30Z</time>
      </trkpt>
      <trkpt lat="44.61884" lon="-1.12546">
        <ele>11</ele>
        <time>2019-04-27T07:51:36Z</time>
      </trkpt>
      <trkpt lat="44.61915" lon="-1.12479">
        <ele>11</ele>
        <time>2019-04-27T07:51:54Z</time>
      </trkpt>
      <trkpt lat="44.61864" lon="-1.12328">
        <ele>8</ele>
        <time>2019-04-27T07:52:30Z</time>
      </trkpt>
      <trkpt lat="44.61865" lon="-1.12262">
        <ele>8</ele>
        <time>2019-04-27T07:52:42Z</time>
      </trkpt>
      <trkpt lat="44.61827" lon="-1.12101">
        <ele>12</ele>
        <time>2019-04-27T07:53:12Z</time>
      </trkpt>
      <trkpt lat="44.61827" lon="-1.1204">
        <ele>14</ele>
        <time>2019-04-27T07:53:24Z</time>
      </trkpt>
      <trkpt lat="44.61839" lon="-1.11979">
        <ele>14</ele>
        <time>2019-04-27T07:53:36Z</time>
      </trkpt>
      <trkpt lat="44.61802" lon="-1.11737">
        <ele>16</ele>
        <time>2019-04-27T07:54:18Z</time>
      </trkpt>
      <trkpt lat="44.61781" lon="-1.11551">
        <ele>12</ele>
        <time>2019-04-27T07:54:48Z</time>
      </trkpt>
      <trkpt lat="44.61757" lon="-1.11432">
        <ele>13</ele>
        <time>2019-04-27T07:55:06Z</time>
      </trkpt>
      <trkpt lat="44.61747" lon="-1.11324">
        <ele>12</ele>
        <time>2019-04-27T07:55:24Z</time>
      </trkpt>
      <trkpt lat="44.6172" lon="-1.1128">
        <ele>12</ele>
        <time>2019-04-27T07:55:36Z</time>
      </trkpt>
      <trkpt lat="44.61712" lon="-1.11222">
        <ele>13</ele>
        <time>2019-04-27T07:55:48Z</time>
      </trkpt>
      <trkpt lat="44.61715" lon="-1.11172">
        <ele>13</ele>
        <time>2019-04-27T07:56:00Z</time>
      </trkpt>
      <trkpt lat="44.61676" lon="-1.10832">
        <ele>12</ele>
        <time>2019-04-27T07:56:54Z</time>
      </trkpt>
      <trkpt lat="44.61674" lon="-1.10753">
        <ele>13</ele>
        <time>2019-04-27T07:57:06Z</time>
      </trkpt>
      <trkpt lat="44.61676" lon="-1.10728">
        <ele>13</ele>
        <time>2019-04-27T07:57:12Z</time>
      </trkpt>
      <trkpt lat="44.61727" lon="-1.10701">
        <ele>15</ele>
        <time>2019-04-27T07:57:24Z</time>
      </trkpt>
      <trkpt lat="44.61785" lon="-1.10694">
        <ele>15</ele>
        <time>2019-04-27T07:57:36Z</time>
      </trkpt>
      <trkpt lat="44.62061" lon="-1.1061">
        <ele>16</ele>
        <time>2019-04-27T07:58:36Z</time>
      </trkpt>
      <trkpt lat="44.62007" lon="-1.10561">
        <ele>16</ele>
        <time>2019-04-27T07:59:00Z</time>
      </trkpt>
      <trkpt lat="44.6202" lon="-1.10532">
        <ele>12</ele>
        <time>2019-04-27T07:59:25Z</time>
      </trkpt>
      <trkpt lat="44.62335" lon="-1.10796">
        <ele>11</ele>
        <time>2019-04-27T08:01:32Z</time>
      </trkpt>
      <trkpt lat="44.62391" lon="-1.1069">
        <ele>10</ele>
        <time>2019-04-27T08:02:08Z</time>
      </trkpt>
      <trkpt lat="44.62432" lon="-1.10671">
        <ele>10</ele>
        <time>2019-04-27T08:02:20Z</time>
      </trkpt>
      <trkpt lat="44.62478" lon="-1.10667">
        <ele>10</ele>
        <time>2019-04-27T08:02:32Z</time>
      </trkpt>
      <trkpt lat="44.62464" lon="-1.10606">
        <ele>10</ele>
        <time>2019-04-27T08:02:44Z</time>
      </trkpt>
      <trkpt lat="44.62425" lon="-1.10531">
        <ele>9</ele>
        <time>2019-04-27T08:03:02Z</time>
      </trkpt>
      <trkpt lat="44.62403" lon="-1.10466">
        <ele>9</ele>
        <time>2019-04-27T08:03:14Z</time>
      </trkpt>
      <trkpt lat="44.62358" lon="-1.10452">
        <ele>10</ele>
        <time>2019-04-27T08:03:26Z</time>
      </trkpt>
      <trkpt lat="44.62314" lon="-1.10412">
        <ele>10</ele>
        <time>2019-04-27T08:03:38Z</time>
      </trkpt>
      <trkpt lat="44.62295" lon="-1.10382">
        <ele>10</ele>
        <time>2019-04-27T08:03:50Z</time>
      </trkpt>
      <trkpt lat="44.62214" lon="-1.10088">
        <ele>11</ele>
        <time>2019-04-27T08:04:50Z</time>
      </trkpt>
      <trkpt lat="44.62186" lon="-1.10017">
        <ele>11</ele>
        <time>2019-04-27T08:05:08Z</time>
      </trkpt>
      <trkpt lat="44.62093" lon="-1.09615">
        <ele>10</ele>
        <time>2019-04-27T08:06:20Z</time>
      </trkpt>
      <trkpt lat="44.62071" lon="-1.0947">
        <ele>13</ele>
        <time>2019-04-27T08:06:44Z</time>
      </trkpt>
      <trkpt lat="44.62048" lon="-1.09367">
        <ele>11</ele>
        <time>2019-04-27T08:07:02Z</time>
      </trkpt>
      <trkpt lat="44.6203" lon="-1.09222">
        <ele>13</ele>
        <time>2019-04-27T08:07:26Z</time>
      </trkpt>
      <trkpt lat="44.62015" lon="-1.09158">
        <ele>13</ele>
        <time>2019-04-27T08:07:38Z</time>
      </trkpt>
      <trkpt lat="44.62006" lon="-1.09049">
        <ele>13</ele>
        <time>2019-04-27T08:07:56Z</time>
      </trkpt>
      <trkpt lat="44.61982" lon="-1.08907">
        <ele>15</ele>
        <time>2019-04-27T08:08:20Z</time>
      </trkpt>
      <trkpt lat="44.61961" lon="-1.08711">
        <ele>14</ele>
        <time>2019-04-27T08:08:56Z</time>
      </trkpt>
      <trkpt lat="44.61947" lon="-1.08644">
        <ele>14</ele>
        <time>2019-04-27T08:09:08Z</time>
      </trkpt>
      <trkpt lat="44.61945" lon="-1.0854">
        <ele>11</ele>
        <time>2019-04-27T08:09:26Z</time>
      </trkpt>
      <trkpt lat="44.61965" lon="-1.08097">
        <ele>13</ele>
        <time>2019-04-27T08:10:38Z</time>
      </trkpt>
      <trkpt lat="44.61984" lon="-1.07881">
        <ele>14</ele>
        <time>2019-04-27T08:11:14Z</time>
      </trkpt>
      <trkpt lat="44.61988" lon="-1.07776">
        <ele>12</ele>
        <time>2019-04-27T08:11:32Z</time>
      </trkpt>
      <trkpt lat="44.61984" lon="-1.07743">
        <ele>12</ele>
        <time>2019-04-27T08:11:44Z</time>
      </trkpt>
      <trkpt lat="44.6201" lon="-1.07477">
        <ele>10</ele>
        <time>2019-04-27T08:12:32Z</time>
      </trkpt>
      <trkpt lat="44.62027" lon="-1.0742">
        <ele>10</ele>
        <time>2019-04-27T08:12:44Z</time>
      </trkpt>
      <trkpt lat="44.62028" lon="-1.07326">
        <ele>13</ele>
        <time>2019-04-27T08:13:12Z</time>
      </trkpt>
      <trkpt lat="44.62033" lon="-1.07314">
        <ele>13</ele>
        <time>2019-04-27T08:13:18Z</time>
      </trkpt>
      <trkpt lat="44.62073" lon="-1.07303">
        <ele>13</ele>
        <time>2019-04-27T08:13:30Z</time>
      </trkpt>
      <trkpt lat="44.62197" lon="-1.07298">
        <ele>9</ele>
        <time>2019-04-27T08:14:06Z</time>
      </trkpt>
      <trkpt lat="44.62235" lon="-1.07267">
        <ele>9</ele>
        <time>2019-04-27T08:14:18Z</time>
      </trkpt>
      <trkpt lat="44.62265" lon="-1.07185">
        <ele>9</ele>
        <time>2019-04-27T08:14:36Z</time>
      </trkpt>
      <trkpt lat="44.6234" lon="-1.06868">
        <ele>9</ele>
        <time>2019-04-27T08:15:36Z</time>
      </trkpt>
      <trkpt lat="44.62389" lon="-1.06716">
        <ele>10</ele>
        <time>2019-04-27T08:16:12Z</time>
      </trkpt>
      <trkpt lat="44.62404" lon="-1.06694">
        <ele>10</ele>
        <time>2019-04-27T08:16:24Z</time>
      </trkpt>
      <trkpt lat="44.6242" lon="-1.06687">
        <ele>10</ele>
        <time>2019-04-27T08:16:36Z</time>
      </trkpt>
      <trkpt lat="44.6245" lon="-1.06596">
        <ele>10</ele>
        <time>2019-04-27T08:16:54Z</time>
      </trkpt>
      <trkpt lat="44.62494" lon="-1.06381">
        <ele>8</ele>
        <time>2019-04-27T08:17:30Z</time>
      </trkpt>
      <trkpt lat="44.62556" lon="-1.06268">
        <ele>10</ele>
        <time>2019-04-27T08:17:54Z</time>
      </trkpt>
      <trkpt lat="44.62547" lon="-1.06243">
        <ele>10</ele>
        <time>2019-04-27T08:18:00Z</time>
      </trkpt>
      <trkpt lat="44.62529" lon="-1.06133">
        <ele>11</ele>
        <time>2019-04-27T08:18:18Z</time>
      </trkpt>
      <trkpt lat="44.62532" lon="-1.05783">
        <ele>9</ele>
        <time>2019-04-27T08:19:18Z</time>
      </trkpt>
      <trkpt lat="44.62526" lon="-1.05671">
        <ele>9</ele>
        <time>2019-04-27T08:19:36Z</time>
      </trkpt>
      <trkpt lat="44.6253" lon="-1.05532">
        <ele>12</ele>
        <time>2019-04-27T08:20:00Z</time>
      </trkpt>
      <trkpt lat="44.62416" lon="-1.04741">
        <ele>12</ele>
        <time>2019-04-27T08:22:00Z</time>
      </trkpt>
      <trkpt lat="44.62359" lon="-1.04526">
        <ele>13</ele>
        <time>2019-04-27T08:22:36Z</time>
      </trkpt>
      <trkpt lat="44.62337" lon="-1.04366">
        <ele>9</ele>
        <time>2019-04-27T08:23:06Z</time>
      </trkpt>
      <trkpt lat="44.62347" lon="-1.04328">
        <ele>9</ele>
        <time>2019-04-27T08:23:18Z</time>
      </trkpt>
      <trkpt lat="44.62329" lon="-1.04286">
        <ele>9</ele>
        <time>2019-04-27T08:23:30Z</time>
      </trkpt>
      <trkpt lat="44.62313" lon="-1.04186">
        <ele>10</ele>
        <time>2019-04-27T08:24:02Z</time>
      </trkpt>
      <trkpt lat="44.6231" lon="-1.04121">
        <ele>10</ele>
        <time>2019-04-27T08:24:14Z</time>
      </trkpt>
      <trkpt lat="44.62334" lon="-1.04069">
        <ele>11</ele>
        <time>2019-04-27T08:24:26Z</time>
      </trkpt>
      <trkpt lat="44.62495" lon="-1.04014">
        <ele>12</ele>
        <time>2019-04-27T08:25:02Z</time>
      </trkpt>
      <trkpt lat="44.625" lon="-1.03993">
        <ele>12</ele>
        <time>2019-04-27T08:25:08Z</time>
      </trkpt>
      <trkpt lat="44.62494" lon="-1.03915">
        <ele>12</ele>
        <time>2019-04-27T08:25:20Z</time>
      </trkpt>
      <trkpt lat="44.62502" lon="-1.03857">
        <ele>12</ele>
        <time>2019-04-27T08:25:32Z</time>
      </trkpt>
      <trkpt lat="44.62491" lon="-1.03697">
        <ele>12</ele>
        <time>2019-04-27T08:25:56Z</time>
      </trkpt>
      <trkpt lat="44.62482" lon="-1.03645">
        <ele>10</ele>
        <time>2019-04-27T08:26:08Z</time>
      </trkpt>
      <trkpt lat="44.62581" lon="-1.03454">
        <ele>9</ele>
        <time>2019-04-27T08:26:50Z</time>
      </trkpt>
      <trkpt lat="44.62609" lon="-1.03381">
        <ele>10</ele>
        <time>2019-04-27T08:27:14Z</time>
      </trkpt>
      <trkpt lat="44.62609" lon="-1.03359">
        <ele>10</ele>
        <time>2019-04-27T08:27:22Z</time>
      </trkpt>
      <trkpt lat="44.62577" lon="-1.03334">
        <ele>10</ele>
        <time>2019-04-27T08:27:34Z</time>
      </trkpt>
      <trkpt lat="44.62561" lon="-1.03243">
        <ele>13</ele>
        <time>2019-04-27T08:27:52Z</time>
      </trkpt>
      <trkpt lat="44.62508" lon="-1.03064">
        <ele>15</ele>
        <time>2019-04-27T08:28:22Z</time>
      </trkpt>
      <trkpt lat="44.6242" lon="-1.02796">
        <ele>10</ele>
        <time>2019-04-27T08:29:04Z</time>
      </trkpt>
      <trkpt lat="44.62394" lon="-1.02754">
        <ele>10</ele>
        <time>2019-04-27T08:29:22Z</time>
      </trkpt>
      <trkpt lat="44.62379" lon="-1.02677">
        <ele>10</ele>
        <time>2019-04-27T08:29:46Z</time>
      </trkpt>
      <trkpt lat="44.62327" lon="-1.02512">
        <ele>9</ele>
        <time>2019-04-27T08:30:28Z</time>
      </trkpt>
      <trkpt lat="44.62315" lon="-1.02489">
        <ele>9</ele>
        <time>2019-04-27T08:30:34Z</time>
      </trkpt>
      <trkpt lat="44.62287" lon="-1.02468">
        <ele>9</ele>
        <time>2019-04-27T08:30:57Z</time>
      </trkpt>
      <trkpt lat="44.62291" lon="-1.02475">
        <ele>9</ele>
        <time>2019-04-27T08:31:05Z</time>
      </trkpt>
      <trkpt lat="44.62284" lon="-1.02452">
        <ele>9</ele>
        <time>2019-04-27T08:31:12Z</time>
      </trkpt>
      <trkpt lat="44.62287" lon="-1.02401">
        <ele>11</ele>
        <time>2019-04-27T08:31:30Z</time>
      </trkpt>
      <trkpt lat="44.62213" lon="-1.02146">
        <ele>10</ele>
        <time>2019-04-27T08:32:30Z</time>
      </trkpt>
      <trkpt lat="44.62186" lon="-1.02019">
        <ele>9</ele>
        <time>2019-04-27T08:32:54Z</time>
      </trkpt>
      <trkpt lat="44.62174" lon="-1.01912">
        <ele>12</ele>
        <time>2019-04-27T08:33:12Z</time>
      </trkpt>
      <trkpt lat="44.62152" lon="-1.01828">
        <ele>13</ele>
        <time>2019-04-27T08:33:30Z</time>
      </trkpt>
      <trkpt lat="44.62121" lon="-1.01497">
        <ele>16</ele>
        <time>2019-04-27T08:34:58Z</time>
      </trkpt>
      <trkpt lat="44.62098" lon="-1.0138">
        <ele>13</ele>
        <time>2019-04-27T08:35:22Z</time>
      </trkpt>
      <trkpt lat="44.62086" lon="-1.01275">
        <ele>14</ele>
        <time>2019-04-27T08:35:40Z</time>
      </trkpt>
      <trkpt lat="44.62055" lon="-1.01166">
        <ele>10</ele>
        <time>2019-04-27T08:36:04Z</time>
      </trkpt>
      <trkpt lat="44.62058" lon="-1.01154">
        <ele>10</ele>
        <time>2019-04-27T08:36:10Z</time>
      </trkpt>
      <trkpt lat="44.62093" lon="-1.01139">
        <ele>14</ele>
        <time>2019-04-27T08:36:22Z</time>
      </trkpt>
      <trkpt lat="44.62344" lon="-1.01125">
        <ele>13</ele>
        <time>2019-04-27T08:37:22Z</time>
      </trkpt>
      <trkpt lat="44.62387" lon="-1.0113">
        <ele>13</ele>
        <time>2019-04-27T08:37:34Z</time>
      </trkpt>
      <trkpt lat="44.62665" lon="-1.01107">
        <ele>13</ele>
        <time>2019-04-27T08:38:40Z</time>
      </trkpt>
      <trkpt lat="44.62741" lon="-1.01113">
        <ele>13</ele>
        <time>2019-04-27T08:38:58Z</time>
      </trkpt>
      <trkpt lat="44.62772" lon="-1.01091">
        <ele>12</ele>
        <time>2019-04-27T08:39:10Z</time>
      </trkpt>
      <trkpt lat="44.62595" lon="-1.00189">
        <ele>11</ele>
        <time>2019-04-27T08:39:24Z</time>
      </trkpt>
      <trkpt lat="44.6261" lon="-1.00054">
        <ele>8</ele>
        <time>2019-04-27T08:39:45Z</time>
      </trkpt>
      <trkpt lat="44.62617" lon="-1.00024">
        <ele>8</ele>
        <time>2019-04-27T08:39:51Z</time>
      </trkpt>
      <trkpt lat="44.62641" lon="-0.9997">
        <ele>7</ele>
        <time>2019-04-27T08:40:03Z</time>
      </trkpt>
      <trkpt lat="44.62625" lon="-0.99859">
        <ele>7</ele>
        <time>2019-04-27T08:41:06Z</time>
      </trkpt>
      <trkpt lat="44.62662" lon="-0.9941">
        <ele>7</ele>
        <time>2019-04-27T08:42:54Z</time>
      </trkpt>
      <trkpt lat="44.62681" lon="-0.99287">
        <ele>11</ele>
        <time>2019-04-27T08:43:11Z</time>
      </trkpt>
      <trkpt lat="44.62709" lon="-0.99206">
        <ele>11</ele>
        <time>2019-04-27T08:43:24Z</time>
      </trkpt>
      <trkpt lat="44.63112" lon="-0.98319">
        <ele>8</ele>
        <time>2019-04-27T08:46:05Z</time>
      </trkpt>
      <trkpt lat="44.63119" lon="-0.98288">
        <ele>8</ele>
        <time>2019-04-27T08:46:11Z</time>
      </trkpt>
      <trkpt lat="44.63212" lon="-0.98089">
        <ele>9</ele>
        <time>2019-04-27T08:46:52Z</time>
      </trkpt>
      <trkpt lat="44.6323" lon="-0.98039">
        <ele>8</ele>
        <time>2019-04-27T08:47:05Z</time>
      </trkpt>
      <trkpt lat="44.63267" lon="-0.97979">
        <ele>8</ele>
        <time>2019-04-27T08:47:23Z</time>
      </trkpt>
      <trkpt lat="44.6328" lon="-0.97928">
        <ele>8</ele>
        <time>2019-04-27T08:47:41Z</time>
      </trkpt>
      <trkpt lat="44.63456" lon="-0.97538">
        <ele>10</ele>
        <time>2019-04-27T08:50:11Z</time>
      </trkpt>
      <trkpt lat="44.63477" lon="-0.97515">
        <ele>10</ele>
        <time>2019-04-27T08:50:37Z</time>
      </trkpt>
      <trkpt lat="44.63493" lon="-0.97453">
        <ele>11</ele>
        <time>2019-04-27T08:51:07Z</time>
      </trkpt>
      <trkpt lat="44.63551" lon="-0.97339">
        <ele>9</ele>
        <time>2019-04-27T08:52:00Z</time>
      </trkpt>
      <trkpt lat="44.6375" lon="-0.96882">
        <ele>12</ele>
        <time>2019-04-27T08:54:14Z</time>
      </trkpt>
      <trkpt lat="44.6378" lon="-0.96853">
        <ele>12</ele>
        <time>2019-04-27T08:54:26Z</time>
      </trkpt>
      <trkpt lat="44.63788" lon="-0.96811">
        <ele>12</ele>
        <time>2019-04-27T08:54:38Z</time>
      </trkpt>
      <trkpt lat="44.63822" lon="-0.96727">
        <ele>12</ele>
        <time>2019-04-27T08:55:02Z</time>
      </trkpt>
      <trkpt lat="44.63894" lon="-0.96572">
        <ele>14</ele>
        <time>2019-04-27T08:55:44Z</time>
      </trkpt>
      <trkpt lat="44.63919" lon="-0.96542">
        <ele>14</ele>
        <time>2019-04-27T08:55:56Z</time>
      </trkpt>
      <trkpt lat="44.63925" lon="-0.965">
        <ele>14</ele>
        <time>2019-04-27T08:56:08Z</time>
      </trkpt>
      <trkpt lat="44.64169" lon="-0.95958">
        <ele>17</ele>
        <time>2019-04-27T08:58:14Z</time>
      </trkpt>
      <trkpt lat="44.64214" lon="-0.95936">
        <ele>17</ele>
        <time>2019-04-27T08:58:27Z</time>
      </trkpt>
      <trkpt lat="44.64285" lon="-0.95925">
        <ele>17</ele>
        <time>2019-04-27T08:58:44Z</time>
      </trkpt>
      <trkpt lat="44.64372" lon="-0.95933">
        <ele>15</ele>
        <time>2019-04-27T08:59:08Z</time>
      </trkpt>
      <trkpt lat="44.64414" lon="-0.95947">
        <ele>15</ele>
        <time>2019-04-27T08:59:20Z</time>
      </trkpt>
      <trkpt lat="44.64484" lon="-0.95987">
        <ele>18</ele>
        <time>2019-04-27T08:59:38Z</time>
      </trkpt>
      <trkpt lat="44.64858" lon="-0.96305">
        <ele>17</ele>
        <time>2019-04-27T09:01:44Z</time>
      </trkpt>
      <trkpt lat="44.65073" lon="-0.96523">
        <ele>19</ele>
        <time>2019-04-27T09:02:56Z</time>
      </trkpt>
      <trkpt lat="44.65335" lon="-0.96881">
        <ele>18</ele>
        <time>2019-04-27T09:04:14Z</time>
      </trkpt>
      <trkpt lat="44.65657" lon="-0.97349">
        <ele>17</ele>
        <time>2019-04-27T09:05:56Z</time>
      </trkpt>
      <trkpt lat="44.65862" lon="-0.97627">
        <ele>18</ele>
        <time>2019-04-27T09:06:56Z</time>
      </trkpt>
      <trkpt lat="44.66139" lon="-0.98029">
        <ele>15</ele>
        <time>2019-04-27T09:08:20Z</time>
      </trkpt>
      <trkpt lat="44.66256" lon="-0.98186">
        <ele>19</ele>
        <time>2019-04-27T09:08:56Z</time>
      </trkpt>
      <trkpt lat="44.66357" lon="-0.98343">
        <ele>16</ele>
        <time>2019-04-27T09:09:26Z</time>
      </trkpt>
      <trkpt lat="44.66522" lon="-0.98567">
        <ele>19</ele>
        <time>2019-04-27T09:10:14Z</time>
      </trkpt>
      <trkpt lat="44.67008" lon="-0.99267">
        <ele>16</ele>
        <time>2019-04-27T09:12:38Z</time>
      </trkpt>
      <trkpt lat="44.67114" lon="-0.99407">
        <ele>16</ele>
        <time>2019-04-27T09:13:08Z</time>
      </trkpt>
      <trkpt lat="44.67241" lon="-0.99602">
        <ele>10</ele>
        <time>2019-04-27T09:13:44Z</time>
      </trkpt>
      <trkpt lat="44.67596" lon="-1.00098">
        <ele>11</ele>
        <time>2019-04-27T09:15:26Z</time>
      </trkpt>
      <trkpt lat="44.67633" lon="-1.00163">
        <ele>11</ele>
        <time>2019-04-27T09:15:38Z</time>
      </trkpt>
      <trkpt lat="44.67751" lon="-1.00317">
        <ele>12</ele>
        <time>2019-04-27T09:16:08Z</time>
      </trkpt>
      <trkpt lat="44.6783" lon="-1.00445">
        <ele>10</ele>
        <time>2019-04-27T09:16:32Z</time>
      </trkpt>
      <trkpt lat="44.67975" lon="-1.00651">
        <ele>10</ele>
        <time>2019-04-27T09:17:20Z</time>
      </trkpt>
      <trkpt lat="44.68017" lon="-1.00701">
        <ele>10</ele>
        <time>2019-04-27T09:17:32Z</time>
      </trkpt>
      <trkpt lat="44.68148" lon="-1.00893">
        <ele>9</ele>
        <time>2019-04-27T09:18:14Z</time>
      </trkpt>
      <trkpt lat="44.6821" lon="-1.00969">
        <ele>9</ele>
        <time>2019-04-27T09:18:38Z</time>
      </trkpt>
      <trkpt lat="44.68214" lon="-1.01002">
        <ele>9</ele>
        <time>2019-04-27T09:19:00Z</time>
      </trkpt>
      <trkpt lat="44.68205" lon="-1.01098">
        <ele>8</ele>
        <time>2019-04-27T09:19:24Z</time>
      </trkpt>
      <trkpt lat="44.68207" lon="-1.01151">
        <ele>8</ele>
        <time>2019-04-27T09:19:36Z</time>
      </trkpt>
      <trkpt lat="44.6818" lon="-1.01274">
        <ele>5</ele>
        <time>2019-04-27T09:20:06Z</time>
      </trkpt>
      <trkpt lat="44.68178" lon="-1.01326">
        <ele>5</ele>
        <time>2019-04-27T09:20:30Z</time>
      </trkpt>
      <trkpt lat="44.68147" lon="-1.01482">
        <ele>5</ele>
        <time>2019-04-27T09:21:06Z</time>
      </trkpt>
      <trkpt lat="44.68147" lon="-1.01531">
        <ele>5</ele>
        <time>2019-04-27T09:21:18Z</time>
      </trkpt>
      <trkpt lat="44.68129" lon="-1.01673">
        <ele>4</ele>
        <time>2019-04-27T09:21:48Z</time>
      </trkpt>
      <trkpt lat="44.68115" lon="-1.01706">
        <ele>4</ele>
        <time>2019-04-27T09:21:54Z</time>
      </trkpt>
      <trkpt lat="44.68106" lon="-1.0176">
        <ele>4</ele>
        <time>2019-04-27T09:22:06Z</time>
      </trkpt>
      <trkpt lat="44.68092" lon="-1.01784">
        <ele>4</ele>
        <time>2019-04-27T09:22:12Z</time>
      </trkpt>
      <trkpt lat="44.68066" lon="-1.01862">
        <ele>4</ele>
        <time>2019-04-27T09:22:30Z</time>
      </trkpt>
      <trkpt lat="44.68038" lon="-1.01907">
        <ele>4</ele>
        <time>2019-04-27T09:22:42Z</time>
      </trkpt>
      <trkpt lat="44.67893" lon="-1.0191">
        <ele>3</ele>
        <time>2019-04-27T09:23:24Z</time>
      </trkpt>
      <trkpt lat="44.67874" lon="-1.01915">
        <ele>3</ele>
        <time>2019-04-27T09:23:30Z</time>
      </trkpt>
      <trkpt lat="44.67836" lon="-1.01944">
        <ele>1</ele>
        <time>2019-04-27T09:23:42Z</time>
      </trkpt>
      <trkpt lat="44.67842" lon="-1.01967">
        <ele>1</ele>
        <time>2019-04-27T09:23:48Z</time>
      </trkpt>
      <trkpt lat="44.67855" lon="-1.01979">
        <ele>3</ele>
        <time>2019-04-27T09:23:54Z</time>
      </trkpt>
      <trkpt lat="44.67869" lon="-1.0201">
        <ele>3</ele>
        <time>2019-04-27T09:24:06Z</time>
      </trkpt>
      <trkpt lat="44.67799" lon="-1.02249">
        <ele>2</ele>
        <time>2019-04-27T09:25:18Z</time>
      </trkpt>
      <trkpt lat="44.67794" lon="-1.02332">
        <ele>1</ele>
        <time>2019-04-27T09:25:42Z</time>
      </trkpt>
      <trkpt lat="44.67777" lon="-1.02426">
        <ele>1</ele>
        <time>2019-04-27T09:26:21Z</time>
      </trkpt>
      <trkpt lat="44.67769" lon="-1.02435">
        <ele>1</ele>
        <time>2019-04-27T09:26:28Z</time>
      </trkpt>
      <trkpt lat="44.67753" lon="-1.02431">
        <ele>1</ele>
        <time>2019-04-27T09:26:49Z</time>
      </trkpt>
      <trkpt lat="44.67745" lon="-1.02448">
        <ele>1</ele>
        <time>2019-04-27T09:27:05Z</time>
      </trkpt>
      <trkpt lat="44.67752" lon="-1.02429">
        <ele>1</ele>
        <time>2019-04-27T09:27:24Z</time>
      </trkpt>
      <trkpt lat="44.67768" lon="-1.02424">
        <ele>1</ele>
        <time>2019-04-27T09:27:48Z</time>
      </trkpt>
      <trkpt lat="44.67784" lon="-1.02353">
        <ele>1</ele>
        <time>2019-04-27T09:28:12Z</time>
      </trkpt>
      <trkpt lat="44.67792" lon="-1.0226">
        <ele>2</ele>
        <time>2019-04-27T09:28:30Z</time>
      </trkpt>
      <trkpt lat="44.67885" lon="-1.01945">
        <ele>3</ele>
        <time>2019-04-27T09:29:36Z</time>
      </trkpt>
      <trkpt lat="44.67925" lon="-1.01934">
        <ele>3</ele>
        <time>2019-04-27T09:29:48Z</time>
      </trkpt>
      <trkpt lat="44.68023" lon="-1.01936">
        <ele>4</ele>
        <time>2019-04-27T09:30:18Z</time>
      </trkpt>
      <trkpt lat="44.68053" lon="-1.0191">
        <ele>4</ele>
        <time>2019-04-27T09:30:30Z</time>
      </trkpt>
      <trkpt lat="44.68074" lon="-1.01867">
        <ele>4</ele>
        <time>2019-04-27T09:30:42Z</time>
      </trkpt>
      <trkpt lat="44.68105" lon="-1.0173">
        <ele>4</ele>
        <time>2019-04-27T09:31:12Z</time>
      </trkpt>
      <trkpt lat="44.68123" lon="-1.01585">
        <ele>4</ele>
        <time>2019-04-27T09:31:42Z</time>
      </trkpt>
      <trkpt lat="44.68158" lon="-1.01381">
        <ele>5</ele>
        <time>2019-04-27T09:32:24Z</time>
      </trkpt>
      <trkpt lat="44.68154" lon="-1.01349">
        <ele>5</ele>
        <time>2019-04-27T09:32:46Z</time>
      </trkpt>
      <trkpt lat="44.68176" lon="-1.01332">
        <ele>5</ele>
        <time>2019-04-27T09:32:58Z</time>
      </trkpt>
      <trkpt lat="44.68165" lon="-1.01345">
        <ele>5</ele>
        <time>2019-04-27T09:33:04Z</time>
      </trkpt>
      <trkpt lat="44.68138" lon="-1.01311">
        <ele>5</ele>
        <time>2019-04-27T09:33:16Z</time>
      </trkpt>
      <trkpt lat="44.68135" lon="-1.01291">
        <ele>5</ele>
        <time>2019-04-27T09:33:32Z</time>
      </trkpt>
      <trkpt lat="44.68142" lon="-1.01263">
        <ele>5</ele>
        <time>2019-04-27T09:34:00Z</time>
      </trkpt>
      <trkpt lat="44.68137" lon="-1.01285">
        <ele>5</ele>
        <time>2019-04-27T09:34:11Z</time>
      </trkpt>
      <trkpt lat="44.68156" lon="-1.01304">
        <ele>5</ele>
        <time>2019-04-27T09:34:35Z</time>
      </trkpt>
      <trkpt lat="44.68178" lon="-1.01288">
        <ele>5</ele>
        <time>2019-04-27T09:35:01Z</time>
      </trkpt>
      <trkpt lat="44.68204" lon="-1.01068">
        <ele>9</ele>
        <time>2019-04-27T09:36:19Z</time>
      </trkpt>
      <trkpt lat="44.68225" lon="-1.01003">
        <ele>9</ele>
        <time>2019-04-27T09:36:37Z</time>
      </trkpt>
      <trkpt lat="44.68361" lon="-1.01154">
        <ele>7</ele>
        <time>2019-04-27T09:37:25Z</time>
      </trkpt>
      <trkpt lat="44.68467" lon="-1.01242">
        <ele>6</ele>
        <time>2019-04-27T09:37:55Z</time>
      </trkpt>
      <trkpt lat="44.6851" lon="-1.01282">
        <ele>6</ele>
        <time>2019-04-27T09:38:07Z</time>
      </trkpt>
      <trkpt lat="44.68567" lon="-1.01351">
        <ele>7</ele>
        <time>2019-04-27T09:38:25Z</time>
      </trkpt>
      <trkpt lat="44.68602" lon="-1.01379">
        <ele>7</ele>
        <time>2019-04-27T09:38:37Z</time>
      </trkpt>
      <trkpt lat="44.68708" lon="-1.01452">
        <ele>8</ele>
        <time>2019-04-27T09:39:13Z</time>
      </trkpt>
      <trkpt lat="44.68912" lon="-1.01576">
        <ele>8</ele>
        <time>2019-04-27T09:40:07Z</time>
      </trkpt>
      <trkpt lat="44.69065" lon="-1.01658">
        <ele>10</ele>
        <time>2019-04-27T09:40:49Z</time>
      </trkpt>
      <trkpt lat="44.69175" lon="-1.01731">
        <ele>11</ele>
        <time>2019-04-27T09:41:19Z</time>
      </trkpt>
      <trkpt lat="44.69314" lon="-1.01806">
        <ele>9</ele>
        <time>2019-04-27T09:41:55Z</time>
      </trkpt>
      <trkpt lat="44.69429" lon="-1.01881">
        <ele>10</ele>
        <time>2019-04-27T09:42:25Z</time>
      </trkpt>
      <trkpt lat="44.69508" lon="-1.01925">
        <ele>14</ele>
        <time>2019-04-27T09:42:43Z</time>
      </trkpt>
      <trkpt lat="44.69572" lon="-1.01948">
        <ele>14</ele>
        <time>2019-04-27T09:43:01Z</time>
      </trkpt>
      <trkpt lat="44.69619" lon="-1.01987">
        <ele>13</ele>
        <time>2019-04-27T09:43:13Z</time>
      </trkpt>
      <trkpt lat="44.69705" lon="-1.02024">
        <ele>14</ele>
        <time>2019-04-27T09:43:37Z</time>
      </trkpt>
      <trkpt lat="44.6976" lon="-1.02076">
        <ele>10</ele>
        <time>2019-04-27T09:43:49Z</time>
      </trkpt>
      <trkpt lat="44.69824" lon="-1.0212">
        <ele>9</ele>
        <time>2019-04-27T09:44:07Z</time>
      </trkpt>
      <trkpt lat="44.69896" lon="-1.02203">
        <ele>8</ele>
        <time>2019-04-27T09:44:25Z</time>
      </trkpt>
      <trkpt lat="44.69997" lon="-1.023">
        <ele>12</ele>
        <time>2019-04-27T09:44:49Z</time>
      </trkpt>
      <trkpt lat="44.70098" lon="-1.02437">
        <ele>8</ele>
        <time>2019-04-27T09:45:19Z</time>
      </trkpt>
      <trkpt lat="44.70185" lon="-1.02573">
        <ele>10</ele>
        <time>2019-04-27T09:45:49Z</time>
      </trkpt>
      <trkpt lat="44.70334" lon="-1.02883">
        <ele>14</ele>
        <time>2019-04-27T09:46:55Z</time>
      </trkpt>
      <trkpt lat="44.70558" lon="-1.03404">
        <ele>7</ele>
        <time>2019-04-27T09:48:55Z</time>
      </trkpt>
      <trkpt lat="44.70584" lon="-1.03486">
        <ele>7</ele>
        <time>2019-04-27T09:49:13Z</time>
      </trkpt>
      <trkpt lat="44.70733" lon="-1.03824">
        <ele>8</ele>
        <time>2019-04-27T09:50:25Z</time>
      </trkpt>
      <trkpt lat="44.70795" lon="-1.03983">
        <ele>7</ele>
        <time>2019-04-27T09:51:01Z</time>
      </trkpt>
      <trkpt lat="44.70934" lon="-1.0429">
        <ele>7</ele>
        <time>2019-04-27T09:52:07Z</time>
      </trkpt>
      <trkpt lat="44.70981" lon="-1.04412">
        <ele>8</ele>
        <time>2019-04-27T09:52:37Z</time>
      </trkpt>
      <trkpt lat="44.71024" lon="-1.04502">
        <ele>8</ele>
        <time>2019-04-27T09:52:55Z</time>
      </trkpt>
      <trkpt lat="44.71153" lon="-1.04819">
        <ele>8</ele>
        <time>2019-04-27T09:53:55Z</time>
      </trkpt>
      <trkpt lat="44.71232" lon="-1.04982">
        <ele>9</ele>
        <time>2019-04-27T09:54:31Z</time>
      </trkpt>
      <trkpt lat="44.71282" lon="-1.05121">
        <ele>7</ele>
        <time>2019-04-27T09:54:55Z</time>
      </trkpt>
      <trkpt lat="44.7141" lon="-1.05405">
        <ele>9</ele>
        <time>2019-04-27T09:56:01Z</time>
      </trkpt>
      <trkpt lat="44.71449" lon="-1.05516">
        <ele>9</ele>
        <time>2019-04-27T09:56:25Z</time>
      </trkpt>
      <trkpt lat="44.71533" lon="-1.05694">
        <ele>8</ele>
        <time>2019-04-27T09:57:01Z</time>
      </trkpt>
      <trkpt lat="44.71554" lon="-1.05756">
        <ele>9</ele>
        <time>2019-04-27T09:57:13Z</time>
      </trkpt>
      <trkpt lat="44.71572" lon="-1.05786">
        <ele>9</ele>
        <time>2019-04-27T09:57:19Z</time>
      </trkpt>
      <trkpt lat="44.71682" lon="-1.06055">
        <ele>9</ele>
        <time>2019-04-27T09:58:07Z</time>
      </trkpt>
      <trkpt lat="44.71733" lon="-1.06151">
        <ele>9</ele>
        <time>2019-04-27T09:58:25Z</time>
      </trkpt>
      <trkpt lat="44.71823" lon="-1.06294">
        <ele>7</ele>
        <time>2019-04-27T09:58:55Z</time>
      </trkpt>
      <trkpt lat="44.71907" lon="-1.06389">
        <ele>8</ele>
        <time>2019-04-27T09:59:19Z</time>
      </trkpt>
      <trkpt lat="44.71979" lon="-1.0645">
        <ele>8</ele>
        <time>2019-04-27T09:59:37Z</time>
      </trkpt>
      <trkpt lat="44.72067" lon="-1.06513">
        <ele>11</ele>
        <time>2019-04-27T10:00:01Z</time>
      </trkpt>
      <trkpt lat="44.72138" lon="-1.0655">
        <ele>12</ele>
        <time>2019-04-27T10:00:19Z</time>
      </trkpt>
      <trkpt lat="44.72407" lon="-1.06758">
        <ele>12</ele>
        <time>2019-04-27T10:01:37Z</time>
      </trkpt>
      <trkpt lat="44.72458" lon="-1.06787">
        <ele>13</ele>
        <time>2019-04-27T10:01:49Z</time>
      </trkpt>
      <trkpt lat="44.72695" lon="-1.06955">
        <ele>12</ele>
        <time>2019-04-27T10:02:49Z</time>
      </trkpt>
      <trkpt lat="44.7277" lon="-1.0703">
        <ele>11</ele>
        <time>2019-04-27T10:03:13Z</time>
      </trkpt>
      <trkpt lat="44.72865" lon="-1.0714">
        <ele>11</ele>
        <time>2019-04-27T10:03:43Z</time>
      </trkpt>
      <trkpt lat="44.72982" lon="-1.07323">
        <ele>10</ele>
        <time>2019-04-27T10:04:19Z</time>
      </trkpt>
      <trkpt lat="44.73061" lon="-1.0749">
        <ele>10</ele>
        <time>2019-04-27T10:04:55Z</time>
      </trkpt>
      <trkpt lat="44.73282" lon="-1.07914">
        <ele>8</ele>
        <time>2019-04-27T10:06:48Z</time>
      </trkpt>
      <trkpt lat="44.73488" lon="-1.08335">
        <ele>8</ele>
        <time>2019-04-27T10:08:19Z</time>
      </trkpt>
      <trkpt lat="44.73924" lon="-1.09193">
        <ele>7</ele>
        <time>2019-04-27T10:11:19Z</time>
      </trkpt>
      <trkpt lat="44.74123" lon="-1.09577">
        <ele>6</ele>
        <time>2019-04-27T10:13:13Z</time>
      </trkpt>
      <trkpt lat="44.74217" lon="-1.09723">
        <ele>7</ele>
        <time>2019-04-27T10:13:55Z</time>
      </trkpt>
      <trkpt lat="44.74241" lon="-1.09773">
        <ele>6</ele>
        <time>2019-04-27T10:14:13Z</time>
      </trkpt>
      <trkpt lat="44.74328" lon="-1.09854">
        <ele>6</ele>
        <time>2019-04-27T10:15:13Z</time>
      </trkpt>
      <trkpt lat="44.74377" lon="-1.09922">
        <ele>7</ele>
        <time>2019-04-27T10:15:37Z</time>
      </trkpt>
      <trkpt lat="44.74388" lon="-1.0994">
        <ele>11</ele>
        <time>2019-04-27T10:15:43Z</time>
      </trkpt>
      <trkpt lat="44.74384" lon="-1.09944">
        <ele>11</ele>
        <time>2019-04-27T10:15:55Z</time>
      </trkpt>
      <trkpt lat="44.74362" lon="-1.09911">
        <ele>7</ele>
        <time>2019-04-27T10:16:13Z</time>
      </trkpt>
      <trkpt lat="44.7435" lon="-1.09856">
        <ele>6</ele>
        <time>2019-04-27T10:16:50Z</time>
      </trkpt>
      <trkpt lat="44.74357" lon="-1.09891">
        <ele>7</ele>
        <time>2019-04-27T10:17:04Z</time>
      </trkpt>
      <trkpt lat="44.74449" lon="-1.10042">
        <ele>6</ele>
        <time>2019-04-27T10:18:00Z</time>
      </trkpt>
      <trkpt lat="44.74526" lon="-1.10152">
        <ele>6</ele>
        <time>2019-04-27T10:18:24Z</time>
      </trkpt>
      <trkpt lat="44.74583" lon="-1.10254">
        <ele>6</ele>
        <time>2019-04-27T10:18:48Z</time>
      </trkpt>
      <trkpt lat="44.7465" lon="-1.1035">
        <ele>5</ele>
        <time>2019-04-27T10:19:12Z</time>
      </trkpt>
      <trkpt lat="44.74951" lon="-1.10674">
        <ele>6</ele>
        <time>2019-04-27T10:20:54Z</time>
      </trkpt>
      <trkpt lat="44.75122" lon="-1.10843">
        <ele>10</ele>
        <time>2019-04-27T10:21:48Z</time>
      </trkpt>
      <trkpt lat="44.75175" lon="-1.10907">
        <ele>11</ele>
        <time>2019-04-27T10:22:06Z</time>
      </trkpt>
      <trkpt lat="44.75493" lon="-1.11224">
        <ele>18</ele>
        <time>2019-04-27T10:23:42Z</time>
      </trkpt>
      <trkpt lat="44.75623" lon="-1.11378">
        <ele>11</ele>
        <time>2019-04-27T10:24:18Z</time>
      </trkpt>
      <trkpt lat="44.75689" lon="-1.11475">
        <ele>10</ele>
        <time>2019-04-27T10:24:42Z</time>
      </trkpt>
      <trkpt lat="44.75727" lon="-1.11519">
        <ele>8</ele>
        <time>2019-04-27T10:24:54Z</time>
      </trkpt>
      <trkpt lat="44.76692" lon="-1.12976">
        <ele>8</ele>
        <time>2019-04-27T10:30:24Z</time>
      </trkpt>
      <trkpt lat="44.76757" lon="-1.13051">
        <ele>7</ele>
        <time>2019-04-27T10:30:42Z</time>
      </trkpt>
      <trkpt lat="44.76848" lon="-1.13181">
        <ele>6</ele>
        <time>2019-04-27T10:31:12Z</time>
      </trkpt>
      <trkpt lat="44.76888" lon="-1.13247">
        <ele>6</ele>
        <time>2019-04-27T10:31:24Z</time>
      </trkpt>
      <trkpt lat="44.76918" lon="-1.13335">
        <ele>5</ele>
        <time>2019-04-27T10:31:48Z</time>
      </trkpt>
      <trkpt lat="44.76946" lon="-1.13356">
        <ele>5</ele>
        <time>2019-04-27T10:32:00Z</time>
      </trkpt>
      <trkpt lat="44.7705" lon="-1.1349">
        <ele>4</ele>
        <time>2019-04-27T10:32:42Z</time>
      </trkpt>
      <trkpt lat="44.77142" lon="-1.1358">
        <ele>6</ele>
        <time>2019-04-27T10:33:18Z</time>
      </trkpt>
      <trkpt lat="44.77256" lon="-1.13656">
        <ele>10</ele>
        <time>2019-04-27T10:33:54Z</time>
      </trkpt>
      <trkpt lat="44.77375" lon="-1.13708">
        <ele>11</ele>
        <time>2019-04-27T10:34:24Z</time>
      </trkpt>
      <trkpt lat="44.77497" lon="-1.13734">
        <ele>10</ele>
        <time>2019-04-27T10:34:54Z</time>
      </trkpt>
      <trkpt lat="44.77651" lon="-1.13721">
        <ele>7</ele>
        <time>2019-04-27T10:35:30Z</time>
      </trkpt>
      <trkpt lat="44.77724" lon="-1.13701">
        <ele>11</ele>
        <time>2019-04-27T10:35:54Z</time>
      </trkpt>
      <trkpt lat="44.77796" lon="-1.13692">
        <ele>10</ele>
        <time>2019-04-27T10:36:12Z</time>
      </trkpt>
      <trkpt lat="44.78075" lon="-1.13627">
        <ele>11</ele>
        <time>2019-04-27T10:37:18Z</time>
      </trkpt>
      <trkpt lat="44.78253" lon="-1.13596">
        <ele>10</ele>
        <time>2019-04-27T10:38:00Z</time>
      </trkpt>
      <trkpt lat="44.78401" lon="-1.13557">
        <ele>15</ele>
        <time>2019-04-27T10:38:36Z</time>
      </trkpt>
      <trkpt lat="44.78476" lon="-1.13547">
        <ele>15</ele>
        <time>2019-04-27T10:38:54Z</time>
      </trkpt>
      <trkpt lat="44.7862" lon="-1.13503">
        <ele>11</ele>
        <time>2019-04-27T10:39:30Z</time>
      </trkpt>
      <trkpt lat="44.78726" lon="-1.13495">
        <ele>9</ele>
        <time>2019-04-27T10:39:54Z</time>
      </trkpt>
      <trkpt lat="44.78953" lon="-1.13441">
        <ele>12</ele>
        <time>2019-04-27T10:40:48Z</time>
      </trkpt>
      <trkpt lat="44.79057" lon="-1.13425">
        <ele>12</ele>
        <time>2019-04-27T10:41:12Z</time>
      </trkpt>
      <trkpt lat="44.79197" lon="-1.13386">
        <ele>16</ele>
        <time>2019-04-27T10:41:48Z</time>
      </trkpt>
      <trkpt lat="44.79382" lon="-1.13353">
        <ele>14</ele>
        <time>2019-04-27T10:42:30Z</time>
      </trkpt>
      <trkpt lat="44.79432" lon="-1.13335">
        <ele>14</ele>
        <time>2019-04-27T10:42:42Z</time>
      </trkpt>
      <trkpt lat="44.79505" lon="-1.13329">
        <ele>13</ele>
        <time>2019-04-27T10:43:00Z</time>
      </trkpt>
      <trkpt lat="44.79552" lon="-1.13312">
        <ele>12</ele>
        <time>2019-04-27T10:43:12Z</time>
      </trkpt>
      <trkpt lat="44.80089" lon="-1.13203">
        <ele>11</ele>
        <time>2019-04-27T10:45:24Z</time>
      </trkpt>
      <trkpt lat="44.80129" lon="-1.13184">
        <ele>11</ele>
        <time>2019-04-27T10:45:36Z</time>
      </trkpt>
      <trkpt lat="44.8021" lon="-1.13178">
        <ele>12</ele>
        <time>2019-04-27T10:45:54Z</time>
      </trkpt>
      <trkpt lat="44.80356" lon="-1.13138">
        <ele>16</ele>
        <time>2019-04-27T10:46:30Z</time>
      </trkpt>
      <trkpt lat="44.80621" lon="-1.13093">
        <ele>16</ele>
        <time>2019-04-27T10:47:30Z</time>
      </trkpt>
      <trkpt lat="44.80738" lon="-1.13062">
        <ele>17</ele>
        <time>2019-04-27T10:48:00Z</time>
      </trkpt>
      <trkpt lat="44.80793" lon="-1.13025">
        <ele>17</ele>
        <time>2019-04-27T10:48:18Z</time>
      </trkpt>
      <trkpt lat="44.80855" lon="-1.12995">
        <ele>17</ele>
        <time>2019-04-27T10:48:36Z</time>
      </trkpt>
      <trkpt lat="44.81028" lon="-1.12868">
        <ele>15</ele>
        <time>2019-04-27T10:49:24Z</time>
      </trkpt>
      <trkpt lat="44.81123" lon="-1.12782">
        <ele>18</ele>
        <time>2019-04-27T10:49:54Z</time>
      </trkpt>
      <trkpt lat="44.81403" lon="-1.12575">
        <ele>21</ele>
        <time>2019-04-27T10:51:18Z</time>
      </trkpt>
      <trkpt lat="44.81513" lon="-1.12478">
        <ele>21</ele>
        <time>2019-04-27T10:51:54Z</time>
      </trkpt>
      <trkpt lat="44.81691" lon="-1.12339">
        <ele>16</ele>
        <time>2019-04-27T10:52:48Z</time>
      </trkpt>
      <trkpt lat="44.81726" lon="-1.12301">
        <ele>15</ele>
        <time>2019-04-27T10:53:00Z</time>
      </trkpt>
      <trkpt lat="44.82183" lon="-1.11957">
        <ele>21</ele>
        <time>2019-04-27T10:54:54Z</time>
      </trkpt>
      <trkpt lat="44.82943" lon="-1.11338">
        <ele>17</ele>
        <time>2019-04-27T10:58:12Z</time>
      </trkpt>
      <trkpt lat="44.83176" lon="-1.11164">
        <ele>25</ele>
        <time>2019-04-27T10:59:06Z</time>
      </trkpt>
      <trkpt lat="44.83401" lon="-1.10979">
        <ele>26</ele>
        <time>2019-04-27T11:00:01Z</time>
      </trkpt>
      <trkpt lat="44.83784" lon="-1.10684">
        <ele>26</ele>
        <time>2019-04-27T11:01:54Z</time>
      </trkpt>
      <trkpt lat="44.84934" lon="-1.09762">
        <ele>23</ele>
        <time>2019-04-27T11:06:42Z</time>
      </trkpt>
      <trkpt lat="44.85361" lon="-1.09436">
        <ele>26</ele>
        <time>2019-04-27T11:08:30Z</time>
      </trkpt>
      <trkpt lat="44.86651" lon="-1.08407">
        <ele>30</ele>
        <time>2019-04-27T11:14:20Z</time>
      </trkpt>
      <trkpt lat="44.86753" lon="-1.08334">
        <ele>26</ele>
        <time>2019-04-27T11:14:46Z</time>
      </trkpt>
      <trkpt lat="44.86899" lon="-1.08243">
        <ele>25</ele>
        <time>2019-04-27T11:15:11Z</time>
      </trkpt>
      <trkpt lat="44.87045" lon="-1.08177">
        <ele>27</ele>
        <time>2019-04-27T11:15:47Z</time>
      </trkpt>
      <trkpt lat="44.87241" lon="-1.08137">
        <ele>25</ele>
        <time>2019-04-27T11:16:35Z</time>
      </trkpt>
      <trkpt lat="44.87558" lon="-1.08119">
        <ele>24</ele>
        <time>2019-04-27T11:18:05Z</time>
      </trkpt>
      <trkpt lat="44.8759" lon="-1.08097">
        <ele>24</ele>
        <time>2019-04-27T11:18:17Z</time>
      </trkpt>
      <trkpt lat="44.87636" lon="-1.08088">
        <ele>25</ele>
        <time>2019-04-27T11:18:29Z</time>
      </trkpt>
      <trkpt lat="44.87698" lon="-1.08111">
        <ele>25</ele>
        <time>2019-04-27T11:18:47Z</time>
      </trkpt>
      <trkpt lat="44.87743" lon="-1.08112">
        <ele>26</ele>
        <time>2019-04-27T11:18:59Z</time>
      </trkpt>
      <trkpt lat="44.87944" lon="-1.08095">
        <ele>26</ele>
        <time>2019-04-27T11:20:13Z</time>
      </trkpt>
      <trkpt lat="44.88452" lon="-1.08073">
        <ele>26</ele>
        <time>2019-04-27T11:22:13Z</time>
      </trkpt>
      <trkpt lat="44.88551" lon="-1.08059">
        <ele>30</ele>
        <time>2019-04-27T11:22:37Z</time>
      </trkpt>
      <trkpt lat="44.89239" lon="-1.08039">
        <ele>31</ele>
        <time>2019-04-27T11:25:27Z</time>
      </trkpt>
      <trkpt lat="44.90986" lon="-1.07952">
        <ele>23</ele>
        <time>2019-04-27T11:32:50Z</time>
      </trkpt>
      <trkpt lat="44.91167" lon="-1.07931">
        <ele>21</ele>
        <time>2019-04-27T11:33:21Z</time>
      </trkpt>
      <trkpt lat="44.91226" lon="-1.07917">
        <ele>21</ele>
        <time>2019-04-27T11:33:33Z</time>
      </trkpt>
      <trkpt lat="44.913" lon="-1.07929">
        <ele>20</ele>
        <time>2019-04-27T11:33:50Z</time>
      </trkpt>
      <trkpt lat="44.91384" lon="-1.07933">
        <ele>22</ele>
        <time>2019-04-27T11:34:08Z</time>
      </trkpt>
      <trkpt lat="44.91484" lon="-1.07911">
        <ele>22</ele>
        <time>2019-04-27T11:34:33Z</time>
      </trkpt>
      <trkpt lat="44.91667" lon="-1.07885">
        <ele>21</ele>
        <time>2019-04-27T11:35:15Z</time>
      </trkpt>
      <trkpt lat="44.91749" lon="-1.07893">
        <ele>20</ele>
        <time>2019-04-27T11:35:32Z</time>
      </trkpt>
      <trkpt lat="44.91868" lon="-1.07883">
        <ele>20</ele>
        <time>2019-04-27T11:36:02Z</time>
      </trkpt>
      <trkpt lat="44.91883" lon="-1.07894">
        <ele>20</ele>
        <time>2019-04-27T11:36:18Z</time>
      </trkpt>
      <trkpt lat="44.91941" lon="-1.07882">
        <ele>20</ele>
        <time>2019-04-27T11:36:42Z</time>
      </trkpt>
      <trkpt lat="44.91986" lon="-1.0789">
        <ele>20</ele>
        <time>2019-04-27T11:36:54Z</time>
      </trkpt>
      <trkpt lat="44.92008" lon="-1.07884">
        <ele>20</ele>
        <time>2019-04-27T11:37:00Z</time>
      </trkpt>
      <trkpt lat="44.92053" lon="-1.07885">
        <ele>21</ele>
        <time>2019-04-27T11:37:12Z</time>
      </trkpt>
      <trkpt lat="44.92137" lon="-1.07894">
        <ele>21</ele>
        <time>2019-04-27T11:37:36Z</time>
      </trkpt>
      <trkpt lat="44.92174" lon="-1.07891">
        <ele>21</ele>
        <time>2019-04-27T11:37:57Z</time>
      </trkpt>
      <trkpt lat="44.92259" lon="-1.07882">
        <ele>20</ele>
        <time>2019-04-27T11:38:19Z</time>
      </trkpt>
      <trkpt lat="44.92489" lon="-1.07881">
        <ele>21</ele>
        <time>2019-04-27T11:39:41Z</time>
      </trkpt>
      <trkpt lat="44.92954" lon="-1.0786">
        <ele>20</ele>
        <time>2019-04-27T11:41:47Z</time>
      </trkpt>
      <trkpt lat="44.93019" lon="-1.07844">
        <ele>20</ele>
        <time>2019-04-27T11:42:05Z</time>
      </trkpt>
      <trkpt lat="44.93109" lon="-1.07848">
        <ele>22</ele>
        <time>2019-04-27T11:42:29Z</time>
      </trkpt>
      <trkpt lat="44.93279" lon="-1.07824">
        <ele>24</ele>
        <time>2019-04-27T11:43:30Z</time>
      </trkpt>
      <trkpt lat="44.93687" lon="-1.07823">
        <ele>27</ele>
        <time>2019-04-27T11:44:58Z</time>
      </trkpt>
      <trkpt lat="44.94078" lon="-1.07806">
        <ele>22</ele>
        <time>2019-04-27T11:46:34Z</time>
      </trkpt>
      <trkpt lat="44.94288" lon="-1.07788">
        <ele>20</ele>
        <time>2019-04-27T11:47:31Z</time>
      </trkpt>
      <trkpt lat="44.94426" lon="-1.07789">
        <ele>22</ele>
        <time>2019-04-27T11:48:08Z</time>
      </trkpt>
      <trkpt lat="44.94817" lon="-1.07813">
        <ele>21</ele>
        <time>2019-04-27T11:49:16Z</time>
      </trkpt>
      <trkpt lat="44.95717" lon="-1.07898">
        <ele>17</ele>
        <time>2019-04-27T11:52:23Z</time>
      </trkpt>
      <trkpt lat="44.9586" lon="-1.07905">
        <ele>17</ele>
        <time>2019-04-27T11:52:53Z</time>
      </trkpt>
      <trkpt lat="44.96129" lon="-1.07939">
        <ele>17</ele>
        <time>2019-04-27T11:53:53Z</time>
      </trkpt>
      <trkpt lat="44.96336" lon="-1.07952">
        <ele>17</ele>
        <time>2019-04-27T11:54:41Z</time>
      </trkpt>
      <trkpt lat="44.96854" lon="-1.08005">
        <ele>17</ele>
        <time>2019-04-27T11:56:35Z</time>
      </trkpt>
      <trkpt lat="44.97173" lon="-1.08032">
        <ele>17</ele>
        <time>2019-04-27T11:57:41Z</time>
      </trkpt>
      <trkpt lat="44.97362" lon="-1.0804">
        <ele>20</ele>
        <time>2019-04-27T11:58:29Z</time>
      </trkpt>
      <trkpt lat="44.97443" lon="-1.08049">
        <ele>20</ele>
        <time>2019-04-27T11:58:47Z</time>
      </trkpt>
      <trkpt lat="44.97469" lon="-1.08057">
        <ele>20</ele>
        <time>2019-04-27T11:58:53Z</time>
      </trkpt>
      <trkpt lat="44.97513" lon="-1.08088">
        <ele>20</ele>
        <time>2019-04-27T11:59:05Z</time>
      </trkpt>
      <trkpt lat="44.97617" lon="-1.08107">
        <ele>19</ele>
        <time>2019-04-27T11:59:29Z</time>
      </trkpt>
      <trkpt lat="44.97634" lon="-1.08097">
        <ele>19</ele>
        <time>2019-04-27T11:59:35Z</time>
      </trkpt>
      <trkpt lat="44.97647" lon="-1.08049">
        <ele>16</ele>
        <time>2019-04-27T11:59:47Z</time>
      </trkpt>
      <trkpt lat="44.97686" lon="-1.08043">
        <ele>16</ele>
        <time>2019-04-27T11:59:59Z</time>
      </trkpt>
      <trkpt lat="44.97707" lon="-1.08047">
        <ele>15</ele>
        <time>2019-04-27T12:00:05Z</time>
      </trkpt>
      <trkpt lat="44.97736" lon="-1.08086">
        <ele>15</ele>
        <time>2019-04-27T12:00:17Z</time>
      </trkpt>
      <trkpt lat="44.97813" lon="-1.08091">
        <ele>15</ele>
        <time>2019-04-27T12:00:56Z</time>
      </trkpt>
      <trkpt lat="44.97811" lon="-1.08099">
        <ele>15</ele>
        <time>2019-04-27T12:00:58Z</time>
      </trkpt>
      <trkpt lat="44.97817" lon="-1.08048">
        <ele>16</ele>
        <time>2019-04-27T12:01:11Z</time>
      </trkpt>
      <trkpt lat="44.97811" lon="-1.07927">
        <ele>18</ele>
        <time>2019-04-27T12:01:47Z</time>
      </trkpt>
      <trkpt lat="44.97902" lon="-1.07945">
        <ele>17</ele>
        <time>2019-04-27T12:02:23Z</time>
      </trkpt>
      <trkpt lat="44.97923" lon="-1.07952">
        <ele>17</ele>
        <time>2019-04-27T12:02:29Z</time>
      </trkpt>
      <trkpt lat="44.97932" lon="-1.07965">
        <ele>17</ele>
        <time>2019-04-27T12:02:46Z</time>
      </trkpt>
      <trkpt lat="44.98006" lon="-1.0797">
        <ele>18</ele>
        <time>2019-04-27T12:03:03Z</time>
      </trkpt>
      <trkpt lat="44.9811" lon="-1.08004">
        <ele>17</ele>
        <time>2019-04-27T12:03:33Z</time>
      </trkpt>
      <trkpt lat="44.98116" lon="-1.08">
        <ele>17</ele>
        <time>2019-04-27T12:03:39Z</time>
      </trkpt>
      <trkpt lat="44.98121" lon="-1.07958">
        <ele>17</ele>
        <time>2019-04-27T12:04:09Z</time>
      </trkpt>
      <trkpt lat="44.98122" lon="-1.07986">
        <ele>17</ele>
        <time>2019-04-27T12:04:21Z</time>
      </trkpt>
      <trkpt lat="44.98104" lon="-1.08004">
        <ele>17</ele>
        <time>2019-04-27T12:04:33Z</time>
      </trkpt>
      <trkpt lat="44.97909" lon="-1.07961">
        <ele>17</ele>
        <time>2019-04-27T12:05:39Z</time>
      </trkpt>
      <trkpt lat="44.97821" lon="-1.07934">
        <ele>17</ele>
        <time>2019-04-27T12:06:03Z</time>
      </trkpt>
      <trkpt lat="44.97816" lon="-1.07911">
        <ele>18</ele>
        <time>2019-04-27T12:06:09Z</time>
      </trkpt>
      <trkpt lat="44.97815" lon="-1.0771">
        <ele>18</ele>
        <time>2019-04-27T12:06:45Z</time>
      </trkpt>
      <trkpt lat="44.97767" lon="-1.07496">
        <ele>19</ele>
        <time>2019-04-27T12:07:33Z</time>
      </trkpt>
      <trkpt lat="44.97705" lon="-1.07341">
        <ele>18</ele>
        <time>2019-04-27T12:08:09Z</time>
      </trkpt>
      <trkpt lat="44.97672" lon="-1.07224">
        <ele>18</ele>
        <time>2019-04-27T12:08:33Z</time>
      </trkpt>
      <trkpt lat="44.97655" lon="-1.07126">
        <ele>18</ele>
        <time>2019-04-27T12:08:51Z</time>
      </trkpt>
      <trkpt lat="44.97654" lon="-1.06771">
        <ele>18</ele>
        <time>2019-04-27T12:09:51Z</time>
      </trkpt>
      <trkpt lat="44.97665" lon="-1.06739">
        <ele>18</ele>
        <time>2019-04-27T12:09:57Z</time>
      </trkpt>
      <trkpt lat="44.97725" lon="-1.06683">
        <ele>18</ele>
        <time>2019-04-27T12:10:15Z</time>
      </trkpt>
      <trkpt lat="44.97726" lon="-1.06661">
        <ele>18</ele>
        <time>2019-04-27T12:10:27Z</time>
      </trkpt>
      <trkpt lat="44.97714" lon="-1.06601">
        <ele>18</ele>
        <time>2019-04-27T12:10:51Z</time>
      </trkpt>
      <trkpt lat="44.97708" lon="-1.0658">
        <ele>18</ele>
        <time>2019-04-27T12:11:07Z</time>
      </trkpt>
      <trkpt lat="44.97715" lon="-1.0658">
        <ele>18</ele>
        <time>2019-04-27T12:11:15Z</time>
      </trkpt>
      <trkpt lat="44.97737" lon="-1.06654">
        <ele>18</ele>
        <time>2019-04-27T12:11:25Z</time>
      </trkpt>
      <trkpt lat="44.97704" lon="-1.06707">
        <ele>19</ele>
        <time>2019-04-27T12:11:47Z</time>
      </trkpt>
      <trkpt lat="44.97675" lon="-1.0678">
        <ele>18</ele>
        <time>2019-04-27T12:12:11Z</time>
      </trkpt>
      <trkpt lat="44.97666" lon="-1.06893">
        <ele>17</ele>
        <time>2019-04-27T12:12:34Z</time>
      </trkpt>
      <trkpt lat="44.97664" lon="-1.07023">
        <ele>17</ele>
        <time>2019-04-27T12:12:58Z</time>
      </trkpt>
      <trkpt lat="44.97681" lon="-1.07208">
        <ele>18</ele>
        <time>2019-04-27T12:13:16Z</time>
      </trkpt>
      <trkpt lat="44.97705" lon="-1.073">
        <ele>18</ele>
        <time>2019-04-27T12:13:34Z</time>
      </trkpt>
      <trkpt lat="44.97768" lon="-1.07471">
        <ele>19</ele>
        <time>2019-04-27T12:14:10Z</time>
      </trkpt>
      <trkpt lat="44.97791" lon="-1.0756">
        <ele>19</ele>
        <time>2019-04-27T12:14:28Z</time>
      </trkpt>
      <trkpt lat="44.97824" lon="-1.07757">
        <ele>18</ele>
        <time>2019-04-27T12:15:04Z</time>
      </trkpt>
      <trkpt lat="44.97827" lon="-1.0792">
        <ele>17</ele>
        <time>2019-04-27T12:15:34Z</time>
      </trkpt>
      <trkpt lat="44.97819" lon="-1.08254">
        <ele>17</ele>
        <time>2019-04-27T12:16:34Z</time>
      </trkpt>
      <trkpt lat="44.97824" lon="-1.08499">
        <ele>17</ele>
        <time>2019-04-27T12:17:16Z</time>
      </trkpt>
      <trkpt lat="44.97817" lon="-1.089">
        <ele>19</ele>
        <time>2019-04-27T12:18:28Z</time>
      </trkpt>
      <trkpt lat="44.97822" lon="-1.09019">
        <ele>19</ele>
        <time>2019-04-27T12:18:53Z</time>
      </trkpt>
      <trkpt lat="44.9781" lon="-1.09138">
        <ele>16</ele>
        <time>2019-04-27T12:19:10Z</time>
      </trkpt>
      <trkpt lat="44.97813" lon="-1.09197">
        <ele>15</ele>
        <time>2019-04-27T12:19:35Z</time>
      </trkpt>
      <trkpt lat="44.97816" lon="-1.09208">
        <ele>15</ele>
        <time>2019-04-27T12:19:40Z</time>
      </trkpt>
      <trkpt lat="44.97892" lon="-1.0922">
        <ele>17</ele>
        <time>2019-04-27T12:20:04Z</time>
      </trkpt>
      <trkpt lat="44.97981" lon="-1.09312">
        <ele>18</ele>
        <time>2019-04-27T12:20:34Z</time>
      </trkpt>
      <trkpt lat="44.97994" lon="-1.09338">
        <ele>18</ele>
        <time>2019-04-27T12:20:40Z</time>
      </trkpt>
      <trkpt lat="44.98021" lon="-1.09465">
        <ele>17</ele>
        <time>2019-04-27T12:21:04Z</time>
      </trkpt>
      <trkpt lat="44.98084" lon="-1.09607">
        <ele>18</ele>
        <time>2019-04-27T12:21:34Z</time>
      </trkpt>
      <trkpt lat="44.98147" lon="-1.09684">
        <ele>18</ele>
        <time>2019-04-27T12:21:58Z</time>
      </trkpt>
      <trkpt lat="44.98269" lon="-1.09763">
        <ele>18</ele>
        <time>2019-04-27T12:22:46Z</time>
      </trkpt>
      <trkpt lat="44.98276" lon="-1.09785">
        <ele>18</ele>
        <time>2019-04-27T12:23:12Z</time>
      </trkpt>
      <trkpt lat="44.98281" lon="-1.09783">
        <ele>17</ele>
        <time>2019-04-27T12:23:22Z</time>
      </trkpt>
      <trkpt lat="44.98295" lon="-1.09795">
        <ele>17</ele>
        <time>2019-04-27T12:23:30Z</time>
      </trkpt>
      <trkpt lat="44.98309" lon="-1.09799">
        <ele>17</ele>
        <time>2019-04-27T12:23:36Z</time>
      </trkpt>
      <trkpt lat="44.98381" lon="-1.09862">
        <ele>16</ele>
        <time>2019-04-27T12:24:00Z</time>
      </trkpt>
      <trkpt lat="44.98508" lon="-1.10022">
        <ele>17</ele>
        <time>2019-04-27T12:24:36Z</time>
      </trkpt>
      <trkpt lat="44.98609" lon="-1.1009">
        <ele>16</ele>
        <time>2019-04-27T12:25:00Z</time>
      </trkpt>
      <trkpt lat="44.98715" lon="-1.10142">
        <ele>17</ele>
        <time>2019-04-27T12:25:24Z</time>
      </trkpt>
      <trkpt lat="44.98747" lon="-1.10119">
        <ele>19</ele>
        <time>2019-04-27T12:25:36Z</time>
      </trkpt>
      <trkpt lat="44.98858" lon="-1.09631">
        <ele>20</ele>
        <time>2019-04-27T12:26:48Z</time>
      </trkpt>
      <trkpt lat="44.989" lon="-1.09605">
        <ele>20</ele>
        <time>2019-04-27T12:27:00Z</time>
      </trkpt>
      <trkpt lat="44.98923" lon="-1.0962">
        <ele>21</ele>
        <time>2019-04-27T12:27:06Z</time>
      </trkpt>
      <trkpt lat="44.99012" lon="-1.09789">
        <ele>22</ele>
        <time>2019-04-27T12:27:36Z</time>
      </trkpt>
      <trkpt lat="44.9913" lon="-1.09996">
        <ele>13</ele>
        <time>2019-04-27T12:28:18Z</time>
      </trkpt>
      <trkpt lat="44.99129" lon="-1.10097">
        <ele>21</ele>
        <time>2019-04-27T12:28:42Z</time>
      </trkpt>
      <trkpt lat="44.99226" lon="-1.10122">
        <ele>19</ele>
        <time>2019-04-27T12:29:06Z</time>
      </trkpt>
      <trkpt lat="44.9928" lon="-1.10091">
        <ele>18</ele>
        <time>2019-04-27T12:29:18Z</time>
      </trkpt>
      <trkpt lat="44.99332" lon="-1.10079">
        <ele>18</ele>
        <time>2019-04-27T12:29:30Z</time>
      </trkpt>
      <trkpt lat="44.99361" lon="-1.10144">
        <ele>19</ele>
        <time>2019-04-27T12:29:42Z</time>
      </trkpt>
      <trkpt lat="44.99394" lon="-1.10194">
        <ele>19</ele>
        <time>2019-04-27T12:29:54Z</time>
      </trkpt>
      <trkpt lat="44.99469" lon="-1.10243">
        <ele>17</ele>
        <time>2019-04-27T12:30:12Z</time>
      </trkpt>
      <trkpt lat="44.99587" lon="-1.10277">
        <ele>18</ele>
        <time>2019-04-27T12:30:36Z</time>
      </trkpt>
      <trkpt lat="44.99672" lon="-1.10261">
        <ele>20</ele>
        <time>2019-04-27T12:30:54Z</time>
      </trkpt>
      <trkpt lat="44.9972" lon="-1.10228">
        <ele>20</ele>
        <time>2019-04-27T12:31:06Z</time>
      </trkpt>
      <trkpt lat="44.99744" lon="-1.10206">
        <ele>20</ele>
        <time>2019-04-27T12:31:12Z</time>
      </trkpt>
      <trkpt lat="44.9982" lon="-1.1009">
        <ele>18</ele>
        <time>2019-04-27T12:31:36Z</time>
      </trkpt>
      <trkpt lat="44.99859" lon="-1.10111">
        <ele>17</ele>
        <time>2019-04-27T12:31:48Z</time>
      </trkpt>
      <trkpt lat="44.99954" lon="-1.10211">
        <ele>16</ele>
        <time>2019-04-27T12:32:12Z</time>
      </trkpt>
      <trkpt lat="45.00003" lon="-1.10252">
        <ele>16</ele>
        <time>2019-04-27T12:32:24Z</time>
      </trkpt>
      <trkpt lat="45.00092" lon="-1.10131">
        <ele>16</ele>
        <time>2019-04-27T12:32:54Z</time>
      </trkpt>
      <trkpt lat="45.00141" lon="-1.1013">
        <ele>16</ele>
        <time>2019-04-27T12:33:06Z</time>
      </trkpt>
      <trkpt lat="45.00194" lon="-1.10142">
        <ele>16</ele>
        <time>2019-04-27T12:33:29Z</time>
      </trkpt>
      <trkpt lat="45.00237" lon="-1.10143">
        <ele>16</ele>
        <time>2019-04-27T12:33:47Z</time>
      </trkpt>
      <trkpt lat="45.00275" lon="-1.10166">
        <ele>17</ele>
        <time>2019-04-27T12:33:59Z</time>
      </trkpt>
      <trkpt lat="45.0037" lon="-1.10258">
        <ele>18</ele>
        <time>2019-04-27T12:34:29Z</time>
      </trkpt>
      <trkpt lat="45.00555" lon="-1.10414">
        <ele>18</ele>
        <time>2019-04-27T12:35:17Z</time>
      </trkpt>
      <trkpt lat="45.00659" lon="-1.10414">
        <ele>18</ele>
        <time>2019-04-27T12:35:41Z</time>
      </trkpt>
      <trkpt lat="45.00697" lon="-1.10528">
        <ele>18</ele>
        <time>2019-04-27T12:35:59Z</time>
      </trkpt>
      <trkpt lat="45.00739" lon="-1.1075">
        <ele>16</ele>
        <time>2019-04-27T12:36:35Z</time>
      </trkpt>
      <trkpt lat="45.00751" lon="-1.11048">
        <ele>17</ele>
        <time>2019-04-27T12:37:23Z</time>
      </trkpt>
      <trkpt lat="45.00751" lon="-1.11204">
        <ele>18</ele>
        <time>2019-04-27T12:37:53Z</time>
      </trkpt>
      <trkpt lat="45.00753" lon="-1.11216">
        <ele>18</ele>
        <time>2019-04-27T12:37:59Z</time>
      </trkpt>
      <trkpt lat="45.00773" lon="-1.11209">
        <ele>17</ele>
        <time>2019-04-27T12:38:11Z</time>
      </trkpt>
      <trkpt lat="45.00796" lon="-1.11215">
        <ele>17</ele>
        <time>2019-04-27T12:38:23Z</time>
      </trkpt>
      <trkpt lat="45.00809" lon="-1.11187">
        <ele>16</ele>
        <time>2019-04-27T12:38:41Z</time>
      </trkpt>
      <trkpt lat="45.00816" lon="-1.11184">
        <ele>16</ele>
        <time>2019-04-27T12:38:52Z</time>
      </trkpt>
      <trkpt lat="45.00812" lon="-1.11178">
        <ele>16</ele>
        <time>2019-04-27T12:38:54Z</time>
      </trkpt>
      <trkpt lat="45.00808" lon="-1.11226">
        <ele>17</ele>
        <time>2019-04-27T12:39:07Z</time>
      </trkpt>
      <trkpt lat="45.00796" lon="-1.11255">
        <ele>18</ele>
        <time>2019-04-27T12:39:19Z</time>
      </trkpt>
      <trkpt lat="45.00765" lon="-1.1126">
        <ele>18</ele>
        <time>2019-04-27T12:39:31Z</time>
      </trkpt>
      <trkpt lat="45.00753" lon="-1.11229">
        <ele>18</ele>
        <time>2019-04-27T12:39:43Z</time>
      </trkpt>
      <trkpt lat="45.00755" lon="-1.11466">
        <ele>20</ele>
        <time>2019-04-27T12:40:31Z</time>
      </trkpt>
      <trkpt lat="45.00764" lon="-1.11645">
        <ele>21</ele>
        <time>2019-04-27T12:41:07Z</time>
      </trkpt>
      <trkpt lat="45.00748" lon="-1.11774">
        <ele>21</ele>
        <time>2019-04-27T12:41:37Z</time>
      </trkpt>
      <trkpt lat="45.00761" lon="-1.11807">
        <ele>22</ele>
        <time>2019-04-27T12:41:55Z</time>
      </trkpt>
      <trkpt lat="45.00804" lon="-1.11813">
        <ele>25</ele>
        <time>2019-04-27T12:42:25Z</time>
      </trkpt>
      <trkpt lat="45.00828" lon="-1.11959">
        <ele>22</ele>
        <time>2019-04-27T12:42:49Z</time>
      </trkpt>
      <trkpt lat="45.00822" lon="-1.12113">
        <ele>20</ele>
        <time>2019-04-27T12:43:07Z</time>
      </trkpt>
      <trkpt lat="45.00806" lon="-1.12243">
        <ele>23</ele>
        <time>2019-04-27T12:43:25Z</time>
      </trkpt>
      <trkpt lat="45.00752" lon="-1.12586">
        <ele>29</ele>
        <time>2019-04-27T12:44:19Z</time>
      </trkpt>
      <trkpt lat="45.00742" lon="-1.12833">
        <ele>27</ele>
        <time>2019-04-27T12:45:01Z</time>
      </trkpt>
      <trkpt lat="45.00743" lon="-1.12911">
        <ele>26</ele>
        <time>2019-04-27T12:45:13Z</time>
      </trkpt>
      <trkpt lat="45.00792" lon="-1.13514">
        <ele>26</ele>
        <time>2019-04-27T12:46:43Z</time>
      </trkpt>
      <trkpt lat="45.00793" lon="-1.13777">
        <ele>26</ele>
        <time>2019-04-27T12:47:25Z</time>
      </trkpt>
      <trkpt lat="45.00782" lon="-1.13894">
        <ele>28</ele>
        <time>2019-04-27T12:47:43Z</time>
      </trkpt>
      <trkpt lat="45.00732" lon="-1.14233">
        <ele>33</ele>
        <time>2019-04-27T12:49:01Z</time>
      </trkpt>
      <trkpt lat="45.00723" lon="-1.14268">
        <ele>33</ele>
        <time>2019-04-27T12:49:13Z</time>
      </trkpt>
      <trkpt lat="45.00682" lon="-1.14541">
        <ele>42</ele>
        <time>2019-04-27T12:50:25Z</time>
      </trkpt>
      <trkpt lat="45.00655" lon="-1.1465">
        <ele>40</ele>
        <time>2019-04-27T12:50:49Z</time>
      </trkpt>
      <trkpt lat="45.00611" lon="-1.14763">
        <ele>38</ele>
        <time>2019-04-27T12:51:07Z</time>
      </trkpt>
      <trkpt lat="45.0041" lon="-1.15047">
        <ele>36</ele>
        <time>2019-04-27T12:52:01Z</time>
      </trkpt>
      <trkpt lat="45.00366" lon="-1.15173">
        <ele>30</ele>
        <time>2019-04-27T12:52:25Z</time>
      </trkpt>
      <trkpt lat="45.00354" lon="-1.1528">
        <ele>25</ele>
        <time>2019-04-27T12:52:43Z</time>
      </trkpt>
      <trkpt lat="45.00367" lon="-1.15512">
        <ele>35</ele>
        <time>2019-04-27T12:53:13Z</time>
      </trkpt>
      <trkpt lat="45.00378" lon="-1.15607">
        <ele>34</ele>
        <time>2019-04-27T12:53:25Z</time>
      </trkpt>
      <trkpt lat="45.00421" lon="-1.15682">
        <ele>35</ele>
        <time>2019-04-27T12:53:37Z</time>
      </trkpt>
      <trkpt lat="45.00587" lon="-1.15889">
        <ele>28</ele>
        <time>2019-04-27T12:54:19Z</time>
      </trkpt>
      <trkpt lat="45.00618" lon="-1.15937">
        <ele>29</ele>
        <time>2019-04-27T12:54:31Z</time>
      </trkpt>
      <trkpt lat="45.0064" lon="-1.15996">
        <ele>32</ele>
        <time>2019-04-27T12:54:43Z</time>
      </trkpt>
      <trkpt lat="45.00652" lon="-1.16067">
        <ele>33</ele>
        <time>2019-04-27T12:54:55Z</time>
      </trkpt>
      <trkpt lat="45.00644" lon="-1.16133">
        <ele>33</ele>
        <time>2019-04-27T12:55:07Z</time>
      </trkpt>
      <trkpt lat="45.00576" lon="-1.16346">
        <ele>33</ele>
        <time>2019-04-27T12:55:37Z</time>
      </trkpt>
      <trkpt lat="45.00557" lon="-1.16552">
        <ele>20</ele>
        <time>2019-04-27T12:56:07Z</time>
      </trkpt>
      <trkpt lat="45.00543" lon="-1.16788">
        <ele>20</ele>
        <time>2019-04-27T12:56:43Z</time>
      </trkpt>
      <trkpt lat="45.00557" lon="-1.16957">
        <ele>20</ele>
        <time>2019-04-27T12:57:13Z</time>
      </trkpt>
      <trkpt lat="45.00587" lon="-1.1714">
        <ele>21</ele>
        <time>2019-04-27T12:57:43Z</time>
      </trkpt>
      <trkpt lat="45.00607" lon="-1.1732">
        <ele>25</ele>
        <time>2019-04-27T12:58:07Z</time>
      </trkpt>
      <trkpt lat="45.00607" lon="-1.17479">
        <ele>28</ele>
        <time>2019-04-27T12:58:25Z</time>
      </trkpt>
      <trkpt lat="45.00628" lon="-1.17598">
        <ele>21</ele>
        <time>2019-04-27T12:58:43Z</time>
      </trkpt>
      <trkpt lat="45.00619" lon="-1.17643">
        <ele>22</ele>
        <time>2019-04-27T12:58:55Z</time>
      </trkpt>
      <trkpt lat="45.00628" lon="-1.17657">
        <ele>23</ele>
        <time>2019-04-27T12:59:07Z</time>
      </trkpt>
      <trkpt lat="45.00633" lon="-1.17684">
        <ele>23</ele>
        <time>2019-04-27T12:59:19Z</time>
      </trkpt>
      <trkpt lat="45.00669" lon="-1.17712">
        <ele>23</ele>
        <time>2019-04-27T12:59:43Z</time>
      </trkpt>
      <trkpt lat="45.0068" lon="-1.17751">
        <ele>23</ele>
        <time>2019-04-27T12:59:55Z</time>
      </trkpt>
      <trkpt lat="45.00619" lon="-1.17927">
        <ele>25</ele>
        <time>2019-04-27T13:00:33Z</time>
      </trkpt>
      <trkpt lat="45.00451" lon="-1.1814">
        <ele>22</ele>
        <time>2019-04-27T13:01:21Z</time>
      </trkpt>
      <trkpt lat="45.00475" lon="-1.18195">
        <ele>24</ele>
        <time>2019-04-27T13:01:33Z</time>
      </trkpt>
      <trkpt lat="45.00454" lon="-1.18254">
        <ele>25</ele>
        <time>2019-04-27T13:01:45Z</time>
      </trkpt>
      <trkpt lat="45.00394" lon="-1.18263">
        <ele>23</ele>
        <time>2019-04-27T13:02:03Z</time>
      </trkpt>
      <trkpt lat="45.00378" lon="-1.18278">
        <ele>24</ele>
        <time>2019-04-27T13:02:13Z</time>
      </trkpt>
      <trkpt lat="45.00355" lon="-1.18261">
        <ele>21</ele>
        <time>2019-04-27T13:02:36Z</time>
      </trkpt>
      <trkpt lat="45.00338" lon="-1.18259">
        <ele>21</ele>
        <time>2019-04-27T13:02:45Z</time>
      </trkpt>
      <trkpt lat="45.00335" lon="-1.18244">
        <ele>21</ele>
        <time>2019-04-27T13:02:51Z</time>
      </trkpt>
      <trkpt lat="45.0034" lon="-1.18241">
        <ele>21</ele>
        <time>2019-04-27T13:03:04Z</time>
      </trkpt>
      <trkpt lat="45.00335" lon="-1.1823">
        <ele>20</ele>
        <time>2019-04-27T13:03:05Z</time>
      </trkpt>
      <trkpt lat="45.00335" lon="-1.18264">
        <ele>21</ele>
        <time>2019-04-27T13:03:17Z</time>
      </trkpt>
      <trkpt lat="45.00281" lon="-1.18425">
        <ele>23</ele>
        <time>2019-04-27T13:03:41Z</time>
      </trkpt>
      <trkpt lat="45.00267" lon="-1.18526">
        <ele>19</ele>
        <time>2019-04-27T13:03:53Z</time>
      </trkpt>
      <trkpt lat="45.00279" lon="-1.18776">
        <ele>16</ele>
        <time>2019-04-27T13:04:23Z</time>
      </trkpt>
      <trkpt lat="45.00273" lon="-1.18915">
        <ele>20</ele>
        <time>2019-04-27T13:04:41Z</time>
      </trkpt>
      <trkpt lat="45.00194" lon="-1.19306">
        <ele>12</ele>
        <time>2019-04-27T13:05:35Z</time>
      </trkpt>
      <trkpt lat="45.00117" lon="-1.19579">
        <ele>11</ele>
        <time>2019-04-27T13:06:41Z</time>
      </trkpt>
      <trkpt lat="45.00118" lon="-1.19662">
        <ele>11</ele>
        <time>2019-04-27T13:06:59Z</time>
      </trkpt>
      <trkpt lat="45.0013" lon="-1.19744">
        <ele>13</ele>
        <time>2019-04-27T13:07:17Z</time>
      </trkpt>
      <trkpt lat="45.00131" lon="-1.19812">
        <ele>13</ele>
        <time>2019-04-27T13:07:35Z</time>
      </trkpt>
      <trkpt lat="45.0012" lon="-1.19821">
        <ele>12</ele>
        <time>2019-04-27T13:07:41Z</time>
      </trkpt>
      <trkpt lat="45.0011" lon="-1.19843">
        <ele>12</ele>
        <time>2019-04-27T13:07:53Z</time>
      </trkpt>
      <trkpt lat="45.00124" lon="-1.19863">
        <ele>13</ele>
        <time>2019-04-27T13:08:05Z</time>
      </trkpt>
      <trkpt lat="45.00146" lon="-1.1986">
        <ele>13</ele>
        <time>2019-04-27T13:08:17Z</time>
      </trkpt>
      <trkpt lat="45.0017" lon="-1.19869">
        <ele>13</ele>
        <time>2019-04-27T13:08:29Z</time>
      </trkpt>
      <trkpt lat="45.00238" lon="-1.19945">
        <ele>11</ele>
        <time>2019-04-27T13:08:53Z</time>
      </trkpt>
      <trkpt lat="45.00264" lon="-1.19959">
        <ele>10</ele>
        <time>2019-04-27T13:09:05Z</time>
      </trkpt>
      <trkpt lat="45.00319" lon="-1.20039">
        <ele>12</ele>
        <time>2019-04-27T13:09:41Z</time>
      </trkpt>
      <trkpt lat="45.00363" lon="-1.20084">
        <ele>12</ele>
        <time>2019-04-27T13:09:59Z</time>
      </trkpt>
      <trkpt lat="45.00425" lon="-1.19989">
        <ele>10</ele>
        <time>2019-04-27T13:10:23Z</time>
      </trkpt>
      <trkpt lat="45.00444" lon="-1.19934">
        <ele>10</ele>
        <time>2019-04-27T13:10:35Z</time>
      </trkpt>
      <trkpt lat="45.0046" lon="-1.19923">
        <ele>10</ele>
        <time>2019-04-27T13:10:47Z</time>
      </trkpt>
      <trkpt lat="45.00515" lon="-1.19834">
        <ele>9</ele>
        <time>2019-04-27T13:11:15Z</time>
      </trkpt>
      <trkpt lat="45.00537" lon="-1.19835">
        <ele>9</ele>
        <time>2019-04-27T13:11:21Z</time>
      </trkpt>
      <trkpt lat="45.00567" lon="-1.19856">
        <ele>10</ele>
        <time>2019-04-27T13:11:33Z</time>
      </trkpt>
      <trkpt lat="45.00547" lon="-1.19594">
        <ele>15</ele>
        <time>2019-04-27T13:12:41Z</time>
      </trkpt>
      <trkpt lat="45.00551" lon="-1.19559">
        <ele>16</ele>
        <time>2019-04-27T13:13:00Z</time>
      </trkpt>
      <trkpt lat="45.00598" lon="-1.19556">
        <ele>13</ele>
        <time>2019-04-27T13:13:07Z</time>
      </trkpt>
      <trkpt lat="45.0067" lon="-1.19589">
        <ele>10</ele>
        <time>2019-04-27T13:13:19Z</time>
      </trkpt>
      <trkpt lat="45.00719" lon="-1.19597">
        <ele>12</ele>
        <time>2019-04-27T13:13:31Z</time>
      </trkpt>
      <trkpt lat="45.00757" lon="-1.19589">
        <ele>15</ele>
        <time>2019-04-27T13:13:43Z</time>
      </trkpt>
      <trkpt lat="45.00788" lon="-1.19566">
        <ele>16</ele>
        <time>2019-04-27T13:13:55Z</time>
      </trkpt>
      <trkpt lat="45.0079" lon="-1.1954">
        <ele>15</ele>
        <time>2019-04-27T13:14:07Z</time>
      </trkpt>
      <trkpt lat="45.00753" lon="-1.19473">
        <ele>12</ele>
        <time>2019-04-27T13:14:25Z</time>
      </trkpt>
      <trkpt lat="45.00735" lon="-1.19408">
        <ele>12</ele>
        <time>2019-04-27T13:14:37Z</time>
      </trkpt>
      <trkpt lat="45.00849" lon="-1.19267">
        <ele>14</ele>
        <time>2019-04-27T13:15:13Z</time>
      </trkpt>
      <trkpt lat="45.00845" lon="-1.19237">
        <ele>14</ele>
        <time>2019-04-27T13:15:29Z</time>
      </trkpt>
      <trkpt lat="45.0086" lon="-1.19197">
        <ele>14</ele>
        <time>2019-04-27T13:16:01Z</time>
      </trkpt>
      <trkpt lat="45.00857" lon="-1.19207">
        <ele>14</ele>
        <time>2019-04-27T13:16:07Z</time>
      </trkpt>
      <trkpt lat="45.00855" lon="-1.19194">
        <ele>14</ele>
        <time>2019-04-27T13:16:19Z</time>
      </trkpt>
      <trkpt lat="45.00863" lon="-1.19174">
        <ele>14</ele>
        <time>2019-04-27T13:16:25Z</time>
      </trkpt>
      <trkpt lat="45.00872" lon="-1.1912">
        <ele>16</ele>
        <time>2019-04-27T13:16:37Z</time>
      </trkpt>
      <trkpt lat="45.00856" lon="-1.19055">
        <ele>18</ele>
        <time>2019-04-27T13:16:55Z</time>
      </trkpt>
      <trkpt lat="45.00783" lon="-1.18974">
        <ele>23</ele>
        <time>2019-04-27T13:17:43Z</time>
      </trkpt>
      <trkpt lat="45.00759" lon="-1.18934">
        <ele>24</ele>
        <time>2019-04-27T13:18:07Z</time>
      </trkpt>
      <trkpt lat="45.00753" lon="-1.18907">
        <ele>24</ele>
        <time>2019-04-27T13:18:13Z</time>
      </trkpt>
      <trkpt lat="45.00731" lon="-1.18863">
        <ele>24</ele>
        <time>2019-04-27T13:18:38Z</time>
      </trkpt>
      <trkpt lat="45.00682" lon="-1.18817">
        <ele>20</ele>
        <time>2019-04-27T13:19:20Z</time>
      </trkpt>
      <trkpt lat="45.00687" lon="-1.18788">
        <ele>20</ele>
        <time>2019-04-27T13:19:26Z</time>
      </trkpt>
      <trkpt lat="45.00732" lon="-1.18663">
        <ele>19</ele>
        <time>2019-04-27T13:20:02Z</time>
      </trkpt>
      <trkpt lat="45.00741" lon="-1.18646">
        <ele>20</ele>
        <time>2019-04-27T13:20:15Z</time>
      </trkpt>
      <trkpt lat="45.00751" lon="-1.18653">
        <ele>19</ele>
        <time>2019-04-27T13:20:18Z</time>
      </trkpt>
      <trkpt lat="45.00748" lon="-1.18641">
        <ele>20</ele>
        <time>2019-04-27T13:20:20Z</time>
      </trkpt>
      <trkpt lat="45.0075" lon="-1.18659">
        <ele>19</ele>
        <time>2019-04-27T13:20:32Z</time>
      </trkpt>
      <trkpt lat="45.0075" lon="-1.18677">
        <ele>19</ele>
        <time>2019-04-27T13:20:34Z</time>
      </trkpt>
      <trkpt lat="45.0075" lon="-1.18664">
        <ele>19</ele>
        <time>2019-04-27T13:20:42Z</time>
      </trkpt>
      <trkpt lat="45.00726" lon="-1.18614">
        <ele>20</ele>
        <time>2019-04-28T06:55:28Z</time>
      </trkpt>
      <trkpt lat="45.00746" lon="-1.18656">
        <ele>19</ele>
        <time>2019-04-28T06:55:48Z</time>
      </trkpt>
      <trkpt lat="45.00738" lon="-1.1866">
        <ele>19</ele>
        <time>2019-04-28T06:56:05Z</time>
      </trkpt>
      <trkpt lat="45.00729" lon="-1.187">
        <ele>19</ele>
        <time>2019-04-28T06:56:29Z</time>
      </trkpt>
      <trkpt lat="45.00688" lon="-1.18797">
        <ele>21</ele>
        <time>2019-04-28T06:56:53Z</time>
      </trkpt>
      <trkpt lat="45.00695" lon="-1.18817">
        <ele>21</ele>
        <time>2019-04-28T06:56:59Z</time>
      </trkpt>
      <trkpt lat="45.00735" lon="-1.18854">
        <ele>21</ele>
        <time>2019-04-28T06:57:41Z</time>
      </trkpt>
      <trkpt lat="45.008" lon="-1.18982">
        <ele>23</ele>
        <time>2019-04-28T06:58:53Z</time>
      </trkpt>
      <trkpt lat="45.0086" lon="-1.19049">
        <ele>18</ele>
        <time>2019-04-28T06:59:23Z</time>
      </trkpt>
      <trkpt lat="45.00878" lon="-1.19082">
        <ele>15</ele>
        <time>2019-04-28T06:59:35Z</time>
      </trkpt>
      <trkpt lat="45.00885" lon="-1.19132">
        <ele>15</ele>
        <time>2019-04-28T06:59:53Z</time>
      </trkpt>
      <trkpt lat="45.00866" lon="-1.19195">
        <ele>15</ele>
        <time>2019-04-28T07:00:11Z</time>
      </trkpt>
      <trkpt lat="45.00851" lon="-1.1922">
        <ele>16</ele>
        <time>2019-04-28T07:00:23Z</time>
      </trkpt>
      <trkpt lat="45.00858" lon="-1.19256">
        <ele>16</ele>
        <time>2019-04-28T07:00:41Z</time>
      </trkpt>
      <trkpt lat="45.00847" lon="-1.19238">
        <ele>13</ele>
        <time>2019-04-28T07:00:56Z</time>
      </trkpt>
      <trkpt lat="45.00864" lon="-1.19256">
        <ele>16</ele>
        <time>2019-04-28T07:01:04Z</time>
      </trkpt>
      <trkpt lat="45.00877" lon="-1.19251">
        <ele>16</ele>
        <time>2019-04-28T07:01:16Z</time>
      </trkpt>
      <trkpt lat="45.00851" lon="-1.19244">
        <ele>13</ele>
        <time>2019-04-28T07:01:49Z</time>
      </trkpt>
      <trkpt lat="45.00866" lon="-1.19253">
        <ele>16</ele>
        <time>2019-04-28T07:02:02Z</time>
      </trkpt>
      <trkpt lat="45.00913" lon="-1.19201">
        <ele>15</ele>
        <time>2019-04-28T07:02:44Z</time>
      </trkpt>
      <trkpt lat="45.00978" lon="-1.1916">
        <ele>16</ele>
        <time>2019-04-28T07:03:14Z</time>
      </trkpt>
      <trkpt lat="45.01003" lon="-1.19157">
        <ele>16</ele>
        <time>2019-04-28T07:03:26Z</time>
      </trkpt>
      <trkpt lat="45.01049" lon="-1.19094">
        <ele>18</ele>
        <time>2019-04-28T07:03:44Z</time>
      </trkpt>
      <trkpt lat="45.01132" lon="-1.19028">
        <ele>18</ele>
        <time>2019-04-28T07:04:20Z</time>
      </trkpt>
      <trkpt lat="45.01259" lon="-1.18873">
        <ele>16</ele>
        <time>2019-04-28T07:05:20Z</time>
      </trkpt>
      <trkpt lat="45.01336" lon="-1.18805">
        <ele>17</ele>
        <time>2019-04-28T07:05:44Z</time>
      </trkpt>
      <trkpt lat="45.01522" lon="-1.18685">
        <ele>23</ele>
        <time>2019-04-28T07:06:38Z</time>
      </trkpt>
      <trkpt lat="45.01644" lon="-1.1863">
        <ele>21</ele>
        <time>2019-04-28T07:07:14Z</time>
      </trkpt>
      <trkpt lat="45.01805" lon="-1.18613">
        <ele>20</ele>
        <time>2019-04-28T07:07:56Z</time>
      </trkpt>
      <trkpt lat="45.01866" lon="-1.18596">
        <ele>22</ele>
        <time>2019-04-28T07:08:14Z</time>
      </trkpt>
      <trkpt lat="45.02047" lon="-1.18614">
        <ele>22</ele>
        <time>2019-04-28T07:08:56Z</time>
      </trkpt>
      <trkpt lat="45.02124" lon="-1.18609">
        <ele>24</ele>
        <time>2019-04-28T07:09:14Z</time>
      </trkpt>
      <trkpt lat="45.02253" lon="-1.18621">
        <ele>22</ele>
        <time>2019-04-28T07:09:44Z</time>
      </trkpt>
      <trkpt lat="45.02374" lon="-1.18604">
        <ele>22</ele>
        <time>2019-04-28T07:10:20Z</time>
      </trkpt>
      <trkpt lat="45.02443" lon="-1.18606">
        <ele>23</ele>
        <time>2019-04-28T07:10:38Z</time>
      </trkpt>
      <trkpt lat="45.02511" lon="-1.18639">
        <ele>23</ele>
        <time>2019-04-28T07:10:57Z</time>
      </trkpt>
      <trkpt lat="45.02817" lon="-1.18838">
        <ele>21</ele>
        <time>2019-04-28T07:12:14Z</time>
      </trkpt>
      <trkpt lat="45.02944" lon="-1.18896">
        <ele>21</ele>
        <time>2019-04-28T07:12:27Z</time>
      </trkpt>
      <trkpt lat="45.03057" lon="-1.18888">
        <ele>20</ele>
        <time>2019-04-28T07:13:06Z</time>
      </trkpt>
      <trkpt lat="45.03223" lon="-1.18852">
        <ele>18</ele>
        <time>2019-04-28T07:13:46Z</time>
      </trkpt>
      <trkpt lat="45.03632" lon="-1.18694">
        <ele>20</ele>
        <time>2019-04-28T07:15:17Z</time>
      </trkpt>
      <trkpt lat="45.03685" lon="-1.18662">
        <ele>23</ele>
        <time>2019-04-28T07:15:30Z</time>
      </trkpt>
      <trkpt lat="45.03726" lon="-1.18599">
        <ele>20</ele>
        <time>2019-04-28T07:15:55Z</time>
      </trkpt>
      <trkpt lat="45.03713" lon="-1.1854">
        <ele>20</ele>
        <time>2019-04-28T07:16:17Z</time>
      </trkpt>
      <trkpt lat="45.03651" lon="-1.18365">
        <ele>28</ele>
        <time>2019-04-28T07:17:05Z</time>
      </trkpt>
      <trkpt lat="45.03596" lon="-1.18282">
        <ele>28</ele>
        <time>2019-04-28T07:17:23Z</time>
      </trkpt>
      <trkpt lat="45.0348" lon="-1.18141">
        <ele>21</ele>
        <time>2019-04-28T07:17:40Z</time>
      </trkpt>
      <trkpt lat="45.0331" lon="-1.17959">
        <ele>33</ele>
        <time>2019-04-28T07:18:35Z</time>
      </trkpt>
      <trkpt lat="45.03178" lon="-1.17654">
        <ele>21</ele>
        <time>2019-04-28T07:20:05Z</time>
      </trkpt>
      <trkpt lat="45.03126" lon="-1.17603">
        <ele>21</ele>
        <time>2019-04-28T07:20:23Z</time>
      </trkpt>
      <trkpt lat="45.03052" lon="-1.17571">
        <ele>23</ele>
        <time>2019-04-28T07:20:35Z</time>
      </trkpt>
      <trkpt lat="45.02997" lon="-1.17513">
        <ele>16</ele>
        <time>2019-04-28T07:20:47Z</time>
      </trkpt>
      <trkpt lat="45.02969" lon="-1.1745">
        <ele>20</ele>
        <time>2019-04-28T07:21:05Z</time>
      </trkpt>
      <trkpt lat="45.0293" lon="-1.17274">
        <ele>28</ele>
        <time>2019-04-28T07:22:05Z</time>
      </trkpt>
      <trkpt lat="45.02881" lon="-1.17098">
        <ele>29</ele>
        <time>2019-04-28T07:22:59Z</time>
      </trkpt>
      <trkpt lat="45.02878" lon="-1.17044">
        <ele>29</ele>
        <time>2019-04-28T07:23:11Z</time>
      </trkpt>
      <trkpt lat="45.02955" lon="-1.16878">
        <ele>29</ele>
        <time>2019-04-28T07:23:40Z</time>
      </trkpt>
      <trkpt lat="45.02995" lon="-1.16704">
        <ele>39</ele>
        <time>2019-04-28T07:24:05Z</time>
      </trkpt>
      <trkpt lat="45.03045" lon="-1.16632">
        <ele>39</ele>
        <time>2019-04-28T07:24:23Z</time>
      </trkpt>
      <trkpt lat="45.03106" lon="-1.16566">
        <ele>33</ele>
        <time>2019-04-28T07:24:41Z</time>
      </trkpt>
      <trkpt lat="45.03158" lon="-1.16376">
        <ele>38</ele>
        <time>2019-04-28T07:25:41Z</time>
      </trkpt>
      <trkpt lat="45.03174" lon="-1.16238">
        <ele>38</ele>
        <time>2019-04-28T07:26:10Z</time>
      </trkpt>
      <trkpt lat="45.03166" lon="-1.16203">
        <ele>38</ele>
        <time>2019-04-28T07:26:23Z</time>
      </trkpt>
      <trkpt lat="45.03129" lon="-1.16154">
        <ele>41</ele>
        <time>2019-04-28T07:26:41Z</time>
      </trkpt>
      <trkpt lat="45.03077" lon="-1.16059">
        <ele>43</ele>
        <time>2019-04-28T07:27:05Z</time>
      </trkpt>
      <trkpt lat="45.03027" lon="-1.16024">
        <ele>38</ele>
        <time>2019-04-28T07:27:17Z</time>
      </trkpt>
      <trkpt lat="45.02969" lon="-1.15966">
        <ele>34</ele>
        <time>2019-04-28T07:27:29Z</time>
      </trkpt>
      <trkpt lat="45.02971" lon="-1.15905">
        <ele>32</ele>
        <time>2019-04-28T07:27:34Z</time>
      </trkpt>
      <trkpt lat="45.03008" lon="-1.15787">
        <ele>31</ele>
        <time>2019-04-28T07:27:53Z</time>
      </trkpt>
      <trkpt lat="45.02993" lon="-1.15641">
        <ele>26</ele>
        <time>2019-04-28T07:28:16Z</time>
      </trkpt>
      <trkpt lat="45.03013" lon="-1.15537">
        <ele>25</ele>
        <time>2019-04-28T07:28:35Z</time>
      </trkpt>
      <trkpt lat="45.03013" lon="-1.15468">
        <ele>34</ele>
        <time>2019-04-28T07:29:04Z</time>
      </trkpt>
      <trkpt lat="45.03093" lon="-1.15565">
        <ele>28</ele>
        <time>2019-04-28T07:29:14Z</time>
      </trkpt>
      <trkpt lat="45.03181" lon="-1.15641">
        <ele>27</ele>
        <time>2019-04-28T07:29:37Z</time>
      </trkpt>
      <trkpt lat="45.03234" lon="-1.15659">
        <ele>27</ele>
        <time>2019-04-28T07:29:50Z</time>
      </trkpt>
      <trkpt lat="45.03366" lon="-1.15634">
        <ele>21</ele>
        <time>2019-04-28T07:30:08Z</time>
      </trkpt>
      <trkpt lat="45.03426" lon="-1.15609">
        <ele>20</ele>
        <time>2019-04-28T07:30:20Z</time>
      </trkpt>
      <trkpt lat="45.03509" lon="-1.15555">
        <ele>26</ele>
        <time>2019-04-28T07:30:38Z</time>
      </trkpt>
      <trkpt lat="45.03568" lon="-1.15542">
        <ele>26</ele>
        <time>2019-04-28T07:30:50Z</time>
      </trkpt>
      <trkpt lat="45.03659" lon="-1.1555">
        <ele>27</ele>
        <time>2019-04-28T07:31:28Z</time>
      </trkpt>
      <trkpt lat="45.03839" lon="-1.15373">
        <ele>34</ele>
        <time>2019-04-28T07:32:40Z</time>
      </trkpt>
      <trkpt lat="45.03994" lon="-1.15264">
        <ele>41</ele>
        <time>2019-04-28T07:33:52Z</time>
      </trkpt>
      <trkpt lat="45.04103" lon="-1.15119">
        <ele>40</ele>
        <time>2019-04-28T07:34:52Z</time>
      </trkpt>
      <trkpt lat="45.04132" lon="-1.15109">
        <ele>40</ele>
        <time>2019-04-28T07:35:04Z</time>
      </trkpt>
      <trkpt lat="45.04232" lon="-1.15114">
        <ele>42</ele>
        <time>2019-04-28T07:35:30Z</time>
      </trkpt>
      <trkpt lat="45.04291" lon="-1.15102">
        <ele>39</ele>
        <time>2019-04-28T07:35:42Z</time>
      </trkpt>
      <trkpt lat="45.04386" lon="-1.15132">
        <ele>44</ele>
        <time>2019-04-28T07:36:06Z</time>
      </trkpt>
      <trkpt lat="45.0447" lon="-1.15182">
        <ele>45</ele>
        <time>2019-04-28T07:36:36Z</time>
      </trkpt>
      <trkpt lat="45.04538" lon="-1.152">
        <ele>45</ele>
        <time>2019-04-28T07:37:06Z</time>
      </trkpt>
      <trkpt lat="45.04702" lon="-1.15197">
        <ele>42</ele>
        <time>2019-04-28T07:37:48Z</time>
      </trkpt>
      <trkpt lat="45.04773" lon="-1.15205">
        <ele>39</ele>
        <time>2019-04-28T07:38:00Z</time>
      </trkpt>
      <trkpt lat="45.04866" lon="-1.15254">
        <ele>39</ele>
        <time>2019-04-28T07:38:12Z</time>
      </trkpt>
      <trkpt lat="45.04982" lon="-1.15408">
        <ele>32</ele>
        <time>2019-04-28T07:38:42Z</time>
      </trkpt>
      <trkpt lat="45.05089" lon="-1.15478">
        <ele>32</ele>
        <time>2019-04-28T07:39:06Z</time>
      </trkpt>
      <trkpt lat="45.05185" lon="-1.15467">
        <ele>36</ele>
        <time>2019-04-28T07:39:42Z</time>
      </trkpt>
      <trkpt lat="45.05201" lon="-1.15485">
        <ele>36</ele>
        <time>2019-04-28T07:39:54Z</time>
      </trkpt>
      <trkpt lat="45.05296" lon="-1.15413">
        <ele>48</ele>
        <time>2019-04-28T07:40:30Z</time>
      </trkpt>
      <trkpt lat="45.05404" lon="-1.15363">
        <ele>53</ele>
        <time>2019-04-28T07:41:19Z</time>
      </trkpt>
      <trkpt lat="45.05468" lon="-1.15356">
        <ele>36</ele>
        <time>2019-04-28T07:41:36Z</time>
      </trkpt>
      <trkpt lat="45.0554" lon="-1.15397">
        <ele>46</ele>
        <time>2019-04-28T07:41:48Z</time>
      </trkpt>
      <trkpt lat="45.05614" lon="-1.1546">
        <ele>44</ele>
        <time>2019-04-28T07:42:00Z</time>
      </trkpt>
      <trkpt lat="45.05674" lon="-1.15616">
        <ele>50</ele>
        <time>2019-04-28T07:42:54Z</time>
      </trkpt>
      <trkpt lat="45.05719" lon="-1.15799">
        <ele>45</ele>
        <time>2019-04-28T07:43:12Z</time>
      </trkpt>
      <trkpt lat="45.05785" lon="-1.15892">
        <ele>45</ele>
        <time>2019-04-28T07:43:24Z</time>
      </trkpt>
      <trkpt lat="45.05949" lon="-1.15964">
        <ele>62</ele>
        <time>2019-04-28T07:44:36Z</time>
      </trkpt>
      <trkpt lat="45.06182" lon="-1.15901">
        <ele>64</ele>
        <time>2019-04-28T07:45:42Z</time>
      </trkpt>
      <trkpt lat="45.06222" lon="-1.15902">
        <ele>57</ele>
        <time>2019-04-28T07:45:54Z</time>
      </trkpt>
      <trkpt lat="45.06308" lon="-1.15989">
        <ele>56</ele>
        <time>2019-04-28T07:46:30Z</time>
      </trkpt>
      <trkpt lat="45.06351" lon="-1.16011">
        <ele>56</ele>
        <time>2019-04-28T07:46:42Z</time>
      </trkpt>
      <trkpt lat="45.06384" lon="-1.16005">
        <ele>47</ele>
        <time>2019-04-28T07:46:48Z</time>
      </trkpt>
      <trkpt lat="45.0649" lon="-1.1593">
        <ele>59</ele>
        <time>2019-04-28T07:47:00Z</time>
      </trkpt>
      <trkpt lat="45.06589" lon="-1.15934">
        <ele>65</ele>
        <time>2019-04-28T07:47:12Z</time>
      </trkpt>
      <trkpt lat="45.06694" lon="-1.15914">
        <ele>60</ele>
        <time>2019-04-28T07:47:30Z</time>
      </trkpt>
      <trkpt lat="45.06792" lon="-1.1588">
        <ele>35</ele>
        <time>2019-04-28T07:47:42Z</time>
      </trkpt>
      <trkpt lat="45.06821" lon="-1.15738">
        <ele>42</ele>
        <time>2019-04-28T07:47:54Z</time>
      </trkpt>
      <trkpt lat="45.06892" lon="-1.15579">
        <ele>49</ele>
        <time>2019-04-28T07:48:31Z</time>
      </trkpt>
      <trkpt lat="45.06905" lon="-1.15501">
        <ele>49</ele>
        <time>2019-04-28T07:48:48Z</time>
      </trkpt>
      <trkpt lat="45.06889" lon="-1.15329">
        <ele>52</ele>
        <time>2019-04-28T07:49:18Z</time>
      </trkpt>
      <trkpt lat="45.06894" lon="-1.1528">
        <ele>52</ele>
        <time>2019-04-28T07:49:30Z</time>
      </trkpt>
      <trkpt lat="45.06958" lon="-1.15269">
        <ele>52</ele>
        <time>2019-04-28T07:49:48Z</time>
      </trkpt>
      <trkpt lat="45.07085" lon="-1.15169">
        <ele>41</ele>
        <time>2019-04-28T07:50:18Z</time>
      </trkpt>
      <trkpt lat="45.07101" lon="-1.15102">
        <ele>41</ele>
        <time>2019-04-28T07:50:24Z</time>
      </trkpt>
      <trkpt lat="45.0717" lon="-1.14956">
        <ele>31</ele>
        <time>2019-04-28T07:50:36Z</time>
      </trkpt>
      <trkpt lat="45.07219" lon="-1.14773">
        <ele>27</ele>
        <time>2019-04-28T07:50:54Z</time>
      </trkpt>
      <trkpt lat="45.0725" lon="-1.14744">
        <ele>27</ele>
        <time>2019-04-28T07:51:21Z</time>
      </trkpt>
      <trkpt lat="45.07244" lon="-1.14751">
        <ele>27</ele>
        <time>2019-04-28T07:51:31Z</time>
      </trkpt>
      <trkpt lat="45.0725" lon="-1.14768">
        <ele>27</ele>
        <time>2019-04-28T07:51:45Z</time>
      </trkpt>
      <trkpt lat="45.0725" lon="-1.14885">
        <ele>30</ele>
        <time>2019-04-28T07:52:57Z</time>
      </trkpt>
      <trkpt lat="45.07261" lon="-1.14901">
        <ele>49</ele>
        <time>2019-04-28T07:53:03Z</time>
      </trkpt>
      <trkpt lat="45.07311" lon="-1.15035">
        <ele>47</ele>
        <time>2019-04-28T07:53:39Z</time>
      </trkpt>
      <trkpt lat="45.07381" lon="-1.15132">
        <ele>37</ele>
        <time>2019-04-28T07:54:09Z</time>
      </trkpt>
      <trkpt lat="45.0744" lon="-1.15135">
        <ele>37</ele>
        <time>2019-04-28T07:54:33Z</time>
      </trkpt>
      <trkpt lat="45.07526" lon="-1.1516">
        <ele>31</ele>
        <time>2019-04-28T07:54:57Z</time>
      </trkpt>
      <trkpt lat="45.07661" lon="-1.15093">
        <ele>34</ele>
        <time>2019-04-28T07:55:45Z</time>
      </trkpt>
      <trkpt lat="45.0772" lon="-1.15123">
        <ele>34</ele>
        <time>2019-04-28T07:56:09Z</time>
      </trkpt>
      <trkpt lat="45.07753" lon="-1.15128">
        <ele>39</ele>
        <time>2019-04-28T07:56:21Z</time>
      </trkpt>
      <trkpt lat="45.07761" lon="-1.15123">
        <ele>39</ele>
        <time>2019-04-28T07:56:27Z</time>
      </trkpt>
      <trkpt lat="45.07774" lon="-1.15086">
        <ele>39</ele>
        <time>2019-04-28T07:56:39Z</time>
      </trkpt>
      <trkpt lat="45.07796" lon="-1.15081">
        <ele>38</ele>
        <time>2019-04-28T07:56:51Z</time>
      </trkpt>
      <trkpt lat="45.07804" lon="-1.15097">
        <ele>39</ele>
        <time>2019-04-28T07:56:57Z</time>
      </trkpt>
      <trkpt lat="45.07808" lon="-1.15146">
        <ele>39</ele>
        <time>2019-04-28T07:57:15Z</time>
      </trkpt>
      <trkpt lat="45.07788" lon="-1.15253">
        <ele>43</ele>
        <time>2019-04-28T07:57:39Z</time>
      </trkpt>
      <trkpt lat="45.07796" lon="-1.15324">
        <ele>43</ele>
        <time>2019-04-28T07:57:51Z</time>
      </trkpt>
      <trkpt lat="45.07775" lon="-1.15533">
        <ele>39</ele>
        <time>2019-04-28T07:58:33Z</time>
      </trkpt>
      <trkpt lat="45.07792" lon="-1.15628">
        <ele>39</ele>
        <time>2019-04-28T07:58:45Z</time>
      </trkpt>
      <trkpt lat="45.07815" lon="-1.15683">
        <ele>36</ele>
        <time>2019-04-28T07:58:51Z</time>
      </trkpt>
      <trkpt lat="45.07894" lon="-1.15772">
        <ele>36</ele>
        <time>2019-04-28T07:59:09Z</time>
      </trkpt>
      <trkpt lat="45.07951" lon="-1.15872">
        <ele>37</ele>
        <time>2019-04-28T07:59:33Z</time>
      </trkpt>
      <trkpt lat="45.07969" lon="-1.1603">
        <ele>44</ele>
        <time>2019-04-28T08:00:15Z</time>
      </trkpt>
      <trkpt lat="45.07982" lon="-1.16041">
        <ele>44</ele>
        <time>2019-04-28T08:00:21Z</time>
      </trkpt>
      <trkpt lat="45.0806" lon="-1.16041">
        <ele>48</ele>
        <time>2019-04-28T08:01:03Z</time>
      </trkpt>
      <trkpt lat="45.08152" lon="-1.1611">
        <ele>44</ele>
        <time>2019-04-28T08:01:45Z</time>
      </trkpt>
      <trkpt lat="45.08174" lon="-1.16153">
        <ele>44</ele>
        <time>2019-04-28T08:01:57Z</time>
      </trkpt>
      <trkpt lat="45.08208" lon="-1.16342">
        <ele>41</ele>
        <time>2019-04-28T08:02:21Z</time>
      </trkpt>
      <trkpt lat="45.08261" lon="-1.16552">
        <ele>39</ele>
        <time>2019-04-28T08:02:39Z</time>
      </trkpt>
      <trkpt lat="45.08251" lon="-1.1664">
        <ele>44</ele>
        <time>2019-04-28T08:02:51Z</time>
      </trkpt>
      <trkpt lat="45.0825" lon="-1.16749">
        <ele>36</ele>
        <time>2019-04-28T08:03:03Z</time>
      </trkpt>
      <trkpt lat="45.08242" lon="-1.16802">
        <ele>36</ele>
        <time>2019-04-28T08:03:09Z</time>
      </trkpt>
      <trkpt lat="45.08212" lon="-1.16824">
        <ele>37</ele>
        <time>2019-04-28T08:03:15Z</time>
      </trkpt>
      <trkpt lat="45.0816" lon="-1.16905">
        <ele>27</ele>
        <time>2019-04-28T08:03:27Z</time>
      </trkpt>
      <trkpt lat="45.08104" lon="-1.16946">
        <ele>29</ele>
        <time>2019-04-28T08:03:39Z</time>
      </trkpt>
      <trkpt lat="45.0809" lon="-1.17161">
        <ele>31</ele>
        <time>2019-04-28T08:04:03Z</time>
      </trkpt>
      <trkpt lat="45.08161" lon="-1.17395">
        <ele>30</ele>
        <time>2019-04-28T08:04:33Z</time>
      </trkpt>
      <trkpt lat="45.08414" lon="-1.17627">
        <ele>17</ele>
        <time>2019-04-28T08:05:39Z</time>
      </trkpt>
      <trkpt lat="45.0848" lon="-1.17711">
        <ele>21</ele>
        <time>2019-04-28T08:05:57Z</time>
      </trkpt>
      <trkpt lat="45.08523" lon="-1.17808">
        <ele>21</ele>
        <time>2019-04-28T08:06:09Z</time>
      </trkpt>
      <trkpt lat="45.08574" lon="-1.1801">
        <ele>22</ele>
        <time>2019-04-28T08:06:45Z</time>
      </trkpt>
      <trkpt lat="45.08583" lon="-1.18031">
        <ele>22</ele>
        <time>2019-04-28T08:06:51Z</time>
      </trkpt>
      <trkpt lat="45.08633" lon="-1.18077">
        <ele>23</ele>
        <time>2019-04-28T08:07:09Z</time>
      </trkpt>
      <trkpt lat="45.08666" lon="-1.1816">
        <ele>20</ele>
        <time>2019-04-28T08:07:21Z</time>
      </trkpt>
      <trkpt lat="45.08669" lon="-1.18211">
        <ele>20</ele>
        <time>2019-04-28T08:07:27Z</time>
      </trkpt>
      <trkpt lat="45.0866" lon="-1.18303">
        <ele>18</ele>
        <time>2019-04-28T08:07:39Z</time>
      </trkpt>
      <trkpt lat="45.08638" lon="-1.18345">
        <ele>18</ele>
        <time>2019-04-28T08:07:45Z</time>
      </trkpt>
      <trkpt lat="45.0861" lon="-1.18429">
        <ele>16</ele>
        <time>2019-04-28T08:07:57Z</time>
      </trkpt>
      <trkpt lat="45.08616" lon="-1.18475">
        <ele>18</ele>
        <time>2019-04-28T08:08:03Z</time>
      </trkpt>
      <trkpt lat="45.08668" lon="-1.18652">
        <ele>17</ele>
        <time>2019-04-28T08:08:33Z</time>
      </trkpt>
      <trkpt lat="45.08673" lon="-1.18704">
        <ele>18</ele>
        <time>2019-04-28T08:08:45Z</time>
      </trkpt>
      <trkpt lat="45.08664" lon="-1.18746">
        <ele>18</ele>
        <time>2019-04-28T08:08:57Z</time>
      </trkpt>
      <trkpt lat="45.08658" lon="-1.18763">
        <ele>18</ele>
        <time>2019-04-28T08:09:03Z</time>
      </trkpt>
      <trkpt lat="45.08607" lon="-1.18783">
        <ele>18</ele>
        <time>2019-04-28T08:09:21Z</time>
      </trkpt>
      <trkpt lat="45.08544" lon="-1.18782">
        <ele>18</ele>
        <time>2019-04-28T08:09:39Z</time>
      </trkpt>
      <trkpt lat="45.08491" lon="-1.18765">
        <ele>16</ele>
        <time>2019-04-28T08:09:51Z</time>
      </trkpt>
      <trkpt lat="45.0847" lon="-1.18778">
        <ele>16</ele>
        <time>2019-04-28T08:10:02Z</time>
      </trkpt>
      <trkpt lat="45.0845" lon="-1.18836">
        <ele>17</ele>
        <time>2019-04-28T08:10:33Z</time>
      </trkpt>
      <trkpt lat="45.08454" lon="-1.18807">
        <ele>17</ele>
        <time>2019-04-28T08:10:55Z</time>
      </trkpt>
      <trkpt lat="45.08475" lon="-1.18771">
        <ele>16</ele>
        <time>2019-04-28T08:11:28Z</time>
      </trkpt>
      <trkpt lat="45.08472" lon="-1.18763">
        <ele>16</ele>
        <time>2019-04-28T08:11:32Z</time>
      </trkpt>
      <trkpt lat="45.08454" lon="-1.18812">
        <ele>17</ele>
        <time>2019-04-28T08:12:15Z</time>
      </trkpt>
      <trkpt lat="45.08451" lon="-1.18844">
        <ele>17</ele>
        <time>2019-04-28T08:12:39Z</time>
      </trkpt>
      <trkpt lat="45.08446" lon="-1.18907">
        <ele>17</ele>
        <time>2019-04-28T08:13:31Z</time>
      </trkpt>
      <trkpt lat="45.08454" lon="-1.18961">
        <ele>16</ele>
        <time>2019-04-28T08:14:16Z</time>
      </trkpt>
      <trkpt lat="45.08448" lon="-1.18891">
        <ele>17</ele>
        <time>2019-04-28T08:14:50Z</time>
      </trkpt>
      <trkpt lat="45.08451" lon="-1.18823">
        <ele>17</ele>
        <time>2019-04-28T08:15:08Z</time>
      </trkpt>
      <trkpt lat="45.08473" lon="-1.18771">
        <ele>16</ele>
        <time>2019-04-28T08:15:20Z</time>
      </trkpt>
      <trkpt lat="45.08489" lon="-1.18769">
        <ele>16</ele>
        <time>2019-04-28T08:15:38Z</time>
      </trkpt>
      <trkpt lat="45.08521" lon="-1.18789">
        <ele>18</ele>
        <time>2019-04-28T08:16:02Z</time>
      </trkpt>
      <trkpt lat="45.08552" lon="-1.18794">
        <ele>19</ele>
        <time>2019-04-28T08:16:26Z</time>
      </trkpt>
      <trkpt lat="45.08617" lon="-1.18782">
        <ele>18</ele>
        <time>2019-04-28T08:17:27Z</time>
      </trkpt>
      <trkpt lat="45.0854" lon="-1.18795">
        <ele>19</ele>
        <time>2019-04-28T08:18:22Z</time>
      </trkpt>
      <trkpt lat="45.08645" lon="-1.18783">
        <ele>18</ele>
        <time>2019-04-28T08:19:22Z</time>
      </trkpt>
      <trkpt lat="45.08672" lon="-1.18718">
        <ele>18</ele>
        <time>2019-04-28T08:19:34Z</time>
      </trkpt>
      <trkpt lat="45.08674" lon="-1.18656">
        <ele>18</ele>
        <time>2019-04-28T08:19:40Z</time>
      </trkpt>
      <trkpt lat="45.0862" lon="-1.1847">
        <ele>18</ele>
        <time>2019-04-28T08:20:04Z</time>
      </trkpt>
      <trkpt lat="45.0861" lon="-1.18403">
        <ele>16</ele>
        <time>2019-04-28T08:20:16Z</time>
      </trkpt>
      <trkpt lat="45.08639" lon="-1.18367">
        <ele>18</ele>
        <time>2019-04-28T08:20:28Z</time>
      </trkpt>
      <trkpt lat="45.08657" lon="-1.18322">
        <ele>18</ele>
        <time>2019-04-28T08:20:40Z</time>
      </trkpt>
      <trkpt lat="45.08682" lon="-1.18243">
        <ele>18</ele>
        <time>2019-04-28T08:20:58Z</time>
      </trkpt>
      <trkpt lat="45.08678" lon="-1.18206">
        <ele>20</ele>
        <time>2019-04-28T08:21:20Z</time>
      </trkpt>
      <trkpt lat="45.08697" lon="-1.18223">
        <ele>20</ele>
        <time>2019-04-28T08:21:30Z</time>
      </trkpt>
      <trkpt lat="45.08723" lon="-1.18287">
        <ele>19</ele>
        <time>2019-04-28T08:21:48Z</time>
      </trkpt>
      <trkpt lat="45.08779" lon="-1.18379">
        <ele>23</ele>
        <time>2019-04-28T08:22:12Z</time>
      </trkpt>
      <trkpt lat="45.08879" lon="-1.18492">
        <ele>22</ele>
        <time>2019-04-28T08:22:36Z</time>
      </trkpt>
      <trkpt lat="45.09026" lon="-1.18542">
        <ele>16</ele>
        <time>2019-04-28T08:23:06Z</time>
      </trkpt>
      <trkpt lat="45.09302" lon="-1.18717">
        <ele>11</ele>
        <time>2019-04-28T08:24:12Z</time>
      </trkpt>
      <trkpt lat="45.09352" lon="-1.18733">
        <ele>11</ele>
        <time>2019-04-28T08:24:24Z</time>
      </trkpt>
      <trkpt lat="45.09434" lon="-1.18716">
        <ele>12</ele>
        <time>2019-04-28T08:24:42Z</time>
      </trkpt>
      <trkpt lat="45.09718" lon="-1.18586">
        <ele>11</ele>
        <time>2019-04-28T08:25:48Z</time>
      </trkpt>
      <trkpt lat="45.09781" lon="-1.18577">
        <ele>10</ele>
        <time>2019-04-28T08:26:00Z</time>
      </trkpt>
      <trkpt lat="45.10023" lon="-1.18569">
        <ele>12</ele>
        <time>2019-04-28T08:27:00Z</time>
      </trkpt>
      <trkpt lat="45.10044" lon="-1.18561">
        <ele>12</ele>
        <time>2019-04-28T08:27:06Z</time>
      </trkpt>
      <trkpt lat="45.1021" lon="-1.18419">
        <ele>11</ele>
        <time>2019-04-28T08:27:48Z</time>
      </trkpt>
      <trkpt lat="45.10261" lon="-1.18387">
        <ele>11</ele>
        <time>2019-04-28T08:28:00Z</time>
      </trkpt>
      <trkpt lat="45.10311" lon="-1.18387">
        <ele>11</ele>
        <time>2019-04-28T08:28:12Z</time>
      </trkpt>
      <trkpt lat="45.10398" lon="-1.18421">
        <ele>13</ele>
        <time>2019-04-28T08:28:36Z</time>
      </trkpt>
      <trkpt lat="45.10451" lon="-1.18418">
        <ele>13</ele>
        <time>2019-04-28T08:28:48Z</time>
      </trkpt>
      <trkpt lat="45.10595" lon="-1.18334">
        <ele>16</ele>
        <time>2019-04-28T08:29:24Z</time>
      </trkpt>
      <trkpt lat="45.10722" lon="-1.18244">
        <ele>18</ele>
        <time>2019-04-28T08:30:00Z</time>
      </trkpt>
      <trkpt lat="45.10782" lon="-1.18214">
        <ele>19</ele>
        <time>2019-04-28T08:30:18Z</time>
      </trkpt>
      <trkpt lat="45.10879" lon="-1.182">
        <ele>18</ele>
        <time>2019-04-28T08:30:42Z</time>
      </trkpt>
      <trkpt lat="45.11251" lon="-1.18196">
        <ele>13</ele>
        <time>2019-04-28T08:32:18Z</time>
      </trkpt>
      <trkpt lat="45.11279" lon="-1.18159">
        <ele>13</ele>
        <time>2019-04-28T08:32:49Z</time>
      </trkpt>
      <trkpt lat="45.11276" lon="-1.18167">
        <ele>13</ele>
        <time>2019-04-28T08:32:50Z</time>
      </trkpt>
      <trkpt lat="45.11271" lon="-1.1816">
        <ele>13</ele>
        <time>2019-04-28T08:32:55Z</time>
      </trkpt>
      <trkpt lat="45.11275" lon="-1.18156">
        <ele>13</ele>
        <time>2019-04-28T08:32:56Z</time>
      </trkpt>
      <trkpt lat="45.1118" lon="-1.18056">
        <ele>18</ele>
        <time>2019-04-28T08:33:38Z</time>
      </trkpt>
      <trkpt lat="45.11072" lon="-1.17685">
        <ele>23</ele>
        <time>2019-04-28T08:35:20Z</time>
      </trkpt>
      <trkpt lat="45.11053" lon="-1.17598">
        <ele>23</ele>
        <time>2019-04-28T08:35:32Z</time>
      </trkpt>
      <trkpt lat="45.11071" lon="-1.17372">
        <ele>17</ele>
        <time>2019-04-28T08:35:56Z</time>
      </trkpt>
      <trkpt lat="45.11067" lon="-1.17286">
        <ele>17</ele>
        <time>2019-04-28T08:36:08Z</time>
      </trkpt>
      <trkpt lat="45.11071" lon="-1.17215">
        <ele>19</ele>
        <time>2019-04-28T08:36:26Z</time>
      </trkpt>
      <trkpt lat="45.11058" lon="-1.17123">
        <ele>20</ele>
        <time>2019-04-28T08:36:50Z</time>
      </trkpt>
      <trkpt lat="45.1106" lon="-1.17103">
        <ele>20</ele>
        <time>2019-04-28T08:37:01Z</time>
      </trkpt>
      <trkpt lat="45.11079" lon="-1.17098">
        <ele>20</ele>
        <time>2019-04-28T08:37:07Z</time>
      </trkpt>
      <trkpt lat="45.11154" lon="-1.17144">
        <ele>21</ele>
        <time>2019-04-28T08:37:37Z</time>
      </trkpt>
      <trkpt lat="45.11204" lon="-1.17164">
        <ele>21</ele>
        <time>2019-04-28T08:37:55Z</time>
      </trkpt>
      <trkpt lat="45.11319" lon="-1.17157">
        <ele>25</ele>
        <time>2019-04-28T08:38:37Z</time>
      </trkpt>
      <trkpt lat="45.11368" lon="-1.1714">
        <ele>35</ele>
        <time>2019-04-28T08:38:55Z</time>
      </trkpt>
      <trkpt lat="45.11438" lon="-1.17035">
        <ele>28</ele>
        <time>2019-04-28T08:39:31Z</time>
      </trkpt>
      <trkpt lat="45.11473" lon="-1.17019">
        <ele>28</ele>
        <time>2019-04-28T08:39:43Z</time>
      </trkpt>
      <trkpt lat="45.116" lon="-1.16997">
        <ele>30</ele>
        <time>2019-04-28T08:40:19Z</time>
      </trkpt>
      <trkpt lat="45.11669" lon="-1.16968">
        <ele>30</ele>
        <time>2019-04-28T08:40:37Z</time>
      </trkpt>
      <trkpt lat="45.11751" lon="-1.16913">
        <ele>27</ele>
        <time>2019-04-28T08:40:55Z</time>
      </trkpt>
      <trkpt lat="45.11789" lon="-1.16909">
        <ele>27</ele>
        <time>2019-04-28T08:41:01Z</time>
      </trkpt>
      <trkpt lat="45.1192" lon="-1.16941">
        <ele>21</ele>
        <time>2019-04-28T08:41:25Z</time>
      </trkpt>
      <trkpt lat="45.11977" lon="-1.16938">
        <ele>21</ele>
        <time>2019-04-28T08:41:37Z</time>
      </trkpt>
      <trkpt lat="45.12052" lon="-1.16898">
        <ele>26</ele>
        <time>2019-04-28T08:41:55Z</time>
      </trkpt>
      <trkpt lat="45.12171" lon="-1.16719">
        <ele>35</ele>
        <time>2019-04-28T08:42:37Z</time>
      </trkpt>
      <trkpt lat="45.12194" lon="-1.16702">
        <ele>35</ele>
        <time>2019-04-28T08:42:43Z</time>
      </trkpt>
      <trkpt lat="45.12278" lon="-1.1667">
        <ele>32</ele>
        <time>2019-04-28T08:43:01Z</time>
      </trkpt>
      <trkpt lat="45.12355" lon="-1.16676">
        <ele>22</ele>
        <time>2019-04-28T08:43:13Z</time>
      </trkpt>
      <trkpt lat="45.12661" lon="-1.16792">
        <ele>19</ele>
        <time>2019-04-28T08:44:07Z</time>
      </trkpt>
      <trkpt lat="45.12811" lon="-1.16775">
        <ele>19</ele>
        <time>2019-04-28T08:44:43Z</time>
      </trkpt>
      <trkpt lat="45.12849" lon="-1.16739">
        <ele>19</ele>
        <time>2019-04-28T08:44:55Z</time>
      </trkpt>
      <trkpt lat="45.12923" lon="-1.16629">
        <ele>25</ele>
        <time>2019-04-28T08:45:19Z</time>
      </trkpt>
      <trkpt lat="45.13067" lon="-1.1645">
        <ele>22</ele>
        <time>2019-04-28T08:45:55Z</time>
      </trkpt>
      <trkpt lat="45.1313" lon="-1.16356">
        <ele>23</ele>
        <time>2019-04-28T08:46:13Z</time>
      </trkpt>
      <trkpt lat="45.13187" lon="-1.16325">
        <ele>27</ele>
        <time>2019-04-28T08:46:25Z</time>
      </trkpt>
      <trkpt lat="45.13368" lon="-1.16328">
        <ele>21</ele>
        <time>2019-04-28T08:47:01Z</time>
      </trkpt>
      <trkpt lat="45.13411" lon="-1.16356">
        <ele>21</ele>
        <time>2019-04-28T08:47:13Z</time>
      </trkpt>
      <trkpt lat="45.1354" lon="-1.16497">
        <ele>19</ele>
        <time>2019-04-28T08:47:49Z</time>
      </trkpt>
      <trkpt lat="45.13619" lon="-1.16562">
        <ele>22</ele>
        <time>2019-04-28T08:48:07Z</time>
      </trkpt>
      <trkpt lat="45.1368" lon="-1.16592">
        <ele>20</ele>
        <time>2019-04-28T08:48:19Z</time>
      </trkpt>
      <trkpt lat="45.13742" lon="-1.16596">
        <ele>19</ele>
        <time>2019-04-28T08:48:31Z</time>
      </trkpt>
      <trkpt lat="45.13776" lon="-1.16586">
        <ele>19</ele>
        <time>2019-04-28T08:48:37Z</time>
      </trkpt>
      <trkpt lat="45.13898" lon="-1.16442">
        <ele>25</ele>
        <time>2019-04-28T08:49:07Z</time>
      </trkpt>
      <trkpt lat="45.13946" lon="-1.16403">
        <ele>21</ele>
        <time>2019-04-28T08:49:19Z</time>
      </trkpt>
      <trkpt lat="45.14129" lon="-1.16365">
        <ele>20</ele>
        <time>2019-04-28T08:50:01Z</time>
      </trkpt>
      <trkpt lat="45.1436" lon="-1.16296">
        <ele>22</ele>
        <time>2019-04-28T08:50:55Z</time>
      </trkpt>
      <trkpt lat="45.14407" lon="-1.16307">
        <ele>22</ele>
        <time>2019-04-28T08:51:07Z</time>
      </trkpt>
      <trkpt lat="45.1457" lon="-1.16453">
        <ele>21</ele>
        <time>2019-04-28T08:51:49Z</time>
      </trkpt>
      <trkpt lat="45.14647" lon="-1.16504">
        <ele>20</ele>
        <time>2019-04-28T08:52:07Z</time>
      </trkpt>
      <trkpt lat="45.14744" lon="-1.16499">
        <ele>21</ele>
        <time>2019-04-28T08:52:31Z</time>
      </trkpt>
      <trkpt lat="45.14952" lon="-1.16465">
        <ele>22</ele>
        <time>2019-04-28T08:53:19Z</time>
      </trkpt>
      <trkpt lat="45.15046" lon="-1.16408">
        <ele>17</ele>
        <time>2019-04-28T08:53:43Z</time>
      </trkpt>
      <trkpt lat="45.15265" lon="-1.16155">
        <ele>14</ele>
        <time>2019-04-28T08:54:43Z</time>
      </trkpt>
      <trkpt lat="45.15427" lon="-1.16092">
        <ele>14</ele>
        <time>2019-04-28T08:55:19Z</time>
      </trkpt>
      <trkpt lat="45.15531" lon="-1.16022">
        <ele>16</ele>
        <time>2019-04-28T08:55:43Z</time>
      </trkpt>
      <trkpt lat="45.15608" lon="-1.15983">
        <ele>18</ele>
        <time>2019-04-28T08:56:01Z</time>
      </trkpt>
      <trkpt lat="45.15663" lon="-1.15988">
        <ele>18</ele>
        <time>2019-04-28T08:56:13Z</time>
      </trkpt>
      <trkpt lat="45.15772" lon="-1.16019">
        <ele>30</ele>
        <time>2019-04-28T08:56:43Z</time>
      </trkpt>
      <trkpt lat="45.1588" lon="-1.16117">
        <ele>26</ele>
        <time>2019-04-28T08:57:13Z</time>
      </trkpt>
      <trkpt lat="45.15981" lon="-1.16145">
        <ele>18</ele>
        <time>2019-04-28T08:57:31Z</time>
      </trkpt>
      <trkpt lat="45.16264" lon="-1.16141">
        <ele>19</ele>
        <time>2019-04-28T08:58:25Z</time>
      </trkpt>
      <trkpt lat="45.16616" lon="-1.16074">
        <ele>18</ele>
        <time>2019-04-28T08:59:37Z</time>
      </trkpt>
      <trkpt lat="45.167" lon="-1.16045">
        <ele>21</ele>
        <time>2019-04-28T08:59:55Z</time>
      </trkpt>
      <trkpt lat="45.16846" lon="-1.15956">
        <ele>19</ele>
        <time>2019-04-28T09:00:31Z</time>
      </trkpt>
      <trkpt lat="45.16868" lon="-1.15936">
        <ele>19</ele>
        <time>2019-04-28T09:00:37Z</time>
      </trkpt>
      <trkpt lat="45.16987" lon="-1.15778">
        <ele>22</ele>
        <time>2019-04-28T09:01:13Z</time>
      </trkpt>
      <trkpt lat="45.17128" lon="-1.15708">
        <ele>20</ele>
        <time>2019-04-28T09:01:43Z</time>
      </trkpt>
      <trkpt lat="45.17261" lon="-1.15598">
        <ele>23</ele>
        <time>2019-04-28T09:02:25Z</time>
      </trkpt>
      <trkpt lat="45.17293" lon="-1.15552">
        <ele>23</ele>
        <time>2019-04-28T09:02:37Z</time>
      </trkpt>
      <trkpt lat="45.17365" lon="-1.15418">
        <ele>16</ele>
        <time>2019-04-28T09:02:55Z</time>
      </trkpt>
      <trkpt lat="45.17505" lon="-1.15244">
        <ele>18</ele>
        <time>2019-04-28T09:03:31Z</time>
      </trkpt>
      <trkpt lat="45.17624" lon="-1.15186">
        <ele>21</ele>
        <time>2019-04-28T09:04:01Z</time>
      </trkpt>
      <trkpt lat="45.17702" lon="-1.15169">
        <ele>21</ele>
        <time>2019-04-28T09:04:19Z</time>
      </trkpt>
      <trkpt lat="45.1786" lon="-1.15183">
        <ele>21</ele>
        <time>2019-04-28T09:04:55Z</time>
      </trkpt>
      <trkpt lat="45.17986" lon="-1.15262">
        <ele>20</ele>
        <time>2019-04-28T09:05:19Z</time>
      </trkpt>
      <trkpt lat="45.18133" lon="-1.15399">
        <ele>19</ele>
        <time>2019-04-28T09:05:55Z</time>
      </trkpt>
      <trkpt lat="45.18277" lon="-1.15465">
        <ele>19</ele>
        <time>2019-04-28T09:06:31Z</time>
      </trkpt>
      <trkpt lat="45.18412" lon="-1.15484">
        <ele>19</ele>
        <time>2019-04-28T09:07:01Z</time>
      </trkpt>
      <trkpt lat="45.18569" lon="-1.15526">
        <ele>18</ele>
        <time>2019-04-28T09:07:37Z</time>
      </trkpt>
      <trkpt lat="45.18687" lon="-1.15543">
        <ele>18</ele>
        <time>2019-04-28T09:08:01Z</time>
      </trkpt>
      <trkpt lat="45.18905" lon="-1.15604">
        <ele>25</ele>
        <time>2019-04-28T09:08:49Z</time>
      </trkpt>
      <trkpt lat="45.1904" lon="-1.1567">
        <ele>19</ele>
        <time>2019-04-28T09:09:19Z</time>
      </trkpt>
      <trkpt lat="45.19129" lon="-1.15702">
        <ele>17</ele>
        <time>2019-04-28T09:09:37Z</time>
      </trkpt>
      <trkpt lat="45.19222" lon="-1.15722">
        <ele>19</ele>
        <time>2019-04-28T09:10:01Z</time>
      </trkpt>
      <trkpt lat="45.19267" lon="-1.15719">
        <ele>19</ele>
        <time>2019-04-28T09:10:13Z</time>
      </trkpt>
      <trkpt lat="45.1933" lon="-1.1568">
        <ele>22</ele>
        <time>2019-04-28T09:10:31Z</time>
      </trkpt>
      <trkpt lat="45.1951" lon="-1.15457">
        <ele>22</ele>
        <time>2019-04-28T09:11:19Z</time>
      </trkpt>
      <trkpt lat="45.19567" lon="-1.15369">
        <ele>23</ele>
        <time>2019-04-28T09:11:31Z</time>
      </trkpt>
      <trkpt lat="45.19613" lon="-1.15315">
        <ele>22</ele>
        <time>2019-04-28T09:11:43Z</time>
      </trkpt>
      <trkpt lat="45.19678" lon="-1.15287">
        <ele>21</ele>
        <time>2019-04-28T09:11:55Z</time>
      </trkpt>
      <trkpt lat="45.19737" lon="-1.15284">
        <ele>21</ele>
        <time>2019-04-28T09:12:07Z</time>
      </trkpt>
      <trkpt lat="45.1979" lon="-1.15269">
        <ele>22</ele>
        <time>2019-04-28T09:12:19Z</time>
      </trkpt>
      <trkpt lat="45.19902" lon="-1.15287">
        <ele>22</ele>
        <time>2019-04-28T09:12:49Z</time>
      </trkpt>
      <trkpt lat="45.19959" lon="-1.15319">
        <ele>22</ele>
        <time>2019-04-28T09:13:01Z</time>
      </trkpt>
      <trkpt lat="45.19994" lon="-1.15318">
        <ele>22</ele>
        <time>2019-04-28T09:13:07Z</time>
      </trkpt>
      <trkpt lat="45.20088" lon="-1.15342">
        <ele>25</ele>
        <time>2019-04-28T09:13:25Z</time>
      </trkpt>
      <trkpt lat="45.20318" lon="-1.15417">
        <ele>27</ele>
        <time>2019-04-28T09:14:25Z</time>
      </trkpt>
      <trkpt lat="45.20386" lon="-1.15462">
        <ele>23</ele>
        <time>2019-04-28T09:14:43Z</time>
      </trkpt>
      <trkpt lat="45.20509" lon="-1.15508">
        <ele>20</ele>
        <time>2019-04-28T09:15:13Z</time>
      </trkpt>
      <trkpt lat="45.20722" lon="-1.15616">
        <ele>17</ele>
        <time>2019-04-28T09:16:07Z</time>
      </trkpt>
      <trkpt lat="45.2091" lon="-1.15694">
        <ele>19</ele>
        <time>2019-04-28T09:16:55Z</time>
      </trkpt>
      <trkpt lat="45.20979" lon="-1.15729">
        <ele>22</ele>
        <time>2019-04-28T09:17:19Z</time>
      </trkpt>
      <trkpt lat="45.21092" lon="-1.15805">
        <ele>28</ele>
        <time>2019-04-28T09:17:55Z</time>
      </trkpt>
      <trkpt lat="45.21221" lon="-1.1586">
        <ele>21</ele>
        <time>2019-04-28T09:18:19Z</time>
      </trkpt>
      <trkpt lat="45.21306" lon="-1.15868">
        <ele>22</ele>
        <time>2019-04-28T09:18:31Z</time>
      </trkpt>
      <trkpt lat="45.2143" lon="-1.1585">
        <ele>21</ele>
        <time>2019-04-28T09:18:55Z</time>
      </trkpt>
      <trkpt lat="45.21578" lon="-1.15814">
        <ele>22</ele>
        <time>2019-04-28T09:19:31Z</time>
      </trkpt>
      <trkpt lat="45.21631" lon="-1.1582">
        <ele>23</ele>
        <time>2019-04-28T09:19:43Z</time>
      </trkpt>
      <trkpt lat="45.21713" lon="-1.15809">
        <ele>23</ele>
        <time>2019-04-28T09:20:01Z</time>
      </trkpt>
      <trkpt lat="45.21801" lon="-1.15772">
        <ele>22</ele>
        <time>2019-04-28T09:20:19Z</time>
      </trkpt>
      <trkpt lat="45.21858" lon="-1.15761">
        <ele>24</ele>
        <time>2019-04-28T09:20:31Z</time>
      </trkpt>
      <trkpt lat="45.21888" lon="-1.15758">
        <ele>24</ele>
        <time>2019-04-28T09:20:47Z</time>
      </trkpt>
      <trkpt lat="45.21899" lon="-1.15773">
        <ele>22</ele>
        <time>2019-04-28T09:20:59Z</time>
      </trkpt>
      <trkpt lat="45.21906" lon="-1.15767">
        <ele>24</ele>
        <time>2019-04-28T09:21:04Z</time>
      </trkpt>
      <trkpt lat="45.21901" lon="-1.15774">
        <ele>22</ele>
        <time>2019-04-28T09:21:08Z</time>
      </trkpt>
      <trkpt lat="45.219" lon="-1.15764">
        <ele>24</ele>
        <time>2019-04-28T09:21:10Z</time>
      </trkpt>
      <trkpt lat="45.21942" lon="-1.15762">
        <ele>24</ele>
        <time>2019-04-28T09:21:38Z</time>
      </trkpt>
      <trkpt lat="45.2195" lon="-1.15749">
        <ele>24</ele>
        <time>2019-04-28T09:21:56Z</time>
      </trkpt>
      <trkpt lat="45.21964" lon="-1.15755">
        <ele>24</ele>
        <time>2019-04-28T09:22:04Z</time>
      </trkpt>
      <trkpt lat="45.22046" lon="-1.15748">
        <ele>23</ele>
        <time>2019-04-28T09:22:28Z</time>
      </trkpt>
      <trkpt lat="45.22204" lon="-1.15763">
        <ele>21</ele>
        <time>2019-04-28T09:23:16Z</time>
      </trkpt>
      <trkpt lat="45.22228" lon="-1.15757">
        <ele>21</ele>
        <time>2019-04-28T09:23:27Z</time>
      </trkpt>
      <trkpt lat="45.22237" lon="-1.15773">
        <ele>22</ele>
        <time>2019-04-28T09:23:39Z</time>
      </trkpt>
      <trkpt lat="45.2234" lon="-1.1573">
        <ele>21</ele>
        <time>2019-04-28T09:24:21Z</time>
      </trkpt>
      <trkpt lat="45.22372" lon="-1.15757">
        <ele>21</ele>
        <time>2019-04-28T09:24:39Z</time>
      </trkpt>
      <trkpt lat="45.22402" lon="-1.15756">
        <ele>21</ele>
        <time>2019-04-28T09:24:51Z</time>
      </trkpt>
      <trkpt lat="45.22581" lon="-1.15712">
        <ele>21</ele>
        <time>2019-04-28T09:25:51Z</time>
      </trkpt>
      <trkpt lat="45.22679" lon="-1.1566">
        <ele>19</ele>
        <time>2019-04-28T09:26:21Z</time>
      </trkpt>
      <trkpt lat="45.22873" lon="-1.15602">
        <ele>20</ele>
        <time>2019-04-28T09:27:03Z</time>
      </trkpt>
      <trkpt lat="45.22918" lon="-1.15597">
        <ele>20</ele>
        <time>2019-04-28T09:27:21Z</time>
      </trkpt>
      <trkpt lat="45.23061" lon="-1.15541">
        <ele>28</ele>
        <time>2019-04-28T09:28:21Z</time>
      </trkpt>
      <trkpt lat="45.23135" lon="-1.15521">
        <ele>28</ele>
        <time>2019-04-28T09:28:51Z</time>
      </trkpt>
      <trkpt lat="45.23145" lon="-1.15519">
        <ele>27</ele>
        <time>2019-04-28T09:28:57Z</time>
      </trkpt>
      <trkpt lat="45.23144" lon="-1.15526">
        <ele>27</ele>
        <time>2019-04-28T09:29:07Z</time>
      </trkpt>
      <trkpt lat="45.23207" lon="-1.15496">
        <ele>27</ele>
        <time>2019-04-28T09:29:29Z</time>
      </trkpt>
      <trkpt lat="45.23916" lon="-1.15274">
        <ele>18</ele>
        <time>2019-04-28T09:31:47Z</time>
      </trkpt>
      <trkpt lat="45.24412" lon="-1.15103">
        <ele>18</ele>
        <time>2019-04-28T09:33:47Z</time>
      </trkpt>
      <trkpt lat="45.24477" lon="-1.15088">
        <ele>18</ele>
        <time>2019-04-28T09:34:05Z</time>
      </trkpt>
      <trkpt lat="45.24588" lon="-1.15041">
        <ele>21</ele>
        <time>2019-04-28T09:34:35Z</time>
      </trkpt>
      <trkpt lat="45.247" lon="-1.15011">
        <ele>24</ele>
        <time>2019-04-28T09:35:05Z</time>
      </trkpt>
      <trkpt lat="45.24934" lon="-1.1492">
        <ele>22</ele>
        <time>2019-04-28T09:35:59Z</time>
      </trkpt>
      <trkpt lat="45.25312" lon="-1.14796">
        <ele>20</ele>
        <time>2019-04-28T09:37:29Z</time>
      </trkpt>
      <trkpt lat="45.25659" lon="-1.14669">
        <ele>21</ele>
        <time>2019-04-28T09:39:05Z</time>
      </trkpt>
      <trkpt lat="45.25949" lon="-1.14582">
        <ele>21</ele>
        <time>2019-04-28T09:40:11Z</time>
      </trkpt>
      <trkpt lat="45.26521" lon="-1.14386">
        <ele>19</ele>
        <time>2019-04-28T09:42:35Z</time>
      </trkpt>
      <trkpt lat="45.26657" lon="-1.1433">
        <ele>21</ele>
        <time>2019-04-28T09:43:11Z</time>
      </trkpt>
      <trkpt lat="45.26738" lon="-1.14314">
        <ele>22</ele>
        <time>2019-04-28T09:43:41Z</time>
      </trkpt>
      <trkpt lat="45.26884" lon="-1.14253">
        <ele>21</ele>
        <time>2019-04-28T09:44:17Z</time>
      </trkpt>
      <trkpt lat="45.27046" lon="-1.14209">
        <ele>22</ele>
        <time>2019-04-28T09:44:59Z</time>
      </trkpt>
      <trkpt lat="45.27324" lon="-1.14114">
        <ele>23</ele>
        <time>2019-04-28T09:46:05Z</time>
      </trkpt>
      <trkpt lat="45.27512" lon="-1.14048">
        <ele>20</ele>
        <time>2019-04-28T09:46:47Z</time>
      </trkpt>
      <trkpt lat="45.27709" lon="-1.13967">
        <ele>20</ele>
        <time>2019-04-28T09:47:35Z</time>
      </trkpt>
      <trkpt lat="45.28345" lon="-1.13743">
        <ele>19</ele>
        <time>2019-04-28T09:49:59Z</time>
      </trkpt>
      <trkpt lat="45.28452" lon="-1.13695">
        <ele>21</ele>
        <time>2019-04-28T09:50:23Z</time>
      </trkpt>
      <trkpt lat="45.28765" lon="-1.13588">
        <ele>19</ele>
        <time>2019-04-28T09:51:35Z</time>
      </trkpt>
      <trkpt lat="45.28899" lon="-1.13531">
        <ele>20</ele>
        <time>2019-04-28T09:52:05Z</time>
      </trkpt>
      <trkpt lat="45.28953" lon="-1.13519">
        <ele>21</ele>
        <time>2019-04-28T09:52:17Z</time>
      </trkpt>
      <trkpt lat="45.29466" lon="-1.13325">
        <ele>21</ele>
        <time>2019-04-28T09:54:11Z</time>
      </trkpt>
      <trkpt lat="45.29631" lon="-1.13271">
        <ele>20</ele>
        <time>2019-04-28T09:54:47Z</time>
      </trkpt>
      <trkpt lat="45.29867" lon="-1.13178">
        <ele>18</ele>
        <time>2019-04-28T09:55:47Z</time>
      </trkpt>
      <trkpt lat="45.29945" lon="-1.13181">
        <ele>20</ele>
        <time>2019-04-28T09:56:05Z</time>
      </trkpt>
      <trkpt lat="45.29992" lon="-1.13204">
        <ele>20</ele>
        <time>2019-04-28T09:56:17Z</time>
      </trkpt>
      <trkpt lat="45.30402" lon="-1.13579">
        <ele>19</ele>
        <time>2019-04-28T09:58:05Z</time>
      </trkpt>
      <trkpt lat="45.30465" lon="-1.1365">
        <ele>19</ele>
        <time>2019-04-28T09:58:23Z</time>
      </trkpt>
      <trkpt lat="45.30577" lon="-1.13736">
        <ele>20</ele>
        <time>2019-04-28T09:58:53Z</time>
      </trkpt>
      <trkpt lat="45.30604" lon="-1.13749">
        <ele>18</ele>
        <time>2019-04-28T09:58:59Z</time>
      </trkpt>
      <trkpt lat="45.30685" lon="-1.13764">
        <ele>17</ele>
        <time>2019-04-28T09:59:17Z</time>
      </trkpt>
      <trkpt lat="45.30817" lon="-1.13723">
        <ele>19</ele>
        <time>2019-04-28T09:59:47Z</time>
      </trkpt>
      <trkpt lat="45.31186" lon="-1.13637">
        <ele>21</ele>
        <time>2019-04-28T10:01:05Z</time>
      </trkpt>
      <trkpt lat="45.31473" lon="-1.13551">
        <ele>22</ele>
        <time>2019-04-28T10:02:11Z</time>
      </trkpt>
      <trkpt lat="45.31805" lon="-1.13468">
        <ele>18</ele>
        <time>2019-04-28T10:03:17Z</time>
      </trkpt>
      <trkpt lat="45.32302" lon="-1.13316">
        <ele>19</ele>
        <time>2019-04-28T10:05:05Z</time>
      </trkpt>
      <trkpt lat="45.32346" lon="-1.13323">
        <ele>19</ele>
        <time>2019-04-28T10:05:17Z</time>
      </trkpt>
      <trkpt lat="45.32359" lon="-1.13347">
        <ele>19</ele>
        <time>2019-04-28T10:05:23Z</time>
      </trkpt>
      <trkpt lat="45.32392" lon="-1.13486">
        <ele>17</ele>
        <time>2019-04-28T10:05:47Z</time>
      </trkpt>
      <trkpt lat="45.32566" lon="-1.14249">
        <ele>17</ele>
        <time>2019-04-28T10:08:11Z</time>
      </trkpt>
      <trkpt lat="45.32586" lon="-1.14842">
        <ele>16</ele>
        <time>2019-04-28T10:10:16Z</time>
      </trkpt>
      <trkpt lat="45.32605" lon="-1.14839">
        <ele>16</ele>
        <time>2019-04-28T10:10:22Z</time>
      </trkpt>
      <trkpt lat="45.32645" lon="-1.14815">
        <ele>15</ele>
        <time>2019-04-28T10:10:34Z</time>
      </trkpt>
      <trkpt lat="45.3283" lon="-1.14798">
        <ele>17</ele>
        <time>2019-04-28T10:11:16Z</time>
      </trkpt>
      <trkpt lat="45.32875" lon="-1.14817">
        <ele>17</ele>
        <time>2019-04-28T10:11:28Z</time>
      </trkpt>
      <trkpt lat="45.32946" lon="-1.14784">
        <ele>17</ele>
        <time>2019-04-28T10:11:46Z</time>
      </trkpt>
      <trkpt lat="45.33108" lon="-1.14769">
        <ele>14</ele>
        <time>2019-04-28T10:12:22Z</time>
      </trkpt>
      <trkpt lat="45.33153" lon="-1.14789">
        <ele>14</ele>
        <time>2019-04-28T10:12:34Z</time>
      </trkpt>
      <trkpt lat="45.33197" lon="-1.14755">
        <ele>14</ele>
        <time>2019-04-28T10:12:46Z</time>
      </trkpt>
      <trkpt lat="45.33402" lon="-1.14735">
        <ele>14</ele>
        <time>2019-04-28T10:13:40Z</time>
      </trkpt>
      <trkpt lat="45.33437" lon="-1.14757">
        <ele>14</ele>
        <time>2019-04-28T10:13:52Z</time>
      </trkpt>
      <trkpt lat="45.33499" lon="-1.14727">
        <ele>15</ele>
        <time>2019-04-28T10:14:10Z</time>
      </trkpt>
      <trkpt lat="45.33693" lon="-1.14716">
        <ele>15</ele>
        <time>2019-04-28T10:15:04Z</time>
      </trkpt>
      <trkpt lat="45.33747" lon="-1.14739">
        <ele>15</ele>
        <time>2019-04-28T10:15:22Z</time>
      </trkpt>
      <trkpt lat="45.33764" lon="-1.14719">
        <ele>15</ele>
        <time>2019-04-28T10:15:28Z</time>
      </trkpt>
      <trkpt lat="45.3388" lon="-1.14704">
        <ele>16</ele>
        <time>2019-04-28T10:15:58Z</time>
      </trkpt>
      <trkpt lat="45.33972" lon="-1.14699">
        <ele>17</ele>
        <time>2019-04-28T10:16:22Z</time>
      </trkpt>
      <trkpt lat="45.34012" lon="-1.14721">
        <ele>17</ele>
        <time>2019-04-28T10:16:34Z</time>
      </trkpt>
      <trkpt lat="45.34082" lon="-1.14691">
        <ele>17</ele>
        <time>2019-04-28T10:16:52Z</time>
      </trkpt>
      <trkpt lat="45.34257" lon="-1.14681">
        <ele>17</ele>
        <time>2019-04-28T10:17:34Z</time>
      </trkpt>
      <trkpt lat="45.34323" lon="-1.14698">
        <ele>17</ele>
        <time>2019-04-28T10:17:52Z</time>
      </trkpt>
      <trkpt lat="45.3436" lon="-1.14676">
        <ele>16</ele>
        <time>2019-04-28T10:18:04Z</time>
      </trkpt>
      <trkpt lat="45.34511" lon="-1.14663">
        <ele>17</ele>
        <time>2019-04-28T10:18:46Z</time>
      </trkpt>
      <trkpt lat="45.34553" lon="-1.14669">
        <ele>15</ele>
        <time>2019-04-28T10:18:58Z</time>
      </trkpt>
      <trkpt lat="45.34597" lon="-1.1465">
        <ele>15</ele>
        <time>2019-04-28T10:19:16Z</time>
      </trkpt>
      <trkpt lat="45.34763" lon="-1.14646">
        <ele>13</ele>
        <time>2019-04-28T10:20:04Z</time>
      </trkpt>
      <trkpt lat="45.3481" lon="-1.14633">
        <ele>13</ele>
        <time>2019-04-28T10:20:16Z</time>
      </trkpt>
      <trkpt lat="45.34848" lon="-1.14635">
        <ele>14</ele>
        <time>2019-04-28T10:20:28Z</time>
      </trkpt>
      <trkpt lat="45.34898" lon="-1.14608">
        <ele>14</ele>
        <time>2019-04-28T10:20:46Z</time>
      </trkpt>
      <trkpt lat="45.34922" lon="-1.14623">
        <ele>14</ele>
        <time>2019-04-28T10:20:52Z</time>
      </trkpt>
      <trkpt lat="45.34974" lon="-1.14626">
        <ele>16</ele>
        <time>2019-04-28T10:21:04Z</time>
      </trkpt>
      <trkpt lat="45.35115" lon="-1.14616">
        <ele>15</ele>
        <time>2019-04-28T10:21:40Z</time>
      </trkpt>
      <trkpt lat="45.35183" lon="-1.14573">
        <ele>15</ele>
        <time>2019-04-28T10:21:58Z</time>
      </trkpt>
      <trkpt lat="45.35223" lon="-1.14597">
        <ele>16</ele>
        <time>2019-04-28T10:22:10Z</time>
      </trkpt>
      <trkpt lat="45.35395" lon="-1.1459">
        <ele>16</ele>
        <time>2019-04-28T10:22:52Z</time>
      </trkpt>
      <trkpt lat="45.35463" lon="-1.14564">
        <ele>14</ele>
        <time>2019-04-28T10:23:10Z</time>
      </trkpt>
      <trkpt lat="45.3551" lon="-1.14575">
        <ele>13</ele>
        <time>2019-04-28T10:23:22Z</time>
      </trkpt>
      <trkpt lat="45.35701" lon="-1.14571">
        <ele>12</ele>
        <time>2019-04-28T10:24:10Z</time>
      </trkpt>
      <trkpt lat="45.35766" lon="-1.14543">
        <ele>12</ele>
        <time>2019-04-28T10:24:28Z</time>
      </trkpt>
      <trkpt lat="45.35786" lon="-1.14554">
        <ele>12</ele>
        <time>2019-04-28T10:24:34Z</time>
      </trkpt>
      <trkpt lat="45.35837" lon="-1.14557">
        <ele>13</ele>
        <time>2019-04-28T10:24:46Z</time>
      </trkpt>
      <trkpt lat="45.35862" lon="-1.14549">
        <ele>13</ele>
        <time>2019-04-28T10:24:52Z</time>
      </trkpt>
      <trkpt lat="45.36002" lon="-1.14548">
        <ele>14</ele>
        <time>2019-04-28T10:25:28Z</time>
      </trkpt>
      <trkpt lat="45.36052" lon="-1.14529">
        <ele>11</ele>
        <time>2019-04-28T10:25:40Z</time>
      </trkpt>
      <trkpt lat="45.36124" lon="-1.14536">
        <ele>13</ele>
        <time>2019-04-28T10:25:58Z</time>
      </trkpt>
      <trkpt lat="45.362" lon="-1.14531">
        <ele>11</ele>
        <time>2019-04-28T10:26:16Z</time>
      </trkpt>
      <trkpt lat="45.36291" lon="-1.14516">
        <ele>11</ele>
        <time>2019-04-28T10:26:40Z</time>
      </trkpt>
      <trkpt lat="45.36334" lon="-1.14496">
        <ele>11</ele>
        <time>2019-04-28T10:26:52Z</time>
      </trkpt>
      <trkpt lat="45.36379" lon="-1.14511">
        <ele>12</ele>
        <time>2019-04-28T10:27:04Z</time>
      </trkpt>
      <trkpt lat="45.36578" lon="-1.14504">
        <ele>13</ele>
        <time>2019-04-28T10:27:52Z</time>
      </trkpt>
      <trkpt lat="45.36628" lon="-1.14475">
        <ele>13</ele>
        <time>2019-04-28T10:28:04Z</time>
      </trkpt>
      <trkpt lat="45.367" lon="-1.14482">
        <ele>15</ele>
        <time>2019-04-28T10:28:22Z</time>
      </trkpt>
      <trkpt lat="45.36928" lon="-1.14464">
        <ele>14</ele>
        <time>2019-04-28T10:29:22Z</time>
      </trkpt>
      <trkpt lat="45.36939" lon="-1.14471">
        <ele>14</ele>
        <time>2019-04-28T10:29:28Z</time>
      </trkpt>
      <trkpt lat="45.36936" lon="-1.1448">
        <ele>14</ele>
        <time>2019-04-28T10:29:34Z</time>
      </trkpt>
      <trkpt lat="45.36955" lon="-1.14504">
        <ele>14</ele>
        <time>2019-04-28T10:29:46Z</time>
      </trkpt>
      <trkpt lat="45.37185" lon="-1.14496">
        <ele>13</ele>
        <time>2019-04-28T10:30:52Z</time>
      </trkpt>
      <trkpt lat="45.37204" lon="-1.14507">
        <ele>13</ele>
        <time>2019-04-28T10:31:06Z</time>
      </trkpt>
      <trkpt lat="45.37207" lon="-1.1467">
        <ele>15</ele>
        <time>2019-04-28T10:31:42Z</time>
      </trkpt>
      <trkpt lat="45.37199" lon="-1.14803">
        <ele>15</ele>
        <time>2019-04-28T10:32:06Z</time>
      </trkpt>
      <trkpt lat="45.37202" lon="-1.14917">
        <ele>16</ele>
        <time>2019-04-28T10:32:30Z</time>
      </trkpt>
      <trkpt lat="45.37213" lon="-1.1502">
        <ele>17</ele>
        <time>2019-04-28T10:32:48Z</time>
      </trkpt>
      <trkpt lat="45.37207" lon="-1.15169">
        <ele>16</ele>
        <time>2019-04-28T10:33:18Z</time>
      </trkpt>
      <trkpt lat="45.37214" lon="-1.15261">
        <ele>16</ele>
        <time>2019-04-28T10:33:48Z</time>
      </trkpt>
      <trkpt lat="45.37416" lon="-1.15492">
        <ele>13</ele>
        <time>2019-04-28T10:34:48Z</time>
      </trkpt>
      <trkpt lat="45.37488" lon="-1.15529">
        <ele>12</ele>
        <time>2019-04-28T10:35:06Z</time>
      </trkpt>
      <trkpt lat="45.37586" lon="-1.15542">
        <ele>9</ele>
        <time>2019-04-28T10:35:30Z</time>
      </trkpt>
      <trkpt lat="45.37617" lon="-1.15555">
        <ele>9</ele>
        <time>2019-04-28T10:35:42Z</time>
      </trkpt>
      <trkpt lat="45.37605" lon="-1.15771">
        <ele>9</ele>
        <time>2019-04-28T10:36:24Z</time>
      </trkpt>
      <trkpt lat="45.37638" lon="-1.1579">
        <ele>8</ele>
        <time>2019-04-28T10:36:36Z</time>
      </trkpt>
      <trkpt lat="45.37764" lon="-1.15814">
        <ele>9</ele>
        <time>2019-04-28T10:37:18Z</time>
      </trkpt>
      <trkpt lat="45.37802" lon="-1.1582">
        <ele>9</ele>
        <time>2019-04-28T10:37:30Z</time>
      </trkpt>
      <trkpt lat="45.37816" lon="-1.15811">
        <ele>9</ele>
        <time>2019-04-28T10:37:50Z</time>
      </trkpt>
      <trkpt lat="45.37823" lon="-1.15822">
        <ele>9</ele>
        <time>2019-04-28T10:37:56Z</time>
      </trkpt>
      <trkpt lat="45.37832" lon="-1.15877">
        <ele>9</ele>
        <time>2019-04-28T10:38:32Z</time>
      </trkpt>
      <trkpt lat="45.37834" lon="-1.15885">
        <ele>9</ele>
        <time>2019-04-28T10:38:40Z</time>
      </trkpt>
      <trkpt lat="45.37818" lon="-1.15797">
        <ele>9</ele>
        <time>2019-04-28T10:39:31Z</time>
      </trkpt>
      <trkpt lat="45.37827" lon="-1.15712">
        <ele>10</ele>
        <time>2019-04-28T10:40:01Z</time>
      </trkpt>
      <trkpt lat="45.3784" lon="-1.15302">
        <ele>11</ele>
        <time>2019-04-28T10:41:55Z</time>
      </trkpt>
      <trkpt lat="45.37788" lon="-1.14946">
        <ele>11</ele>
        <time>2019-04-28T10:43:13Z</time>
      </trkpt>
      <trkpt lat="45.3777" lon="-1.14891">
        <ele>11</ele>
        <time>2019-04-28T10:43:31Z</time>
      </trkpt>
      <trkpt lat="45.38112" lon="-1.14931">
        <ele>13</ele>
        <time>2019-04-28T10:45:29Z</time>
      </trkpt>
      <trkpt lat="45.38442" lon="-1.14955">
        <ele>12</ele>
        <time>2019-04-28T10:47:21Z</time>
      </trkpt>
      <trkpt lat="45.38453" lon="-1.14858">
        <ele>13</ele>
        <time>2019-04-28T10:47:47Z</time>
      </trkpt>
      <trkpt lat="45.38451" lon="-1.14799">
        <ele>13</ele>
        <time>2019-04-28T10:47:59Z</time>
      </trkpt>
      <trkpt lat="45.38477" lon="-1.1438">
        <ele>12</ele>
        <time>2019-04-28T10:49:23Z</time>
      </trkpt>
      <trkpt lat="45.38503" lon="-1.14363">
        <ele>14</ele>
        <time>2019-04-28T10:49:35Z</time>
      </trkpt>
      <trkpt lat="45.38556" lon="-1.14363">
        <ele>14</ele>
        <time>2019-04-28T10:49:53Z</time>
      </trkpt>
      <trkpt lat="45.38613" lon="-1.1435">
        <ele>14</ele>
        <time>2019-04-28T10:50:11Z</time>
      </trkpt>
      <trkpt lat="45.38644" lon="-1.14361">
        <ele>14</ele>
        <time>2019-04-28T10:50:23Z</time>
      </trkpt>
      <trkpt lat="45.38625" lon="-1.1425">
        <ele>13</ele>
        <time>2019-04-28T10:50:47Z</time>
      </trkpt>
      <trkpt lat="45.38548" lon="-1.13927">
        <ele>13</ele>
        <time>2019-04-28T10:51:41Z</time>
      </trkpt>
      <trkpt lat="45.38513" lon="-1.13743">
        <ele>13</ele>
        <time>2019-04-28T10:52:11Z</time>
      </trkpt>
      <trkpt lat="45.38454" lon="-1.1351">
        <ele>12</ele>
        <time>2019-04-28T10:52:47Z</time>
      </trkpt>
      <trkpt lat="45.3839" lon="-1.13199">
        <ele>11</ele>
        <time>2019-04-28T10:53:29Z</time>
      </trkpt>
      <trkpt lat="45.38469" lon="-1.13185">
        <ele>11</ele>
        <time>2019-04-28T10:53:47Z</time>
      </trkpt>
      <trkpt lat="45.40885" lon="-1.12997">
        <ele>16</ele>
        <time>2019-04-28T11:03:23Z</time>
      </trkpt>
      <trkpt lat="45.40984" lon="-1.12992">
        <ele>15</ele>
        <time>2019-04-28T11:03:53Z</time>
      </trkpt>
      <trkpt lat="45.40993" lon="-1.13009">
        <ele>15</ele>
        <time>2019-04-28T11:03:59Z</time>
      </trkpt>
      <trkpt lat="45.40991" lon="-1.13061">
        <ele>17</ele>
        <time>2019-04-28T11:04:11Z</time>
      </trkpt>
      <trkpt lat="45.41008" lon="-1.13078">
        <ele>17</ele>
        <time>2019-04-28T11:04:23Z</time>
      </trkpt>
      <trkpt lat="45.41039" lon="-1.13038">
        <ele>17</ele>
        <time>2019-04-28T11:04:35Z</time>
      </trkpt>
      <trkpt lat="45.41083" lon="-1.13023">
        <ele>19</ele>
        <time>2019-04-28T11:04:47Z</time>
      </trkpt>
      <trkpt lat="45.41297" lon="-1.13004">
        <ele>16</ele>
        <time>2019-04-28T11:05:35Z</time>
      </trkpt>
      <trkpt lat="45.41344" lon="-1.13025">
        <ele>16</ele>
        <time>2019-04-28T11:05:47Z</time>
      </trkpt>
      <trkpt lat="45.4137" lon="-1.13021">
        <ele>16</ele>
        <time>2019-04-28T11:05:53Z</time>
      </trkpt>
      <trkpt lat="45.41411" lon="-1.12996">
        <ele>16</ele>
        <time>2019-04-28T11:06:05Z</time>
      </trkpt>
      <trkpt lat="45.41505" lon="-1.12981">
        <ele>16</ele>
        <time>2019-04-28T11:06:29Z</time>
      </trkpt>
      <trkpt lat="45.41551" lon="-1.1298">
        <ele>15</ele>
        <time>2019-04-28T11:06:41Z</time>
      </trkpt>
      <trkpt lat="45.4162" lon="-1.12999">
        <ele>15</ele>
        <time>2019-04-28T11:06:59Z</time>
      </trkpt>
      <trkpt lat="45.41683" lon="-1.12969">
        <ele>15</ele>
        <time>2019-04-28T11:07:17Z</time>
      </trkpt>
      <trkpt lat="45.41797" lon="-1.12968">
        <ele>16</ele>
        <time>2019-04-28T11:07:47Z</time>
      </trkpt>
      <trkpt lat="45.42102" lon="-1.12943">
        <ele>15</ele>
        <time>2019-04-28T11:08:53Z</time>
      </trkpt>
      <trkpt lat="45.42133" lon="-1.12931">
        <ele>15</ele>
        <time>2019-04-28T11:08:59Z</time>
      </trkpt>
      <trkpt lat="45.42193" lon="-1.12924">
        <ele>14</ele>
        <time>2019-04-28T11:09:11Z</time>
      </trkpt>
      <trkpt lat="45.42339" lon="-1.12916">
        <ele>17</ele>
        <time>2019-04-28T11:09:41Z</time>
      </trkpt>
      <trkpt lat="45.42394" lon="-1.12923">
        <ele>17</ele>
        <time>2019-04-28T11:09:53Z</time>
      </trkpt>
      <trkpt lat="45.42532" lon="-1.12906">
        <ele>17</ele>
        <time>2019-04-28T11:10:23Z</time>
      </trkpt>
      <trkpt lat="45.42715" lon="-1.12905">
        <ele>15</ele>
        <time>2019-04-28T11:10:59Z</time>
      </trkpt>
      <trkpt lat="45.42765" lon="-1.12916">
        <ele>15</ele>
        <time>2019-04-28T11:11:11Z</time>
      </trkpt>
      <trkpt lat="45.42821" lon="-1.12904">
        <ele>14</ele>
        <time>2019-04-28T11:11:23Z</time>
      </trkpt>
      <trkpt lat="45.43018" lon="-1.12906">
        <ele>15</ele>
        <time>2019-04-28T11:12:05Z</time>
      </trkpt>
      <trkpt lat="45.43049" lon="-1.12941">
        <ele>15</ele>
        <time>2019-04-28T11:12:17Z</time>
      </trkpt>
      <trkpt lat="45.43072" lon="-1.13">
        <ele>15</ele>
        <time>2019-04-28T11:12:29Z</time>
      </trkpt>
      <trkpt lat="45.43118" lon="-1.13229">
        <ele>16</ele>
        <time>2019-04-28T11:13:11Z</time>
      </trkpt>
      <trkpt lat="45.43215" lon="-1.13839">
        <ele>18</ele>
        <time>2019-04-28T11:15:05Z</time>
      </trkpt>
      <trkpt lat="45.4323" lon="-1.13904">
        <ele>18</ele>
        <time>2019-04-28T11:15:23Z</time>
      </trkpt>
      <trkpt lat="45.43248" lon="-1.13925">
        <ele>19</ele>
        <time>2019-04-28T11:15:35Z</time>
      </trkpt>
      <trkpt lat="45.43377" lon="-1.13871">
        <ele>17</ele>
        <time>2019-04-28T11:16:11Z</time>
      </trkpt>
      <trkpt lat="45.43481" lon="-1.13803">
        <ele>18</ele>
        <time>2019-04-28T11:16:35Z</time>
      </trkpt>
      <trkpt lat="45.43712" lon="-1.13684">
        <ele>17</ele>
        <time>2019-04-28T11:17:29Z</time>
      </trkpt>
      <trkpt lat="45.43731" lon="-1.1374">
        <ele>17</ele>
        <time>2019-04-28T11:17:41Z</time>
      </trkpt>
      <trkpt lat="45.43759" lon="-1.1387">
        <ele>16</ele>
        <time>2019-04-28T11:18:05Z</time>
      </trkpt>
      <trkpt lat="45.43796" lon="-1.13904">
        <ele>16</ele>
        <time>2019-04-28T11:18:17Z</time>
      </trkpt>
      <trkpt lat="45.44339" lon="-1.13818">
        <ele>18</ele>
        <time>2019-04-28T11:20:29Z</time>
      </trkpt>
      <trkpt lat="45.44522" lon="-1.13799">
        <ele>15</ele>
        <time>2019-04-28T11:21:11Z</time>
      </trkpt>
      <trkpt lat="45.44838" lon="-1.1375">
        <ele>14</ele>
        <time>2019-04-28T11:22:23Z</time>
      </trkpt>
      <trkpt lat="45.44996" lon="-1.13744">
        <ele>15</ele>
        <time>2019-04-28T11:22:59Z</time>
      </trkpt>
      <trkpt lat="45.4505" lon="-1.13729">
        <ele>15</ele>
        <time>2019-04-28T11:23:11Z</time>
      </trkpt>
      <trkpt lat="45.45471" lon="-1.13668">
        <ele>16</ele>
        <time>2019-04-28T11:24:47Z</time>
      </trkpt>
      <trkpt lat="45.45963" lon="-1.13618">
        <ele>14</ele>
        <time>2019-04-28T11:26:29Z</time>
      </trkpt>
      <trkpt lat="45.46543" lon="-1.13543">
        <ele>14</ele>
        <time>2019-04-28T11:28:35Z</time>
      </trkpt>
      <trkpt lat="45.46582" lon="-1.13545">
        <ele>14</ele>
        <time>2019-04-28T11:28:47Z</time>
      </trkpt>
      <trkpt lat="45.46594" lon="-1.13549">
        <ele>13</ele>
        <time>2019-04-28T11:28:53Z</time>
      </trkpt>
      <trkpt lat="45.46605" lon="-1.13667">
        <ele>14</ele>
        <time>2019-04-28T11:29:17Z</time>
      </trkpt>
      <trkpt lat="45.46692" lon="-1.14634">
        <ele>15</ele>
        <time>2019-04-28T11:31:47Z</time>
      </trkpt>
      <trkpt lat="45.46732" lon="-1.15154">
        <ele>11</ele>
        <time>2019-04-28T11:33:17Z</time>
      </trkpt>
      <trkpt lat="45.4675" lon="-1.15298">
        <ele>11</ele>
        <time>2019-04-28T11:33:47Z</time>
      </trkpt>
      <trkpt lat="45.46789" lon="-1.15268">
        <ele>11</ele>
        <time>2019-04-28T11:34:11Z</time>
      </trkpt>
      <trkpt lat="45.46969" lon="-1.15079">
        <ele>16</ele>
        <time>2019-04-28T11:35:29Z</time>
      </trkpt>
      <trkpt lat="45.4737" lon="-1.14884">
        <ele>15</ele>
        <time>2019-04-28T11:37:17Z</time>
      </trkpt>
      <trkpt lat="45.47646" lon="-1.14733">
        <ele>13</ele>
        <time>2019-04-28T11:38:29Z</time>
      </trkpt>
      <trkpt lat="45.47768" lon="-1.14678">
        <ele>18</ele>
        <time>2019-04-28T11:38:59Z</time>
      </trkpt>
      <trkpt lat="45.47982" lon="-1.14558">
        <ele>16</ele>
        <time>2019-04-28T11:39:59Z</time>
      </trkpt>
      <trkpt lat="45.48391" lon="-1.14352">
        <ele>14</ele>
        <time>2019-04-28T11:41:47Z</time>
      </trkpt>
      <trkpt lat="45.48404" lon="-1.14364">
        <ele>15</ele>
        <time>2019-04-28T11:41:53Z</time>
      </trkpt>
      <trkpt lat="45.48483" lon="-1.14754">
        <ele>12</ele>
        <time>2019-04-28T11:43:17Z</time>
      </trkpt>
      <trkpt lat="45.4852" lon="-1.14865">
        <ele>12</ele>
        <time>2019-04-28T11:43:55Z</time>
      </trkpt>
      <trkpt lat="45.48496" lon="-1.14892">
        <ele>12</ele>
        <time>2019-04-28T11:44:13Z</time>
      </trkpt>
      <trkpt lat="45.48486" lon="-1.15117">
        <ele>7.9</ele>
        <time>2019-04-28T11:45:39Z</time>
      </trkpt>
      <trkpt lat="45.48482" lon="-1.15112">
        <ele>2</ele>
        <time>2019-04-28T11:45:45Z</time>
      </trkpt>
      <trkpt lat="45.48493" lon="-1.15025">
        <ele>10</ele>
        <time>2019-04-28T11:46:15Z</time>
      </trkpt>
      <trkpt lat="45.48493" lon="-1.14958">
        <ele>11</ele>
        <time>2019-04-28T11:46:47Z</time>
      </trkpt>
      <trkpt lat="45.4853" lon="-1.14925">
        <ele>12</ele>
        <time>2019-04-28T11:47:17Z</time>
      </trkpt>
      <trkpt lat="45.48526" lon="-1.14884">
        <ele>12</ele>
        <time>2019-04-28T11:47:29Z</time>
      </trkpt>
      <trkpt lat="45.48532" lon="-1.1486">
        <ele>12</ele>
        <time>2019-04-28T11:47:41Z</time>
      </trkpt>
      <trkpt lat="45.48735" lon="-1.14703">
        <ele>16</ele>
        <time>2019-04-28T11:49:05Z</time>
      </trkpt>
      <trkpt lat="45.49905" lon="-1.13748">
        <ele>13</ele>
        <time>2019-04-28T11:54:10Z</time>
      </trkpt>
      <trkpt lat="45.50575" lon="-1.13233">
        <ele>12</ele>
        <time>2019-04-28T11:57:46Z</time>
      </trkpt>
      <trkpt lat="45.5061" lon="-1.13183">
        <ele>12</ele>
        <time>2019-04-28T11:58:10Z</time>
      </trkpt>
      <trkpt lat="45.50979" lon="-1.12893">
        <ele>12</ele>
        <time>2019-04-28T12:00:04Z</time>
      </trkpt>
      <trkpt lat="45.51437" lon="-1.12422">
        <ele>11</ele>
        <time>2019-04-28T12:02:58Z</time>
      </trkpt>
      <trkpt lat="45.51436" lon="-1.12396">
        <ele>10</ele>
        <time>2019-04-28T12:03:10Z</time>
      </trkpt>
      <trkpt lat="45.51421" lon="-1.12364">
        <ele>10</ele>
        <time>2019-04-28T12:03:34Z</time>
      </trkpt>
      <trkpt lat="45.51425" lon="-1.1235">
        <ele>10</ele>
        <time>2019-04-28T12:03:44Z</time>
      </trkpt>
      <trkpt lat="45.51414" lon="-1.12343">
        <ele>10</ele>
        <time>2019-04-28T12:04:00Z</time>
      </trkpt>
      <trkpt lat="45.51426" lon="-1.12362">
        <ele>10</ele>
        <time>2019-04-28T12:04:19Z</time>
      </trkpt>
      <trkpt lat="45.51445" lon="-1.12396">
        <ele>10</ele>
        <time>2019-04-28T12:04:49Z</time>
      </trkpt>
      <trkpt lat="45.51445" lon="-1.12414">
        <ele>11</ele>
        <time>2019-04-28T12:05:07Z</time>
      </trkpt>
      <trkpt lat="45.51465" lon="-1.12445">
        <ele>11</ele>
        <time>2019-04-28T12:05:39Z</time>
      </trkpt>
      <trkpt lat="45.51464" lon="-1.12458">
        <ele>11</ele>
        <time>2019-04-28T12:05:51Z</time>
      </trkpt>
      <trkpt lat="45.51494" lon="-1.12519">
        <ele>12</ele>
        <time>2019-04-28T12:06:59Z</time>
      </trkpt>
      <trkpt lat="45.51519" lon="-1.12598">
        <ele>13</ele>
        <time>2019-04-28T12:08:23Z</time>
      </trkpt>
      <trkpt lat="45.51552" lon="-1.12639">
        <ele>13</ele>
        <time>2019-04-28T12:09:23Z</time>
      </trkpt>
      <trkpt lat="45.51587" lon="-1.12708">
        <ele>12</ele>
        <time>2019-04-28T12:10:29Z</time>
      </trkpt>
      <trkpt lat="45.516" lon="-1.12711">
        <ele>12</ele>
        <time>2019-04-28T12:10:47Z</time>
      </trkpt>
      <trkpt lat="45.51648" lon="-1.12644">
        <ele>12</ele>
        <time>2019-04-28T12:11:11Z</time>
      </trkpt>
      <trkpt lat="45.51745" lon="-1.12534">
        <ele>10</ele>
        <time>2019-04-28T12:11:53Z</time>
      </trkpt>
      <trkpt lat="45.51816" lon="-1.12418">
        <ele>11</ele>
        <time>2019-04-28T12:12:29Z</time>
      </trkpt>
      <trkpt lat="45.51949" lon="-1.12084">
        <ele>13</ele>
        <time>2019-04-28T12:13:47Z</time>
      </trkpt>
      <trkpt lat="45.5196" lon="-1.11987">
        <ele>12</ele>
        <time>2019-04-28T12:13:59Z</time>
      </trkpt>
      <trkpt lat="45.51978" lon="-1.11921">
        <ele>11</ele>
        <time>2019-04-28T12:14:11Z</time>
      </trkpt>
      <trkpt lat="45.52339" lon="-1.11553">
        <ele>10</ele>
        <time>2019-04-28T12:15:59Z</time>
      </trkpt>
      <trkpt lat="45.52516" lon="-1.11354">
        <ele>11</ele>
        <time>2019-04-28T12:16:59Z</time>
      </trkpt>
      <trkpt lat="45.52698" lon="-1.11254">
        <ele>11</ele>
        <time>2019-04-28T12:17:47Z</time>
      </trkpt>
      <trkpt lat="45.52793" lon="-1.11223">
        <ele>10</ele>
        <time>2019-04-28T12:18:11Z</time>
      </trkpt>
      <trkpt lat="45.52823" lon="-1.11169">
        <ele>10</ele>
        <time>2019-04-28T12:18:23Z</time>
      </trkpt>
      <trkpt lat="45.5284" lon="-1.11099">
        <ele>13</ele>
        <time>2019-04-28T12:18:35Z</time>
      </trkpt>
      <trkpt lat="45.52862" lon="-1.10962">
        <ele>18</ele>
        <time>2019-04-28T12:18:59Z</time>
      </trkpt>
      <trkpt lat="45.52893" lon="-1.10906">
        <ele>18</ele>
        <time>2019-04-28T12:19:11Z</time>
      </trkpt>
      <trkpt lat="45.52974" lon="-1.10838">
        <ele>14</ele>
        <time>2019-04-28T12:19:35Z</time>
      </trkpt>
      <trkpt lat="45.53008" lon="-1.10793">
        <ele>12</ele>
        <time>2019-04-28T12:19:48Z</time>
      </trkpt>
      <trkpt lat="45.53082" lon="-1.10725">
        <ele>12</ele>
        <time>2019-04-28T12:20:11Z</time>
      </trkpt>
      <trkpt lat="45.53146" lon="-1.10673">
        <ele>12</ele>
        <time>2019-04-28T12:20:29Z</time>
      </trkpt>
      <trkpt lat="45.53181" lon="-1.10621">
        <ele>13</ele>
        <time>2019-04-28T12:20:41Z</time>
      </trkpt>
      <trkpt lat="45.53298" lon="-1.10505">
        <ele>14</ele>
        <time>2019-04-28T12:21:11Z</time>
      </trkpt>
      <trkpt lat="45.53378" lon="-1.10436">
        <ele>14</ele>
        <time>2019-04-28T12:21:35Z</time>
      </trkpt>
      <trkpt lat="45.53431" lon="-1.1044">
        <ele>14</ele>
        <time>2019-04-28T12:21:47Z</time>
      </trkpt>
      <trkpt lat="45.53547" lon="-1.10557">
        <ele>10</ele>
        <time>2019-04-28T12:22:17Z</time>
      </trkpt>
      <trkpt lat="45.5359" lon="-1.10578">
        <ele>9</ele>
        <time>2019-04-28T12:22:29Z</time>
      </trkpt>
      <trkpt lat="45.53637" lon="-1.10529">
        <ele>8</ele>
        <time>2019-04-28T12:22:41Z</time>
      </trkpt>
      <trkpt lat="45.53673" lon="-1.10478">
        <ele>8</ele>
        <time>2019-04-28T12:22:53Z</time>
      </trkpt>
      <trkpt lat="45.53684" lon="-1.10358">
        <ele>9</ele>
        <time>2019-04-28T12:23:11Z</time>
      </trkpt>
      <trkpt lat="45.53763" lon="-1.10227">
        <ele>10</ele>
        <time>2019-04-28T12:23:41Z</time>
      </trkpt>
      <trkpt lat="45.53782" lon="-1.10181">
        <ele>12</ele>
        <time>2019-04-28T12:23:53Z</time>
      </trkpt>
      <trkpt lat="45.53775" lon="-1.1011">
        <ele>15</ele>
        <time>2019-04-28T12:24:11Z</time>
      </trkpt>
      <trkpt lat="45.53872" lon="-1.0998">
        <ele>14</ele>
        <time>2019-04-28T12:24:59Z</time>
      </trkpt>
      <trkpt lat="45.53936" lon="-1.09933">
        <ele>14</ele>
        <time>2019-04-28T12:25:17Z</time>
      </trkpt>
      <trkpt lat="45.54129" lon="-1.0982">
        <ele>13</ele>
        <time>2019-04-28T12:25:53Z</time>
      </trkpt>
      <trkpt lat="45.54296" lon="-1.09661">
        <ele>11</ele>
        <time>2019-04-28T12:26:35Z</time>
      </trkpt>
      <trkpt lat="45.54336" lon="-1.09614">
        <ele>11</ele>
        <time>2019-04-28T12:26:47Z</time>
      </trkpt>
      <trkpt lat="45.54381" lon="-1.09588">
        <ele>12</ele>
        <time>2019-04-28T12:26:59Z</time>
      </trkpt>
      <trkpt lat="45.54674" lon="-1.09499">
        <ele>13</ele>
        <time>2019-04-28T12:27:59Z</time>
      </trkpt>
      <trkpt lat="45.5475" lon="-1.09453">
        <ele>17</ele>
        <time>2019-04-28T12:28:23Z</time>
      </trkpt>
      <trkpt lat="45.54887" lon="-1.09347">
        <ele>21</ele>
        <time>2019-04-28T12:29:24Z</time>
      </trkpt>
      <trkpt lat="45.5489" lon="-1.09354">
        <ele>19</ele>
        <time>2019-04-28T12:29:25Z</time>
      </trkpt>
      <trkpt lat="45.54685" lon="-1.09488">
        <ele>14</ele>
        <time>2019-04-28T12:30:29Z</time>
      </trkpt>
      <trkpt lat="45.54538" lon="-1.09538">
        <ele>11</ele>
        <time>2019-04-28T12:30:59Z</time>
      </trkpt>
      <trkpt lat="45.544" lon="-1.09572">
        <ele>13</ele>
        <time>2019-04-28T12:31:29Z</time>
      </trkpt>
      <trkpt lat="45.54323" lon="-1.09609">
        <ele>11</ele>
        <time>2019-04-28T12:31:47Z</time>
      </trkpt>
      <trkpt lat="45.54176" lon="-1.09645">
        <ele>9</ele>
        <time>2019-04-28T12:32:17Z</time>
      </trkpt>
      <trkpt lat="45.54111" lon="-1.0967">
        <ele>8</ele>
        <time>2019-04-28T12:32:35Z</time>
      </trkpt>
      <trkpt lat="45.54038" lon="-1.09731">
        <ele>8</ele>
        <time>2019-04-28T12:32:53Z</time>
      </trkpt>
      <trkpt lat="45.54031" lon="-1.09695">
        <ele>7</ele>
        <time>2019-04-28T12:32:59Z</time>
      </trkpt>
      <trkpt lat="45.54058" lon="-1.09571">
        <ele>6</ele>
        <time>2019-04-28T12:33:17Z</time>
      </trkpt>
      <trkpt lat="45.54069" lon="-1.09417">
        <ele>6</ele>
        <time>2019-04-28T12:33:41Z</time>
      </trkpt>
      <trkpt lat="45.5408" lon="-1.09399">
        <ele>7</ele>
        <time>2019-04-28T12:33:47Z</time>
      </trkpt>
      <trkpt lat="45.54098" lon="-1.09396">
        <ele>7</ele>
        <time>2019-04-28T12:34:08Z</time>
      </trkpt>
      <trkpt lat="45.54107" lon="-1.094">
        <ele>7</ele>
        <time>2019-04-28T12:34:16Z</time>
      </trkpt>
      <trkpt lat="45.54095" lon="-1.09407">
        <ele>7</ele>
        <time>2019-04-28T12:34:18Z</time>
      </trkpt>
      <trkpt lat="45.54106" lon="-1.09401">
        <ele>7</ele>
        <time>2019-04-28T12:34:24Z</time>
      </trkpt>
      <trkpt lat="45.54139" lon="-1.09407">
        <ele>7</ele>
        <time>2019-04-28T12:35:06Z</time>
      </trkpt>
      <trkpt lat="45.54137" lon="-1.09364">
        <ele>7</ele>
        <time>2019-04-28T12:35:34Z</time>
      </trkpt>
      <trkpt lat="45.54145" lon="-1.09327">
        <ele>8</ele>
        <time>2019-04-28T12:35:52Z</time>
      </trkpt>
      <trkpt lat="45.54141" lon="-1.09285">
        <ele>8</ele>
        <time>2019-04-28T12:36:10Z</time>
      </trkpt>
      <trkpt lat="45.54159" lon="-1.09269">
        <ele>9</ele>
        <time>2019-04-28T12:36:22Z</time>
      </trkpt>
      <trkpt lat="45.54179" lon="-1.09267">
        <ele>9</ele>
        <time>2019-04-28T12:36:34Z</time>
      </trkpt>
      <trkpt lat="45.54203" lon="-1.09237">
        <ele>9</ele>
        <time>2019-04-28T12:36:58Z</time>
      </trkpt>
      <trkpt lat="45.54215" lon="-1.09199">
        <ele>9</ele>
        <time>2019-04-28T12:37:21Z</time>
      </trkpt>
      <trkpt lat="45.54209" lon="-1.09206">
        <ele>9</ele>
        <time>2019-04-28T12:37:34Z</time>
      </trkpt>
      <trkpt lat="45.5421" lon="-1.09222">
        <ele>9</ele>
        <time>2019-04-28T12:37:42Z</time>
      </trkpt>
      <trkpt lat="45.54198" lon="-1.0923">
        <ele>9</ele>
        <time>2019-04-28T12:37:48Z</time>
      </trkpt>
      <trkpt lat="45.54185" lon="-1.09262">
        <ele>9</ele>
        <time>2019-04-28T12:38:00Z</time>
      </trkpt>
      <trkpt lat="45.54146" lon="-1.0928">
        <ele>8</ele>
        <time>2019-04-28T12:38:24Z</time>
      </trkpt>
      <trkpt lat="45.54141" lon="-1.09334">
        <ele>8</ele>
        <time>2019-04-28T12:38:48Z</time>
      </trkpt>
      <trkpt lat="45.54131" lon="-1.09359">
        <ele>7</ele>
        <time>2019-04-28T12:39:00Z</time>
      </trkpt>
      <trkpt lat="45.54142" lon="-1.09401">
        <ele>7</ele>
        <time>2019-04-28T12:39:18Z</time>
      </trkpt>
      <trkpt lat="45.54147" lon="-1.09408">
        <ele>8</ele>
        <time>2019-04-28T12:39:32Z</time>
      </trkpt>
      <trkpt lat="45.54151" lon="-1.09398">
        <ele>8</ele>
        <time>2019-04-28T12:39:45Z</time>
      </trkpt>
      <trkpt lat="45.54152" lon="-1.09409">
        <ele>8</ele>
        <time>2019-04-28T12:39:57Z</time>
      </trkpt>
      <trkpt lat="45.54158" lon="-1.09412">
        <ele>8</ele>
        <time>2019-04-28T12:40:01Z</time>
      </trkpt>
      <trkpt lat="45.54171" lon="-1.09386">
        <ele>8</ele>
        <time>2019-04-29T06:05:21Z</time>
      </trkpt>
      <trkpt lat="45.54155" lon="-1.09413">
        <ele>8</ele>
        <time>2019-04-29T06:05:33Z</time>
      </trkpt>
      <trkpt lat="45.54153" lon="-1.09404">
        <ele>8</ele>
        <time>2019-04-29T06:05:37Z</time>
      </trkpt>
      <trkpt lat="45.54159" lon="-1.09401">
        <ele>8</ele>
        <time>2019-04-29T06:05:41Z</time>
      </trkpt>
      <trkpt lat="45.54155" lon="-1.09406">
        <ele>8</ele>
        <time>2019-04-29T06:05:45Z</time>
      </trkpt>
      <trkpt lat="45.54128" lon="-1.09421">
        <ele>7</ele>
        <time>2019-04-29T06:05:56Z</time>
      </trkpt>
      <trkpt lat="45.54116" lon="-1.09418">
        <ele>7</ele>
        <time>2019-04-29T06:06:19Z</time>
      </trkpt>
      <trkpt lat="45.54124" lon="-1.09412">
        <ele>7</ele>
        <time>2019-04-29T06:06:31Z</time>
      </trkpt>
      <trkpt lat="45.54091" lon="-1.09402">
        <ele>6</ele>
        <time>2019-04-29T06:06:56Z</time>
      </trkpt>
      <trkpt lat="45.54074" lon="-1.09406">
        <ele>6</ele>
        <time>2019-04-29T06:07:14Z</time>
      </trkpt>
      <trkpt lat="45.54051" lon="-1.09671">
        <ele>8</ele>
        <time>2019-04-29T06:08:26Z</time>
      </trkpt>
      <trkpt lat="45.54081" lon="-1.09692">
        <ele>8</ele>
        <time>2019-04-29T06:08:38Z</time>
      </trkpt>
      <trkpt lat="45.54164" lon="-1.09645">
        <ele>9</ele>
        <time>2019-04-29T06:09:14Z</time>
      </trkpt>
      <trkpt lat="45.54337" lon="-1.09602">
        <ele>11</ele>
        <time>2019-04-29T06:10:08Z</time>
      </trkpt>
      <trkpt lat="45.54463" lon="-1.09549">
        <ele>12</ele>
        <time>2019-04-29T06:10:44Z</time>
      </trkpt>
      <trkpt lat="45.54555" lon="-1.0953">
        <ele>11</ele>
        <time>2019-04-29T06:11:08Z</time>
      </trkpt>
      <trkpt lat="45.54678" lon="-1.09486">
        <ele>14</ele>
        <time>2019-04-29T06:11:49Z</time>
      </trkpt>
      <trkpt lat="45.5477" lon="-1.09432">
        <ele>17</ele>
        <time>2019-04-29T06:12:24Z</time>
      </trkpt>
      <trkpt lat="45.54977" lon="-1.09284">
        <ele>18</ele>
        <time>2019-04-29T06:13:26Z</time>
      </trkpt>
      <trkpt lat="45.55071" lon="-1.09215">
        <ele>15</ele>
        <time>2019-04-29T06:13:52Z</time>
      </trkpt>
      <trkpt lat="45.55174" lon="-1.09098">
        <ele>13</ele>
        <time>2019-04-29T06:14:30Z</time>
      </trkpt>
      <trkpt lat="45.55427" lon="-1.08695">
        <ele>8</ele>
        <time>2019-04-29T06:16:29Z</time>
      </trkpt>
      <trkpt lat="45.55542" lon="-1.08526">
        <ele>10</ele>
        <time>2019-04-29T06:17:05Z</time>
      </trkpt>
      <trkpt lat="45.55593" lon="-1.0847">
        <ele>10</ele>
        <time>2019-04-29T06:17:23Z</time>
      </trkpt>
      <trkpt lat="45.55732" lon="-1.08347">
        <ele>10</ele>
        <time>2019-04-29T06:18:17Z</time>
      </trkpt>
      <trkpt lat="45.55809" lon="-1.08259">
        <ele>10</ele>
        <time>2019-04-29T06:18:47Z</time>
      </trkpt>
      <trkpt lat="45.55916" lon="-1.08188">
        <ele>11</ele>
        <time>2019-04-29T06:19:23Z</time>
      </trkpt>
      <trkpt lat="45.55967" lon="-1.08129">
        <ele>10</ele>
        <time>2019-04-29T06:19:41Z</time>
      </trkpt>
      <trkpt lat="45.5604" lon="-1.08073">
        <ele>12</ele>
        <time>2019-04-29T06:19:59Z</time>
      </trkpt>
      <trkpt lat="45.56197" lon="-1.07926">
        <ele>12</ele>
        <time>2019-04-29T06:20:41Z</time>
      </trkpt>
      <trkpt lat="45.56244" lon="-1.07895">
        <ele>12</ele>
        <time>2019-04-29T06:20:53Z</time>
      </trkpt>
      <trkpt lat="45.56328" lon="-1.07812">
        <ele>11</ele>
        <time>2019-04-29T06:21:17Z</time>
      </trkpt>
      <trkpt lat="45.56409" lon="-1.07681">
        <ele>12</ele>
        <time>2019-04-29T06:21:53Z</time>
      </trkpt>
      <trkpt lat="45.56461" lon="-1.07574">
        <ele>12</ele>
        <time>2019-04-29T06:22:17Z</time>
      </trkpt>
      <trkpt lat="45.56613" lon="-1.07348">
        <ele>10</ele>
        <time>2019-04-29T06:23:23Z</time>
      </trkpt>
      <trkpt lat="45.56641" lon="-1.07286">
        <ele>11</ele>
        <time>2019-04-29T06:23:35Z</time>
      </trkpt>
      <trkpt lat="45.56741" lon="-1.06966">
        <ele>9</ele>
        <time>2019-04-29T06:24:35Z</time>
      </trkpt>
      <trkpt lat="45.56754" lon="-1.06901">
        <ele>8</ele>
        <time>2019-04-29T06:24:47Z</time>
      </trkpt>
      <trkpt lat="45.56753" lon="-1.06868">
        <ele>8</ele>
        <time>2019-04-29T06:24:53Z</time>
      </trkpt>
      <trkpt lat="45.56736" lon="-1.06807">
        <ele>8</ele>
        <time>2019-04-29T06:25:05Z</time>
      </trkpt>
      <trkpt lat="45.56702" lon="-1.06742">
        <ele>7</ele>
        <time>2019-04-29T06:25:23Z</time>
      </trkpt>
      <trkpt lat="45.56645" lon="-1.06709">
        <ele>7</ele>
        <time>2019-04-29T06:25:47Z</time>
      </trkpt>
      <trkpt lat="45.56634" lon="-1.06685">
        <ele>5</ele>
        <time>2019-04-29T06:25:59Z</time>
      </trkpt>
      <trkpt lat="45.56793" lon="-1.0656">
        <ele>6</ele>
        <time>2019-04-29T06:26:59Z</time>
      </trkpt>
      <trkpt lat="45.56768" lon="-1.06482">
        <ele>1</ele>
        <time>2019-04-29T06:27:31Z</time>
      </trkpt>
      <trkpt lat="45.5684" lon="-1.06407">
        <ele>3</ele>
        <time>2019-04-29T06:28:01Z</time>
      </trkpt>
      <trkpt lat="45.56894" lon="-1.06304">
        <ele>2</ele>
        <time>2019-04-29T06:28:37Z</time>
      </trkpt>
      <trkpt lat="45.56894" lon="-1.06287">
        <ele>4</ele>
        <time>2019-04-29T06:28:43Z</time>
      </trkpt>
      <trkpt lat="45.56881" lon="-1.06281">
        <ele>4</ele>
        <time>2019-04-29T06:29:05Z</time>
      </trkpt>
      <trkpt lat="45.56908" lon="-1.06266">
        <ele>3.9</ele>
        <time>2019-04-29T06:29:23Z</time>
      </trkpt>
      <trkpt lat="45.56919" lon="-1.06278">
        <ele>4</ele>
        <time>2019-04-29T06:29:29Z</time>
      </trkpt>
      <trkpt lat="45.56927" lon="-1.06309">
        <ele>2</ele>
        <time>2019-04-29T06:29:41Z</time>
      </trkpt>
      <trkpt lat="45.56924" lon="-1.06332">
        <ele>2</ele>
        <time>2019-04-29T06:29:47Z</time>
      </trkpt>
      <trkpt lat="45.56905" lon="-1.06364">
        <ele>5</ele>
        <time>2019-04-29T06:29:59Z</time>
      </trkpt>
      <trkpt lat="45.56862" lon="-1.06409">
        <ele>3</ele>
        <time>2019-04-29T06:30:23Z</time>
      </trkpt>
      <trkpt lat="45.56759" lon="-1.06486">
        <ele>1</ele>
        <time>2019-04-29T06:31:29Z</time>
      </trkpt>
      <trkpt lat="45.56737" lon="-1.06502">
        <ele>3</ele>
        <time>2019-04-29T06:32:04Z</time>
      </trkpt>
      <trkpt lat="45.56743" lon="-1.06506">
        <ele>3</ele>
        <time>2019-04-29T06:32:16Z</time>
      </trkpt>
      <trkpt lat="45.56759" lon="-1.0648">
        <ele>1</ele>
        <time>2019-04-29T06:32:29Z</time>
      </trkpt>
      <trkpt lat="45.56847" lon="-1.06398">
        <ele>3</ele>
        <time>2019-04-29T06:33:11Z</time>
      </trkpt>
      <trkpt lat="45.56897" lon="-1.06311">
        <ele>2</ele>
        <time>2019-04-29T06:33:47Z</time>
      </trkpt>
      <trkpt lat="45.56898" lon="-1.06283">
        <ele>4</ele>
        <time>2019-04-29T06:34:05Z</time>
      </trkpt>
      <trkpt lat="45.56885" lon="-1.06281">
        <ele>4</ele>
        <time>2019-04-29T06:34:32Z</time>
      </trkpt>
      <trkpt lat="45.56897" lon="-1.06271">
        <ele>3.8</ele>
        <time>2019-04-29T06:34:45Z</time>
      </trkpt>
      <trkpt lat="45.56889" lon="-1.06285">
        <ele>4</ele>
        <time>2019-04-29T06:35:05Z</time>
      </trkpt>
      <trkpt lat="45.56844" lon="-1.06313">
        <ele>1</ele>
        <time>2019-04-29T06:35:49Z</time>
      </trkpt>
      <trkpt lat="45.56795" lon="-1.06419">
        <ele>1</ele>
        <time>2019-04-29T06:37:07Z</time>
      </trkpt>
      <trkpt lat="45.56771" lon="-1.06419">
        <ele>4.9</ele>
        <time>2019-04-29T06:37:43Z</time>
      </trkpt>
      <trkpt lat="45.56728" lon="-1.06484">
        <ele>3.5</ele>
        <time>2019-04-29T06:38:27Z</time>
      </trkpt>
      <trkpt lat="45.56722" lon="-1.06463">
        <ele>3</ele>
        <time>2019-04-29T06:38:39Z</time>
      </trkpt>
      <trkpt lat="45.56756" lon="-1.06395">
        <ele>5</ele>
        <time>2019-04-29T06:39:09Z</time>
      </trkpt>
      <trkpt lat="45.56767" lon="-1.06396">
        <ele>5</ele>
        <time>2019-04-29T06:39:15Z</time>
      </trkpt>
      <trkpt lat="45.56784" lon="-1.06372">
        <ele>4.78</ele>
        <time>2019-04-29T06:39:27Z</time>
      </trkpt>
      <trkpt lat="45.56783" lon="-1.06352">
        <ele>1</ele>
        <time>2019-04-29T06:40:07Z</time>
      </trkpt>
      <trkpt lat="45.56791" lon="-1.06337">
        <ele>1</ele>
        <time>2019-04-29T06:40:21Z</time>
      </trkpt>
      <trkpt lat="45.56806" lon="-1.06338">
        <ele>1.5</ele>
        <time>2019-04-29T06:40:44Z</time>
      </trkpt>
      <trkpt lat="45.56812" lon="-1.06293">
        <ele>1</ele>
        <time>2019-04-29T06:40:55Z</time>
      </trkpt>
      <trkpt lat="45.56853" lon="-1.06227">
        <ele>1.2</ele>
        <time>2019-04-29T06:41:28Z</time>
      </trkpt>
      <trkpt lat="45.57032" lon="-1.06001">
        <time>2019-04-29T06:42:30Z</time>
      </trkpt>
      <trkpt lat="45.57133" lon="-1.05897">
        <time>2019-04-29T06:42:56Z</time>
      </trkpt>
      <trkpt lat="45.57189" lon="-1.05855">
        <time>2019-04-29T06:43:09Z</time>
      </trkpt>
      <trkpt lat="45.57307" lon="-1.05807">
        <time>2019-04-29T06:43:35Z</time>
      </trkpt>
      <trkpt lat="45.57551" lon="-1.05763">
        <time>2019-04-29T06:44:27Z</time>
      </trkpt>
      <trkpt lat="45.57858" lon="-1.0569">
        <time>2019-04-29T06:45:12Z</time>
      </trkpt>
      <trkpt lat="45.58523" lon="-1.0568">
        <time>2019-04-29T06:47:18Z</time>
      </trkpt>
      <trkpt lat="45.58628" lon="-1.05665">
        <time>2019-04-29T06:47:36Z</time>
      </trkpt>
      <trkpt lat="45.58935" lon="-1.05654">
        <time>2019-04-29T06:48:36Z</time>
      </trkpt>
      <trkpt lat="45.59116" lon="-1.05606">
        <time>2019-04-29T06:49:12Z</time>
      </trkpt>
      <trkpt lat="45.59182" lon="-1.05615">
        <time>2019-04-29T06:49:24Z</time>
      </trkpt>
      <trkpt lat="45.59317" lon="-1.05586">
        <time>2019-04-29T06:49:48Z</time>
      </trkpt>
      <trkpt lat="45.59532" lon="-1.05476">
        <time>2019-04-29T06:50:30Z</time>
      </trkpt>
      <trkpt lat="45.59615" lon="-1.05423">
        <time>2019-04-29T06:50:48Z</time>
      </trkpt>
      <trkpt lat="45.5976" lon="-1.05306">
        <time>2019-04-29T06:51:18Z</time>
      </trkpt>
      <trkpt lat="45.60052" lon="-1.05018">
        <time>2019-04-29T06:52:24Z</time>
      </trkpt>
      <trkpt lat="45.60625" lon="-1.04338">
        <time>2019-04-29T06:55:01Z</time>
      </trkpt>
      <trkpt lat="45.60893" lon="-1.03946">
        <time>2019-04-29T06:56:11Z</time>
      </trkpt>
      <trkpt lat="45.61347" lon="-1.03182">
        <time>2019-04-29T06:58:17Z</time>
      </trkpt>
      <trkpt lat="45.61453" lon="-1.03053">
        <time>2019-04-29T06:58:44Z</time>
      </trkpt>
      <trkpt lat="45.61552" lon="-1.02969">
        <time>2019-04-29T06:59:10Z</time>
      </trkpt>
      <trkpt lat="45.6163" lon="-1.02958">
        <time>2019-04-29T06:59:35Z</time>
      </trkpt>
      <trkpt lat="45.61657" lon="-1.0297">
        <time>2019-04-29T06:59:47Z</time>
      </trkpt>
      <trkpt lat="45.61701" lon="-1.03012">
        <ele>2.3</ele>
        <time>2019-04-29T07:00:32Z</time>
      </trkpt>
      <trkpt lat="45.6172" lon="-1.03024">
        <ele>2.1</ele>
        <time>2019-04-29T07:01:16Z</time>
      </trkpt>
      <trkpt lat="45.61752" lon="-1.03079">
        <ele>3.1</ele>
        <time>2019-04-29T07:01:27Z</time>
      </trkpt>
      <trkpt lat="45.61772" lon="-1.03144">
        <ele>3</ele>
        <time>2019-04-29T07:01:59Z</time>
      </trkpt>
      <trkpt lat="45.61779" lon="-1.03149">
        <ele>3</ele>
        <time>2019-04-29T07:02:12Z</time>
      </trkpt>
      <trkpt lat="45.61789" lon="-1.03173">
        <ele>5</ele>
        <time>2019-04-29T07:02:27Z</time>
      </trkpt>
      <trkpt lat="45.61796" lon="-1.03172">
        <ele>5</ele>
        <time>2019-04-29T07:02:33Z</time>
      </trkpt>
      <trkpt lat="45.61819" lon="-1.03109">
        <ele>3</ele>
        <time>2019-04-29T07:02:51Z</time>
      </trkpt>
      <trkpt lat="45.61872" lon="-1.03067">
        <ele>2</ele>
        <time>2019-04-29T07:03:09Z</time>
      </trkpt>
      <trkpt lat="45.61904" lon="-1.0306">
        <ele>6.2</ele>
        <time>2019-04-29T07:03:27Z</time>
      </trkpt>
      <trkpt lat="45.61972" lon="-1.03125">
        <ele>4</ele>
        <time>2019-04-29T07:04:23Z</time>
      </trkpt>
      <trkpt lat="45.61917" lon="-1.03186">
        <ele>7</ele>
        <time>2019-04-29T07:05:01Z</time>
      </trkpt>
      <trkpt lat="45.61921" lon="-1.03247">
        <ele>9</ele>
        <time>2019-04-29T07:05:31Z</time>
      </trkpt>
      <trkpt lat="45.61999" lon="-1.03453">
        <ele>15</ele>
        <time>2019-04-29T07:06:37Z</time>
      </trkpt>
      <trkpt lat="45.61994" lon="-1.03487">
        <ele>15</ele>
        <time>2019-04-29T07:06:43Z</time>
      </trkpt>
      <trkpt lat="45.61973" lon="-1.03527">
        <ele>-2</ele>
        <time>2019-04-29T07:06:55Z</time>
      </trkpt>
      <trkpt lat="45.61804" lon="-1.03678">
        <ele>4</ele>
        <time>2019-04-29T07:07:49Z</time>
      </trkpt>
      <trkpt lat="45.61803" lon="-1.03792">
        <ele>-1</ele>
        <time>2019-04-29T07:08:13Z</time>
      </trkpt>
      <trkpt lat="45.61811" lon="-1.0382">
        <ele>-1</ele>
        <time>2019-04-29T07:08:25Z</time>
      </trkpt>
      <trkpt lat="45.61804" lon="-1.03852">
        <ele>8.4</ele>
        <time>2019-04-29T07:08:43Z</time>
      </trkpt>
      <trkpt lat="45.61805" lon="-1.03962">
        <ele>2</ele>
        <time>2019-04-29T07:09:21Z</time>
      </trkpt>
      <trkpt lat="45.61788" lon="-1.03989">
        <ele>2</ele>
        <time>2019-04-29T07:09:26Z</time>
      </trkpt>
      <trkpt lat="45.61788" lon="-1.04051">
        <ele>10</ele>
        <time>2019-04-29T07:09:45Z</time>
      </trkpt>
      <trkpt lat="45.6176" lon="-1.04111">
        <ele>1</ele>
        <time>2019-04-29T07:10:03Z</time>
      </trkpt>
      <trkpt lat="45.61773" lon="-1.0418">
        <ele>12.1</ele>
        <time>2019-04-29T07:10:20Z</time>
      </trkpt>
      <trkpt lat="45.61799" lon="-1.04242">
        <ele>12</ele>
        <time>2019-04-29T07:10:44Z</time>
      </trkpt>
      <trkpt lat="45.61848" lon="-1.04266">
        <ele>6</ele>
        <time>2019-04-29T07:11:03Z</time>
      </trkpt>
      <trkpt lat="45.61872" lon="-1.04258">
        <ele>6</ele>
        <time>2019-04-29T07:11:08Z</time>
      </trkpt>
      <trkpt lat="45.61905" lon="-1.0421">
        <ele>13</ele>
        <time>2019-04-29T07:11:20Z</time>
      </trkpt>
      <trkpt lat="45.62013" lon="-1.04193">
        <ele>11</ele>
        <time>2019-04-29T07:11:57Z</time>
      </trkpt>
      <trkpt lat="45.62038" lon="-1.0421">
        <ele>13</ele>
        <time>2019-04-29T07:12:08Z</time>
      </trkpt>
      <trkpt lat="45.62067" lon="-1.04248">
        <ele>11</ele>
        <time>2019-04-29T07:12:20Z</time>
      </trkpt>
      <trkpt lat="45.6203" lon="-1.04309">
        <ele>15</ele>
        <time>2019-04-29T07:12:38Z</time>
      </trkpt>
      <trkpt lat="45.62066" lon="-1.0441">
        <ele>6</ele>
        <time>2019-04-29T07:13:03Z</time>
      </trkpt>
      <trkpt lat="45.62043" lon="-1.04483">
        <ele>4</ele>
        <time>2019-04-29T07:13:20Z</time>
      </trkpt>
      <trkpt lat="45.62063" lon="-1.04571">
        <ele>9.8</ele>
        <time>2019-04-29T07:13:38Z</time>
      </trkpt>
      <trkpt lat="45.62078" lon="-1.04591">
        <ele>9</ele>
        <time>2019-04-29T07:13:45Z</time>
      </trkpt>
      <trkpt lat="45.62178" lon="-1.04616">
        <ele>12</ele>
        <time>2019-04-29T07:14:08Z</time>
      </trkpt>
      <trkpt lat="45.62207" lon="-1.04701">
        <ele>10</ele>
        <time>2019-04-29T07:14:20Z</time>
      </trkpt>
      <trkpt lat="45.62147" lon="-1.04808">
        <ele>1</ele>
        <time>2019-04-29T07:14:45Z</time>
      </trkpt>
      <trkpt lat="45.62103" lon="-1.04832">
        <ele>7.7</ele>
        <time>2019-04-29T07:14:56Z</time>
      </trkpt>
      <trkpt lat="45.62061" lon="-1.04875">
        <ele>6.9</ele>
        <time>2019-04-29T07:15:08Z</time>
      </trkpt>
      <trkpt lat="45.62068" lon="-1.04905">
        <ele>7</ele>
        <time>2019-04-29T07:15:15Z</time>
      </trkpt>
      <trkpt lat="45.62121" lon="-1.04985">
        <ele>4</ele>
        <time>2019-04-29T07:15:32Z</time>
      </trkpt>
      <trkpt lat="45.62189" lon="-1.05118">
        <ele>8</ele>
        <time>2019-04-29T07:15:56Z</time>
      </trkpt>
      <trkpt lat="45.62228" lon="-1.05178">
        <ele>8</ele>
        <time>2019-04-29T07:16:09Z</time>
      </trkpt>
      <trkpt lat="45.62282" lon="-1.05173">
        <ele>8</ele>
        <time>2019-04-29T07:16:21Z</time>
      </trkpt>
      <trkpt lat="45.62323" lon="-1.05117">
        <ele>11</ele>
        <time>2019-04-29T07:16:32Z</time>
      </trkpt>
      <trkpt lat="45.62362" lon="-1.0508">
        <ele>11</ele>
        <time>2019-04-29T07:16:44Z</time>
      </trkpt>
      <trkpt lat="45.62461" lon="-1.05031">
        <ele>12</ele>
        <time>2019-04-29T07:17:14Z</time>
      </trkpt>
      <trkpt lat="45.62495" lon="-1.05028">
        <ele>12</ele>
        <time>2019-04-29T07:17:27Z</time>
      </trkpt>
      <trkpt lat="45.62522" lon="-1.05004">
        <ele>12</ele>
        <time>2019-04-29T07:17:39Z</time>
      </trkpt>
      <trkpt lat="45.62554" lon="-1.04997">
        <ele>12</ele>
        <time>2019-04-29T07:17:50Z</time>
      </trkpt>
      <trkpt lat="45.62579" lon="-1.05009">
        <ele>13</ele>
        <time>2019-04-29T07:17:57Z</time>
      </trkpt>
      <trkpt lat="45.62634" lon="-1.05066">
        <ele>8</ele>
        <time>2019-04-29T07:18:08Z</time>
      </trkpt>
      <trkpt lat="45.62701" lon="-1.05177">
        <ele>7</ele>
        <time>2019-04-29T07:18:27Z</time>
      </trkpt>
      <trkpt lat="45.6273" lon="-1.05196">
        <ele>6</ele>
        <time>2019-04-29T07:18:44Z</time>
      </trkpt>
      <trkpt lat="45.62773" lon="-1.05256">
        <ele>8</ele>
        <time>2019-04-29T07:19:09Z</time>
      </trkpt>
      <trkpt lat="45.62857" lon="-1.05335">
        <ele>13</ele>
        <time>2019-04-29T07:19:57Z</time>
      </trkpt>
      <trkpt lat="45.62879" lon="-1.05423">
        <ele>14</ele>
        <time>2019-04-29T07:20:20Z</time>
      </trkpt>
      <trkpt lat="45.62876" lon="-1.05602">
        <ele>19</ele>
        <time>2019-04-29T07:21:14Z</time>
      </trkpt>
      <trkpt lat="45.62912" lon="-1.05812">
        <ele>19</ele>
        <time>2019-04-29T07:22:32Z</time>
      </trkpt>
      <trkpt lat="45.62956" lon="-1.05971">
        <ele>20</ele>
        <time>2019-04-29T07:23:27Z</time>
      </trkpt>
      <trkpt lat="45.63193" lon="-1.06354">
        <ele>17</ele>
        <time>2019-04-29T07:25:15Z</time>
      </trkpt>
      <trkpt lat="45.63597" lon="-1.06923">
        <ele>16</ele>
        <time>2019-04-29T07:28:14Z</time>
      </trkpt>
      <trkpt lat="45.63697" lon="-1.07089">
        <ele>20</ele>
        <time>2019-04-29T07:29:15Z</time>
      </trkpt>
      <trkpt lat="45.6379" lon="-1.07265">
        <ele>21</ele>
        <time>2019-04-29T07:30:03Z</time>
      </trkpt>
      <trkpt lat="45.63841" lon="-1.07315">
        <ele>20</ele>
        <time>2019-04-29T07:30:14Z</time>
      </trkpt>
      <trkpt lat="45.63911" lon="-1.07407">
        <ele>12</ele>
        <time>2019-04-29T07:30:26Z</time>
      </trkpt>
      <trkpt lat="45.63936" lon="-1.07484">
        <ele>11</ele>
        <time>2019-04-29T07:30:50Z</time>
      </trkpt>
      <trkpt lat="45.63939" lon="-1.07537">
        <ele>11</ele>
        <time>2019-04-29T07:31:03Z</time>
      </trkpt>
      <trkpt lat="45.63973" lon="-1.07665">
        <ele>12</ele>
        <time>2019-04-29T07:31:39Z</time>
      </trkpt>
      <trkpt lat="45.63976" lon="-1.07764">
        <ele>11</ele>
        <time>2019-04-29T07:31:56Z</time>
      </trkpt>
      <trkpt lat="45.63891" lon="-1.08013">
        <ele>13</ele>
        <time>2019-04-29T07:32:44Z</time>
      </trkpt>
      <trkpt lat="45.63862" lon="-1.08026">
        <ele>13</ele>
        <time>2019-04-29T07:32:56Z</time>
      </trkpt>
      <trkpt lat="45.63828" lon="-1.0799">
        <ele>-1</ele>
        <time>2019-04-29T07:33:08Z</time>
      </trkpt>
      <trkpt lat="45.638" lon="-1.07977">
        <ele>7.2</ele>
        <time>2019-04-29T07:33:15Z</time>
      </trkpt>
      <trkpt lat="45.63753" lon="-1.07984">
        <ele>6</ele>
        <time>2019-04-29T07:33:43Z</time>
      </trkpt>
      <trkpt lat="45.6376" lon="-1.07979">
        <ele>6.1</ele>
        <time>2019-04-29T07:33:52Z</time>
      </trkpt>
      <trkpt lat="45.63758" lon="-1.0798">
        <ele>6.1</ele>
        <time>2019-04-29T07:33:53Z</time>
      </trkpt>
      <trkpt lat="45.63748" lon="-1.07988">
        <ele>6</ele>
        <time>2019-04-29T07:34:04Z</time>
      </trkpt>
      <trkpt lat="45.63744" lon="-1.08011">
        <ele>2</ele>
        <time>2019-04-29T07:34:28Z</time>
      </trkpt>
      <trkpt lat="45.6368" lon="-1.08121">
        <ele>1</ele>
        <time>2019-04-29T07:35:10Z</time>
      </trkpt>
      <trkpt lat="45.63679" lon="-1.08137">
        <ele>1</ele>
        <time>2019-04-29T07:35:16Z</time>
      </trkpt>
      <trkpt lat="45.63688" lon="-1.08206">
        <ele>4</ele>
        <time>2019-04-29T07:35:45Z</time>
      </trkpt>
      <trkpt lat="45.63693" lon="-1.08204">
        <ele>4</ele>
        <time>2019-04-29T07:35:46Z</time>
      </trkpt>
      <trkpt lat="45.63703" lon="-1.08224">
        <ele>8.6</ele>
        <time>2019-04-29T07:35:56Z</time>
      </trkpt>
      <trkpt lat="45.63791" lon="-1.08487">
        <ele>11</ele>
        <time>2019-04-29T07:37:02Z</time>
      </trkpt>
      <trkpt lat="45.63859" lon="-1.08655">
        <ele>9</ele>
        <time>2019-04-29T07:37:32Z</time>
      </trkpt>
      <trkpt lat="45.6389" lon="-1.08714">
        <ele>4</ele>
        <time>2019-04-29T07:37:44Z</time>
      </trkpt>
      <trkpt lat="45.64043" lon="-1.086">
        <ele>12</ele>
        <time>2019-04-29T07:38:34Z</time>
      </trkpt>
      <trkpt lat="45.64048" lon="-1.08587">
        <ele>10</ele>
        <time>2019-04-29T07:38:38Z</time>
      </trkpt>
      <trkpt lat="45.64086" lon="-1.08553">
        <ele>13</ele>
        <time>2019-04-29T07:38:56Z</time>
      </trkpt>
      <trkpt lat="45.64121" lon="-1.08541">
        <ele>13</ele>
        <time>2019-04-29T07:39:08Z</time>
      </trkpt>
      <trkpt lat="45.64225" lon="-1.0865">
        <ele>8</ele>
        <time>2019-04-29T07:39:38Z</time>
      </trkpt>
      <trkpt lat="45.6424" lon="-1.08684">
        <ele>8</ele>
        <time>2019-04-29T07:39:44Z</time>
      </trkpt>
      <trkpt lat="45.64263" lon="-1.08783">
        <ele>9</ele>
        <time>2019-04-29T07:40:12Z</time>
      </trkpt>
      <trkpt lat="45.64314" lon="-1.08896">
        <ele>10</ele>
        <time>2019-04-29T07:40:42Z</time>
      </trkpt>
      <trkpt lat="45.64422" lon="-1.09106">
        <ele>13</ele>
        <time>2019-04-29T07:41:30Z</time>
      </trkpt>
      <trkpt lat="45.64448" lon="-1.0913">
        <ele>16</ele>
        <time>2019-04-29T07:41:42Z</time>
      </trkpt>
      <trkpt lat="45.64455" lon="-1.0932">
        <ele>24</ele>
        <time>2019-04-29T07:42:36Z</time>
      </trkpt>
      <trkpt lat="45.64484" lon="-1.09436">
        <ele>27</ele>
        <time>2019-04-29T07:43:12Z</time>
      </trkpt>
      <trkpt lat="45.64503" lon="-1.09483">
        <ele>29</ele>
        <time>2019-04-29T07:43:24Z</time>
      </trkpt>
      <trkpt lat="45.64516" lon="-1.09561">
        <ele>28</ele>
        <time>2019-04-29T07:43:42Z</time>
      </trkpt>
      <trkpt lat="45.6454" lon="-1.09621">
        <ele>25</ele>
        <time>2019-04-29T07:43:54Z</time>
      </trkpt>
      <trkpt lat="45.64638" lon="-1.09976">
        <ele>24</ele>
        <time>2019-04-29T07:45:00Z</time>
      </trkpt>
      <trkpt lat="45.64666" lon="-1.09996">
        <ele>24</ele>
        <time>2019-04-29T07:45:12Z</time>
      </trkpt>
      <trkpt lat="45.64648" lon="-1.10177">
        <ele>19</ele>
        <time>2019-04-29T07:45:36Z</time>
      </trkpt>
      <trkpt lat="45.64689" lon="-1.10465">
        <ele>19</ele>
        <time>2019-04-29T07:46:18Z</time>
      </trkpt>
      <trkpt lat="45.64693" lon="-1.10524">
        <ele>20</ele>
        <time>2019-04-29T07:46:30Z</time>
      </trkpt>
      <trkpt lat="45.64684" lon="-1.10587">
        <ele>21</ele>
        <time>2019-04-29T07:47:04Z</time>
      </trkpt>
      <trkpt lat="45.64707" lon="-1.10644">
        <ele>19</ele>
        <time>2019-04-29T07:47:32Z</time>
      </trkpt>
      <trkpt lat="45.64706" lon="-1.10715">
        <ele>18</ele>
        <time>2019-04-29T07:47:44Z</time>
      </trkpt>
      <trkpt lat="45.64734" lon="-1.10995">
        <ele>10</ele>
        <time>2019-04-29T07:48:20Z</time>
      </trkpt>
      <trkpt lat="45.64802" lon="-1.11322">
        <ele>12</ele>
        <time>2019-04-29T07:49:32Z</time>
      </trkpt>
      <trkpt lat="45.64823" lon="-1.11397">
        <ele>14</ele>
        <time>2019-04-29T07:49:50Z</time>
      </trkpt>
      <trkpt lat="45.64843" lon="-1.11558">
        <ele>12</ele>
        <time>2019-04-29T07:50:26Z</time>
      </trkpt>
      <trkpt lat="45.65013" lon="-1.11968">
        <ele>11</ele>
        <time>2019-04-29T07:51:50Z</time>
      </trkpt>
      <trkpt lat="45.65093" lon="-1.12133">
        <ele>13</ele>
        <time>2019-04-29T07:52:34Z</time>
      </trkpt>
      <trkpt lat="45.65163" lon="-1.12343">
        <ele>12.8</ele>
        <time>2019-04-29T07:53:10Z</time>
      </trkpt>
      <trkpt lat="45.65179" lon="-1.12373">
        <ele>12.3</ele>
        <time>2019-04-29T07:53:16Z</time>
      </trkpt>
      <trkpt lat="45.652" lon="-1.12367">
        <ele>8</ele>
        <time>2019-04-29T07:53:22Z</time>
      </trkpt>
      <trkpt lat="45.65241" lon="-1.12334">
        <ele>12</ele>
        <time>2019-04-29T07:53:40Z</time>
      </trkpt>
      <trkpt lat="45.65248" lon="-1.12324">
        <ele>14</ele>
        <time>2019-04-29T07:53:46Z</time>
      </trkpt>
      <trkpt lat="45.65252" lon="-1.12265">
        <ele>15</ele>
        <time>2019-04-29T07:53:58Z</time>
      </trkpt>
      <trkpt lat="45.65287" lon="-1.12213">
        <ele>15</ele>
        <time>2019-04-29T07:54:10Z</time>
      </trkpt>
      <trkpt lat="45.65338" lon="-1.122">
        <ele>17</ele>
        <time>2019-04-29T07:54:22Z</time>
      </trkpt>
      <trkpt lat="45.65365" lon="-1.12212">
        <ele>17</ele>
        <time>2019-04-29T07:54:28Z</time>
      </trkpt>
      <trkpt lat="45.65821" lon="-1.12614">
        <ele>16</ele>
        <time>2019-04-29T07:56:46Z</time>
      </trkpt>
      <trkpt lat="45.65839" lon="-1.12648">
        <ele>16</ele>
        <time>2019-04-29T07:56:52Z</time>
      </trkpt>
      <trkpt lat="45.65821" lon="-1.12701">
        <ele>15</ele>
        <time>2019-04-29T07:57:04Z</time>
      </trkpt>
      <trkpt lat="45.65817" lon="-1.12759">
        <ele>13</ele>
        <time>2019-04-29T07:57:16Z</time>
      </trkpt>
      <trkpt lat="45.65914" lon="-1.13011">
        <ele>12</ele>
        <time>2019-04-29T07:57:52Z</time>
      </trkpt>
      <trkpt lat="45.65924" lon="-1.13058">
        <ele>14</ele>
        <time>2019-04-29T07:57:58Z</time>
      </trkpt>
      <trkpt lat="45.65932" lon="-1.13173">
        <ele>13</ele>
        <time>2019-04-29T07:58:16Z</time>
      </trkpt>
      <trkpt lat="45.65953" lon="-1.13245">
        <ele>12</ele>
        <time>2019-04-29T07:58:28Z</time>
      </trkpt>
      <trkpt lat="45.66349" lon="-1.13833">
        <ele>18</ele>
        <time>2019-04-29T08:00:40Z</time>
      </trkpt>
      <trkpt lat="45.66379" lon="-1.13942">
        <ele>14</ele>
        <time>2019-04-29T08:01:04Z</time>
      </trkpt>
      <trkpt lat="45.6643" lon="-1.14055">
        <ele>13</ele>
        <time>2019-04-29T08:01:22Z</time>
      </trkpt>
      <trkpt lat="45.66514" lon="-1.14143">
        <ele>13</ele>
        <time>2019-04-29T08:01:40Z</time>
      </trkpt>
      <trkpt lat="45.66548" lon="-1.14299">
        <ele>10</ele>
        <time>2019-04-29T08:02:04Z</time>
      </trkpt>
      <trkpt lat="45.66647" lon="-1.1438">
        <ele>9</ele>
        <time>2019-04-29T08:02:40Z</time>
      </trkpt>
      <trkpt lat="45.66778" lon="-1.14531">
        <ele>7</ele>
        <time>2019-04-29T08:03:28Z</time>
      </trkpt>
      <trkpt lat="45.66841" lon="-1.14578">
        <ele>7</ele>
        <time>2019-04-29T08:03:46Z</time>
      </trkpt>
      <trkpt lat="45.66901" lon="-1.14647">
        <ele>7</ele>
        <time>2019-04-29T08:04:04Z</time>
      </trkpt>
      <trkpt lat="45.67006" lon="-1.1472">
        <ele>8</ele>
        <time>2019-04-29T08:04:28Z</time>
      </trkpt>
      <trkpt lat="45.67067" lon="-1.14781">
        <ele>8</ele>
        <time>2019-04-29T08:04:46Z</time>
      </trkpt>
      <trkpt lat="45.67201" lon="-1.14874">
        <ele>8</ele>
        <time>2019-04-29T08:05:16Z</time>
      </trkpt>
      <trkpt lat="45.67335" lon="-1.15008">
        <ele>9</ele>
        <time>2019-04-29T08:05:52Z</time>
      </trkpt>
      <trkpt lat="45.67482" lon="-1.15119">
        <ele>9</ele>
        <time>2019-04-29T08:06:34Z</time>
      </trkpt>
      <trkpt lat="45.67559" lon="-1.15191">
        <ele>9</ele>
        <time>2019-04-29T08:06:58Z</time>
      </trkpt>
      <trkpt lat="45.67647" lon="-1.15242">
        <ele>9</ele>
        <time>2019-04-29T08:07:10Z</time>
      </trkpt>
      <trkpt lat="45.67749" lon="-1.15365">
        <ele>8</ele>
        <time>2019-04-29T08:07:40Z</time>
      </trkpt>
      <trkpt lat="45.67905" lon="-1.15626">
        <ele>9</ele>
        <time>2019-04-29T08:08:34Z</time>
      </trkpt>
      <trkpt lat="45.68009" lon="-1.15778">
        <ele>8</ele>
        <time>2019-04-29T08:09:10Z</time>
      </trkpt>
      <trkpt lat="45.6801" lon="-1.15797">
        <ele>8</ele>
        <time>2019-04-29T08:09:20Z</time>
      </trkpt>
      <trkpt lat="45.6775" lon="-1.16178">
        <ele>9</ele>
        <time>2019-04-29T08:11:02Z</time>
      </trkpt>
      <trkpt lat="45.67725" lon="-1.16182">
        <ele>10</ele>
        <time>2019-04-29T08:11:08Z</time>
      </trkpt>
      <trkpt lat="45.67662" lon="-1.16159">
        <ele>10</ele>
        <time>2019-04-29T08:11:26Z</time>
      </trkpt>
      <trkpt lat="45.67609" lon="-1.16171">
        <ele>8</ele>
        <time>2019-04-29T08:11:38Z</time>
      </trkpt>
      <trkpt lat="45.67589" lon="-1.16219">
        <ele>3</ele>
        <time>2019-04-29T08:11:50Z</time>
      </trkpt>
      <trkpt lat="45.67537" lon="-1.1644">
        <ele>5.1</ele>
        <time>2019-04-29T08:12:26Z</time>
      </trkpt>
      <trkpt lat="45.67508" lon="-1.16516">
        <ele>7.1</ele>
        <time>2019-04-29T08:12:44Z</time>
      </trkpt>
      <trkpt lat="45.67517" lon="-1.16568">
        <ele>6.6</ele>
        <time>2019-04-29T08:12:56Z</time>
      </trkpt>
      <trkpt lat="45.67702" lon="-1.16981">
        <ele>3</ele>
        <time>2019-04-29T08:14:14Z</time>
      </trkpt>
      <trkpt lat="45.67739" lon="-1.17036">
        <ele>2</ele>
        <time>2019-04-29T08:14:26Z</time>
      </trkpt>
      <trkpt lat="45.67797" lon="-1.17167">
        <ele>4</ele>
        <time>2019-04-29T08:14:50Z</time>
      </trkpt>
      <trkpt lat="45.67803" lon="-1.17205">
        <ele>4</ele>
        <time>2019-04-29T08:14:56Z</time>
      </trkpt>
      <trkpt lat="45.67855" lon="-1.17337">
        <ele>3</ele>
        <time>2019-04-29T08:15:20Z</time>
      </trkpt>
      <trkpt lat="45.68041" lon="-1.177">
        <ele>4</ele>
        <time>2019-04-29T08:16:38Z</time>
      </trkpt>
      <trkpt lat="45.68081" lon="-1.17766">
        <ele>6</ele>
        <time>2019-04-29T08:17:12Z</time>
      </trkpt>
      <trkpt lat="45.68094" lon="-1.17774">
        <ele>6</ele>
        <time>2019-04-29T08:17:36Z</time>
      </trkpt>
      <trkpt lat="45.68061" lon="-1.17735">
        <ele>4</ele>
        <time>2019-04-29T08:18:13Z</time>
      </trkpt>
      <trkpt lat="45.68069" lon="-1.17738">
        <ele>4</ele>
        <time>2019-04-29T08:18:19Z</time>
      </trkpt>
      <trkpt lat="45.68124" lon="-1.17833">
        <ele>3</ele>
        <time>2019-04-29T08:18:55Z</time>
      </trkpt>
      <trkpt lat="45.68138" lon="-1.1784">
        <ele>4</ele>
        <time>2019-04-29T08:19:01Z</time>
      </trkpt>
      <trkpt lat="45.6821" lon="-1.17841">
        <ele>7</ele>
        <time>2019-04-29T08:19:25Z</time>
      </trkpt>
      <trkpt lat="45.68208" lon="-1.17859">
        <ele>7</ele>
        <time>2019-04-29T08:19:40Z</time>
      </trkpt>
      <trkpt lat="45.68209" lon="-1.1785">
        <ele>7</ele>
        <time>2019-04-29T08:19:42Z</time>
      </trkpt>
      <trkpt lat="45.68209" lon="-1.17867">
        <ele>7</ele>
        <time>2019-04-29T08:19:56Z</time>
      </trkpt>
      <trkpt lat="45.68193" lon="-1.17855">
        <ele>7</ele>
        <time>2019-04-29T08:20:16Z</time>
      </trkpt>
      <trkpt lat="45.68189" lon="-1.17842">
        <ele>7</ele>
        <time>2019-04-29T08:20:22Z</time>
      </trkpt>
      <trkpt lat="45.68148" lon="-1.17843">
        <ele>4</ele>
        <time>2019-04-29T08:20:40Z</time>
      </trkpt>
      <trkpt lat="45.68139" lon="-1.17849">
        <ele>4</ele>
        <time>2019-04-29T08:20:46Z</time>
      </trkpt>
      <trkpt lat="45.68147" lon="-1.17876">
        <ele>4</ele>
        <time>2019-04-29T08:20:58Z</time>
      </trkpt>
      <trkpt lat="45.68166" lon="-1.17906">
        <ele>3</ele>
        <time>2019-04-29T08:21:10Z</time>
      </trkpt>
      <trkpt lat="45.68195" lon="-1.17929">
        <ele>6</ele>
        <time>2019-04-29T08:21:22Z</time>
      </trkpt>
      <trkpt lat="45.68237" lon="-1.18012">
        <ele>7</ele>
        <time>2019-04-29T08:21:40Z</time>
      </trkpt>
      <trkpt lat="45.68279" lon="-1.18056">
        <ele>5</ele>
        <time>2019-04-29T08:21:52Z</time>
      </trkpt>
      <trkpt lat="45.68326" lon="-1.18133">
        <ele>5</ele>
        <time>2019-04-29T08:22:10Z</time>
      </trkpt>
      <trkpt lat="45.68353" lon="-1.18166">
        <ele>5</ele>
        <time>2019-04-29T08:22:22Z</time>
      </trkpt>
      <trkpt lat="45.68379" lon="-1.18175">
        <ele>4.5</ele>
        <time>2019-04-29T08:22:28Z</time>
      </trkpt>
      <trkpt lat="45.68423" lon="-1.18212">
        <ele>1</ele>
        <time>2019-04-29T08:22:40Z</time>
      </trkpt>
      <trkpt lat="45.6847" lon="-1.18229">
        <ele>5</ele>
        <time>2019-04-29T08:22:52Z</time>
      </trkpt>
      <trkpt lat="45.68498" lon="-1.18263">
        <ele>5.9</ele>
        <time>2019-04-29T08:23:04Z</time>
      </trkpt>
      <trkpt lat="45.68556" lon="-1.18374">
        <ele>7.9</ele>
        <time>2019-04-29T08:23:28Z</time>
      </trkpt>
      <trkpt lat="45.68658" lon="-1.18535">
        <ele>7</ele>
        <time>2019-04-29T08:23:58Z</time>
      </trkpt>
      <trkpt lat="45.6867" lon="-1.18588">
        <ele>7</ele>
        <time>2019-04-29T08:24:04Z</time>
      </trkpt>
      <trkpt lat="45.68665" lon="-1.18691">
        <ele>6</ele>
        <time>2019-04-29T08:24:22Z</time>
      </trkpt>
      <trkpt lat="45.68759" lon="-1.18831">
        <ele>6</ele>
        <time>2019-04-29T08:24:46Z</time>
      </trkpt>
      <trkpt lat="45.68851" lon="-1.19004">
        <ele>7</ele>
        <time>2019-04-29T08:25:16Z</time>
      </trkpt>
      <trkpt lat="45.68878" lon="-1.1903">
        <ele>7</ele>
        <time>2019-04-29T08:25:22Z</time>
      </trkpt>
      <trkpt lat="45.69024" lon="-1.18956">
        <ele>5</ele>
        <time>2019-04-29T08:25:52Z</time>
      </trkpt>
      <trkpt lat="45.6908" lon="-1.18972">
        <ele>5</ele>
        <time>2019-04-29T08:26:04Z</time>
      </trkpt>
      <trkpt lat="45.69098" lon="-1.19015">
        <ele>5</ele>
        <time>2019-04-29T08:26:16Z</time>
      </trkpt>
      <trkpt lat="45.69155" lon="-1.19026">
        <ele>5</ele>
        <time>2019-04-29T08:26:28Z</time>
      </trkpt>
      <trkpt lat="45.69211" lon="-1.19066">
        <ele>6</ele>
        <time>2019-04-29T08:26:40Z</time>
      </trkpt>
      <trkpt lat="45.69387" lon="-1.19287">
        <ele>6</ele>
        <time>2019-04-29T08:27:22Z</time>
      </trkpt>
      <trkpt lat="45.69427" lon="-1.19353">
        <ele>6</ele>
        <time>2019-04-29T08:27:34Z</time>
      </trkpt>
      <trkpt lat="45.69485" lon="-1.19558">
        <ele>6</ele>
        <time>2019-04-29T08:28:04Z</time>
      </trkpt>
      <trkpt lat="45.69487" lon="-1.19605">
        <ele>6</ele>
        <time>2019-04-29T08:28:10Z</time>
      </trkpt>
      <trkpt lat="45.69465" lon="-1.19726">
        <ele>5</ele>
        <time>2019-04-29T08:28:28Z</time>
      </trkpt>
      <trkpt lat="45.69495" lon="-1.19856">
        <ele>5</ele>
        <time>2019-04-29T08:28:46Z</time>
      </trkpt>
      <trkpt lat="45.69483" lon="-1.19937">
        <ele>4</ele>
        <time>2019-04-29T08:28:58Z</time>
      </trkpt>
      <trkpt lat="45.6949" lon="-1.20031">
        <ele>3</ele>
        <time>2019-04-29T08:29:10Z</time>
      </trkpt>
      <trkpt lat="45.69532" lon="-1.20108">
        <ele>3</ele>
        <time>2019-04-29T08:29:22Z</time>
      </trkpt>
      <trkpt lat="45.69597" lon="-1.20317">
        <ele>4</ele>
        <time>2019-04-29T08:29:52Z</time>
      </trkpt>
      <trkpt lat="45.69645" lon="-1.20396">
        <ele>5</ele>
        <time>2019-04-29T08:30:10Z</time>
      </trkpt>
      <trkpt lat="45.69708" lon="-1.20576">
        <ele>8</ele>
        <time>2019-04-29T08:30:40Z</time>
      </trkpt>
      <trkpt lat="45.69741" lon="-1.20756">
        <ele>8</ele>
        <time>2019-04-29T08:31:04Z</time>
      </trkpt>
      <trkpt lat="45.69745" lon="-1.20937">
        <ele>9</ele>
        <time>2019-04-29T08:31:28Z</time>
      </trkpt>
      <trkpt lat="45.69764" lon="-1.2109">
        <ele>12</ele>
        <time>2019-04-29T08:31:52Z</time>
      </trkpt>
      <trkpt lat="45.69758" lon="-1.21332">
        <ele>12</ele>
        <time>2019-04-29T08:32:28Z</time>
      </trkpt>
      <trkpt lat="45.69742" lon="-1.21503">
        <ele>7</ele>
        <time>2019-04-29T08:32:52Z</time>
      </trkpt>
      <trkpt lat="45.69745" lon="-1.21535">
        <ele>7</ele>
        <time>2019-04-29T08:32:58Z</time>
      </trkpt>
      <trkpt lat="45.69765" lon="-1.2158">
        <ele>12</ele>
        <time>2019-04-29T08:33:10Z</time>
      </trkpt>
      <trkpt lat="45.69782" lon="-1.21701">
        <ele>14</ele>
        <time>2019-04-29T08:33:28Z</time>
      </trkpt>
      <trkpt lat="45.69747" lon="-1.21902">
        <ele>13</ele>
        <time>2019-04-29T08:33:58Z</time>
      </trkpt>
      <trkpt lat="45.69678" lon="-1.22126">
        <ele>13</ele>
        <time>2019-04-29T08:34:34Z</time>
      </trkpt>
      <trkpt lat="45.69674" lon="-1.22221">
        <ele>16</ele>
        <time>2019-04-29T08:34:52Z</time>
      </trkpt>
      <trkpt lat="45.69691" lon="-1.22498">
        <ele>13</ele>
        <time>2019-04-29T08:35:28Z</time>
      </trkpt>
      <trkpt lat="45.69692" lon="-1.22708">
        <ele>10</ele>
        <time>2019-04-29T08:35:52Z</time>
      </trkpt>
      <trkpt lat="45.69708" lon="-1.22812">
        <ele>9</ele>
        <time>2019-04-29T08:36:04Z</time>
      </trkpt>
      <trkpt lat="45.69758" lon="-1.2288">
        <ele>9</ele>
        <time>2019-04-29T08:36:16Z</time>
      </trkpt>
      <trkpt lat="45.69765" lon="-1.22923">
        <ele>9</ele>
        <time>2019-04-29T08:36:34Z</time>
      </trkpt>
      <trkpt lat="45.69753" lon="-1.23035">
        <ele>8</ele>
        <time>2019-04-29T08:36:58Z</time>
      </trkpt>
      <trkpt lat="45.69732" lon="-1.23089">
        <ele>8</ele>
        <time>2019-04-29T08:37:10Z</time>
      </trkpt>
      <trkpt lat="45.69729" lon="-1.23132">
        <ele>8</ele>
        <time>2019-04-29T08:37:16Z</time>
      </trkpt>
      <trkpt lat="45.6974" lon="-1.23195">
        <ele>8</ele>
        <time>2019-04-29T08:37:28Z</time>
      </trkpt>
      <trkpt lat="45.70048" lon="-1.23188">
        <ele>7</ele>
        <time>2019-04-29T08:38:52Z</time>
      </trkpt>
      <trkpt lat="45.70078" lon="-1.23218">
        <ele>7</ele>
        <time>2019-04-29T08:38:58Z</time>
      </trkpt>
      <trkpt lat="45.70114" lon="-1.23274">
        <ele>5</ele>
        <time>2019-04-29T08:39:10Z</time>
      </trkpt>
      <trkpt lat="45.70155" lon="-1.23307">
        <ele>5</ele>
        <time>2019-04-29T08:39:22Z</time>
      </trkpt>
      <trkpt lat="45.70567" lon="-1.23288">
        <ele>7</ele>
        <time>2019-04-29T08:40:52Z</time>
      </trkpt>
      <trkpt lat="45.70662" lon="-1.23334">
        <ele>6</ele>
        <time>2019-04-29T08:41:10Z</time>
      </trkpt>
      <trkpt lat="45.70717" lon="-1.23333">
        <ele>5</ele>
        <time>2019-04-29T08:41:22Z</time>
      </trkpt>
      <trkpt lat="45.70768" lon="-1.23371">
        <ele>5</ele>
        <time>2019-04-29T08:41:34Z</time>
      </trkpt>
      <trkpt lat="45.70813" lon="-1.2338">
        <ele>5</ele>
        <time>2019-04-29T08:41:46Z</time>
      </trkpt>
      <trkpt lat="45.70855" lon="-1.2336">
        <ele>5</ele>
        <time>2019-04-29T08:41:58Z</time>
      </trkpt>
      <trkpt lat="45.70925" lon="-1.23307">
        <ele>7</ele>
        <time>2019-04-29T08:42:16Z</time>
      </trkpt>
      <trkpt lat="45.71037" lon="-1.23296">
        <ele>7</ele>
        <time>2019-04-29T08:42:40Z</time>
      </trkpt>
      <trkpt lat="45.71112" lon="-1.23256">
        <ele>7</ele>
        <time>2019-04-29T08:42:58Z</time>
      </trkpt>
      <trkpt lat="45.71277" lon="-1.23244">
        <ele>9</ele>
        <time>2019-04-29T08:43:34Z</time>
      </trkpt>
      <trkpt lat="45.71307" lon="-1.2325">
        <ele>10</ele>
        <time>2019-04-29T08:43:46Z</time>
      </trkpt>
      <trkpt lat="45.71301" lon="-1.23249">
        <ele>10</ele>
        <time>2019-04-29T08:43:58Z</time>
      </trkpt>
      <trkpt lat="45.71303" lon="-1.2324">
        <ele>10</ele>
        <time>2019-04-29T08:44:02Z</time>
      </trkpt>
      <trkpt lat="45.71338" lon="-1.23238">
        <ele>10</ele>
        <time>2019-04-29T08:44:20Z</time>
      </trkpt>
      <trkpt lat="45.7141" lon="-1.23245">
        <ele>10</ele>
        <time>2019-04-29T08:44:38Z</time>
      </trkpt>
      <trkpt lat="45.7156" lon="-1.23229">
        <ele>8</ele>
        <time>2019-04-29T08:45:08Z</time>
      </trkpt>
      <trkpt lat="45.71792" lon="-1.23225">
        <ele>9</ele>
        <time>2019-04-29T08:45:50Z</time>
      </trkpt>
      <trkpt lat="45.72159" lon="-1.23189">
        <ele>8</ele>
        <time>2019-04-29T08:47:36Z</time>
      </trkpt>
      <trkpt lat="45.72265" lon="-1.23194">
        <ele>7</ele>
        <time>2019-04-29T08:48:00Z</time>
      </trkpt>
      <trkpt lat="45.72685" lon="-1.23164">
        <ele>10</ele>
        <time>2019-04-29T08:49:36Z</time>
      </trkpt>
      <trkpt lat="45.72741" lon="-1.23137">
        <ele>9</ele>
        <time>2019-04-29T08:49:48Z</time>
      </trkpt>
      <trkpt lat="45.72762" lon="-1.23098">
        <ele>10</ele>
        <time>2019-04-29T08:49:54Z</time>
      </trkpt>
      <trkpt lat="45.72814" lon="-1.23057">
        <ele>9</ele>
        <time>2019-04-29T08:50:06Z</time>
      </trkpt>
      <trkpt lat="45.72921" lon="-1.23054">
        <ele>10</ele>
        <time>2019-04-29T08:50:30Z</time>
      </trkpt>
      <trkpt lat="45.72972" lon="-1.23032">
        <ele>11</ele>
        <time>2019-04-29T08:50:42Z</time>
      </trkpt>
      <trkpt lat="45.73047" lon="-1.22927">
        <ele>12</ele>
        <time>2019-04-29T08:51:06Z</time>
      </trkpt>
      <trkpt lat="45.73079" lon="-1.22893">
        <ele>11</ele>
        <time>2019-04-29T08:51:18Z</time>
      </trkpt>
      <trkpt lat="45.73094" lon="-1.22829">
        <ele>10</ele>
        <time>2019-04-29T08:51:30Z</time>
      </trkpt>
      <trkpt lat="45.73178" lon="-1.22749">
        <ele>9</ele>
        <time>2019-04-29T08:51:54Z</time>
      </trkpt>
      <trkpt lat="45.73272" lon="-1.22495">
        <ele>10</ele>
        <time>2019-04-29T08:52:42Z</time>
      </trkpt>
      <trkpt lat="45.73317" lon="-1.22481">
        <ele>10</ele>
        <time>2019-04-29T08:52:54Z</time>
      </trkpt>
      <trkpt lat="45.73405" lon="-1.2248">
        <ele>10</ele>
        <time>2019-04-29T08:53:12Z</time>
      </trkpt>
      <trkpt lat="45.73472" lon="-1.22464">
        <ele>10</ele>
        <time>2019-04-29T08:53:30Z</time>
      </trkpt>
      <trkpt lat="45.73635" lon="-1.22453">
        <ele>10</ele>
        <time>2019-04-29T08:54:06Z</time>
      </trkpt>
      <trkpt lat="45.73974" lon="-1.22439">
        <ele>13</ele>
        <time>2019-04-29T08:55:12Z</time>
      </trkpt>
      <trkpt lat="45.73996" lon="-1.22457">
        <ele>13</ele>
        <time>2019-04-29T08:55:18Z</time>
      </trkpt>
      <trkpt lat="45.74021" lon="-1.22534">
        <ele>12</ele>
        <time>2019-04-29T08:55:30Z</time>
      </trkpt>
      <trkpt lat="45.74044" lon="-1.22632">
        <ele>13</ele>
        <time>2019-04-29T08:55:42Z</time>
      </trkpt>
      <trkpt lat="45.7404" lon="-1.2269">
        <ele>13</ele>
        <time>2019-04-29T08:55:54Z</time>
      </trkpt>
      <trkpt lat="45.74057" lon="-1.22723">
        <ele>13</ele>
        <time>2019-04-29T08:56:00Z</time>
      </trkpt>
      <trkpt lat="45.74119" lon="-1.22764">
        <ele>16</ele>
        <time>2019-04-29T08:56:12Z</time>
      </trkpt>
      <trkpt lat="45.74369" lon="-1.22771">
        <ele>13</ele>
        <time>2019-04-29T08:57:00Z</time>
      </trkpt>
      <trkpt lat="45.74658" lon="-1.22763">
        <ele>13</ele>
        <time>2019-04-29T08:58:06Z</time>
      </trkpt>
      <trkpt lat="45.75219" lon="-1.22854">
        <ele>14</ele>
        <time>2019-04-29T09:00:06Z</time>
      </trkpt>
      <trkpt lat="45.75573" lon="-1.22825">
        <ele>14</ele>
        <time>2019-04-29T09:01:24Z</time>
      </trkpt>
      <trkpt lat="45.76244" lon="-1.22907">
        <ele>12</ele>
        <time>2019-04-29T09:03:48Z</time>
      </trkpt>
      <trkpt lat="45.76324" lon="-1.22925">
        <ele>12</ele>
        <time>2019-04-29T09:04:06Z</time>
      </trkpt>
      <trkpt lat="45.76493" lon="-1.22936">
        <ele>13</ele>
        <time>2019-04-29T09:04:42Z</time>
      </trkpt>
      <trkpt lat="45.76629" lon="-1.2296">
        <ele>11</ele>
        <time>2019-04-29T09:05:12Z</time>
      </trkpt>
      <trkpt lat="45.76877" lon="-1.22983">
        <ele>7</ele>
        <time>2019-04-29T09:06:00Z</time>
      </trkpt>
      <trkpt lat="45.7705" lon="-1.2297">
        <ele>8</ele>
        <time>2019-04-29T09:06:30Z</time>
      </trkpt>
      <trkpt lat="45.77672" lon="-1.2286">
        <ele>9</ele>
        <time>2019-04-29T09:08:30Z</time>
      </trkpt>
      <trkpt lat="45.77759" lon="-1.22853">
        <ele>8</ele>
        <time>2019-04-29T09:08:54Z</time>
      </trkpt>
      <trkpt lat="45.77947" lon="-1.2281">
        <ele>8</ele>
        <time>2019-04-29T09:09:42Z</time>
      </trkpt>
      <trkpt lat="45.78005" lon="-1.22808">
        <ele>9</ele>
        <time>2019-04-29T09:09:54Z</time>
      </trkpt>
      <trkpt lat="45.78152" lon="-1.22771">
        <ele>9</ele>
        <time>2019-04-29T09:10:30Z</time>
      </trkpt>
      <trkpt lat="45.78238" lon="-1.22727">
        <ele>10</ele>
        <time>2019-04-29T09:10:54Z</time>
      </trkpt>
      <trkpt lat="45.78357" lon="-1.2263">
        <ele>11</ele>
        <time>2019-04-29T09:11:30Z</time>
      </trkpt>
      <trkpt lat="45.78465" lon="-1.22497">
        <ele>14</ele>
        <time>2019-04-29T09:12:06Z</time>
      </trkpt>
      <trkpt lat="45.78712" lon="-1.22063">
        <ele>8</ele>
        <time>2019-04-29T09:13:30Z</time>
      </trkpt>
      <trkpt lat="45.7899" lon="-1.21544">
        <ele>8</ele>
        <time>2019-04-29T09:15:18Z</time>
      </trkpt>
      <trkpt lat="45.79057" lon="-1.21289">
        <ele>7</ele>
        <time>2019-04-29T09:16:06Z</time>
      </trkpt>
      <trkpt lat="45.79081" lon="-1.21147">
        <ele>8</ele>
        <time>2019-04-29T09:16:30Z</time>
      </trkpt>
      <trkpt lat="45.79096" lon="-1.21002">
        <ele>9</ele>
        <time>2019-04-29T09:16:54Z</time>
      </trkpt>
      <trkpt lat="45.79086" lon="-1.20708">
        <ele>12</ele>
        <time>2019-04-29T09:17:42Z</time>
      </trkpt>
      <trkpt lat="45.78993" lon="-1.20059">
        <ele>11</ele>
        <time>2019-04-29T09:19:36Z</time>
      </trkpt>
      <trkpt lat="45.78874" lon="-1.19664">
        <ele>11</ele>
        <time>2019-04-29T09:20:42Z</time>
      </trkpt>
      <trkpt lat="45.78871" lon="-1.19431">
        <ele>10</ele>
        <time>2019-04-29T09:21:24Z</time>
      </trkpt>
      <trkpt lat="45.78876" lon="-1.19331">
        <ele>11</ele>
        <time>2019-04-29T09:21:42Z</time>
      </trkpt>
      <trkpt lat="45.78867" lon="-1.19263">
        <ele>11</ele>
        <time>2019-04-29T09:22:06Z</time>
      </trkpt>
      <trkpt lat="45.78877" lon="-1.18926">
        <ele>12</ele>
        <time>2019-04-29T09:23:36Z</time>
      </trkpt>
      <trkpt lat="45.78839" lon="-1.18829">
        <ele>16</ele>
        <time>2019-04-29T09:24:08Z</time>
      </trkpt>
      <trkpt lat="45.78712" lon="-1.18649">
        <ele>14</ele>
        <time>2019-04-29T09:25:02Z</time>
      </trkpt>
      <trkpt lat="45.78669" lon="-1.1857">
        <ele>15</ele>
        <time>2019-04-29T09:25:20Z</time>
      </trkpt>
      <trkpt lat="45.78645" lon="-1.18465">
        <ele>13</ele>
        <time>2019-04-29T09:25:38Z</time>
      </trkpt>
      <trkpt lat="45.78639" lon="-1.1836">
        <ele>14</ele>
        <time>2019-04-29T09:25:56Z</time>
      </trkpt>
      <trkpt lat="45.78653" lon="-1.18256">
        <ele>13</ele>
        <time>2019-04-29T09:26:14Z</time>
      </trkpt>
      <trkpt lat="45.78696" lon="-1.18142">
        <ele>15</ele>
        <time>2019-04-29T09:26:38Z</time>
      </trkpt>
      <trkpt lat="45.78758" lon="-1.17931">
        <ele>17</ele>
        <time>2019-04-29T09:27:20Z</time>
      </trkpt>
      <trkpt lat="45.78813" lon="-1.17803">
        <ele>19</ele>
        <time>2019-04-29T09:27:50Z</time>
      </trkpt>
      <trkpt lat="45.78883" lon="-1.17567">
        <ele>18</ele>
        <time>2019-04-29T09:28:32Z</time>
      </trkpt>
      <trkpt lat="45.78954" lon="-1.17362">
        <ele>16</ele>
        <time>2019-04-29T09:29:08Z</time>
      </trkpt>
      <trkpt lat="45.7901" lon="-1.17227">
        <ele>16</ele>
        <time>2019-04-29T09:29:32Z</time>
      </trkpt>
      <trkpt lat="45.79084" lon="-1.16993">
        <ele>16</ele>
        <time>2019-04-29T09:30:14Z</time>
      </trkpt>
      <trkpt lat="45.7913" lon="-1.16886">
        <ele>15</ele>
        <time>2019-04-29T09:30:32Z</time>
      </trkpt>
      <trkpt lat="45.7929" lon="-1.16433">
        <ele>15</ele>
        <time>2019-04-29T09:31:50Z</time>
      </trkpt>
      <trkpt lat="45.79309" lon="-1.16353">
        <ele>13</ele>
        <time>2019-04-29T09:32:02Z</time>
      </trkpt>
      <trkpt lat="45.79308" lon="-1.1628">
        <ele>11</ele>
        <time>2019-04-29T09:32:14Z</time>
      </trkpt>
      <trkpt lat="45.79294" lon="-1.16177">
        <ele>10</ele>
        <time>2019-04-29T09:32:32Z</time>
      </trkpt>
      <trkpt lat="45.7925" lon="-1.1613">
        <ele>13</ele>
        <time>2019-04-29T09:32:50Z</time>
      </trkpt>
      <trkpt lat="45.79222" lon="-1.16086">
        <ele>13</ele>
        <time>2019-04-29T09:33:28Z</time>
      </trkpt>
      <trkpt lat="45.78851" lon="-1.15877">
        <ele>8</ele>
        <time>2019-04-29T09:35:16Z</time>
      </trkpt>
      <trkpt lat="45.7864" lon="-1.15774">
        <ele>14</ele>
        <time>2019-04-29T09:36:29Z</time>
      </trkpt>
      <trkpt lat="45.78601" lon="-1.15731">
        <ele>9</ele>
        <time>2019-04-29T09:36:51Z</time>
      </trkpt>
      <trkpt lat="45.78593" lon="-1.15703">
        <ele>9</ele>
        <time>2019-04-29T09:37:24Z</time>
      </trkpt>
      <trkpt lat="45.78567" lon="-1.15716">
        <ele>7</ele>
        <time>2019-04-29T09:38:00Z</time>
      </trkpt>
      <trkpt lat="45.78555" lon="-1.15698">
        <ele>4</ele>
        <time>2019-04-29T09:38:16Z</time>
      </trkpt>
      <trkpt lat="45.78552" lon="-1.15677">
        <ele>4</ele>
        <time>2019-04-29T09:38:28Z</time>
      </trkpt>
      <trkpt lat="45.78601" lon="-1.15645">
        <ele>6</ele>
        <time>2019-04-29T09:38:46Z</time>
      </trkpt>
      <trkpt lat="45.78714" lon="-1.1549">
        <ele>3</ele>
        <time>2019-04-29T09:39:28Z</time>
      </trkpt>
      <trkpt lat="45.78874" lon="-1.15374">
        <ele>10</ele>
        <time>2019-04-29T09:40:16Z</time>
      </trkpt>
      <trkpt lat="45.7899" lon="-1.15257">
        <ele>13</ele>
        <time>2019-04-29T09:40:52Z</time>
      </trkpt>
      <trkpt lat="45.79051" lon="-1.15219">
        <ele>11</ele>
        <time>2019-04-29T09:41:10Z</time>
      </trkpt>
      <trkpt lat="45.79093" lon="-1.15178">
        <ele>12</ele>
        <time>2019-04-29T09:41:22Z</time>
      </trkpt>
      <trkpt lat="45.79179" lon="-1.15086">
        <ele>10</ele>
        <time>2019-04-29T09:41:46Z</time>
      </trkpt>
      <trkpt lat="45.7934" lon="-1.14893">
        <ele>12</ele>
        <time>2019-04-29T09:42:34Z</time>
      </trkpt>
      <trkpt lat="45.7941" lon="-1.14789">
        <ele>16</ele>
        <time>2019-04-29T09:42:58Z</time>
      </trkpt>
      <trkpt lat="45.79437" lon="-1.14725">
        <ele>13</ele>
        <time>2019-04-29T09:43:10Z</time>
      </trkpt>
      <trkpt lat="45.79563" lon="-1.14492">
        <ele>10</ele>
        <time>2019-04-29T09:44:22Z</time>
      </trkpt>
      <trkpt lat="45.79882" lon="-1.13932">
        <time>2019-04-29T09:47:34Z</time>
      </trkpt>
      <trkpt lat="45.80197" lon="-1.13361">
        <ele>3</ele>
        <time>2019-04-29T09:49:22Z</time>
      </trkpt>
      <trkpt lat="45.80206" lon="-1.13335">
        <ele>3</ele>
        <time>2019-04-29T09:49:38Z</time>
      </trkpt>
      <trkpt lat="45.80288" lon="-1.13246">
        <ele>3</ele>
        <time>2019-04-29T09:50:02Z</time>
      </trkpt>
      <trkpt lat="45.80364" lon="-1.13193">
        <ele>2</ele>
        <time>2019-04-29T09:50:20Z</time>
      </trkpt>
      <trkpt lat="45.8042" lon="-1.1317">
        <ele>3</ele>
        <time>2019-04-29T09:50:32Z</time>
      </trkpt>
      <trkpt lat="45.805" lon="-1.13169">
        <ele>3</ele>
        <time>2019-04-29T09:50:50Z</time>
      </trkpt>
      <trkpt lat="45.80888" lon="-1.13258">
        <ele>3</ele>
        <time>2019-04-29T09:52:08Z</time>
      </trkpt>
      <trkpt lat="45.81039" lon="-1.13275">
        <ele>3</ele>
        <time>2019-04-29T09:52:38Z</time>
      </trkpt>
      <trkpt lat="45.81185" lon="-1.13311">
        <ele>3</ele>
        <time>2019-04-29T09:53:08Z</time>
      </trkpt>
      <trkpt lat="45.81268" lon="-1.13317">
        <ele>4</ele>
        <time>2019-04-29T09:53:26Z</time>
      </trkpt>
      <trkpt lat="45.81326" lon="-1.13307">
        <ele>4</ele>
        <time>2019-04-29T09:53:38Z</time>
      </trkpt>
      <trkpt lat="45.81989" lon="-1.13081">
        <ele>3.9</ele>
        <time>2019-04-29T09:56:02Z</time>
      </trkpt>
      <trkpt lat="45.82058" lon="-1.13038">
        <ele>3.9</ele>
        <time>2019-04-29T09:56:20Z</time>
      </trkpt>
      <trkpt lat="45.82121" lon="-1.12975">
        <ele>2</ele>
        <time>2019-04-29T09:56:38Z</time>
      </trkpt>
      <trkpt lat="45.82198" lon="-1.1285">
        <ele>2</ele>
        <time>2019-04-29T09:57:08Z</time>
      </trkpt>
      <trkpt lat="45.82204" lon="-1.12793">
        <ele>1</ele>
        <time>2019-04-29T09:57:20Z</time>
      </trkpt>
      <trkpt lat="45.82233" lon="-1.12775">
        <ele>2</ele>
        <time>2019-04-29T09:57:32Z</time>
      </trkpt>
      <trkpt lat="45.82256" lon="-1.12774">
        <ele>2</ele>
        <time>2019-04-29T09:57:44Z</time>
      </trkpt>
      <trkpt lat="45.82381" lon="-1.12579">
        <ele>3</ele>
        <time>2019-04-29T09:58:38Z</time>
      </trkpt>
      <trkpt lat="45.82466" lon="-1.12498">
        <ele>3</ele>
        <time>2019-04-29T09:59:14Z</time>
      </trkpt>
      <trkpt lat="45.82655" lon="-1.12349">
        <ele>6</ele>
        <time>2019-04-29T10:00:14Z</time>
      </trkpt>
      <trkpt lat="45.8294" lon="-1.12063">
        <ele>9</ele>
        <time>2019-04-29T10:02:08Z</time>
      </trkpt>
      <trkpt lat="45.8298" lon="-1.12027">
        <ele>9</ele>
        <time>2019-04-29T10:02:26Z</time>
      </trkpt>
      <trkpt lat="45.83013" lon="-1.12019">
        <ele>9</ele>
        <time>2019-04-29T10:02:38Z</time>
      </trkpt>
      <trkpt lat="45.83065" lon="-1.1209">
        <ele>9</ele>
        <time>2019-04-29T10:03:02Z</time>
      </trkpt>
      <trkpt lat="45.83078" lon="-1.1209">
        <ele>9</ele>
        <time>2019-04-29T10:03:13Z</time>
      </trkpt>
      <trkpt lat="45.83085" lon="-1.12072">
        <ele>9</ele>
        <time>2019-04-29T10:03:25Z</time>
      </trkpt>
      <trkpt lat="45.83073" lon="-1.11939">
        <ele>10</ele>
        <time>2019-04-29T10:03:55Z</time>
      </trkpt>
      <trkpt lat="45.83088" lon="-1.11817">
        <ele>12</ele>
        <time>2019-04-29T10:04:19Z</time>
      </trkpt>
      <trkpt lat="45.83099" lon="-1.1154">
        <ele>10</ele>
        <time>2019-04-29T10:05:01Z</time>
      </trkpt>
      <trkpt lat="45.8311" lon="-1.11506">
        <ele>10</ele>
        <time>2019-04-29T10:05:07Z</time>
      </trkpt>
      <trkpt lat="45.83152" lon="-1.11456">
        <ele>10</ele>
        <time>2019-04-29T10:05:19Z</time>
      </trkpt>
      <trkpt lat="45.83159" lon="-1.11395">
        <ele>10</ele>
        <time>2019-04-29T10:05:31Z</time>
      </trkpt>
      <trkpt lat="45.83191" lon="-1.11343">
        <ele>10</ele>
        <time>2019-04-29T10:05:58Z</time>
      </trkpt>
      <trkpt lat="45.83191" lon="-1.11332">
        <ele>10</ele>
        <time>2019-04-29T10:06:06Z</time>
      </trkpt>
      <trkpt lat="45.83202" lon="-1.11336">
        <ele>10</ele>
        <time>2019-04-29T10:06:08Z</time>
      </trkpt>
      <trkpt lat="45.83195" lon="-1.11327">
        <ele>10</ele>
        <time>2019-04-29T10:06:12Z</time>
      </trkpt>
      <trkpt lat="45.83234" lon="-1.11305">
        <ele>10</ele>
        <time>2019-04-29T10:06:32Z</time>
      </trkpt>
      <trkpt lat="45.83307" lon="-1.11278">
        <ele>10</ele>
        <time>2019-04-29T10:07:02Z</time>
      </trkpt>
      <trkpt lat="45.83622" lon="-1.11319">
        <ele>14</ele>
        <time>2019-04-29T10:08:56Z</time>
      </trkpt>
      <trkpt lat="45.83695" lon="-1.11336">
        <ele>15</ele>
        <time>2019-04-29T10:09:20Z</time>
      </trkpt>
      <trkpt lat="45.8373" lon="-1.1134">
        <ele>15</ele>
        <time>2019-04-29T10:09:32Z</time>
      </trkpt>
      <trkpt lat="45.83736" lon="-1.11332">
        <ele>15</ele>
        <time>2019-04-29T10:09:45Z</time>
      </trkpt>
      <trkpt lat="45.83732" lon="-1.11163">
        <ele>19</ele>
        <time>2019-04-29T10:10:33Z</time>
      </trkpt>
      <trkpt lat="45.83684" lon="-1.11021">
        <ele>21</ele>
        <time>2019-04-29T10:11:21Z</time>
      </trkpt>
      <trkpt lat="45.83671" lon="-1.10849">
        <ele>20</ele>
        <time>2019-04-29T10:11:57Z</time>
      </trkpt>
      <trkpt lat="45.83628" lon="-1.10692">
        <ele>18</ele>
        <time>2019-04-29T10:12:39Z</time>
      </trkpt>
      <trkpt lat="45.83626" lon="-1.10628">
        <ele>18</ele>
        <time>2019-04-29T10:12:51Z</time>
      </trkpt>
      <trkpt lat="45.83605" lon="-1.10558">
        <ele>17</ele>
        <time>2019-04-29T10:13:03Z</time>
      </trkpt>
      <trkpt lat="45.83554" lon="-1.1047">
        <ele>17</ele>
        <time>2019-04-29T10:13:27Z</time>
      </trkpt>
      <trkpt lat="45.83529" lon="-1.10408">
        <ele>17</ele>
        <time>2019-04-29T10:13:39Z</time>
      </trkpt>
      <trkpt lat="45.8352" lon="-1.10307">
        <ele>19</ele>
        <time>2019-04-29T10:14:03Z</time>
      </trkpt>
      <trkpt lat="45.83477" lon="-1.10207">
        <ele>19</ele>
        <time>2019-04-29T10:14:27Z</time>
      </trkpt>
      <trkpt lat="45.83479" lon="-1.10176">
        <ele>19</ele>
        <time>2019-04-29T10:14:33Z</time>
      </trkpt>
      <trkpt lat="45.83508" lon="-1.10137">
        <ele>19</ele>
        <time>2019-04-29T10:14:45Z</time>
      </trkpt>
      <trkpt lat="45.83476" lon="-1.10081">
        <ele>20</ele>
        <time>2019-04-29T10:15:03Z</time>
      </trkpt>
      <trkpt lat="45.83488" lon="-1.10045">
        <ele>19</ele>
        <time>2019-04-29T10:15:15Z</time>
      </trkpt>
      <trkpt lat="45.83457" lon="-1.09991">
        <ele>20</ele>
        <time>2019-04-29T10:15:33Z</time>
      </trkpt>
      <trkpt lat="45.83389" lon="-1.09778">
        <ele>20</ele>
        <time>2019-04-29T10:16:35Z</time>
      </trkpt>
      <trkpt lat="45.83398" lon="-1.09799">
        <ele>20</ele>
        <time>2019-04-29T10:16:47Z</time>
      </trkpt>
      <trkpt lat="45.8334" lon="-1.09826">
        <ele>20</ele>
        <time>2019-04-29T10:17:17Z</time>
      </trkpt>
      <trkpt lat="45.83316" lon="-1.0978">
        <ele>19</ele>
        <time>2019-04-29T10:17:29Z</time>
      </trkpt>
      <trkpt lat="45.83294" lon="-1.09716">
        <ele>19</ele>
        <time>2019-04-29T10:17:41Z</time>
      </trkpt>
      <trkpt lat="45.83261" lon="-1.09659">
        <ele>18</ele>
        <time>2019-04-29T10:17:59Z</time>
      </trkpt>
      <trkpt lat="45.83182" lon="-1.09704">
        <ele>17</ele>
        <time>2019-04-29T10:18:31Z</time>
      </trkpt>
      <trkpt lat="45.8315" lon="-1.09592">
        <ele>17</ele>
        <time>2019-04-29T10:18:55Z</time>
      </trkpt>
      <trkpt lat="45.83033" lon="-1.09361">
        <ele>17</ele>
        <time>2019-04-29T10:19:55Z</time>
      </trkpt>
      <trkpt lat="45.82912" lon="-1.0922">
        <ele>14</ele>
        <time>2019-04-29T10:20:31Z</time>
      </trkpt>
      <trkpt lat="45.8285" lon="-1.09184">
        <ele>14</ele>
        <time>2019-04-29T10:20:49Z</time>
      </trkpt>
      <trkpt lat="45.82765" lon="-1.09115">
        <ele>14</ele>
        <time>2019-04-29T10:21:19Z</time>
      </trkpt>
      <trkpt lat="45.82679" lon="-1.08983">
        <ele>9</ele>
        <time>2019-04-29T10:21:43Z</time>
      </trkpt>
      <trkpt lat="45.82665" lon="-1.08948">
        <ele>9</ele>
        <time>2019-04-29T10:21:49Z</time>
      </trkpt>
      <trkpt lat="45.82648" lon="-1.0882">
        <ele>6</ele>
        <time>2019-04-29T10:22:07Z</time>
      </trkpt>
      <trkpt lat="45.82585" lon="-1.08679">
        <ele>5</ele>
        <time>2019-04-29T10:22:31Z</time>
      </trkpt>
      <trkpt lat="45.82588" lon="-1.08648">
        <ele>4</ele>
        <time>2019-04-29T10:22:37Z</time>
      </trkpt>
      <trkpt lat="45.82626" lon="-1.08615">
        <ele>4</ele>
        <time>2019-04-29T10:22:49Z</time>
      </trkpt>
      <trkpt lat="45.82776" lon="-1.0855">
        <ele>5</ele>
        <time>2019-04-29T10:23:37Z</time>
      </trkpt>
      <trkpt lat="45.82893" lon="-1.08403">
        <ele>4</ele>
        <time>2019-04-29T10:24:25Z</time>
      </trkpt>
      <trkpt lat="45.82795" lon="-1.08237">
        <ele>2</ele>
        <time>2019-04-29T10:25:13Z</time>
      </trkpt>
      <trkpt lat="45.82955" lon="-1.0848">
        <ele>6</ele>
        <time>2019-04-29T10:26:55Z</time>
      </trkpt>
      <trkpt lat="45.83068" lon="-1.082">
        <ele>8</ele>
        <time>2019-04-29T10:27:55Z</time>
      </trkpt>
      <trkpt lat="45.83102" lon="-1.08091">
        <ele>7</ele>
        <time>2019-04-29T10:28:13Z</time>
      </trkpt>
      <trkpt lat="45.83158" lon="-1.07949">
        <ele>5</ele>
        <time>2019-04-29T10:28:37Z</time>
      </trkpt>
      <trkpt lat="45.83289" lon="-1.07629">
        <ele>1</ele>
        <time>2019-04-29T10:29:37Z</time>
      </trkpt>
      <trkpt lat="45.83294" lon="-1.07601">
        <ele>1</ele>
        <time>2019-04-29T10:29:51Z</time>
      </trkpt>
      <trkpt lat="45.83402" lon="-1.07306">
        <ele>2</ele>
        <time>2019-04-29T10:31:11Z</time>
      </trkpt>
      <trkpt lat="45.83447" lon="-1.07221">
        <ele>2</ele>
        <time>2019-04-29T10:31:35Z</time>
      </trkpt>
      <trkpt lat="45.83442" lon="-1.07199">
        <ele>2</ele>
        <time>2019-04-29T10:31:41Z</time>
      </trkpt>
      <trkpt lat="45.83412" lon="-1.0715">
        <ele>1</ele>
        <time>2019-04-29T10:31:53Z</time>
      </trkpt>
      <trkpt lat="45.82926" lon="-1.06398">
        <ele>1</ele>
        <time>2019-04-29T10:34:47Z</time>
      </trkpt>
      <trkpt lat="45.82813" lon="-1.06218">
        <ele>2</ele>
        <time>2019-04-29T10:35:29Z</time>
      </trkpt>
      <trkpt lat="45.82788" lon="-1.06167">
        <ele>2</ele>
        <time>2019-04-29T10:35:41Z</time>
      </trkpt>
      <trkpt lat="45.82841" lon="-1.06077">
        <ele>1</ele>
        <time>2019-04-29T10:36:05Z</time>
      </trkpt>
      <trkpt lat="45.82912" lon="-1.06075">
        <ele>1</ele>
        <time>2019-04-29T10:36:23Z</time>
      </trkpt>
      <trkpt lat="45.82958" lon="-1.06061">
        <ele>1</ele>
        <time>2019-04-29T10:36:35Z</time>
      </trkpt>
      <trkpt lat="45.82986" lon="-1.06007">
        <ele>2</ele>
        <time>2019-04-29T10:36:47Z</time>
      </trkpt>
      <trkpt lat="45.83031" lon="-1.0597">
        <ele>1</ele>
        <time>2019-04-29T10:36:59Z</time>
      </trkpt>
      <trkpt lat="45.83102" lon="-1.05945">
        <ele>2</ele>
        <time>2019-04-29T10:37:17Z</time>
      </trkpt>
      <trkpt lat="45.83147" lon="-1.05916">
        <ele>2</ele>
        <time>2019-04-29T10:37:29Z</time>
      </trkpt>
      <trkpt lat="45.83194" lon="-1.05875">
        <ele>3</ele>
        <time>2019-04-29T10:37:41Z</time>
      </trkpt>
      <trkpt lat="45.83273" lon="-1.05778">
        <ele>4</ele>
        <time>2019-04-29T10:38:17Z</time>
      </trkpt>
      <trkpt lat="45.83288" lon="-1.0577">
        <ele>4</ele>
        <time>2019-04-29T10:38:23Z</time>
      </trkpt>
      <trkpt lat="45.83337" lon="-1.05781">
        <ele>5</ele>
        <time>2019-04-29T10:38:41Z</time>
      </trkpt>
      <trkpt lat="45.83392" lon="-1.05817">
        <ele>4</ele>
        <time>2019-04-29T10:38:53Z</time>
      </trkpt>
      <trkpt lat="45.83461" lon="-1.05811">
        <ele>1</ele>
        <time>2019-04-29T10:39:05Z</time>
      </trkpt>
      <trkpt lat="45.83482" lon="-1.05777">
        <ele>1</ele>
        <time>2019-04-29T10:39:11Z</time>
      </trkpt>
      <trkpt lat="45.83496" lon="-1.05707">
        <ele>2.9</ele>
        <time>2019-04-29T10:39:23Z</time>
      </trkpt>
      <trkpt lat="45.83445" lon="-1.05541">
        <ele>2</ele>
        <time>2019-04-29T10:39:53Z</time>
      </trkpt>
      <trkpt lat="45.83384" lon="-1.05428">
        <ele>2</ele>
        <time>2019-04-29T10:40:17Z</time>
      </trkpt>
      <trkpt lat="45.83377" lon="-1.05381">
        <ele>2</ele>
        <time>2019-04-29T10:40:29Z</time>
      </trkpt>
      <trkpt lat="45.83429" lon="-1.05322">
        <ele>1</ele>
        <time>2019-04-29T10:40:47Z</time>
      </trkpt>
      <trkpt lat="45.83555" lon="-1.0505">
        <ele>1</ele>
        <time>2019-04-29T10:41:47Z</time>
      </trkpt>
      <trkpt lat="45.83646" lon="-1.04932">
        <ele>1</ele>
        <time>2019-04-29T10:42:17Z</time>
      </trkpt>
      <trkpt lat="45.83673" lon="-1.04876">
        <ele>1</ele>
        <time>2019-04-29T10:42:29Z</time>
      </trkpt>
      <trkpt lat="45.83725" lon="-1.04801">
        <ele>3</ele>
        <time>2019-04-29T10:42:47Z</time>
      </trkpt>
      <trkpt lat="45.83763" lon="-1.04711">
        <ele>1</ele>
        <time>2019-04-29T10:43:05Z</time>
      </trkpt>
      <trkpt lat="45.83785" lon="-1.04696">
        <ele>1</ele>
        <time>2019-04-29T10:43:11Z</time>
      </trkpt>
      <trkpt lat="45.83855" lon="-1.04689">
        <ele>1</ele>
        <time>2019-04-29T10:43:29Z</time>
      </trkpt>
      <trkpt lat="45.83968" lon="-1.04661">
        <ele>2</ele>
        <time>2019-04-29T10:43:59Z</time>
      </trkpt>
      <trkpt lat="45.83985" lon="-1.04638">
        <ele>2</ele>
        <time>2019-04-29T10:44:05Z</time>
      </trkpt>
      <trkpt lat="45.83998" lon="-1.04554">
        <ele>2</ele>
        <time>2019-04-29T10:44:23Z</time>
      </trkpt>
      <trkpt lat="45.8402" lon="-1.04501">
        <ele>2</ele>
        <time>2019-04-29T10:44:35Z</time>
      </trkpt>
      <trkpt lat="45.84047" lon="-1.04461">
        <ele>1</ele>
        <time>2019-04-29T10:44:47Z</time>
      </trkpt>
      <trkpt lat="45.84102" lon="-1.04417">
        <ele>2.7</ele>
        <time>2019-04-29T10:45:05Z</time>
      </trkpt>
      <trkpt lat="45.84129" lon="-1.04377">
        <ele>1</ele>
        <time>2019-04-29T10:45:17Z</time>
      </trkpt>
      <trkpt lat="45.84114" lon="-1.04324">
        <ele>1</ele>
        <time>2019-04-29T10:45:29Z</time>
      </trkpt>
      <trkpt lat="45.84088" lon="-1.04286">
        <ele>1</ele>
        <time>2019-04-29T10:45:41Z</time>
      </trkpt>
      <trkpt lat="45.83939" lon="-1.04116">
        <ele>1</ele>
        <time>2019-04-29T10:46:29Z</time>
      </trkpt>
      <trkpt lat="45.83928" lon="-1.04084">
        <ele>3</ele>
        <time>2019-04-29T10:46:35Z</time>
      </trkpt>
      <trkpt lat="45.83928" lon="-1.0402">
        <ele>2.8</ele>
        <time>2019-04-29T10:46:47Z</time>
      </trkpt>
      <trkpt lat="45.83991" lon="-1.03937">
        <ele>2.9</ele>
        <time>2019-04-29T10:47:11Z</time>
      </trkpt>
      <trkpt lat="45.84048" lon="-1.03895">
        <ele>1</ele>
        <time>2019-04-29T10:47:29Z</time>
      </trkpt>
      <trkpt lat="45.84063" lon="-1.03806">
        <ele>1</ele>
        <time>2019-04-29T10:47:47Z</time>
      </trkpt>
      <trkpt lat="45.8408" lon="-1.03781">
        <ele>1</ele>
        <time>2019-04-29T10:47:53Z</time>
      </trkpt>
      <trkpt lat="45.84095" lon="-1.03728">
        <ele>1</ele>
        <time>2019-04-29T10:48:05Z</time>
      </trkpt>
      <trkpt lat="45.84121" lon="-1.03681">
        <ele>1</ele>
        <time>2019-04-29T10:48:17Z</time>
      </trkpt>
      <trkpt lat="45.84141" lon="-1.03663">
        <ele>1</ele>
        <time>2019-04-29T10:48:23Z</time>
      </trkpt>
      <trkpt lat="45.84185" lon="-1.03663">
        <ele>1</ele>
        <time>2019-04-29T10:48:35Z</time>
      </trkpt>
      <trkpt lat="45.84248" lon="-1.03709">
        <ele>1</ele>
        <time>2019-04-29T10:48:53Z</time>
      </trkpt>
      <trkpt lat="45.84293" lon="-1.03703">
        <ele>1</ele>
        <time>2019-04-29T10:49:05Z</time>
      </trkpt>
      <trkpt lat="45.84375" lon="-1.03595">
        <ele>2.8</ele>
        <time>2019-04-29T10:49:35Z</time>
      </trkpt>
      <trkpt lat="45.84602" lon="-1.0338">
        <ele>1</ele>
        <time>2019-04-29T10:50:47Z</time>
      </trkpt>
      <trkpt lat="45.84573" lon="-1.03321">
        <ele>2</ele>
        <time>2019-04-29T10:51:05Z</time>
      </trkpt>
      <trkpt lat="45.84492" lon="-1.03216">
        <ele>2</ele>
        <time>2019-04-29T10:51:35Z</time>
      </trkpt>
      <trkpt lat="45.84391" lon="-1.03131">
        <ele>3</ele>
        <time>2019-04-29T10:52:05Z</time>
      </trkpt>
      <trkpt lat="45.84377" lon="-1.03105">
        <ele>2.9</ele>
        <time>2019-04-29T10:52:11Z</time>
      </trkpt>
      <trkpt lat="45.84353" lon="-1.03018">
        <ele>3</ele>
        <time>2019-04-29T10:52:29Z</time>
      </trkpt>
      <trkpt lat="45.84308" lon="-1.02989">
        <ele>1</ele>
        <time>2019-04-29T10:52:41Z</time>
      </trkpt>
      <trkpt lat="45.84236" lon="-1.02891">
        <ele>3</ele>
        <time>2019-04-29T10:53:05Z</time>
      </trkpt>
      <trkpt lat="45.84168" lon="-1.02835">
        <ele>1</ele>
        <time>2019-04-29T10:53:23Z</time>
      </trkpt>
      <trkpt lat="45.84161" lon="-1.02773">
        <ele>1</ele>
        <time>2019-04-29T10:53:35Z</time>
      </trkpt>
      <trkpt lat="45.8413" lon="-1.02685">
        <ele>1</ele>
        <time>2019-04-29T10:53:52Z</time>
      </trkpt>
      <trkpt lat="45.84009" lon="-1.02581">
        <ele>1</ele>
        <time>2019-04-29T10:54:28Z</time>
      </trkpt>
      <trkpt lat="45.83963" lon="-1.02495">
        <ele>1</ele>
        <time>2019-04-29T10:54:52Z</time>
      </trkpt>
      <trkpt lat="45.83941" lon="-1.02477">
        <ele>1</ele>
        <time>2019-04-29T10:55:13Z</time>
      </trkpt>
      <trkpt lat="45.8394" lon="-1.02462">
        <ele>1</ele>
        <time>2019-04-29T10:55:14Z</time>
      </trkpt>
      <trkpt lat="45.84571" lon="-1.01572">
        <ele>1</ele>
        <time>2019-04-29T10:59:38Z</time>
      </trkpt>
      <trkpt lat="45.84581" lon="-1.01548">
        <ele>1</ele>
        <time>2019-04-29T10:59:50Z</time>
      </trkpt>
      <trkpt lat="45.84569" lon="-1.01514">
        <ele>1</ele>
        <time>2019-04-29T11:00:08Z</time>
      </trkpt>
      <trkpt lat="45.84583" lon="-1.01485">
        <ele>2</ele>
        <time>2019-04-29T11:00:20Z</time>
      </trkpt>
      <trkpt lat="45.85477" lon="-1.00592">
        <ele>1</ele>
        <time>2019-04-29T11:04:56Z</time>
      </trkpt>
      <trkpt lat="45.85524" lon="-1.00552">
        <ele>1</ele>
        <time>2019-04-29T11:05:08Z</time>
      </trkpt>
      <trkpt lat="45.85608" lon="-1.00441">
        <ele>2</ele>
        <time>2019-04-29T11:05:38Z</time>
      </trkpt>
      <trkpt lat="45.85893" lon="-0.99888">
        <ele>1</ele>
        <time>2019-04-29T11:08:08Z</time>
      </trkpt>
      <trkpt lat="45.85903" lon="-0.99855">
        <ele>1</ele>
        <time>2019-04-29T11:08:14Z</time>
      </trkpt>
      <trkpt lat="45.86058" lon="-0.99542">
        <ele>1</ele>
        <time>2019-04-29T11:09:26Z</time>
      </trkpt>
      <trkpt lat="45.86201" lon="-0.9927">
        <ele>2</ele>
        <time>2019-04-29T11:10:26Z</time>
      </trkpt>
      <trkpt lat="45.86249" lon="-0.99155">
        <ele>2</ele>
        <time>2019-04-29T11:10:50Z</time>
      </trkpt>
      <trkpt lat="45.86462" lon="-0.98744">
        <ele>2</ele>
        <time>2019-04-29T11:12:20Z</time>
      </trkpt>
      <trkpt lat="45.86537" lon="-0.98582">
        <ele>2</ele>
        <time>2019-04-29T11:12:56Z</time>
      </trkpt>
      <trkpt lat="45.8665" lon="-0.98366">
        <ele>2</ele>
        <time>2019-04-29T11:13:44Z</time>
      </trkpt>
      <trkpt lat="45.86796" lon="-0.98059">
        <ele>2</ele>
        <time>2019-04-29T11:14:50Z</time>
      </trkpt>
      <trkpt lat="45.86859" lon="-0.97947">
        <ele>2</ele>
        <time>2019-04-29T11:15:14Z</time>
      </trkpt>
      <trkpt lat="45.87023" lon="-0.97602">
        <ele>3</ele>
        <time>2019-04-29T11:16:26Z</time>
      </trkpt>
      <trkpt lat="45.87369" lon="-0.96923">
        <ele>4</ele>
        <time>2019-04-29T11:19:02Z</time>
      </trkpt>
      <trkpt lat="45.87423" lon="-0.96786">
        <ele>8</ele>
        <time>2019-04-29T11:19:32Z</time>
      </trkpt>
      <trkpt lat="45.87501" lon="-0.96447">
        <ele>7</ele>
        <time>2019-04-29T11:21:27Z</time>
      </trkpt>
      <trkpt lat="45.87485" lon="-0.96545">
        <ele>6</ele>
        <time>2019-04-29T11:22:09Z</time>
      </trkpt>
      <trkpt lat="45.87468" lon="-0.96571">
        <ele>7</ele>
        <time>2019-04-29T11:22:21Z</time>
      </trkpt>
      <trkpt lat="45.87471" lon="-0.96544">
        <ele>6</ele>
        <time>2019-04-29T11:22:33Z</time>
      </trkpt>
      <trkpt lat="45.87442" lon="-0.96487">
        <ele>7</ele>
        <time>2019-04-29T11:22:57Z</time>
      </trkpt>
      <trkpt lat="45.87413" lon="-0.96459">
        <ele>7</ele>
        <time>2019-04-29T11:23:09Z</time>
      </trkpt>
      <trkpt lat="45.87395" lon="-0.96413">
        <ele>7</ele>
        <time>2019-04-29T11:23:21Z</time>
      </trkpt>
      <trkpt lat="45.8739" lon="-0.96394">
        <ele>8</ele>
        <time>2019-04-29T11:23:27Z</time>
      </trkpt>
      <trkpt lat="45.87406" lon="-0.96351">
        <ele>9</ele>
        <time>2019-04-29T11:23:39Z</time>
      </trkpt>
      <trkpt lat="45.87461" lon="-0.96307">
        <ele>10</ele>
        <time>2019-04-29T11:24:03Z</time>
      </trkpt>
      <trkpt lat="45.87468" lon="-0.9629">
        <ele>11</ele>
        <time>2019-04-29T11:24:15Z</time>
      </trkpt>
      <trkpt lat="45.87582" lon="-0.96328">
        <ele>5</ele>
        <time>2019-04-29T11:24:51Z</time>
      </trkpt>
      <trkpt lat="45.87647" lon="-0.96309">
        <ele>8</ele>
        <time>2019-04-29T11:25:15Z</time>
      </trkpt>
      <trkpt lat="45.87675" lon="-0.96279">
        <ele>8</ele>
        <time>2019-04-29T11:25:27Z</time>
      </trkpt>
      <trkpt lat="45.87722" lon="-0.96252">
        <ele>9</ele>
        <time>2019-04-29T11:25:45Z</time>
      </trkpt>
      <trkpt lat="45.87775" lon="-0.96195">
        <ele>9</ele>
        <time>2019-04-29T11:26:09Z</time>
      </trkpt>
      <trkpt lat="45.88004" lon="-0.96021">
        <ele>10</ele>
        <time>2019-04-29T11:27:15Z</time>
      </trkpt>
      <trkpt lat="45.88062" lon="-0.95947">
        <ele>10</ele>
        <time>2019-04-29T11:27:33Z</time>
      </trkpt>
      <trkpt lat="45.88113" lon="-0.95842">
        <ele>10</ele>
        <time>2019-04-29T11:27:57Z</time>
      </trkpt>
      <trkpt lat="45.88153" lon="-0.95822">
        <ele>10</ele>
        <time>2019-04-29T11:28:09Z</time>
      </trkpt>
      <trkpt lat="45.88319" lon="-0.95677">
        <ele>11</ele>
        <time>2019-04-29T11:29:21Z</time>
      </trkpt>
      <trkpt lat="45.88398" lon="-0.95654">
        <ele>14</ele>
        <time>2019-04-29T11:29:51Z</time>
      </trkpt>
      <trkpt lat="45.88496" lon="-0.95562">
        <ele>12</ele>
        <time>2019-04-29T11:30:27Z</time>
      </trkpt>
      <trkpt lat="45.88613" lon="-0.95477">
        <ele>13</ele>
        <time>2019-04-29T11:31:03Z</time>
      </trkpt>
      <trkpt lat="45.88652" lon="-0.95463">
        <ele>13</ele>
        <time>2019-04-29T11:31:15Z</time>
      </trkpt>
      <trkpt lat="45.88675" lon="-0.95464">
        <ele>13</ele>
        <time>2019-04-29T11:31:22Z</time>
      </trkpt>
      <trkpt lat="45.88753" lon="-0.95636">
        <ele>13</ele>
        <time>2019-04-29T11:31:57Z</time>
      </trkpt>
      <trkpt lat="45.88859" lon="-0.95775">
        <ele>14</ele>
        <time>2019-04-29T11:32:33Z</time>
      </trkpt>
      <trkpt lat="45.88912" lon="-0.95816">
        <ele>13</ele>
        <time>2019-04-29T11:32:45Z</time>
      </trkpt>
      <trkpt lat="45.88987" lon="-0.96021">
        <ele>11</ele>
        <time>2019-04-29T11:33:31Z</time>
      </trkpt>
      <trkpt lat="45.89038" lon="-0.96028">
        <ele>11</ele>
        <time>2019-04-29T11:33:49Z</time>
      </trkpt>
      <trkpt lat="45.89191" lon="-0.96016">
        <ele>11</ele>
        <time>2019-04-29T11:34:31Z</time>
      </trkpt>
      <trkpt lat="45.89552" lon="-0.96012">
        <ele>11</ele>
        <time>2019-04-29T11:36:07Z</time>
      </trkpt>
      <trkpt lat="45.89863" lon="-0.9599">
        <ele>12</ele>
        <time>2019-04-29T11:37:26Z</time>
      </trkpt>
      <trkpt lat="45.89915" lon="-0.95995">
        <ele>11</ele>
        <time>2019-04-29T11:37:37Z</time>
      </trkpt>
      <trkpt lat="45.90282" lon="-0.95975">
        <ele>10</ele>
        <time>2019-04-29T11:39:01Z</time>
      </trkpt>
      <trkpt lat="45.90309" lon="-0.96048">
        <ele>10</ele>
        <time>2019-04-29T11:39:19Z</time>
      </trkpt>
      <trkpt lat="45.90349" lon="-0.96077">
        <ele>10</ele>
        <time>2019-04-29T11:39:31Z</time>
      </trkpt>
      <trkpt lat="45.90384" lon="-0.96132">
        <ele>10</ele>
        <time>2019-04-29T11:39:43Z</time>
      </trkpt>
      <trkpt lat="45.90406" lon="-0.96202">
        <ele>10</ele>
        <time>2019-04-29T11:39:55Z</time>
      </trkpt>
      <trkpt lat="45.90421" lon="-0.96321">
        <ele>9</ele>
        <time>2019-04-29T11:40:13Z</time>
      </trkpt>
      <trkpt lat="45.90439" lon="-0.96396">
        <ele>10</ele>
        <time>2019-04-29T11:40:25Z</time>
      </trkpt>
      <trkpt lat="45.90488" lon="-0.9652">
        <ele>11</ele>
        <time>2019-04-29T11:40:49Z</time>
      </trkpt>
      <trkpt lat="45.90529" lon="-0.96559">
        <ele>11</ele>
        <time>2019-04-29T11:41:07Z</time>
      </trkpt>
      <trkpt lat="45.90671" lon="-0.9656">
        <ele>9</ele>
        <time>2019-04-29T11:42:11Z</time>
      </trkpt>
      <trkpt lat="45.90883" lon="-0.96523">
        <ele>11</ele>
        <time>2019-04-29T11:43:17Z</time>
      </trkpt>
      <trkpt lat="45.91228" lon="-0.96512">
        <ele>12</ele>
        <time>2019-04-29T11:45:43Z</time>
      </trkpt>
      <trkpt lat="45.91377" lon="-0.9653">
        <ele>11</ele>
        <time>2019-04-29T11:48:07Z</time>
      </trkpt>
      <trkpt lat="45.91525" lon="-0.96565">
        <ele>7</ele>
        <time>2019-04-29T11:50:13Z</time>
      </trkpt>
      <trkpt lat="45.91624" lon="-0.96606">
        <ele>1</ele>
        <time>2019-04-29T11:51:43Z</time>
      </trkpt>
      <trkpt lat="45.91632" lon="-0.96617">
        <time>2019-04-29T11:51:55Z</time>
      </trkpt>
      <trkpt lat="45.91728" lon="-0.96662">
        <ele>3</ele>
        <time>2019-04-29T11:52:43Z</time>
      </trkpt>
      <trkpt lat="45.91888" lon="-0.96769">
        <ele>4</ele>
        <time>2019-04-29T11:53:07Z</time>
      </trkpt>
      <trkpt lat="45.92029" lon="-0.96884">
        <ele>5</ele>
        <time>2019-04-29T11:53:25Z</time>
      </trkpt>
      <trkpt lat="45.92223" lon="-0.97082">
        <ele>2</ele>
        <time>2019-04-29T11:53:49Z</time>
      </trkpt>
      <trkpt lat="45.92246" lon="-0.97074">
        <ele>2</ele>
        <time>2019-04-29T11:53:55Z</time>
      </trkpt>
      <trkpt lat="45.92268" lon="-0.97036">
        <ele>2</ele>
        <time>2019-04-29T11:54:11Z</time>
      </trkpt>
      <trkpt lat="45.92287" lon="-0.97022">
        <ele>2</ele>
        <time>2019-04-29T11:54:23Z</time>
      </trkpt>
      <trkpt lat="45.92336" lon="-0.96936">
        <ele>3</ele>
        <time>2019-04-29T11:54:53Z</time>
      </trkpt>
      <trkpt lat="45.92338" lon="-0.96916">
        <ele>3</ele>
        <time>2019-04-29T11:54:59Z</time>
      </trkpt>
      <trkpt lat="45.92324" lon="-0.9688">
        <ele>3</ele>
        <time>2019-04-29T11:55:11Z</time>
      </trkpt>
      <trkpt lat="45.92262" lon="-0.96852">
        <ele>2</ele>
        <time>2019-04-29T11:55:35Z</time>
      </trkpt>
      <trkpt lat="45.92202" lon="-0.96805">
        <ele>2</ele>
        <time>2019-04-29T11:55:59Z</time>
      </trkpt>
      <trkpt lat="45.92051" lon="-0.96639">
        <ele>1</ele>
        <time>2019-04-29T11:57:05Z</time>
      </trkpt>
      <trkpt lat="45.92019" lon="-0.96625">
        <ele>1</ele>
        <time>2019-04-29T11:57:17Z</time>
      </trkpt>
      <trkpt lat="45.91966" lon="-0.96632">
        <ele>2</ele>
        <time>2019-04-29T11:57:35Z</time>
      </trkpt>
      <trkpt lat="45.91943" lon="-0.96591">
        <ele>1</ele>
        <time>2019-04-29T11:57:47Z</time>
      </trkpt>
      <trkpt lat="45.9194" lon="-0.96532">
        <ele>2</ele>
        <time>2019-04-29T11:57:59Z</time>
      </trkpt>
      <trkpt lat="45.91924" lon="-0.9648">
        <ele>2</ele>
        <time>2019-04-29T11:58:11Z</time>
      </trkpt>
      <trkpt lat="45.91843" lon="-0.96421">
        <ele>2</ele>
        <time>2019-04-29T11:58:41Z</time>
      </trkpt>
      <trkpt lat="45.91802" lon="-0.96404">
        <ele>2</ele>
        <time>2019-04-29T11:58:59Z</time>
      </trkpt>
      <trkpt lat="45.9177" lon="-0.96411">
        <ele>3</ele>
        <time>2019-04-29T11:59:17Z</time>
      </trkpt>
      <trkpt lat="45.91841" lon="-0.9644">
        <ele>2</ele>
        <time>2019-04-29T11:59:47Z</time>
      </trkpt>
      <trkpt lat="45.91901" lon="-0.96477">
        <ele>2</ele>
        <time>2019-04-29T12:00:05Z</time>
      </trkpt>
      <trkpt lat="45.91932" lon="-0.96521">
        <ele>2</ele>
        <time>2019-04-29T12:00:17Z</time>
      </trkpt>
      <trkpt lat="45.9191" lon="-0.9676">
        <ele>5</ele>
        <time>2019-04-29T12:01:05Z</time>
      </trkpt>
      <trkpt lat="45.91915" lon="-0.96797">
        <ele>5</ele>
        <time>2019-04-29T12:01:11Z</time>
      </trkpt>
      <trkpt lat="45.91943" lon="-0.96871">
        <ele>6</ele>
        <time>2019-04-29T12:01:29Z</time>
      </trkpt>
      <trkpt lat="45.91967" lon="-0.96998">
        <ele>3</ele>
        <time>2019-04-29T12:01:53Z</time>
      </trkpt>
      <trkpt lat="45.91993" lon="-0.97072">
        <ele>2</ele>
        <time>2019-04-29T12:02:05Z</time>
      </trkpt>
      <trkpt lat="45.92048" lon="-0.97151">
        <ele>2</ele>
        <time>2019-04-29T12:02:23Z</time>
      </trkpt>
      <trkpt lat="45.92092" lon="-0.97182">
        <ele>3</ele>
        <time>2019-04-29T12:02:35Z</time>
      </trkpt>
      <trkpt lat="45.92158" lon="-0.97201">
        <ele>2</ele>
        <time>2019-04-29T12:02:53Z</time>
      </trkpt>
      <trkpt lat="45.92198" lon="-0.9723">
        <ele>3</ele>
        <time>2019-04-29T12:03:05Z</time>
      </trkpt>
      <trkpt lat="45.92252" lon="-0.97303">
        <ele>2</ele>
        <time>2019-04-29T12:03:23Z</time>
      </trkpt>
      <trkpt lat="45.92363" lon="-0.97417">
        <ele>1</ele>
        <time>2019-04-29T12:03:59Z</time>
      </trkpt>
      <trkpt lat="45.92412" lon="-0.97482">
        <ele>3</ele>
        <time>2019-04-29T12:04:17Z</time>
      </trkpt>
      <trkpt lat="45.9241" lon="-0.97547">
        <ele>1</ele>
        <time>2019-04-29T12:04:43Z</time>
      </trkpt>
      <trkpt lat="45.92145" lon="-0.97833">
        <ele>3</ele>
        <time>2019-04-29T12:06:01Z</time>
      </trkpt>
      <trkpt lat="45.92103" lon="-0.9795">
        <ele>2</ele>
        <time>2019-04-29T12:06:19Z</time>
      </trkpt>
      <trkpt lat="45.92087" lon="-0.9809">
        <ele>2</ele>
        <time>2019-04-29T12:06:37Z</time>
      </trkpt>
      <trkpt lat="45.92096" lon="-0.98272">
        <ele>2</ele>
        <time>2019-04-29T12:07:01Z</time>
      </trkpt>
      <trkpt lat="45.92119" lon="-0.98484">
        <ele>2</ele>
        <time>2019-04-29T12:07:31Z</time>
      </trkpt>
      <trkpt lat="45.9215" lon="-0.98599">
        <ele>3</ele>
        <time>2019-04-29T12:07:49Z</time>
      </trkpt>
      <trkpt lat="45.92185" lon="-0.98706">
        <ele>2</ele>
        <time>2019-04-29T12:08:07Z</time>
      </trkpt>
      <trkpt lat="45.92273" lon="-0.98865">
        <ele>2</ele>
        <time>2019-04-29T12:08:37Z</time>
      </trkpt>
      <trkpt lat="45.92573" lon="-0.99207">
        <ele>3</ele>
        <time>2019-04-29T12:10:19Z</time>
      </trkpt>
      <trkpt lat="45.928" lon="-0.99552">
        <ele>2</ele>
        <time>2019-04-29T12:11:55Z</time>
      </trkpt>
      <trkpt lat="45.92904" lon="-0.99786">
        <ele>3</ele>
        <time>2019-04-29T12:12:43Z</time>
      </trkpt>
      <trkpt lat="45.92957" lon="-0.99936">
        <ele>3</ele>
        <time>2019-04-29T12:13:12Z</time>
      </trkpt>
      <trkpt lat="45.93025" lon="-1.00177">
        <ele>2</ele>
        <time>2019-04-29T12:13:54Z</time>
      </trkpt>
      <trkpt lat="45.93121" lon="-1.00427">
        <ele>3</ele>
        <time>2019-04-29T12:14:42Z</time>
      </trkpt>
      <trkpt lat="45.93218" lon="-1.00478">
        <ele>3</ele>
        <time>2019-04-29T12:15:12Z</time>
      </trkpt>
      <trkpt lat="45.9336" lon="-1.00601">
        <ele>3</ele>
        <time>2019-04-29T12:15:54Z</time>
      </trkpt>
      <trkpt lat="45.93454" lon="-1.00642">
        <ele>3</ele>
        <time>2019-04-29T12:16:18Z</time>
      </trkpt>
      <trkpt lat="45.93603" lon="-1.00658">
        <ele>1</ele>
        <time>2019-04-29T12:16:54Z</time>
      </trkpt>
      <trkpt lat="45.93749" lon="-1.00612">
        <ele>1</ele>
        <time>2019-04-29T12:17:30Z</time>
      </trkpt>
      <trkpt lat="45.93846" lon="-1.00559">
        <ele>1</ele>
        <time>2019-04-29T12:17:54Z</time>
      </trkpt>
      <trkpt lat="45.93953" lon="-1.0047">
        <ele>2</ele>
        <time>2019-04-29T12:18:24Z</time>
      </trkpt>
      <trkpt lat="45.93985" lon="-1.00415">
        <ele>3</ele>
        <time>2019-04-29T12:18:36Z</time>
      </trkpt>
      <trkpt lat="45.94119" lon="-1.00275">
        <ele>3</ele>
        <time>2019-04-29T12:19:12Z</time>
      </trkpt>
      <trkpt lat="45.94471" lon="-0.99866">
        <ele>3.2</ele>
        <time>2019-04-29T12:21:06Z</time>
      </trkpt>
      <trkpt lat="45.94571" lon="-0.99763">
        <ele>2</ele>
        <time>2019-04-29T12:21:36Z</time>
      </trkpt>
      <trkpt lat="45.94591" lon="-0.99751">
        <ele>2</ele>
        <time>2019-04-29T12:21:42Z</time>
      </trkpt>
      <trkpt lat="45.94645" lon="-0.99793">
        <ele>1</ele>
        <time>2019-04-29T12:22:00Z</time>
      </trkpt>
      <trkpt lat="45.94869" lon="-0.99646">
        <ele>3</ele>
        <time>2019-04-29T12:23:06Z</time>
      </trkpt>
      <trkpt lat="45.95006" lon="-0.99586">
        <ele>2</ele>
        <time>2019-04-29T12:23:56Z</time>
      </trkpt>
      <trkpt lat="45.94992" lon="-0.99483">
        <ele>3</ele>
        <time>2019-04-29T12:24:28Z</time>
      </trkpt>
      <trkpt lat="45.94868" lon="-0.99554">
        <ele>2</ele>
        <time>2019-04-29T12:25:38Z</time>
      </trkpt>
      <trkpt lat="45.94787" lon="-0.99617">
        <ele>4</ele>
        <time>2019-04-29T12:26:59Z</time>
      </trkpt>
      <trkpt lat="45.94782" lon="-0.99615">
        <ele>4</ele>
        <time>2019-04-29T12:27:01Z</time>
      </trkpt>
      <trkpt lat="45.94782" lon="-0.99615">
        <ele>4</ele>
        <time>2019-04-29T12:27:03Z</time>
      </trkpt>
      <trkpt lat="45.94793" lon="-0.9962">
        <ele>4</ele>
        <time>2019-04-30T06:04:19Z</time>
      </trkpt>
      <trkpt lat="45.94786" lon="-0.99624">
        <ele>4</ele>
        <time>2019-04-30T06:04:29Z</time>
      </trkpt>
      <trkpt lat="45.94792" lon="-0.9962">
        <ele>4</ele>
        <time>2019-04-30T06:04:33Z</time>
      </trkpt>
      <trkpt lat="45.94786" lon="-0.99617">
        <ele>4</ele>
        <time>2019-04-30T06:04:39Z</time>
      </trkpt>
      <trkpt lat="45.9479" lon="-0.99618">
        <ele>4</ele>
        <time>2019-04-30T06:04:47Z</time>
      </trkpt>
      <trkpt lat="45.94793" lon="-0.99617">
        <ele>4</ele>
        <time>2019-04-30T06:04:55Z</time>
      </trkpt>
      <trkpt lat="45.94791" lon="-0.99622">
        <ele>4</ele>
        <time>2019-04-30T06:05:01Z</time>
      </trkpt>
      <trkpt lat="45.94789" lon="-0.99615">
        <ele>4</ele>
        <time>2019-04-30T06:05:12Z</time>
      </trkpt>
      <trkpt lat="45.94793" lon="-0.9962">
        <ele>4</ele>
        <time>2019-04-30T06:05:15Z</time>
      </trkpt>
      <trkpt lat="45.94784" lon="-0.99611">
        <ele>4</ele>
        <time>2019-04-30T06:05:24Z</time>
      </trkpt>
      <trkpt lat="45.9481" lon="-0.99589">
        <ele>4</ele>
        <time>2019-04-30T06:05:44Z</time>
      </trkpt>
      <trkpt lat="45.94995" lon="-0.99485">
        <ele>4</ele>
        <time>2019-04-30T06:07:42Z</time>
      </trkpt>
      <trkpt lat="45.95001" lon="-0.99504">
        <ele>4</ele>
        <time>2019-04-30T06:07:54Z</time>
      </trkpt>
      <trkpt lat="45.94997" lon="-0.99491">
        <ele>4</ele>
        <time>2019-04-30T06:08:20Z</time>
      </trkpt>
      <trkpt lat="45.94998" lon="-0.9952">
        <ele>4</ele>
        <time>2019-04-30T06:08:50Z</time>
      </trkpt>
      <trkpt lat="45.95017" lon="-0.99583">
        <ele>3.4</ele>
        <time>2019-04-30T06:09:45Z</time>
      </trkpt>
      <trkpt lat="45.95012" lon="-0.99581">
        <ele>3.6</ele>
        <time>2019-04-30T06:09:46Z</time>
      </trkpt>
      <trkpt lat="45.94995" lon="-0.99491">
        <ele>4</ele>
        <time>2019-04-30T06:10:22Z</time>
      </trkpt>
      <trkpt lat="45.94906" lon="-0.99528">
        <ele>4</ele>
        <time>2019-04-30T06:11:10Z</time>
      </trkpt>
      <trkpt lat="45.94867" lon="-0.99551">
        <ele>4</ele>
        <time>2019-04-30T06:11:46Z</time>
      </trkpt>
      <trkpt lat="45.94871" lon="-0.99558">
        <ele>4</ele>
        <time>2019-04-30T06:11:48Z</time>
      </trkpt>
      <trkpt lat="45.94994" lon="-0.99486">
        <ele>4</ele>
        <time>2019-04-30T06:12:50Z</time>
      </trkpt>
      <trkpt lat="45.95004" lon="-0.99549">
        <ele>4</ele>
        <time>2019-04-30T06:13:14Z</time>
      </trkpt>
      <trkpt lat="45.95021" lon="-0.99579">
        <ele>3.4</ele>
        <time>2019-04-30T06:13:26Z</time>
      </trkpt>
      <trkpt lat="45.95079" lon="-0.99558">
        <ele>2.8</ele>
        <time>2019-04-30T06:13:50Z</time>
      </trkpt>
      <trkpt lat="45.95108" lon="-0.99538">
        <ele>2.4</ele>
        <time>2019-04-30T06:14:08Z</time>
      </trkpt>
      <trkpt lat="45.95032" lon="-0.99576">
        <ele>3</ele>
        <time>2019-04-30T06:15:02Z</time>
      </trkpt>
      <trkpt lat="45.95014" lon="-0.99567">
        <ele>3.8</ele>
        <time>2019-04-30T06:15:14Z</time>
      </trkpt>
      <trkpt lat="45.95" lon="-0.99499">
        <ele>4</ele>
        <time>2019-04-30T06:15:32Z</time>
      </trkpt>
      <trkpt lat="45.94996" lon="-0.99448">
        <ele>4</ele>
        <time>2019-04-30T06:15:44Z</time>
      </trkpt>
      <trkpt lat="45.94978" lon="-0.99396">
        <ele>4</ele>
        <time>2019-04-30T06:15:56Z</time>
      </trkpt>
      <trkpt lat="45.94937" lon="-0.99314">
        <ele>4.3</ele>
        <time>2019-04-30T06:16:14Z</time>
      </trkpt>
      <trkpt lat="45.94837" lon="-0.9903">
        <ele>5.1</ele>
        <time>2019-04-30T06:17:26Z</time>
      </trkpt>
      <trkpt lat="45.94809" lon="-0.98976">
        <ele>4.2</ele>
        <time>2019-04-30T06:17:38Z</time>
      </trkpt>
      <trkpt lat="45.94746" lon="-0.98911">
        <ele>3.9</ele>
        <time>2019-04-30T06:18:02Z</time>
      </trkpt>
      <trkpt lat="45.94744" lon="-0.98905">
        <ele>3.9</ele>
        <time>2019-04-30T06:18:08Z</time>
      </trkpt>
      <trkpt lat="45.94765" lon="-0.98885">
        <ele>4</ele>
        <time>2019-04-30T06:18:20Z</time>
      </trkpt>
      <trkpt lat="45.94755" lon="-0.98832">
        <ele>4</ele>
        <time>2019-04-30T06:18:32Z</time>
      </trkpt>
      <trkpt lat="45.94846" lon="-0.98787">
        <ele>4</ele>
        <time>2019-04-30T06:19:02Z</time>
      </trkpt>
      <trkpt lat="45.94944" lon="-0.9872">
        <ele>5</ele>
        <time>2019-04-30T06:19:32Z</time>
      </trkpt>
      <trkpt lat="45.94996" lon="-0.98698">
        <ele>4.1</ele>
        <time>2019-04-30T06:19:56Z</time>
      </trkpt>
      <trkpt lat="45.95044" lon="-0.98656">
        <ele>3.8</ele>
        <time>2019-04-30T06:20:20Z</time>
      </trkpt>
      <trkpt lat="45.9514" lon="-0.98591">
        <ele>4</ele>
        <time>2019-04-30T06:20:50Z</time>
      </trkpt>
      <trkpt lat="45.95293" lon="-0.98594">
        <ele>3.3</ele>
        <time>2019-04-30T06:21:32Z</time>
      </trkpt>
      <trkpt lat="45.95335" lon="-0.98579">
        <ele>3.8</ele>
        <time>2019-04-30T06:21:44Z</time>
      </trkpt>
      <trkpt lat="45.95371" lon="-0.98501">
        <ele>3</ele>
        <time>2019-04-30T06:22:02Z</time>
      </trkpt>
      <trkpt lat="45.95395" lon="-0.98412">
        <ele>3</ele>
        <time>2019-04-30T06:22:20Z</time>
      </trkpt>
      <trkpt lat="45.95424" lon="-0.98363">
        <ele>3.7</ele>
        <time>2019-04-30T06:22:32Z</time>
      </trkpt>
      <trkpt lat="45.95453" lon="-0.98325">
        <ele>3.4</ele>
        <time>2019-04-30T06:22:44Z</time>
      </trkpt>
      <trkpt lat="45.95583" lon="-0.98194">
        <ele>3.1</ele>
        <time>2019-04-30T06:23:26Z</time>
      </trkpt>
      <trkpt lat="45.95733" lon="-0.98027">
        <ele>3.6</ele>
        <time>2019-04-30T06:24:20Z</time>
      </trkpt>
      <trkpt lat="45.95755" lon="-0.98015">
        <ele>3.6</ele>
        <time>2019-04-30T06:24:26Z</time>
      </trkpt>
      <trkpt lat="45.95828" lon="-0.97998">
        <ele>4</ele>
        <time>2019-04-30T06:24:44Z</time>
      </trkpt>
      <trkpt lat="45.95857" lon="-0.98">
        <ele>4</ele>
        <time>2019-04-30T06:24:56Z</time>
      </trkpt>
      <trkpt lat="45.95843" lon="-0.98126">
        <ele>4</ele>
        <time>2019-04-30T06:25:25Z</time>
      </trkpt>
      <trkpt lat="45.95854" lon="-0.98191">
        <ele>3.9</ele>
        <time>2019-04-30T06:25:37Z</time>
      </trkpt>
      <trkpt lat="45.95877" lon="-0.98254">
        <ele>4</ele>
        <time>2019-04-30T06:25:49Z</time>
      </trkpt>
      <trkpt lat="45.95954" lon="-0.98407">
        <ele>5</ele>
        <time>2019-04-30T06:26:37Z</time>
      </trkpt>
      <trkpt lat="45.96006" lon="-0.9857">
        <ele>5.1</ele>
        <time>2019-04-30T06:27:13Z</time>
      </trkpt>
      <trkpt lat="45.96051" lon="-0.98622">
        <ele>5.9</ele>
        <time>2019-04-30T06:27:31Z</time>
      </trkpt>
      <trkpt lat="45.96088" lon="-0.98642">
        <ele>6.1</ele>
        <time>2019-04-30T06:27:43Z</time>
      </trkpt>
      <trkpt lat="45.9613" lon="-0.98644">
        <ele>6.9</ele>
        <time>2019-04-30T06:27:55Z</time>
      </trkpt>
      <trkpt lat="45.9619" lon="-0.98635">
        <ele>7.8</ele>
        <time>2019-04-30T06:28:13Z</time>
      </trkpt>
      <trkpt lat="45.96416" lon="-0.98571">
        <ele>15</ele>
        <time>2019-04-30T06:29:31Z</time>
      </trkpt>
      <trkpt lat="45.96449" lon="-0.98546">
        <ele>15.8</ele>
        <time>2019-04-30T06:29:43Z</time>
      </trkpt>
      <trkpt lat="45.96538" lon="-0.98421">
        <ele>17</ele>
        <time>2019-04-30T06:30:19Z</time>
      </trkpt>
      <trkpt lat="45.96618" lon="-0.9836">
        <ele>17.7</ele>
        <time>2019-04-30T06:30:49Z</time>
      </trkpt>
      <trkpt lat="45.96698" lon="-0.98339">
        <ele>15.9</ele>
        <time>2019-04-30T06:31:13Z</time>
      </trkpt>
      <trkpt lat="45.9674" lon="-0.98348">
        <ele>14.7</ele>
        <time>2019-04-30T06:31:25Z</time>
      </trkpt>
      <trkpt lat="45.96919" lon="-0.98282">
        <ele>14.3</ele>
        <time>2019-04-30T06:32:06Z</time>
      </trkpt>
      <trkpt lat="45.96946" lon="-0.98277">
        <ele>11.9</ele>
        <time>2019-04-30T06:32:12Z</time>
      </trkpt>
      <trkpt lat="45.97003" lon="-0.98289">
        <ele>10.9</ele>
        <time>2019-04-30T06:32:24Z</time>
      </trkpt>
      <trkpt lat="45.97075" lon="-0.98412">
        <ele>9.3</ele>
        <time>2019-04-30T06:32:48Z</time>
      </trkpt>
      <trkpt lat="45.97286" lon="-0.98733">
        <ele>4.6</ele>
        <time>2019-04-30T06:33:42Z</time>
      </trkpt>
      <trkpt lat="45.97335" lon="-0.98788">
        <ele>3.9</ele>
        <time>2019-04-30T06:33:54Z</time>
      </trkpt>
      <trkpt lat="45.97509" lon="-0.99083">
        <ele>3.7</ele>
        <time>2019-04-30T06:34:48Z</time>
      </trkpt>
      <trkpt lat="45.97658" lon="-0.99301">
        <ele>3.3</ele>
        <time>2019-04-30T06:35:30Z</time>
      </trkpt>
      <trkpt lat="45.97753" lon="-0.99457">
        <ele>3.4</ele>
        <time>2019-04-30T06:36:00Z</time>
      </trkpt>
      <trkpt lat="45.97834" lon="-0.99576">
        <ele>3.7</ele>
        <time>2019-04-30T06:36:24Z</time>
      </trkpt>
      <trkpt lat="45.97969" lon="-0.998">
        <ele>3.1</ele>
        <time>2019-04-30T06:37:06Z</time>
      </trkpt>
      <trkpt lat="45.98002" lon="-0.99866">
        <ele>3.1</ele>
        <time>2019-04-30T06:37:18Z</time>
      </trkpt>
      <trkpt lat="45.98113" lon="-1.0004">
        <ele>4</ele>
        <time>2019-04-30T06:37:54Z</time>
      </trkpt>
      <trkpt lat="45.98178" lon="-1.0016">
        <ele>3.3</ele>
        <time>2019-04-30T06:38:18Z</time>
      </trkpt>
      <trkpt lat="45.98187" lon="-1.00194">
        <ele>2.3</ele>
        <time>2019-04-30T06:38:24Z</time>
      </trkpt>
      <trkpt lat="45.98223" lon="-1.00285">
        <ele>4</ele>
        <time>2019-04-30T06:38:42Z</time>
      </trkpt>
      <trkpt lat="45.98228" lon="-1.00318">
        <ele>4.1</ele>
        <time>2019-04-30T06:38:54Z</time>
      </trkpt>
      <trkpt lat="45.98221" lon="-1.00309">
        <ele>4</ele>
        <time>2019-04-30T06:39:06Z</time>
      </trkpt>
      <trkpt lat="45.98228" lon="-1.0031">
        <ele>4.2</ele>
        <time>2019-04-30T06:39:12Z</time>
      </trkpt>
      <trkpt lat="45.98243" lon="-1.00334">
        <ele>4</ele>
        <time>2019-04-30T06:39:30Z</time>
      </trkpt>
      <trkpt lat="45.98286" lon="-1.00481">
        <ele>3.7</ele>
        <time>2019-04-30T06:40:06Z</time>
      </trkpt>
      <trkpt lat="45.98387" lon="-1.00619">
        <ele>7.3</ele>
        <time>2019-04-30T06:40:48Z</time>
      </trkpt>
      <trkpt lat="45.98418" lon="-1.00714">
        <ele>10.2</ele>
        <time>2019-04-30T06:41:12Z</time>
      </trkpt>
      <trkpt lat="45.98446" lon="-1.00777">
        <ele>12.7</ele>
        <time>2019-04-30T06:41:30Z</time>
      </trkpt>
      <trkpt lat="45.98544" lon="-1.00897">
        <ele>17.9</ele>
        <time>2019-04-30T06:42:18Z</time>
      </trkpt>
      <trkpt lat="45.98571" lon="-1.00948">
        <ele>17.3</ele>
        <time>2019-04-30T06:42:30Z</time>
      </trkpt>
      <trkpt lat="45.98621" lon="-1.01074">
        <ele>13.7</ele>
        <time>2019-04-30T06:42:48Z</time>
      </trkpt>
      <trkpt lat="45.98672" lon="-1.01176">
        <ele>14.3</ele>
        <time>2019-04-30T06:43:06Z</time>
      </trkpt>
      <trkpt lat="45.9873" lon="-1.01326">
        <ele>15.6</ele>
        <time>2019-04-30T06:43:36Z</time>
      </trkpt>
      <trkpt lat="45.98875" lon="-1.01628">
        <ele>13.6</ele>
        <time>2019-04-30T06:44:30Z</time>
      </trkpt>
      <trkpt lat="45.98947" lon="-1.0182">
        <ele>13.2</ele>
        <time>2019-04-30T06:45:06Z</time>
      </trkpt>
      <trkpt lat="45.98972" lon="-1.01858">
        <ele>12.2</ele>
        <time>2019-04-30T06:45:12Z</time>
      </trkpt>
      <trkpt lat="45.99019" lon="-1.01954">
        <ele>8.5</ele>
        <time>2019-04-30T06:45:24Z</time>
      </trkpt>
      <trkpt lat="45.99275" lon="-1.02537">
        <ele>5.9</ele>
        <time>2019-04-30T06:46:54Z</time>
      </trkpt>
      <trkpt lat="45.99273" lon="-1.02609">
        <ele>5.8</ele>
        <time>2019-04-30T06:47:06Z</time>
      </trkpt>
      <trkpt lat="45.99242" lon="-1.02738">
        <ele>6</ele>
        <time>2019-04-30T06:47:36Z</time>
      </trkpt>
      <trkpt lat="45.99243" lon="-1.02731">
        <ele>6</ele>
        <time>2019-04-30T06:47:42Z</time>
      </trkpt>
      <trkpt lat="45.99248" lon="-1.02733">
        <ele>6</ele>
        <time>2019-04-30T06:47:51Z</time>
      </trkpt>
      <trkpt lat="45.99288" lon="-1.02827">
        <ele>5.9</ele>
        <time>2019-04-30T06:48:20Z</time>
      </trkpt>
      <trkpt lat="45.99313" lon="-1.02929">
        <ele>5</ele>
        <time>2019-04-30T06:48:32Z</time>
      </trkpt>
      <trkpt lat="45.99338" lon="-1.03178">
        <ele>5.8</ele>
        <time>2019-04-30T06:49:14Z</time>
      </trkpt>
      <trkpt lat="45.99358" lon="-1.03294">
        <ele>5</ele>
        <time>2019-04-30T06:49:32Z</time>
      </trkpt>
      <trkpt lat="45.99395" lon="-1.03395">
        <ele>4.8</ele>
        <time>2019-04-30T06:49:50Z</time>
      </trkpt>
      <trkpt lat="45.99477" lon="-1.03538">
        <ele>6.2</ele>
        <time>2019-04-30T06:50:20Z</time>
      </trkpt>
      <trkpt lat="45.99497" lon="-1.03602">
        <ele>7.7</ele>
        <time>2019-04-30T06:50:31Z</time>
      </trkpt>
      <trkpt lat="45.99543" lon="-1.03797">
        <ele>9.8</ele>
        <time>2019-04-30T06:51:13Z</time>
      </trkpt>
      <trkpt lat="45.99601" lon="-1.03957">
        <ele>9.7</ele>
        <time>2019-04-30T06:51:44Z</time>
      </trkpt>
      <trkpt lat="45.99616" lon="-1.03987">
        <ele>8.8</ele>
        <time>2019-04-30T06:51:50Z</time>
      </trkpt>
      <trkpt lat="45.9969" lon="-1.04048">
        <ele>7.1</ele>
        <time>2019-04-30T06:52:08Z</time>
      </trkpt>
      <trkpt lat="45.99771" lon="-1.04096">
        <ele>6.6</ele>
        <time>2019-04-30T06:52:26Z</time>
      </trkpt>
      <trkpt lat="46.00944" lon="-1.04713">
        <ele>2.7</ele>
        <time>2019-04-30T06:56:38Z</time>
      </trkpt>
      <trkpt lat="46.00971" lon="-1.04717">
        <ele>2.8</ele>
        <time>2019-04-30T06:56:44Z</time>
      </trkpt>
      <trkpt lat="46.01022" lon="-1.0469">
        <ele>3</ele>
        <time>2019-04-30T06:56:55Z</time>
      </trkpt>
      <trkpt lat="46.01064" lon="-1.04648">
        <ele>3</ele>
        <time>2019-04-30T06:57:08Z</time>
      </trkpt>
      <trkpt lat="46.0111" lon="-1.04644">
        <ele>3</ele>
        <time>2019-04-30T06:57:20Z</time>
      </trkpt>
      <trkpt lat="46.01145" lon="-1.04824">
        <ele>3.9</ele>
        <time>2019-04-30T06:57:50Z</time>
      </trkpt>
      <trkpt lat="46.01284" lon="-1.04893">
        <ele>5.4</ele>
        <time>2019-04-30T06:58:26Z</time>
      </trkpt>
      <trkpt lat="46.0136" lon="-1.04924">
        <ele>7.5</ele>
        <time>2019-04-30T06:58:49Z</time>
      </trkpt>
      <trkpt lat="46.01397" lon="-1.04926">
        <ele>9.1</ele>
        <time>2019-04-30T06:59:02Z</time>
      </trkpt>
      <trkpt lat="46.01473" lon="-1.04888">
        <ele>10</ele>
        <time>2019-04-30T06:59:25Z</time>
      </trkpt>
      <trkpt lat="46.01519" lon="-1.0488">
        <ele>10</ele>
        <time>2019-04-30T06:59:38Z</time>
      </trkpt>
      <trkpt lat="46.0159" lon="-1.049">
        <ele>9.3</ele>
        <time>2019-04-30T06:59:56Z</time>
      </trkpt>
      <trkpt lat="46.01629" lon="-1.04926">
        <ele>9.1</ele>
        <time>2019-04-30T07:00:07Z</time>
      </trkpt>
      <trkpt lat="46.01698" lon="-1.04885">
        <ele>10.1</ele>
        <time>2019-04-30T07:00:32Z</time>
      </trkpt>
      <trkpt lat="46.01833" lon="-1.04778">
        <ele>9</ele>
        <time>2019-04-30T07:01:14Z</time>
      </trkpt>
      <trkpt lat="46.0188" lon="-1.04754">
        <ele>9</ele>
        <time>2019-04-30T07:01:26Z</time>
      </trkpt>
      <trkpt lat="46.01985" lon="-1.04678">
        <ele>8</ele>
        <time>2019-04-30T07:01:55Z</time>
      </trkpt>
      <trkpt lat="46.02062" lon="-1.04641">
        <ele>5.8</ele>
        <time>2019-04-30T07:02:14Z</time>
      </trkpt>
      <trkpt lat="46.02084" lon="-1.04559">
        <ele>4.1</ele>
        <time>2019-04-30T07:02:26Z</time>
      </trkpt>
      <trkpt lat="46.02171" lon="-1.04607">
        <ele>2.9</ele>
        <time>2019-04-30T07:02:43Z</time>
      </trkpt>
      <trkpt lat="46.02797" lon="-1.04803">
        <ele>3</ele>
        <time>2019-04-30T07:04:56Z</time>
      </trkpt>
      <trkpt lat="46.02904" lon="-1.04817">
        <ele>2.4</ele>
        <time>2019-04-30T07:05:20Z</time>
      </trkpt>
      <trkpt lat="46.02985" lon="-1.04816">
        <ele>2.4</ele>
        <time>2019-04-30T07:05:38Z</time>
      </trkpt>
      <trkpt lat="46.03061" lon="-1.04805">
        <ele>3</ele>
        <time>2019-04-30T07:05:56Z</time>
      </trkpt>
      <trkpt lat="46.03136" lon="-1.04781">
        <ele>2.9</ele>
        <time>2019-04-30T07:06:14Z</time>
      </trkpt>
      <trkpt lat="46.03468" lon="-1.04649">
        <ele>3</ele>
        <time>2019-04-30T07:07:32Z</time>
      </trkpt>
      <trkpt lat="46.03665" lon="-1.04562">
        <ele>3.2</ele>
        <time>2019-04-30T07:08:20Z</time>
      </trkpt>
      <trkpt lat="46.03711" lon="-1.04523">
        <ele>3.5</ele>
        <time>2019-04-30T07:08:31Z</time>
      </trkpt>
      <trkpt lat="46.03882" lon="-1.04333">
        <ele>3</ele>
        <time>2019-04-30T07:09:20Z</time>
      </trkpt>
      <trkpt lat="46.04151" lon="-1.04065">
        <ele>3.6</ele>
        <time>2019-04-30T07:10:31Z</time>
      </trkpt>
      <trkpt lat="46.0424" lon="-1.0398">
        <ele>3</ele>
        <time>2019-04-30T07:10:55Z</time>
      </trkpt>
      <trkpt lat="46.04269" lon="-1.03967">
        <ele>3.6</ele>
        <time>2019-04-30T07:11:08Z</time>
      </trkpt>
      <trkpt lat="46.04263" lon="-1.04087">
        <ele>3</ele>
        <time>2019-04-30T07:11:37Z</time>
      </trkpt>
      <trkpt lat="46.04239" lon="-1.04273">
        <ele>3.6</ele>
        <time>2019-04-30T07:12:14Z</time>
      </trkpt>
      <trkpt lat="46.0425" lon="-1.0431">
        <ele>3</ele>
        <time>2019-04-30T07:12:25Z</time>
      </trkpt>
      <trkpt lat="46.04239" lon="-1.04334">
        <ele>3</ele>
        <time>2019-04-30T07:12:32Z</time>
      </trkpt>
      <trkpt lat="46.04219" lon="-1.04559">
        <ele>3</ele>
        <time>2019-04-30T07:13:20Z</time>
      </trkpt>
      <trkpt lat="46.04222" lon="-1.04604">
        <ele>4.5</ele>
        <time>2019-04-30T07:13:32Z</time>
      </trkpt>
      <trkpt lat="46.04244" lon="-1.04661">
        <ele>4.4</ele>
        <time>2019-04-30T07:13:44Z</time>
      </trkpt>
      <trkpt lat="46.04266" lon="-1.0466">
        <ele>4.2</ele>
        <time>2019-04-30T07:13:50Z</time>
      </trkpt>
      <trkpt lat="46.0433" lon="-1.04623">
        <ele>4.6</ele>
        <time>2019-04-30T07:14:07Z</time>
      </trkpt>
      <trkpt lat="46.04375" lon="-1.04635">
        <ele>3.1</ele>
        <time>2019-04-30T07:14:20Z</time>
      </trkpt>
      <trkpt lat="46.04438" lon="-1.04695">
        <ele>3</ele>
        <time>2019-04-30T07:14:37Z</time>
      </trkpt>
      <trkpt lat="46.04665" lon="-1.04875">
        <ele>3</ele>
        <time>2019-04-30T07:15:38Z</time>
      </trkpt>
      <trkpt lat="46.04846" lon="-1.05029">
        <ele>3</ele>
        <time>2019-04-30T07:16:26Z</time>
      </trkpt>
      <trkpt lat="46.04922" lon="-1.05118">
        <ele>3.1</ele>
        <time>2019-04-30T07:16:43Z</time>
      </trkpt>
      <trkpt lat="46.05586" lon="-1.05651">
        <ele>3.1</ele>
        <time>2019-04-30T07:19:26Z</time>
      </trkpt>
      <trkpt lat="46.0561" lon="-1.05675">
        <ele>3</ele>
        <time>2019-04-30T07:19:31Z</time>
      </trkpt>
      <trkpt lat="46.05694" lon="-1.05833">
        <ele>4</ele>
        <time>2019-04-30T07:20:01Z</time>
      </trkpt>
      <trkpt lat="46.05772" lon="-1.06378">
        <ele>3.5</ele>
        <time>2019-04-30T07:21:38Z</time>
      </trkpt>
      <trkpt lat="46.05784" lon="-1.06523">
        <ele>3.8</ele>
        <time>2019-04-30T07:22:01Z</time>
      </trkpt>
      <trkpt lat="46.05768" lon="-1.06539">
        <ele>3.8</ele>
        <time>2019-04-30T07:22:07Z</time>
      </trkpt>
      <trkpt lat="46.05723" lon="-1.06562">
        <ele>4</ele>
        <time>2019-04-30T07:22:19Z</time>
      </trkpt>
      <trkpt lat="46.05411" lon="-1.06703">
        <ele>3.1</ele>
        <time>2019-04-30T07:23:31Z</time>
      </trkpt>
      <trkpt lat="46.05137" lon="-1.06823">
        <ele>3.6</ele>
        <time>2019-04-30T07:24:37Z</time>
      </trkpt>
      <trkpt lat="46.05061" lon="-1.06849">
        <ele>3.6</ele>
        <time>2019-04-30T07:25:14Z</time>
      </trkpt>
      <trkpt lat="46.05051" lon="-1.06872">
        <ele>3.5</ele>
        <time>2019-04-30T07:25:26Z</time>
      </trkpt>
      <trkpt lat="46.05065" lon="-1.06952">
        <ele>1.8</ele>
        <time>2019-04-30T07:26:05Z</time>
      </trkpt>
      <trkpt lat="46.05098" lon="-1.07065">
        <ele>2.9</ele>
        <time>2019-04-30T07:26:35Z</time>
      </trkpt>
      <trkpt lat="46.05284" lon="-1.07538">
        <ele>2.8</ele>
        <time>2019-04-30T07:28:35Z</time>
      </trkpt>
      <trkpt lat="46.05321" lon="-1.07647">
        <ele>2.3</ele>
        <time>2019-04-30T07:29:06Z</time>
      </trkpt>
      <trkpt lat="46.05342" lon="-1.07735">
        <ele>2.3</ele>
        <time>2019-04-30T07:29:23Z</time>
      </trkpt>
      <trkpt lat="46.0535" lon="-1.07866">
        <ele>2.8</ele>
        <time>2019-04-30T07:29:48Z</time>
      </trkpt>
      <trkpt lat="46.05339" lon="-1.08048">
        <ele>3.2</ele>
        <time>2019-04-30T07:30:23Z</time>
      </trkpt>
      <trkpt lat="46.05309" lon="-1.08267">
        <ele>2.7</ele>
        <time>2019-04-30T07:31:14Z</time>
      </trkpt>
      <trkpt lat="46.05295" lon="-1.0833">
        <ele>2.9</ele>
        <time>2019-04-30T07:31:25Z</time>
      </trkpt>
      <trkpt lat="46.05303" lon="-1.08358">
        <ele>3.9</ele>
        <time>2019-04-30T07:31:31Z</time>
      </trkpt>
      <trkpt lat="46.05311" lon="-1.08548">
        <ele>2.6</ele>
        <time>2019-04-30T07:32:07Z</time>
      </trkpt>
      <trkpt lat="46.05346" lon="-1.08758">
        <ele>3</ele>
        <time>2019-04-30T07:33:07Z</time>
      </trkpt>
      <trkpt lat="46.05372" lon="-1.08761">
        <ele>4.5</ele>
        <time>2019-04-30T07:33:19Z</time>
      </trkpt>
      <trkpt lat="46.05498" lon="-1.08735">
        <ele>9</ele>
        <time>2019-04-30T07:34:13Z</time>
      </trkpt>
      <trkpt lat="46.05705" lon="-1.08708">
        <ele>13.9</ele>
        <time>2019-04-30T07:35:43Z</time>
      </trkpt>
      <trkpt lat="46.05836" lon="-1.08669">
        <ele>18.2</ele>
        <time>2019-04-30T07:36:43Z</time>
      </trkpt>
      <trkpt lat="46.05846" lon="-1.08677">
        <ele>18.7</ele>
        <time>2019-04-30T07:36:49Z</time>
      </trkpt>
      <trkpt lat="46.05864" lon="-1.08754">
        <ele>18.9</ele>
        <time>2019-04-30T07:37:13Z</time>
      </trkpt>
      <trkpt lat="46.05942" lon="-1.08949">
        <ele>14.7</ele>
        <time>2019-04-30T07:37:43Z</time>
      </trkpt>
      <trkpt lat="46.06" lon="-1.08974">
        <ele>14.9</ele>
        <time>2019-04-30T07:38:01Z</time>
      </trkpt>
      <trkpt lat="46.05997" lon="-1.08985">
        <ele>14</ele>
        <time>2019-04-30T07:38:14Z</time>
      </trkpt>
      <trkpt lat="46.06012" lon="-1.08985">
        <ele>13.8</ele>
        <time>2019-04-30T07:38:21Z</time>
      </trkpt>
      <trkpt lat="46.06062" lon="-1.09017">
        <ele>11</ele>
        <time>2019-04-30T07:38:33Z</time>
      </trkpt>
      <trkpt lat="46.06163" lon="-1.09132">
        <ele>4.8</ele>
        <time>2019-04-30T07:38:51Z</time>
      </trkpt>
      <trkpt lat="46.06267" lon="-1.0916">
        <ele>4.1</ele>
        <time>2019-04-30T07:39:09Z</time>
      </trkpt>
      <trkpt lat="46.06246" lon="-1.09202">
        <ele>4.9</ele>
        <time>2019-04-30T07:39:21Z</time>
      </trkpt>
      <trkpt lat="46.06223" lon="-1.09273">
        <ele>5</ele>
        <time>2019-04-30T07:39:39Z</time>
      </trkpt>
      <trkpt lat="46.06246" lon="-1.09296">
        <ele>4.3</ele>
        <time>2019-04-30T07:39:51Z</time>
      </trkpt>
      <trkpt lat="46.06447" lon="-1.09298">
        <ele>5.8</ele>
        <time>2019-04-30T07:41:11Z</time>
      </trkpt>
      <trkpt lat="46.06611" lon="-1.09282">
        <ele>5</ele>
        <time>2019-04-30T07:41:53Z</time>
      </trkpt>
      <trkpt lat="46.06669" lon="-1.09291">
        <ele>5.5</ele>
        <time>2019-04-30T07:42:11Z</time>
      </trkpt>
      <trkpt lat="46.06956" lon="-1.09283">
        <ele>4.9</ele>
        <time>2019-04-30T07:43:35Z</time>
      </trkpt>
      <trkpt lat="46.06979" lon="-1.09295">
        <ele>5</ele>
        <time>2019-04-30T07:43:47Z</time>
      </trkpt>
      <trkpt lat="46.07186" lon="-1.09315">
        <ele>4.7</ele>
        <time>2019-04-30T07:44:59Z</time>
      </trkpt>
      <trkpt lat="46.07307" lon="-1.09318">
        <ele>5.5</ele>
        <time>2019-04-30T07:45:47Z</time>
      </trkpt>
      <trkpt lat="46.07506" lon="-1.0935">
        <ele>5</ele>
        <time>2019-04-30T07:46:47Z</time>
      </trkpt>
      <trkpt lat="46.07601" lon="-1.09376">
        <ele>5.9</ele>
        <time>2019-04-30T07:47:23Z</time>
      </trkpt>
      <trkpt lat="46.07698" lon="-1.09387">
        <ele>6.9</ele>
        <time>2019-04-30T07:48:05Z</time>
      </trkpt>
      <trkpt lat="46.07808" lon="-1.09417">
        <ele>5</ele>
        <time>2019-04-30T07:48:42Z</time>
      </trkpt>
      <trkpt lat="46.08033" lon="-1.0952">
        <ele>5</ele>
        <time>2019-04-30T07:49:53Z</time>
      </trkpt>
      <trkpt lat="46.08209" lon="-1.09618">
        <ele>4.6</ele>
        <time>2019-04-30T07:50:47Z</time>
      </trkpt>
      <trkpt lat="46.08277" lon="-1.09647">
        <ele>5</ele>
        <time>2019-04-30T07:51:11Z</time>
      </trkpt>
      <trkpt lat="46.08296" lon="-1.09553">
        <ele>4.7</ele>
        <time>2019-04-30T07:51:35Z</time>
      </trkpt>
      <trkpt lat="46.0837" lon="-1.09314">
        <ele>4.2</ele>
        <time>2019-04-30T07:52:42Z</time>
      </trkpt>
      <trkpt lat="46.0838" lon="-1.09292">
        <ele>4.3</ele>
        <time>2019-04-30T07:52:47Z</time>
      </trkpt>
      <trkpt lat="46.08407" lon="-1.09286">
        <ele>4.1</ele>
        <time>2019-04-30T07:52:59Z</time>
      </trkpt>
      <trkpt lat="46.08436" lon="-1.09205">
        <ele>3</ele>
        <time>2019-04-30T07:53:17Z</time>
      </trkpt>
      <trkpt lat="46.08448" lon="-1.09191">
        <ele>3</ele>
        <time>2019-04-30T07:53:23Z</time>
      </trkpt>
      <trkpt lat="46.08457" lon="-1.09164">
        <ele>2.5</ele>
        <time>2019-04-30T07:53:41Z</time>
      </trkpt>
      <trkpt lat="46.08429" lon="-1.09221">
        <ele>3</ele>
        <time>2019-04-30T07:54:11Z</time>
      </trkpt>
      <trkpt lat="46.08424" lon="-1.09246">
        <ele>3</ele>
        <time>2019-04-30T07:54:17Z</time>
      </trkpt>
      <trkpt lat="46.08405" lon="-1.09288">
        <ele>4.2</ele>
        <time>2019-04-30T07:54:35Z</time>
      </trkpt>
      <trkpt lat="46.08407" lon="-1.09313">
        <ele>4.1</ele>
        <time>2019-04-30T07:54:47Z</time>
      </trkpt>
      <trkpt lat="46.08441" lon="-1.09327">
        <ele>3.9</ele>
        <time>2019-04-30T07:54:59Z</time>
      </trkpt>
      <trkpt lat="46.08773" lon="-1.0963">
        <ele>4.6</ele>
        <time>2019-04-30T07:56:41Z</time>
      </trkpt>
      <trkpt lat="46.08804" lon="-1.09661">
        <ele>4.8</ele>
        <time>2019-04-30T07:56:59Z</time>
      </trkpt>
      <trkpt lat="46.0895" lon="-1.0984">
        <ele>5</ele>
        <time>2019-04-30T07:57:47Z</time>
      </trkpt>
      <trkpt lat="46.09043" lon="-1.09885">
        <ele>5.1</ele>
        <time>2019-04-30T07:58:11Z</time>
      </trkpt>
      <trkpt lat="46.09173" lon="-1.09928">
        <ele>5</ele>
        <time>2019-04-30T07:58:41Z</time>
      </trkpt>
      <trkpt lat="46.09344" lon="-1.09969">
        <ele>4.1</ele>
        <time>2019-04-30T07:59:23Z</time>
      </trkpt>
      <trkpt lat="46.09474" lon="-1.10024">
        <ele>5</ele>
        <time>2019-04-30T08:00:05Z</time>
      </trkpt>
      <trkpt lat="46.0947" lon="-1.10075">
        <ele>4.6</ele>
        <time>2019-04-30T08:00:23Z</time>
      </trkpt>
      <trkpt lat="46.09486" lon="-1.10128">
        <ele>4.4</ele>
        <time>2019-04-30T08:00:35Z</time>
      </trkpt>
      <trkpt lat="46.09508" lon="-1.10142">
        <ele>5.8</ele>
        <time>2019-04-30T08:00:47Z</time>
      </trkpt>
      <trkpt lat="46.09597" lon="-1.10276">
        <ele>10</ele>
        <time>2019-04-30T08:01:35Z</time>
      </trkpt>
      <trkpt lat="46.09665" lon="-1.10344">
        <ele>11</ele>
        <time>2019-04-30T08:02:00Z</time>
      </trkpt>
      <trkpt lat="46.09895" lon="-1.10769">
        <ele>12</ele>
        <time>2019-04-30T08:03:35Z</time>
      </trkpt>
      <trkpt lat="46.09922" lon="-1.10847">
        <ele>11.5</ele>
        <time>2019-04-30T08:03:53Z</time>
      </trkpt>
      <trkpt lat="46.0996" lon="-1.10891">
        <ele>11.5</ele>
        <time>2019-04-30T08:04:05Z</time>
      </trkpt>
      <trkpt lat="46.10069" lon="-1.11093">
        <ele>9.5</ele>
        <time>2019-04-30T08:04:41Z</time>
      </trkpt>
      <trkpt lat="46.10119" lon="-1.11162">
        <ele>9.2</ele>
        <time>2019-04-30T08:04:59Z</time>
      </trkpt>
      <trkpt lat="46.10221" lon="-1.11273">
        <ele>6.8</ele>
        <time>2019-04-30T08:05:35Z</time>
      </trkpt>
      <trkpt lat="46.103" lon="-1.11335">
        <ele>7</ele>
        <time>2019-04-30T08:05:59Z</time>
      </trkpt>
      <trkpt lat="46.1038" lon="-1.11384">
        <ele>6.9</ele>
        <time>2019-04-30T08:06:23Z</time>
      </trkpt>
      <trkpt lat="46.10382" lon="-1.11414">
        <ele>6.8</ele>
        <time>2019-04-30T08:06:41Z</time>
      </trkpt>
      <trkpt lat="46.10362" lon="-1.1157">
        <ele>7</ele>
        <time>2019-04-30T08:07:29Z</time>
      </trkpt>
      <trkpt lat="46.10341" lon="-1.11671">
        <ele>6.6</ele>
        <time>2019-04-30T08:08:02Z</time>
      </trkpt>
      <trkpt lat="46.10309" lon="-1.11784">
        <ele>6.7</ele>
        <time>2019-04-30T08:08:32Z</time>
      </trkpt>
      <trkpt lat="46.10325" lon="-1.11826">
        <ele>5.8</ele>
        <time>2019-04-30T08:08:44Z</time>
      </trkpt>
      <trkpt lat="46.10468" lon="-1.11838">
        <ele>3.9</ele>
        <time>2019-04-30T08:09:27Z</time>
      </trkpt>
      <trkpt lat="46.10488" lon="-1.11871">
        <ele>3</ele>
        <time>2019-04-30T08:09:38Z</time>
      </trkpt>
      <trkpt lat="46.10531" lon="-1.11869">
        <ele>3</ele>
        <time>2019-04-30T08:09:50Z</time>
      </trkpt>
      <trkpt lat="46.10551" lon="-1.11815">
        <ele>3</ele>
        <time>2019-04-30T08:10:02Z</time>
      </trkpt>
      <trkpt lat="46.10574" lon="-1.11721">
        <ele>3</ele>
        <time>2019-04-30T08:10:20Z</time>
      </trkpt>
      <trkpt lat="46.10641" lon="-1.11599">
        <ele>3</ele>
        <time>2019-04-30T08:10:56Z</time>
      </trkpt>
      <trkpt lat="46.10675" lon="-1.11572">
        <ele>3</ele>
        <time>2019-04-30T08:11:08Z</time>
      </trkpt>
      <trkpt lat="46.10736" lon="-1.11611">
        <ele>3</ele>
        <time>2019-04-30T08:11:26Z</time>
      </trkpt>
      <trkpt lat="46.1078" lon="-1.11622">
        <ele>3</ele>
        <time>2019-04-30T08:11:38Z</time>
      </trkpt>
      <trkpt lat="46.10798" lon="-1.11641">
        <ele>3</ele>
        <time>2019-04-30T08:11:44Z</time>
      </trkpt>
      <trkpt lat="46.10818" lon="-1.11691">
        <ele>3</ele>
        <time>2019-04-30T08:11:56Z</time>
      </trkpt>
      <trkpt lat="46.1085" lon="-1.11748">
        <ele>2.4</ele>
        <time>2019-04-30T08:12:08Z</time>
      </trkpt>
      <trkpt lat="46.10894" lon="-1.11744">
        <ele>2.4</ele>
        <time>2019-04-30T08:12:20Z</time>
      </trkpt>
      <trkpt lat="46.1094" lon="-1.11755">
        <ele>3</ele>
        <time>2019-04-30T08:12:32Z</time>
      </trkpt>
      <trkpt lat="46.10968" lon="-1.11818">
        <ele>3.3</ele>
        <time>2019-04-30T08:12:44Z</time>
      </trkpt>
      <trkpt lat="46.11006" lon="-1.11875">
        <ele>3.1</ele>
        <time>2019-04-30T08:12:56Z</time>
      </trkpt>
      <trkpt lat="46.11016" lon="-1.11908">
        <ele>3</ele>
        <time>2019-04-30T08:13:02Z</time>
      </trkpt>
      <trkpt lat="46.11027" lon="-1.11985">
        <ele>3</ele>
        <time>2019-04-30T08:13:14Z</time>
      </trkpt>
      <trkpt lat="46.11051" lon="-1.12056">
        <ele>3</ele>
        <time>2019-04-30T08:13:26Z</time>
      </trkpt>
      <trkpt lat="46.11097" lon="-1.121">
        <ele>3</ele>
        <time>2019-04-30T08:13:38Z</time>
      </trkpt>
      <trkpt lat="46.11171" lon="-1.12111">
        <ele>3</ele>
        <time>2019-04-30T08:13:56Z</time>
      </trkpt>
      <trkpt lat="46.11247" lon="-1.12215">
        <ele>2.8</ele>
        <time>2019-04-30T08:14:20Z</time>
      </trkpt>
      <trkpt lat="46.11262" lon="-1.12241">
        <ele>2.9</ele>
        <time>2019-04-30T08:14:26Z</time>
      </trkpt>
      <trkpt lat="46.11272" lon="-1.12279">
        <ele>3.2</ele>
        <time>2019-04-30T08:14:38Z</time>
      </trkpt>
      <trkpt lat="46.11319" lon="-1.1234">
        <ele>4</ele>
        <time>2019-04-30T08:14:56Z</time>
      </trkpt>
      <trkpt lat="46.11354" lon="-1.12345">
        <ele>4.3</ele>
        <time>2019-04-30T08:15:08Z</time>
      </trkpt>
      <trkpt lat="46.11366" lon="-1.1238">
        <ele>4.3</ele>
        <time>2019-04-30T08:15:20Z</time>
      </trkpt>
      <trkpt lat="46.11479" lon="-1.12347">
        <ele>3.9</ele>
        <time>2019-04-30T08:15:56Z</time>
      </trkpt>
      <trkpt lat="46.116" lon="-1.12344">
        <ele>3.4</ele>
        <time>2019-04-30T08:16:32Z</time>
      </trkpt>
      <trkpt lat="46.1164" lon="-1.1232">
        <ele>2</ele>
        <time>2019-04-30T08:16:50Z</time>
      </trkpt>
      <trkpt lat="46.11781" lon="-1.12334">
        <ele>2</ele>
        <time>2019-04-30T08:17:26Z</time>
      </trkpt>
      <trkpt lat="46.1183" lon="-1.12352">
        <ele>2.7</ele>
        <time>2019-04-30T08:17:38Z</time>
      </trkpt>
      <trkpt lat="46.11855" lon="-1.12299">
        <ele>2</ele>
        <time>2019-04-30T08:17:50Z</time>
      </trkpt>
      <trkpt lat="46.12113" lon="-1.1239">
        <ele>3</ele>
        <time>2019-04-30T08:18:56Z</time>
      </trkpt>
      <trkpt lat="46.12315" lon="-1.12507">
        <ele>3.7</ele>
        <time>2019-04-30T08:19:50Z</time>
      </trkpt>
      <trkpt lat="46.12636" lon="-1.12719">
        <ele>4.9</ele>
        <time>2019-04-30T08:21:20Z</time>
      </trkpt>
      <trkpt lat="46.12719" lon="-1.12798">
        <ele>4.9</ele>
        <time>2019-04-30T08:21:44Z</time>
      </trkpt>
      <trkpt lat="46.12754" lon="-1.12845">
        <ele>4.9</ele>
        <time>2019-04-30T08:22:02Z</time>
      </trkpt>
      <trkpt lat="46.12771" lon="-1.12842">
        <ele>4.5</ele>
        <time>2019-04-30T08:22:14Z</time>
      </trkpt>
      <trkpt lat="46.1279" lon="-1.12861">
        <ele>4.1</ele>
        <time>2019-04-30T08:22:30Z</time>
      </trkpt>
      <trkpt lat="46.12809" lon="-1.12837">
        <ele>3</ele>
        <time>2019-04-30T08:22:48Z</time>
      </trkpt>
      <trkpt lat="46.12846" lon="-1.12815">
        <ele>3</ele>
        <time>2019-04-30T08:23:18Z</time>
      </trkpt>
      <trkpt lat="46.12873" lon="-1.1276">
        <ele>3</ele>
        <time>2019-04-30T08:23:42Z</time>
      </trkpt>
      <trkpt lat="46.12964" lon="-1.12824">
        <ele>3</ele>
        <time>2019-04-30T08:24:24Z</time>
      </trkpt>
      <trkpt lat="46.12969" lon="-1.12842">
        <ele>2.7</ele>
        <time>2019-04-30T08:24:30Z</time>
      </trkpt>
      <trkpt lat="46.12947" lon="-1.12875">
        <ele>2.5</ele>
        <time>2019-04-30T08:24:42Z</time>
      </trkpt>
      <trkpt lat="46.1293" lon="-1.12918">
        <ele>2.5</ele>
        <time>2019-04-30T08:24:54Z</time>
      </trkpt>
      <trkpt lat="46.12952" lon="-1.13036">
        <ele>2.6</ele>
        <time>2019-04-30T08:25:24Z</time>
      </trkpt>
      <trkpt lat="46.12963" lon="-1.13055">
        <ele>2.7</ele>
        <time>2019-04-30T08:25:30Z</time>
      </trkpt>
      <trkpt lat="46.12992" lon="-1.13053">
        <ele>2.9</ele>
        <time>2019-04-30T08:25:42Z</time>
      </trkpt>
      <trkpt lat="46.12996" lon="-1.13102">
        <ele>2.9</ele>
        <time>2019-04-30T08:25:54Z</time>
      </trkpt>
      <trkpt lat="46.13029" lon="-1.13141">
        <ele>3</ele>
        <time>2019-04-30T08:26:06Z</time>
      </trkpt>
      <trkpt lat="46.13051" lon="-1.13148">
        <ele>3</ele>
        <time>2019-04-30T08:26:12Z</time>
      </trkpt>
      <trkpt lat="46.13105" lon="-1.13121">
        <ele>3</ele>
        <time>2019-04-30T08:26:30Z</time>
      </trkpt>
      <trkpt lat="46.13118" lon="-1.13125">
        <ele>3</ele>
        <time>2019-04-30T08:26:44Z</time>
      </trkpt>
      <trkpt lat="46.13111" lon="-1.13128">
        <ele>3</ele>
        <time>2019-04-30T08:26:50Z</time>
      </trkpt>
      <trkpt lat="46.13133" lon="-1.13263">
        <ele>5</ele>
        <time>2019-04-30T08:27:20Z</time>
      </trkpt>
      <trkpt lat="46.13186" lon="-1.13662">
        <ele>10.2</ele>
        <time>2019-04-30T08:29:02Z</time>
      </trkpt>
      <trkpt lat="46.13203" lon="-1.13717">
        <ele>10.3</ele>
        <time>2019-04-30T08:29:14Z</time>
      </trkpt>
      <trkpt lat="46.13182" lon="-1.13749">
        <ele>8.5</ele>
        <time>2019-04-30T08:29:26Z</time>
      </trkpt>
      <trkpt lat="46.13185" lon="-1.13782">
        <ele>9</ele>
        <time>2019-04-30T08:29:38Z</time>
      </trkpt>
      <trkpt lat="46.13175" lon="-1.13803">
        <ele>9</ele>
        <time>2019-04-30T08:29:50Z</time>
      </trkpt>
      <trkpt lat="46.13172" lon="-1.13921">
        <ele>7.9</ele>
        <time>2019-04-30T08:30:14Z</time>
      </trkpt>
      <trkpt lat="46.13157" lon="-1.14035">
        <ele>6.3</ele>
        <time>2019-04-30T08:30:32Z</time>
      </trkpt>
      <trkpt lat="46.13154" lon="-1.14167">
        <ele>4.5</ele>
        <time>2019-04-30T08:30:50Z</time>
      </trkpt>
      <trkpt lat="46.13067" lon="-1.14765">
        <ele>5.1</ele>
        <time>2019-04-30T08:32:20Z</time>
      </trkpt>
      <trkpt lat="46.13103" lon="-1.14843">
        <ele>3.8</ele>
        <time>2019-04-30T08:32:38Z</time>
      </trkpt>
      <trkpt lat="46.13121" lon="-1.14831">
        <ele>3.9</ele>
        <time>2019-04-30T08:32:44Z</time>
      </trkpt>
      <trkpt lat="46.13191" lon="-1.1483">
        <ele>4.8</ele>
        <time>2019-04-30T08:33:08Z</time>
      </trkpt>
      <trkpt lat="46.13251" lon="-1.14847">
        <ele>4</ele>
        <time>2019-04-30T08:33:26Z</time>
      </trkpt>
      <trkpt lat="46.13286" lon="-1.14871">
        <ele>5</ele>
        <time>2019-04-30T08:33:38Z</time>
      </trkpt>
      <trkpt lat="46.13319" lon="-1.14904">
        <ele>3.9</ele>
        <time>2019-04-30T08:33:50Z</time>
      </trkpt>
      <trkpt lat="46.1341" lon="-1.1506">
        <ele>3.7</ele>
        <time>2019-04-30T08:34:38Z</time>
      </trkpt>
      <trkpt lat="46.13444" lon="-1.15104">
        <ele>4.7</ele>
        <time>2019-04-30T08:34:50Z</time>
      </trkpt>
      <trkpt lat="46.13546" lon="-1.15181">
        <ele>4.1</ele>
        <time>2019-04-30T08:35:20Z</time>
      </trkpt>
      <trkpt lat="46.1367" lon="-1.1529">
        <ele>4.2</ele>
        <time>2019-04-30T08:35:56Z</time>
      </trkpt>
      <trkpt lat="46.13708" lon="-1.15332">
        <ele>4</ele>
        <time>2019-04-30T08:36:08Z</time>
      </trkpt>
      <trkpt lat="46.13738" lon="-1.15383">
        <ele>4.3</ele>
        <time>2019-04-30T08:36:20Z</time>
      </trkpt>
      <trkpt lat="46.13759" lon="-1.15447">
        <ele>4.9</ele>
        <time>2019-04-30T08:36:32Z</time>
      </trkpt>
      <trkpt lat="46.13775" lon="-1.15548">
        <ele>5.5</ele>
        <time>2019-04-30T08:36:50Z</time>
      </trkpt>
      <trkpt lat="46.13789" lon="-1.15757">
        <ele>7.1</ele>
        <time>2019-04-30T08:37:26Z</time>
      </trkpt>
      <trkpt lat="46.13787" lon="-1.1587">
        <ele>6.2</ele>
        <time>2019-04-30T08:37:44Z</time>
      </trkpt>
      <trkpt lat="46.13769" lon="-1.1601">
        <ele>6.1</ele>
        <time>2019-04-30T08:38:08Z</time>
      </trkpt>
      <trkpt lat="46.13751" lon="-1.16094">
        <ele>8</ele>
        <time>2019-04-30T08:38:26Z</time>
      </trkpt>
      <trkpt lat="46.13801" lon="-1.16142">
        <ele>9</ele>
        <time>2019-04-30T08:38:56Z</time>
      </trkpt>
      <trkpt lat="46.13826" lon="-1.1618">
        <ele>9.9</ele>
        <time>2019-04-30T08:39:14Z</time>
      </trkpt>
      <trkpt lat="46.13949" lon="-1.16244">
        <ele>9.8</ele>
        <time>2019-04-30T08:40:08Z</time>
      </trkpt>
      <trkpt lat="46.1405" lon="-1.16266">
        <ele>7.2</ele>
        <time>2019-04-30T08:40:44Z</time>
      </trkpt>
      <trkpt lat="46.14064" lon="-1.16262">
        <ele>6.7</ele>
        <time>2019-04-30T08:40:50Z</time>
      </trkpt>
      <trkpt lat="46.14153" lon="-1.16272">
        <ele>4.7</ele>
        <time>2019-04-30T08:41:44Z</time>
      </trkpt>
      <trkpt lat="46.14178" lon="-1.16297">
        <ele>3.7</ele>
        <time>2019-04-30T08:41:56Z</time>
      </trkpt>
      <trkpt lat="46.14181" lon="-1.1632">
        <ele>4</ele>
        <time>2019-04-30T08:42:02Z</time>
      </trkpt>
      <trkpt lat="46.14174" lon="-1.1634">
        <ele>4</ele>
        <time>2019-04-30T08:42:14Z</time>
      </trkpt>
      <trkpt lat="46.14188" lon="-1.16358">
        <ele>4</ele>
        <time>2019-04-30T08:42:26Z</time>
      </trkpt>
      <trkpt lat="46.14163" lon="-1.16408">
        <ele>4.1</ele>
        <time>2019-04-30T08:42:48Z</time>
      </trkpt>
      <trkpt lat="46.14145" lon="-1.16494">
        <ele>4</ele>
        <time>2019-04-30T08:43:12Z</time>
      </trkpt>
      <trkpt lat="46.14125" lon="-1.16607">
        <ele>5.6</ele>
        <time>2019-04-30T08:43:42Z</time>
      </trkpt>
      <trkpt lat="46.14134" lon="-1.16646">
        <ele>5</ele>
        <time>2019-04-30T08:43:54Z</time>
      </trkpt>
      <trkpt lat="46.14117" lon="-1.16723">
        <ele>5</ele>
        <time>2019-04-30T08:44:24Z</time>
      </trkpt>
      <trkpt lat="46.14086" lon="-1.16918">
        <ele>4</ele>
        <time>2019-04-30T08:45:18Z</time>
      </trkpt>
      <trkpt lat="46.14095" lon="-1.16948">
        <ele>4.6</ele>
        <time>2019-04-30T08:45:40Z</time>
      </trkpt>
      <trkpt lat="46.14132" lon="-1.17013">
        <ele>4</ele>
        <time>2019-04-30T08:46:10Z</time>
      </trkpt>
      <trkpt lat="46.14208" lon="-1.17124">
        <ele>4.5</ele>
        <time>2019-04-30T08:46:58Z</time>
      </trkpt>
      <trkpt lat="46.14212" lon="-1.17146">
        <ele>4.1</ele>
        <time>2019-04-30T08:47:10Z</time>
      </trkpt>
      <trkpt lat="46.14246" lon="-1.17162">
        <ele>4.6</ele>
        <time>2019-04-30T08:47:44Z</time>
      </trkpt>
      <trkpt lat="46.14242" lon="-1.17151">
        <ele>4.2</ele>
        <time>2019-04-30T08:47:50Z</time>
      </trkpt>
      <trkpt lat="46.14188" lon="-1.17105">
        <ele>4</ele>
        <time>2019-04-30T08:48:08Z</time>
      </trkpt>
      <trkpt lat="46.14111" lon="-1.16989">
        <ele>4</ele>
        <time>2019-04-30T08:48:44Z</time>
      </trkpt>
      <trkpt lat="46.1408" lon="-1.16929">
        <ele>4.6</ele>
        <time>2019-04-30T08:49:02Z</time>
      </trkpt>
      <trkpt lat="46.14114" lon="-1.16774">
        <ele>4.9</ele>
        <time>2019-04-30T08:49:38Z</time>
      </trkpt>
      <trkpt lat="46.14132" lon="-1.16658">
        <ele>5</ele>
        <time>2019-04-30T08:50:08Z</time>
      </trkpt>
      <trkpt lat="46.14123" lon="-1.166">
        <ele>4.9</ele>
        <time>2019-04-30T08:50:26Z</time>
      </trkpt>
      <trkpt lat="46.14161" lon="-1.16418">
        <ele>4.1</ele>
        <time>2019-04-30T08:51:14Z</time>
      </trkpt>
      <trkpt lat="46.14181" lon="-1.16375">
        <ele>4</ele>
        <time>2019-04-30T08:51:26Z</time>
      </trkpt>
      <trkpt lat="46.14218" lon="-1.1635">
        <ele>3.3</ele>
        <time>2019-04-30T08:51:38Z</time>
      </trkpt>
      <trkpt lat="46.14344" lon="-1.16308">
        <ele>4.23</ele>
        <time>2019-04-30T08:52:14Z</time>
      </trkpt>
      <trkpt lat="46.14361" lon="-1.16293">
        <ele>3.9</ele>
        <time>2019-04-30T08:52:20Z</time>
      </trkpt>
      <trkpt lat="46.14379" lon="-1.16249">
        <ele>5</ele>
        <time>2019-04-30T08:52:32Z</time>
      </trkpt>
      <trkpt lat="46.14621" lon="-1.16166">
        <ele>5</ele>
        <time>2019-04-30T08:53:49Z</time>
      </trkpt>
      <trkpt lat="46.14644" lon="-1.16129">
        <ele>4.6</ele>
        <time>2019-04-30T08:54:07Z</time>
      </trkpt>
      <trkpt lat="46.14677" lon="-1.16118">
        <ele>4.2</ele>
        <time>2019-04-30T08:54:19Z</time>
      </trkpt>
      <trkpt lat="46.14688" lon="-1.16139">
        <ele>5</ele>
        <time>2019-04-30T08:54:37Z</time>
      </trkpt>
      <trkpt lat="46.14746" lon="-1.16106">
        <ele>4.8</ele>
        <time>2019-04-30T08:54:55Z</time>
      </trkpt>
      <trkpt lat="46.14789" lon="-1.16097">
        <ele>4.5</ele>
        <time>2019-04-30T08:55:07Z</time>
      </trkpt>
      <trkpt lat="46.14846" lon="-1.16097">
        <ele>4.8</ele>
        <time>2019-04-30T08:55:25Z</time>
      </trkpt>
      <trkpt lat="46.15181" lon="-1.15974">
        <ele>3.9</ele>
        <time>2019-04-30T08:57:07Z</time>
      </trkpt>
      <trkpt lat="46.1522" lon="-1.15923">
        <ele>3.9</ele>
        <time>2019-04-30T08:57:19Z</time>
      </trkpt>
      <trkpt lat="46.15257" lon="-1.15832">
        <ele>4</ele>
        <time>2019-04-30T08:57:37Z</time>
      </trkpt>
      <trkpt lat="46.15271" lon="-1.1578">
        <ele>4</ele>
        <time>2019-04-30T08:57:49Z</time>
      </trkpt>
      <trkpt lat="46.1531" lon="-1.15714">
        <ele>3.9</ele>
        <time>2019-04-30T08:58:07Z</time>
      </trkpt>
      <trkpt lat="46.1533" lon="-1.15662">
        <ele>4</ele>
        <time>2019-04-30T08:58:19Z</time>
      </trkpt>
      <trkpt lat="46.15352" lon="-1.15558">
        <ele>4</ele>
        <time>2019-04-30T08:58:49Z</time>
      </trkpt>
      <trkpt lat="46.15372" lon="-1.15555">
        <ele>2.8</ele>
        <time>2019-04-30T08:59:01Z</time>
      </trkpt>
      <trkpt lat="46.15377" lon="-1.15544">
        <ele>3</ele>
        <time>2019-04-30T08:59:13Z</time>
      </trkpt>
      <trkpt lat="46.15369" lon="-1.15547">
        <ele>3.4</ele>
        <time>2019-04-30T08:59:19Z</time>
      </trkpt>
      <trkpt lat="46.15356" lon="-1.15518">
        <ele>4.2</ele>
        <time>2019-04-30T08:59:31Z</time>
      </trkpt>
      <trkpt lat="46.15392" lon="-1.15287">
        <ele>4.9</ele>
        <time>2019-04-30T09:00:19Z</time>
      </trkpt>
      <trkpt lat="46.15416" lon="-1.15264">
        <ele>4.5</ele>
        <time>2019-04-30T09:00:31Z</time>
      </trkpt>
      <trkpt lat="46.15447" lon="-1.15267">
        <ele>4</ele>
        <time>2019-04-30T09:00:43Z</time>
      </trkpt>
      <trkpt lat="46.1548" lon="-1.15259">
        <ele>4</ele>
        <time>2019-04-30T09:00:55Z</time>
      </trkpt>
      <trkpt lat="46.15487" lon="-1.1517">
        <ele>4</ele>
        <time>2019-04-30T09:01:19Z</time>
      </trkpt>
      <trkpt lat="46.15494" lon="-1.15181">
        <ele>4</ele>
        <time>2019-04-30T09:01:25Z</time>
      </trkpt>
      <trkpt lat="46.15542" lon="-1.15184">
        <ele>4</ele>
        <time>2019-04-30T09:01:43Z</time>
      </trkpt>
      <trkpt lat="46.15561" lon="-1.15182">
        <ele>4</ele>
        <time>2019-04-30T09:01:49Z</time>
      </trkpt>
      <trkpt lat="46.15581" lon="-1.15169">
        <ele>4</ele>
        <time>2019-04-30T09:02:01Z</time>
      </trkpt>
      <trkpt lat="46.15584" lon="-1.14988">
        <ele>4</ele>
        <time>2019-04-30T09:03:13Z</time>
      </trkpt>
      <trkpt lat="46.15579" lon="-1.14973">
        <ele>4</ele>
        <time>2019-04-30T09:03:30Z</time>
      </trkpt>
      <trkpt lat="46.15658" lon="-1.14978">
        <ele>4</ele>
        <time>2019-04-30T09:04:01Z</time>
      </trkpt>
      <trkpt lat="46.15695" lon="-1.15009">
        <ele>3.3</ele>
        <time>2019-04-30T09:04:25Z</time>
      </trkpt>
      <trkpt lat="46.15697" lon="-1.15142">
        <ele>2.1</ele>
        <time>2019-04-30T09:05:12Z</time>
      </trkpt>
      <trkpt lat="46.15746" lon="-1.15103">
        <ele>3.4</ele>
        <time>2019-04-30T09:05:55Z</time>
      </trkpt>
      <trkpt lat="46.15765" lon="-1.1508">
        <ele>3.5</ele>
        <time>2019-04-30T09:06:19Z</time>
      </trkpt>
      <trkpt lat="46.15783" lon="-1.15072">
        <ele>3.5</ele>
        <time>2019-04-30T09:06:44Z</time>
      </trkpt>
      <trkpt lat="46.15781" lon="-1.15053">
        <ele>4</ele>
        <time>2019-04-30T09:07:00Z</time>
      </trkpt>
      <trkpt lat="46.15772" lon="-1.15038">
        <ele>4</ele>
        <time>2019-04-30T09:07:07Z</time>
      </trkpt>
      <trkpt lat="46.15636" lon="-1.14951">
        <ele>4</ele>
        <time>2019-04-30T09:08:07Z</time>
      </trkpt>
      <trkpt lat="46.15614" lon="-1.14942">
        <ele>4</ele>
        <time>2019-04-30T09:08:19Z</time>
      </trkpt>
      <trkpt lat="46.15583" lon="-1.14966">
        <ele>4</ele>
        <time>2019-04-30T09:08:37Z</time>
      </trkpt>
      <trkpt lat="46.15574" lon="-1.14955">
        <ele>4</ele>
        <time>2019-04-30T09:08:49Z</time>
      </trkpt>
      <trkpt lat="46.1552" lon="-1.14953">
        <ele>4.2</ele>
        <time>2019-04-30T09:09:14Z</time>
      </trkpt>
      <trkpt lat="46.15504" lon="-1.14995">
        <ele>4</ele>
        <time>2019-04-30T09:09:26Z</time>
      </trkpt>
      <trkpt lat="46.15493" lon="-1.15072">
        <ele>4</ele>
        <time>2019-04-30T09:09:50Z</time>
      </trkpt>
      <trkpt lat="46.15486" lon="-1.15228">
        <ele>4</ele>
        <time>2019-04-30T09:10:32Z</time>
      </trkpt>
      <trkpt lat="46.15491" lon="-1.15264">
        <ele>4</ele>
        <time>2019-04-30T09:10:50Z</time>
      </trkpt>
      <trkpt lat="46.15491" lon="-1.15012">
        <ele>4</ele>
        <time>2019-04-30T09:11:56Z</time>
      </trkpt>
      <trkpt lat="46.15505" lon="-1.14937">
        <ele>4.6</ele>
        <time>2019-04-30T09:12:20Z</time>
      </trkpt>
      <trkpt lat="46.15529" lon="-1.14878">
        <ele>4.4</ele>
        <time>2019-04-30T09:12:38Z</time>
      </trkpt>
      <trkpt lat="46.15397" lon="-1.14693">
        <ele>5</ele>
        <time>2019-04-30T09:13:44Z</time>
      </trkpt>
      <trkpt lat="46.15418" lon="-1.14668">
        <ele>5</ele>
        <time>2019-04-30T09:13:56Z</time>
      </trkpt>
      <trkpt lat="46.15443" lon="-1.14611">
        <ele>4</ele>
        <time>2019-04-30T09:14:14Z</time>
      </trkpt>
      <trkpt lat="46.1551" lon="-1.14516">
        <ele>4</ele>
        <time>2019-04-30T09:14:44Z</time>
      </trkpt>
      <trkpt lat="46.15545" lon="-1.1445">
        <ele>4</ele>
        <time>2019-04-30T09:15:02Z</time>
      </trkpt>
      <trkpt lat="46.15577" lon="-1.14412">
        <ele>1.9</ele>
        <time>2019-04-30T09:15:20Z</time>
      </trkpt>
      <trkpt lat="46.15612" lon="-1.14306">
        <ele>3.9</ele>
        <time>2019-04-30T09:15:50Z</time>
      </trkpt>
      <trkpt lat="46.15646" lon="-1.14285">
        <ele>2.4</ele>
        <time>2019-04-30T09:16:08Z</time>
      </trkpt>
      <trkpt lat="46.15672" lon="-1.14285">
        <ele>4.7</ele>
        <time>2019-04-30T09:16:20Z</time>
      </trkpt>
      <trkpt lat="46.15681" lon="-1.14275">
        <ele>4.5</ele>
        <time>2019-04-30T09:16:32Z</time>
      </trkpt>
      <trkpt lat="46.15684" lon="-1.14234">
        <ele>4</ele>
        <time>2019-04-30T09:16:44Z</time>
      </trkpt>
      <trkpt lat="46.15673" lon="-1.14169">
        <ele>4</ele>
        <time>2019-04-30T09:17:02Z</time>
      </trkpt>
      <trkpt lat="46.15673" lon="-1.14122">
        <ele>2.6</ele>
        <time>2019-04-30T09:17:14Z</time>
      </trkpt>
      <trkpt lat="46.15809" lon="-1.13639">
        <ele>2.1</ele>
        <time>2019-04-30T09:18:50Z</time>
      </trkpt>
      <trkpt lat="46.15871" lon="-1.13445">
        <ele>2</ele>
        <time>2019-04-30T09:19:26Z</time>
      </trkpt>
      <trkpt lat="46.15989" lon="-1.13004">
        <ele>2.2</ele>
        <time>2019-04-30T09:20:56Z</time>
      </trkpt>
      <trkpt lat="46.16018" lon="-1.12919">
        <ele>2.3</ele>
        <time>2019-04-30T09:21:14Z</time>
      </trkpt>
      <trkpt lat="46.16034" lon="-1.12846">
        <ele>2.3</ele>
        <time>2019-04-30T09:21:32Z</time>
      </trkpt>
      <trkpt lat="46.1615" lon="-1.12453">
        <ele>3</ele>
        <time>2019-04-30T09:22:56Z</time>
      </trkpt>
      <trkpt lat="46.16166" lon="-1.12353">
        <ele>3.7</ele>
        <time>2019-04-30T09:23:30Z</time>
      </trkpt>
      <trkpt lat="46.16155" lon="-1.1232">
        <ele>3.9</ele>
        <time>2019-04-30T09:23:42Z</time>
      </trkpt>
      <trkpt lat="46.1616" lon="-1.12289">
        <ele>4.5</ele>
        <time>2019-04-30T09:23:54Z</time>
      </trkpt>
      <trkpt lat="46.16172" lon="-1.1224">
        <ele>5.9</ele>
        <time>2019-04-30T09:24:06Z</time>
      </trkpt>
      <trkpt lat="46.1619" lon="-1.12198">
        <ele>3.1</ele>
        <time>2019-04-30T09:24:18Z</time>
      </trkpt>
      <trkpt lat="46.16209" lon="-1.12105">
        <ele>5.1</ele>
        <time>2019-04-30T09:24:36Z</time>
      </trkpt>
      <trkpt lat="46.16294" lon="-1.11819">
        <ele>4.3</ele>
        <time>2019-04-30T09:25:36Z</time>
      </trkpt>
      <trkpt lat="46.16341" lon="-1.11642">
        <ele>6.6</ele>
        <time>2019-04-30T09:26:17Z</time>
      </trkpt>
      <trkpt lat="46.1637" lon="-1.11631">
        <ele>2.2</ele>
        <time>2019-04-30T09:26:29Z</time>
      </trkpt>
      <trkpt lat="46.16395" lon="-1.11595">
        <ele>4.3</ele>
        <time>2019-04-30T09:26:41Z</time>
      </trkpt>
      <trkpt lat="46.16427" lon="-1.11493">
        <ele>3.2</ele>
        <time>2019-04-30T09:27:11Z</time>
      </trkpt>
      <trkpt lat="46.16427" lon="-1.11491">
        <ele>3.2</ele>
        <time>2019-04-30T09:27:20Z</time>
      </trkpt>
      <trkpt lat="46.1643" lon="-1.11478">
        <ele>3.1</ele>
        <time>2019-04-30T09:27:21Z</time>
      </trkpt>
      <trkpt lat="46.16434" lon="-1.11482">
        <ele>3.4</ele>
        <time>2019-04-30T09:27:32Z</time>
      </trkpt>
      <trkpt lat="46.16443" lon="-1.11469">
        <ele>3.9</ele>
        <time>2019-04-30T09:27:34Z</time>
      </trkpt>
      <trkpt lat="46.1645" lon="-1.11441">
        <ele>4</ele>
        <time>2019-04-30T09:27:52Z</time>
      </trkpt>
      <trkpt lat="46.16502" lon="-1.1133">
        <ele>5.7</ele>
        <time>2019-04-30T09:28:28Z</time>
      </trkpt>
      <trkpt lat="46.16562" lon="-1.11222">
        <ele>6</ele>
        <time>2019-04-30T09:28:58Z</time>
      </trkpt>
      <trkpt lat="46.16617" lon="-1.11106">
        <ele>4.6</ele>
        <time>2019-04-30T09:29:22Z</time>
      </trkpt>
      <trkpt lat="46.16663" lon="-1.11029">
        <ele>6.3</ele>
        <time>2019-04-30T09:29:46Z</time>
      </trkpt>
      <trkpt lat="46.16696" lon="-1.1094">
        <ele>4.7</ele>
        <time>2019-04-30T09:30:10Z</time>
      </trkpt>
      <trkpt lat="46.16714" lon="-1.10913">
        <ele>6.4</ele>
        <time>2019-04-30T09:30:22Z</time>
      </trkpt>
      <trkpt lat="46.16715" lon="-1.10901">
        <ele>7</ele>
        <time>2019-04-30T09:30:34Z</time>
      </trkpt>
      <trkpt lat="46.16738" lon="-1.10857">
        <ele>5.9</ele>
        <time>2019-04-30T09:30:58Z</time>
      </trkpt>
      <trkpt lat="46.16736" lon="-1.10865">
        <ele>5.8</ele>
        <time>2019-04-30T09:31:04Z</time>
      </trkpt>
      <trkpt lat="46.16741" lon="-1.10861">
        <ele>6.7</ele>
        <time>2019-04-30T09:31:16Z</time>
      </trkpt>
      <trkpt lat="46.16883" lon="-1.1059">
        <ele>7.8</ele>
        <time>2019-04-30T09:32:40Z</time>
      </trkpt>
      <trkpt lat="46.1691" lon="-1.10524">
        <ele>7.8</ele>
        <time>2019-04-30T09:32:58Z</time>
      </trkpt>
      <trkpt lat="46.16936" lon="-1.10441">
        <ele>6.8</ele>
        <time>2019-04-30T09:33:22Z</time>
      </trkpt>
      <trkpt lat="46.16954" lon="-1.10345">
        <ele>5.9</ele>
        <time>2019-04-30T09:33:46Z</time>
      </trkpt>
      <trkpt lat="46.16964" lon="-1.10261">
        <ele>8.3</ele>
        <time>2019-04-30T09:34:04Z</time>
      </trkpt>
      <trkpt lat="46.16957" lon="-1.10129">
        <ele>7.4</ele>
        <time>2019-04-30T09:35:00Z</time>
      </trkpt>
      <trkpt lat="46.16909" lon="-1.09811">
        <ele>10</ele>
        <time>2019-04-30T09:36:18Z</time>
      </trkpt>
      <trkpt lat="46.1687" lon="-1.09601">
        <ele>9.6</ele>
        <time>2019-04-30T09:37:06Z</time>
      </trkpt>
      <trkpt lat="46.16858" lon="-1.09555">
        <ele>10.1</ele>
        <time>2019-04-30T09:37:18Z</time>
      </trkpt>
      <trkpt lat="46.16803" lon="-1.09211">
        <ele>12.2</ele>
        <time>2019-04-30T09:38:42Z</time>
      </trkpt>
      <trkpt lat="46.16795" lon="-1.09182">
        <ele>9.8</ele>
        <time>2019-04-30T09:38:56Z</time>
      </trkpt>
      <trkpt lat="46.16791" lon="-1.09109">
        <ele>8.2</ele>
        <time>2019-04-30T09:39:14Z</time>
      </trkpt>
      <trkpt lat="46.16828" lon="-1.08925">
        <ele>13.2</ele>
        <time>2019-04-30T09:39:56Z</time>
      </trkpt>
      <trkpt lat="46.16831" lon="-1.08849">
        <ele>13.7</ele>
        <time>2019-04-30T09:40:14Z</time>
      </trkpt>
      <trkpt lat="46.16872" lon="-1.08579">
        <ele>10.8</ele>
        <time>2019-04-30T09:41:14Z</time>
      </trkpt>
      <trkpt lat="46.17006" lon="-1.07756">
        <ele>17.1</ele>
        <time>2019-04-30T09:44:02Z</time>
      </trkpt>
      <trkpt lat="46.17026" lon="-1.07708">
        <ele>20.3</ele>
        <time>2019-04-30T09:44:14Z</time>
      </trkpt>
      <trkpt lat="46.17065" lon="-1.07648">
        <ele>22.4</ele>
        <time>2019-04-30T09:44:38Z</time>
      </trkpt>
      <trkpt lat="46.17048" lon="-1.07664">
        <ele>18.3</ele>
        <time>2019-04-30T09:44:56Z</time>
      </trkpt>
      <trkpt lat="46.17331" lon="-1.07205">
        <ele>25.3</ele>
        <time>2019-04-30T09:47:27Z</time>
      </trkpt>
      <trkpt lat="46.17383" lon="-1.07088">
        <ele>29.8</ele>
        <time>2019-04-30T09:48:03Z</time>
      </trkpt>
      <trkpt lat="46.17411" lon="-1.07045">
        <ele>30.8</ele>
        <time>2019-04-30T09:48:21Z</time>
      </trkpt>
      <trkpt lat="46.17422" lon="-1.07029">
        <ele>31</ele>
        <time>2019-04-30T09:48:27Z</time>
      </trkpt>
      <trkpt lat="46.17483" lon="-1.07003">
        <ele>32</ele>
        <time>2019-04-30T09:48:51Z</time>
      </trkpt>
      <trkpt lat="46.1753" lon="-1.07024">
        <ele>33</ele>
        <time>2019-04-30T09:49:21Z</time>
      </trkpt>
      <trkpt lat="46.17544" lon="-1.07023">
        <ele>33</ele>
        <time>2019-04-30T09:49:29Z</time>
      </trkpt>
      <trkpt lat="46.17586" lon="-1.06971">
        <ele>33</ele>
        <time>2019-04-30T09:49:53Z</time>
      </trkpt>
      <trkpt lat="46.18212" lon="-1.05855">
        <ele>20.6</ele>
        <time>2019-04-30T09:53:17Z</time>
      </trkpt>
      <trkpt lat="46.18295" lon="-1.0578">
        <ele>19</ele>
        <time>2019-04-30T09:53:41Z</time>
      </trkpt>
      <trkpt lat="46.1831" lon="-1.05756">
        <ele>17.3</ele>
        <time>2019-04-30T09:53:53Z</time>
      </trkpt>
      <trkpt lat="46.183" lon="-1.05768">
        <ele>18.2</ele>
        <time>2019-04-30T09:54:09Z</time>
      </trkpt>
      <trkpt lat="46.18319" lon="-1.05757">
        <ele>17.6</ele>
        <time>2019-04-30T09:54:34Z</time>
      </trkpt>
      <trkpt lat="46.18349" lon="-1.05729">
        <ele>18.2</ele>
        <time>2019-04-30T09:54:47Z</time>
      </trkpt>
      <trkpt lat="46.18622" lon="-1.05455">
        <ele>18</ele>
        <time>2019-04-30T09:56:17Z</time>
      </trkpt>
      <trkpt lat="46.18678" lon="-1.05415">
        <ele>15.4</ele>
        <time>2019-04-30T09:56:29Z</time>
      </trkpt>
      <trkpt lat="46.18733" lon="-1.054">
        <ele>15.6</ele>
        <time>2019-04-30T09:56:41Z</time>
      </trkpt>
      <trkpt lat="46.18839" lon="-1.05413">
        <ele>15.6</ele>
        <time>2019-04-30T09:57:05Z</time>
      </trkpt>
      <trkpt lat="46.19363" lon="-1.05524">
        <ele>13.7</ele>
        <time>2019-04-30T09:58:59Z</time>
      </trkpt>
      <trkpt lat="46.19411" lon="-1.05529">
        <ele>13</ele>
        <time>2019-04-30T09:59:11Z</time>
      </trkpt>
      <trkpt lat="46.19481" lon="-1.0552">
        <ele>14.1</ele>
        <time>2019-04-30T09:59:39Z</time>
      </trkpt>
      <trkpt lat="46.19475" lon="-1.05516">
        <ele>14.7</ele>
        <time>2019-04-30T09:59:49Z</time>
      </trkpt>
      <trkpt lat="46.19476" lon="-1.05524">
        <ele>14.1</ele>
        <time>2019-04-30T10:00:01Z</time>
      </trkpt>
      <trkpt lat="46.19459" lon="-1.05551">
        <ele>14.4</ele>
        <time>2019-04-30T10:00:19Z</time>
      </trkpt>
      <trkpt lat="46.19342" lon="-1.05694">
        <ele>18</ele>
        <time>2019-04-30T10:01:31Z</time>
      </trkpt>
      <trkpt lat="46.19336" lon="-1.05719">
        <ele>18</ele>
        <time>2019-04-30T10:01:47Z</time>
      </trkpt>
      <trkpt lat="46.19308" lon="-1.0576">
        <ele>19</ele>
        <time>2019-04-30T10:01:59Z</time>
      </trkpt>
      <trkpt lat="46.19177" lon="-1.05915">
        <ele>21.6</ele>
        <time>2019-04-30T10:02:53Z</time>
      </trkpt>
      <trkpt lat="46.18897" lon="-1.06267">
        <ele>24.7</ele>
        <time>2019-04-30T10:04:41Z</time>
      </trkpt>
      <trkpt lat="46.18886" lon="-1.06283">
        <ele>25</ele>
        <time>2019-04-30T10:04:47Z</time>
      </trkpt>
      <trkpt lat="46.18878" lon="-1.06338">
        <ele>26.1</ele>
        <time>2019-04-30T10:05:17Z</time>
      </trkpt>
      <trkpt lat="46.18854" lon="-1.06339">
        <ele>26.2</ele>
        <time>2019-04-30T10:05:29Z</time>
      </trkpt>
      <trkpt lat="46.18835" lon="-1.06363">
        <ele>27</ele>
        <time>2019-04-30T10:05:41Z</time>
      </trkpt>
      <trkpt lat="46.18829" lon="-1.06384">
        <ele>27</ele>
        <time>2019-04-30T10:05:47Z</time>
      </trkpt>
      <trkpt lat="46.18841" lon="-1.06464">
        <ele>27.7</ele>
        <time>2019-04-30T10:06:11Z</time>
      </trkpt>
      <trkpt lat="46.1883" lon="-1.06553">
        <ele>27.2</ele>
        <time>2019-04-30T10:06:41Z</time>
      </trkpt>
      <trkpt lat="46.18834" lon="-1.06637">
        <ele>27</ele>
        <time>2019-04-30T10:06:59Z</time>
      </trkpt>
      <trkpt lat="46.18829" lon="-1.0669">
        <ele>26.2</ele>
        <time>2019-04-30T10:07:11Z</time>
      </trkpt>
      <trkpt lat="46.18839" lon="-1.06688">
        <ele>26.4</ele>
        <time>2019-04-30T10:07:23Z</time>
      </trkpt>
      <trkpt lat="46.18848" lon="-1.067">
        <ele>26.4</ele>
        <time>2019-04-30T10:07:41Z</time>
      </trkpt>
      <trkpt lat="46.18861" lon="-1.06699">
        <ele>26.8</ele>
        <time>2019-04-30T10:07:48Z</time>
      </trkpt>
      <trkpt lat="46.18853" lon="-1.06686">
        <ele>26.8</ele>
        <time>2019-04-30T10:07:52Z</time>
      </trkpt>
      <trkpt lat="46.18839" lon="-1.06687">
        <ele>26.4</ele>
        <time>2019-04-30T10:08:00Z</time>
      </trkpt>
      <trkpt lat="46.18842" lon="-1.06689">
        <ele>26.4</ele>
        <time>2019-04-30T10:08:04Z</time>
      </trkpt>
      <trkpt lat="46.18847" lon="-1.06643">
        <ele>27</ele>
        <time>2019-04-30T10:08:18Z</time>
      </trkpt>
      <trkpt lat="46.18875" lon="-1.06599">
        <ele>27</ele>
        <time>2019-04-30T10:08:36Z</time>
      </trkpt>
      <trkpt lat="46.18933" lon="-1.06426">
        <ele>26</ele>
        <time>2019-04-30T10:09:18Z</time>
      </trkpt>
      <trkpt lat="46.18927" lon="-1.06402">
        <ele>26</ele>
        <time>2019-04-30T10:09:24Z</time>
      </trkpt>
      <trkpt lat="46.1889" lon="-1.06339">
        <ele>26</ele>
        <time>2019-04-30T10:09:48Z</time>
      </trkpt>
      <trkpt lat="46.18883" lon="-1.06288">
        <ele>25</ele>
        <time>2019-04-30T10:10:10Z</time>
      </trkpt>
      <trkpt lat="46.18882" lon="-1.06321">
        <ele>25.6</ele>
        <time>2019-04-30T10:10:22Z</time>
      </trkpt>
      <trkpt lat="46.18891" lon="-1.06355">
        <ele>26</ele>
        <time>2019-04-30T10:10:34Z</time>
      </trkpt>
      <trkpt lat="46.18936" lon="-1.06407">
        <ele>26</ele>
        <time>2019-04-30T10:10:58Z</time>
      </trkpt>
      <trkpt lat="46.18983" lon="-1.06415">
        <ele>26</ele>
        <time>2019-04-30T10:11:16Z</time>
      </trkpt>
      <trkpt lat="46.19041" lon="-1.06401">
        <ele>25.7</ele>
        <time>2019-04-30T10:11:34Z</time>
      </trkpt>
      <trkpt lat="46.1908" lon="-1.06386">
        <ele>25</ele>
        <time>2019-04-30T10:11:46Z</time>
      </trkpt>
      <trkpt lat="46.19197" lon="-1.06312">
        <ele>25</ele>
        <time>2019-04-30T10:12:34Z</time>
      </trkpt>
      <trkpt lat="46.19389" lon="-1.06182">
        <ele>23</ele>
        <time>2019-04-30T10:13:40Z</time>
      </trkpt>
      <trkpt lat="46.19419" lon="-1.06166">
        <ele>23</ele>
        <time>2019-04-30T10:13:52Z</time>
      </trkpt>
      <trkpt lat="46.19428" lon="-1.0617">
        <ele>22.9</ele>
        <time>2019-04-30T10:14:06Z</time>
      </trkpt>
      <trkpt lat="46.19425" lon="-1.06142">
        <ele>23</ele>
        <time>2019-04-30T10:14:24Z</time>
      </trkpt>
      <trkpt lat="46.19433" lon="-1.0616">
        <ele>23</ele>
        <time>2019-04-30T10:14:48Z</time>
      </trkpt>
      <trkpt lat="46.19607" lon="-1.06062">
        <ele>18.8</ele>
        <time>2019-04-30T10:15:48Z</time>
      </trkpt>
      <trkpt lat="46.19729" lon="-1.0601">
        <ele>14.5</ele>
        <time>2019-04-30T10:16:06Z</time>
      </trkpt>
      <trkpt lat="46.19806" lon="-1.05967">
        <ele>13</ele>
        <time>2019-04-30T10:16:18Z</time>
      </trkpt>
      <trkpt lat="46.19894" lon="-1.05883">
        <ele>12.8</ele>
        <time>2019-04-30T10:16:36Z</time>
      </trkpt>
      <trkpt lat="46.19915" lon="-1.05849">
        <ele>12.5</ele>
        <time>2019-04-30T10:16:42Z</time>
      </trkpt>
      <trkpt lat="46.19963" lon="-1.05725">
        <ele>13.3</ele>
        <time>2019-04-30T10:17:06Z</time>
      </trkpt>
      <trkpt lat="46.20003" lon="-1.05668">
        <ele>15.1</ele>
        <time>2019-04-30T10:17:24Z</time>
      </trkpt>
      <trkpt lat="46.20198" lon="-1.05572">
        <ele>12.9</ele>
        <time>2019-04-30T10:18:18Z</time>
      </trkpt>
      <trkpt lat="46.20265" lon="-1.05518">
        <ele>10.3</ele>
        <time>2019-04-30T10:18:30Z</time>
      </trkpt>
      <trkpt lat="46.20364" lon="-1.05457">
        <ele>9</ele>
        <time>2019-04-30T10:18:48Z</time>
      </trkpt>
      <trkpt lat="46.20443" lon="-1.05394">
        <ele>9</ele>
        <time>2019-04-30T10:19:06Z</time>
      </trkpt>
      <trkpt lat="46.20446" lon="-1.05339">
        <ele>8.1</ele>
        <time>2019-04-30T10:19:18Z</time>
      </trkpt>
      <trkpt lat="46.20436" lon="-1.05274">
        <ele>8</ele>
        <time>2019-04-30T10:19:30Z</time>
      </trkpt>
      <trkpt lat="46.20457" lon="-1.05207">
        <ele>7.7</ele>
        <time>2019-04-30T10:19:42Z</time>
      </trkpt>
      <trkpt lat="46.20477" lon="-1.05176">
        <ele>7.3</ele>
        <time>2019-04-30T10:19:48Z</time>
      </trkpt>
      <trkpt lat="46.20581" lon="-1.05068">
        <ele>7.9</ele>
        <time>2019-04-30T10:20:18Z</time>
      </trkpt>
      <trkpt lat="46.20674" lon="-1.04991">
        <ele>7.7</ele>
        <time>2019-04-30T10:20:48Z</time>
      </trkpt>
      <trkpt lat="46.20702" lon="-1.04927">
        <ele>7.7</ele>
        <time>2019-04-30T10:21:00Z</time>
      </trkpt>
      <trkpt lat="46.2073" lon="-1.04889">
        <ele>7</ele>
        <time>2019-04-30T10:21:12Z</time>
      </trkpt>
      <trkpt lat="46.20826" lon="-1.04808">
        <ele>6.3</ele>
        <time>2019-04-30T10:21:48Z</time>
      </trkpt>
      <trkpt lat="46.20933" lon="-1.04739">
        <ele>5.7</ele>
        <time>2019-04-30T10:22:18Z</time>
      </trkpt>
      <trkpt lat="46.21014" lon="-1.04671">
        <ele>5.1</ele>
        <time>2019-04-30T10:22:42Z</time>
      </trkpt>
      <trkpt lat="46.21164" lon="-1.04572">
        <ele>3.9</ele>
        <time>2019-04-30T10:23:24Z</time>
      </trkpt>
      <trkpt lat="46.21291" lon="-1.04551">
        <ele>4.1</ele>
        <time>2019-04-30T10:23:48Z</time>
      </trkpt>
      <trkpt lat="46.21354" lon="-1.04556">
        <ele>4</ele>
        <time>2019-04-30T10:24:00Z</time>
      </trkpt>
      <trkpt lat="46.21403" lon="-1.04569">
        <ele>3.2</ele>
        <time>2019-04-30T10:24:12Z</time>
      </trkpt>
      <trkpt lat="46.22358" lon="-1.04965">
        <ele>2.8</ele>
        <time>2019-04-30T10:28:00Z</time>
      </trkpt>
      <trkpt lat="46.22729" lon="-1.05111">
        <ele>3</ele>
        <time>2019-04-30T10:29:30Z</time>
      </trkpt>
      <trkpt lat="46.22836" lon="-1.05161">
        <ele>2.8</ele>
        <time>2019-04-30T10:30:00Z</time>
      </trkpt>
      <trkpt lat="46.22908" lon="-1.05179">
        <ele>3</ele>
        <time>2019-04-30T10:30:18Z</time>
      </trkpt>
      <trkpt lat="46.22956" lon="-1.05179">
        <ele>3</ele>
        <time>2019-04-30T10:30:30Z</time>
      </trkpt>
      <trkpt lat="46.23028" lon="-1.05161">
        <ele>2.8</ele>
        <time>2019-04-30T10:30:48Z</time>
      </trkpt>
      <trkpt lat="46.23688" lon="-1.04913">
        <ele>2.9</ele>
        <time>2019-04-30T10:33:30Z</time>
      </trkpt>
      <trkpt lat="46.24092" lon="-1.04771">
        <ele>2.8</ele>
        <time>2019-04-30T10:35:12Z</time>
      </trkpt>
      <trkpt lat="46.24395" lon="-1.04652">
        <ele>2.5</ele>
        <time>2019-04-30T10:36:30Z</time>
      </trkpt>
      <trkpt lat="46.24675" lon="-1.04553">
        <ele>2.9</ele>
        <time>2019-04-30T10:37:42Z</time>
      </trkpt>
      <trkpt lat="46.24715" lon="-1.04531">
        <ele>2.9</ele>
        <time>2019-04-30T10:37:54Z</time>
      </trkpt>
      <trkpt lat="46.24779" lon="-1.04513">
        <ele>3.1</ele>
        <time>2019-04-30T10:38:12Z</time>
      </trkpt>
      <trkpt lat="46.24794" lon="-1.04503">
        <ele>4.1</ele>
        <time>2019-04-30T10:38:18Z</time>
      </trkpt>
      <trkpt lat="46.24804" lon="-1.04474">
        <ele>5.7</ele>
        <time>2019-04-30T10:38:30Z</time>
      </trkpt>
      <trkpt lat="46.24817" lon="-1.04471">
        <ele>4.8</ele>
        <time>2019-04-30T10:38:36Z</time>
      </trkpt>
      <trkpt lat="46.24841" lon="-1.04485">
        <ele>3.3</ele>
        <time>2019-04-30T10:38:48Z</time>
      </trkpt>
      <trkpt lat="46.25029" lon="-1.04424">
        <ele>3.7</ele>
        <time>2019-04-30T10:40:12Z</time>
      </trkpt>
      <trkpt lat="46.25881" lon="-1.04108">
        <ele>3.2</ele>
        <time>2019-04-30T10:44:00Z</time>
      </trkpt>
      <trkpt lat="46.26107" lon="-1.04018">
        <ele>3.3</ele>
        <time>2019-04-30T10:44:54Z</time>
      </trkpt>
      <trkpt lat="46.26597" lon="-1.0384">
        <ele>2.9</ele>
        <time>2019-04-30T10:46:54Z</time>
      </trkpt>
      <trkpt lat="46.26668" lon="-1.03803">
        <ele>2.1</ele>
        <time>2019-04-30T10:47:18Z</time>
      </trkpt>
      <trkpt lat="46.26699" lon="-1.03803">
        <ele>3.7</ele>
        <time>2019-04-30T10:47:30Z</time>
      </trkpt>
      <trkpt lat="46.27176" lon="-1.0362">
        <ele>2.3</ele>
        <time>2019-04-30T10:49:48Z</time>
      </trkpt>
      <trkpt lat="46.2797" lon="-1.03328">
        <ele>2.8</ele>
        <time>2019-04-30T10:53:06Z</time>
      </trkpt>
      <trkpt lat="46.28435" lon="-1.03146">
        <ele>2.3</ele>
        <time>2019-04-30T10:55:06Z</time>
      </trkpt>
      <trkpt lat="46.28778" lon="-1.0302">
        <ele>2.7</ele>
        <time>2019-04-30T10:56:54Z</time>
      </trkpt>
      <trkpt lat="46.28835" lon="-1.03002">
        <ele>2.9</ele>
        <time>2019-04-30T10:57:24Z</time>
      </trkpt>
      <trkpt lat="46.28868" lon="-1.03">
        <ele>2.8</ele>
        <time>2019-04-30T10:57:36Z</time>
      </trkpt>
      <trkpt lat="46.28963" lon="-1.02968">
        <ele>2.3</ele>
        <time>2019-04-30T10:58:06Z</time>
      </trkpt>
      <trkpt lat="46.2894" lon="-1.02974">
        <ele>2.9</ele>
        <time>2019-04-30T10:58:24Z</time>
      </trkpt>
      <trkpt lat="46.28933" lon="-1.02971">
        <ele>3</ele>
        <time>2019-04-30T10:58:30Z</time>
      </trkpt>
      <trkpt lat="46.28942" lon="-1.02965">
        <ele>2.7</ele>
        <time>2019-04-30T10:58:42Z</time>
      </trkpt>
      <trkpt lat="46.29039" lon="-1.02937">
        <ele>2</ele>
        <time>2019-04-30T10:59:18Z</time>
      </trkpt>
      <trkpt lat="46.29414" lon="-1.02801">
        <ele>2</ele>
        <time>2019-04-30T11:01:06Z</time>
      </trkpt>
      <trkpt lat="46.29534" lon="-1.0275">
        <ele>1.8</ele>
        <time>2019-04-30T11:01:42Z</time>
      </trkpt>
      <trkpt lat="46.29582" lon="-1.02737">
        <ele>2</ele>
        <time>2019-04-30T11:01:54Z</time>
      </trkpt>
      <trkpt lat="46.29865" lon="-1.02629">
        <ele>2</ele>
        <time>2019-04-30T11:03:18Z</time>
      </trkpt>
      <trkpt lat="46.29884" lon="-1.02618">
        <ele>2.6</ele>
        <time>2019-04-30T11:03:24Z</time>
      </trkpt>
      <trkpt lat="46.29911" lon="-1.02584">
        <ele>2</ele>
        <time>2019-04-30T11:03:42Z</time>
      </trkpt>
      <trkpt lat="46.29925" lon="-1.02581">
        <ele>2.1</ele>
        <time>2019-04-30T11:03:56Z</time>
      </trkpt>
      <trkpt lat="46.29936" lon="-1.02597">
        <ele>2</ele>
        <time>2019-04-30T11:04:12Z</time>
      </trkpt>
      <trkpt lat="46.29948" lon="-1.02596">
        <ele>2.1</ele>
        <time>2019-04-30T11:04:28Z</time>
      </trkpt>
      <trkpt lat="46.30038" lon="-1.02562">
        <ele>2.3</ele>
        <time>2019-04-30T11:05:04Z</time>
      </trkpt>
      <trkpt lat="46.30096" lon="-1.02519">
        <ele>2.1</ele>
        <time>2019-04-30T11:05:34Z</time>
      </trkpt>
      <trkpt lat="46.30127" lon="-1.0253">
        <ele>3</ele>
        <time>2019-04-30T11:05:46Z</time>
      </trkpt>
      <trkpt lat="46.3019" lon="-1.02507">
        <ele>2.6</ele>
        <time>2019-04-30T11:06:04Z</time>
      </trkpt>
      <trkpt lat="46.30209" lon="-1.02499">
        <ele>4</ele>
        <time>2019-04-30T11:06:10Z</time>
      </trkpt>
      <trkpt lat="46.30224" lon="-1.02466">
        <ele>5.8</ele>
        <time>2019-04-30T11:06:22Z</time>
      </trkpt>
      <trkpt lat="46.30244" lon="-1.02473">
        <ele>3.6</ele>
        <time>2019-04-30T11:06:28Z</time>
      </trkpt>
      <trkpt lat="46.30347" lon="-1.0245">
        <ele>2.5</ele>
        <time>2019-04-30T11:06:52Z</time>
      </trkpt>
      <trkpt lat="46.30532" lon="-1.02383">
        <ele>2.1</ele>
        <time>2019-04-30T11:07:34Z</time>
      </trkpt>
      <trkpt lat="46.30713" lon="-1.02307">
        <ele>2.4</ele>
        <time>2019-04-30T11:08:16Z</time>
      </trkpt>
      <trkpt lat="46.3081" lon="-1.02228">
        <ele>2.7</ele>
        <time>2019-04-30T11:08:40Z</time>
      </trkpt>
      <trkpt lat="46.30891" lon="-1.02112">
        <ele>3</ele>
        <time>2019-04-30T11:09:10Z</time>
      </trkpt>
      <trkpt lat="46.30959" lon="-1.01965">
        <ele>2.1</ele>
        <time>2019-04-30T11:09:40Z</time>
      </trkpt>
      <trkpt lat="46.3099" lon="-1.01876">
        <ele>2.6</ele>
        <time>2019-04-30T11:09:58Z</time>
      </trkpt>
      <trkpt lat="46.31102" lon="-1.01483">
        <ele>2.5</ele>
        <time>2019-04-30T11:11:10Z</time>
      </trkpt>
      <trkpt lat="46.31126" lon="-1.0142">
        <ele>2</ele>
        <time>2019-04-30T11:11:22Z</time>
      </trkpt>
      <trkpt lat="46.31173" lon="-1.01246">
        <ele>1.9</ele>
        <time>2019-04-30T11:11:52Z</time>
      </trkpt>
      <trkpt lat="46.31257" lon="-1.0098">
        <ele>2.2</ele>
        <time>2019-04-30T11:12:40Z</time>
      </trkpt>
      <trkpt lat="46.31275" lon="-1.009">
        <ele>3</ele>
        <time>2019-04-30T11:13:01Z</time>
      </trkpt>
      <trkpt lat="46.31284" lon="-1.00898">
        <ele>2.9</ele>
        <time>2019-04-30T11:13:06Z</time>
      </trkpt>
      <trkpt lat="46.31407" lon="-1.0047">
        <ele>2.4</ele>
        <time>2019-04-30T11:14:30Z</time>
      </trkpt>
      <trkpt lat="46.31418" lon="-1.00439">
        <ele>3.9</ele>
        <time>2019-04-30T11:14:36Z</time>
      </trkpt>
      <trkpt lat="46.31428" lon="-1.00435">
        <ele>3.5</ele>
        <time>2019-04-30T11:14:56Z</time>
      </trkpt>
      <trkpt lat="46.3141" lon="-1.00424">
        <ele>4</ele>
        <time>2019-04-30T11:15:05Z</time>
      </trkpt>
      <trkpt lat="46.31394" lon="-1.0039">
        <ele>3.6</ele>
        <time>2019-04-30T11:15:17Z</time>
      </trkpt>
      <trkpt lat="46.31395" lon="-1.00315">
        <ele>3.3</ele>
        <time>2019-04-30T11:15:35Z</time>
      </trkpt>
      <trkpt lat="46.3132" lon="-1.0009">
        <ele>3.1</ele>
        <time>2019-04-30T11:16:29Z</time>
      </trkpt>
      <trkpt lat="46.31307" lon="-1.00033">
        <ele>3.7</ele>
        <time>2019-04-30T11:16:41Z</time>
      </trkpt>
      <trkpt lat="46.31294" lon="-1.00008">
        <ele>3.6</ele>
        <time>2019-04-30T11:16:47Z</time>
      </trkpt>
      <trkpt lat="46.31239" lon="-0.99941">
        <ele>3.6</ele>
        <time>2019-04-30T11:17:05Z</time>
      </trkpt>
      <trkpt lat="46.31216" lon="-0.99889">
        <ele>4</ele>
        <time>2019-04-30T11:17:17Z</time>
      </trkpt>
      <trkpt lat="46.31206" lon="-0.99832">
        <ele>4</ele>
        <time>2019-04-30T11:17:29Z</time>
      </trkpt>
      <trkpt lat="46.31208" lon="-0.99796">
        <ele>4</ele>
        <time>2019-04-30T11:17:41Z</time>
      </trkpt>
      <trkpt lat="46.31252" lon="-0.99688">
        <ele>4</ele>
        <time>2019-04-30T11:18:11Z</time>
      </trkpt>
      <trkpt lat="46.31266" lon="-0.9964">
        <ele>2.9</ele>
        <time>2019-04-30T11:18:23Z</time>
      </trkpt>
      <trkpt lat="46.31162" lon="-0.99502">
        <ele>4</ele>
        <time>2019-04-30T11:19:06Z</time>
      </trkpt>
      <trkpt lat="46.31124" lon="-0.9943">
        <ele>3.5</ele>
        <time>2019-04-30T11:19:36Z</time>
      </trkpt>
      <trkpt lat="46.31138" lon="-0.99399">
        <ele>3.3</ele>
        <time>2019-04-30T11:20:04Z</time>
      </trkpt>
      <trkpt lat="46.31126" lon="-0.99234">
        <ele>2.9</ele>
        <time>2019-04-30T11:21:22Z</time>
      </trkpt>
      <trkpt lat="46.31115" lon="-0.99178">
        <ele>5.2</ele>
        <time>2019-04-30T11:22:06Z</time>
      </trkpt>
      <trkpt lat="46.31121" lon="-0.99107">
        <ele>3.3</ele>
        <time>2019-04-30T11:23:35Z</time>
      </trkpt>
      <trkpt lat="46.31134" lon="-0.99369">
        <ele>3.4</ele>
        <time>2019-04-30T11:25:27Z</time>
      </trkpt>
      <trkpt lat="46.31147" lon="-0.9941">
        <ele>2.7</ele>
        <time>2019-04-30T11:25:38Z</time>
      </trkpt>
      <trkpt lat="46.31241" lon="-0.99611">
        <ele>4</ele>
        <time>2019-04-30T11:26:26Z</time>
      </trkpt>
      <trkpt lat="46.3126" lon="-0.99732">
        <ele>4</ele>
        <time>2019-04-30T11:26:50Z</time>
      </trkpt>
      <trkpt lat="46.31273" lon="-0.99876">
        <ele>4</ele>
        <time>2019-04-30T11:27:26Z</time>
      </trkpt>
      <trkpt lat="46.31291" lon="-0.99957">
        <ele>3.5</ele>
        <time>2019-04-30T11:27:50Z</time>
      </trkpt>
      <trkpt lat="46.31362" lon="-1.00198">
        <ele>3.9</ele>
        <time>2019-04-30T11:28:50Z</time>
      </trkpt>
      <trkpt lat="46.31386" lon="-1.00315">
        <ele>3.6</ele>
        <time>2019-04-30T11:29:14Z</time>
      </trkpt>
      <trkpt lat="46.31439" lon="-1.00462">
        <ele>3.1</ele>
        <time>2019-04-30T11:29:50Z</time>
      </trkpt>
      <trkpt lat="46.31452" lon="-1.0051">
        <ele>3</ele>
        <time>2019-04-30T11:30:02Z</time>
      </trkpt>
      <trkpt lat="46.31468" lon="-1.00618">
        <ele>3.2</ele>
        <time>2019-04-30T11:30:27Z</time>
      </trkpt>
      <trkpt lat="46.3147" lon="-1.00676">
        <ele>3.1</ele>
        <time>2019-04-30T11:30:38Z</time>
      </trkpt>
      <trkpt lat="46.31462" lon="-1.00801">
        <ele>2.9</ele>
        <time>2019-04-30T11:31:02Z</time>
      </trkpt>
      <trkpt lat="46.31396" lon="-1.01183">
        <ele>3.5</ele>
        <time>2019-04-30T11:32:02Z</time>
      </trkpt>
      <trkpt lat="46.3139" lon="-1.01365">
        <ele>3</ele>
        <time>2019-04-30T11:32:32Z</time>
      </trkpt>
      <trkpt lat="46.31463" lon="-1.02555">
        <ele>2.7</ele>
        <time>2019-04-30T11:36:02Z</time>
      </trkpt>
      <trkpt lat="46.31456" lon="-1.0267">
        <ele>3.2</ele>
        <time>2019-04-30T11:36:26Z</time>
      </trkpt>
      <trkpt lat="46.31459" lon="-1.02743">
        <ele>3</ele>
        <time>2019-04-30T11:36:38Z</time>
      </trkpt>
      <trkpt lat="46.31484" lon="-1.02898">
        <ele>3.2</ele>
        <time>2019-04-30T11:37:02Z</time>
      </trkpt>
      <trkpt lat="46.31729" lon="-1.06873">
        <ele>3.5</ele>
        <time>2019-04-30T11:48:08Z</time>
      </trkpt>
      <trkpt lat="46.31731" lon="-1.0691">
        <ele>3.1</ele>
        <time>2019-04-30T11:48:14Z</time>
      </trkpt>
      <trkpt lat="46.31722" lon="-1.06979">
        <ele>3.2</ele>
        <time>2019-04-30T11:48:26Z</time>
      </trkpt>
      <trkpt lat="46.31732" lon="-1.07117">
        <ele>3.1</ele>
        <time>2019-04-30T11:48:50Z</time>
      </trkpt>
      <trkpt lat="46.3174" lon="-1.07147">
        <ele>3.6</ele>
        <time>2019-04-30T11:49:02Z</time>
      </trkpt>
      <trkpt lat="46.31802" lon="-1.07137">
        <ele>3.7</ele>
        <time>2019-04-30T11:49:26Z</time>
      </trkpt>
      <trkpt lat="46.31849" lon="-1.07149">
        <ele>4</ele>
        <time>2019-04-30T11:49:38Z</time>
      </trkpt>
      <trkpt lat="46.31866" lon="-1.07175">
        <ele>3.9</ele>
        <time>2019-04-30T11:49:44Z</time>
      </trkpt>
      <trkpt lat="46.31927" lon="-1.07325">
        <ele>4.1</ele>
        <time>2019-04-30T11:50:14Z</time>
      </trkpt>
      <trkpt lat="46.31937" lon="-1.07356">
        <ele>4</ele>
        <time>2019-04-30T11:50:20Z</time>
      </trkpt>
      <trkpt lat="46.31939" lon="-1.07401">
        <ele>4.3</ele>
        <time>2019-04-30T11:50:32Z</time>
      </trkpt>
      <trkpt lat="46.3193" lon="-1.07437">
        <ele>1.5</ele>
        <time>2019-04-30T11:50:55Z</time>
      </trkpt>
      <trkpt lat="46.31932" lon="-1.07454">
        <ele>1</ele>
        <time>2019-04-30T11:51:02Z</time>
      </trkpt>
      <trkpt lat="46.31908" lon="-1.07644">
        <ele>3.3</ele>
        <time>2019-04-30T11:51:44Z</time>
      </trkpt>
      <trkpt lat="46.31912" lon="-1.0774">
        <ele>3</ele>
        <time>2019-04-30T11:51:56Z</time>
      </trkpt>
      <trkpt lat="46.32078" lon="-1.0816">
        <ele>3</ele>
        <time>2019-04-30T11:53:02Z</time>
      </trkpt>
      <trkpt lat="46.32097" lon="-1.08191">
        <ele>3.9</ele>
        <time>2019-04-30T11:53:08Z</time>
      </trkpt>
      <trkpt lat="46.32139" lon="-1.08218">
        <ele>3.1</ele>
        <time>2019-04-30T11:53:20Z</time>
      </trkpt>
      <trkpt lat="46.32123" lon="-1.08216">
        <ele>3.2</ele>
        <time>2019-04-30T11:53:32Z</time>
      </trkpt>
      <trkpt lat="46.32121" lon="-1.08212">
        <ele>3.4</ele>
        <time>2019-04-30T11:53:50Z</time>
      </trkpt>
      <trkpt lat="46.32108" lon="-1.08222">
        <ele>3</ele>
        <time>2019-04-30T11:54:02Z</time>
      </trkpt>
      <trkpt lat="46.31838" lon="-1.0825">
        <ele>2.8</ele>
        <time>2019-04-30T11:55:14Z</time>
      </trkpt>
      <trkpt lat="46.31795" lon="-1.08249">
        <ele>3.4</ele>
        <time>2019-04-30T11:55:26Z</time>
      </trkpt>
      <trkpt lat="46.31789" lon="-1.08296">
        <ele>3.7</ele>
        <time>2019-04-30T11:55:44Z</time>
      </trkpt>
      <trkpt lat="46.3177" lon="-1.08296">
        <ele>3.6</ele>
        <time>2019-04-30T11:55:56Z</time>
      </trkpt>
      <trkpt lat="46.31752" lon="-1.0843">
        <ele>4</ele>
        <time>2019-04-30T11:56:54Z</time>
      </trkpt>
      <trkpt lat="46.31828" lon="-1.08624">
        <ele>4.2</ele>
        <time>2019-04-30T11:57:36Z</time>
      </trkpt>
      <trkpt lat="46.31874" lon="-1.0886">
        <ele>3</ele>
        <time>2019-04-30T11:58:18Z</time>
      </trkpt>
      <trkpt lat="46.32098" lon="-1.09126">
        <ele>3.3</ele>
        <time>2019-04-30T11:59:38Z</time>
      </trkpt>
      <trkpt lat="46.32294" lon="-1.09327">
        <ele>2.9</ele>
        <time>2019-04-30T12:00:38Z</time>
      </trkpt>
      <trkpt lat="46.32502" lon="-1.09598">
        <ele>3.4</ele>
        <time>2019-04-30T12:01:50Z</time>
      </trkpt>
      <trkpt lat="46.32777" lon="-1.0993">
        <ele>3</ele>
        <time>2019-04-30T12:04:00Z</time>
      </trkpt>
      <trkpt lat="46.3295" lon="-1.10102">
        <ele>2.7</ele>
        <time>2019-04-30T12:05:08Z</time>
      </trkpt>
      <trkpt lat="46.33129" lon="-1.10196">
        <ele>3</ele>
        <time>2019-04-30T12:05:56Z</time>
      </trkpt>
      <trkpt lat="46.3316" lon="-1.10234">
        <ele>3.1</ele>
        <time>2019-04-30T12:06:08Z</time>
      </trkpt>
      <trkpt lat="46.33209" lon="-1.10545">
        <ele>2.7</ele>
        <time>2019-04-30T12:07:02Z</time>
      </trkpt>
      <trkpt lat="46.33214" lon="-1.1062">
        <ele>2.9</ele>
        <time>2019-04-30T12:07:14Z</time>
      </trkpt>
      <trkpt lat="46.33169" lon="-1.10719">
        <ele>3</ele>
        <time>2019-04-30T12:07:32Z</time>
      </trkpt>
      <trkpt lat="46.32965" lon="-1.11095">
        <ele>2.4</ele>
        <time>2019-04-30T12:08:38Z</time>
      </trkpt>
      <trkpt lat="46.32948" lon="-1.11134">
        <ele>2.7</ele>
        <time>2019-04-30T12:08:44Z</time>
      </trkpt>
      <trkpt lat="46.32939" lon="-1.11228">
        <ele>2.8</ele>
        <time>2019-04-30T12:08:56Z</time>
      </trkpt>
      <trkpt lat="46.32922" lon="-1.11444">
        <ele>3.4</ele>
        <time>2019-04-30T12:09:26Z</time>
      </trkpt>
      <trkpt lat="46.32929" lon="-1.11509">
        <ele>2.7</ele>
        <time>2019-04-30T12:09:38Z</time>
      </trkpt>
      <trkpt lat="46.32908" lon="-1.11734">
        <ele>2.5</ele>
        <time>2019-04-30T12:10:14Z</time>
      </trkpt>
      <trkpt lat="46.3296" lon="-1.12238">
        <ele>2</ele>
        <time>2019-04-30T12:11:32Z</time>
      </trkpt>
      <trkpt lat="46.32978" lon="-1.12316">
        <ele>2.5</ele>
        <time>2019-04-30T12:11:44Z</time>
      </trkpt>
      <trkpt lat="46.33104" lon="-1.12518">
        <ele>2.5</ele>
        <time>2019-04-30T12:12:26Z</time>
      </trkpt>
      <trkpt lat="46.33686" lon="-1.13409">
        <ele>2.1</ele>
        <time>2019-04-30T12:15:38Z</time>
      </trkpt>
      <trkpt lat="46.34046" lon="-1.13976">
        <ele>2.4</ele>
        <time>2019-04-30T12:17:50Z</time>
      </trkpt>
      <trkpt lat="46.34097" lon="-1.14068">
        <ele>2.5</ele>
        <time>2019-04-30T12:18:08Z</time>
      </trkpt>
      <trkpt lat="46.34603" lon="-1.15073">
        <ele>2.6</ele>
        <time>2019-04-30T12:21:32Z</time>
      </trkpt>
      <trkpt lat="46.34626" lon="-1.15087">
        <ele>2.9</ele>
        <time>2019-04-30T12:21:38Z</time>
      </trkpt>
      <trkpt lat="46.34722" lon="-1.1506">
        <ele>2.8</ele>
        <time>2019-04-30T12:22:02Z</time>
      </trkpt>
      <trkpt lat="46.34771" lon="-1.15059">
        <ele>2.9</ele>
        <time>2019-04-30T12:22:14Z</time>
      </trkpt>
      <trkpt lat="46.34792" lon="-1.15067">
        <ele>2.5</ele>
        <time>2019-04-30T12:22:20Z</time>
      </trkpt>
      <trkpt lat="46.34917" lon="-1.15163">
        <ele>2.9</ele>
        <time>2019-04-30T12:23:08Z</time>
      </trkpt>
      <trkpt lat="46.34949" lon="-1.15201">
        <ele>2.6</ele>
        <time>2019-04-30T12:23:20Z</time>
      </trkpt>
      <trkpt lat="46.35384" lon="-1.16103">
        <ele>2.6</ele>
        <time>2019-04-30T12:26:32Z</time>
      </trkpt>
      <trkpt lat="46.35444" lon="-1.1624">
        <ele>3</ele>
        <time>2019-04-30T12:27:20Z</time>
      </trkpt>
      <trkpt lat="46.35458" lon="-1.16291">
        <ele>2.5</ele>
        <time>2019-04-30T12:27:32Z</time>
      </trkpt>
      <trkpt lat="46.35478" lon="-1.16455">
        <ele>2.7</ele>
        <time>2019-04-30T12:28:02Z</time>
      </trkpt>
      <trkpt lat="46.35507" lon="-1.16548">
        <ele>3</ele>
        <time>2019-04-30T12:28:20Z</time>
      </trkpt>
      <trkpt lat="46.35525" lon="-1.16563">
        <ele>2.7</ele>
        <time>2019-04-30T12:28:26Z</time>
      </trkpt>
      <trkpt lat="46.35573" lon="-1.16581">
        <ele>2.7</ele>
        <time>2019-04-30T12:28:44Z</time>
      </trkpt>
      <trkpt lat="46.35579" lon="-1.16609">
        <ele>2.1</ele>
        <time>2019-04-30T12:29:16Z</time>
      </trkpt>
      <trkpt lat="46.35644" lon="-1.16628">
        <ele>2.6</ele>
        <time>2019-04-30T12:29:40Z</time>
      </trkpt>
      <trkpt lat="46.35825" lon="-1.1666">
        <ele>2.5</ele>
        <time>2019-04-30T12:30:34Z</time>
      </trkpt>
      <trkpt lat="46.3583" lon="-1.16685">
        <ele>3</ele>
        <time>2019-04-30T12:30:40Z</time>
      </trkpt>
      <trkpt lat="46.35816" lon="-1.16792">
        <ele>2</ele>
        <time>2019-04-30T12:30:58Z</time>
      </trkpt>
      <trkpt lat="46.35834" lon="-1.16867">
        <ele>2.8</ele>
        <time>2019-04-30T12:31:10Z</time>
      </trkpt>
      <trkpt lat="46.35926" lon="-1.17001">
        <ele>2.1</ele>
        <time>2019-04-30T12:31:40Z</time>
      </trkpt>
      <trkpt lat="46.36107" lon="-1.17241">
        <ele>3.5</ele>
        <time>2019-04-30T12:32:46Z</time>
      </trkpt>
      <trkpt lat="46.36108" lon="-1.17326">
        <ele>3</ele>
        <time>2019-04-30T12:33:05Z</time>
      </trkpt>
      <trkpt lat="46.36095" lon="-1.17736">
        <ele>2</ele>
        <time>2019-04-30T12:34:16Z</time>
      </trkpt>
      <trkpt lat="46.36097" lon="-1.17975">
        <ele>2.5</ele>
        <time>2019-04-30T12:34:58Z</time>
      </trkpt>
      <trkpt lat="46.36108" lon="-1.18126">
        <ele>3</ele>
        <time>2019-04-30T12:35:28Z</time>
      </trkpt>
      <trkpt lat="46.36148" lon="-1.18491">
        <ele>2</ele>
        <time>2019-04-30T12:36:28Z</time>
      </trkpt>
      <trkpt lat="46.3614" lon="-1.18574">
        <ele>3.3</ele>
        <time>2019-04-30T12:36:40Z</time>
      </trkpt>
      <trkpt lat="46.36097" lon="-1.1887">
        <ele>2.5</ele>
        <time>2019-04-30T12:37:22Z</time>
      </trkpt>
      <trkpt lat="46.36005" lon="-1.19723">
        <ele>3</ele>
        <time>2019-04-30T12:39:34Z</time>
      </trkpt>
      <trkpt lat="46.35923" lon="-1.2063">
        <ele>3</ele>
        <time>2019-04-30T12:41:52Z</time>
      </trkpt>
      <trkpt lat="46.35938" lon="-1.21">
        <ele>2.2</ele>
        <time>2019-04-30T12:42:52Z</time>
      </trkpt>
      <trkpt lat="46.35972" lon="-1.21587">
        <ele>3</ele>
        <time>2019-04-30T12:44:34Z</time>
      </trkpt>
      <trkpt lat="46.35972" lon="-1.21675">
        <ele>3</ele>
        <time>2019-04-30T12:44:52Z</time>
      </trkpt>
      <trkpt lat="46.35952" lon="-1.21688">
        <ele>2.8</ele>
        <time>2019-04-30T12:45:04Z</time>
      </trkpt>
      <trkpt lat="46.35811" lon="-1.21638">
        <ele>3.8</ele>
        <time>2019-04-30T12:45:52Z</time>
      </trkpt>
      <trkpt lat="46.35795" lon="-1.21658">
        <ele>2.9</ele>
        <time>2019-04-30T12:46:04Z</time>
      </trkpt>
      <trkpt lat="46.35792" lon="-1.21672">
        <ele>3.1</ele>
        <time>2019-04-30T12:46:10Z</time>
      </trkpt>
      <trkpt lat="46.35834" lon="-1.21719">
        <ele>3.7</ele>
        <time>2019-04-30T12:46:28Z</time>
      </trkpt>
      <trkpt lat="46.35899" lon="-1.21824">
        <ele>2.5</ele>
        <time>2019-04-30T12:46:52Z</time>
      </trkpt>
      <trkpt lat="46.35915" lon="-1.21879">
        <ele>3.3</ele>
        <time>2019-04-30T12:47:05Z</time>
      </trkpt>
      <trkpt lat="46.35767" lon="-1.2227">
        <ele>2.6</ele>
        <time>2019-04-30T12:48:16Z</time>
      </trkpt>
      <trkpt lat="46.35544" lon="-1.2306">
        <ele>2.4</ele>
        <time>2019-04-30T12:50:40Z</time>
      </trkpt>
      <trkpt lat="46.35476" lon="-1.23334">
        <ele>2.8</ele>
        <time>2019-04-30T12:51:22Z</time>
      </trkpt>
      <trkpt lat="46.3545" lon="-1.23412">
        <ele>2.8</ele>
        <time>2019-04-30T12:51:34Z</time>
      </trkpt>
      <trkpt lat="46.35407" lon="-1.23512">
        <ele>3</ele>
        <time>2019-04-30T12:51:52Z</time>
      </trkpt>
      <trkpt lat="46.3529" lon="-1.23893">
        <ele>3</ele>
        <time>2019-04-30T12:52:52Z</time>
      </trkpt>
      <trkpt lat="46.35273" lon="-1.23969">
        <ele>2.3</ele>
        <time>2019-04-30T12:53:04Z</time>
      </trkpt>
      <trkpt lat="46.35261" lon="-1.24116">
        <ele>3</ele>
        <time>2019-04-30T12:53:28Z</time>
      </trkpt>
      <trkpt lat="46.35231" lon="-1.24217">
        <ele>3</ele>
        <time>2019-04-30T12:53:46Z</time>
      </trkpt>
      <trkpt lat="46.35186" lon="-1.24407">
        <ele>3</ele>
        <time>2019-04-30T12:54:22Z</time>
      </trkpt>
      <trkpt lat="46.35097" lon="-1.24704">
        <ele>3.5</ele>
        <time>2019-04-30T12:55:22Z</time>
      </trkpt>
      <trkpt lat="46.35081" lon="-1.24745">
        <ele>2.9</ele>
        <time>2019-04-30T12:55:47Z</time>
      </trkpt>
      <trkpt lat="46.35094" lon="-1.2475">
        <ele>3</ele>
        <time>2019-04-30T12:55:54Z</time>
      </trkpt>
      <trkpt lat="46.35111" lon="-1.24781">
        <ele>3.1</ele>
        <time>2019-04-30T12:56:06Z</time>
      </trkpt>
      <trkpt lat="46.35169" lon="-1.24844">
        <ele>4.4</ele>
        <time>2019-04-30T12:56:36Z</time>
      </trkpt>
      <trkpt lat="46.35198" lon="-1.24865">
        <ele>5.1</ele>
        <time>2019-04-30T12:56:48Z</time>
      </trkpt>
      <trkpt lat="46.35273" lon="-1.24979">
        <ele>8.5</ele>
        <time>2019-04-30T12:57:42Z</time>
      </trkpt>
      <trkpt lat="46.35319" lon="-1.25037">
        <ele>9.5</ele>
        <time>2019-04-30T12:58:06Z</time>
      </trkpt>
      <trkpt lat="46.3534" lon="-1.25045">
        <ele>9.3</ele>
        <time>2019-04-30T12:58:18Z</time>
      </trkpt>
      <trkpt lat="46.35364" lon="-1.25035">
        <ele>8.9</ele>
        <time>2019-04-30T12:58:29Z</time>
      </trkpt>
      <trkpt lat="46.35407" lon="-1.25001">
        <ele>8.3</ele>
        <time>2019-04-30T12:58:53Z</time>
      </trkpt>
      <trkpt lat="46.35455" lon="-1.24999">
        <ele>8</ele>
        <time>2019-04-30T13:00:11Z</time>
      </trkpt>
      <trkpt lat="46.35434" lon="-1.24977">
        <ele>8</ele>
        <time>2019-04-30T13:00:21Z</time>
      </trkpt>
      <trkpt lat="46.35369" lon="-1.25048">
        <ele>8.7</ele>
        <time>2019-04-30T13:01:05Z</time>
      </trkpt>
      <trkpt lat="46.35321" lon="-1.25039">
        <ele>9.5</ele>
        <time>2019-04-30T13:01:28Z</time>
      </trkpt>
      <trkpt lat="46.35291" lon="-1.25043">
        <ele>9.3</ele>
        <time>2019-04-30T13:01:51Z</time>
      </trkpt>
      <trkpt lat="46.35278" lon="-1.25048">
        <ele>9</ele>
        <time>2019-04-30T13:02:46Z</time>
      </trkpt>
      <trkpt lat="46.35267" lon="-1.25055">
        <ele>9</ele>
        <time>2019-04-30T13:03:00Z</time>
      </trkpt>
      <trkpt lat="46.35284" lon="-1.25039">
        <ele>9.1</ele>
        <time>2019-04-30T13:03:13Z</time>
      </trkpt>
      <trkpt lat="46.35276" lon="-1.25006">
        <ele>8.2</ele>
        <time>2019-04-30T13:03:25Z</time>
      </trkpt>
      <trkpt lat="46.35215" lon="-1.24916">
        <ele>6</ele>
        <time>2019-04-30T13:03:49Z</time>
      </trkpt>
      <trkpt lat="46.35192" lon="-1.24867">
        <ele>5.2</ele>
        <time>2019-04-30T13:04:02Z</time>
      </trkpt>
      <trkpt lat="46.35164" lon="-1.24857">
        <ele>4.8</ele>
        <time>2019-04-30T13:04:13Z</time>
      </trkpt>
      <trkpt lat="46.35092" lon="-1.24958">
        <ele>4.2</ele>
        <time>2019-04-30T13:04:49Z</time>
      </trkpt>
      <trkpt lat="46.35014" lon="-1.25109">
        <ele>3.9</ele>
        <time>2019-04-30T13:05:31Z</time>
      </trkpt>
      <trkpt lat="46.34998" lon="-1.25158">
        <ele>3.9</ele>
        <time>2019-04-30T13:05:43Z</time>
      </trkpt>
      <trkpt lat="46.34951" lon="-1.25448">
        <ele>4.2</ele>
        <time>2019-04-30T13:06:43Z</time>
      </trkpt>
      <trkpt lat="46.34912" lon="-1.25481">
        <ele>3</ele>
        <time>2019-04-30T13:07:01Z</time>
      </trkpt>
      <trkpt lat="46.34874" lon="-1.25484">
        <ele>3</ele>
        <time>2019-04-30T13:07:28Z</time>
      </trkpt>
      <trkpt lat="46.3487" lon="-1.25477">
        <ele>3</ele>
        <time>2019-04-30T13:07:38Z</time>
      </trkpt>
      <trkpt lat="46.34866" lon="-1.25491">
        <ele>3</ele>
        <time>2019-04-30T13:07:54Z</time>
      </trkpt>
      <trkpt lat="46.34865" lon="-1.25484">
        <ele>3</ele>
        <time>2019-04-30T13:07:58Z</time>
      </trkpt>
      <trkpt lat="46.34861" lon="-1.25491">
        <ele>3</ele>
        <time>2019-04-30T13:08:02Z</time>
      </trkpt>
      <trkpt lat="46.34867" lon="-1.2549">
        <ele>3</ele>
        <time>2019-04-30T13:08:06Z</time>
      </trkpt>
      <trkpt lat="46.34863" lon="-1.25481">
        <ele>3</ele>
        <time>2019-04-30T13:08:16Z</time>
      </trkpt>
      <trkpt lat="46.34862" lon="-1.25476">
        <ele>3</ele>
        <time>2019-04-30T13:08:18Z</time>
      </trkpt>
      <trkpt lat="46.34859" lon="-1.25476">
        <ele>3</ele>
        <time>2019-04-30T13:08:20Z</time>
      </trkpt>
      <trkpt lat="46.3486" lon="-1.2548">
        <ele>3</ele>
        <time>2019-04-30T13:08:26Z</time>
      </trkpt>
      <trkpt lat="46.34861" lon="-1.25483">
        <ele>3</ele>
        <time>2019-04-30T13:08:30Z</time>
      </trkpt>
      <trkpt lat="46.34861" lon="-1.25485">
        <ele>3</ele>
        <time>2019-04-30T13:08:32Z</time>
      </trkpt>
      <trkpt lat="46.34859" lon="-1.25485">
        <ele>3</ele>
        <time>2019-04-30T13:08:34Z</time>
      </trkpt>
      <trkpt lat="46.34861" lon="-1.2548">
        <ele>3</ele>
        <time>2019-04-30T13:08:36Z</time>
      </trkpt>
      <trkpt lat="46.34865" lon="-1.25478">
        <ele>3</ele>
        <time>2019-04-30T13:08:38Z</time>
      </trkpt>
      <trkpt lat="46.34872" lon="-1.25481">
        <ele>3</ele>
        <time>2019-04-30T13:08:40Z</time>
      </trkpt>
      <trkpt lat="46.34873" lon="-1.25483">
        <ele>3</ele>
        <time>2019-04-30T13:08:51Z</time>
      </trkpt>
      <trkpt lat="46.34871" lon="-1.25483">
        <ele>3</ele>
        <time>2019-04-30T13:08:52Z</time>
      </trkpt>
      <trkpt lat="46.34875" lon="-1.25487">
        <ele>3</ele>
        <time>2019-04-30T13:08:54Z</time>
      </trkpt>
      <trkpt lat="46.34867" lon="-1.2548">
        <ele>3</ele>
        <time>2019-04-30T13:08:56Z</time>
      </trkpt>
      <trkpt lat="46.34867" lon="-1.25477">
        <ele>3</ele>
        <time>2019-04-30T13:08:58Z</time>
      </trkpt>
      <trkpt lat="46.34866" lon="-1.25476">
        <ele>3</ele>
        <time>2019-04-30T13:09:00Z</time>
      </trkpt>
      <trkpt lat="46.34866" lon="-1.25484">
        <ele>3</ele>
        <time>2019-04-30T13:09:03Z</time>
      </trkpt>
      <trkpt lat="46.34864" lon="-1.25482">
        <ele>3</ele>
        <time>2019-04-30T13:09:04Z</time>
      </trkpt>
      <trkpt lat="46.34865" lon="-1.25479">
        <ele>3</ele>
        <time>2019-04-30T13:09:07Z</time>
      </trkpt>
      <trkpt lat="46.34866" lon="-1.25478">
        <ele>3</ele>
        <time>2019-04-30T13:09:08Z</time>
      </trkpt>
      <trkpt lat="46.34863" lon="-1.25473">
        <ele>3</ele>
        <time>2019-04-30T13:09:11Z</time>
      </trkpt>
      <trkpt lat="46.34861" lon="-1.25472">
        <ele>3</ele>
        <time>2019-04-30T13:09:12Z</time>
      </trkpt>
      <trkpt lat="46.34861" lon="-1.25473">
        <ele>3</ele>
        <time>2019-04-30T13:09:18Z</time>
      </trkpt>
      <trkpt lat="46.34859" lon="-1.25476">
        <ele>3</ele>
        <time>2019-04-30T13:09:21Z</time>
      </trkpt>
      <trkpt lat="46.34858" lon="-1.25477">
        <ele>3</ele>
        <time>2019-04-30T13:09:22Z</time>
      </trkpt>
      <trkpt lat="46.34859" lon="-1.25477">
        <ele>3</ele>
        <time>2019-04-30T13:09:23Z</time>
      </trkpt>
      <trkpt lat="46.34859" lon="-1.25482">
        <ele>2</ele>
        <time>2019-05-01T06:38:06Z</time>
      </trkpt>
      <trkpt lat="46.34835" lon="-1.25487">
        <ele>1</ele>
        <time>2019-05-01T06:38:20Z</time>
      </trkpt>
      <trkpt lat="46.34846" lon="-1.25471">
        <ele>2</ele>
        <time>2019-05-01T06:38:26Z</time>
      </trkpt>
      <trkpt lat="46.3487" lon="-1.25491">
        <ele>2</ele>
        <time>2019-05-01T06:39:10Z</time>
      </trkpt>
      <trkpt lat="46.3488" lon="-1.25487">
        <ele>2</ele>
        <time>2019-05-01T06:39:28Z</time>
      </trkpt>
      <trkpt lat="46.34873" lon="-1.25472">
        <ele>2</ele>
        <time>2019-05-01T06:39:52Z</time>
      </trkpt>
      <trkpt lat="46.34919" lon="-1.25475">
        <ele>4</ele>
        <time>2019-05-01T06:40:22Z</time>
      </trkpt>
      <trkpt lat="46.34945" lon="-1.25449">
        <ele>5</ele>
        <time>2019-05-01T06:40:40Z</time>
      </trkpt>
      <trkpt lat="46.34991" lon="-1.25198">
        <ele>4</ele>
        <time>2019-05-01T06:41:52Z</time>
      </trkpt>
      <trkpt lat="46.3501" lon="-1.2513">
        <ele>4</ele>
        <time>2019-05-01T06:42:10Z</time>
      </trkpt>
      <trkpt lat="46.35081" lon="-1.24978">
        <ele>4</ele>
        <time>2019-05-01T06:42:58Z</time>
      </trkpt>
      <trkpt lat="46.35156" lon="-1.24848">
        <ele>6</ele>
        <time>2019-05-01T06:43:46Z</time>
      </trkpt>
      <trkpt lat="46.35094" lon="-1.24775">
        <ele>5</ele>
        <time>2019-05-01T06:44:16Z</time>
      </trkpt>
      <trkpt lat="46.35081" lon="-1.24742">
        <ele>5</ele>
        <time>2019-05-01T06:44:34Z</time>
      </trkpt>
      <trkpt lat="46.35049" lon="-1.24745">
        <ele>4</ele>
        <time>2019-05-01T06:44:46Z</time>
      </trkpt>
      <trkpt lat="46.35028" lon="-1.24768">
        <ele>5</ele>
        <time>2019-05-01T06:44:58Z</time>
      </trkpt>
      <trkpt lat="46.34952" lon="-1.24773">
        <ele>5</ele>
        <time>2019-05-01T06:45:22Z</time>
      </trkpt>
      <trkpt lat="46.34924" lon="-1.24758">
        <ele>3</ele>
        <time>2019-05-01T06:45:34Z</time>
      </trkpt>
      <trkpt lat="46.34734" lon="-1.24775">
        <ele>3</ele>
        <time>2019-05-01T06:46:22Z</time>
      </trkpt>
      <trkpt lat="46.34578" lon="-1.2477">
        <ele>3</ele>
        <time>2019-05-01T06:47:04Z</time>
      </trkpt>
      <trkpt lat="46.34532" lon="-1.24772">
        <ele>3</ele>
        <time>2019-05-01T06:47:16Z</time>
      </trkpt>
      <trkpt lat="46.34502" lon="-1.24805">
        <ele>3</ele>
        <time>2019-05-01T06:47:28Z</time>
      </trkpt>
      <trkpt lat="46.34422" lon="-1.24794">
        <ele>3</ele>
        <time>2019-05-01T06:47:46Z</time>
      </trkpt>
      <trkpt lat="46.32988" lon="-1.24286">
        <ele>2</ele>
        <time>2019-05-01T06:53:04Z</time>
      </trkpt>
      <trkpt lat="46.32924" lon="-1.24232">
        <ele>2</ele>
        <time>2019-05-01T06:53:22Z</time>
      </trkpt>
      <trkpt lat="46.32904" lon="-1.24249">
        <ele>2</ele>
        <time>2019-05-01T06:53:28Z</time>
      </trkpt>
      <trkpt lat="46.32859" lon="-1.24325">
        <ele>2</ele>
        <time>2019-05-01T06:53:46Z</time>
      </trkpt>
      <trkpt lat="46.32785" lon="-1.24408">
        <ele>2</ele>
        <time>2019-05-01T06:54:10Z</time>
      </trkpt>
      <trkpt lat="46.32606" lon="-1.24579">
        <ele>1</ele>
        <time>2019-05-01T06:55:04Z</time>
      </trkpt>
      <trkpt lat="46.31538" lon="-1.24466">
        <ele>1</ele>
        <time>2019-05-01T06:59:04Z</time>
      </trkpt>
      <trkpt lat="46.31036" lon="-1.24322">
        <ele>1</ele>
        <time>2019-05-01T07:00:58Z</time>
      </trkpt>
      <trkpt lat="46.30981" lon="-1.24314">
        <ele>1</ele>
        <time>2019-05-01T07:01:16Z</time>
      </trkpt>
      <trkpt lat="46.30947" lon="-1.24269">
        <ele>1</ele>
        <time>2019-05-01T07:01:28Z</time>
      </trkpt>
      <trkpt lat="46.30835" lon="-1.2405">
        <ele>1</ele>
        <time>2019-05-01T07:02:10Z</time>
      </trkpt>
      <trkpt lat="46.30773" lon="-1.23968">
        <ele>1.1</ele>
        <time>2019-05-01T07:02:28Z</time>
      </trkpt>
      <trkpt lat="46.30743" lon="-1.23912">
        <ele>1.8</ele>
        <time>2019-05-01T07:02:40Z</time>
      </trkpt>
      <trkpt lat="46.30664" lon="-1.23844">
        <ele>1</ele>
        <time>2019-05-01T07:03:04Z</time>
      </trkpt>
      <trkpt lat="46.30601" lon="-1.23826">
        <ele>1</ele>
        <time>2019-05-01T07:03:22Z</time>
      </trkpt>
      <trkpt lat="46.30562" lon="-1.23852">
        <ele>1</ele>
        <time>2019-05-01T07:03:34Z</time>
      </trkpt>
      <trkpt lat="46.30501" lon="-1.23982">
        <ele>3</ele>
        <time>2019-05-01T07:03:58Z</time>
      </trkpt>
      <trkpt lat="46.30481" lon="-1.2401">
        <ele>4</ele>
        <time>2019-05-01T07:04:04Z</time>
      </trkpt>
      <trkpt lat="46.30431" lon="-1.24049">
        <ele>4</ele>
        <time>2019-05-01T07:04:16Z</time>
      </trkpt>
      <trkpt lat="46.30367" lon="-1.24136">
        <ele>4</ele>
        <time>2019-05-01T07:04:34Z</time>
      </trkpt>
      <trkpt lat="46.3033" lon="-1.24205">
        <ele>4</ele>
        <time>2019-05-01T07:04:46Z</time>
      </trkpt>
      <trkpt lat="46.30307" lon="-1.24289">
        <ele>4</ele>
        <time>2019-05-01T07:04:58Z</time>
      </trkpt>
      <trkpt lat="46.30302" lon="-1.24414">
        <ele>3</ele>
        <time>2019-05-01T07:05:16Z</time>
      </trkpt>
      <trkpt lat="46.3027" lon="-1.24733">
        <ele>3</ele>
        <time>2019-05-01T07:06:04Z</time>
      </trkpt>
      <trkpt lat="46.30286" lon="-1.25266">
        <ele>6</ele>
        <time>2019-05-01T07:07:16Z</time>
      </trkpt>
      <trkpt lat="46.30305" lon="-1.25436">
        <ele>5</ele>
        <time>2019-05-01T07:07:46Z</time>
      </trkpt>
      <trkpt lat="46.30281" lon="-1.25464">
        <ele>1</ele>
        <time>2019-05-01T07:07:52Z</time>
      </trkpt>
      <trkpt lat="46.29903" lon="-1.2576">
        <ele>1</ele>
        <time>2019-05-01T07:09:22Z</time>
      </trkpt>
      <trkpt lat="46.29778" lon="-1.25813">
        <ele>1</ele>
        <time>2019-05-01T07:09:52Z</time>
      </trkpt>
      <trkpt lat="46.29766" lon="-1.25843">
        <ele>1</ele>
        <time>2019-05-01T07:09:58Z</time>
      </trkpt>
      <trkpt lat="46.29761" lon="-1.25952">
        <ele>2</ele>
        <time>2019-05-01T07:10:24Z</time>
      </trkpt>
      <trkpt lat="46.29767" lon="-1.26052">
        <ele>3.7</ele>
        <time>2019-05-01T07:11:10Z</time>
      </trkpt>
      <trkpt lat="46.29866" lon="-1.26244">
        <ele>3.5</ele>
        <time>2019-05-01T07:12:21Z</time>
      </trkpt>
      <trkpt lat="46.29988" lon="-1.26445">
        <ele>3.7</ele>
        <time>2019-05-01T07:13:09Z</time>
      </trkpt>
      <trkpt lat="46.29989" lon="-1.26462">
        <ele>3.1</ele>
        <time>2019-05-01T07:13:33Z</time>
      </trkpt>
      <trkpt lat="46.30573" lon="-1.27411">
        <ele>1</ele>
        <time>2019-05-01T07:17:09Z</time>
      </trkpt>
      <trkpt lat="46.30641" lon="-1.27504">
        <ele>1</ele>
        <time>2019-05-01T07:17:33Z</time>
      </trkpt>
      <trkpt lat="46.3076" lon="-1.27581">
        <ele>2</ele>
        <time>2019-05-01T07:18:03Z</time>
      </trkpt>
      <trkpt lat="46.30804" lon="-1.27622">
        <ele>2</ele>
        <time>2019-05-01T07:18:15Z</time>
      </trkpt>
      <trkpt lat="46.30968" lon="-1.28006">
        <ele>1</ele>
        <time>2019-05-01T07:19:27Z</time>
      </trkpt>
      <trkpt lat="46.31015" lon="-1.28045">
        <ele>3</ele>
        <time>2019-05-01T07:19:39Z</time>
      </trkpt>
      <trkpt lat="46.31131" lon="-1.28074">
        <ele>4</ele>
        <time>2019-05-01T07:20:03Z</time>
      </trkpt>
      <trkpt lat="46.31185" lon="-1.281">
        <ele>4</ele>
        <time>2019-05-01T07:20:15Z</time>
      </trkpt>
      <trkpt lat="46.31237" lon="-1.28133">
        <ele>3</ele>
        <time>2019-05-01T07:20:27Z</time>
      </trkpt>
      <trkpt lat="46.31362" lon="-1.28244">
        <ele>3</ele>
        <time>2019-05-01T07:20:57Z</time>
      </trkpt>
      <trkpt lat="46.31428" lon="-1.28331">
        <ele>4</ele>
        <time>2019-05-01T07:21:15Z</time>
      </trkpt>
      <trkpt lat="46.31494" lon="-1.28439">
        <ele>2</ele>
        <time>2019-05-01T07:21:39Z</time>
      </trkpt>
      <trkpt lat="46.31455" lon="-1.28534">
        <ele>3</ele>
        <time>2019-05-01T07:22:03Z</time>
      </trkpt>
      <trkpt lat="46.31497" lon="-1.28574">
        <ele>4</ele>
        <time>2019-05-01T07:22:15Z</time>
      </trkpt>
      <trkpt lat="46.31565" lon="-1.2868">
        <ele>4</ele>
        <time>2019-05-01T07:22:39Z</time>
      </trkpt>
      <trkpt lat="46.31749" lon="-1.28911">
        <ele>4</ele>
        <time>2019-05-01T07:23:39Z</time>
      </trkpt>
      <trkpt lat="46.31909" lon="-1.29135">
        <ele>5</ele>
        <time>2019-05-01T07:24:27Z</time>
      </trkpt>
      <trkpt lat="46.31996" lon="-1.29221">
        <ele>5</ele>
        <time>2019-05-01T07:24:57Z</time>
      </trkpt>
      <trkpt lat="46.32258" lon="-1.29389">
        <ele>3</ele>
        <time>2019-05-01T07:26:03Z</time>
      </trkpt>
      <trkpt lat="46.32454" lon="-1.29627">
        <ele>4</ele>
        <time>2019-05-01T07:26:57Z</time>
      </trkpt>
      <trkpt lat="46.32661" lon="-1.29821">
        <ele>5</ele>
        <time>2019-05-01T07:27:51Z</time>
      </trkpt>
      <trkpt lat="46.3273" lon="-1.29905">
        <ele>4</ele>
        <time>2019-05-01T07:28:15Z</time>
      </trkpt>
      <trkpt lat="46.32763" lon="-1.29968">
        <ele>4</ele>
        <time>2019-05-01T07:28:27Z</time>
      </trkpt>
      <trkpt lat="46.329" lon="-1.30166">
        <ele>5</ele>
        <time>2019-05-01T07:29:09Z</time>
      </trkpt>
      <trkpt lat="46.32982" lon="-1.30332">
        <ele>3</ele>
        <time>2019-05-01T07:29:39Z</time>
      </trkpt>
      <trkpt lat="46.33171" lon="-1.3059">
        <ele>4</ele>
        <time>2019-05-01T07:30:39Z</time>
      </trkpt>
      <trkpt lat="46.33245" lon="-1.30723">
        <ele>4</ele>
        <time>2019-05-01T07:31:09Z</time>
      </trkpt>
      <trkpt lat="46.33243" lon="-1.3074">
        <ele>2</ele>
        <time>2019-05-01T07:31:15Z</time>
      </trkpt>
      <trkpt lat="46.33183" lon="-1.30836">
        <ele>2</ele>
        <time>2019-05-01T07:31:45Z</time>
      </trkpt>
      <trkpt lat="46.33274" lon="-1.31107">
        <ele>1</ele>
        <time>2019-05-01T07:32:57Z</time>
      </trkpt>
      <trkpt lat="46.33429" lon="-1.31301">
        <ele>3</ele>
        <time>2019-05-01T07:33:53Z</time>
      </trkpt>
      <trkpt lat="46.33466" lon="-1.31268">
        <ele>4</ele>
        <time>2019-05-01T07:34:11Z</time>
      </trkpt>
      <trkpt lat="46.33509" lon="-1.31358">
        <ele>5</ele>
        <time>2019-05-01T07:34:35Z</time>
      </trkpt>
      <trkpt lat="46.33535" lon="-1.31373">
        <ele>5</ele>
        <time>2019-05-01T07:34:47Z</time>
      </trkpt>
      <trkpt lat="46.33552" lon="-1.3141">
        <ele>5</ele>
        <time>2019-05-01T07:34:59Z</time>
      </trkpt>
      <trkpt lat="46.33553" lon="-1.31472">
        <ele>4</ele>
        <time>2019-05-01T07:35:11Z</time>
      </trkpt>
      <trkpt lat="46.33526" lon="-1.31556">
        <ele>3</ele>
        <time>2019-05-01T07:35:29Z</time>
      </trkpt>
      <trkpt lat="46.33355" lon="-1.31866">
        <ele>2</ele>
        <time>2019-05-01T07:36:59Z</time>
      </trkpt>
      <trkpt lat="46.33352" lon="-1.31951">
        <ele>3</ele>
        <time>2019-05-01T07:37:23Z</time>
      </trkpt>
      <trkpt lat="46.33292" lon="-1.32153">
        <ele>4</ele>
        <time>2019-05-01T07:38:13Z</time>
      </trkpt>
      <trkpt lat="46.33307" lon="-1.32265">
        <ele>4</ele>
        <time>2019-05-01T07:38:37Z</time>
      </trkpt>
      <trkpt lat="46.33622" lon="-1.32978">
        <ele>4</ele>
        <time>2019-05-01T07:40:43Z</time>
      </trkpt>
      <trkpt lat="46.33627" lon="-1.33071">
        <ele>4</ele>
        <time>2019-05-01T07:40:55Z</time>
      </trkpt>
      <trkpt lat="46.33601" lon="-1.3325">
        <ele>4</ele>
        <time>2019-05-01T07:41:19Z</time>
      </trkpt>
      <trkpt lat="46.33603" lon="-1.33333">
        <ele>3</ele>
        <time>2019-05-01T07:41:31Z</time>
      </trkpt>
      <trkpt lat="46.33621" lon="-1.33371">
        <ele>3</ele>
        <time>2019-05-01T07:41:37Z</time>
      </trkpt>
      <trkpt lat="46.33805" lon="-1.33633">
        <ele>3</ele>
        <time>2019-05-01T07:42:31Z</time>
      </trkpt>
      <trkpt lat="46.34074" lon="-1.33958">
        <ele>1</ele>
        <time>2019-05-01T07:43:43Z</time>
      </trkpt>
      <trkpt lat="46.3409" lon="-1.34">
        <ele>3.2</ele>
        <time>2019-05-01T07:43:55Z</time>
      </trkpt>
      <trkpt lat="46.34122" lon="-1.3403">
        <ele>3</ele>
        <time>2019-05-01T07:44:07Z</time>
      </trkpt>
      <trkpt lat="46.34335" lon="-1.34393">
        <ele>4</ele>
        <time>2019-05-01T07:45:25Z</time>
      </trkpt>
      <trkpt lat="46.34394" lon="-1.34652">
        <ele>6</ele>
        <time>2019-05-01T07:46:07Z</time>
      </trkpt>
      <trkpt lat="46.34423" lon="-1.34745">
        <ele>5</ele>
        <time>2019-05-01T07:46:25Z</time>
      </trkpt>
      <trkpt lat="46.34703" lon="-1.35285">
        <ele>6</ele>
        <time>2019-05-01T07:48:12Z</time>
      </trkpt>
      <trkpt lat="46.34841" lon="-1.35794">
        <ele>5</ele>
        <time>2019-05-01T07:49:30Z</time>
      </trkpt>
      <trkpt lat="46.34874" lon="-1.35948">
        <ele>6</ele>
        <time>2019-05-01T07:49:54Z</time>
      </trkpt>
      <trkpt lat="46.34886" lon="-1.36118">
        <ele>5</ele>
        <time>2019-05-01T07:50:18Z</time>
      </trkpt>
      <trkpt lat="46.34898" lon="-1.36572">
        <ele>4</ele>
        <time>2019-05-01T07:51:24Z</time>
      </trkpt>
      <trkpt lat="46.34908" lon="-1.36647">
        <ele>3</ele>
        <time>2019-05-01T07:51:36Z</time>
      </trkpt>
      <trkpt lat="46.3493" lon="-1.36713">
        <ele>4</ele>
        <time>2019-05-01T07:51:48Z</time>
      </trkpt>
      <trkpt lat="46.34943" lon="-1.36733">
        <ele>4</ele>
        <time>2019-05-01T07:51:54Z</time>
      </trkpt>
      <trkpt lat="46.3497" lon="-1.36708">
        <ele>4</ele>
        <time>2019-05-01T07:52:06Z</time>
      </trkpt>
      <trkpt lat="46.35024" lon="-1.36714">
        <ele>4</ele>
        <time>2019-05-01T07:52:18Z</time>
      </trkpt>
      <trkpt lat="46.3518" lon="-1.368">
        <ele>2</ele>
        <time>2019-05-01T07:52:54Z</time>
      </trkpt>
      <trkpt lat="46.3521" lon="-1.36862">
        <ele>2</ele>
        <time>2019-05-01T07:53:06Z</time>
      </trkpt>
      <trkpt lat="46.35413" lon="-1.3811">
        <ele>2</ele>
        <time>2019-05-01T07:56:06Z</time>
      </trkpt>
      <trkpt lat="46.35436" lon="-1.38318">
        <ele>2</ele>
        <time>2019-05-01T07:56:42Z</time>
      </trkpt>
      <trkpt lat="46.35441" lon="-1.38474">
        <ele>2</ele>
        <time>2019-05-01T07:57:06Z</time>
      </trkpt>
      <trkpt lat="46.35424" lon="-1.38762">
        <ele>1</ele>
        <time>2019-05-01T07:57:48Z</time>
      </trkpt>
      <trkpt lat="46.35331" lon="-1.39389">
        <ele>2</ele>
        <time>2019-05-01T07:59:24Z</time>
      </trkpt>
      <trkpt lat="46.35312" lon="-1.39743">
        <ele>2</ele>
        <time>2019-05-01T08:00:18Z</time>
      </trkpt>
      <trkpt lat="46.35338" lon="-1.40317">
        <ele>2</ele>
        <time>2019-05-01T08:01:54Z</time>
      </trkpt>
      <trkpt lat="46.3533" lon="-1.40371">
        <ele>2</ele>
        <time>2019-05-01T08:02:12Z</time>
      </trkpt>
      <trkpt lat="46.35352" lon="-1.40851">
        <ele>2</ele>
        <time>2019-05-01T08:04:00Z</time>
      </trkpt>
      <trkpt lat="46.35377" lon="-1.4218">
        <ele>2</ele>
        <time>2019-05-01T08:07:18Z</time>
      </trkpt>
      <trkpt lat="46.35392" lon="-1.4238">
        <ele>2</ele>
        <time>2019-05-01T08:07:48Z</time>
      </trkpt>
      <trkpt lat="46.35366" lon="-1.42442">
        <ele>3</ele>
        <time>2019-05-01T08:08:06Z</time>
      </trkpt>
      <trkpt lat="46.35387" lon="-1.42484">
        <ele>3</ele>
        <time>2019-05-01T08:08:18Z</time>
      </trkpt>
      <trkpt lat="46.35366" lon="-1.42561">
        <ele>2</ele>
        <time>2019-05-01T08:08:30Z</time>
      </trkpt>
      <trkpt lat="46.3528" lon="-1.4274">
        <ele>1</ele>
        <time>2019-05-01T08:09:00Z</time>
      </trkpt>
      <trkpt lat="46.35241" lon="-1.42803">
        <ele>1</ele>
        <time>2019-05-01T08:09:12Z</time>
      </trkpt>
      <trkpt lat="46.35205" lon="-1.42843">
        <ele>2</ele>
        <time>2019-05-01T08:09:30Z</time>
      </trkpt>
      <trkpt lat="46.3522" lon="-1.42907">
        <ele>2</ele>
        <time>2019-05-01T08:09:48Z</time>
      </trkpt>
      <trkpt lat="46.3519" lon="-1.4297">
        <ele>2</ele>
        <time>2019-05-01T08:10:14Z</time>
      </trkpt>
      <trkpt lat="46.35256" lon="-1.43138">
        <ele>2</ele>
        <time>2019-05-01T08:11:02Z</time>
      </trkpt>
      <trkpt lat="46.35313" lon="-1.43248">
        <ele>1</ele>
        <time>2019-05-01T08:11:32Z</time>
      </trkpt>
      <trkpt lat="46.35422" lon="-1.43511">
        <ele>2.6</ele>
        <time>2019-05-01T08:12:26Z</time>
      </trkpt>
      <trkpt lat="46.35665" lon="-1.44213">
        <ele>2</ele>
        <time>2019-05-01T08:14:20Z</time>
      </trkpt>
      <trkpt lat="46.35726" lon="-1.44358">
        <ele>3</ele>
        <time>2019-05-01T08:14:44Z</time>
      </trkpt>
      <trkpt lat="46.36157" lon="-1.45105">
        <ele>2</ele>
        <time>2019-05-01T08:17:02Z</time>
      </trkpt>
      <trkpt lat="46.36159" lon="-1.45141">
        <ele>2</ele>
        <time>2019-05-01T08:17:08Z</time>
      </trkpt>
      <trkpt lat="46.36117" lon="-1.45162">
        <ele>3</ele>
        <time>2019-05-01T08:17:32Z</time>
      </trkpt>
      <trkpt lat="46.362" lon="-1.45172">
        <ele>3</ele>
        <time>2019-05-01T08:18:14Z</time>
      </trkpt>
      <trkpt lat="46.36434" lon="-1.45555">
        <ele>2</ele>
        <time>2019-05-01T08:19:50Z</time>
      </trkpt>
      <trkpt lat="46.36506" lon="-1.45648">
        <ele>3</ele>
        <time>2019-05-01T08:20:14Z</time>
      </trkpt>
      <trkpt lat="46.36593" lon="-1.45731">
        <ele>4</ele>
        <time>2019-05-01T08:20:38Z</time>
      </trkpt>
      <trkpt lat="46.36665" lon="-1.45784">
        <ele>5</ele>
        <time>2019-05-01T08:20:56Z</time>
      </trkpt>
      <trkpt lat="46.36855" lon="-1.45906">
        <ele>7</ele>
        <time>2019-05-01T08:21:44Z</time>
      </trkpt>
      <trkpt lat="46.36901" lon="-1.45957">
        <ele>8</ele>
        <time>2019-05-01T08:22:02Z</time>
      </trkpt>
      <trkpt lat="46.36996" lon="-1.45997">
        <ele>13</ele>
        <time>2019-05-01T08:22:38Z</time>
      </trkpt>
      <trkpt lat="46.37079" lon="-1.46048">
        <ele>9</ele>
        <time>2019-05-01T08:23:02Z</time>
      </trkpt>
      <trkpt lat="46.37143" lon="-1.46092">
        <ele>10</ele>
        <time>2019-05-01T08:23:20Z</time>
      </trkpt>
      <trkpt lat="46.37237" lon="-1.46188">
        <ele>12</ele>
        <time>2019-05-01T08:23:44Z</time>
      </trkpt>
      <trkpt lat="46.37335" lon="-1.46241">
        <ele>10</ele>
        <time>2019-05-01T08:24:08Z</time>
      </trkpt>
      <trkpt lat="46.37371" lon="-1.46429">
        <ele>12</ele>
        <time>2019-05-01T08:24:50Z</time>
      </trkpt>
      <trkpt lat="46.37373" lon="-1.46499">
        <ele>13</ele>
        <time>2019-05-01T08:25:08Z</time>
      </trkpt>
      <trkpt lat="46.37388" lon="-1.46573">
        <ele>14</ele>
        <time>2019-05-01T08:25:26Z</time>
      </trkpt>
      <trkpt lat="46.37386" lon="-1.46668">
        <ele>14</ele>
        <time>2019-05-01T08:25:50Z</time>
      </trkpt>
      <trkpt lat="46.37405" lon="-1.46674">
        <ele>14</ele>
        <time>2019-05-01T08:25:56Z</time>
      </trkpt>
      <trkpt lat="46.37491" lon="-1.46654">
        <ele>12</ele>
        <time>2019-05-01T08:26:20Z</time>
      </trkpt>
      <trkpt lat="46.37537" lon="-1.46583">
        <ele>10</ele>
        <time>2019-05-01T08:26:44Z</time>
      </trkpt>
      <trkpt lat="46.37674" lon="-1.46556">
        <ele>12</ele>
        <time>2019-05-01T08:27:20Z</time>
      </trkpt>
      <trkpt lat="46.37707" lon="-1.46519">
        <ele>12</ele>
        <time>2019-05-01T08:28:00Z</time>
      </trkpt>
      <trkpt lat="46.3773" lon="-1.4651">
        <ele>14</ele>
        <time>2019-05-01T08:28:12Z</time>
      </trkpt>
      <trkpt lat="46.37768" lon="-1.46519">
        <ele>14</ele>
        <time>2019-05-01T08:28:30Z</time>
      </trkpt>
      <trkpt lat="46.37869" lon="-1.46605">
        <ele>16</ele>
        <time>2019-05-01T08:29:06Z</time>
      </trkpt>
      <trkpt lat="46.37943" lon="-1.46615">
        <ele>13</ele>
        <time>2019-05-01T08:29:24Z</time>
      </trkpt>
      <trkpt lat="46.38015" lon="-1.46587">
        <ele>9</ele>
        <time>2019-05-01T08:29:36Z</time>
      </trkpt>
      <trkpt lat="46.38054" lon="-1.46603">
        <ele>12</ele>
        <time>2019-05-01T08:29:48Z</time>
      </trkpt>
      <trkpt lat="46.38232" lon="-1.46623">
        <ele>11</ele>
        <time>2019-05-01T08:30:42Z</time>
      </trkpt>
      <trkpt lat="46.38256" lon="-1.46647">
        <ele>11</ele>
        <time>2019-05-01T08:30:54Z</time>
      </trkpt>
      <trkpt lat="46.38277" lon="-1.46711">
        <ele>13</ele>
        <time>2019-05-01T08:31:12Z</time>
      </trkpt>
      <trkpt lat="46.38356" lon="-1.4686">
        <ele>11</ele>
        <time>2019-05-01T08:31:42Z</time>
      </trkpt>
      <trkpt lat="46.38381" lon="-1.47005">
        <ele>13</ele>
        <time>2019-05-01T08:32:12Z</time>
      </trkpt>
      <trkpt lat="46.38476" lon="-1.47048">
        <ele>10</ele>
        <time>2019-05-01T08:32:42Z</time>
      </trkpt>
      <trkpt lat="46.38493" lon="-1.47074">
        <ele>8</ele>
        <time>2019-05-01T08:32:48Z</time>
      </trkpt>
      <trkpt lat="46.38495" lon="-1.47112">
        <ele>9</ele>
        <time>2019-05-01T08:32:54Z</time>
      </trkpt>
      <trkpt lat="46.38515" lon="-1.47167">
        <ele>10</ele>
        <time>2019-05-01T08:33:06Z</time>
      </trkpt>
      <trkpt lat="46.38517" lon="-1.47276">
        <ele>15</ele>
        <time>2019-05-01T08:33:30Z</time>
      </trkpt>
      <trkpt lat="46.38508" lon="-1.47327">
        <ele>17</ele>
        <time>2019-05-01T08:33:48Z</time>
      </trkpt>
      <trkpt lat="46.38504" lon="-1.47509">
        <ele>17</ele>
        <time>2019-05-01T08:34:24Z</time>
      </trkpt>
      <trkpt lat="46.38449" lon="-1.47785">
        <ele>13</ele>
        <time>2019-05-01T08:34:54Z</time>
      </trkpt>
      <trkpt lat="46.38453" lon="-1.48118">
        <ele>17</ele>
        <time>2019-05-01T08:36:00Z</time>
      </trkpt>
      <trkpt lat="46.38551" lon="-1.48181">
        <ele>16</ele>
        <time>2019-05-01T08:36:42Z</time>
      </trkpt>
      <trkpt lat="46.38644" lon="-1.48261">
        <ele>16</ele>
        <time>2019-05-01T08:37:24Z</time>
      </trkpt>
      <trkpt lat="46.38697" lon="-1.48332">
        <ele>17</ele>
        <time>2019-05-01T08:37:54Z</time>
      </trkpt>
      <trkpt lat="46.38731" lon="-1.48434">
        <ele>16</ele>
        <time>2019-05-01T08:38:24Z</time>
      </trkpt>
      <trkpt lat="46.38829" lon="-1.48565">
        <ele>19</ele>
        <time>2019-05-01T08:39:22Z</time>
      </trkpt>
      <trkpt lat="46.38851" lon="-1.48866">
        <ele>12</ele>
        <time>2019-05-01T08:40:19Z</time>
      </trkpt>
      <trkpt lat="46.38822" lon="-1.49063">
        <ele>13</ele>
        <time>2019-05-01T08:40:54Z</time>
      </trkpt>
      <trkpt lat="46.38793" lon="-1.49093">
        <ele>13</ele>
        <time>2019-05-01T08:41:06Z</time>
      </trkpt>
      <trkpt lat="46.38668" lon="-1.49031">
        <ele>11</ele>
        <time>2019-05-01T08:41:36Z</time>
      </trkpt>
      <trkpt lat="46.38645" lon="-1.49001">
        <ele>12</ele>
        <time>2019-05-01T08:41:42Z</time>
      </trkpt>
      <trkpt lat="46.38633" lon="-1.48939">
        <ele>12</ele>
        <time>2019-05-01T08:41:54Z</time>
      </trkpt>
      <trkpt lat="46.38609" lon="-1.48891">
        <ele>13</ele>
        <time>2019-05-01T08:42:06Z</time>
      </trkpt>
      <trkpt lat="46.38441" lon="-1.48753">
        <ele>13</ele>
        <time>2019-05-01T08:43:06Z</time>
      </trkpt>
      <trkpt lat="46.38397" lon="-1.48682">
        <ele>13</ele>
        <time>2019-05-01T08:43:18Z</time>
      </trkpt>
      <trkpt lat="46.38393" lon="-1.48568">
        <ele>15</ele>
        <time>2019-05-01T08:43:42Z</time>
      </trkpt>
      <trkpt lat="46.38421" lon="-1.4835">
        <ele>18</ele>
        <time>2019-05-01T08:44:36Z</time>
      </trkpt>
      <trkpt lat="46.38436" lon="-1.48293">
        <ele>19</ele>
        <time>2019-05-01T08:44:54Z</time>
      </trkpt>
      <trkpt lat="46.38446" lon="-1.48116">
        <ele>17</ele>
        <time>2019-05-01T08:45:20Z</time>
      </trkpt>
      <trkpt lat="46.38462" lon="-1.48135">
        <ele>17</ele>
        <time>2019-05-01T08:45:30Z</time>
      </trkpt>
      <trkpt lat="46.38548" lon="-1.48185">
        <ele>16</ele>
        <time>2019-05-01T08:45:59Z</time>
      </trkpt>
      <trkpt lat="46.38647" lon="-1.48273">
        <ele>16</ele>
        <time>2019-05-01T08:46:30Z</time>
      </trkpt>
      <trkpt lat="46.38748" lon="-1.48445">
        <ele>16</ele>
        <time>2019-05-01T08:47:07Z</time>
      </trkpt>
      <trkpt lat="46.38823" lon="-1.48544">
        <ele>19</ele>
        <time>2019-05-01T08:47:31Z</time>
      </trkpt>
      <trkpt lat="46.38843" lon="-1.48777">
        <ele>15</ele>
        <time>2019-05-01T08:48:13Z</time>
      </trkpt>
      <trkpt lat="46.38858" lon="-1.48863">
        <ele>13</ele>
        <time>2019-05-01T08:48:25Z</time>
      </trkpt>
      <trkpt lat="46.38854" lon="-1.48925">
        <ele>12</ele>
        <time>2019-05-01T08:48:37Z</time>
      </trkpt>
      <trkpt lat="46.38859" lon="-1.48981">
        <ele>12</ele>
        <time>2019-05-01T08:48:50Z</time>
      </trkpt>
      <trkpt lat="46.38884" lon="-1.49062">
        <ele>13</ele>
        <time>2019-05-01T08:49:07Z</time>
      </trkpt>
      <trkpt lat="46.38908" lon="-1.49112">
        <ele>13</ele>
        <time>2019-05-01T08:49:19Z</time>
      </trkpt>
      <trkpt lat="46.38923" lon="-1.49098">
        <ele>14</ele>
        <time>2019-05-01T08:49:25Z</time>
      </trkpt>
      <trkpt lat="46.39067" lon="-1.48722">
        <ele>16</ele>
        <time>2019-05-01T08:50:50Z</time>
      </trkpt>
      <trkpt lat="46.39108" lon="-1.4864">
        <ele>14</ele>
        <time>2019-05-01T08:51:07Z</time>
      </trkpt>
      <trkpt lat="46.39168" lon="-1.4856">
        <ele>13</ele>
        <time>2019-05-01T08:51:31Z</time>
      </trkpt>
      <trkpt lat="46.39194" lon="-1.4855">
        <ele>12</ele>
        <time>2019-05-01T08:51:38Z</time>
      </trkpt>
      <trkpt lat="46.3926" lon="-1.48562">
        <ele>11</ele>
        <time>2019-05-01T08:51:49Z</time>
      </trkpt>
      <trkpt lat="46.39282" lon="-1.48665">
        <ele>18</ele>
        <time>2019-05-01T08:52:01Z</time>
      </trkpt>
      <trkpt lat="46.39273" lon="-1.48728">
        <ele>18</ele>
        <time>2019-05-01T08:52:14Z</time>
      </trkpt>
      <trkpt lat="46.39316" lon="-1.48811">
        <ele>16</ele>
        <time>2019-05-01T08:52:32Z</time>
      </trkpt>
      <trkpt lat="46.39355" lon="-1.48817">
        <ele>15</ele>
        <time>2019-05-01T08:52:37Z</time>
      </trkpt>
      <trkpt lat="46.39406" lon="-1.48866">
        <ele>14</ele>
        <time>2019-05-01T08:52:49Z</time>
      </trkpt>
      <trkpt lat="46.39494" lon="-1.48869">
        <ele>13</ele>
        <time>2019-05-01T08:53:07Z</time>
      </trkpt>
      <trkpt lat="46.39513" lon="-1.48881">
        <ele>13</ele>
        <time>2019-05-01T08:53:13Z</time>
      </trkpt>
      <trkpt lat="46.39538" lon="-1.48935">
        <ele>13</ele>
        <time>2019-05-01T08:53:25Z</time>
      </trkpt>
      <trkpt lat="46.39593" lon="-1.48966">
        <ele>12</ele>
        <time>2019-05-01T08:53:37Z</time>
      </trkpt>
      <trkpt lat="46.39679" lon="-1.48913">
        <ele>12</ele>
        <time>2019-05-01T08:54:01Z</time>
      </trkpt>
      <trkpt lat="46.39742" lon="-1.48845">
        <ele>13</ele>
        <time>2019-05-01T08:54:19Z</time>
      </trkpt>
      <trkpt lat="46.39829" lon="-1.48844">
        <ele>14</ele>
        <time>2019-05-01T08:54:44Z</time>
      </trkpt>
      <trkpt lat="46.39858" lon="-1.4881">
        <ele>12</ele>
        <time>2019-05-01T08:54:55Z</time>
      </trkpt>
      <trkpt lat="46.39899" lon="-1.48718">
        <ele>13</ele>
        <time>2019-05-01T08:55:13Z</time>
      </trkpt>
      <trkpt lat="46.39941" lon="-1.48678">
        <ele>12</ele>
        <time>2019-05-01T08:55:25Z</time>
      </trkpt>
      <trkpt lat="46.3997" lon="-1.48631">
        <ele>14</ele>
        <time>2019-05-01T08:55:38Z</time>
      </trkpt>
      <trkpt lat="46.39985" lon="-1.48617">
        <ele>14</ele>
        <time>2019-05-01T08:55:43Z</time>
      </trkpt>
      <trkpt lat="46.40082" lon="-1.48589">
        <ele>9</ele>
        <time>2019-05-01T08:56:01Z</time>
      </trkpt>
      <trkpt lat="46.40107" lon="-1.48608">
        <ele>9</ele>
        <time>2019-05-01T08:56:07Z</time>
      </trkpt>
      <trkpt lat="46.40158" lon="-1.48672">
        <ele>9</ele>
        <time>2019-05-01T08:56:25Z</time>
      </trkpt>
      <trkpt lat="46.4018" lon="-1.48741">
        <ele>10</ele>
        <time>2019-05-01T08:56:50Z</time>
      </trkpt>
      <trkpt lat="46.40243" lon="-1.48783">
        <ele>8</ele>
        <time>2019-05-01T08:57:08Z</time>
      </trkpt>
      <trkpt lat="46.40269" lon="-1.4883">
        <ele>8</ele>
        <time>2019-05-01T08:57:19Z</time>
      </trkpt>
      <trkpt lat="46.40294" lon="-1.48922">
        <ele>9</ele>
        <time>2019-05-01T08:57:31Z</time>
      </trkpt>
      <trkpt lat="46.40322" lon="-1.48956">
        <ele>9</ele>
        <time>2019-05-01T08:57:37Z</time>
      </trkpt>
      <trkpt lat="46.40372" lon="-1.49053">
        <ele>10</ele>
        <time>2019-05-01T08:57:55Z</time>
      </trkpt>
      <trkpt lat="46.40412" lon="-1.49045">
        <ele>11</ele>
        <time>2019-05-01T08:58:07Z</time>
      </trkpt>
      <trkpt lat="46.40455" lon="-1.48951">
        <ele>11</ele>
        <time>2019-05-01T08:58:25Z</time>
      </trkpt>
      <trkpt lat="46.40477" lon="-1.48964">
        <ele>11</ele>
        <time>2019-05-01T08:58:31Z</time>
      </trkpt>
      <trkpt lat="46.40518" lon="-1.49016">
        <ele>12</ele>
        <time>2019-05-01T08:58:43Z</time>
      </trkpt>
      <trkpt lat="46.40569" lon="-1.4905">
        <ele>10</ele>
        <time>2019-05-01T08:58:55Z</time>
      </trkpt>
      <trkpt lat="46.40633" lon="-1.49112">
        <ele>10</ele>
        <time>2019-05-01T08:59:13Z</time>
      </trkpt>
      <trkpt lat="46.40717" lon="-1.4921">
        <ele>14</ele>
        <time>2019-05-01T08:59:37Z</time>
      </trkpt>
      <trkpt lat="46.40756" lon="-1.49241">
        <ele>14</ele>
        <time>2019-05-01T08:59:49Z</time>
      </trkpt>
      <trkpt lat="46.4076" lon="-1.4934">
        <ele>15</ele>
        <time>2019-05-01T09:00:19Z</time>
      </trkpt>
      <trkpt lat="46.40643" lon="-1.49462">
        <ele>17</ele>
        <time>2019-05-01T09:00:55Z</time>
      </trkpt>
      <trkpt lat="46.40574" lon="-1.49561">
        <ele>17</ele>
        <time>2019-05-01T09:01:13Z</time>
      </trkpt>
      <trkpt lat="46.4042" lon="-1.49832">
        <ele>14</ele>
        <time>2019-05-01T09:02:07Z</time>
      </trkpt>
      <trkpt lat="46.40367" lon="-1.49973">
        <ele>18</ele>
        <time>2019-05-01T09:02:38Z</time>
      </trkpt>
      <trkpt lat="46.40355" lon="-1.50024">
        <ele>18</ele>
        <time>2019-05-01T09:02:49Z</time>
      </trkpt>
      <trkpt lat="46.40339" lon="-1.50045">
        <ele>19</ele>
        <time>2019-05-01T09:03:01Z</time>
      </trkpt>
      <trkpt lat="46.40399" lon="-1.50121">
        <ele>20</ele>
        <time>2019-05-01T09:03:51Z</time>
      </trkpt>
      <trkpt lat="46.4058" lon="-1.50288">
        <ele>22</ele>
        <time>2019-05-01T09:04:57Z</time>
      </trkpt>
      <trkpt lat="46.40667" lon="-1.50398">
        <ele>18</ele>
        <time>2019-05-01T09:05:15Z</time>
      </trkpt>
      <trkpt lat="46.4072" lon="-1.50384">
        <ele>17</ele>
        <time>2019-05-01T09:05:27Z</time>
      </trkpt>
      <trkpt lat="46.40914" lon="-1.50283">
        <ele>22</ele>
        <time>2019-05-01T09:06:21Z</time>
      </trkpt>
      <trkpt lat="46.40974" lon="-1.50242">
        <ele>21</ele>
        <time>2019-05-01T09:06:33Z</time>
      </trkpt>
      <trkpt lat="46.41039" lon="-1.50219">
        <ele>20</ele>
        <time>2019-05-01T09:06:51Z</time>
      </trkpt>
      <trkpt lat="46.41053" lon="-1.50277">
        <ele>18</ele>
        <time>2019-05-01T09:07:03Z</time>
      </trkpt>
      <trkpt lat="46.41032" lon="-1.50308">
        <ele>21</ele>
        <time>2019-05-01T09:07:15Z</time>
      </trkpt>
      <trkpt lat="46.41017" lon="-1.50372">
        <ele>21</ele>
        <time>2019-05-01T09:07:27Z</time>
      </trkpt>
      <trkpt lat="46.4104" lon="-1.5047">
        <ele>21</ele>
        <time>2019-05-01T09:07:45Z</time>
      </trkpt>
      <trkpt lat="46.41073" lon="-1.50517">
        <ele>20</ele>
        <time>2019-05-01T09:07:57Z</time>
      </trkpt>
      <trkpt lat="46.41109" lon="-1.50839">
        <ele>21</ele>
        <time>2019-05-01T09:08:45Z</time>
      </trkpt>
      <trkpt lat="46.4111" lon="-1.5089">
        <ele>22</ele>
        <time>2019-05-01T09:08:51Z</time>
      </trkpt>
      <trkpt lat="46.41093" lon="-1.50951">
        <ele>23</ele>
        <time>2019-05-01T09:09:04Z</time>
      </trkpt>
      <trkpt lat="46.41087" lon="-1.51013">
        <ele>27</ele>
        <time>2019-05-01T09:09:15Z</time>
      </trkpt>
      <trkpt lat="46.41095" lon="-1.51036">
        <ele>24</ele>
        <time>2019-05-01T09:09:22Z</time>
      </trkpt>
      <trkpt lat="46.41131" lon="-1.51075">
        <ele>25</ele>
        <time>2019-05-01T09:09:33Z</time>
      </trkpt>
      <trkpt lat="46.41149" lon="-1.51145">
        <ele>22</ele>
        <time>2019-05-01T09:09:45Z</time>
      </trkpt>
      <trkpt lat="46.41177" lon="-1.51211">
        <ele>25</ele>
        <time>2019-05-01T09:09:57Z</time>
      </trkpt>
      <trkpt lat="46.41268" lon="-1.5135">
        <ele>21</ele>
        <time>2019-05-01T09:10:21Z</time>
      </trkpt>
      <trkpt lat="46.41319" lon="-1.514">
        <ele>18</ele>
        <time>2019-05-01T09:10:33Z</time>
      </trkpt>
      <trkpt lat="46.41354" lon="-1.51597">
        <ele>18</ele>
        <time>2019-05-01T09:11:03Z</time>
      </trkpt>
      <trkpt lat="46.41376" lon="-1.51814">
        <ele>15</ele>
        <time>2019-05-01T09:11:39Z</time>
      </trkpt>
      <trkpt lat="46.41365" lon="-1.51968">
        <ele>16</ele>
        <time>2019-05-01T09:12:03Z</time>
      </trkpt>
      <trkpt lat="46.41314" lon="-1.52393">
        <ele>14</ele>
        <time>2019-05-01T09:12:58Z</time>
      </trkpt>
      <trkpt lat="46.41308" lon="-1.52592">
        <ele>15</ele>
        <time>2019-05-01T09:13:27Z</time>
      </trkpt>
      <trkpt lat="46.41272" lon="-1.52687">
        <ele>16</ele>
        <time>2019-05-01T09:13:45Z</time>
      </trkpt>
      <trkpt lat="46.41258" lon="-1.52756">
        <ele>16</ele>
        <time>2019-05-01T09:13:57Z</time>
      </trkpt>
      <trkpt lat="46.41243" lon="-1.53003">
        <ele>13</ele>
        <time>2019-05-01T09:14:33Z</time>
      </trkpt>
      <trkpt lat="46.4125" lon="-1.53046">
        <ele>13</ele>
        <time>2019-05-01T09:14:45Z</time>
      </trkpt>
      <trkpt lat="46.41235" lon="-1.53192">
        <ele>12</ele>
        <time>2019-05-01T09:15:15Z</time>
      </trkpt>
      <trkpt lat="46.41241" lon="-1.53221">
        <ele>12</ele>
        <time>2019-05-01T09:15:37Z</time>
      </trkpt>
      <trkpt lat="46.4121" lon="-1.53299">
        <ele>13</ele>
        <time>2019-05-01T09:15:55Z</time>
      </trkpt>
      <trkpt lat="46.41163" lon="-1.53379">
        <ele>13</ele>
        <time>2019-05-01T09:16:13Z</time>
      </trkpt>
      <trkpt lat="46.41143" lon="-1.53436">
        <ele>10</ele>
        <time>2019-05-01T09:16:25Z</time>
      </trkpt>
      <trkpt lat="46.41083" lon="-1.53763">
        <ele>9</ele>
        <time>2019-05-01T09:17:25Z</time>
      </trkpt>
      <trkpt lat="46.41072" lon="-1.53867">
        <ele>8</ele>
        <time>2019-05-01T09:17:43Z</time>
      </trkpt>
      <trkpt lat="46.41023" lon="-1.54097">
        <ele>2</ele>
        <time>2019-05-01T09:18:19Z</time>
      </trkpt>
      <trkpt lat="46.41023" lon="-1.5413">
        <ele>2</ele>
        <time>2019-05-01T09:18:31Z</time>
      </trkpt>
      <trkpt lat="46.41016" lon="-1.54146">
        <ele>2</ele>
        <time>2019-05-01T09:18:43Z</time>
      </trkpt>
      <trkpt lat="46.41015" lon="-1.54127">
        <ele>2</ele>
        <time>2019-05-01T09:18:55Z</time>
      </trkpt>
      <trkpt lat="46.41008" lon="-1.54124">
        <ele>2</ele>
        <time>2019-05-01T09:19:07Z</time>
      </trkpt>
      <trkpt lat="46.41006" lon="-1.54139">
        <ele>2</ele>
        <time>2019-05-01T09:19:26Z</time>
      </trkpt>
      <trkpt lat="46.41004" lon="-1.54127">
        <ele>2</ele>
        <time>2019-05-01T09:19:31Z</time>
      </trkpt>
      <trkpt lat="46.4102" lon="-1.5413">
        <ele>2</ele>
        <time>2019-05-01T09:19:54Z</time>
      </trkpt>
      <trkpt lat="46.40988" lon="-1.54247">
        <ele>3.5</ele>
        <time>2019-05-01T09:20:25Z</time>
      </trkpt>
      <trkpt lat="46.40946" lon="-1.54357">
        <ele>3</ele>
        <time>2019-05-01T09:20:49Z</time>
      </trkpt>
      <trkpt lat="46.40948" lon="-1.54446">
        <ele>4</ele>
        <time>2019-05-01T09:21:07Z</time>
      </trkpt>
      <trkpt lat="46.4098" lon="-1.54539">
        <ele>4</ele>
        <time>2019-05-01T09:21:25Z</time>
      </trkpt>
      <trkpt lat="46.41032" lon="-1.54621">
        <ele>4</ele>
        <time>2019-05-01T09:21:49Z</time>
      </trkpt>
      <trkpt lat="46.4117" lon="-1.54943">
        <ele>7</ele>
        <time>2019-05-01T09:23:13Z</time>
      </trkpt>
      <trkpt lat="46.41394" lon="-1.54884">
        <ele>8</ele>
        <time>2019-05-01T09:25:11Z</time>
      </trkpt>
      <trkpt lat="46.41414" lon="-1.54891">
        <ele>8</ele>
        <time>2019-05-01T09:25:29Z</time>
      </trkpt>
      <trkpt lat="46.41437" lon="-1.5519">
        <ele>12</ele>
        <time>2019-05-01T09:26:35Z</time>
      </trkpt>
      <trkpt lat="46.41494" lon="-1.55472">
        <ele>13</ele>
        <time>2019-05-01T09:27:29Z</time>
      </trkpt>
      <trkpt lat="46.41534" lon="-1.55856">
        <ele>13</ele>
        <time>2019-05-01T09:28:29Z</time>
      </trkpt>
      <trkpt lat="46.41537" lon="-1.55952">
        <ele>14</ele>
        <time>2019-05-01T09:28:47Z</time>
      </trkpt>
      <trkpt lat="46.41498" lon="-1.56292">
        <ele>15</ele>
        <time>2019-05-01T09:29:47Z</time>
      </trkpt>
      <trkpt lat="46.41494" lon="-1.56416">
        <ele>14</ele>
        <time>2019-05-01T09:30:11Z</time>
      </trkpt>
      <trkpt lat="46.41517" lon="-1.56679">
        <ele>12</ele>
        <time>2019-05-01T09:30:59Z</time>
      </trkpt>
      <trkpt lat="46.41537" lon="-1.56793">
        <ele>12</ele>
        <time>2019-05-01T09:31:23Z</time>
      </trkpt>
      <trkpt lat="46.41558" lon="-1.56866">
        <ele>12</ele>
        <time>2019-05-01T09:31:35Z</time>
      </trkpt>
      <trkpt lat="46.41643" lon="-1.5704">
        <ele>11</ele>
        <time>2019-05-01T09:32:05Z</time>
      </trkpt>
      <trkpt lat="46.41676" lon="-1.57163">
        <ele>10</ele>
        <time>2019-05-01T09:32:23Z</time>
      </trkpt>
      <trkpt lat="46.41719" lon="-1.57256">
        <ele>10</ele>
        <time>2019-05-01T09:32:49Z</time>
      </trkpt>
      <trkpt lat="46.41796" lon="-1.57366">
        <ele>11</ele>
        <time>2019-05-01T09:33:24Z</time>
      </trkpt>
      <trkpt lat="46.41812" lon="-1.5741">
        <ele>13</ele>
        <time>2019-05-01T09:33:36Z</time>
      </trkpt>
      <trkpt lat="46.41711" lon="-1.57541">
        <ele>12</ele>
        <time>2019-05-01T09:34:36Z</time>
      </trkpt>
      <trkpt lat="46.41718" lon="-1.57579">
        <ele>12</ele>
        <time>2019-05-01T09:34:48Z</time>
      </trkpt>
      <trkpt lat="46.41708" lon="-1.57557">
        <ele>12</ele>
        <time>2019-05-01T09:35:07Z</time>
      </trkpt>
      <trkpt lat="46.41716" lon="-1.57562">
        <ele>12</ele>
        <time>2019-05-01T09:35:14Z</time>
      </trkpt>
      <trkpt lat="46.41718" lon="-1.57596">
        <ele>12</ele>
        <time>2019-05-01T09:35:26Z</time>
      </trkpt>
      <trkpt lat="46.41703" lon="-1.57729">
        <ele>14</ele>
        <time>2019-05-01T09:36:02Z</time>
      </trkpt>
      <trkpt lat="46.41696" lon="-1.57741">
        <ele>14</ele>
        <time>2019-05-01T09:36:14Z</time>
      </trkpt>
      <trkpt lat="46.41673" lon="-1.57745">
        <ele>14</ele>
        <time>2019-05-01T09:36:38Z</time>
      </trkpt>
      <trkpt lat="46.41698" lon="-1.57741">
        <ele>14</ele>
        <time>2019-05-01T09:37:02Z</time>
      </trkpt>
      <trkpt lat="46.417" lon="-1.57732">
        <ele>14</ele>
        <time>2019-05-01T09:37:20Z</time>
      </trkpt>
      <trkpt lat="46.417" lon="-1.57745">
        <ele>14</ele>
        <time>2019-05-01T09:37:28Z</time>
      </trkpt>
      <trkpt lat="46.41665" lon="-1.57742">
        <ele>14</ele>
        <time>2019-05-01T09:37:52Z</time>
      </trkpt>
      <trkpt lat="46.41687" lon="-1.57627">
        <ele>13</ele>
        <time>2019-05-01T09:38:28Z</time>
      </trkpt>
      <trkpt lat="46.41677" lon="-1.57589">
        <ele>13</ele>
        <time>2019-05-01T09:38:40Z</time>
      </trkpt>
      <trkpt lat="46.41587" lon="-1.57646">
        <ele>14</ele>
        <time>2019-05-01T09:39:28Z</time>
      </trkpt>
      <trkpt lat="46.41492" lon="-1.5769">
        <ele>13</ele>
        <time>2019-05-01T09:39:58Z</time>
      </trkpt>
      <trkpt lat="46.41337" lon="-1.57685">
        <ele>13</ele>
        <time>2019-05-01T09:40:40Z</time>
      </trkpt>
      <trkpt lat="46.41292" lon="-1.57698">
        <ele>13</ele>
        <time>2019-05-01T09:40:52Z</time>
      </trkpt>
      <trkpt lat="46.4126" lon="-1.57731">
        <ele>13</ele>
        <time>2019-05-01T09:41:04Z</time>
      </trkpt>
      <trkpt lat="46.41249" lon="-1.57726">
        <ele>13</ele>
        <time>2019-05-01T09:41:10Z</time>
      </trkpt>
      <trkpt lat="46.41249" lon="-1.57703">
        <ele>13</ele>
        <time>2019-05-01T09:41:22Z</time>
      </trkpt>
      <trkpt lat="46.41264" lon="-1.57705">
        <ele>13</ele>
        <time>2019-05-01T09:41:28Z</time>
      </trkpt>
      <trkpt lat="46.41243" lon="-1.57837">
        <ele>14</ele>
        <time>2019-05-01T09:41:58Z</time>
      </trkpt>
      <trkpt lat="46.41197" lon="-1.57913">
        <ele>13</ele>
        <time>2019-05-01T09:42:22Z</time>
      </trkpt>
      <trkpt lat="46.41174" lon="-1.5797">
        <ele>13</ele>
        <time>2019-05-01T09:42:34Z</time>
      </trkpt>
      <trkpt lat="46.41086" lon="-1.58087">
        <ele>12</ele>
        <time>2019-05-01T09:43:10Z</time>
      </trkpt>
      <trkpt lat="46.4102" lon="-1.58193">
        <ele>10</ele>
        <time>2019-05-01T09:43:40Z</time>
      </trkpt>
      <trkpt lat="46.40989" lon="-1.58268">
        <ele>6.6</ele>
        <time>2019-05-01T09:44:09Z</time>
      </trkpt>
      <trkpt lat="46.41003" lon="-1.58221">
        <ele>11</ele>
        <time>2019-05-01T09:44:22Z</time>
      </trkpt>
      <trkpt lat="46.41029" lon="-1.58229">
        <ele>11</ele>
        <time>2019-05-01T09:44:34Z</time>
      </trkpt>
      <trkpt lat="46.41118" lon="-1.58198">
        <ele>12</ele>
        <time>2019-05-01T09:44:58Z</time>
      </trkpt>
      <trkpt lat="46.41152" lon="-1.58173">
        <ele>13</ele>
        <time>2019-05-01T09:45:10Z</time>
      </trkpt>
      <trkpt lat="46.41251" lon="-1.58091">
        <ele>16</ele>
        <time>2019-05-01T09:45:52Z</time>
      </trkpt>
      <trkpt lat="46.41346" lon="-1.57984">
        <ele>16</ele>
        <time>2019-05-01T09:46:34Z</time>
      </trkpt>
      <trkpt lat="46.41444" lon="-1.57907">
        <ele>14</ele>
        <time>2019-05-01T09:46:58Z</time>
      </trkpt>
      <trkpt lat="46.41477" lon="-1.57865">
        <ele>15</ele>
        <time>2019-05-01T09:47:17Z</time>
      </trkpt>
      <trkpt lat="46.41511" lon="-1.57915">
        <ele>15</ele>
        <time>2019-05-01T09:47:36Z</time>
      </trkpt>
      <trkpt lat="46.41654" lon="-1.57979">
        <ele>16</ele>
        <time>2019-05-01T09:48:24Z</time>
      </trkpt>
      <trkpt lat="46.41752" lon="-1.57955">
        <ele>14</ele>
        <time>2019-05-01T09:48:54Z</time>
      </trkpt>
      <trkpt lat="46.41751" lon="-1.57912">
        <ele>14</ele>
        <time>2019-05-01T09:49:12Z</time>
      </trkpt>
      <trkpt lat="46.41783" lon="-1.57894">
        <ele>14</ele>
        <time>2019-05-01T09:49:24Z</time>
      </trkpt>
      <trkpt lat="46.41996" lon="-1.57865">
        <ele>11</ele>
        <time>2019-05-01T09:50:30Z</time>
      </trkpt>
      <trkpt lat="46.42054" lon="-1.57872">
        <ele>11</ele>
        <time>2019-05-01T09:51:00Z</time>
      </trkpt>
      <trkpt lat="46.42029" lon="-1.58198">
        <ele>12</ele>
        <time>2019-05-01T09:53:00Z</time>
      </trkpt>
      <trkpt lat="46.4202" lon="-1.58211">
        <ele>12</ele>
        <time>2019-05-01T09:53:06Z</time>
      </trkpt>
      <trkpt lat="46.41963" lon="-1.58235">
        <ele>12</ele>
        <time>2019-05-01T09:53:24Z</time>
      </trkpt>
      <trkpt lat="46.41907" lon="-1.58274">
        <ele>12</ele>
        <time>2019-05-01T09:53:42Z</time>
      </trkpt>
      <trkpt lat="46.41885" lon="-1.58308">
        <ele>13</ele>
        <time>2019-05-01T09:53:54Z</time>
      </trkpt>
      <trkpt lat="46.41886" lon="-1.58636">
        <ele>12</ele>
        <time>2019-05-01T09:55:00Z</time>
      </trkpt>
      <trkpt lat="46.41884" lon="-1.5865">
        <ele>12</ele>
        <time>2019-05-01T09:55:06Z</time>
      </trkpt>
      <trkpt lat="46.41862" lon="-1.58672">
        <ele>12</ele>
        <time>2019-05-01T09:55:18Z</time>
      </trkpt>
      <trkpt lat="46.4185" lon="-1.58728">
        <ele>13</ele>
        <time>2019-05-01T09:55:36Z</time>
      </trkpt>
      <trkpt lat="46.41854" lon="-1.58961">
        <ele>15</ele>
        <time>2019-05-01T09:56:30Z</time>
      </trkpt>
      <trkpt lat="46.41872" lon="-1.59116">
        <ele>15</ele>
        <time>2019-05-01T09:57:00Z</time>
      </trkpt>
      <trkpt lat="46.4191" lon="-1.59309">
        <ele>13</ele>
        <time>2019-05-01T09:57:36Z</time>
      </trkpt>
      <trkpt lat="46.41933" lon="-1.59563">
        <ele>13</ele>
        <time>2019-05-01T09:58:30Z</time>
      </trkpt>
      <trkpt lat="46.41913" lon="-1.59728">
        <ele>13</ele>
        <time>2019-05-01T09:59:00Z</time>
      </trkpt>
      <trkpt lat="46.41918" lon="-1.59829">
        <ele>14</ele>
        <time>2019-05-01T09:59:24Z</time>
      </trkpt>
      <trkpt lat="46.4195" lon="-1.59927">
        <ele>14</ele>
        <time>2019-05-01T09:59:59Z</time>
      </trkpt>
      <trkpt lat="46.41949" lon="-1.59919">
        <ele>13</ele>
        <time>2019-05-01T10:00:05Z</time>
      </trkpt>
      <trkpt lat="46.41933" lon="-1.5992">
        <ele>15</ele>
        <time>2019-05-01T10:00:17Z</time>
      </trkpt>
      <trkpt lat="46.41907" lon="-1.59947">
        <ele>15</ele>
        <time>2019-05-01T10:00:29Z</time>
      </trkpt>
      <trkpt lat="46.41811" lon="-1.60089">
        <ele>16</ele>
        <time>2019-05-01T10:01:05Z</time>
      </trkpt>
      <trkpt lat="46.418" lon="-1.60159">
        <ele>16</ele>
        <time>2019-05-01T10:01:17Z</time>
      </trkpt>
      <trkpt lat="46.418" lon="-1.6026">
        <ele>16</ele>
        <time>2019-05-01T10:01:35Z</time>
      </trkpt>
      <trkpt lat="46.41787" lon="-1.60319">
        <ele>18</ele>
        <time>2019-05-01T10:01:47Z</time>
      </trkpt>
      <trkpt lat="46.41683" lon="-1.60355">
        <ele>20</ele>
        <time>2019-05-01T10:02:17Z</time>
      </trkpt>
      <trkpt lat="46.41562" lon="-1.60377">
        <ele>19</ele>
        <time>2019-05-01T10:02:53Z</time>
      </trkpt>
      <trkpt lat="46.41267" lon="-1.60458">
        <ele>1</ele>
        <time>2019-05-01T10:04:17Z</time>
      </trkpt>
      <trkpt lat="46.41242" lon="-1.60475">
        <ele>3.1</ele>
        <time>2019-05-01T10:04:53Z</time>
      </trkpt>
      <trkpt lat="46.41246" lon="-1.60464">
        <ele>1</ele>
        <time>2019-05-01T10:05:11Z</time>
      </trkpt>
      <trkpt lat="46.41265" lon="-1.60462">
        <ele>1</ele>
        <time>2019-05-01T10:05:38Z</time>
      </trkpt>
      <trkpt lat="46.41269" lon="-1.60449">
        <ele>1</ele>
        <time>2019-05-01T10:05:46Z</time>
      </trkpt>
      <trkpt lat="46.4127" lon="-1.60457">
        <ele>1</ele>
        <time>2019-05-01T10:05:47Z</time>
      </trkpt>
      <trkpt lat="46.41381" lon="-1.60432">
        <ele>14</ele>
        <time>2019-05-01T10:06:35Z</time>
      </trkpt>
      <trkpt lat="46.415" lon="-1.60389">
        <ele>16</ele>
        <time>2019-05-01T10:07:23Z</time>
      </trkpt>
      <trkpt lat="46.41683" lon="-1.60349">
        <ele>20</ele>
        <time>2019-05-01T10:08:23Z</time>
      </trkpt>
      <trkpt lat="46.42068" lon="-1.6024">
        <ele>15</ele>
        <time>2019-05-01T10:10:19Z</time>
      </trkpt>
      <trkpt lat="46.42161" lon="-1.60286">
        <ele>10</ele>
        <time>2019-05-01T10:10:43Z</time>
      </trkpt>
      <trkpt lat="46.42218" lon="-1.60131">
        <ele>8</ele>
        <time>2019-05-01T10:11:07Z</time>
      </trkpt>
      <trkpt lat="46.42259" lon="-1.59958">
        <ele>8</ele>
        <time>2019-05-01T10:11:37Z</time>
      </trkpt>
      <trkpt lat="46.4228" lon="-1.59807">
        <ele>8</ele>
        <time>2019-05-01T10:12:01Z</time>
      </trkpt>
      <trkpt lat="46.42323" lon="-1.59687">
        <ele>10</ele>
        <time>2019-05-01T10:12:25Z</time>
      </trkpt>
      <trkpt lat="46.4231" lon="-1.59618">
        <ele>12</ele>
        <time>2019-05-01T10:12:54Z</time>
      </trkpt>
      <trkpt lat="46.42347" lon="-1.59546">
        <ele>12</ele>
        <time>2019-05-01T10:13:10Z</time>
      </trkpt>
      <trkpt lat="46.42461" lon="-1.59412">
        <ele>12</ele>
        <time>2019-05-01T10:13:52Z</time>
      </trkpt>
      <trkpt lat="46.42611" lon="-1.59204">
        <ele>13</ele>
        <time>2019-05-01T10:14:46Z</time>
      </trkpt>
      <trkpt lat="46.42662" lon="-1.59087">
        <ele>14</ele>
        <time>2019-05-01T10:15:10Z</time>
      </trkpt>
      <trkpt lat="46.4272" lon="-1.58894">
        <ele>14</ele>
        <time>2019-05-01T10:15:46Z</time>
      </trkpt>
      <trkpt lat="46.42746" lon="-1.58849">
        <ele>14</ele>
        <time>2019-05-01T10:15:58Z</time>
      </trkpt>
      <trkpt lat="46.42848" lon="-1.58887">
        <ele>10</ele>
        <time>2019-05-01T10:16:22Z</time>
      </trkpt>
      <trkpt lat="46.42914" lon="-1.58948">
        <ele>6</ele>
        <time>2019-05-01T10:16:34Z</time>
      </trkpt>
      <trkpt lat="46.42992" lon="-1.5911">
        <ele>1</ele>
        <time>2019-05-01T10:16:52Z</time>
      </trkpt>
      <trkpt lat="46.4303" lon="-1.59217">
        <ele>2</ele>
        <time>2019-05-01T10:17:10Z</time>
      </trkpt>
      <trkpt lat="46.43129" lon="-1.59317">
        <ele>1</ele>
        <time>2019-05-01T10:17:40Z</time>
      </trkpt>
      <trkpt lat="46.43193" lon="-1.59445">
        <ele>1</ele>
        <time>2019-05-01T10:18:10Z</time>
      </trkpt>
      <trkpt lat="46.43278" lon="-1.59555">
        <ele>1</ele>
        <time>2019-05-01T10:18:46Z</time>
      </trkpt>
      <trkpt lat="46.43314" lon="-1.59616">
        <ele>1</ele>
        <time>2019-05-01T10:19:04Z</time>
      </trkpt>
      <trkpt lat="46.4335" lon="-1.59698">
        <ele>2.4</ele>
        <time>2019-05-01T10:19:22Z</time>
      </trkpt>
      <trkpt lat="46.43399" lon="-1.59912">
        <ele>3</ele>
        <time>2019-05-01T10:20:10Z</time>
      </trkpt>
      <trkpt lat="46.43441" lon="-1.60042">
        <ele>2</ele>
        <time>2019-05-01T10:20:40Z</time>
      </trkpt>
      <trkpt lat="46.4346" lon="-1.60156">
        <ele>3</ele>
        <time>2019-05-01T10:21:04Z</time>
      </trkpt>
      <trkpt lat="46.43498" lon="-1.60187">
        <ele>3</ele>
        <time>2019-05-01T10:21:16Z</time>
      </trkpt>
      <trkpt lat="46.43553" lon="-1.60286">
        <ele>1</ele>
        <time>2019-05-01T10:21:40Z</time>
      </trkpt>
      <trkpt lat="46.43572" lon="-1.60298">
        <ele>1</ele>
        <time>2019-05-01T10:21:46Z</time>
      </trkpt>
      <trkpt lat="46.43715" lon="-1.60285">
        <ele>3</ele>
        <time>2019-05-01T10:22:34Z</time>
      </trkpt>
      <trkpt lat="46.43718" lon="-1.60338">
        <ele>3</ele>
        <time>2019-05-01T10:22:46Z</time>
      </trkpt>
      <trkpt lat="46.43746" lon="-1.60384">
        <ele>3</ele>
        <time>2019-05-01T10:22:58Z</time>
      </trkpt>
      <trkpt lat="46.43811" lon="-1.6033">
        <ele>3</ele>
        <time>2019-05-01T10:23:16Z</time>
      </trkpt>
      <trkpt lat="46.4391" lon="-1.60216">
        <ele>2</ele>
        <time>2019-05-01T10:23:46Z</time>
      </trkpt>
      <trkpt lat="46.44064" lon="-1.60207">
        <ele>1</ele>
        <time>2019-05-01T10:24:28Z</time>
      </trkpt>
      <trkpt lat="46.44102" lon="-1.60243">
        <ele>3</ele>
        <time>2019-05-01T10:24:40Z</time>
      </trkpt>
      <trkpt lat="46.44096" lon="-1.60345">
        <ele>4</ele>
        <time>2019-05-01T10:24:58Z</time>
      </trkpt>
      <trkpt lat="46.44102" lon="-1.60417">
        <ele>3</ele>
        <time>2019-05-01T10:25:10Z</time>
      </trkpt>
      <trkpt lat="46.44109" lon="-1.60445">
        <ele>3</ele>
        <time>2019-05-01T10:25:16Z</time>
      </trkpt>
      <trkpt lat="46.44154" lon="-1.60526">
        <ele>4</ele>
        <time>2019-05-01T10:25:34Z</time>
      </trkpt>
      <trkpt lat="46.44191" lon="-1.60671">
        <ele>3</ele>
        <time>2019-05-01T10:26:04Z</time>
      </trkpt>
      <trkpt lat="46.44164" lon="-1.60909">
        <ele>5</ele>
        <time>2019-05-01T10:26:52Z</time>
      </trkpt>
      <trkpt lat="46.44197" lon="-1.61168">
        <ele>3</ele>
        <time>2019-05-01T10:27:34Z</time>
      </trkpt>
      <trkpt lat="46.44185" lon="-1.61203">
        <ele>3</ele>
        <time>2019-05-01T10:27:40Z</time>
      </trkpt>
      <trkpt lat="46.44138" lon="-1.61244">
        <ele>3</ele>
        <time>2019-05-01T10:27:52Z</time>
      </trkpt>
      <trkpt lat="46.4412" lon="-1.61311">
        <ele>4</ele>
        <time>2019-05-01T10:28:04Z</time>
      </trkpt>
      <trkpt lat="46.44128" lon="-1.61382">
        <ele>4</ele>
        <time>2019-05-01T10:28:16Z</time>
      </trkpt>
      <trkpt lat="46.44153" lon="-1.61468">
        <ele>4</ele>
        <time>2019-05-01T10:28:34Z</time>
      </trkpt>
      <trkpt lat="46.44185" lon="-1.61498">
        <ele>5</ele>
        <time>2019-05-01T10:28:46Z</time>
      </trkpt>
      <trkpt lat="46.44361" lon="-1.6143">
        <ele>7</ele>
        <time>2019-05-01T10:29:34Z</time>
      </trkpt>
      <trkpt lat="46.44495" lon="-1.61431">
        <ele>8</ele>
        <time>2019-05-01T10:30:25Z</time>
      </trkpt>
      <trkpt lat="46.44369" lon="-1.61436">
        <ele>7</ele>
        <time>2019-05-01T10:31:00Z</time>
      </trkpt>
      <trkpt lat="46.44172" lon="-1.61517">
        <ele>4</ele>
        <time>2019-05-01T10:31:54Z</time>
      </trkpt>
      <trkpt lat="46.44089" lon="-1.61997">
        <ele>2</ele>
        <time>2019-05-01T10:33:30Z</time>
      </trkpt>
      <trkpt lat="46.44104" lon="-1.62084">
        <ele>4</ele>
        <time>2019-05-01T10:33:48Z</time>
      </trkpt>
      <trkpt lat="46.44138" lon="-1.62185">
        <ele>4</ele>
        <time>2019-05-01T10:34:12Z</time>
      </trkpt>
      <trkpt lat="46.44178" lon="-1.62343">
        <ele>4</ele>
        <time>2019-05-01T10:34:42Z</time>
      </trkpt>
      <trkpt lat="46.44166" lon="-1.62476">
        <ele>4</ele>
        <time>2019-05-01T10:35:06Z</time>
      </trkpt>
      <trkpt lat="46.44193" lon="-1.6258">
        <ele>4</ele>
        <time>2019-05-01T10:35:30Z</time>
      </trkpt>
      <trkpt lat="46.44211" lon="-1.62709">
        <ele>4</ele>
        <time>2019-05-01T10:35:54Z</time>
      </trkpt>
      <trkpt lat="46.44208" lon="-1.62736">
        <ele>5</ele>
        <time>2019-05-01T10:36:00Z</time>
      </trkpt>
      <trkpt lat="46.44165" lon="-1.62789">
        <ele>5</ele>
        <time>2019-05-01T10:36:18Z</time>
      </trkpt>
      <trkpt lat="46.44159" lon="-1.62813">
        <ele>3</ele>
        <time>2019-05-01T10:36:24Z</time>
      </trkpt>
      <trkpt lat="46.44164" lon="-1.62865">
        <ele>3</ele>
        <time>2019-05-01T10:36:36Z</time>
      </trkpt>
      <trkpt lat="46.44178" lon="-1.62918">
        <ele>4</ele>
        <time>2019-05-01T10:36:56Z</time>
      </trkpt>
      <trkpt lat="46.44193" lon="-1.62929">
        <ele>4</ele>
        <time>2019-05-01T10:37:04Z</time>
      </trkpt>
      <trkpt lat="46.44239" lon="-1.62932">
        <ele>4</ele>
        <time>2019-05-01T10:37:22Z</time>
      </trkpt>
      <trkpt lat="46.44307" lon="-1.6296">
        <ele>4</ele>
        <time>2019-05-01T10:37:46Z</time>
      </trkpt>
      <trkpt lat="46.44398" lon="-1.62961">
        <ele>4</ele>
        <time>2019-05-01T10:38:10Z</time>
      </trkpt>
      <trkpt lat="46.44454" lon="-1.6307">
        <ele>4</ele>
        <time>2019-05-01T10:38:40Z</time>
      </trkpt>
      <trkpt lat="46.44531" lon="-1.6315">
        <ele>2</ele>
        <time>2019-05-01T10:39:04Z</time>
      </trkpt>
      <trkpt lat="46.44567" lon="-1.63233">
        <ele>3</ele>
        <time>2019-05-01T10:39:22Z</time>
      </trkpt>
      <trkpt lat="46.44734" lon="-1.63256">
        <ele>6</ele>
        <time>2019-05-01T10:40:16Z</time>
      </trkpt>
      <trkpt lat="46.44811" lon="-1.63534">
        <ele>8</ele>
        <time>2019-05-01T10:41:28Z</time>
      </trkpt>
      <trkpt lat="46.44818" lon="-1.63595">
        <ele>8</ele>
        <time>2019-05-01T10:41:40Z</time>
      </trkpt>
      <trkpt lat="46.44706" lon="-1.64118">
        <ele>9</ele>
        <time>2019-05-01T10:43:22Z</time>
      </trkpt>
      <trkpt lat="46.44699" lon="-1.64147">
        <ele>9</ele>
        <time>2019-05-01T10:43:28Z</time>
      </trkpt>
      <trkpt lat="46.44675" lon="-1.64177">
        <ele>9</ele>
        <time>2019-05-01T10:43:40Z</time>
      </trkpt>
      <trkpt lat="46.44676" lon="-1.64442">
        <ele>4</ele>
        <time>2019-05-01T10:44:28Z</time>
      </trkpt>
      <trkpt lat="46.44623" lon="-1.64451">
        <ele>4</ele>
        <time>2019-05-01T10:44:46Z</time>
      </trkpt>
      <trkpt lat="46.44611" lon="-1.64476">
        <ele>3</ele>
        <time>2019-05-01T10:44:52Z</time>
      </trkpt>
      <trkpt lat="46.4459" lon="-1.64605">
        <ele>3</ele>
        <time>2019-05-01T10:45:16Z</time>
      </trkpt>
      <trkpt lat="46.44592" lon="-1.64707">
        <ele>3</ele>
        <time>2019-05-01T10:45:34Z</time>
      </trkpt>
      <trkpt lat="46.44649" lon="-1.6481">
        <ele>2</ele>
        <time>2019-05-01T10:45:58Z</time>
      </trkpt>
      <trkpt lat="46.44659" lon="-1.6485">
        <ele>2</ele>
        <time>2019-05-01T10:46:10Z</time>
      </trkpt>
      <trkpt lat="46.44514" lon="-1.64866">
        <ele>5</ele>
        <time>2019-05-01T10:46:52Z</time>
      </trkpt>
      <trkpt lat="46.44356" lon="-1.64815">
        <ele>3</ele>
        <time>2019-05-01T10:47:34Z</time>
      </trkpt>
      <trkpt lat="46.44313" lon="-1.64812">
        <ele>3</ele>
        <time>2019-05-01T10:47:46Z</time>
      </trkpt>
      <trkpt lat="46.44303" lon="-1.64907">
        <ele>3</ele>
        <time>2019-05-01T10:48:04Z</time>
      </trkpt>
      <trkpt lat="46.44258" lon="-1.65058">
        <ele>3</ele>
        <time>2019-05-01T10:48:34Z</time>
      </trkpt>
      <trkpt lat="46.44232" lon="-1.6511">
        <ele>2</ele>
        <time>2019-05-01T10:48:46Z</time>
      </trkpt>
      <trkpt lat="46.44107" lon="-1.65229">
        <ele>7</ele>
        <time>2019-05-01T10:49:22Z</time>
      </trkpt>
      <trkpt lat="46.44052" lon="-1.65259">
        <ele>9</ele>
        <time>2019-05-01T10:49:40Z</time>
      </trkpt>
      <trkpt lat="46.44029" lon="-1.65284">
        <ele>9</ele>
        <time>2019-05-01T10:49:52Z</time>
      </trkpt>
      <trkpt lat="46.4403" lon="-1.65373">
        <ele>10</ele>
        <time>2019-05-01T10:50:16Z</time>
      </trkpt>
      <trkpt lat="46.44007" lon="-1.65566">
        <ele>15</ele>
        <time>2019-05-01T10:50:58Z</time>
      </trkpt>
      <trkpt lat="46.44021" lon="-1.65883">
        <ele>15</ele>
        <time>2019-05-01T10:51:58Z</time>
      </trkpt>
      <trkpt lat="46.44039" lon="-1.65998">
        <ele>10</ele>
        <time>2019-05-01T10:52:16Z</time>
      </trkpt>
      <trkpt lat="46.44019" lon="-1.66189">
        <ele>13</ele>
        <time>2019-05-01T10:53:07Z</time>
      </trkpt>
      <trkpt lat="46.44025" lon="-1.6622">
        <ele>11</ele>
        <time>2019-05-01T10:53:18Z</time>
      </trkpt>
      <trkpt lat="46.44065" lon="-1.66295">
        <ele>9</ele>
        <time>2019-05-01T10:53:42Z</time>
      </trkpt>
      <trkpt lat="46.44179" lon="-1.66411">
        <ele>10</ele>
        <time>2019-05-01T10:54:30Z</time>
      </trkpt>
      <trkpt lat="46.44229" lon="-1.66481">
        <ele>11</ele>
        <time>2019-05-01T10:54:52Z</time>
      </trkpt>
      <trkpt lat="46.44257" lon="-1.66638">
        <ele>12</ele>
        <time>2019-05-01T10:55:40Z</time>
      </trkpt>
      <trkpt lat="46.4424" lon="-1.66653">
        <ele>12</ele>
        <time>2019-05-01T10:56:16Z</time>
      </trkpt>
      <trkpt lat="46.44228" lon="-1.66648">
        <ele>12</ele>
        <time>2019-05-01T10:56:35Z</time>
      </trkpt>
      <trkpt lat="46.44253" lon="-1.66648">
        <ele>12</ele>
        <time>2019-05-01T10:56:48Z</time>
      </trkpt>
      <trkpt lat="46.44287" lon="-1.66676">
        <ele>13</ele>
        <time>2019-05-01T10:57:06Z</time>
      </trkpt>
      <trkpt lat="46.44342" lon="-1.66762">
        <ele>13</ele>
        <time>2019-05-01T10:57:36Z</time>
      </trkpt>
      <trkpt lat="46.44432" lon="-1.6694">
        <ele>14</ele>
        <time>2019-05-01T10:58:30Z</time>
      </trkpt>
      <trkpt lat="46.44445" lon="-1.67097">
        <ele>14</ele>
        <time>2019-05-01T10:59:30Z</time>
      </trkpt>
      <trkpt lat="46.44467" lon="-1.67166">
        <ele>14</ele>
        <time>2019-05-01T10:59:48Z</time>
      </trkpt>
      <trkpt lat="46.44502" lon="-1.67233">
        <ele>14</ele>
        <time>2019-05-01T11:00:06Z</time>
      </trkpt>
      <trkpt lat="46.44516" lon="-1.67314">
        <ele>14</ele>
        <time>2019-05-01T11:00:24Z</time>
      </trkpt>
      <trkpt lat="46.44526" lon="-1.6734">
        <ele>13</ele>
        <time>2019-05-01T11:00:30Z</time>
      </trkpt>
      <trkpt lat="46.44577" lon="-1.67387">
        <ele>15</ele>
        <time>2019-05-01T11:00:54Z</time>
      </trkpt>
      <trkpt lat="46.4468" lon="-1.67609">
        <ele>18</ele>
        <time>2019-05-01T11:01:54Z</time>
      </trkpt>
      <trkpt lat="46.44701" lon="-1.67691">
        <ele>20</ele>
        <time>2019-05-01T11:02:12Z</time>
      </trkpt>
      <trkpt lat="46.44709" lon="-1.67769">
        <ele>20</ele>
        <time>2019-05-01T11:02:24Z</time>
      </trkpt>
      <trkpt lat="46.44698" lon="-1.67924">
        <ele>20</ele>
        <time>2019-05-01T11:03:00Z</time>
      </trkpt>
      <trkpt lat="46.44706" lon="-1.67942">
        <ele>20</ele>
        <time>2019-05-01T11:03:12Z</time>
      </trkpt>
      <trkpt lat="46.44709" lon="-1.68065">
        <ele>22</ele>
        <time>2019-05-01T11:03:42Z</time>
      </trkpt>
      <trkpt lat="46.44721" lon="-1.68172">
        <ele>21</ele>
        <time>2019-05-01T11:04:06Z</time>
      </trkpt>
      <trkpt lat="46.4477" lon="-1.68366">
        <ele>19</ele>
        <time>2019-05-01T11:04:42Z</time>
      </trkpt>
      <trkpt lat="46.44803" lon="-1.68422">
        <ele>21</ele>
        <time>2019-05-01T11:04:54Z</time>
      </trkpt>
      <trkpt lat="46.45003" lon="-1.68612">
        <ele>18</ele>
        <time>2019-05-01T11:06:00Z</time>
      </trkpt>
      <trkpt lat="46.45057" lon="-1.68686">
        <ele>17</ele>
        <time>2019-05-01T11:06:18Z</time>
      </trkpt>
      <trkpt lat="46.45098" lon="-1.689">
        <ele>14</ele>
        <time>2019-05-01T11:06:48Z</time>
      </trkpt>
      <trkpt lat="46.45255" lon="-1.69562">
        <ele>14</ele>
        <time>2019-05-01T11:08:30Z</time>
      </trkpt>
      <trkpt lat="46.45256" lon="-1.6958">
        <ele>14</ele>
        <time>2019-05-01T11:08:36Z</time>
      </trkpt>
      <trkpt lat="46.45242" lon="-1.69611">
        <ele>15</ele>
        <time>2019-05-01T11:08:48Z</time>
      </trkpt>
      <trkpt lat="46.45264" lon="-1.69693">
        <ele>18</ele>
        <time>2019-05-01T11:09:12Z</time>
      </trkpt>
      <trkpt lat="46.4526" lon="-1.69723">
        <ele>18</ele>
        <time>2019-05-01T11:09:18Z</time>
      </trkpt>
      <trkpt lat="46.45226" lon="-1.6981">
        <ele>19</ele>
        <time>2019-05-01T11:09:36Z</time>
      </trkpt>
      <trkpt lat="46.45193" lon="-1.70154">
        <ele>20</ele>
        <time>2019-05-01T11:11:00Z</time>
      </trkpt>
      <trkpt lat="46.45233" lon="-1.70178">
        <ele>21</ele>
        <time>2019-05-01T11:11:24Z</time>
      </trkpt>
      <trkpt lat="46.45247" lon="-1.70241">
        <ele>22</ele>
        <time>2019-05-01T11:11:42Z</time>
      </trkpt>
      <trkpt lat="46.4524" lon="-1.70268">
        <ele>22</ele>
        <time>2019-05-01T11:11:48Z</time>
      </trkpt>
      <trkpt lat="46.4522" lon="-1.70293">
        <ele>22</ele>
        <time>2019-05-01T11:12:00Z</time>
      </trkpt>
      <trkpt lat="46.45219" lon="-1.70337">
        <ele>22</ele>
        <time>2019-05-01T11:12:16Z</time>
      </trkpt>
      <trkpt lat="46.45276" lon="-1.70612">
        <ele>20</ele>
        <time>2019-05-01T11:13:18Z</time>
      </trkpt>
      <trkpt lat="46.45335" lon="-1.71009">
        <ele>11</ele>
        <time>2019-05-01T11:14:30Z</time>
      </trkpt>
      <trkpt lat="46.45399" lon="-1.71092">
        <ele>10</ele>
        <time>2019-05-01T11:14:48Z</time>
      </trkpt>
      <trkpt lat="46.45436" lon="-1.71171">
        <ele>5</ele>
        <time>2019-05-01T11:15:06Z</time>
      </trkpt>
      <trkpt lat="46.45535" lon="-1.71185">
        <ele>10</ele>
        <time>2019-05-01T11:15:36Z</time>
      </trkpt>
      <trkpt lat="46.4557" lon="-1.71203">
        <ele>10</ele>
        <time>2019-05-01T11:15:48Z</time>
      </trkpt>
      <trkpt lat="46.45611" lon="-1.71203">
        <ele>12</ele>
        <time>2019-05-01T11:16:00Z</time>
      </trkpt>
      <trkpt lat="46.45648" lon="-1.71217">
        <ele>13</ele>
        <time>2019-05-01T11:16:12Z</time>
      </trkpt>
      <trkpt lat="46.45732" lon="-1.71292">
        <ele>10</ele>
        <time>2019-05-01T11:16:36Z</time>
      </trkpt>
      <trkpt lat="46.45895" lon="-1.71407">
        <ele>5.2</ele>
        <time>2019-05-01T11:17:12Z</time>
      </trkpt>
      <trkpt lat="46.45911" lon="-1.71487">
        <ele>8.7</ele>
        <time>2019-05-01T11:17:30Z</time>
      </trkpt>
      <trkpt lat="46.45981" lon="-1.71602">
        <ele>13</ele>
        <time>2019-05-01T11:18:12Z</time>
      </trkpt>
      <trkpt lat="46.4604" lon="-1.71675">
        <ele>18</ele>
        <time>2019-05-01T11:18:42Z</time>
      </trkpt>
      <trkpt lat="46.46094" lon="-1.71765">
        <ele>22</ele>
        <time>2019-05-01T11:19:12Z</time>
      </trkpt>
      <trkpt lat="46.46173" lon="-1.71822">
        <ele>26</ele>
        <time>2019-05-01T11:19:42Z</time>
      </trkpt>
      <trkpt lat="46.46222" lon="-1.71882">
        <ele>26</ele>
        <time>2019-05-01T11:20:00Z</time>
      </trkpt>
      <trkpt lat="46.46261" lon="-1.71962">
        <ele>24</ele>
        <time>2019-05-01T11:20:18Z</time>
      </trkpt>
      <trkpt lat="46.46298" lon="-1.72046">
        <ele>23</ele>
        <time>2019-05-01T11:20:36Z</time>
      </trkpt>
      <trkpt lat="46.46346" lon="-1.72273">
        <ele>24</ele>
        <time>2019-05-01T11:21:24Z</time>
      </trkpt>
      <trkpt lat="46.46386" lon="-1.72629">
        <ele>23</ele>
        <time>2019-05-01T11:22:30Z</time>
      </trkpt>
      <trkpt lat="46.46375" lon="-1.72788">
        <ele>19</ele>
        <time>2019-05-01T11:22:54Z</time>
      </trkpt>
      <trkpt lat="46.46421" lon="-1.73031">
        <ele>12</ele>
        <time>2019-05-01T11:23:24Z</time>
      </trkpt>
      <trkpt lat="46.46476" lon="-1.73149">
        <ele>8</ele>
        <time>2019-05-01T11:23:42Z</time>
      </trkpt>
      <trkpt lat="46.46529" lon="-1.73166">
        <ele>9</ele>
        <time>2019-05-01T11:23:54Z</time>
      </trkpt>
      <trkpt lat="46.46602" lon="-1.73224">
        <ele>10</ele>
        <time>2019-05-01T11:24:18Z</time>
      </trkpt>
      <trkpt lat="46.46661" lon="-1.73517">
        <ele>10.5</ele>
        <time>2019-05-01T11:25:12Z</time>
      </trkpt>
      <trkpt lat="46.46702" lon="-1.73604">
        <ele>10.4</ele>
        <time>2019-05-01T11:25:30Z</time>
      </trkpt>
      <trkpt lat="46.4675" lon="-1.73677">
        <ele>1</ele>
        <time>2019-05-01T11:25:48Z</time>
      </trkpt>
      <trkpt lat="46.46837" lon="-1.73719">
        <ele>7</ele>
        <time>2019-05-01T11:26:06Z</time>
      </trkpt>
      <trkpt lat="46.46848" lon="-1.7376">
        <ele>2</ele>
        <time>2019-05-01T11:26:12Z</time>
      </trkpt>
      <trkpt lat="46.46834" lon="-1.7389">
        <ele>-1</ele>
        <time>2019-05-01T11:26:42Z</time>
      </trkpt>
      <trkpt lat="46.46855" lon="-1.74036">
        <ele>1</ele>
        <time>2019-05-01T11:27:12Z</time>
      </trkpt>
      <trkpt lat="46.46871" lon="-1.74098">
        <ele>4</ele>
        <time>2019-05-01T11:27:24Z</time>
      </trkpt>
      <trkpt lat="46.46907" lon="-1.74147">
        <ele>11.5</ele>
        <time>2019-05-01T11:27:36Z</time>
      </trkpt>
      <trkpt lat="46.47008" lon="-1.74219">
        <ele>8</ele>
        <time>2019-05-01T11:28:06Z</time>
      </trkpt>
      <trkpt lat="46.47133" lon="-1.74409">
        <ele>6</ele>
        <time>2019-05-01T11:28:54Z</time>
      </trkpt>
      <trkpt lat="46.47268" lon="-1.74657">
        <ele>10</ele>
        <time>2019-05-01T11:30:00Z</time>
      </trkpt>
      <trkpt lat="46.47371" lon="-1.74822">
        <ele>10</ele>
        <time>2019-05-01T11:30:42Z</time>
      </trkpt>
      <trkpt lat="46.47444" lon="-1.75179">
        <ele>10</ele>
        <time>2019-05-01T11:31:54Z</time>
      </trkpt>
      <trkpt lat="46.47435" lon="-1.75228">
        <ele>10</ele>
        <time>2019-05-01T11:32:06Z</time>
      </trkpt>
      <trkpt lat="46.47454" lon="-1.75328">
        <ele>9.1</ele>
        <time>2019-05-01T11:32:24Z</time>
      </trkpt>
      <trkpt lat="46.47486" lon="-1.75413">
        <ele>9</ele>
        <time>2019-05-01T11:32:42Z</time>
      </trkpt>
      <trkpt lat="46.47513" lon="-1.75558">
        <ele>4</ele>
        <time>2019-05-01T11:33:12Z</time>
      </trkpt>
      <trkpt lat="46.47534" lon="-1.75616">
        <ele>7</ele>
        <time>2019-05-01T11:33:24Z</time>
      </trkpt>
      <trkpt lat="46.47639" lon="-1.75759">
        <ele>8</ele>
        <time>2019-05-01T11:34:00Z</time>
      </trkpt>
      <trkpt lat="46.47687" lon="-1.75806">
        <ele>8</ele>
        <time>2019-05-01T11:34:12Z</time>
      </trkpt>
      <trkpt lat="46.47753" lon="-1.75904">
        <ele>7</ele>
        <time>2019-05-01T11:34:36Z</time>
      </trkpt>
      <trkpt lat="46.47775" lon="-1.75963">
        <ele>6</ele>
        <time>2019-05-01T11:34:48Z</time>
      </trkpt>
      <trkpt lat="46.47811" lon="-1.76">
        <ele>4</ele>
        <time>2019-05-01T11:35:00Z</time>
      </trkpt>
      <trkpt lat="46.47853" lon="-1.76029">
        <ele>4</ele>
        <time>2019-05-01T11:35:12Z</time>
      </trkpt>
      <trkpt lat="46.47869" lon="-1.76014">
        <ele>6</ele>
        <time>2019-05-01T11:35:26Z</time>
      </trkpt>
      <trkpt lat="46.4806" lon="-1.76066">
        <ele>7</ele>
        <time>2019-05-01T11:36:26Z</time>
      </trkpt>
      <trkpt lat="46.48447" lon="-1.76519">
        <ele>1</ele>
        <time>2019-05-01T11:38:38Z</time>
      </trkpt>
      <trkpt lat="46.48491" lon="-1.76536">
        <ele>8</ele>
        <time>2019-05-01T11:38:56Z</time>
      </trkpt>
      <trkpt lat="46.48692" lon="-1.76531">
        <ele>16</ele>
        <time>2019-05-01T11:40:38Z</time>
      </trkpt>
      <trkpt lat="46.48755" lon="-1.76504">
        <ele>16</ele>
        <time>2019-05-01T11:41:02Z</time>
      </trkpt>
      <trkpt lat="46.48782" lon="-1.76516">
        <ele>16</ele>
        <time>2019-05-01T11:41:14Z</time>
      </trkpt>
      <trkpt lat="46.48895" lon="-1.76632">
        <ele>15</ele>
        <time>2019-05-01T11:42:13Z</time>
      </trkpt>
      <trkpt lat="46.48964" lon="-1.7664">
        <ele>15</ele>
        <time>2019-05-01T11:42:37Z</time>
      </trkpt>
      <trkpt lat="46.49003" lon="-1.76616">
        <ele>15</ele>
        <time>2019-05-01T11:42:49Z</time>
      </trkpt>
      <trkpt lat="46.49112" lon="-1.76497">
        <ele>14</ele>
        <time>2019-05-01T11:43:14Z</time>
      </trkpt>
      <trkpt lat="46.49249" lon="-1.76301">
        <ele>18</ele>
        <time>2019-05-01T11:44:02Z</time>
      </trkpt>
      <trkpt lat="46.49316" lon="-1.76236">
        <ele>19</ele>
        <time>2019-05-01T11:44:26Z</time>
      </trkpt>
      <trkpt lat="46.49317" lon="-1.76205">
        <ele>19</ele>
        <time>2019-05-01T11:44:50Z</time>
      </trkpt>
      <trkpt lat="46.49308" lon="-1.76198">
        <ele>19</ele>
        <time>2019-05-01T11:45:02Z</time>
      </trkpt>
      <trkpt lat="46.49319" lon="-1.76195">
        <ele>19</ele>
        <time>2019-05-01T11:45:04Z</time>
      </trkpt>
      <trkpt lat="46.49334" lon="-1.76219">
        <ele>19</ele>
        <time>2019-05-01T11:45:16Z</time>
      </trkpt>
      <trkpt lat="46.49338" lon="-1.76249">
        <ele>19</ele>
        <time>2019-05-01T11:45:22Z</time>
      </trkpt>
      <trkpt lat="46.49577" lon="-1.7699">
        <ele>10</ele>
        <time>2019-05-01T11:47:46Z</time>
      </trkpt>
      <trkpt lat="46.49591" lon="-1.77062">
        <ele>10</ele>
        <time>2019-05-01T11:47:59Z</time>
      </trkpt>
      <trkpt lat="46.49604" lon="-1.7725">
        <ele>10</ele>
        <time>2019-05-01T11:48:36Z</time>
      </trkpt>
      <trkpt lat="46.49604" lon="-1.77579">
        <ele>9</ele>
        <time>2019-05-01T11:49:27Z</time>
      </trkpt>
      <trkpt lat="46.49627" lon="-1.77738">
        <ele>10</ele>
        <time>2019-05-01T11:50:16Z</time>
      </trkpt>
      <trkpt lat="46.49787" lon="-1.77708">
        <ele>6</ele>
        <time>2019-05-01T11:51:21Z</time>
      </trkpt>
      <trkpt lat="46.50062" lon="-1.77791">
        <ele>7</ele>
        <time>2019-05-01T11:54:20Z</time>
      </trkpt>
      <trkpt lat="46.50213" lon="-1.77799">
        <ele>7</ele>
        <time>2019-05-01T11:55:08Z</time>
      </trkpt>
      <trkpt lat="46.50679" lon="-1.77732">
        <ele>10</ele>
        <time>2019-05-01T11:56:53Z</time>
      </trkpt>
      <trkpt lat="46.50784" lon="-1.77729">
        <ele>10</ele>
        <time>2019-05-01T11:57:29Z</time>
      </trkpt>
      <trkpt lat="46.51185" lon="-1.77666">
        <ele>12</ele>
        <time>2019-05-01T11:59:05Z</time>
      </trkpt>
      <trkpt lat="46.5121" lon="-1.7766">
        <ele>13</ele>
        <time>2019-05-01T11:59:11Z</time>
      </trkpt>
      <trkpt lat="46.51241" lon="-1.77633">
        <ele>13</ele>
        <time>2019-05-01T11:59:23Z</time>
      </trkpt>
      <trkpt lat="46.51258" lon="-1.77652">
        <ele>14</ele>
        <time>2019-05-01T11:59:29Z</time>
      </trkpt>
      <trkpt lat="46.51304" lon="-1.77639">
        <ele>14</ele>
        <time>2019-05-01T11:59:41Z</time>
      </trkpt>
      <trkpt lat="46.51317" lon="-1.77711">
        <ele>15</ele>
        <time>2019-05-01T12:00:11Z</time>
      </trkpt>
      <trkpt lat="46.51342" lon="-1.7772">
        <ele>15</ele>
        <time>2019-05-01T12:00:23Z</time>
      </trkpt>
      <trkpt lat="46.51391" lon="-1.77657">
        <ele>15</ele>
        <time>2019-05-01T12:00:53Z</time>
      </trkpt>
      <trkpt lat="46.51475" lon="-1.7763">
        <ele>15</ele>
        <time>2019-05-01T12:01:23Z</time>
      </trkpt>
      <trkpt lat="46.53292" lon="-1.77382">
        <ele>18</ele>
        <time>2019-05-01T12:08:17Z</time>
      </trkpt>
      <trkpt lat="46.53438" lon="-1.7734">
        <ele>24</ele>
        <time>2019-05-01T12:09:05Z</time>
      </trkpt>
      <trkpt lat="46.53487" lon="-1.77321">
        <ele>25</ele>
        <time>2019-05-01T12:09:23Z</time>
      </trkpt>
      <trkpt lat="46.53494" lon="-1.77309">
        <ele>25</ele>
        <time>2019-05-01T12:09:34Z</time>
      </trkpt>
      <trkpt lat="46.535" lon="-1.77195">
        <ele>27</ele>
        <time>2019-05-01T12:09:59Z</time>
      </trkpt>
      <trkpt lat="46.53478" lon="-1.76963">
        <ele>28</ele>
        <time>2019-05-01T12:10:47Z</time>
      </trkpt>
      <trkpt lat="46.53494" lon="-1.76942">
        <ele>28</ele>
        <time>2019-05-01T12:10:59Z</time>
      </trkpt>
      <trkpt lat="46.53541" lon="-1.76925">
        <ele>29</ele>
        <time>2019-05-01T12:11:27Z</time>
      </trkpt>
      <trkpt lat="46.53532" lon="-1.76933">
        <ele>29</ele>
        <time>2019-05-01T12:11:43Z</time>
      </trkpt>
      <trkpt lat="46.53534" lon="-1.76922">
        <ele>29</ele>
        <time>2019-05-01T12:11:45Z</time>
      </trkpt>
      <trkpt lat="46.53553" lon="-1.76925">
        <ele>29</ele>
        <time>2019-05-01T12:11:57Z</time>
      </trkpt>
      <trkpt lat="46.53643" lon="-1.77285">
        <ele>29</ele>
        <time>2019-05-01T12:13:25Z</time>
      </trkpt>
      <trkpt lat="46.53689" lon="-1.77379">
        <ele>28</ele>
        <time>2019-05-01T12:13:43Z</time>
      </trkpt>
      <trkpt lat="46.53722" lon="-1.77508">
        <ele>25</ele>
        <time>2019-05-01T12:14:01Z</time>
      </trkpt>
      <trkpt lat="46.5377" lon="-1.77814">
        <ele>19</ele>
        <time>2019-05-01T12:14:37Z</time>
      </trkpt>
      <trkpt lat="46.53774" lon="-1.77875">
        <ele>17</ele>
        <time>2019-05-01T12:14:43Z</time>
      </trkpt>
      <trkpt lat="46.53762" lon="-1.78034">
        <ele>14</ele>
        <time>2019-05-01T12:15:01Z</time>
      </trkpt>
      <trkpt lat="46.53801" lon="-1.78187">
        <ele>13</ele>
        <time>2019-05-01T12:15:25Z</time>
      </trkpt>
      <trkpt lat="46.5385" lon="-1.7829">
        <ele>13</ele>
        <time>2019-05-01T12:15:49Z</time>
      </trkpt>
      <trkpt lat="46.53863" lon="-1.78341">
        <ele>11</ele>
        <time>2019-05-01T12:16:15Z</time>
      </trkpt>
      <trkpt lat="46.53989" lon="-1.78276">
        <ele>9</ele>
        <time>2019-05-01T12:16:41Z</time>
      </trkpt>
      <trkpt lat="46.54011" lon="-1.78284">
        <ele>8</ele>
        <time>2019-05-01T12:16:53Z</time>
      </trkpt>
      <trkpt lat="46.54042" lon="-1.78456">
        <ele>6</ele>
        <time>2019-05-01T12:17:17Z</time>
      </trkpt>
      <trkpt lat="46.54093" lon="-1.78634">
        <ele>5</ele>
        <time>2019-05-01T12:17:41Z</time>
      </trkpt>
      <trkpt lat="46.54161" lon="-1.79069">
        <ele>4</ele>
        <time>2019-05-01T12:18:41Z</time>
      </trkpt>
      <trkpt lat="46.54162" lon="-1.79206">
        <ele>4</ele>
        <time>2019-05-01T12:18:59Z</time>
      </trkpt>
      <trkpt lat="46.54174" lon="-1.79321">
        <ele>4</ele>
        <time>2019-05-01T12:19:17Z</time>
      </trkpt>
      <trkpt lat="46.54216" lon="-1.79495">
        <ele>5</ele>
        <time>2019-05-01T12:19:53Z</time>
      </trkpt>
      <trkpt lat="46.5423" lon="-1.79583">
        <ele>5</ele>
        <time>2019-05-01T12:20:11Z</time>
      </trkpt>
      <trkpt lat="46.54225" lon="-1.79617">
        <ele>5</ele>
        <time>2019-05-01T12:20:25Z</time>
      </trkpt>
      <trkpt lat="46.54192" lon="-1.79653">
        <ele>6</ele>
        <time>2019-05-01T12:20:45Z</time>
      </trkpt>
      <trkpt lat="46.5419" lon="-1.79671">
        <ele>6</ele>
        <time>2019-05-01T12:20:57Z</time>
      </trkpt>
      <trkpt lat="46.54276" lon="-1.79899">
        <ele>6</ele>
        <time>2019-05-01T12:22:09Z</time>
      </trkpt>
      <trkpt lat="46.54323" lon="-1.80049">
        <ele>5</ele>
        <time>2019-05-01T12:22:33Z</time>
      </trkpt>
      <trkpt lat="46.54456" lon="-1.80258">
        <ele>6</ele>
        <time>2019-05-01T12:23:15Z</time>
      </trkpt>
      <trkpt lat="46.54556" lon="-1.80324">
        <ele>7</ele>
        <time>2019-05-01T12:23:39Z</time>
      </trkpt>
      <trkpt lat="46.54706" lon="-1.80458">
        <ele>6</ele>
        <time>2019-05-01T12:24:21Z</time>
      </trkpt>
      <trkpt lat="46.54946" lon="-1.80639">
        <ele>6</ele>
        <time>2019-05-01T12:25:21Z</time>
      </trkpt>
      <trkpt lat="46.55003" lon="-1.80655">
        <ele>7</ele>
        <time>2019-05-01T12:25:33Z</time>
      </trkpt>
      <trkpt lat="46.55151" lon="-1.80645">
        <ele>6</ele>
        <time>2019-05-01T12:26:03Z</time>
      </trkpt>
      <trkpt lat="46.55206" lon="-1.80667">
        <ele>5</ele>
        <time>2019-05-01T12:26:15Z</time>
      </trkpt>
      <trkpt lat="46.55343" lon="-1.80797">
        <ele>5</ele>
        <time>2019-05-01T12:26:51Z</time>
      </trkpt>
      <trkpt lat="46.55378" lon="-1.80852">
        <ele>5</ele>
        <time>2019-05-01T12:27:03Z</time>
      </trkpt>
      <trkpt lat="46.55429" lon="-1.80988">
        <ele>6</ele>
        <time>2019-05-01T12:27:27Z</time>
      </trkpt>
      <trkpt lat="46.5547" lon="-1.81036">
        <ele>7</ele>
        <time>2019-05-01T12:27:39Z</time>
      </trkpt>
      <trkpt lat="46.55519" lon="-1.81062">
        <ele>6</ele>
        <time>2019-05-01T12:27:51Z</time>
      </trkpt>
      <trkpt lat="46.55723" lon="-1.8115">
        <ele>13</ele>
        <time>2019-05-01T12:28:39Z</time>
      </trkpt>
      <trkpt lat="46.55751" lon="-1.81142">
        <ele>15</ele>
        <time>2019-05-01T12:28:45Z</time>
      </trkpt>
      <trkpt lat="46.55847" lon="-1.81007">
        <ele>13</ele>
        <time>2019-05-01T12:29:15Z</time>
      </trkpt>
      <trkpt lat="46.55901" lon="-1.81007">
        <ele>13</ele>
        <time>2019-05-01T12:29:27Z</time>
      </trkpt>
      <trkpt lat="46.55955" lon="-1.81053">
        <ele>12</ele>
        <time>2019-05-01T12:29:39Z</time>
      </trkpt>
      <trkpt lat="46.56103" lon="-1.81223">
        <ele>17</ele>
        <time>2019-05-01T12:30:15Z</time>
      </trkpt>
      <trkpt lat="46.56172" lon="-1.81336">
        <ele>19</ele>
        <time>2019-05-01T12:30:39Z</time>
      </trkpt>
      <trkpt lat="46.56248" lon="-1.81432">
        <ele>19</ele>
        <time>2019-05-01T12:30:57Z</time>
      </trkpt>
      <trkpt lat="46.56613" lon="-1.8181">
        <ele>14</ele>
        <time>2019-05-01T12:32:21Z</time>
      </trkpt>
      <trkpt lat="46.56843" lon="-1.82013">
        <ele>13</ele>
        <time>2019-05-01T12:33:09Z</time>
      </trkpt>
      <trkpt lat="46.56932" lon="-1.82065">
        <ele>11</ele>
        <time>2019-05-01T12:33:27Z</time>
      </trkpt>
      <trkpt lat="46.56921" lon="-1.82051">
        <ele>12</ele>
        <time>2019-05-01T12:33:50Z</time>
      </trkpt>
      <trkpt lat="46.56941" lon="-1.81967">
        <ele>9</ele>
        <time>2019-05-01T12:34:10Z</time>
      </trkpt>
      <trkpt lat="46.56952" lon="-1.81934">
        <ele>8</ele>
        <time>2019-05-01T12:34:16Z</time>
      </trkpt>
      <trkpt lat="46.56987" lon="-1.81885">
        <ele>8</ele>
        <time>2019-05-01T12:34:28Z</time>
      </trkpt>
      <trkpt lat="46.57053" lon="-1.81858">
        <ele>9</ele>
        <time>2019-05-01T12:34:46Z</time>
      </trkpt>
      <trkpt lat="46.57109" lon="-1.81869">
        <ele>9</ele>
        <time>2019-05-01T12:34:58Z</time>
      </trkpt>
      <trkpt lat="46.57157" lon="-1.81905">
        <ele>8</ele>
        <time>2019-05-01T12:35:10Z</time>
      </trkpt>
      <trkpt lat="46.57225" lon="-1.82099">
        <ele>11</ele>
        <time>2019-05-01T12:35:46Z</time>
      </trkpt>
      <trkpt lat="46.57253" lon="-1.82117">
        <ele>11</ele>
        <time>2019-05-01T12:35:52Z</time>
      </trkpt>
      <trkpt lat="46.57347" lon="-1.82111">
        <ele>10</ele>
        <time>2019-05-01T12:36:16Z</time>
      </trkpt>
      <trkpt lat="46.57416" lon="-1.82156">
        <ele>12</ele>
        <time>2019-05-01T12:36:34Z</time>
      </trkpt>
      <trkpt lat="46.57629" lon="-1.82259">
        <ele>11</ele>
        <time>2019-05-01T12:37:28Z</time>
      </trkpt>
      <trkpt lat="46.57636" lon="-1.8227">
        <ele>10</ele>
        <time>2019-05-01T12:37:34Z</time>
      </trkpt>
      <trkpt lat="46.57623" lon="-1.82344">
        <ele>14</ele>
        <time>2019-05-01T12:37:52Z</time>
      </trkpt>
      <trkpt lat="46.57633" lon="-1.82417">
        <ele>15</ele>
        <time>2019-05-01T12:38:10Z</time>
      </trkpt>
      <trkpt lat="46.57649" lon="-1.82473">
        <ele>16</ele>
        <time>2019-05-01T12:38:22Z</time>
      </trkpt>
      <trkpt lat="46.5767" lon="-1.82491">
        <ele>16</ele>
        <time>2019-05-01T12:38:28Z</time>
      </trkpt>
      <trkpt lat="46.57728" lon="-1.82511">
        <ele>18</ele>
        <time>2019-05-01T12:38:46Z</time>
      </trkpt>
      <trkpt lat="46.57748" lon="-1.82534">
        <ele>18</ele>
        <time>2019-05-01T12:38:52Z</time>
      </trkpt>
      <trkpt lat="46.57776" lon="-1.82613">
        <ele>18</ele>
        <time>2019-05-01T12:39:04Z</time>
      </trkpt>
      <trkpt lat="46.57823" lon="-1.82822">
        <ele>14</ele>
        <time>2019-05-01T12:39:40Z</time>
      </trkpt>
      <trkpt lat="46.5784" lon="-1.83088">
        <ele>15</ele>
        <time>2019-05-01T12:40:22Z</time>
      </trkpt>
      <trkpt lat="46.57852" lon="-1.83155">
        <ele>14</ele>
        <time>2019-05-01T12:40:34Z</time>
      </trkpt>
      <trkpt lat="46.57908" lon="-1.83231">
        <ele>15</ele>
        <time>2019-05-01T12:40:52Z</time>
      </trkpt>
      <trkpt lat="46.5795" lon="-1.83351">
        <ele>17</ele>
        <time>2019-05-01T12:41:16Z</time>
      </trkpt>
      <trkpt lat="46.5802" lon="-1.83472">
        <ele>18</ele>
        <time>2019-05-01T12:41:46Z</time>
      </trkpt>
      <trkpt lat="46.58033" lon="-1.83573">
        <ele>17</ele>
        <time>2019-05-01T12:42:04Z</time>
      </trkpt>
      <trkpt lat="46.58059" lon="-1.83642">
        <ele>17</ele>
        <time>2019-05-01T12:42:31Z</time>
      </trkpt>
      <trkpt lat="46.58267" lon="-1.83741">
        <ele>14</ele>
        <time>2019-05-01T12:43:22Z</time>
      </trkpt>
      <trkpt lat="46.58473" lon="-1.83905">
        <ele>13</ele>
        <time>2019-05-01T12:44:14Z</time>
      </trkpt>
      <trkpt lat="46.5853" lon="-1.83918">
        <ele>11</ele>
        <time>2019-05-01T12:44:27Z</time>
      </trkpt>
      <trkpt lat="46.58615" lon="-1.83909">
        <ele>9</ele>
        <time>2019-05-01T12:44:52Z</time>
      </trkpt>
      <trkpt lat="46.59025" lon="-1.83762">
        <ele>3</ele>
        <time>2019-05-01T12:46:53Z</time>
      </trkpt>
      <trkpt lat="46.59046" lon="-1.83744">
        <ele>4</ele>
        <time>2019-05-01T12:46:59Z</time>
      </trkpt>
      <trkpt lat="46.59125" lon="-1.83598">
        <ele>3</ele>
        <time>2019-05-01T12:47:29Z</time>
      </trkpt>
      <trkpt lat="46.59167" lon="-1.83547">
        <ele>3</ele>
        <time>2019-05-01T12:47:41Z</time>
      </trkpt>
      <trkpt lat="46.59246" lon="-1.83507">
        <ele>3</ele>
        <time>2019-05-01T12:48:05Z</time>
      </trkpt>
      <trkpt lat="46.59268" lon="-1.83448">
        <ele>3</ele>
        <time>2019-05-01T12:48:17Z</time>
      </trkpt>
      <trkpt lat="46.59279" lon="-1.83344">
        <ele>3</ele>
        <time>2019-05-01T12:48:35Z</time>
      </trkpt>
      <trkpt lat="46.5932" lon="-1.83342">
        <ele>3</ele>
        <time>2019-05-01T12:48:47Z</time>
      </trkpt>
      <trkpt lat="46.59431" lon="-1.83383">
        <ele>2.4</ele>
        <time>2019-05-01T12:49:17Z</time>
      </trkpt>
      <trkpt lat="46.59537" lon="-1.83318">
        <ele>4</ele>
        <time>2019-05-01T12:49:53Z</time>
      </trkpt>
      <trkpt lat="46.59569" lon="-1.83308">
        <ele>5</ele>
        <time>2019-05-01T12:50:05Z</time>
      </trkpt>
      <trkpt lat="46.59569" lon="-1.8338">
        <ele>4</ele>
        <time>2019-05-01T12:50:23Z</time>
      </trkpt>
      <trkpt lat="46.59554" lon="-1.83455">
        <ele>2.9</ele>
        <time>2019-05-01T12:50:35Z</time>
      </trkpt>
      <trkpt lat="46.59563" lon="-1.83604">
        <ele>1</ele>
        <time>2019-05-01T12:50:59Z</time>
      </trkpt>
      <trkpt lat="46.59553" lon="-1.83716">
        <ele>1</ele>
        <time>2019-05-01T12:51:17Z</time>
      </trkpt>
      <trkpt lat="46.59562" lon="-1.83786">
        <ele>2</ele>
        <time>2019-05-01T12:51:29Z</time>
      </trkpt>
      <trkpt lat="46.59571" lon="-1.83818">
        <ele>2</ele>
        <time>2019-05-01T12:51:35Z</time>
      </trkpt>
      <trkpt lat="46.59629" lon="-1.83924">
        <ele>3</ele>
        <time>2019-05-01T12:51:59Z</time>
      </trkpt>
      <trkpt lat="46.59657" lon="-1.84062">
        <ele>3</ele>
        <time>2019-05-01T12:52:23Z</time>
      </trkpt>
      <trkpt lat="46.59753" lon="-1.8426">
        <ele>3</ele>
        <time>2019-05-01T12:53:05Z</time>
      </trkpt>
      <trkpt lat="46.59826" lon="-1.84449">
        <ele>3</ele>
        <time>2019-05-01T12:53:41Z</time>
      </trkpt>
      <trkpt lat="46.59873" lon="-1.84471">
        <ele>3</ele>
        <time>2019-05-01T12:53:53Z</time>
      </trkpt>
      <trkpt lat="46.59935" lon="-1.84433">
        <ele>5</ele>
        <time>2019-05-01T12:54:11Z</time>
      </trkpt>
      <trkpt lat="46.59991" lon="-1.8443">
        <ele>6</ele>
        <time>2019-05-01T12:54:29Z</time>
      </trkpt>
      <trkpt lat="46.60093" lon="-1.84436">
        <ele>7</ele>
        <time>2019-05-01T12:54:59Z</time>
      </trkpt>
      <trkpt lat="46.60251" lon="-1.84483">
        <ele>5</ele>
        <time>2019-05-01T12:55:35Z</time>
      </trkpt>
      <trkpt lat="46.60353" lon="-1.84478">
        <ele>4</ele>
        <time>2019-05-01T12:55:59Z</time>
      </trkpt>
      <trkpt lat="46.60352" lon="-1.84581">
        <ele>6</ele>
        <time>2019-05-01T12:56:29Z</time>
      </trkpt>
      <trkpt lat="46.6033" lon="-1.84688">
        <ele>6</ele>
        <time>2019-05-01T12:56:59Z</time>
      </trkpt>
      <trkpt lat="46.60307" lon="-1.84732">
        <ele>7</ele>
        <time>2019-05-01T12:57:17Z</time>
      </trkpt>
      <trkpt lat="46.60264" lon="-1.85019">
        <ele>6</ele>
        <time>2019-05-01T12:58:29Z</time>
      </trkpt>
      <trkpt lat="46.60765" lon="-1.8525">
        <ele>11</ele>
        <time>2019-05-01T13:01:27Z</time>
      </trkpt>
      <trkpt lat="46.60901" lon="-1.85374">
        <ele>12</ele>
        <time>2019-05-01T13:02:53Z</time>
      </trkpt>
      <trkpt lat="46.61085" lon="-1.85463">
        <ele>13</ele>
        <time>2019-05-01T13:04:01Z</time>
      </trkpt>
      <trkpt lat="46.61105" lon="-1.85427">
        <ele>14</ele>
        <time>2019-05-01T13:04:15Z</time>
      </trkpt>
      <trkpt lat="46.61121" lon="-1.85309">
        <ele>16</ele>
        <time>2019-05-01T13:04:45Z</time>
      </trkpt>
      <trkpt lat="46.61126" lon="-1.85193">
        <ele>17</ele>
        <time>2019-05-01T13:05:29Z</time>
      </trkpt>
      <trkpt lat="46.61123" lon="-1.84946">
        <ele>24</ele>
        <time>2019-05-01T13:06:29Z</time>
      </trkpt>
      <trkpt lat="46.61103" lon="-1.84831">
        <ele>21</ele>
        <time>2019-05-01T13:06:59Z</time>
      </trkpt>
      <trkpt lat="46.61098" lon="-1.8473">
        <ele>20</ele>
        <time>2019-05-01T13:07:23Z</time>
      </trkpt>
      <trkpt lat="46.61028" lon="-1.84654">
        <ele>20</ele>
        <time>2019-05-01T13:07:47Z</time>
      </trkpt>
      <trkpt lat="46.60857" lon="-1.84509">
        <ele>13</ele>
        <time>2019-05-01T13:08:23Z</time>
      </trkpt>
      <trkpt lat="46.60786" lon="-1.84569">
        <ele>11</ele>
        <time>2019-05-01T13:08:41Z</time>
      </trkpt>
      <trkpt lat="46.6075" lon="-1.8461">
        <ele>13</ele>
        <time>2019-05-01T13:08:53Z</time>
      </trkpt>
      <trkpt lat="46.60728" lon="-1.84674">
        <ele>12</ele>
        <time>2019-05-01T13:09:05Z</time>
      </trkpt>
      <trkpt lat="46.60733" lon="-1.84797">
        <ele>12</ele>
        <time>2019-05-01T13:09:29Z</time>
      </trkpt>
      <trkpt lat="46.60772" lon="-1.85061">
        <ele>11</ele>
        <time>2019-05-01T13:10:23Z</time>
      </trkpt>
      <trkpt lat="46.60773" lon="-1.8508">
        <ele>11</ele>
        <time>2019-05-01T13:10:29Z</time>
      </trkpt>
      <trkpt lat="46.60751" lon="-1.851">
        <ele>11</ele>
        <time>2019-05-01T13:10:47Z</time>
      </trkpt>
      <trkpt lat="46.60735" lon="-1.85084">
        <ele>9</ele>
        <time>2019-05-01T13:11:14Z</time>
      </trkpt>
      <trkpt lat="46.60425" lon="-1.84934">
        <ele>7</ele>
        <time>2019-05-01T13:12:58Z</time>
      </trkpt>
      <trkpt lat="46.60452" lon="-1.84856">
        <ele>6</ele>
        <time>2019-05-01T13:13:22Z</time>
      </trkpt>
      <trkpt lat="46.60486" lon="-1.8484">
        <ele>7</ele>
        <time>2019-05-01T13:13:40Z</time>
      </trkpt>
      <trkpt lat="46.60486" lon="-1.84803">
        <ele>7</ele>
        <time>2019-05-01T13:13:58Z</time>
      </trkpt>
      <trkpt lat="46.60495" lon="-1.84819">
        <ele>7</ele>
        <time>2019-05-01T13:14:16Z</time>
      </trkpt>
      <trkpt lat="46.6051" lon="-1.84815">
        <ele>7</ele>
        <time>2019-05-01T13:14:40Z</time>
      </trkpt>
      <trkpt lat="46.60505" lon="-1.84824">
        <ele>7</ele>
        <time>2019-05-01T13:14:45Z</time>
      </trkpt>
      <trkpt lat="46.60509" lon="-1.84807">
        <ele>7</ele>
        <time>2019-05-01T13:14:47Z</time>
      </trkpt>
      <trkpt lat="46.60508" lon="-1.84819">
        <ele>7</ele>
        <time>2019-05-02T06:20:41Z</time>
      </trkpt>
      <trkpt lat="46.605" lon="-1.84822">
        <ele>7</ele>
        <time>2019-05-02T06:20:49Z</time>
      </trkpt>
      <trkpt lat="46.60512" lon="-1.84819">
        <ele>7</ele>
        <time>2019-05-02T06:20:53Z</time>
      </trkpt>
      <trkpt lat="46.60506" lon="-1.84826">
        <ele>7</ele>
        <time>2019-05-02T06:21:01Z</time>
      </trkpt>
      <trkpt lat="46.60502" lon="-1.84815">
        <ele>7</ele>
        <time>2019-05-02T06:21:25Z</time>
      </trkpt>
      <trkpt lat="46.60508" lon="-1.84823">
        <ele>7</ele>
        <time>2019-05-02T06:21:33Z</time>
      </trkpt>
      <trkpt lat="46.60467" lon="-1.8484">
        <ele>7</ele>
        <time>2019-05-02T06:21:44Z</time>
      </trkpt>
      <trkpt lat="46.60439" lon="-1.84917">
        <ele>7</ele>
        <time>2019-05-02T06:22:28Z</time>
      </trkpt>
      <trkpt lat="46.60474" lon="-1.84961">
        <ele>8</ele>
        <time>2019-05-02T06:22:47Z</time>
      </trkpt>
      <trkpt lat="46.60526" lon="-1.84982">
        <ele>7</ele>
        <time>2019-05-02T06:23:17Z</time>
      </trkpt>
      <trkpt lat="46.60503" lon="-1.84981">
        <ele>8</ele>
        <time>2019-05-02T06:23:29Z</time>
      </trkpt>
      <trkpt lat="46.60422" lon="-1.84935">
        <ele>7</ele>
        <time>2019-05-02T06:23:53Z</time>
      </trkpt>
      <trkpt lat="46.60452" lon="-1.84856">
        <ele>6</ele>
        <time>2019-05-02T06:24:11Z</time>
      </trkpt>
      <trkpt lat="46.60483" lon="-1.84846">
        <ele>7</ele>
        <time>2019-05-02T06:24:23Z</time>
      </trkpt>
      <trkpt lat="46.60505" lon="-1.84818">
        <ele>7</ele>
        <time>2019-05-02T06:24:48Z</time>
      </trkpt>
      <trkpt lat="46.60484" lon="-1.84845">
        <ele>7</ele>
        <time>2019-05-02T06:25:11Z</time>
      </trkpt>
      <trkpt lat="46.60461" lon="-1.84849">
        <ele>6</ele>
        <time>2019-05-02T06:25:23Z</time>
      </trkpt>
      <trkpt lat="46.60429" lon="-1.84937">
        <ele>7</ele>
        <time>2019-05-02T06:25:53Z</time>
      </trkpt>
      <trkpt lat="46.6074" lon="-1.85093">
        <ele>9</ele>
        <time>2019-05-02T06:27:52Z</time>
      </trkpt>
      <trkpt lat="46.60775" lon="-1.85101">
        <ele>11</ele>
        <time>2019-05-02T06:28:16Z</time>
      </trkpt>
      <trkpt lat="46.60777" lon="-1.85275">
        <ele>10</ele>
        <time>2019-05-02T06:30:00Z</time>
      </trkpt>
      <trkpt lat="46.60771" lon="-1.85273">
        <ele>10</ele>
        <time>2019-05-02T06:30:14Z</time>
      </trkpt>
      <trkpt lat="46.60765" lon="-1.85315">
        <ele>10</ele>
        <time>2019-05-02T06:30:35Z</time>
      </trkpt>
      <trkpt lat="46.60706" lon="-1.85504">
        <ele>6</ele>
        <time>2019-05-02T06:31:40Z</time>
      </trkpt>
      <trkpt lat="46.60776" lon="-1.85275">
        <ele>10</ele>
        <time>2019-05-02T06:32:59Z</time>
      </trkpt>
      <trkpt lat="46.60794" lon="-1.85276">
        <ele>11</ele>
        <time>2019-05-02T06:33:05Z</time>
      </trkpt>
      <trkpt lat="46.60907" lon="-1.85372">
        <ele>12</ele>
        <time>2019-05-02T06:33:47Z</time>
      </trkpt>
      <trkpt lat="46.61089" lon="-1.85462">
        <ele>14</ele>
        <time>2019-05-02T06:34:47Z</time>
      </trkpt>
      <trkpt lat="46.61098" lon="-1.85483">
        <ele>13</ele>
        <time>2019-05-02T06:34:53Z</time>
      </trkpt>
      <trkpt lat="46.61176" lon="-1.85559">
        <ele>13</ele>
        <time>2019-05-02T06:35:18Z</time>
      </trkpt>
      <trkpt lat="46.61186" lon="-1.85638">
        <ele>14</ele>
        <time>2019-05-02T06:35:29Z</time>
      </trkpt>
      <trkpt lat="46.6125" lon="-1.85889">
        <ele>9</ele>
        <time>2019-05-02T06:36:05Z</time>
      </trkpt>
      <trkpt lat="46.61253" lon="-1.8595">
        <ele>6</ele>
        <time>2019-05-02T06:36:18Z</time>
      </trkpt>
      <trkpt lat="46.613" lon="-1.86052">
        <ele>4</ele>
        <time>2019-05-02T06:36:42Z</time>
      </trkpt>
      <trkpt lat="46.61312" lon="-1.86066">
        <ele>4</ele>
        <time>2019-05-02T06:36:47Z</time>
      </trkpt>
      <trkpt lat="46.61341" lon="-1.86057">
        <ele>6</ele>
        <time>2019-05-02T06:36:59Z</time>
      </trkpt>
      <trkpt lat="46.61415" lon="-1.8588">
        <ele>7</ele>
        <time>2019-05-02T06:37:53Z</time>
      </trkpt>
      <trkpt lat="46.61424" lon="-1.85892">
        <ele>7</ele>
        <time>2019-05-02T06:37:59Z</time>
      </trkpt>
      <trkpt lat="46.61472" lon="-1.86154">
        <ele>8</ele>
        <time>2019-05-02T06:38:53Z</time>
      </trkpt>
      <trkpt lat="46.6149" lon="-1.86173">
        <ele>8</ele>
        <time>2019-05-02T06:38:59Z</time>
      </trkpt>
      <trkpt lat="46.61531" lon="-1.86163">
        <ele>8</ele>
        <time>2019-05-02T06:39:11Z</time>
      </trkpt>
      <trkpt lat="46.61547" lon="-1.86192">
        <ele>8</ele>
        <time>2019-05-02T06:39:17Z</time>
      </trkpt>
      <trkpt lat="46.616" lon="-1.86208">
        <ele>8</ele>
        <time>2019-05-02T06:39:35Z</time>
      </trkpt>
      <trkpt lat="46.6161" lon="-1.86264">
        <ele>8</ele>
        <time>2019-05-02T06:39:47Z</time>
      </trkpt>
      <trkpt lat="46.6166" lon="-1.864">
        <ele>9</ele>
        <time>2019-05-02T06:40:23Z</time>
      </trkpt>
      <trkpt lat="46.61607" lon="-1.86484">
        <ele>7</ele>
        <time>2019-05-02T06:40:59Z</time>
      </trkpt>
      <trkpt lat="46.61617" lon="-1.86541">
        <ele>1</ele>
        <time>2019-05-02T06:41:18Z</time>
      </trkpt>
      <trkpt lat="46.61606" lon="-1.86646">
        <ele>5.3</ele>
        <time>2019-05-02T06:41:35Z</time>
      </trkpt>
      <trkpt lat="46.61656" lon="-1.86887">
        <ele>3</ele>
        <time>2019-05-02T06:42:23Z</time>
      </trkpt>
      <trkpt lat="46.61689" lon="-1.8696">
        <ele>7.4</ele>
        <time>2019-05-02T06:42:41Z</time>
      </trkpt>
      <trkpt lat="46.61796" lon="-1.87088">
        <ele>6</ele>
        <time>2019-05-02T06:43:17Z</time>
      </trkpt>
      <trkpt lat="46.61841" lon="-1.87103">
        <ele>8</ele>
        <time>2019-05-02T06:43:29Z</time>
      </trkpt>
      <trkpt lat="46.61888" lon="-1.87162">
        <ele>7</ele>
        <time>2019-05-02T06:43:47Z</time>
      </trkpt>
      <trkpt lat="46.62036" lon="-1.87243">
        <ele>7</ele>
        <time>2019-05-02T06:44:30Z</time>
      </trkpt>
      <trkpt lat="46.62061" lon="-1.87245">
        <ele>7</ele>
        <time>2019-05-02T06:44:35Z</time>
      </trkpt>
      <trkpt lat="46.62135" lon="-1.87213">
        <ele>8</ele>
        <time>2019-05-02T06:44:53Z</time>
      </trkpt>
      <trkpt lat="46.62291" lon="-1.87308">
        <ele>7</ele>
        <time>2019-05-02T06:45:41Z</time>
      </trkpt>
      <trkpt lat="46.62399" lon="-1.87356">
        <ele>8</ele>
        <time>2019-05-02T06:46:11Z</time>
      </trkpt>
      <trkpt lat="46.62569" lon="-1.87377">
        <ele>8</ele>
        <time>2019-05-02T06:47:00Z</time>
      </trkpt>
      <trkpt lat="46.62613" lon="-1.87366">
        <ele>8</ele>
        <time>2019-05-02T06:47:18Z</time>
      </trkpt>
      <trkpt lat="46.62666" lon="-1.87373">
        <ele>7</ele>
        <time>2019-05-02T06:47:35Z</time>
      </trkpt>
      <trkpt lat="46.62717" lon="-1.87428">
        <ele>8</ele>
        <time>2019-05-02T06:48:00Z</time>
      </trkpt>
      <trkpt lat="46.62835" lon="-1.87504">
        <ele>10</ele>
        <time>2019-05-02T06:48:35Z</time>
      </trkpt>
      <trkpt lat="46.62885" lon="-1.8759">
        <ele>9</ele>
        <time>2019-05-02T06:48:53Z</time>
      </trkpt>
      <trkpt lat="46.62897" lon="-1.87667">
        <ele>10.2</ele>
        <time>2019-05-02T06:49:11Z</time>
      </trkpt>
      <trkpt lat="46.62924" lon="-1.87707">
        <ele>8</ele>
        <time>2019-05-02T06:49:23Z</time>
      </trkpt>
      <trkpt lat="46.6296" lon="-1.87727">
        <ele>8</ele>
        <time>2019-05-02T06:49:35Z</time>
      </trkpt>
      <trkpt lat="46.62983" lon="-1.87769">
        <ele>11</ele>
        <time>2019-05-02T06:49:47Z</time>
      </trkpt>
      <trkpt lat="46.63049" lon="-1.87991">
        <ele>4</ele>
        <time>2019-05-02T06:50:36Z</time>
      </trkpt>
      <trkpt lat="46.63124" lon="-1.88107">
        <ele>9</ele>
        <time>2019-05-02T06:50:59Z</time>
      </trkpt>
      <trkpt lat="46.63135" lon="-1.88185">
        <ele>3</ele>
        <time>2019-05-02T06:51:11Z</time>
      </trkpt>
      <trkpt lat="46.63164" lon="-1.88264">
        <ele>8</ele>
        <time>2019-05-02T06:51:29Z</time>
      </trkpt>
      <trkpt lat="46.63169" lon="-1.88421">
        <ele>9</ele>
        <time>2019-05-02T06:51:59Z</time>
      </trkpt>
      <trkpt lat="46.63217" lon="-1.88513">
        <ele>4</ele>
        <time>2019-05-02T06:52:17Z</time>
      </trkpt>
      <trkpt lat="46.63259" lon="-1.8857">
        <ele>7</ele>
        <time>2019-05-02T06:52:29Z</time>
      </trkpt>
      <trkpt lat="46.63305" lon="-1.8866">
        <ele>3</ele>
        <time>2019-05-02T06:52:47Z</time>
      </trkpt>
      <trkpt lat="46.634" lon="-1.88758">
        <ele>8</ele>
        <time>2019-05-02T06:53:18Z</time>
      </trkpt>
      <trkpt lat="46.63463" lon="-1.88919">
        <ele>4</ele>
        <time>2019-05-02T06:53:47Z</time>
      </trkpt>
      <trkpt lat="46.63543" lon="-1.89071">
        <ele>8</ele>
        <time>2019-05-02T06:54:17Z</time>
      </trkpt>
      <trkpt lat="46.63785" lon="-1.89244">
        <ele>7</ele>
        <time>2019-05-02T06:55:23Z</time>
      </trkpt>
      <trkpt lat="46.63868" lon="-1.89379">
        <ele>3</ele>
        <time>2019-05-02T06:55:53Z</time>
      </trkpt>
      <trkpt lat="46.63914" lon="-1.89428">
        <ele>6</ele>
        <time>2019-05-02T06:56:05Z</time>
      </trkpt>
      <trkpt lat="46.63963" lon="-1.8944">
        <ele>7</ele>
        <time>2019-05-02T06:56:17Z</time>
      </trkpt>
      <trkpt lat="46.64079" lon="-1.8942">
        <ele>11</ele>
        <time>2019-05-02T06:57:05Z</time>
      </trkpt>
      <trkpt lat="46.64271" lon="-1.89476">
        <ele>13</ele>
        <time>2019-05-02T06:58:17Z</time>
      </trkpt>
      <trkpt lat="46.64285" lon="-1.89416">
        <ele>15</ele>
        <time>2019-05-02T06:58:35Z</time>
      </trkpt>
      <trkpt lat="46.64316" lon="-1.89367">
        <ele>16</ele>
        <time>2019-05-02T06:58:47Z</time>
      </trkpt>
      <trkpt lat="46.64363" lon="-1.89346">
        <ele>17</ele>
        <time>2019-05-02T06:58:59Z</time>
      </trkpt>
      <trkpt lat="46.64401" lon="-1.8935">
        <ele>17</ele>
        <time>2019-05-02T06:59:11Z</time>
      </trkpt>
      <trkpt lat="46.64435" lon="-1.89379">
        <ele>17</ele>
        <time>2019-05-02T06:59:23Z</time>
      </trkpt>
      <trkpt lat="46.64485" lon="-1.89383">
        <ele>18</ele>
        <time>2019-05-02T06:59:41Z</time>
      </trkpt>
      <trkpt lat="46.64542" lon="-1.89338">
        <ele>18</ele>
        <time>2019-05-02T07:00:05Z</time>
      </trkpt>
      <trkpt lat="46.64618" lon="-1.89357">
        <ele>19</ele>
        <time>2019-05-02T07:00:35Z</time>
      </trkpt>
      <trkpt lat="46.64651" lon="-1.89401">
        <ele>18</ele>
        <time>2019-05-02T07:00:53Z</time>
      </trkpt>
      <trkpt lat="46.64761" lon="-1.89446">
        <ele>17</ele>
        <time>2019-05-02T07:01:23Z</time>
      </trkpt>
      <trkpt lat="46.64778" lon="-1.89442">
        <ele>17</ele>
        <time>2019-05-02T07:01:29Z</time>
      </trkpt>
      <trkpt lat="46.64808" lon="-1.89381">
        <ele>16</ele>
        <time>2019-05-02T07:01:47Z</time>
      </trkpt>
      <trkpt lat="46.64846" lon="-1.89341">
        <ele>17</ele>
        <time>2019-05-02T07:01:59Z</time>
      </trkpt>
      <trkpt lat="46.64897" lon="-1.89314">
        <ele>17</ele>
        <time>2019-05-02T07:02:18Z</time>
      </trkpt>
      <trkpt lat="46.64929" lon="-1.89362">
        <ele>17</ele>
        <time>2019-05-02T07:02:35Z</time>
      </trkpt>
      <trkpt lat="46.65004" lon="-1.89592">
        <ele>13</ele>
        <time>2019-05-02T07:03:17Z</time>
      </trkpt>
      <trkpt lat="46.6506" lon="-1.89691">
        <ele>12</ele>
        <time>2019-05-02T07:03:42Z</time>
      </trkpt>
      <trkpt lat="46.65117" lon="-1.89748">
        <ele>11</ele>
        <time>2019-05-02T07:03:59Z</time>
      </trkpt>
      <trkpt lat="46.65152" lon="-1.89759">
        <ele>10</ele>
        <time>2019-05-02T07:04:06Z</time>
      </trkpt>
      <trkpt lat="46.65247" lon="-1.89706">
        <ele>10</ele>
        <time>2019-05-02T07:04:23Z</time>
      </trkpt>
      <trkpt lat="46.65316" lon="-1.89761">
        <ele>9</ele>
        <time>2019-05-02T07:04:42Z</time>
      </trkpt>
      <trkpt lat="46.65365" lon="-1.89717">
        <ele>10</ele>
        <time>2019-05-02T07:05:03Z</time>
      </trkpt>
      <trkpt lat="46.65411" lon="-1.89643">
        <ele>8</ele>
        <time>2019-05-02T07:05:21Z</time>
      </trkpt>
      <trkpt lat="46.6545" lon="-1.89607">
        <ele>8</ele>
        <time>2019-05-02T07:05:33Z</time>
      </trkpt>
      <trkpt lat="46.65547" lon="-1.89679">
        <ele>7</ele>
        <time>2019-05-02T07:06:15Z</time>
      </trkpt>
      <trkpt lat="46.65819" lon="-1.89838">
        <ele>8</ele>
        <time>2019-05-02T07:07:51Z</time>
      </trkpt>
      <trkpt lat="46.65904" lon="-1.89918">
        <ele>7</ele>
        <time>2019-05-02T07:08:21Z</time>
      </trkpt>
      <trkpt lat="46.66059" lon="-1.89999">
        <ele>9</ele>
        <time>2019-05-02T07:09:09Z</time>
      </trkpt>
      <trkpt lat="46.66117" lon="-1.90097">
        <ele>8</ele>
        <time>2019-05-02T07:09:33Z</time>
      </trkpt>
      <trkpt lat="46.66115" lon="-1.90172">
        <ele>8</ele>
        <time>2019-05-02T07:09:51Z</time>
      </trkpt>
      <trkpt lat="46.6608" lon="-1.90318">
        <ele>7</ele>
        <time>2019-05-02T07:10:27Z</time>
      </trkpt>
      <trkpt lat="46.66088" lon="-1.90432">
        <ele>4</ele>
        <time>2019-05-02T07:10:45Z</time>
      </trkpt>
      <trkpt lat="46.66124" lon="-1.90565">
        <ele>5</ele>
        <time>2019-05-02T07:11:09Z</time>
      </trkpt>
      <trkpt lat="46.6616" lon="-1.906">
        <ele>5</ele>
        <time>2019-05-02T07:11:21Z</time>
      </trkpt>
      <trkpt lat="46.66354" lon="-1.90637">
        <ele>3</ele>
        <time>2019-05-02T07:12:09Z</time>
      </trkpt>
      <trkpt lat="46.66405" lon="-1.90604">
        <ele>5</ele>
        <time>2019-05-02T07:12:27Z</time>
      </trkpt>
      <trkpt lat="46.66464" lon="-1.90585">
        <ele>6</ele>
        <time>2019-05-02T07:12:45Z</time>
      </trkpt>
      <trkpt lat="46.66505" lon="-1.90602">
        <ele>6</ele>
        <time>2019-05-02T07:12:57Z</time>
      </trkpt>
      <trkpt lat="46.66574" lon="-1.90596">
        <ele>7</ele>
        <time>2019-05-02T07:13:15Z</time>
      </trkpt>
      <trkpt lat="46.6666" lon="-1.90616">
        <ele>5</ele>
        <time>2019-05-02T07:13:39Z</time>
      </trkpt>
      <trkpt lat="46.66698" lon="-1.90744">
        <ele>4</ele>
        <time>2019-05-02T07:14:03Z</time>
      </trkpt>
      <trkpt lat="46.6669" lon="-1.90912">
        <ele>7</ele>
        <time>2019-05-02T07:14:33Z</time>
      </trkpt>
      <trkpt lat="46.66662" lon="-1.9102">
        <ele>8</ele>
        <time>2019-05-02T07:14:57Z</time>
      </trkpt>
      <trkpt lat="46.66662" lon="-1.91052">
        <ele>7</ele>
        <time>2019-05-02T07:15:03Z</time>
      </trkpt>
      <trkpt lat="46.66691" lon="-1.91101">
        <ele>8</ele>
        <time>2019-05-02T07:15:15Z</time>
      </trkpt>
      <trkpt lat="46.66747" lon="-1.91045">
        <ele>8</ele>
        <time>2019-05-02T07:15:45Z</time>
      </trkpt>
      <trkpt lat="46.6674" lon="-1.91013">
        <ele>7</ele>
        <time>2019-05-02T07:16:04Z</time>
      </trkpt>
      <trkpt lat="46.66762" lon="-1.90953">
        <ele>6</ele>
        <time>2019-05-02T07:16:22Z</time>
      </trkpt>
      <trkpt lat="46.66857" lon="-1.9089">
        <ele>7</ele>
        <time>2019-05-02T07:17:22Z</time>
      </trkpt>
      <trkpt lat="46.66895" lon="-1.90849">
        <ele>6</ele>
        <time>2019-05-02T07:17:58Z</time>
      </trkpt>
      <trkpt lat="46.6695" lon="-1.90828">
        <ele>7</ele>
        <time>2019-05-02T07:18:40Z</time>
      </trkpt>
      <trkpt lat="46.67001" lon="-1.90832">
        <ele>7</ele>
        <time>2019-05-02T07:18:58Z</time>
      </trkpt>
      <trkpt lat="46.6709" lon="-1.90864">
        <ele>5</ele>
        <time>2019-05-02T07:19:22Z</time>
      </trkpt>
      <trkpt lat="46.67105" lon="-1.90862">
        <ele>5</ele>
        <time>2019-05-02T07:19:28Z</time>
      </trkpt>
      <trkpt lat="46.67152" lon="-1.90807">
        <ele>1</ele>
        <time>2019-05-02T07:19:46Z</time>
      </trkpt>
      <trkpt lat="46.67276" lon="-1.91014">
        <ele>4</ele>
        <time>2019-05-02T07:20:34Z</time>
      </trkpt>
      <trkpt lat="46.67401" lon="-1.91297">
        <ele>3</ele>
        <time>2019-05-02T07:21:22Z</time>
      </trkpt>
      <trkpt lat="46.67444" lon="-1.91374">
        <ele>3</ele>
        <time>2019-05-02T07:21:40Z</time>
      </trkpt>
      <trkpt lat="46.67482" lon="-1.91414">
        <ele>3</ele>
        <time>2019-05-02T07:21:58Z</time>
      </trkpt>
      <trkpt lat="46.67688" lon="-1.91846">
        <ele>3</ele>
        <time>2019-05-02T07:23:28Z</time>
      </trkpt>
      <trkpt lat="46.67814" lon="-1.92053">
        <ele>2</ele>
        <time>2019-05-02T07:24:10Z</time>
      </trkpt>
      <trkpt lat="46.67846" lon="-1.9217">
        <ele>2</ele>
        <time>2019-05-02T07:24:28Z</time>
      </trkpt>
      <trkpt lat="46.67882" lon="-1.92211">
        <ele>4</ele>
        <time>2019-05-02T07:24:40Z</time>
      </trkpt>
      <trkpt lat="46.67929" lon="-1.92236">
        <ele>4</ele>
        <time>2019-05-02T07:24:52Z</time>
      </trkpt>
      <trkpt lat="46.68051" lon="-1.92376">
        <ele>6</ele>
        <time>2019-05-02T07:25:34Z</time>
      </trkpt>
      <trkpt lat="46.68108" lon="-1.92512">
        <ele>7</ele>
        <time>2019-05-02T07:26:04Z</time>
      </trkpt>
      <trkpt lat="46.68163" lon="-1.92588">
        <ele>6</ele>
        <time>2019-05-02T07:26:22Z</time>
      </trkpt>
      <trkpt lat="46.6821" lon="-1.92677">
        <ele>4</ele>
        <time>2019-05-02T07:26:40Z</time>
      </trkpt>
      <trkpt lat="46.68269" lon="-1.92744">
        <ele>4</ele>
        <time>2019-05-02T07:26:58Z</time>
      </trkpt>
      <trkpt lat="46.68447" lon="-1.93019">
        <ele>2</ele>
        <time>2019-05-02T07:28:04Z</time>
      </trkpt>
      <trkpt lat="46.68641" lon="-1.93197">
        <ele>3</ele>
        <time>2019-05-02T07:29:10Z</time>
      </trkpt>
      <trkpt lat="46.687" lon="-1.93225">
        <ele>2</ele>
        <time>2019-05-02T07:29:28Z</time>
      </trkpt>
      <trkpt lat="46.68803" lon="-1.93242">
        <ele>2</ele>
        <time>2019-05-02T07:29:52Z</time>
      </trkpt>
      <trkpt lat="46.68925" lon="-1.93172">
        <ele>2</ele>
        <time>2019-05-02T07:30:22Z</time>
      </trkpt>
      <trkpt lat="46.69063" lon="-1.9316">
        <ele>2</ele>
        <time>2019-05-02T07:30:58Z</time>
      </trkpt>
      <trkpt lat="46.691" lon="-1.93191">
        <ele>3</ele>
        <time>2019-05-02T07:31:10Z</time>
      </trkpt>
      <trkpt lat="46.69163" lon="-1.9332">
        <ele>3</ele>
        <time>2019-05-02T07:31:46Z</time>
      </trkpt>
      <trkpt lat="46.69234" lon="-1.93317">
        <ele>4</ele>
        <time>2019-05-02T07:32:16Z</time>
      </trkpt>
      <trkpt lat="46.69334" lon="-1.93328">
        <ele>4</ele>
        <time>2019-05-02T07:32:52Z</time>
      </trkpt>
      <trkpt lat="46.69384" lon="-1.93348">
        <ele>4</ele>
        <time>2019-05-02T07:33:16Z</time>
      </trkpt>
      <trkpt lat="46.69401" lon="-1.93337">
        <ele>4</ele>
        <time>2019-05-02T07:33:35Z</time>
      </trkpt>
      <trkpt lat="46.69444" lon="-1.93347">
        <ele>5</ele>
        <time>2019-05-02T07:33:50Z</time>
      </trkpt>
      <trkpt lat="46.695" lon="-1.93376">
        <ele>4</ele>
        <time>2019-05-02T07:34:14Z</time>
      </trkpt>
      <trkpt lat="46.69505" lon="-1.93407">
        <ele>4</ele>
        <time>2019-05-02T07:34:37Z</time>
      </trkpt>
      <trkpt lat="46.69481" lon="-1.93407">
        <ele>4</ele>
        <time>2019-05-02T07:35:11Z</time>
      </trkpt>
      <trkpt lat="46.69496" lon="-1.934">
        <ele>4</ele>
        <time>2019-05-02T07:35:18Z</time>
      </trkpt>
      <trkpt lat="46.69499" lon="-1.93375">
        <ele>4</ele>
        <time>2019-05-02T07:35:34Z</time>
      </trkpt>
      <trkpt lat="46.69409" lon="-1.93336">
        <ele>4</ele>
        <time>2019-05-02T07:36:22Z</time>
      </trkpt>
      <trkpt lat="46.696" lon="-1.9342">
        <ele>5</ele>
        <time>2019-05-02T07:37:38Z</time>
      </trkpt>
      <trkpt lat="46.69629" lon="-1.93413">
        <ele>6</ele>
        <time>2019-05-02T07:38:02Z</time>
      </trkpt>
      <trkpt lat="46.6963" lon="-1.93501">
        <ele>1</ele>
        <time>2019-05-02T07:38:48Z</time>
      </trkpt>
      <trkpt lat="46.69612" lon="-1.93583">
        <ele>4</ele>
        <time>2019-05-02T07:39:12Z</time>
      </trkpt>
      <trkpt lat="46.69595" lon="-1.93605">
        <ele>4</ele>
        <time>2019-05-02T07:39:34Z</time>
      </trkpt>
      <trkpt lat="46.69615" lon="-1.9358">
        <ele>4</ele>
        <time>2019-05-02T07:39:56Z</time>
      </trkpt>
      <trkpt lat="46.69611" lon="-1.93537">
        <ele>1</ele>
        <time>2019-05-02T07:40:27Z</time>
      </trkpt>
      <trkpt lat="46.69618" lon="-1.93592">
        <ele>4</ele>
        <time>2019-05-02T07:40:57Z</time>
      </trkpt>
      <trkpt lat="46.69708" lon="-1.93693">
        <ele>2</ele>
        <time>2019-05-02T07:41:51Z</time>
      </trkpt>
      <trkpt lat="46.69765" lon="-1.93735">
        <ele>5</ele>
        <time>2019-05-02T07:42:15Z</time>
      </trkpt>
      <trkpt lat="46.69936" lon="-1.93805">
        <ele>2</ele>
        <time>2019-05-02T07:43:27Z</time>
      </trkpt>
      <trkpt lat="46.69989" lon="-1.93841">
        <ele>3</ele>
        <time>2019-05-02T07:43:51Z</time>
      </trkpt>
      <trkpt lat="46.70063" lon="-1.93851">
        <ele>3</ele>
        <time>2019-05-02T07:44:21Z</time>
      </trkpt>
      <trkpt lat="46.70064" lon="-1.93876">
        <ele>3</ele>
        <time>2019-05-02T07:44:43Z</time>
      </trkpt>
      <trkpt lat="46.70127" lon="-1.93908">
        <ele>3</ele>
        <time>2019-05-02T07:45:07Z</time>
      </trkpt>
      <trkpt lat="46.70222" lon="-1.93921">
        <ele>3</ele>
        <time>2019-05-02T07:45:37Z</time>
      </trkpt>
      <trkpt lat="46.70232" lon="-1.93938">
        <ele>3</ele>
        <time>2019-05-02T07:45:43Z</time>
      </trkpt>
      <trkpt lat="46.70262" lon="-1.93948">
        <ele>3</ele>
        <time>2019-05-02T07:46:01Z</time>
      </trkpt>
      <trkpt lat="46.70288" lon="-1.93933">
        <ele>3</ele>
        <time>2019-05-02T07:46:23Z</time>
      </trkpt>
      <trkpt lat="46.70382" lon="-1.94071">
        <ele>4</ele>
        <time>2019-05-02T07:46:59Z</time>
      </trkpt>
      <trkpt lat="46.70426" lon="-1.94109">
        <ele>4</ele>
        <time>2019-05-02T07:47:11Z</time>
      </trkpt>
      <trkpt lat="46.70596" lon="-1.94188">
        <ele>5</ele>
        <time>2019-05-02T07:48:05Z</time>
      </trkpt>
      <trkpt lat="46.70722" lon="-1.94204">
        <ele>6</ele>
        <time>2019-05-02T07:48:41Z</time>
      </trkpt>
      <trkpt lat="46.7086" lon="-1.94193">
        <ele>5</ele>
        <time>2019-05-02T07:49:11Z</time>
      </trkpt>
      <trkpt lat="46.71943" lon="-1.93944">
        <ele>2</ele>
        <time>2019-05-02T07:53:47Z</time>
      </trkpt>
      <trkpt lat="46.71826" lon="-1.93972">
        <ele>1</ele>
        <time>2019-05-02T07:54:23Z</time>
      </trkpt>
      <trkpt lat="46.71826" lon="-1.94019">
        <ele>2</ele>
        <time>2019-05-02T07:54:35Z</time>
      </trkpt>
      <trkpt lat="46.71856" lon="-1.94163">
        <ele>4</ele>
        <time>2019-05-02T07:54:59Z</time>
      </trkpt>
      <trkpt lat="46.71909" lon="-1.94221">
        <ele>5</ele>
        <time>2019-05-02T07:55:17Z</time>
      </trkpt>
      <trkpt lat="46.72003" lon="-1.944">
        <ele>11</ele>
        <time>2019-05-02T07:56:31Z</time>
      </trkpt>
      <trkpt lat="46.72041" lon="-1.94605">
        <ele>13</ele>
        <time>2019-05-02T07:57:43Z</time>
      </trkpt>
      <trkpt lat="46.71982" lon="-1.94662">
        <ele>13</ele>
        <time>2019-05-02T07:58:07Z</time>
      </trkpt>
      <trkpt lat="46.71853" lon="-1.94749">
        <ele>15</ele>
        <time>2019-05-02T07:58:43Z</time>
      </trkpt>
      <trkpt lat="46.71807" lon="-1.94798">
        <ele>15</ele>
        <time>2019-05-02T07:59:01Z</time>
      </trkpt>
      <trkpt lat="46.71807" lon="-1.94822">
        <ele>16</ele>
        <time>2019-05-02T07:59:07Z</time>
      </trkpt>
      <trkpt lat="46.71838" lon="-1.94921">
        <ele>15</ele>
        <time>2019-05-02T07:59:36Z</time>
      </trkpt>
      <trkpt lat="46.71835" lon="-1.94966">
        <ele>15</ele>
        <time>2019-05-02T08:00:01Z</time>
      </trkpt>
      <trkpt lat="46.7177" lon="-1.95006">
        <ele>16</ele>
        <time>2019-05-02T08:00:40Z</time>
      </trkpt>
      <trkpt lat="46.71832" lon="-1.94978">
        <ele>15</ele>
        <time>2019-05-02T08:01:06Z</time>
      </trkpt>
      <trkpt lat="46.7184" lon="-1.94926">
        <ele>15</ele>
        <time>2019-05-02T08:01:45Z</time>
      </trkpt>
      <trkpt lat="46.71835" lon="-1.94965">
        <ele>15</ele>
        <time>2019-05-02T08:02:06Z</time>
      </trkpt>
      <trkpt lat="46.71695" lon="-1.9505">
        <ele>18</ele>
        <time>2019-05-02T08:02:48Z</time>
      </trkpt>
      <trkpt lat="46.71491" lon="-1.95207">
        <ele>18</ele>
        <time>2019-05-02T08:03:42Z</time>
      </trkpt>
      <trkpt lat="46.71426" lon="-1.95275">
        <ele>18</ele>
        <time>2019-05-02T08:04:00Z</time>
      </trkpt>
      <trkpt lat="46.714" lon="-1.95322">
        <ele>18</ele>
        <time>2019-05-02T08:04:12Z</time>
      </trkpt>
      <trkpt lat="46.71333" lon="-1.95482">
        <ele>18</ele>
        <time>2019-05-02T08:04:42Z</time>
      </trkpt>
      <trkpt lat="46.71171" lon="-1.96074">
        <ele>18</ele>
        <time>2019-05-02T08:06:30Z</time>
      </trkpt>
      <trkpt lat="46.71151" lon="-1.96211">
        <ele>16</ele>
        <time>2019-05-02T08:07:00Z</time>
      </trkpt>
      <trkpt lat="46.71186" lon="-1.96211">
        <ele>16</ele>
        <time>2019-05-02T08:07:24Z</time>
      </trkpt>
      <trkpt lat="46.71185" lon="-1.96206">
        <ele>16</ele>
        <time>2019-05-02T08:07:58Z</time>
      </trkpt>
      <trkpt lat="46.71176" lon="-1.96165">
        <ele>17</ele>
        <time>2019-05-02T08:08:08Z</time>
      </trkpt>
      <trkpt lat="46.7115" lon="-1.96186">
        <ele>16</ele>
        <time>2019-05-02T08:08:31Z</time>
      </trkpt>
      <trkpt lat="46.71036" lon="-1.96571">
        <ele>14</ele>
        <time>2019-05-02T08:09:51Z</time>
      </trkpt>
      <trkpt lat="46.71015" lon="-1.96709">
        <ele>14</ele>
        <time>2019-05-02T08:10:10Z</time>
      </trkpt>
      <trkpt lat="46.71026" lon="-1.96764">
        <ele>14</ele>
        <time>2019-05-02T08:10:21Z</time>
      </trkpt>
      <trkpt lat="46.71019" lon="-1.9689">
        <ele>14</ele>
        <time>2019-05-02T08:10:45Z</time>
      </trkpt>
      <trkpt lat="46.71038" lon="-1.97333">
        <ele>12</ele>
        <time>2019-05-02T08:12:10Z</time>
      </trkpt>
      <trkpt lat="46.71084" lon="-1.97622">
        <ele>10</ele>
        <time>2019-05-02T08:13:09Z</time>
      </trkpt>
      <trkpt lat="46.71132" lon="-1.97757">
        <ele>8</ele>
        <time>2019-05-02T08:13:33Z</time>
      </trkpt>
      <trkpt lat="46.71144" lon="-1.97913">
        <ele>9</ele>
        <time>2019-05-02T08:14:09Z</time>
      </trkpt>
      <trkpt lat="46.71168" lon="-1.98011">
        <ele>5</ele>
        <time>2019-05-02T08:14:33Z</time>
      </trkpt>
      <trkpt lat="46.71088" lon="-1.98044">
        <ele>3</ele>
        <time>2019-05-02T08:15:10Z</time>
      </trkpt>
      <trkpt lat="46.70966" lon="-1.98058">
        <ele>7.3</ele>
        <time>2019-05-02T08:16:04Z</time>
      </trkpt>
      <trkpt lat="46.71004" lon="-1.9806">
        <ele>8.1</ele>
        <time>2019-05-02T08:16:23Z</time>
      </trkpt>
      <trkpt lat="46.71061" lon="-1.98041">
        <ele>2</ele>
        <time>2019-05-02T08:16:47Z</time>
      </trkpt>
      <trkpt lat="46.71089" lon="-1.98054">
        <ele>3</ele>
        <time>2019-05-02T08:17:18Z</time>
      </trkpt>
      <trkpt lat="46.7117" lon="-1.98003">
        <ele>5</ele>
        <time>2019-05-02T08:17:50Z</time>
      </trkpt>
      <trkpt lat="46.71162" lon="-1.97961">
        <ele>5</ele>
        <time>2019-05-02T08:18:08Z</time>
      </trkpt>
      <trkpt lat="46.7122" lon="-1.97901">
        <ele>5</ele>
        <time>2019-05-02T08:18:32Z</time>
      </trkpt>
      <trkpt lat="46.71276" lon="-1.97784">
        <ele>8</ele>
        <time>2019-05-02T08:19:08Z</time>
      </trkpt>
      <trkpt lat="46.71335" lon="-1.97726">
        <ele>9</ele>
        <time>2019-05-02T08:19:32Z</time>
      </trkpt>
      <trkpt lat="46.71356" lon="-1.97683">
        <ele>9</ele>
        <time>2019-05-02T08:19:44Z</time>
      </trkpt>
      <trkpt lat="46.71425" lon="-1.97609">
        <ele>10</ele>
        <time>2019-05-02T08:20:14Z</time>
      </trkpt>
      <trkpt lat="46.71632" lon="-1.97239">
        <ele>12</ele>
        <time>2019-05-02T08:21:50Z</time>
      </trkpt>
      <trkpt lat="46.71774" lon="-1.97028">
        <ele>14</ele>
        <time>2019-05-02T08:22:50Z</time>
      </trkpt>
      <trkpt lat="46.7184" lon="-1.96889">
        <ele>15</ele>
        <time>2019-05-02T08:23:20Z</time>
      </trkpt>
      <trkpt lat="46.71872" lon="-1.96891">
        <ele>16</ele>
        <time>2019-05-02T08:23:38Z</time>
      </trkpt>
      <trkpt lat="46.72101" lon="-1.9732">
        <ele>10</ele>
        <time>2019-05-02T08:24:58Z</time>
      </trkpt>
      <trkpt lat="46.72281" lon="-1.97639">
        <ele>12</ele>
        <time>2019-05-02T08:25:58Z</time>
      </trkpt>
      <trkpt lat="46.72348" lon="-1.97736">
        <ele>9</ele>
        <time>2019-05-02T08:26:22Z</time>
      </trkpt>
      <trkpt lat="46.72389" lon="-1.97838">
        <ele>7</ele>
        <time>2019-05-02T08:26:40Z</time>
      </trkpt>
      <trkpt lat="46.72486" lon="-1.97958">
        <ele>8</ele>
        <time>2019-05-02T08:27:16Z</time>
      </trkpt>
      <trkpt lat="46.72755" lon="-1.98136">
        <ele>11</ele>
        <time>2019-05-02T08:28:16Z</time>
      </trkpt>
      <trkpt lat="46.7315" lon="-1.98303">
        <ele>12</ele>
        <time>2019-05-02T08:29:46Z</time>
      </trkpt>
      <trkpt lat="46.73279" lon="-1.98416">
        <ele>11</ele>
        <time>2019-05-02T08:30:22Z</time>
      </trkpt>
      <trkpt lat="46.73354" lon="-1.98504">
        <ele>10</ele>
        <time>2019-05-02T08:30:46Z</time>
      </trkpt>
      <trkpt lat="46.7338" lon="-1.98576">
        <ele>9</ele>
        <time>2019-05-02T08:30:58Z</time>
      </trkpt>
      <trkpt lat="46.73376" lon="-1.98703">
        <ele>9</ele>
        <time>2019-05-02T08:31:22Z</time>
      </trkpt>
      <trkpt lat="46.73407" lon="-1.98718">
        <ele>9</ele>
        <time>2019-05-02T08:31:34Z</time>
      </trkpt>
      <trkpt lat="46.73893" lon="-1.992">
        <ele>8</ele>
        <time>2019-05-02T08:33:58Z</time>
      </trkpt>
      <trkpt lat="46.74021" lon="-1.99257">
        <ele>7</ele>
        <time>2019-05-02T08:34:49Z</time>
      </trkpt>
      <trkpt lat="46.74201" lon="-1.99281">
        <ele>5</ele>
        <time>2019-05-02T08:35:44Z</time>
      </trkpt>
      <trkpt lat="46.74218" lon="-1.99423">
        <ele>5</ele>
        <time>2019-05-02T08:36:14Z</time>
      </trkpt>
      <trkpt lat="46.7416" lon="-1.99702">
        <ele>6</ele>
        <time>2019-05-02T08:37:02Z</time>
      </trkpt>
      <trkpt lat="46.74139" lon="-2.0004">
        <ele>6</ele>
        <time>2019-05-02T08:37:50Z</time>
      </trkpt>
      <trkpt lat="46.7412" lon="-2.00177">
        <ele>5</ele>
        <time>2019-05-02T08:38:14Z</time>
      </trkpt>
      <trkpt lat="46.74062" lon="-2.0037">
        <ele>3</ele>
        <time>2019-05-02T08:39:08Z</time>
      </trkpt>
      <trkpt lat="46.74023" lon="-2.00671">
        <ele>4</ele>
        <time>2019-05-02T08:40:08Z</time>
      </trkpt>
      <trkpt lat="46.7411" lon="-2.00695">
        <ele>2</ele>
        <time>2019-05-02T08:40:32Z</time>
      </trkpt>
      <trkpt lat="46.74301" lon="-2.00808">
        <ele>3</ele>
        <time>2019-05-02T08:41:20Z</time>
      </trkpt>
      <trkpt lat="46.74354" lon="-2.00885">
        <ele>3</ele>
        <time>2019-05-02T08:41:38Z</time>
      </trkpt>
      <trkpt lat="46.74538" lon="-2.01044">
        <ele>5</ele>
        <time>2019-05-02T08:42:32Z</time>
      </trkpt>
      <trkpt lat="46.74639" lon="-2.01174">
        <ele>8</ele>
        <time>2019-05-02T08:43:08Z</time>
      </trkpt>
      <trkpt lat="46.74822" lon="-2.01295">
        <ele>7</ele>
        <time>2019-05-02T08:43:56Z</time>
      </trkpt>
      <trkpt lat="46.74952" lon="-2.01365">
        <ele>6</ele>
        <time>2019-05-02T08:44:44Z</time>
      </trkpt>
      <trkpt lat="46.75058" lon="-2.01531">
        <ele>4</ele>
        <time>2019-05-02T08:45:32Z</time>
      </trkpt>
      <trkpt lat="46.75096" lon="-2.01577">
        <ele>4</ele>
        <time>2019-05-02T08:46:04Z</time>
      </trkpt>
      <trkpt lat="46.75124" lon="-2.01589">
        <ele>3</ele>
        <time>2019-05-02T08:46:16Z</time>
      </trkpt>
      <trkpt lat="46.75138" lon="-2.01634">
        <ele>4</ele>
        <time>2019-05-02T08:46:28Z</time>
      </trkpt>
      <trkpt lat="46.75192" lon="-2.01724">
        <ele>4</ele>
        <time>2019-05-02T08:46:52Z</time>
      </trkpt>
      <trkpt lat="46.75277" lon="-2.01835">
        <ele>3</ele>
        <time>2019-05-02T08:47:22Z</time>
      </trkpt>
      <trkpt lat="46.75362" lon="-2.01969">
        <ele>3</ele>
        <time>2019-05-02T08:47:58Z</time>
      </trkpt>
      <trkpt lat="46.75456" lon="-2.02086">
        <ele>3</ele>
        <time>2019-05-02T08:48:34Z</time>
      </trkpt>
      <trkpt lat="46.75497" lon="-2.02196">
        <ele>2</ele>
        <time>2019-05-02T08:48:58Z</time>
      </trkpt>
      <trkpt lat="46.75523" lon="-2.0224">
        <ele>2</ele>
        <time>2019-05-02T08:49:10Z</time>
      </trkpt>
      <trkpt lat="46.75644" lon="-2.0234">
        <ele>4</ele>
        <time>2019-05-02T08:49:52Z</time>
      </trkpt>
      <trkpt lat="46.75737" lon="-2.02452">
        <ele>5</ele>
        <time>2019-05-02T08:50:34Z</time>
      </trkpt>
      <trkpt lat="46.75892" lon="-2.02487">
        <ele>6</ele>
        <time>2019-05-02T08:51:22Z</time>
      </trkpt>
      <trkpt lat="46.75944" lon="-2.02511">
        <ele>6</ele>
        <time>2019-05-02T08:51:40Z</time>
      </trkpt>
      <trkpt lat="46.76115" lon="-2.02717">
        <ele>10</ele>
        <time>2019-05-02T08:52:40Z</time>
      </trkpt>
      <trkpt lat="46.76333" lon="-2.02912">
        <ele>10</ele>
        <time>2019-05-02T08:53:46Z</time>
      </trkpt>
      <trkpt lat="46.76368" lon="-2.03007">
        <ele>9</ele>
        <time>2019-05-02T08:54:04Z</time>
      </trkpt>
      <trkpt lat="46.7638" lon="-2.03133">
        <ele>9</ele>
        <time>2019-05-02T08:54:28Z</time>
      </trkpt>
      <trkpt lat="46.76467" lon="-2.03309">
        <ele>8</ele>
        <time>2019-05-02T08:55:04Z</time>
      </trkpt>
      <trkpt lat="46.76499" lon="-2.03424">
        <ele>8</ele>
        <time>2019-05-02T08:55:28Z</time>
      </trkpt>
      <trkpt lat="46.76561" lon="-2.03546">
        <ele>11</ele>
        <time>2019-05-02T08:56:04Z</time>
      </trkpt>
      <trkpt lat="46.76594" lon="-2.03654">
        <ele>12</ele>
        <time>2019-05-02T08:56:34Z</time>
      </trkpt>
      <trkpt lat="46.76622" lon="-2.03823">
        <ele>11</ele>
        <time>2019-05-02T08:57:28Z</time>
      </trkpt>
      <trkpt lat="46.76614" lon="-2.03869">
        <ele>8</ele>
        <time>2019-05-02T08:57:42Z</time>
      </trkpt>
      <trkpt lat="46.76622" lon="-2.03957">
        <ele>7</ele>
        <time>2019-05-02T08:58:00Z</time>
      </trkpt>
      <trkpt lat="46.76693" lon="-2.04164">
        <ele>4</ele>
        <time>2019-05-02T08:58:42Z</time>
      </trkpt>
      <trkpt lat="46.76765" lon="-2.04299">
        <ele>3</ele>
        <time>2019-05-02T08:59:18Z</time>
      </trkpt>
      <trkpt lat="46.76871" lon="-2.04395">
        <ele>3</ele>
        <time>2019-05-02T08:59:54Z</time>
      </trkpt>
      <trkpt lat="46.7702" lon="-2.04607">
        <ele>4</ele>
        <time>2019-05-02T09:00:54Z</time>
      </trkpt>
      <trkpt lat="46.7713" lon="-2.04866">
        <ele>4</ele>
        <time>2019-05-02T09:02:00Z</time>
      </trkpt>
      <trkpt lat="46.77131" lon="-2.04963">
        <ele>4</ele>
        <time>2019-05-02T09:02:24Z</time>
      </trkpt>
      <trkpt lat="46.7707" lon="-2.05129">
        <ele>8</ele>
        <time>2019-05-02T09:03:12Z</time>
      </trkpt>
      <trkpt lat="46.77073" lon="-2.05197">
        <ele>6</ele>
        <time>2019-05-02T09:03:30Z</time>
      </trkpt>
      <trkpt lat="46.77133" lon="-2.05295">
        <ele>5</ele>
        <time>2019-05-02T09:04:06Z</time>
      </trkpt>
      <trkpt lat="46.77129" lon="-2.05305">
        <ele>5</ele>
        <time>2019-05-02T09:04:18Z</time>
      </trkpt>
      <trkpt lat="46.77297" lon="-2.05513">
        <ele>7</ele>
        <time>2019-05-02T09:05:50Z</time>
      </trkpt>
      <trkpt lat="46.77561" lon="-2.05872">
        <ele>2</ele>
        <time>2019-05-02T09:08:08Z</time>
      </trkpt>
      <trkpt lat="46.77857" lon="-2.06351">
        <ele>7</ele>
        <time>2019-05-02T09:10:44Z</time>
      </trkpt>
      <trkpt lat="46.77892" lon="-2.0636">
        <ele>9</ele>
        <time>2019-05-02T09:10:56Z</time>
      </trkpt>
      <trkpt lat="46.77926" lon="-2.06392">
        <ele>9</ele>
        <time>2019-05-02T09:11:08Z</time>
      </trkpt>
      <trkpt lat="46.77937" lon="-2.06412">
        <ele>7</ele>
        <time>2019-05-02T09:11:14Z</time>
      </trkpt>
      <trkpt lat="46.77939" lon="-2.06453">
        <ele>11</ele>
        <time>2019-05-02T09:11:32Z</time>
      </trkpt>
      <trkpt lat="46.77954" lon="-2.06426">
        <ele>11</ele>
        <time>2019-05-02T09:11:44Z</time>
      </trkpt>
      <trkpt lat="46.77959" lon="-2.06451">
        <ele>11</ele>
        <time>2019-05-02T09:11:56Z</time>
      </trkpt>
      <trkpt lat="46.7796" lon="-2.06457">
        <ele>11</ele>
        <time>2019-05-02T09:12:20Z</time>
      </trkpt>
      <trkpt lat="46.77957" lon="-2.06436">
        <ele>11</ele>
        <time>2019-05-02T09:12:31Z</time>
      </trkpt>
      <trkpt lat="46.77951" lon="-2.06463">
        <ele>11</ele>
        <time>2019-05-02T09:12:53Z</time>
      </trkpt>
      <trkpt lat="46.77969" lon="-2.06533">
        <ele>8</ele>
        <time>2019-05-02T09:13:26Z</time>
      </trkpt>
      <trkpt lat="46.78026" lon="-2.06618">
        <ele>6</ele>
        <time>2019-05-02T09:13:54Z</time>
      </trkpt>
      <trkpt lat="46.78067" lon="-2.06707">
        <ele>4</ele>
        <time>2019-05-02T09:14:18Z</time>
      </trkpt>
      <trkpt lat="46.78094" lon="-2.06724">
        <ele>7</ele>
        <time>2019-05-02T09:14:30Z</time>
      </trkpt>
      <trkpt lat="46.78137" lon="-2.06788">
        <ele>7</ele>
        <time>2019-05-02T09:15:00Z</time>
      </trkpt>
      <trkpt lat="46.78138" lon="-2.06839">
        <ele>6</ele>
        <time>2019-05-02T09:15:47Z</time>
      </trkpt>
      <trkpt lat="46.78281" lon="-2.07079">
        <ele>7</ele>
        <time>2019-05-02T09:17:18Z</time>
      </trkpt>
      <trkpt lat="46.78308" lon="-2.07056">
        <ele>7</ele>
        <time>2019-05-02T09:17:52Z</time>
      </trkpt>
      <trkpt lat="46.78285" lon="-2.07085">
        <ele>7</ele>
        <time>2019-05-02T09:18:06Z</time>
      </trkpt>
      <trkpt lat="46.78297" lon="-2.0712">
        <ele>3</ele>
        <time>2019-05-02T09:18:18Z</time>
      </trkpt>
      <trkpt lat="46.78429" lon="-2.07397">
        <ele>5</ele>
        <time>2019-05-02T09:19:36Z</time>
      </trkpt>
      <trkpt lat="46.78783" lon="-2.08238">
        <ele>11</ele>
        <time>2019-05-02T09:22:48Z</time>
      </trkpt>
      <trkpt lat="46.78844" lon="-2.08352">
        <ele>9</ele>
        <time>2019-05-02T09:23:18Z</time>
      </trkpt>
      <trkpt lat="46.78915" lon="-2.08384">
        <ele>9</ele>
        <time>2019-05-02T09:23:42Z</time>
      </trkpt>
      <trkpt lat="46.78918" lon="-2.0842">
        <ele>9</ele>
        <time>2019-05-02T09:23:54Z</time>
      </trkpt>
      <trkpt lat="46.78907" lon="-2.08411">
        <ele>9</ele>
        <time>2019-05-02T09:24:00Z</time>
      </trkpt>
      <trkpt lat="46.78926" lon="-2.08398">
        <ele>10</ele>
        <time>2019-05-02T09:24:12Z</time>
      </trkpt>
      <trkpt lat="46.78912" lon="-2.08417">
        <ele>9</ele>
        <time>2019-05-02T09:24:24Z</time>
      </trkpt>
      <trkpt lat="46.78897" lon="-2.08372">
        <ele>9</ele>
        <time>2019-05-02T09:24:42Z</time>
      </trkpt>
      <trkpt lat="46.78863" lon="-2.08361">
        <ele>9</ele>
        <time>2019-05-02T09:24:54Z</time>
      </trkpt>
      <trkpt lat="46.78854" lon="-2.08375">
        <ele>9</ele>
        <time>2019-05-02T09:25:06Z</time>
      </trkpt>
      <trkpt lat="46.78865" lon="-2.0836">
        <ele>9</ele>
        <time>2019-05-02T09:25:18Z</time>
      </trkpt>
      <trkpt lat="46.7891" lon="-2.08377">
        <ele>9</ele>
        <time>2019-05-02T09:25:42Z</time>
      </trkpt>
      <trkpt lat="46.78962" lon="-2.08316">
        <ele>10</ele>
        <time>2019-05-02T09:26:06Z</time>
      </trkpt>
      <trkpt lat="46.78996" lon="-2.08295">
        <ele>6</ele>
        <time>2019-05-02T09:26:21Z</time>
      </trkpt>
      <trkpt lat="46.79059" lon="-2.08321">
        <ele>5</ele>
        <time>2019-05-02T09:26:39Z</time>
      </trkpt>
      <trkpt lat="46.79168" lon="-2.08175">
        <ele>6</ele>
        <time>2019-05-02T09:27:33Z</time>
      </trkpt>
      <trkpt lat="46.79212" lon="-2.0808">
        <ele>6</ele>
        <time>2019-05-02T09:28:09Z</time>
      </trkpt>
      <trkpt lat="46.79275" lon="-2.0804">
        <ele>7</ele>
        <time>2019-05-02T09:28:33Z</time>
      </trkpt>
      <trkpt lat="46.79337" lon="-2.0795">
        <ele>8</ele>
        <time>2019-05-02T09:29:50Z</time>
      </trkpt>
      <trkpt lat="46.7944" lon="-2.07883">
        <ele>10</ele>
        <time>2019-05-02T09:30:32Z</time>
      </trkpt>
      <trkpt lat="46.79474" lon="-2.07797">
        <ele>13</ele>
        <time>2019-05-02T09:31:02Z</time>
      </trkpt>
      <trkpt lat="46.7952" lon="-2.07755">
        <ele>15</ele>
        <time>2019-05-02T09:31:26Z</time>
      </trkpt>
      <trkpt lat="46.79663" lon="-2.07704">
        <ele>17</ele>
        <time>2019-05-02T09:32:32Z</time>
      </trkpt>
      <trkpt lat="46.79711" lon="-2.0767">
        <ele>17</ele>
        <time>2019-05-02T09:32:44Z</time>
      </trkpt>
      <trkpt lat="46.7977" lon="-2.07669">
        <ele>14</ele>
        <time>2019-05-02T09:33:02Z</time>
      </trkpt>
      <trkpt lat="46.79811" lon="-2.07687">
        <ele>11</ele>
        <time>2019-05-02T09:33:14Z</time>
      </trkpt>
      <trkpt lat="46.7985" lon="-2.07806">
        <ele>11</ele>
        <time>2019-05-02T09:33:50Z</time>
      </trkpt>
      <trkpt lat="46.79886" lon="-2.0788">
        <ele>8</ele>
        <time>2019-05-02T09:34:02Z</time>
      </trkpt>
      <trkpt lat="46.79928" lon="-2.08019">
        <ele>8</ele>
        <time>2019-05-02T09:34:26Z</time>
      </trkpt>
      <trkpt lat="46.79941" lon="-2.08193">
        <ele>10</ele>
        <time>2019-05-02T09:34:56Z</time>
      </trkpt>
      <trkpt lat="46.79978" lon="-2.08289">
        <ele>9</ele>
        <time>2019-05-02T09:35:20Z</time>
      </trkpt>
      <trkpt lat="46.80033" lon="-2.08508">
        <ele>9</ele>
        <time>2019-05-02T09:36:02Z</time>
      </trkpt>
      <trkpt lat="46.80039" lon="-2.08594">
        <ele>10</ele>
        <time>2019-05-02T09:36:14Z</time>
      </trkpt>
      <trkpt lat="46.80099" lon="-2.08773">
        <ele>12</ele>
        <time>2019-05-02T09:36:44Z</time>
      </trkpt>
      <trkpt lat="46.80108" lon="-2.08863">
        <ele>11</ele>
        <time>2019-05-02T09:37:08Z</time>
      </trkpt>
      <trkpt lat="46.80122" lon="-2.08877">
        <ele>11</ele>
        <time>2019-05-02T09:37:14Z</time>
      </trkpt>
      <trkpt lat="46.80135" lon="-2.08917">
        <ele>12</ele>
        <time>2019-05-02T09:37:26Z</time>
      </trkpt>
      <trkpt lat="46.80159" lon="-2.09042">
        <ele>11</ele>
        <time>2019-05-02T09:38:02Z</time>
      </trkpt>
      <trkpt lat="46.80164" lon="-2.09119">
        <ele>15</ele>
        <time>2019-05-02T09:38:20Z</time>
      </trkpt>
      <trkpt lat="46.8025" lon="-2.0932">
        <ele>10</ele>
        <time>2019-05-02T09:39:08Z</time>
      </trkpt>
      <trkpt lat="46.80259" lon="-2.09414">
        <ele>11</ele>
        <time>2019-05-02T09:39:26Z</time>
      </trkpt>
      <trkpt lat="46.80359" lon="-2.09723">
        <ele>12</ele>
        <time>2019-05-02T09:40:26Z</time>
      </trkpt>
      <trkpt lat="46.80443" lon="-2.09861">
        <ele>10</ele>
        <time>2019-05-02T09:40:56Z</time>
      </trkpt>
      <trkpt lat="46.80491" lon="-2.09979">
        <ele>9</ele>
        <time>2019-05-02T09:41:08Z</time>
      </trkpt>
      <trkpt lat="46.80504" lon="-2.10133">
        <ele>9</ele>
        <time>2019-05-02T09:41:26Z</time>
      </trkpt>
      <trkpt lat="46.80543" lon="-2.10204">
        <ele>7</ele>
        <time>2019-05-02T09:41:50Z</time>
      </trkpt>
      <trkpt lat="46.80582" lon="-2.10313">
        <ele>8</ele>
        <time>2019-05-02T09:42:14Z</time>
      </trkpt>
      <trkpt lat="46.80659" lon="-2.10681">
        <ele>11</ele>
        <time>2019-05-02T09:43:26Z</time>
      </trkpt>
      <trkpt lat="46.80777" lon="-2.10947">
        <ele>8</ele>
        <time>2019-05-02T09:44:08Z</time>
      </trkpt>
      <trkpt lat="46.80835" lon="-2.11166">
        <ele>8</ele>
        <time>2019-05-02T09:44:50Z</time>
      </trkpt>
      <trkpt lat="46.8088" lon="-2.11241">
        <ele>6</ele>
        <time>2019-05-02T09:45:14Z</time>
      </trkpt>
      <trkpt lat="46.809" lon="-2.11322">
        <ele>6</ele>
        <time>2019-05-02T09:45:32Z</time>
      </trkpt>
      <trkpt lat="46.80997" lon="-2.116">
        <ele>5</ele>
        <time>2019-05-02T09:46:32Z</time>
      </trkpt>
      <trkpt lat="46.8101" lon="-2.11687">
        <ele>6</ele>
        <time>2019-05-02T09:46:50Z</time>
      </trkpt>
      <trkpt lat="46.81039" lon="-2.11781">
        <ele>8</ele>
        <time>2019-05-02T09:47:34Z</time>
      </trkpt>
      <trkpt lat="46.81019" lon="-2.11735">
        <ele>7</ele>
        <time>2019-05-02T09:48:10Z</time>
      </trkpt>
      <trkpt lat="46.81076" lon="-2.11836">
        <ele>9</ele>
        <time>2019-05-02T09:48:47Z</time>
      </trkpt>
      <trkpt lat="46.81142" lon="-2.11863">
        <ele>7</ele>
        <time>2019-05-02T09:49:11Z</time>
      </trkpt>
      <trkpt lat="46.81207" lon="-2.11918">
        <ele>6</ele>
        <time>2019-05-02T09:49:29Z</time>
      </trkpt>
      <trkpt lat="46.81314" lon="-2.12099">
        <ele>5</ele>
        <time>2019-05-02T09:50:17Z</time>
      </trkpt>
      <trkpt lat="46.81338" lon="-2.1216">
        <ele>4</ele>
        <time>2019-05-02T09:50:29Z</time>
      </trkpt>
      <trkpt lat="46.81276" lon="-2.12273">
        <ele>7</ele>
        <time>2019-05-02T09:50:59Z</time>
      </trkpt>
      <trkpt lat="46.81312" lon="-2.12368">
        <ele>8</ele>
        <time>2019-05-02T09:51:29Z</time>
      </trkpt>
      <trkpt lat="46.81326" lon="-2.12385">
        <ele>11</ele>
        <time>2019-05-02T09:51:35Z</time>
      </trkpt>
      <trkpt lat="46.81364" lon="-2.12373">
        <ele>7</ele>
        <time>2019-05-02T09:51:47Z</time>
      </trkpt>
      <trkpt lat="46.81397" lon="-2.12388">
        <ele>9</ele>
        <time>2019-05-02T09:51:59Z</time>
      </trkpt>
      <trkpt lat="46.8142" lon="-2.12419">
        <ele>7</ele>
        <time>2019-05-02T09:52:11Z</time>
      </trkpt>
      <trkpt lat="46.81505" lon="-2.12477">
        <ele>6</ele>
        <time>2019-05-02T09:52:29Z</time>
      </trkpt>
      <trkpt lat="46.81592" lon="-2.1258">
        <ele>5</ele>
        <time>2019-05-02T09:52:53Z</time>
      </trkpt>
      <trkpt lat="46.81638" lon="-2.12664">
        <ele>6</ele>
        <time>2019-05-02T09:53:11Z</time>
      </trkpt>
      <trkpt lat="46.81656" lon="-2.12734">
        <ele>6</ele>
        <time>2019-05-02T09:53:23Z</time>
      </trkpt>
      <trkpt lat="46.81723" lon="-2.12886">
        <ele>7</ele>
        <time>2019-05-02T09:53:53Z</time>
      </trkpt>
      <trkpt lat="46.81824" lon="-2.13028">
        <ele>7</ele>
        <time>2019-05-02T09:54:23Z</time>
      </trkpt>
      <trkpt lat="46.81925" lon="-2.13097">
        <ele>6</ele>
        <time>2019-05-02T09:54:47Z</time>
      </trkpt>
      <trkpt lat="46.81945" lon="-2.13146">
        <ele>8</ele>
        <time>2019-05-02T09:54:59Z</time>
      </trkpt>
      <trkpt lat="46.82005" lon="-2.13233">
        <ele>7</ele>
        <time>2019-05-02T09:55:23Z</time>
      </trkpt>
      <trkpt lat="46.8201" lon="-2.13298">
        <ele>8</ele>
        <time>2019-05-02T09:55:35Z</time>
      </trkpt>
      <trkpt lat="46.81989" lon="-2.13498">
        <ele>11</ele>
        <time>2019-05-02T09:56:23Z</time>
      </trkpt>
      <trkpt lat="46.82023" lon="-2.13655">
        <ele>11</ele>
        <time>2019-05-02T09:56:53Z</time>
      </trkpt>
      <trkpt lat="46.82054" lon="-2.13711">
        <ele>10</ele>
        <time>2019-05-02T09:57:11Z</time>
      </trkpt>
      <trkpt lat="46.82261" lon="-2.13796">
        <ele>6</ele>
        <time>2019-05-02T09:58:05Z</time>
      </trkpt>
      <trkpt lat="46.82435" lon="-2.13842">
        <ele>7</ele>
        <time>2019-05-02T09:58:53Z</time>
      </trkpt>
      <trkpt lat="46.82712" lon="-2.13944">
        <ele>8</ele>
        <time>2019-05-02T10:00:17Z</time>
      </trkpt>
      <trkpt lat="46.82809" lon="-2.13962">
        <ele>9</ele>
        <time>2019-05-02T10:00:47Z</time>
      </trkpt>
      <trkpt lat="46.82898" lon="-2.1396">
        <ele>9</ele>
        <time>2019-05-02T10:01:17Z</time>
      </trkpt>
      <trkpt lat="46.83091" lon="-2.14018">
        <ele>8</ele>
        <time>2019-05-02T10:02:17Z</time>
      </trkpt>
      <trkpt lat="46.8313" lon="-2.14012">
        <ele>8</ele>
        <time>2019-05-02T10:02:39Z</time>
      </trkpt>
      <trkpt lat="46.83197" lon="-2.13942">
        <ele>8</ele>
        <time>2019-05-02T10:03:09Z</time>
      </trkpt>
      <trkpt lat="46.8338" lon="-2.13824">
        <ele>8</ele>
        <time>2019-05-02T10:03:57Z</time>
      </trkpt>
      <trkpt lat="46.83545" lon="-2.13808">
        <ele>8</ele>
        <time>2019-05-02T10:04:45Z</time>
      </trkpt>
      <trkpt lat="46.83683" lon="-2.1375">
        <ele>7</ele>
        <time>2019-05-02T10:05:21Z</time>
      </trkpt>
      <trkpt lat="46.83724" lon="-2.13756">
        <ele>8</ele>
        <time>2019-05-02T10:05:33Z</time>
      </trkpt>
      <trkpt lat="46.83836" lon="-2.1382">
        <ele>8</ele>
        <time>2019-05-02T10:06:33Z</time>
      </trkpt>
      <trkpt lat="46.83877" lon="-2.13824">
        <ele>9</ele>
        <time>2019-05-02T10:06:51Z</time>
      </trkpt>
      <trkpt lat="46.83957" lon="-2.13874">
        <ele>10</ele>
        <time>2019-05-02T10:07:15Z</time>
      </trkpt>
      <trkpt lat="46.84092" lon="-2.13918">
        <ele>11</ele>
        <time>2019-05-02T10:08:03Z</time>
      </trkpt>
      <trkpt lat="46.84154" lon="-2.13925">
        <ele>8</ele>
        <time>2019-05-02T10:08:21Z</time>
      </trkpt>
      <trkpt lat="46.84172" lon="-2.1388">
        <ele>8</ele>
        <time>2019-05-02T10:08:39Z</time>
      </trkpt>
      <trkpt lat="46.8415" lon="-2.13524">
        <ele>9</ele>
        <time>2019-05-02T10:09:57Z</time>
      </trkpt>
      <trkpt lat="46.84168" lon="-2.13481">
        <ele>9</ele>
        <time>2019-05-02T10:10:09Z</time>
      </trkpt>
      <trkpt lat="46.84265" lon="-2.13428">
        <ele>9</ele>
        <time>2019-05-02T10:10:45Z</time>
      </trkpt>
      <trkpt lat="46.84366" lon="-2.13326">
        <ele>8</ele>
        <time>2019-05-02T10:11:15Z</time>
      </trkpt>
      <trkpt lat="46.84442" lon="-2.13302">
        <ele>10</ele>
        <time>2019-05-02T10:11:39Z</time>
      </trkpt>
      <trkpt lat="46.84475" lon="-2.13268">
        <ele>10</ele>
        <time>2019-05-02T10:11:51Z</time>
      </trkpt>
      <trkpt lat="46.84592" lon="-2.13211">
        <ele>11</ele>
        <time>2019-05-02T10:12:21Z</time>
      </trkpt>
      <trkpt lat="46.84659" lon="-2.1314">
        <ele>11</ele>
        <time>2019-05-02T10:12:45Z</time>
      </trkpt>
      <trkpt lat="46.84709" lon="-2.13065">
        <ele>9</ele>
        <time>2019-05-02T10:13:03Z</time>
      </trkpt>
      <trkpt lat="46.84753" lon="-2.13062">
        <ele>9</ele>
        <time>2019-05-02T10:13:15Z</time>
      </trkpt>
      <trkpt lat="46.84799" lon="-2.13021">
        <ele>10</ele>
        <time>2019-05-02T10:13:27Z</time>
      </trkpt>
      <trkpt lat="46.84856" lon="-2.13008">
        <ele>10</ele>
        <time>2019-05-02T10:13:39Z</time>
      </trkpt>
      <trkpt lat="46.84932" lon="-2.12958">
        <ele>10</ele>
        <time>2019-05-02T10:14:09Z</time>
      </trkpt>
      <trkpt lat="46.8497" lon="-2.12912">
        <ele>9</ele>
        <time>2019-05-02T10:14:21Z</time>
      </trkpt>
      <trkpt lat="46.8499" lon="-2.12864">
        <ele>11</ele>
        <time>2019-05-02T10:14:33Z</time>
      </trkpt>
      <trkpt lat="46.85037" lon="-2.12846">
        <ele>10</ele>
        <time>2019-05-02T10:14:51Z</time>
      </trkpt>
      <trkpt lat="46.85054" lon="-2.1282">
        <ele>10</ele>
        <time>2019-05-02T10:14:57Z</time>
      </trkpt>
      <trkpt lat="46.85141" lon="-2.12774">
        <ele>12</ele>
        <time>2019-05-02T10:15:15Z</time>
      </trkpt>
      <trkpt lat="46.85342" lon="-2.12536">
        <ele>12</ele>
        <time>2019-05-02T10:16:09Z</time>
      </trkpt>
      <trkpt lat="46.85429" lon="-2.12464">
        <ele>13</ele>
        <time>2019-05-02T10:16:33Z</time>
      </trkpt>
      <trkpt lat="46.8555" lon="-2.12323">
        <ele>11</ele>
        <time>2019-05-02T10:17:09Z</time>
      </trkpt>
      <trkpt lat="46.8567" lon="-2.12288">
        <ele>13</ele>
        <time>2019-05-02T10:17:39Z</time>
      </trkpt>
      <trkpt lat="46.85679" lon="-2.12155">
        <ele>12</ele>
        <time>2019-05-02T10:17:57Z</time>
      </trkpt>
      <trkpt lat="46.85838" lon="-2.11969">
        <ele>14</ele>
        <time>2019-05-02T10:18:51Z</time>
      </trkpt>
      <trkpt lat="46.85869" lon="-2.11885">
        <ele>12</ele>
        <time>2019-05-02T10:19:03Z</time>
      </trkpt>
      <trkpt lat="46.85922" lon="-2.11812">
        <ele>9</ele>
        <time>2019-05-02T10:19:15Z</time>
      </trkpt>
      <trkpt lat="46.86089" lon="-2.11989">
        <ele>11</ele>
        <time>2019-05-02T10:20:03Z</time>
      </trkpt>
      <trkpt lat="46.86214" lon="-2.12047">
        <ele>12</ele>
        <time>2019-05-02T10:20:39Z</time>
      </trkpt>
      <trkpt lat="46.86226" lon="-2.12096">
        <ele>12</ele>
        <time>2019-05-02T10:20:51Z</time>
      </trkpt>
      <trkpt lat="46.86222" lon="-2.12194">
        <ele>13</ele>
        <time>2019-05-02T10:21:09Z</time>
      </trkpt>
      <trkpt lat="46.86267" lon="-2.12266">
        <ele>12</ele>
        <time>2019-05-02T10:21:27Z</time>
      </trkpt>
      <trkpt lat="46.86297" lon="-2.12367">
        <ele>12</ele>
        <time>2019-05-02T10:21:45Z</time>
      </trkpt>
      <trkpt lat="46.86347" lon="-2.12485">
        <ele>13</ele>
        <time>2019-05-02T10:22:09Z</time>
      </trkpt>
      <trkpt lat="46.86467" lon="-2.12491">
        <ele>10</ele>
        <time>2019-05-02T10:22:45Z</time>
      </trkpt>
      <trkpt lat="46.86485" lon="-2.12465">
        <ele>10</ele>
        <time>2019-05-02T10:22:51Z</time>
      </trkpt>
      <trkpt lat="46.86646" lon="-2.12386">
        <ele>13</ele>
        <time>2019-05-02T10:23:39Z</time>
      </trkpt>
      <trkpt lat="46.86743" lon="-2.12453">
        <ele>13</ele>
        <time>2019-05-02T10:24:03Z</time>
      </trkpt>
      <trkpt lat="46.86801" lon="-2.12476">
        <ele>10</ele>
        <time>2019-05-02T10:24:15Z</time>
      </trkpt>
      <trkpt lat="46.86861" lon="-2.1247">
        <ele>10</ele>
        <time>2019-05-02T10:24:27Z</time>
      </trkpt>
      <trkpt lat="46.86909" lon="-2.12484">
        <ele>10</ele>
        <time>2019-05-02T10:24:39Z</time>
      </trkpt>
      <trkpt lat="46.86954" lon="-2.12464">
        <ele>10</ele>
        <time>2019-05-02T10:24:51Z</time>
      </trkpt>
      <trkpt lat="46.87036" lon="-2.12374">
        <ele>6</ele>
        <time>2019-05-02T10:25:21Z</time>
      </trkpt>
      <trkpt lat="46.87101" lon="-2.12346">
        <ele>7</ele>
        <time>2019-05-02T10:25:39Z</time>
      </trkpt>
      <trkpt lat="46.87188" lon="-2.12366">
        <ele>7</ele>
        <time>2019-05-02T10:26:03Z</time>
      </trkpt>
      <trkpt lat="46.87293" lon="-2.12423">
        <ele>11</ele>
        <time>2019-05-02T10:26:33Z</time>
      </trkpt>
      <trkpt lat="46.87363" lon="-2.12442">
        <ele>10</ele>
        <time>2019-05-02T10:26:51Z</time>
      </trkpt>
      <trkpt lat="46.87415" lon="-2.12396">
        <ele>11</ele>
        <time>2019-05-02T10:27:22Z</time>
      </trkpt>
      <trkpt lat="46.87472" lon="-2.1237">
        <ele>7</ele>
        <time>2019-05-02T10:27:45Z</time>
      </trkpt>
      <trkpt lat="46.87694" lon="-2.12466">
        <ele>12</ele>
        <time>2019-05-02T10:28:27Z</time>
      </trkpt>
      <trkpt lat="46.87844" lon="-2.12509">
        <ele>11</ele>
        <time>2019-05-02T10:29:15Z</time>
      </trkpt>
      <trkpt lat="46.87868" lon="-2.126">
        <ele>19</ele>
        <time>2019-05-02T10:29:43Z</time>
      </trkpt>
      <trkpt lat="46.87849" lon="-2.12747">
        <ele>14</ele>
        <time>2019-05-02T10:30:40Z</time>
      </trkpt>
      <trkpt lat="46.87851" lon="-2.13003">
        <ele>13</ele>
        <time>2019-05-02T10:31:22Z</time>
      </trkpt>
      <trkpt lat="46.87809" lon="-2.13139">
        <ele>12</ele>
        <time>2019-05-02T10:32:04Z</time>
      </trkpt>
      <trkpt lat="46.87866" lon="-2.13442">
        <ele>7</ele>
        <time>2019-05-02T10:32:52Z</time>
      </trkpt>
      <trkpt lat="46.87869" lon="-2.13477">
        <ele>7</ele>
        <time>2019-05-02T10:32:58Z</time>
      </trkpt>
      <trkpt lat="46.87849" lon="-2.1361">
        <ele>7</ele>
        <time>2019-05-02T10:33:28Z</time>
      </trkpt>
      <trkpt lat="46.87874" lon="-2.13828">
        <ele>8</ele>
        <time>2019-05-02T10:34:10Z</time>
      </trkpt>
      <trkpt lat="46.87881" lon="-2.14058">
        <ele>8</ele>
        <time>2019-05-02T10:34:52Z</time>
      </trkpt>
      <trkpt lat="46.87892" lon="-2.14118">
        <ele>8</ele>
        <time>2019-05-02T10:35:04Z</time>
      </trkpt>
      <trkpt lat="46.87916" lon="-2.14168">
        <ele>9</ele>
        <time>2019-05-02T10:35:16Z</time>
      </trkpt>
      <trkpt lat="46.87945" lon="-2.14201">
        <ele>8</ele>
        <time>2019-05-02T10:35:28Z</time>
      </trkpt>
      <trkpt lat="46.88327" lon="-2.14251">
        <ele>7</ele>
        <time>2019-05-02T10:37:10Z</time>
      </trkpt>
      <trkpt lat="46.88359" lon="-2.1438">
        <ele>8</ele>
        <time>2019-05-02T10:37:34Z</time>
      </trkpt>
      <trkpt lat="46.88383" lon="-2.1453">
        <ele>6</ele>
        <time>2019-05-02T10:37:58Z</time>
      </trkpt>
      <trkpt lat="46.88392" lon="-2.14717">
        <ele>8</ele>
        <time>2019-05-02T10:38:34Z</time>
      </trkpt>
      <trkpt lat="46.88408" lon="-2.14819">
        <ele>8</ele>
        <time>2019-05-02T10:38:52Z</time>
      </trkpt>
      <trkpt lat="46.88452" lon="-2.14933">
        <ele>8</ele>
        <time>2019-05-02T10:39:28Z</time>
      </trkpt>
      <trkpt lat="46.88521" lon="-2.15024">
        <ele>7</ele>
        <time>2019-05-02T10:39:58Z</time>
      </trkpt>
      <trkpt lat="46.8853" lon="-2.15022">
        <ele>7</ele>
        <time>2019-05-02T10:40:06Z</time>
      </trkpt>
      <trkpt lat="46.88534" lon="-2.14939">
        <ele>6</ele>
        <time>2019-05-02T10:40:49Z</time>
      </trkpt>
      <trkpt lat="46.88524" lon="-2.14876">
        <ele>7</ele>
        <time>2019-05-02T10:41:09Z</time>
      </trkpt>
      <trkpt lat="46.88526" lon="-2.14779">
        <ele>7</ele>
        <time>2019-05-02T10:41:27Z</time>
      </trkpt>
      <trkpt lat="46.88508" lon="-2.14719">
        <ele>7</ele>
        <time>2019-05-02T10:41:39Z</time>
      </trkpt>
      <trkpt lat="46.88501" lon="-2.14617">
        <ele>6</ele>
        <time>2019-05-02T10:41:57Z</time>
      </trkpt>
      <trkpt lat="46.88515" lon="-2.14445">
        <ele>8</ele>
        <time>2019-05-02T10:42:21Z</time>
      </trkpt>
      <trkpt lat="46.88523" lon="-2.14412">
        <ele>8</ele>
        <time>2019-05-02T10:42:27Z</time>
      </trkpt>
      <trkpt lat="46.88565" lon="-2.14357">
        <ele>8</ele>
        <time>2019-05-02T10:42:45Z</time>
      </trkpt>
      <trkpt lat="46.88567" lon="-2.14294">
        <ele>8</ele>
        <time>2019-05-02T10:42:57Z</time>
      </trkpt>
      <trkpt lat="46.88561" lon="-2.14291">
        <ele>8</ele>
        <time>2019-05-02T10:43:06Z</time>
      </trkpt>
      <trkpt lat="46.88616" lon="-2.1428">
        <ele>8</ele>
        <time>2019-05-02T10:43:49Z</time>
      </trkpt>
      <trkpt lat="46.88911" lon="-2.14318">
        <ele>10</ele>
        <time>2019-05-02T10:45:37Z</time>
      </trkpt>
      <trkpt lat="46.8893" lon="-2.14304">
        <ele>9</ele>
        <time>2019-05-02T10:45:49Z</time>
      </trkpt>
      <trkpt lat="46.88974" lon="-2.14298">
        <ele>9</ele>
        <time>2019-05-02T10:46:07Z</time>
      </trkpt>
      <trkpt lat="46.89019" lon="-2.1436">
        <ele>6</ele>
        <time>2019-05-02T10:46:37Z</time>
      </trkpt>
      <trkpt lat="46.89034" lon="-2.14345">
        <ele>5</ele>
        <time>2019-05-02T10:46:54Z</time>
      </trkpt>
      <trkpt lat="46.89112" lon="-2.14192">
        <ele>4</ele>
        <time>2019-05-02T10:47:42Z</time>
      </trkpt>
      <trkpt lat="46.89216" lon="-2.13917">
        <ele>2</ele>
        <time>2019-05-02T10:48:42Z</time>
      </trkpt>
      <trkpt lat="46.89176" lon="-2.13871">
        <ele>3</ele>
        <time>2019-05-02T10:49:06Z</time>
      </trkpt>
      <trkpt lat="46.8916" lon="-2.13745">
        <ele>3</ele>
        <time>2019-05-02T10:49:36Z</time>
      </trkpt>
      <trkpt lat="46.8913" lon="-2.13716">
        <ele>4</ele>
        <time>2019-05-02T10:49:48Z</time>
      </trkpt>
      <trkpt lat="46.89131" lon="-2.13619">
        <ele>4</ele>
        <time>2019-05-02T10:50:13Z</time>
      </trkpt>
      <trkpt lat="46.89106" lon="-2.13617">
        <ele>4</ele>
        <time>2019-05-02T10:50:24Z</time>
      </trkpt>
      <trkpt lat="46.89122" lon="-2.13606">
        <ele>5</ele>
        <time>2019-05-02T10:50:40Z</time>
      </trkpt>
      <trkpt lat="46.89128" lon="-2.13526">
        <ele>5</ele>
        <time>2019-05-02T10:50:51Z</time>
      </trkpt>
      <trkpt lat="46.89059" lon="-2.13487">
        <ele>7</ele>
        <time>2019-05-02T10:51:35Z</time>
      </trkpt>
      <trkpt lat="46.88996" lon="-2.13099">
        <ele>7</ele>
        <time>2019-05-02T10:52:34Z</time>
      </trkpt>
      <trkpt lat="46.88871" lon="-2.12889">
        <ele>9</ele>
        <time>2019-05-02T10:53:22Z</time>
      </trkpt>
      <trkpt lat="46.88762" lon="-2.12666">
        <ele>15</ele>
        <time>2019-05-02T10:54:40Z</time>
      </trkpt>
      <trkpt lat="46.88701" lon="-2.12506">
        <ele>10</ele>
        <time>2019-05-02T10:55:16Z</time>
      </trkpt>
      <trkpt lat="46.88688" lon="-2.12365">
        <ele>7</ele>
        <time>2019-05-02T10:55:52Z</time>
      </trkpt>
      <trkpt lat="46.88657" lon="-2.12272">
        <ele>6</ele>
        <time>2019-05-02T10:56:10Z</time>
      </trkpt>
      <trkpt lat="46.887" lon="-2.12225">
        <ele>5</ele>
        <time>2019-05-02T10:56:28Z</time>
      </trkpt>
      <trkpt lat="46.88905" lon="-2.12111">
        <ele>4</ele>
        <time>2019-05-02T10:57:10Z</time>
      </trkpt>
      <trkpt lat="46.88935" lon="-2.12068">
        <ele>4</ele>
        <time>2019-05-02T10:57:22Z</time>
      </trkpt>
      <trkpt lat="46.88893" lon="-2.11303">
        <ele>3</ele>
        <time>2019-05-02T11:01:28Z</time>
      </trkpt>
      <trkpt lat="46.8896" lon="-2.11289">
        <ele>3</ele>
        <time>2019-05-02T11:01:58Z</time>
      </trkpt>
      <trkpt lat="46.88974" lon="-2.11354">
        <ele>3</ele>
        <time>2019-05-02T11:02:16Z</time>
      </trkpt>
      <trkpt lat="46.88956" lon="-2.11467">
        <ele>3</ele>
        <time>2019-05-02T11:02:40Z</time>
      </trkpt>
      <trkpt lat="46.88961" lon="-2.1158">
        <ele>2</ele>
        <time>2019-05-02T11:03:10Z</time>
      </trkpt>
      <trkpt lat="46.88953" lon="-2.11506">
        <ele>2</ele>
        <time>2019-05-02T11:03:28Z</time>
      </trkpt>
      <trkpt lat="46.88974" lon="-2.1135">
        <ele>3</ele>
        <time>2019-05-02T11:04:06Z</time>
      </trkpt>
      <trkpt lat="46.88948" lon="-2.11157">
        <ele>4</ele>
        <time>2019-05-02T11:04:42Z</time>
      </trkpt>
      <trkpt lat="46.88963" lon="-2.11285">
        <ele>3</ele>
        <time>2019-05-02T11:05:24Z</time>
      </trkpt>
      <trkpt lat="46.88905" lon="-2.11301">
        <ele>3</ele>
        <time>2019-05-02T11:05:48Z</time>
      </trkpt>
      <trkpt lat="46.88896" lon="-2.1116">
        <ele>5</ele>
        <time>2019-05-02T11:06:23Z</time>
      </trkpt>
      <trkpt lat="46.88881" lon="-2.1113">
        <ele>4</ele>
        <time>2019-05-02T11:06:36Z</time>
      </trkpt>
      <trkpt lat="46.8891" lon="-2.11047">
        <ele>4</ele>
        <time>2019-05-02T11:07:10Z</time>
      </trkpt>
      <trkpt lat="46.88911" lon="-2.11002">
        <ele>3</ele>
        <time>2019-05-02T11:07:21Z</time>
      </trkpt>
      <trkpt lat="46.88894" lon="-2.10989">
        <ele>3</ele>
        <time>2019-05-02T11:07:33Z</time>
      </trkpt>
      <trkpt lat="46.88814" lon="-2.10976">
        <ele>2</ele>
        <time>2019-05-02T11:08:04Z</time>
      </trkpt>
      <trkpt lat="46.88721" lon="-2.10973">
        <ele>2</ele>
        <time>2019-05-02T11:08:27Z</time>
      </trkpt>
      <trkpt lat="46.88707" lon="-2.10952">
        <ele>1</ele>
        <time>2019-05-02T11:08:33Z</time>
      </trkpt>
      <trkpt lat="46.88685" lon="-2.10856">
        <ele>1.9</ele>
        <time>2019-05-02T11:08:52Z</time>
      </trkpt>
      <trkpt lat="46.88696" lon="-2.1081">
        <ele>2.7</ele>
        <time>2019-05-02T11:09:03Z</time>
      </trkpt>
      <trkpt lat="46.88665" lon="-2.10735">
        <ele>1.5</ele>
        <time>2019-05-02T11:09:15Z</time>
      </trkpt>
      <trkpt lat="46.88614" lon="-2.10731">
        <ele>2.3</ele>
        <time>2019-05-02T11:09:27Z</time>
      </trkpt>
      <trkpt lat="46.88574" lon="-2.10685">
        <ele>1.8</ele>
        <time>2019-05-02T11:09:39Z</time>
      </trkpt>
      <trkpt lat="46.88492" lon="-2.10649">
        <ele>2</ele>
        <time>2019-05-02T11:09:57Z</time>
      </trkpt>
      <trkpt lat="46.88439" lon="-2.1061">
        <ele>2</ele>
        <time>2019-05-02T11:10:09Z</time>
      </trkpt>
      <trkpt lat="46.88413" lon="-2.10618">
        <ele>1.8</ele>
        <time>2019-05-02T11:10:16Z</time>
      </trkpt>
      <trkpt lat="46.88327" lon="-2.10601">
        <ele>1.6</ele>
        <time>2019-05-02T11:10:33Z</time>
      </trkpt>
      <trkpt lat="46.88231" lon="-2.1068">
        <ele>1.5</ele>
        <time>2019-05-02T11:10:57Z</time>
      </trkpt>
      <trkpt lat="46.88146" lon="-2.10708">
        <ele>1.5</ele>
        <time>2019-05-02T11:11:15Z</time>
      </trkpt>
      <trkpt lat="46.88071" lon="-2.10748">
        <ele>2</ele>
        <time>2019-05-02T11:11:33Z</time>
      </trkpt>
      <trkpt lat="46.88033" lon="-2.10726">
        <ele>1.9</ele>
        <time>2019-05-02T11:11:46Z</time>
      </trkpt>
      <trkpt lat="46.87925" lon="-2.10578">
        <ele>1</ele>
        <time>2019-05-02T11:12:21Z</time>
      </trkpt>
      <trkpt lat="46.87811" lon="-2.10451">
        <ele>1</ele>
        <time>2019-05-02T11:12:52Z</time>
      </trkpt>
      <trkpt lat="46.87725" lon="-2.10456">
        <ele>1</ele>
        <time>2019-05-02T11:13:10Z</time>
      </trkpt>
      <trkpt lat="46.87642" lon="-2.10485">
        <ele>1</ele>
        <time>2019-05-02T11:13:27Z</time>
      </trkpt>
      <trkpt lat="46.87554" lon="-2.10471">
        <ele>1</ele>
        <time>2019-05-02T11:13:45Z</time>
      </trkpt>
      <trkpt lat="46.87433" lon="-2.10419">
        <ele>2</ele>
        <time>2019-05-02T11:14:09Z</time>
      </trkpt>
      <trkpt lat="46.87345" lon="-2.10365">
        <ele>1</ele>
        <time>2019-05-02T11:14:27Z</time>
      </trkpt>
      <trkpt lat="46.87189" lon="-2.10332">
        <ele>2.8</ele>
        <time>2019-05-02T11:14:57Z</time>
      </trkpt>
      <trkpt lat="46.87168" lon="-2.10297">
        <ele>2</ele>
        <time>2019-05-02T11:15:03Z</time>
      </trkpt>
      <trkpt lat="46.87157" lon="-2.10199">
        <ele>2.5</ele>
        <time>2019-05-02T11:15:16Z</time>
      </trkpt>
      <trkpt lat="46.87127" lon="-2.10073">
        <ele>1</ele>
        <time>2019-05-02T11:15:33Z</time>
      </trkpt>
      <trkpt lat="46.87183" lon="-2.09987">
        <ele>1</ele>
        <time>2019-05-02T11:15:51Z</time>
      </trkpt>
      <trkpt lat="46.87247" lon="-2.0994">
        <ele>1</ele>
        <time>2019-05-02T11:16:29Z</time>
      </trkpt>
      <trkpt lat="46.8727" lon="-2.09903">
        <ele>1</ele>
        <time>2019-05-02T11:16:41Z</time>
      </trkpt>
      <trkpt lat="46.87168" lon="-2.09792">
        <ele>2</ele>
        <time>2019-05-02T11:17:05Z</time>
      </trkpt>
      <trkpt lat="46.87106" lon="-2.0968">
        <ele>-1</ele>
        <time>2019-05-02T11:17:23Z</time>
      </trkpt>
      <trkpt lat="46.86893" lon="-2.0919">
        <ele>2.8</ele>
        <time>2019-05-02T11:18:35Z</time>
      </trkpt>
      <trkpt lat="46.86506" lon="-2.08171">
        <ele>2</ele>
        <time>2019-05-02T11:21:11Z</time>
      </trkpt>
      <trkpt lat="46.86418" lon="-2.08014">
        <ele>1</ele>
        <time>2019-05-02T11:21:35Z</time>
      </trkpt>
      <trkpt lat="46.86363" lon="-2.0789">
        <ele>1</ele>
        <time>2019-05-02T11:21:53Z</time>
      </trkpt>
      <trkpt lat="46.86261" lon="-2.07785">
        <ele>1</ele>
        <time>2019-05-02T11:22:17Z</time>
      </trkpt>
      <trkpt lat="46.86143" lon="-2.07503">
        <ele>2</ele>
        <time>2019-05-02T11:22:59Z</time>
      </trkpt>
      <trkpt lat="46.86132" lon="-2.07405">
        <ele>1</ele>
        <time>2019-05-02T11:23:11Z</time>
      </trkpt>
      <trkpt lat="46.86162" lon="-2.07261">
        <ele>2</ele>
        <time>2019-05-02T11:23:29Z</time>
      </trkpt>
      <trkpt lat="46.86196" lon="-2.07179">
        <ele>2</ele>
        <time>2019-05-02T11:23:41Z</time>
      </trkpt>
      <trkpt lat="46.86228" lon="-2.07035">
        <ele>2</ele>
        <time>2019-05-02T11:23:59Z</time>
      </trkpt>
      <trkpt lat="46.86304" lon="-2.06859">
        <ele>1</ele>
        <time>2019-05-02T11:24:29Z</time>
      </trkpt>
      <trkpt lat="46.86315" lon="-2.06713">
        <ele>1</ele>
        <time>2019-05-02T11:24:47Z</time>
      </trkpt>
      <trkpt lat="46.86399" lon="-2.06485">
        <ele>2</ele>
        <time>2019-05-02T11:25:23Z</time>
      </trkpt>
      <trkpt lat="46.86426" lon="-2.063">
        <ele>2</ele>
        <time>2019-05-02T11:25:47Z</time>
      </trkpt>
      <trkpt lat="46.86477" lon="-2.06053">
        <ele>1</ele>
        <time>2019-05-02T11:26:23Z</time>
      </trkpt>
      <trkpt lat="46.86519" lon="-2.05973">
        <ele>2</ele>
        <time>2019-05-02T11:27:03Z</time>
      </trkpt>
      <trkpt lat="46.86629" lon="-2.05846">
        <ele>1</ele>
        <time>2019-05-02T11:27:39Z</time>
      </trkpt>
      <trkpt lat="46.86692" lon="-2.05701">
        <ele>1</ele>
        <time>2019-05-02T11:28:03Z</time>
      </trkpt>
      <trkpt lat="46.86718" lon="-2.05455">
        <ele>1</ele>
        <time>2019-05-02T11:28:39Z</time>
      </trkpt>
      <trkpt lat="46.86789" lon="-2.05321">
        <ele>2</ele>
        <time>2019-05-02T11:29:03Z</time>
      </trkpt>
      <trkpt lat="46.86796" lon="-2.05135">
        <ele>1</ele>
        <time>2019-05-02T11:29:27Z</time>
      </trkpt>
      <trkpt lat="46.86868" lon="-2.048">
        <ele>2</ele>
        <time>2019-05-02T11:30:15Z</time>
      </trkpt>
      <trkpt lat="46.86892" lon="-2.04721">
        <ele>2</ele>
        <time>2019-05-02T11:30:27Z</time>
      </trkpt>
      <trkpt lat="46.86967" lon="-2.04559">
        <ele>2</ele>
        <time>2019-05-02T11:30:57Z</time>
      </trkpt>
      <trkpt lat="46.87004" lon="-2.04449">
        <ele>1</ele>
        <time>2019-05-02T11:31:15Z</time>
      </trkpt>
      <trkpt lat="46.87053" lon="-2.04028">
        <ele>1</ele>
        <time>2019-05-02T11:32:15Z</time>
      </trkpt>
      <trkpt lat="46.87095" lon="-2.03861">
        <ele>1</ele>
        <time>2019-05-02T11:32:39Z</time>
      </trkpt>
      <trkpt lat="46.87136" lon="-2.03739">
        <ele>1</ele>
        <time>2019-05-02T11:32:57Z</time>
      </trkpt>
      <trkpt lat="46.87253" lon="-2.03605">
        <ele>1</ele>
        <time>2019-05-02T11:34:06Z</time>
      </trkpt>
      <trkpt lat="46.87248" lon="-2.03514">
        <ele>2</ele>
        <time>2019-05-02T11:34:27Z</time>
      </trkpt>
      <trkpt lat="46.87257" lon="-2.03451">
        <ele>1.4</ele>
        <time>2019-05-02T11:34:39Z</time>
      </trkpt>
      <trkpt lat="46.87338" lon="-2.03323">
        <ele>2</ele>
        <time>2019-05-02T11:35:03Z</time>
      </trkpt>
      <trkpt lat="46.87369" lon="-2.03252">
        <ele>2</ele>
        <time>2019-05-02T11:35:15Z</time>
      </trkpt>
      <trkpt lat="46.8744" lon="-2.02998">
        <ele>1</ele>
        <time>2019-05-02T11:35:51Z</time>
      </trkpt>
      <trkpt lat="46.8749" lon="-2.02734">
        <ele>2.4</ele>
        <time>2019-05-02T11:36:27Z</time>
      </trkpt>
      <trkpt lat="46.87559" lon="-2.0262">
        <ele>1</ele>
        <time>2019-05-02T11:36:45Z</time>
      </trkpt>
      <trkpt lat="46.87591" lon="-2.02534">
        <ele>1</ele>
        <time>2019-05-02T11:36:57Z</time>
      </trkpt>
      <trkpt lat="46.87629" lon="-2.02252">
        <ele>1</ele>
        <time>2019-05-02T11:37:33Z</time>
      </trkpt>
      <trkpt lat="46.87687" lon="-2.02024">
        <ele>2</ele>
        <time>2019-05-02T11:38:03Z</time>
      </trkpt>
      <trkpt lat="46.87706" lon="-2.01904">
        <ele>2</ele>
        <time>2019-05-02T11:38:45Z</time>
      </trkpt>
      <trkpt lat="46.87693" lon="-2.01552">
        <ele>3</ele>
        <time>2019-05-02T11:39:51Z</time>
      </trkpt>
      <trkpt lat="46.87649" lon="-2.01262">
        <ele>3</ele>
        <time>2019-05-02T11:40:33Z</time>
      </trkpt>
      <trkpt lat="46.87666" lon="-2.00939">
        <ele>3</ele>
        <time>2019-05-02T11:41:21Z</time>
      </trkpt>
      <trkpt lat="46.87672" lon="-2.0093">
        <ele>3</ele>
        <time>2019-05-02T11:41:27Z</time>
      </trkpt>
      <trkpt lat="46.87812" lon="-2.00933">
        <ele>2</ele>
        <time>2019-05-02T11:41:57Z</time>
      </trkpt>
      <trkpt lat="46.87869" lon="-2.00918">
        <ele>2</ele>
        <time>2019-05-02T11:42:09Z</time>
      </trkpt>
      <trkpt lat="46.88016" lon="-2.00835">
        <ele>2</ele>
        <time>2019-05-02T11:42:39Z</time>
      </trkpt>
      <trkpt lat="46.88077" lon="-2.00815">
        <ele>2</ele>
        <time>2019-05-02T11:42:51Z</time>
      </trkpt>
      <trkpt lat="46.88105" lon="-2.00784">
        <ele>2</ele>
        <time>2019-05-02T11:43:03Z</time>
      </trkpt>
      <trkpt lat="46.88124" lon="-2.008">
        <ele>2</ele>
        <time>2019-05-02T11:43:09Z</time>
      </trkpt>
      <trkpt lat="46.88199" lon="-2.00804">
        <ele>4</ele>
        <time>2019-05-02T11:43:27Z</time>
      </trkpt>
      <trkpt lat="46.88461" lon="-2.00777">
        <ele>5</ele>
        <time>2019-05-02T11:44:33Z</time>
      </trkpt>
      <trkpt lat="46.88795" lon="-2.0069">
        <ele>3</ele>
        <time>2019-05-02T11:45:39Z</time>
      </trkpt>
      <trkpt lat="46.89069" lon="-2.00601">
        <ele>3</ele>
        <time>2019-05-02T11:46:33Z</time>
      </trkpt>
      <trkpt lat="46.89207" lon="-2.00541">
        <ele>1</ele>
        <time>2019-05-02T11:47:03Z</time>
      </trkpt>
      <trkpt lat="46.89487" lon="-2.00369">
        <ele>3</ele>
        <time>2019-05-02T11:48:09Z</time>
      </trkpt>
      <trkpt lat="46.89744" lon="-2.00266">
        <ele>3</ele>
        <time>2019-05-02T11:49:23Z</time>
      </trkpt>
      <trkpt lat="46.89755" lon="-2.00251">
        <ele>3</ele>
        <time>2019-05-02T11:49:29Z</time>
      </trkpt>
      <trkpt lat="46.89854" lon="-2.00207">
        <ele>4</ele>
        <time>2019-05-02T11:49:53Z</time>
      </trkpt>
      <trkpt lat="46.89902" lon="-2.00167">
        <ele>4</ele>
        <time>2019-05-02T11:50:05Z</time>
      </trkpt>
      <trkpt lat="46.8996" lon="-2.00163">
        <ele>4</ele>
        <time>2019-05-02T11:50:17Z</time>
      </trkpt>
      <trkpt lat="46.90208" lon="-2.00089">
        <ele>7</ele>
        <time>2019-05-02T11:51:17Z</time>
      </trkpt>
      <trkpt lat="46.90214" lon="-2.00073">
        <ele>7</ele>
        <time>2019-05-02T11:51:23Z</time>
      </trkpt>
      <trkpt lat="46.90241" lon="-2.00064">
        <ele>8</ele>
        <time>2019-05-02T11:51:35Z</time>
      </trkpt>
      <trkpt lat="46.90241" lon="-2.00021">
        <ele>9</ele>
        <time>2019-05-02T11:51:53Z</time>
      </trkpt>
      <trkpt lat="46.90242" lon="-2.00058">
        <ele>8</ele>
        <time>2019-05-02T11:52:20Z</time>
      </trkpt>
      <trkpt lat="46.90233" lon="-2.00086">
        <ele>8</ele>
        <time>2019-05-02T11:52:26Z</time>
      </trkpt>
      <trkpt lat="46.9026" lon="-1.9998">
        <ele>10</ele>
        <time>2019-05-02T11:53:52Z</time>
      </trkpt>
      <trkpt lat="46.90258" lon="-1.99938">
        <ele>11</ele>
        <time>2019-05-02T11:54:24Z</time>
      </trkpt>
      <trkpt lat="46.90222" lon="-1.99867">
        <ele>10</ele>
        <time>2019-05-02T11:54:48Z</time>
      </trkpt>
      <trkpt lat="46.90239" lon="-1.99876">
        <ele>10</ele>
        <time>2019-05-02T11:55:01Z</time>
      </trkpt>
      <trkpt lat="46.90194" lon="-1.99814">
        <ele>9</ele>
        <time>2019-05-02T11:55:29Z</time>
      </trkpt>
      <trkpt lat="46.90272" lon="-1.99767">
        <ele>11</ele>
        <time>2019-05-02T11:55:54Z</time>
      </trkpt>
      <trkpt lat="46.90352" lon="-1.99677">
        <ele>13</ele>
        <time>2019-05-02T11:56:34Z</time>
      </trkpt>
      <trkpt lat="46.90378" lon="-1.99665">
        <ele>15</ele>
        <time>2019-05-02T11:57:00Z</time>
      </trkpt>
      <trkpt lat="46.90295" lon="-1.99754">
        <ele>11</ele>
        <time>2019-05-02T11:57:32Z</time>
      </trkpt>
      <trkpt lat="46.90205" lon="-1.99814">
        <ele>9</ele>
        <time>2019-05-02T11:58:02Z</time>
      </trkpt>
      <trkpt lat="46.90187" lon="-1.99781">
        <ele>9</ele>
        <time>2019-05-02T11:58:14Z</time>
      </trkpt>
      <trkpt lat="46.90171" lon="-1.99706">
        <ele>9</ele>
        <time>2019-05-02T11:58:38Z</time>
      </trkpt>
      <trkpt lat="46.90176" lon="-1.9969">
        <ele>10</ele>
        <time>2019-05-02T11:58:58Z</time>
      </trkpt>
      <trkpt lat="46.90207" lon="-1.99839">
        <ele>9</ele>
        <time>2019-05-02T11:59:36Z</time>
      </trkpt>
      <trkpt lat="46.90257" lon="-1.99917">
        <ele>11</ele>
        <time>2019-05-02T11:59:54Z</time>
      </trkpt>
      <trkpt lat="46.90261" lon="-1.99988">
        <ele>10</ele>
        <time>2019-05-02T12:00:06Z</time>
      </trkpt>
      <trkpt lat="46.90248" lon="-2.00086">
        <ele>9</ele>
        <time>2019-05-02T12:00:24Z</time>
      </trkpt>
      <trkpt lat="46.90215" lon="-2.00091">
        <ele>7</ele>
        <time>2019-05-02T12:00:44Z</time>
      </trkpt>
      <trkpt lat="46.9022" lon="-2.0006">
        <ele>8</ele>
        <time>2019-05-02T12:00:55Z</time>
      </trkpt>
      <trkpt lat="46.90232" lon="-2.00055">
        <ele>8</ele>
        <time>2019-05-02T12:01:30Z</time>
      </trkpt>
      <trkpt lat="46.90248" lon="-2.00065">
        <ele>9</ele>
        <time>2019-05-02T12:01:53Z</time>
      </trkpt>
      <trkpt lat="46.90227" lon="-2.00068">
        <ele>8</ele>
        <time>2019-05-02T12:01:57Z</time>
      </trkpt>
      <trkpt lat="46.90212" lon="-2.00088">
        <ele>7</ele>
        <time>2019-05-02T12:02:09Z</time>
      </trkpt>
      <trkpt lat="46.89987" lon="-2.00158">
        <ele>4</ele>
        <time>2019-05-02T12:02:57Z</time>
      </trkpt>
      <trkpt lat="46.89908" lon="-2.00214">
        <ele>4</ele>
        <time>2019-05-02T12:03:15Z</time>
      </trkpt>
      <trkpt lat="46.89877" lon="-2.00205">
        <ele>4</ele>
        <time>2019-05-02T12:03:21Z</time>
      </trkpt>
      <trkpt lat="46.89759" lon="-2.00256">
        <ele>3</ele>
        <time>2019-05-02T12:03:45Z</time>
      </trkpt>
      <trkpt lat="46.89746" lon="-2.00281">
        <ele>3</ele>
        <time>2019-05-02T12:03:51Z</time>
      </trkpt>
      <trkpt lat="46.89785" lon="-2.00405">
        <ele>3</ele>
        <time>2019-05-02T12:04:35Z</time>
      </trkpt>
      <trkpt lat="46.8978" lon="-2.00395">
        <ele>3</ele>
        <time>2019-05-03T07:03:25Z</time>
      </trkpt>
      <trkpt lat="46.89789" lon="-2.00393">
        <ele>3</ele>
        <time>2019-05-03T07:03:39Z</time>
      </trkpt>
      <trkpt lat="46.89777" lon="-2.00396">
        <ele>3</ele>
        <time>2019-05-03T07:04:07Z</time>
      </trkpt>
      <trkpt lat="46.89782" lon="-2.00391">
        <ele>3</ele>
        <time>2019-05-03T07:04:09Z</time>
      </trkpt>
      <trkpt lat="46.89774" lon="-2.00384">
        <ele>3</ele>
        <time>2019-05-03T07:04:19Z</time>
      </trkpt>
      <trkpt lat="46.89754" lon="-2.00266">
        <ele>3</ele>
        <time>2019-05-03T07:05:03Z</time>
      </trkpt>
      <trkpt lat="46.89786" lon="-2.00242">
        <ele>3</ele>
        <time>2019-05-03T07:05:21Z</time>
      </trkpt>
      <trkpt lat="46.89873" lon="-2.00203">
        <ele>4</ele>
        <time>2019-05-03T07:05:51Z</time>
      </trkpt>
      <trkpt lat="46.89913" lon="-2.00154">
        <ele>5</ele>
        <time>2019-05-03T07:06:09Z</time>
      </trkpt>
      <trkpt lat="46.89945" lon="-2.00164">
        <ele>4</ele>
        <time>2019-05-03T07:06:21Z</time>
      </trkpt>
      <trkpt lat="46.90153" lon="-2.001">
        <ele>6</ele>
        <time>2019-05-03T07:07:27Z</time>
      </trkpt>
      <trkpt lat="46.90244" lon="-2.00086">
        <ele>9</ele>
        <time>2019-05-03T07:07:57Z</time>
      </trkpt>
      <trkpt lat="46.90264" lon="-2.00408">
        <ele>7</ele>
        <time>2019-05-03T07:08:51Z</time>
      </trkpt>
      <trkpt lat="46.9026" lon="-2.00609">
        <ele>7</ele>
        <time>2019-05-03T07:09:21Z</time>
      </trkpt>
      <trkpt lat="46.90271" lon="-2.00682">
        <ele>8</ele>
        <time>2019-05-03T07:09:33Z</time>
      </trkpt>
      <trkpt lat="46.90388" lon="-2.01337">
        <ele>11</ele>
        <time>2019-05-03T07:11:27Z</time>
      </trkpt>
      <trkpt lat="46.90415" lon="-2.01432">
        <ele>11</ele>
        <time>2019-05-03T07:11:45Z</time>
      </trkpt>
      <trkpt lat="46.90416" lon="-2.01506">
        <ele>11</ele>
        <time>2019-05-03T07:11:57Z</time>
      </trkpt>
      <trkpt lat="46.90531" lon="-2.02162">
        <ele>18</ele>
        <time>2019-05-03T07:14:03Z</time>
      </trkpt>
      <trkpt lat="46.90633" lon="-2.02501">
        <ele>20</ele>
        <time>2019-05-03T07:15:09Z</time>
      </trkpt>
      <trkpt lat="46.90847" lon="-2.02962">
        <ele>18</ele>
        <time>2019-05-03T07:16:45Z</time>
      </trkpt>
      <trkpt lat="46.90881" lon="-2.02991">
        <ele>18</ele>
        <time>2019-05-03T07:16:57Z</time>
      </trkpt>
      <trkpt lat="46.90889" lon="-2.03048">
        <ele>19</ele>
        <time>2019-05-03T07:17:09Z</time>
      </trkpt>
      <trkpt lat="46.91295" lon="-2.03905">
        <ele>8</ele>
        <time>2019-05-03T07:19:15Z</time>
      </trkpt>
      <trkpt lat="46.91348" lon="-2.03949">
        <ele>8</ele>
        <time>2019-05-03T07:19:27Z</time>
      </trkpt>
      <trkpt lat="46.91443" lon="-2.04008">
        <ele>7</ele>
        <time>2019-05-03T07:19:45Z</time>
      </trkpt>
      <trkpt lat="46.91508" lon="-2.04032">
        <ele>6</ele>
        <time>2019-05-03T07:19:57Z</time>
      </trkpt>
      <trkpt lat="46.91606" lon="-2.04163">
        <ele>6</ele>
        <time>2019-05-03T07:20:27Z</time>
      </trkpt>
      <trkpt lat="46.9164" lon="-2.04225">
        <ele>6</ele>
        <time>2019-05-03T07:20:39Z</time>
      </trkpt>
      <trkpt lat="46.91693" lon="-2.04266">
        <ele>5</ele>
        <time>2019-05-03T07:20:51Z</time>
      </trkpt>
      <trkpt lat="46.91736" lon="-2.04328">
        <ele>4</ele>
        <time>2019-05-03T07:21:03Z</time>
      </trkpt>
      <trkpt lat="46.91806" lon="-2.04389">
        <ele>4</ele>
        <time>2019-05-03T07:21:21Z</time>
      </trkpt>
      <trkpt lat="46.91875" lon="-2.04428">
        <ele>5</ele>
        <time>2019-05-03T07:21:45Z</time>
      </trkpt>
      <trkpt lat="46.91852" lon="-2.04428">
        <ele>5</ele>
        <time>2019-05-03T07:21:57Z</time>
      </trkpt>
      <trkpt lat="46.91835" lon="-2.04443">
        <ele>4</ele>
        <time>2019-05-03T07:22:07Z</time>
      </trkpt>
      <trkpt lat="46.91736" lon="-2.04584">
        <ele>4</ele>
        <time>2019-05-03T07:22:43Z</time>
      </trkpt>
      <trkpt lat="46.91693" lon="-2.04625">
        <ele>3</ele>
        <time>2019-05-03T07:22:55Z</time>
      </trkpt>
      <trkpt lat="46.91623" lon="-2.04656">
        <ele>4</ele>
        <time>2019-05-03T07:23:13Z</time>
      </trkpt>
      <trkpt lat="46.91553" lon="-2.0466">
        <ele>4</ele>
        <time>2019-05-03T07:23:31Z</time>
      </trkpt>
      <trkpt lat="46.91572" lon="-2.04773">
        <ele>4</ele>
        <time>2019-05-03T07:23:49Z</time>
      </trkpt>
      <trkpt lat="46.91527" lon="-2.05045">
        <ele>2</ele>
        <time>2019-05-03T07:24:31Z</time>
      </trkpt>
      <trkpt lat="46.91509" lon="-2.05228">
        <ele>1</ele>
        <time>2019-05-03T07:25:01Z</time>
      </trkpt>
      <trkpt lat="46.9152" lon="-2.05302">
        <ele>2</ele>
        <time>2019-05-03T07:25:13Z</time>
      </trkpt>
      <trkpt lat="46.9157" lon="-2.0543">
        <ele>2</ele>
        <time>2019-05-03T07:25:37Z</time>
      </trkpt>
      <trkpt lat="46.91584" lon="-2.055">
        <ele>2</ele>
        <time>2019-05-03T07:25:49Z</time>
      </trkpt>
      <trkpt lat="46.91555" lon="-2.05917">
        <ele>1</ele>
        <time>2019-05-03T07:27:00Z</time>
      </trkpt>
      <trkpt lat="46.9155" lon="-2.0609">
        <ele>2</ele>
        <time>2019-05-03T07:27:24Z</time>
      </trkpt>
      <trkpt lat="46.91518" lon="-2.06324">
        <ele>1</ele>
        <time>2019-05-03T07:28:00Z</time>
      </trkpt>
      <trkpt lat="46.91526" lon="-2.06411">
        <ele>2</ele>
        <time>2019-05-03T07:28:12Z</time>
      </trkpt>
      <trkpt lat="46.91545" lon="-2.06485">
        <ele>1</ele>
        <time>2019-05-03T07:28:24Z</time>
      </trkpt>
      <trkpt lat="46.91582" lon="-2.06606">
        <ele>1</ele>
        <time>2019-05-03T07:28:42Z</time>
      </trkpt>
      <trkpt lat="46.91639" lon="-2.06745">
        <ele>1</ele>
        <time>2019-05-03T07:29:06Z</time>
      </trkpt>
      <trkpt lat="46.91606" lon="-2.07082">
        <ele>2</ele>
        <time>2019-05-03T07:29:54Z</time>
      </trkpt>
      <trkpt lat="46.91611" lon="-2.07124">
        <ele>2</ele>
        <time>2019-05-03T07:30:00Z</time>
      </trkpt>
      <trkpt lat="46.91648" lon="-2.07224">
        <ele>2</ele>
        <time>2019-05-03T07:30:18Z</time>
      </trkpt>
      <trkpt lat="46.91675" lon="-2.07339">
        <ele>3</ele>
        <time>2019-05-03T07:30:36Z</time>
      </trkpt>
      <trkpt lat="46.91681" lon="-2.07422">
        <ele>3</ele>
        <time>2019-05-03T07:30:48Z</time>
      </trkpt>
      <trkpt lat="46.91671" lon="-2.07592">
        <ele>2</ele>
        <time>2019-05-03T07:31:12Z</time>
      </trkpt>
      <trkpt lat="46.91674" lon="-2.07676">
        <ele>2</ele>
        <time>2019-05-03T07:31:24Z</time>
      </trkpt>
      <trkpt lat="46.91803" lon="-2.08072">
        <ele>1</ele>
        <time>2019-05-03T07:32:30Z</time>
      </trkpt>
      <trkpt lat="46.91843" lon="-2.08133">
        <ele>1</ele>
        <time>2019-05-03T07:32:42Z</time>
      </trkpt>
      <trkpt lat="46.91938" lon="-2.0823">
        <ele>2</ele>
        <time>2019-05-03T07:33:12Z</time>
      </trkpt>
      <trkpt lat="46.91984" lon="-2.08311">
        <ele>2</ele>
        <time>2019-05-03T07:33:30Z</time>
      </trkpt>
      <trkpt lat="46.92069" lon="-2.08592">
        <ele>2</ele>
        <time>2019-05-03T07:34:18Z</time>
      </trkpt>
      <trkpt lat="46.92157" lon="-2.09214">
        <ele>2</ele>
        <time>2019-05-03T07:35:54Z</time>
      </trkpt>
      <trkpt lat="46.92159" lon="-2.0929">
        <ele>2</ele>
        <time>2019-05-03T07:36:06Z</time>
      </trkpt>
      <trkpt lat="46.92102" lon="-2.09471">
        <ele>2</ele>
        <time>2019-05-03T07:36:36Z</time>
      </trkpt>
      <trkpt lat="46.92018" lon="-2.09858">
        <ele>1</ele>
        <time>2019-05-03T07:37:36Z</time>
      </trkpt>
      <trkpt lat="46.91989" lon="-2.09961">
        <ele>2</ele>
        <time>2019-05-03T07:37:54Z</time>
      </trkpt>
      <trkpt lat="46.91975" lon="-2.10082">
        <ele>2</ele>
        <time>2019-05-03T07:38:12Z</time>
      </trkpt>
      <trkpt lat="46.91981" lon="-2.10121">
        <ele>2</ele>
        <time>2019-05-03T07:38:18Z</time>
      </trkpt>
      <trkpt lat="46.92005" lon="-2.10185">
        <ele>1</ele>
        <time>2019-05-03T07:38:30Z</time>
      </trkpt>
      <trkpt lat="46.92252" lon="-2.10652">
        <ele>1</ele>
        <time>2019-05-03T07:40:24Z</time>
      </trkpt>
      <trkpt lat="46.92767" lon="-2.11415">
        <time>2019-05-03T07:44:06Z</time>
      </trkpt>
      <trkpt lat="46.9276" lon="-2.11428">
        <time>2019-05-03T07:44:18Z</time>
      </trkpt>
      <trkpt lat="46.92728" lon="-2.1137">
        <time>2019-05-03T07:44:37Z</time>
      </trkpt>
      <trkpt lat="46.92264" lon="-2.10679">
        <ele>1</ele>
        <time>2019-05-03T07:47:47Z</time>
      </trkpt>
      <trkpt lat="46.92092" lon="-2.10348">
        <ele>1</ele>
        <time>2019-05-03T07:49:05Z</time>
      </trkpt>
      <trkpt lat="46.92009" lon="-2.10207">
        <ele>1</ele>
        <time>2019-05-03T07:49:41Z</time>
      </trkpt>
      <trkpt lat="46.91976" lon="-2.10116">
        <ele>2</ele>
        <time>2019-05-03T07:49:59Z</time>
      </trkpt>
      <trkpt lat="46.91976" lon="-2.10046">
        <ele>2</ele>
        <time>2019-05-03T07:50:11Z</time>
      </trkpt>
      <trkpt lat="46.92021" lon="-2.09817">
        <ele>1</ele>
        <time>2019-05-03T07:50:53Z</time>
      </trkpt>
      <trkpt lat="46.92109" lon="-2.09433">
        <ele>2</ele>
        <time>2019-05-03T07:52:05Z</time>
      </trkpt>
      <trkpt lat="46.92152" lon="-2.09314">
        <ele>2</ele>
        <time>2019-05-03T07:52:29Z</time>
      </trkpt>
      <trkpt lat="46.92159" lon="-2.0925">
        <ele>2</ele>
        <time>2019-05-03T07:52:41Z</time>
      </trkpt>
      <trkpt lat="46.92055" lon="-2.08542">
        <ele>2</ele>
        <time>2019-05-03T07:54:53Z</time>
      </trkpt>
      <trkpt lat="46.91969" lon="-2.08279">
        <ele>2</ele>
        <time>2019-05-03T07:55:47Z</time>
      </trkpt>
      <trkpt lat="46.91891" lon="-2.08173">
        <ele>2</ele>
        <time>2019-05-03T07:56:17Z</time>
      </trkpt>
      <trkpt lat="46.91925" lon="-2.0809">
        <ele>2</ele>
        <time>2019-05-03T07:56:47Z</time>
      </trkpt>
      <trkpt lat="46.91988" lon="-2.08109">
        <ele>2</ele>
        <time>2019-05-03T07:57:23Z</time>
      </trkpt>
      <trkpt lat="46.92026" lon="-2.08186">
        <ele>2</ele>
        <time>2019-05-03T07:57:47Z</time>
      </trkpt>
      <trkpt lat="46.92064" lon="-2.08195">
        <ele>2</ele>
        <time>2019-05-03T07:57:59Z</time>
      </trkpt>
      <trkpt lat="46.92292" lon="-2.08135">
        <ele>2</ele>
        <time>2019-05-03T07:59:49Z</time>
      </trkpt>
      <trkpt lat="46.92408" lon="-2.0807">
        <ele>1</ele>
        <time>2019-05-03T08:00:25Z</time>
      </trkpt>
      <trkpt lat="46.9246" lon="-2.08024">
        <ele>2</ele>
        <time>2019-05-03T08:00:43Z</time>
      </trkpt>
      <trkpt lat="46.92571" lon="-2.07964">
        <ele>2</ele>
        <time>2019-05-03T08:01:33Z</time>
      </trkpt>
      <trkpt lat="46.92605" lon="-2.07931">
        <ele>2</ele>
        <time>2019-05-03T08:01:45Z</time>
      </trkpt>
      <trkpt lat="46.92603" lon="-2.07903">
        <ele>2</ele>
        <time>2019-05-03T08:01:51Z</time>
      </trkpt>
      <trkpt lat="46.92569" lon="-2.07823">
        <ele>2</ele>
        <time>2019-05-03T08:02:09Z</time>
      </trkpt>
      <trkpt lat="46.92563" lon="-2.0769">
        <ele>5</ele>
        <time>2019-05-03T08:02:33Z</time>
      </trkpt>
      <trkpt lat="46.92571" lon="-2.07659">
        <ele>5</ele>
        <time>2019-05-03T08:02:39Z</time>
      </trkpt>
      <trkpt lat="46.9261" lon="-2.07608">
        <ele>4</ele>
        <time>2019-05-03T08:02:51Z</time>
      </trkpt>
      <trkpt lat="46.92627" lon="-2.07532">
        <ele>3</ele>
        <time>2019-05-03T08:03:09Z</time>
      </trkpt>
      <trkpt lat="46.92726" lon="-2.07477">
        <ele>2</ele>
        <time>2019-05-03T08:03:39Z</time>
      </trkpt>
      <trkpt lat="46.93454" lon="-2.07142">
        <ele>2</ele>
        <time>2019-05-03T08:06:50Z</time>
      </trkpt>
      <trkpt lat="46.935" lon="-2.07102">
        <ele>2</ele>
        <time>2019-05-03T08:07:08Z</time>
      </trkpt>
      <trkpt lat="46.93504" lon="-2.07111">
        <ele>2</ele>
        <time>2019-05-03T08:07:20Z</time>
      </trkpt>
      <trkpt lat="46.93509" lon="-2.0709">
        <ele>2</ele>
        <time>2019-05-03T08:07:32Z</time>
      </trkpt>
      <trkpt lat="46.93551" lon="-2.07098">
        <ele>1</ele>
        <time>2019-05-03T08:07:50Z</time>
      </trkpt>
      <trkpt lat="46.93588" lon="-2.0713">
        <ele>2</ele>
        <time>2019-05-03T08:08:20Z</time>
      </trkpt>
      <trkpt lat="46.9356" lon="-2.07102">
        <ele>1</ele>
        <time>2019-05-03T08:08:40Z</time>
      </trkpt>
      <trkpt lat="46.93566" lon="-2.0709">
        <ele>2</ele>
        <time>2019-05-03T08:08:46Z</time>
      </trkpt>
      <trkpt lat="46.93603" lon="-2.07105">
        <ele>2</ele>
        <time>2019-05-03T08:09:04Z</time>
      </trkpt>
      <trkpt lat="46.93619" lon="-2.07061">
        <ele>2</ele>
        <time>2019-05-03T08:09:30Z</time>
      </trkpt>
      <trkpt lat="46.93653" lon="-2.06734">
        <ele>1</ele>
        <time>2019-05-03T08:10:30Z</time>
      </trkpt>
      <trkpt lat="46.9369" lon="-2.06645">
        <ele>1</ele>
        <time>2019-05-03T08:10:59Z</time>
      </trkpt>
      <trkpt lat="46.93688" lon="-2.06634">
        <ele>1</ele>
        <time>2019-05-03T08:11:06Z</time>
      </trkpt>
      <trkpt lat="46.93748" lon="-2.06471">
        <ele>1</ele>
        <time>2019-05-03T08:11:42Z</time>
      </trkpt>
      <trkpt lat="46.93812" lon="-2.06054">
        <ele>1</ele>
        <time>2019-05-03T08:13:00Z</time>
      </trkpt>
      <trkpt lat="46.93866" lon="-2.05958">
        <ele>1</ele>
        <time>2019-05-03T08:13:24Z</time>
      </trkpt>
      <trkpt lat="46.93944" lon="-2.05848">
        <ele>1</ele>
        <time>2019-05-03T08:14:04Z</time>
      </trkpt>
      <trkpt lat="46.9401" lon="-2.05722">
        <ele>1</ele>
        <time>2019-05-03T08:14:34Z</time>
      </trkpt>
      <trkpt lat="46.9403" lon="-2.05462">
        <ele>2</ele>
        <time>2019-05-03T08:15:22Z</time>
      </trkpt>
      <trkpt lat="46.9406" lon="-2.05277">
        <ele>2</ele>
        <time>2019-05-03T08:15:58Z</time>
      </trkpt>
      <trkpt lat="46.94152" lon="-2.05138">
        <ele>1</ele>
        <time>2019-05-03T08:16:34Z</time>
      </trkpt>
      <trkpt lat="46.94188" lon="-2.05144">
        <ele>1</ele>
        <time>2019-05-03T08:16:46Z</time>
      </trkpt>
      <trkpt lat="46.94385" lon="-2.04911">
        <ele>2</ele>
        <time>2019-05-03T08:17:46Z</time>
      </trkpt>
      <trkpt lat="46.94485" lon="-2.04758">
        <ele>3</ele>
        <time>2019-05-03T08:18:22Z</time>
      </trkpt>
      <trkpt lat="46.94523" lon="-2.04673">
        <ele>2</ele>
        <time>2019-05-03T08:18:40Z</time>
      </trkpt>
      <trkpt lat="46.9455" lon="-2.04577">
        <ele>1</ele>
        <time>2019-05-03T08:18:58Z</time>
      </trkpt>
      <trkpt lat="46.94581" lon="-2.04527">
        <ele>1</ele>
        <time>2019-05-03T08:19:10Z</time>
      </trkpt>
      <trkpt lat="46.94637" lon="-2.04468">
        <ele>2</ele>
        <time>2019-05-03T08:19:28Z</time>
      </trkpt>
      <trkpt lat="46.94799" lon="-2.04332">
        <ele>2</ele>
        <time>2019-05-03T08:20:16Z</time>
      </trkpt>
      <trkpt lat="46.94833" lon="-2.04368">
        <ele>2</ele>
        <time>2019-05-03T08:20:28Z</time>
      </trkpt>
      <trkpt lat="46.94949" lon="-2.04723">
        <ele>3</ele>
        <time>2019-05-03T08:21:34Z</time>
      </trkpt>
      <trkpt lat="46.94965" lon="-2.04752">
        <ele>3</ele>
        <time>2019-05-03T08:21:46Z</time>
      </trkpt>
      <trkpt lat="46.95637" lon="-2.0428">
        <ele>1</ele>
        <time>2019-05-03T08:25:04Z</time>
      </trkpt>
      <trkpt lat="46.95717" lon="-2.04243">
        <ele>2</ele>
        <time>2019-05-03T08:25:28Z</time>
      </trkpt>
      <trkpt lat="46.95806" lon="-2.0425">
        <ele>1</ele>
        <time>2019-05-03T08:25:52Z</time>
      </trkpt>
      <trkpt lat="46.96655" lon="-2.04398">
        <ele>1</ele>
        <time>2019-05-03T08:29:34Z</time>
      </trkpt>
      <trkpt lat="46.96753" lon="-2.04354">
        <ele>2.7</ele>
        <time>2019-05-03T08:30:04Z</time>
      </trkpt>
      <trkpt lat="46.96788" lon="-2.04324">
        <ele>2.6</ele>
        <time>2019-05-03T08:30:16Z</time>
      </trkpt>
      <trkpt lat="46.96797" lon="-2.04226">
        <ele>2.4</ele>
        <time>2019-05-03T08:30:34Z</time>
      </trkpt>
      <trkpt lat="46.96815" lon="-2.04179">
        <ele>1</ele>
        <time>2019-05-03T08:30:46Z</time>
      </trkpt>
      <trkpt lat="46.96841" lon="-2.03909">
        <ele>1</ele>
        <time>2019-05-03T08:31:34Z</time>
      </trkpt>
      <trkpt lat="46.96855" lon="-2.03862">
        <ele>2</ele>
        <time>2019-05-03T08:31:46Z</time>
      </trkpt>
      <trkpt lat="46.96873" lon="-2.03699">
        <ele>2</ele>
        <time>2019-05-03T08:32:16Z</time>
      </trkpt>
      <trkpt lat="46.96883" lon="-2.03409">
        <ele>1</ele>
        <time>2019-05-03T08:33:10Z</time>
      </trkpt>
      <trkpt lat="46.96892" lon="-2.03341">
        <ele>2</ele>
        <time>2019-05-03T08:33:28Z</time>
      </trkpt>
      <trkpt lat="46.9694" lon="-2.03348">
        <ele>2</ele>
        <time>2019-05-03T08:33:46Z</time>
      </trkpt>
      <trkpt lat="46.9698" lon="-2.0334">
        <ele>2</ele>
        <time>2019-05-03T08:34:07Z</time>
      </trkpt>
      <trkpt lat="46.9692" lon="-2.0335">
        <ele>2</ele>
        <time>2019-05-03T08:34:32Z</time>
      </trkpt>
      <trkpt lat="46.9691" lon="-2.03348">
        <ele>2</ele>
        <time>2019-05-03T08:34:47Z</time>
      </trkpt>
      <trkpt lat="46.96911" lon="-2.0334">
        <ele>2</ele>
        <time>2019-05-03T08:34:53Z</time>
      </trkpt>
      <trkpt lat="46.97067" lon="-2.03347">
        <ele>2</ele>
        <time>2019-05-03T08:36:12Z</time>
      </trkpt>
      <trkpt lat="46.97143" lon="-2.03392">
        <ele>2</ele>
        <time>2019-05-03T08:36:36Z</time>
      </trkpt>
      <trkpt lat="46.97254" lon="-2.03399">
        <ele>2</ele>
        <time>2019-05-03T08:37:06Z</time>
      </trkpt>
      <trkpt lat="46.97344" lon="-2.03376">
        <ele>2</ele>
        <time>2019-05-03T08:37:30Z</time>
      </trkpt>
      <trkpt lat="46.97416" lon="-2.03382">
        <ele>1</ele>
        <time>2019-05-03T08:37:48Z</time>
      </trkpt>
      <trkpt lat="46.97526" lon="-2.03412">
        <ele>2</ele>
        <time>2019-05-03T08:38:18Z</time>
      </trkpt>
      <trkpt lat="46.97625" lon="-2.03478">
        <ele>2</ele>
        <time>2019-05-03T08:38:48Z</time>
      </trkpt>
      <trkpt lat="46.97776" lon="-2.03488">
        <ele>2</ele>
        <time>2019-05-03T08:39:30Z</time>
      </trkpt>
      <trkpt lat="46.97937" lon="-2.03402">
        <ele>2</ele>
        <time>2019-05-03T08:40:18Z</time>
      </trkpt>
      <trkpt lat="46.97952" lon="-2.03382">
        <ele>3</ele>
        <time>2019-05-03T08:40:24Z</time>
      </trkpt>
      <trkpt lat="46.97972" lon="-2.0326">
        <ele>3</ele>
        <time>2019-05-03T08:40:48Z</time>
      </trkpt>
      <trkpt lat="46.9799" lon="-2.03249">
        <ele>3</ele>
        <time>2019-05-03T08:40:54Z</time>
      </trkpt>
      <trkpt lat="46.98055" lon="-2.03257">
        <ele>2</ele>
        <time>2019-05-03T08:41:12Z</time>
      </trkpt>
      <trkpt lat="46.98138" lon="-2.03227">
        <ele>2</ele>
        <time>2019-05-03T08:41:36Z</time>
      </trkpt>
      <trkpt lat="46.98152" lon="-2.03204">
        <ele>2</ele>
        <time>2019-05-03T08:41:42Z</time>
      </trkpt>
      <trkpt lat="46.98161" lon="-2.03109">
        <ele>2</ele>
        <time>2019-05-03T08:42:00Z</time>
      </trkpt>
      <trkpt lat="46.98189" lon="-2.03067">
        <ele>2</ele>
        <time>2019-05-03T08:42:12Z</time>
      </trkpt>
      <trkpt lat="46.9823" lon="-2.03054">
        <ele>1</ele>
        <time>2019-05-03T08:42:24Z</time>
      </trkpt>
      <trkpt lat="46.98272" lon="-2.0311">
        <ele>2</ele>
        <time>2019-05-03T08:42:42Z</time>
      </trkpt>
      <trkpt lat="46.98361" lon="-2.03112">
        <ele>2</ele>
        <time>2019-05-03T08:43:06Z</time>
      </trkpt>
      <trkpt lat="46.98476" lon="-2.03147">
        <ele>2</ele>
        <time>2019-05-03T08:43:42Z</time>
      </trkpt>
      <trkpt lat="46.98493" lon="-2.0313">
        <ele>2</ele>
        <time>2019-05-03T08:43:48Z</time>
      </trkpt>
      <trkpt lat="46.9856" lon="-2.02974">
        <ele>2</ele>
        <time>2019-05-03T08:44:24Z</time>
      </trkpt>
      <trkpt lat="46.98601" lon="-2.0292">
        <ele>1</ele>
        <time>2019-05-03T08:44:42Z</time>
      </trkpt>
      <trkpt lat="46.98684" lon="-2.02946">
        <ele>1</ele>
        <time>2019-05-03T08:45:20Z</time>
      </trkpt>
      <trkpt lat="46.9877" lon="-2.03088">
        <ele>1</ele>
        <time>2019-05-03T08:46:02Z</time>
      </trkpt>
      <trkpt lat="46.98834" lon="-2.03139">
        <ele>1</ele>
        <time>2019-05-03T08:46:20Z</time>
      </trkpt>
      <trkpt lat="46.98879" lon="-2.03149">
        <ele>1</ele>
        <time>2019-05-03T08:46:32Z</time>
      </trkpt>
      <trkpt lat="46.98899" lon="-2.03135">
        <ele>1</ele>
        <time>2019-05-03T08:46:38Z</time>
      </trkpt>
      <trkpt lat="46.98939" lon="-2.0306">
        <ele>1</ele>
        <time>2019-05-03T08:46:56Z</time>
      </trkpt>
      <trkpt lat="46.99" lon="-2.03037">
        <ele>1</ele>
        <time>2019-05-03T08:47:14Z</time>
      </trkpt>
      <trkpt lat="46.99044" lon="-2.0298">
        <ele>1</ele>
        <time>2019-05-03T08:47:32Z</time>
      </trkpt>
      <trkpt lat="46.99085" lon="-2.02952">
        <ele>2</ele>
        <time>2019-05-03T08:47:44Z</time>
      </trkpt>
      <trkpt lat="46.99626" lon="-2.02681">
        <ele>2</ele>
        <time>2019-05-03T08:50:01Z</time>
      </trkpt>
      <trkpt lat="46.99676" lon="-2.0268">
        <ele>2</ele>
        <time>2019-05-03T08:50:13Z</time>
      </trkpt>
      <trkpt lat="46.99743" lon="-2.02656">
        <ele>2</ele>
        <time>2019-05-03T08:50:45Z</time>
      </trkpt>
      <trkpt lat="46.99799" lon="-2.02928">
        <ele>1</ele>
        <time>2019-05-03T08:53:13Z</time>
      </trkpt>
      <trkpt lat="46.99799" lon="-2.029">
        <ele>1</ele>
        <time>2019-05-03T08:53:31Z</time>
      </trkpt>
      <trkpt lat="46.99858" lon="-2.02893">
        <ele>2</ele>
        <time>2019-05-03T08:53:48Z</time>
      </trkpt>
      <trkpt lat="46.99927" lon="-2.02822">
        <ele>1</ele>
        <time>2019-05-03T08:54:13Z</time>
      </trkpt>
      <trkpt lat="47.00152" lon="-2.028">
        <ele>1</ele>
        <time>2019-05-03T08:55:06Z</time>
      </trkpt>
      <trkpt lat="47.00421" lon="-2.02669">
        <ele>2</ele>
        <time>2019-05-03T08:56:53Z</time>
      </trkpt>
      <trkpt lat="47.00665" lon="-2.02571">
        <ele>1</ele>
        <time>2019-05-03T08:58:04Z</time>
      </trkpt>
      <trkpt lat="47.00697" lon="-2.02597">
        <ele>1</ele>
        <time>2019-05-03T08:58:16Z</time>
      </trkpt>
      <trkpt lat="47.00722" lon="-2.02711">
        <ele>1</ele>
        <time>2019-05-03T08:58:46Z</time>
      </trkpt>
      <trkpt lat="47.00905" lon="-2.02732">
        <ele>4</ele>
        <time>2019-05-03T08:59:40Z</time>
      </trkpt>
      <trkpt lat="47.00916" lon="-2.02604">
        <ele>1</ele>
        <time>2019-05-03T09:00:04Z</time>
      </trkpt>
      <trkpt lat="47.00968" lon="-2.02418">
        <ele>3.1</ele>
        <time>2019-05-03T09:00:41Z</time>
      </trkpt>
      <trkpt lat="47.011" lon="-2.02031">
        <ele>1</ele>
        <time>2019-05-03T09:02:04Z</time>
      </trkpt>
      <trkpt lat="47.01113" lon="-2.02006">
        <ele>1</ele>
        <time>2019-05-03T09:02:10Z</time>
      </trkpt>
      <trkpt lat="47.01151" lon="-2.01975">
        <ele>1</ele>
        <time>2019-05-03T09:02:22Z</time>
      </trkpt>
      <trkpt lat="47.01193" lon="-2.01857">
        <ele>1</ele>
        <time>2019-05-03T09:03:01Z</time>
      </trkpt>
      <trkpt lat="47.01183" lon="-2.01878">
        <ele>4.5</ele>
        <time>2019-05-03T09:03:20Z</time>
      </trkpt>
      <trkpt lat="47.01191" lon="-2.0172">
        <ele>1</ele>
        <time>2019-05-03T09:03:50Z</time>
      </trkpt>
      <trkpt lat="47.01224" lon="-2.01687">
        <ele>1</ele>
        <time>2019-05-03T09:04:02Z</time>
      </trkpt>
      <trkpt lat="47.01262" lon="-2.01589">
        <ele>1</ele>
        <time>2019-05-03T09:04:20Z</time>
      </trkpt>
      <trkpt lat="47.01378" lon="-2.01359">
        <ele>1</ele>
        <time>2019-05-03T09:05:09Z</time>
      </trkpt>
      <trkpt lat="47.01412" lon="-2.0131">
        <ele>1</ele>
        <time>2019-05-03T09:05:21Z</time>
      </trkpt>
      <trkpt lat="47.01473" lon="-2.01285">
        <ele>1</ele>
        <time>2019-05-03T09:05:39Z</time>
      </trkpt>
      <trkpt lat="47.01549" lon="-2.0117">
        <ele>2</ele>
        <time>2019-05-03T09:06:03Z</time>
      </trkpt>
      <trkpt lat="47.01601" lon="-2.01137">
        <ele>1</ele>
        <time>2019-05-03T09:06:14Z</time>
      </trkpt>
      <trkpt lat="47.01617" lon="-2.01069">
        <ele>2</ele>
        <time>2019-05-03T09:06:26Z</time>
      </trkpt>
      <trkpt lat="47.01662" lon="-2.00994">
        <ele>1</ele>
        <time>2019-05-03T09:06:44Z</time>
      </trkpt>
      <trkpt lat="47.0165" lon="-2.00956">
        <ele>2</ele>
        <time>2019-05-03T09:06:50Z</time>
      </trkpt>
      <trkpt lat="47.01595" lon="-2.00909">
        <ele>1</ele>
        <time>2019-05-03T09:07:02Z</time>
      </trkpt>
      <trkpt lat="47.01566" lon="-2.00734">
        <ele>2.4</ele>
        <time>2019-05-03T09:07:27Z</time>
      </trkpt>
      <trkpt lat="47.01519" lon="-2.00678">
        <ele>2.2</ele>
        <time>2019-05-03T09:07:38Z</time>
      </trkpt>
      <trkpt lat="47.01461" lon="-2.00533">
        <ele>1</ele>
        <time>2019-05-03T09:08:02Z</time>
      </trkpt>
      <trkpt lat="47.01447" lon="-2.00454">
        <ele>2.2</ele>
        <time>2019-05-03T09:08:14Z</time>
      </trkpt>
      <trkpt lat="47.01423" lon="-2.00385">
        <ele>1</ele>
        <time>2019-05-03T09:08:26Z</time>
      </trkpt>
      <trkpt lat="47.01397" lon="-2.00321">
        <ele>1</ele>
        <time>2019-05-03T09:08:38Z</time>
      </trkpt>
      <trkpt lat="47.01374" lon="-2.00316">
        <ele>1</ele>
        <time>2019-05-03T09:08:50Z</time>
      </trkpt>
      <trkpt lat="47.01394" lon="-2.00294">
        <ele>1</ele>
        <time>2019-05-03T09:09:02Z</time>
      </trkpt>
      <trkpt lat="47.01444" lon="-2.00088">
        <ele>2</ele>
        <time>2019-05-03T09:09:44Z</time>
      </trkpt>
      <trkpt lat="47.01383" lon="-1.99715">
        <ele>2</ele>
        <time>2019-05-03T09:10:51Z</time>
      </trkpt>
      <trkpt lat="47.01346" lon="-1.98705">
        <ele>2.5</ele>
        <time>2019-05-03T09:14:03Z</time>
      </trkpt>
      <trkpt lat="47.01354" lon="-1.98693">
        <ele>2.2</ele>
        <time>2019-05-03T09:14:12Z</time>
      </trkpt>
      <trkpt lat="47.01555" lon="-1.98691">
        <ele>2</ele>
        <time>2019-05-03T09:15:06Z</time>
      </trkpt>
      <trkpt lat="47.01604" lon="-1.98675">
        <ele>1.8</ele>
        <time>2019-05-03T09:15:18Z</time>
      </trkpt>
      <trkpt lat="47.02129" lon="-1.97681">
        <ele>-1</ele>
        <time>2019-05-03T09:18:43Z</time>
      </trkpt>
      <trkpt lat="47.02182" lon="-1.97608">
        <ele>-1</ele>
        <time>2019-05-03T09:19:00Z</time>
      </trkpt>
      <trkpt lat="47.02639" lon="-1.97567">
        <ele>-1</ele>
        <time>2019-05-03T09:20:36Z</time>
      </trkpt>
      <trkpt lat="47.0269" lon="-1.97549">
        <ele>2.5</ele>
        <time>2019-05-03T09:20:48Z</time>
      </trkpt>
      <trkpt lat="47.02705" lon="-1.97517">
        <ele>1.8</ele>
        <time>2019-05-03T09:20:54Z</time>
      </trkpt>
      <trkpt lat="47.02719" lon="-1.97317">
        <ele>2.4</ele>
        <time>2019-05-03T09:21:24Z</time>
      </trkpt>
      <trkpt lat="47.02731" lon="-1.97243">
        <ele>2.7</ele>
        <time>2019-05-03T09:21:37Z</time>
      </trkpt>
      <trkpt lat="47.02768" lon="-1.97158">
        <ele>2.2</ele>
        <time>2019-05-03T09:21:54Z</time>
      </trkpt>
      <trkpt lat="47.02822" lon="-1.97102">
        <ele>3.1</ele>
        <time>2019-05-03T09:22:12Z</time>
      </trkpt>
      <trkpt lat="47.02923" lon="-1.97067">
        <ele>1</ele>
        <time>2019-05-03T09:23:18Z</time>
      </trkpt>
      <trkpt lat="47.03106" lon="-1.97115">
        <ele>1</ele>
        <time>2019-05-03T09:24:00Z</time>
      </trkpt>
      <trkpt lat="47.03268" lon="-1.97079">
        <ele>1</ele>
        <time>2019-05-03T09:24:30Z</time>
      </trkpt>
      <trkpt lat="47.03334" lon="-1.97075">
        <ele>1</ele>
        <time>2019-05-03T09:24:42Z</time>
      </trkpt>
      <trkpt lat="47.03413" lon="-1.9704">
        <ele>1</ele>
        <time>2019-05-03T09:25:00Z</time>
      </trkpt>
      <trkpt lat="47.03423" lon="-1.97055">
        <ele>1</ele>
        <time>2019-05-03T09:25:06Z</time>
      </trkpt>
      <trkpt lat="47.03427" lon="-1.97106">
        <ele>1</ele>
        <time>2019-05-03T09:25:18Z</time>
      </trkpt>
      <trkpt lat="47.03403" lon="-1.97132">
        <ele>1</ele>
        <time>2019-05-03T09:25:30Z</time>
      </trkpt>
      <trkpt lat="47.03254" lon="-1.97157">
        <ele>1</ele>
        <time>2019-05-03T09:26:06Z</time>
      </trkpt>
      <trkpt lat="47.03024" lon="-1.97222">
        <ele>1</ele>
        <time>2019-05-03T09:26:54Z</time>
      </trkpt>
      <trkpt lat="47.02968" lon="-1.97241">
        <ele>1</ele>
        <time>2019-05-03T09:27:06Z</time>
      </trkpt>
      <trkpt lat="47.02923" lon="-1.97277">
        <ele>1</ele>
        <time>2019-05-03T09:27:18Z</time>
      </trkpt>
      <trkpt lat="47.02906" lon="-1.97354">
        <ele>1</ele>
        <time>2019-05-03T09:27:30Z</time>
      </trkpt>
      <trkpt lat="47.02915" lon="-1.97613">
        <ele>1</ele>
        <time>2019-05-03T09:28:12Z</time>
      </trkpt>
      <trkpt lat="47.02924" lon="-1.97745">
        <ele>3.7</ele>
        <time>2019-05-03T09:28:36Z</time>
      </trkpt>
      <trkpt lat="47.02952" lon="-1.97867">
        <ele>3.4</ele>
        <time>2019-05-03T09:29:06Z</time>
      </trkpt>
      <trkpt lat="47.02963" lon="-1.97886">
        <ele>3.6</ele>
        <time>2019-05-03T09:29:12Z</time>
      </trkpt>
      <trkpt lat="47.03045" lon="-1.9795">
        <ele>1</ele>
        <time>2019-05-03T09:29:36Z</time>
      </trkpt>
      <trkpt lat="47.0311" lon="-1.98017">
        <ele>2</ele>
        <time>2019-05-03T09:29:54Z</time>
      </trkpt>
      <trkpt lat="47.03201" lon="-1.98157">
        <ele>5</ele>
        <time>2019-05-03T09:30:24Z</time>
      </trkpt>
      <trkpt lat="47.0327" lon="-1.98203">
        <ele>6</ele>
        <time>2019-05-03T09:30:42Z</time>
      </trkpt>
      <trkpt lat="47.03356" lon="-1.98296">
        <ele>6</ele>
        <time>2019-05-03T09:31:06Z</time>
      </trkpt>
      <trkpt lat="47.03483" lon="-1.98412">
        <ele>7</ele>
        <time>2019-05-03T09:31:48Z</time>
      </trkpt>
      <trkpt lat="47.0361" lon="-1.98511">
        <ele>5</ele>
        <time>2019-05-03T09:32:24Z</time>
      </trkpt>
      <trkpt lat="47.03661" lon="-1.98537">
        <ele>4</ele>
        <time>2019-05-03T09:32:36Z</time>
      </trkpt>
      <trkpt lat="47.03794" lon="-1.98517">
        <ele>2</ele>
        <time>2019-05-03T09:33:00Z</time>
      </trkpt>
      <trkpt lat="47.03863" lon="-1.98525">
        <ele>2</ele>
        <time>2019-05-03T09:33:12Z</time>
      </trkpt>
      <trkpt lat="47.03938" lon="-1.98606">
        <ele>2</ele>
        <time>2019-05-03T09:33:30Z</time>
      </trkpt>
      <trkpt lat="47.04082" lon="-1.98844">
        <ele>3</ele>
        <time>2019-05-03T09:34:24Z</time>
      </trkpt>
      <trkpt lat="47.04322" lon="-1.99035">
        <ele>4</ele>
        <time>2019-05-03T09:35:48Z</time>
      </trkpt>
      <trkpt lat="47.04488" lon="-1.99123">
        <ele>4</ele>
        <time>2019-05-03T09:36:30Z</time>
      </trkpt>
      <trkpt lat="47.04567" lon="-1.99146">
        <ele>6</ele>
        <time>2019-05-03T09:36:48Z</time>
      </trkpt>
      <trkpt lat="47.04627" lon="-1.99156">
        <ele>3</ele>
        <time>2019-05-03T09:37:00Z</time>
      </trkpt>
      <trkpt lat="47.04713" lon="-1.99133">
        <ele>3</ele>
        <time>2019-05-03T09:37:18Z</time>
      </trkpt>
      <trkpt lat="47.04766" lon="-1.99131">
        <ele>2</ele>
        <time>2019-05-03T09:37:30Z</time>
      </trkpt>
      <trkpt lat="47.04841" lon="-1.9911">
        <ele>2</ele>
        <time>2019-05-03T09:37:48Z</time>
      </trkpt>
      <trkpt lat="47.04934" lon="-1.99056">
        <ele>1</ele>
        <time>2019-05-03T09:38:12Z</time>
      </trkpt>
      <trkpt lat="47.05085" lon="-1.9904">
        <ele>2</ele>
        <time>2019-05-03T09:38:48Z</time>
      </trkpt>
      <trkpt lat="47.05082" lon="-1.99055">
        <ele>2</ele>
        <time>2019-05-03T09:39:00Z</time>
      </trkpt>
      <trkpt lat="47.05106" lon="-1.9902">
        <ele>2</ele>
        <time>2019-05-03T09:39:12Z</time>
      </trkpt>
      <trkpt lat="47.05153" lon="-1.99013">
        <ele>2</ele>
        <time>2019-05-03T09:39:24Z</time>
      </trkpt>
      <trkpt lat="47.05196" lon="-1.98976">
        <ele>1</ele>
        <time>2019-05-03T09:39:36Z</time>
      </trkpt>
      <trkpt lat="47.05243" lon="-1.98961">
        <ele>2</ele>
        <time>2019-05-03T09:39:48Z</time>
      </trkpt>
      <trkpt lat="47.05411" lon="-1.98871">
        <ele>2</ele>
        <time>2019-05-03T09:40:30Z</time>
      </trkpt>
      <trkpt lat="47.05436" lon="-1.98876">
        <ele>2</ele>
        <time>2019-05-03T09:40:36Z</time>
      </trkpt>
      <trkpt lat="47.0547" lon="-1.98901">
        <ele>2</ele>
        <time>2019-05-03T09:40:48Z</time>
      </trkpt>
      <trkpt lat="47.05788" lon="-1.98903">
        <ele>2</ele>
        <time>2019-05-03T09:42:18Z</time>
      </trkpt>
      <trkpt lat="47.0584" lon="-1.98895">
        <ele>1</ele>
        <time>2019-05-03T09:42:30Z</time>
      </trkpt>
      <trkpt lat="47.05911" lon="-1.98856">
        <ele>2</ele>
        <time>2019-05-03T09:42:48Z</time>
      </trkpt>
      <trkpt lat="47.0593" lon="-1.98833">
        <ele>2</ele>
        <time>2019-05-03T09:42:54Z</time>
      </trkpt>
      <trkpt lat="47.05943" lon="-1.98767">
        <ele>2</ele>
        <time>2019-05-03T09:43:06Z</time>
      </trkpt>
      <trkpt lat="47.05962" lon="-1.98743">
        <ele>2</ele>
        <time>2019-05-03T09:43:12Z</time>
      </trkpt>
      <trkpt lat="47.05994" lon="-1.98726">
        <ele>3</ele>
        <time>2019-05-03T09:43:24Z</time>
      </trkpt>
      <trkpt lat="47.06016" lon="-1.98782">
        <ele>3</ele>
        <time>2019-05-03T09:43:54Z</time>
      </trkpt>
      <trkpt lat="47.06025" lon="-1.98788">
        <ele>3</ele>
        <time>2019-05-03T09:44:10Z</time>
      </trkpt>
      <trkpt lat="47.06079" lon="-1.98963">
        <ele>3</ele>
        <time>2019-05-03T09:44:50Z</time>
      </trkpt>
      <trkpt lat="47.06112" lon="-1.99085">
        <ele>3</ele>
        <time>2019-05-03T09:45:08Z</time>
      </trkpt>
      <trkpt lat="47.06133" lon="-1.99213">
        <ele>3</ele>
        <time>2019-05-03T09:45:26Z</time>
      </trkpt>
      <trkpt lat="47.06148" lon="-1.99394">
        <ele>3</ele>
        <time>2019-05-03T09:45:50Z</time>
      </trkpt>
      <trkpt lat="47.06151" lon="-1.99774">
        <ele>2</ele>
        <time>2019-05-03T09:46:38Z</time>
      </trkpt>
      <trkpt lat="47.06162" lon="-1.9995">
        <ele>3</ele>
        <time>2019-05-03T09:47:02Z</time>
      </trkpt>
      <trkpt lat="47.06147" lon="-2.00015">
        <ele>4</ele>
        <time>2019-05-03T09:47:14Z</time>
      </trkpt>
      <trkpt lat="47.0618" lon="-2.00187">
        <ele>3</ele>
        <time>2019-05-03T09:47:48Z</time>
      </trkpt>
      <trkpt lat="47.05988" lon="-2.00285">
        <ele>2</ele>
        <time>2019-05-03T09:49:00Z</time>
      </trkpt>
      <trkpt lat="47.06003" lon="-2.00319">
        <ele>4.1</ele>
        <time>2019-05-03T09:49:26Z</time>
      </trkpt>
      <trkpt lat="47.06058" lon="-2.0037">
        <ele>3.7</ele>
        <time>2019-05-03T09:49:54Z</time>
      </trkpt>
      <trkpt lat="47.06145" lon="-2.00468">
        <ele>4.3</ele>
        <time>2019-05-03T09:50:42Z</time>
      </trkpt>
      <trkpt lat="47.06173" lon="-2.00514">
        <ele>4.8</ele>
        <time>2019-05-03T09:51:00Z</time>
      </trkpt>
      <trkpt lat="47.06176" lon="-2.00541">
        <ele>4</ele>
        <time>2019-05-03T09:51:15Z</time>
      </trkpt>
      <trkpt lat="47.06148" lon="-2.00473">
        <ele>4.3</ele>
        <time>2019-05-03T09:51:38Z</time>
      </trkpt>
      <trkpt lat="47.05987" lon="-2.00295">
        <ele>4.5</ele>
        <time>2019-05-03T09:52:38Z</time>
      </trkpt>
      <trkpt lat="47.05993" lon="-2.00278">
        <ele>2</ele>
        <time>2019-05-03T09:52:44Z</time>
      </trkpt>
      <trkpt lat="47.06089" lon="-2.00232">
        <ele>3</ele>
        <time>2019-05-03T09:53:08Z</time>
      </trkpt>
      <trkpt lat="47.06217" lon="-2.00184">
        <ele>4</ele>
        <time>2019-05-03T09:54:08Z</time>
      </trkpt>
      <trkpt lat="47.06228" lon="-2.0017">
        <ele>4</ele>
        <time>2019-05-03T09:54:14Z</time>
      </trkpt>
      <trkpt lat="47.06229" lon="-2.00099">
        <ele>5</ele>
        <time>2019-05-03T09:54:32Z</time>
      </trkpt>
      <trkpt lat="47.06245" lon="-2.00065">
        <ele>5</ele>
        <time>2019-05-03T09:54:44Z</time>
      </trkpt>
      <trkpt lat="47.06283" lon="-2.00048">
        <ele>6</ele>
        <time>2019-05-03T09:55:02Z</time>
      </trkpt>
      <trkpt lat="47.06288" lon="-2.00102">
        <ele>5</ele>
        <time>2019-05-03T09:55:32Z</time>
      </trkpt>
      <trkpt lat="47.06316" lon="-2.00094">
        <ele>5</ele>
        <time>2019-05-03T09:55:58Z</time>
      </trkpt>
      <trkpt lat="47.06315" lon="-2.00081">
        <ele>7</ele>
        <time>2019-05-03T09:56:06Z</time>
      </trkpt>
      <trkpt lat="47.0634" lon="-2.0008">
        <ele>7</ele>
        <time>2019-05-03T09:56:30Z</time>
      </trkpt>
      <trkpt lat="47.0635" lon="-2.00043">
        <ele>7</ele>
        <time>2019-05-03T09:56:52Z</time>
      </trkpt>
      <trkpt lat="47.06358" lon="-1.99936">
        <ele>8</ele>
        <time>2019-05-03T09:57:24Z</time>
      </trkpt>
      <trkpt lat="47.06383" lon="-1.9984">
        <ele>8</ele>
        <time>2019-05-03T09:57:48Z</time>
      </trkpt>
      <trkpt lat="47.0642" lon="-1.99818">
        <ele>10</ele>
        <time>2019-05-03T09:58:00Z</time>
      </trkpt>
      <trkpt lat="47.06553" lon="-1.998">
        <ele>15</ele>
        <time>2019-05-03T09:58:42Z</time>
      </trkpt>
      <trkpt lat="47.06585" lon="-1.99785">
        <ele>15</ele>
        <time>2019-05-03T09:58:54Z</time>
      </trkpt>
      <trkpt lat="47.06855" lon="-1.99618">
        <ele>24</ele>
        <time>2019-05-03T10:01:12Z</time>
      </trkpt>
      <trkpt lat="47.07121" lon="-1.99434">
        <ele>28</ele>
        <time>2019-05-03T10:03:06Z</time>
      </trkpt>
      <trkpt lat="47.07202" lon="-1.99363">
        <ele>27</ele>
        <time>2019-05-03T10:03:48Z</time>
      </trkpt>
      <trkpt lat="47.07256" lon="-1.99329">
        <ele>27</ele>
        <time>2019-05-03T10:04:00Z</time>
      </trkpt>
      <trkpt lat="47.07351" lon="-1.99303">
        <ele>26</ele>
        <time>2019-05-03T10:04:12Z</time>
      </trkpt>
      <trkpt lat="47.07444" lon="-1.99319">
        <ele>26</ele>
        <time>2019-05-03T10:04:30Z</time>
      </trkpt>
      <trkpt lat="47.07574" lon="-1.993">
        <ele>27</ele>
        <time>2019-05-03T10:05:00Z</time>
      </trkpt>
      <trkpt lat="47.07598" lon="-1.99344">
        <ele>27</ele>
        <time>2019-05-03T10:05:12Z</time>
      </trkpt>
      <trkpt lat="47.07793" lon="-1.99861">
        <ele>29</ele>
        <time>2019-05-03T10:06:48Z</time>
      </trkpt>
      <trkpt lat="47.07851" lon="-1.9998">
        <ele>30</ele>
        <time>2019-05-03T10:07:12Z</time>
      </trkpt>
      <trkpt lat="47.07861" lon="-2.00052">
        <ele>30</ele>
        <time>2019-05-03T10:07:24Z</time>
      </trkpt>
      <trkpt lat="47.07868" lon="-2.00252">
        <ele>32</ele>
        <time>2019-05-03T10:08:00Z</time>
      </trkpt>
      <trkpt lat="47.0789" lon="-2.0043">
        <ele>32</ele>
        <time>2019-05-03T10:08:36Z</time>
      </trkpt>
      <trkpt lat="47.07944" lon="-2.00596">
        <ele>33</ele>
        <time>2019-05-03T10:09:12Z</time>
      </trkpt>
      <trkpt lat="47.08041" lon="-2.00831">
        <ele>34</ele>
        <time>2019-05-03T10:10:00Z</time>
      </trkpt>
      <trkpt lat="47.08196" lon="-2.01076">
        <ele>32</ele>
        <time>2019-05-03T10:10:54Z</time>
      </trkpt>
      <trkpt lat="47.08236" lon="-2.01165">
        <ele>32</ele>
        <time>2019-05-03T10:11:12Z</time>
      </trkpt>
      <trkpt lat="47.08368" lon="-2.01355">
        <ele>34</ele>
        <time>2019-05-03T10:12:00Z</time>
      </trkpt>
      <trkpt lat="47.08442" lon="-2.01483">
        <ele>33</ele>
        <time>2019-05-03T10:12:24Z</time>
      </trkpt>
      <trkpt lat="47.08586" lon="-2.01678">
        <ele>31</ele>
        <time>2019-05-03T10:13:06Z</time>
      </trkpt>
      <trkpt lat="47.08554" lon="-2.01693">
        <ele>31</ele>
        <time>2019-05-03T10:13:18Z</time>
      </trkpt>
      <trkpt lat="47.08429" lon="-2.01583">
        <ele>31</ele>
        <time>2019-05-03T10:13:48Z</time>
      </trkpt>
      <trkpt lat="47.08323" lon="-2.01548">
        <ele>31</ele>
        <time>2019-05-03T10:14:12Z</time>
      </trkpt>
      <trkpt lat="47.08218" lon="-2.01707">
        <ele>30</ele>
        <time>2019-05-03T10:14:42Z</time>
      </trkpt>
      <trkpt lat="47.08077" lon="-2.01869">
        <ele>27</ele>
        <time>2019-05-03T10:15:12Z</time>
      </trkpt>
      <trkpt lat="47.08061" lon="-2.01909">
        <ele>26</ele>
        <time>2019-05-03T10:15:24Z</time>
      </trkpt>
      <trkpt lat="47.08234" lon="-2.02303">
        <ele>27</ele>
        <time>2019-05-03T10:16:42Z</time>
      </trkpt>
      <trkpt lat="47.08273" lon="-2.02424">
        <ele>28</ele>
        <time>2019-05-03T10:17:18Z</time>
      </trkpt>
      <trkpt lat="47.08337" lon="-2.02559">
        <ele>32</ele>
        <time>2019-05-03T10:18:00Z</time>
      </trkpt>
      <trkpt lat="47.08358" lon="-2.02625">
        <ele>31</ele>
        <time>2019-05-03T10:18:18Z</time>
      </trkpt>
      <trkpt lat="47.08389" lon="-2.02774">
        <ele>28</ele>
        <time>2019-05-03T10:18:42Z</time>
      </trkpt>
      <trkpt lat="47.08417" lon="-2.02985">
        <ele>32</ele>
        <time>2019-05-03T10:19:18Z</time>
      </trkpt>
      <trkpt lat="47.08415" lon="-2.03044">
        <ele>31</ele>
        <time>2019-05-03T10:19:30Z</time>
      </trkpt>
      <trkpt lat="47.08395" lon="-2.03107">
        <ele>30</ele>
        <time>2019-05-03T10:19:48Z</time>
      </trkpt>
      <trkpt lat="47.08361" lon="-2.03135">
        <ele>29</ele>
        <time>2019-05-03T10:20:00Z</time>
      </trkpt>
      <trkpt lat="47.08363" lon="-2.03202">
        <ele>28</ele>
        <time>2019-05-03T10:20:12Z</time>
      </trkpt>
      <trkpt lat="47.0832" lon="-2.03313">
        <ele>25</ele>
        <time>2019-05-03T10:20:30Z</time>
      </trkpt>
      <trkpt lat="47.08381" lon="-2.03672">
        <ele>22</ele>
        <time>2019-05-03T10:21:24Z</time>
      </trkpt>
      <trkpt lat="47.08412" lon="-2.03759">
        <ele>21</ele>
        <time>2019-05-03T10:21:36Z</time>
      </trkpt>
      <trkpt lat="47.08536" lon="-2.04061">
        <ele>23</ele>
        <time>2019-05-03T10:22:36Z</time>
      </trkpt>
      <trkpt lat="47.08601" lon="-2.04159">
        <ele>24</ele>
        <time>2019-05-03T10:23:06Z</time>
      </trkpt>
      <trkpt lat="47.08642" lon="-2.0419">
        <ele>28</ele>
        <time>2019-05-03T10:23:24Z</time>
      </trkpt>
      <trkpt lat="47.08667" lon="-2.04187">
        <ele>29</ele>
        <time>2019-05-03T10:23:42Z</time>
      </trkpt>
      <trkpt lat="47.08728" lon="-2.04132">
        <ele>33</ele>
        <time>2019-05-03T10:24:18Z</time>
      </trkpt>
      <trkpt lat="47.08833" lon="-2.04091">
        <ele>34</ele>
        <time>2019-05-03T10:25:06Z</time>
      </trkpt>
      <trkpt lat="47.08909" lon="-2.04031">
        <ele>36</ele>
        <time>2019-05-03T10:25:42Z</time>
      </trkpt>
      <trkpt lat="47.08942" lon="-2.04019">
        <ele>36</ele>
        <time>2019-05-03T10:26:07Z</time>
      </trkpt>
      <trkpt lat="47.08973" lon="-2.04105">
        <ele>36</ele>
        <time>2019-05-03T10:26:38Z</time>
      </trkpt>
      <trkpt lat="47.09018" lon="-2.0418">
        <ele>37</ele>
        <time>2019-05-03T10:27:08Z</time>
      </trkpt>
      <trkpt lat="47.09027" lon="-2.04218">
        <ele>38</ele>
        <time>2019-05-03T10:27:20Z</time>
      </trkpt>
      <trkpt lat="47.09116" lon="-2.0436">
        <ele>37</ele>
        <time>2019-05-03T10:28:26Z</time>
      </trkpt>
      <trkpt lat="47.09107" lon="-2.04359">
        <ele>37</ele>
        <time>2019-05-03T10:28:36Z</time>
      </trkpt>
      <trkpt lat="47.09103" lon="-2.04349">
        <ele>37</ele>
        <time>2019-05-03T10:28:48Z</time>
      </trkpt>
      <trkpt lat="47.09118" lon="-2.04353">
        <ele>37</ele>
        <time>2019-05-03T10:29:06Z</time>
      </trkpt>
      <trkpt lat="47.09172" lon="-2.04296">
        <ele>36</ele>
        <time>2019-05-03T10:29:30Z</time>
      </trkpt>
      <trkpt lat="47.0922" lon="-2.04359">
        <ele>33</ele>
        <time>2019-05-03T10:29:48Z</time>
      </trkpt>
      <trkpt lat="47.09242" lon="-2.04338">
        <ele>34</ele>
        <time>2019-05-03T10:29:54Z</time>
      </trkpt>
      <trkpt lat="47.09278" lon="-2.04367">
        <ele>32</ele>
        <time>2019-05-03T10:30:12Z</time>
      </trkpt>
      <trkpt lat="47.09344" lon="-2.04334">
        <ele>33</ele>
        <time>2019-05-03T10:30:30Z</time>
      </trkpt>
      <trkpt lat="47.09391" lon="-2.04272">
        <ele>36</ele>
        <time>2019-05-03T10:30:54Z</time>
      </trkpt>
      <trkpt lat="47.09413" lon="-2.0427">
        <ele>38</ele>
        <time>2019-05-03T10:31:18Z</time>
      </trkpt>
      <trkpt lat="47.09473" lon="-2.0436">
        <ele>36</ele>
        <time>2019-05-03T10:31:50Z</time>
      </trkpt>
      <trkpt lat="47.09567" lon="-2.04474">
        <ele>34</ele>
        <time>2019-05-03T10:32:14Z</time>
      </trkpt>
      <trkpt lat="47.09617" lon="-2.04481">
        <ele>35</ele>
        <time>2019-05-03T10:32:26Z</time>
      </trkpt>
      <trkpt lat="47.09633" lon="-2.04609">
        <ele>33</ele>
        <time>2019-05-03T10:32:50Z</time>
      </trkpt>
      <trkpt lat="47.09642" lon="-2.04629">
        <ele>32</ele>
        <time>2019-05-03T10:33:02Z</time>
      </trkpt>
      <trkpt lat="47.09631" lon="-2.04561">
        <ele>33</ele>
        <time>2019-05-03T10:33:26Z</time>
      </trkpt>
      <trkpt lat="47.09636" lon="-2.04659">
        <ele>32</ele>
        <time>2019-05-03T10:34:02Z</time>
      </trkpt>
      <trkpt lat="47.09625" lon="-2.04738">
        <ele>33</ele>
        <time>2019-05-03T10:34:20Z</time>
      </trkpt>
      <trkpt lat="47.09607" lon="-2.04794">
        <ele>33</ele>
        <time>2019-05-03T10:34:32Z</time>
      </trkpt>
      <trkpt lat="47.09679" lon="-2.04972">
        <ele>26</ele>
        <time>2019-05-03T10:34:56Z</time>
      </trkpt>
      <trkpt lat="47.09589" lon="-2.05125">
        <ele>21</ele>
        <time>2019-05-03T10:35:14Z</time>
      </trkpt>
      <trkpt lat="47.09573" lon="-2.05251">
        <ele>19</ele>
        <time>2019-05-03T10:35:32Z</time>
      </trkpt>
      <trkpt lat="47.09586" lon="-2.05311">
        <ele>23</ele>
        <time>2019-05-03T10:35:50Z</time>
      </trkpt>
      <trkpt lat="47.09664" lon="-2.05505">
        <ele>25</ele>
        <time>2019-05-03T10:36:50Z</time>
      </trkpt>
      <trkpt lat="47.09739" lon="-2.05599">
        <ele>32</ele>
        <time>2019-05-03T10:37:26Z</time>
      </trkpt>
      <trkpt lat="47.09758" lon="-2.05634">
        <ele>32</ele>
        <time>2019-05-03T10:37:38Z</time>
      </trkpt>
      <trkpt lat="47.09824" lon="-2.05874">
        <ele>35</ele>
        <time>2019-05-03T10:38:38Z</time>
      </trkpt>
      <trkpt lat="47.09904" lon="-2.05998">
        <ele>34</ele>
        <time>2019-05-03T10:39:02Z</time>
      </trkpt>
      <trkpt lat="47.0997" lon="-2.06061">
        <ele>36</ele>
        <time>2019-05-03T10:39:26Z</time>
      </trkpt>
      <trkpt lat="47.10006" lon="-2.06075">
        <ele>38</ele>
        <time>2019-05-03T10:39:38Z</time>
      </trkpt>
      <trkpt lat="47.10066" lon="-2.0607">
        <ele>38</ele>
        <time>2019-05-03T10:40:02Z</time>
      </trkpt>
      <trkpt lat="47.10107" lon="-2.06157">
        <ele>39</ele>
        <time>2019-05-03T10:40:34Z</time>
      </trkpt>
      <trkpt lat="47.10127" lon="-2.06239">
        <ele>38</ele>
        <time>2019-05-03T10:40:52Z</time>
      </trkpt>
      <trkpt lat="47.10231" lon="-2.06347">
        <ele>38</ele>
        <time>2019-05-03T10:41:28Z</time>
      </trkpt>
      <trkpt lat="47.1029" lon="-2.06515">
        <ele>37</ele>
        <time>2019-05-03T10:42:04Z</time>
      </trkpt>
      <trkpt lat="47.10351" lon="-2.0662">
        <ele>36</ele>
        <time>2019-05-03T10:42:28Z</time>
      </trkpt>
      <trkpt lat="47.10354" lon="-2.06644">
        <ele>36</ele>
        <time>2019-05-03T10:42:34Z</time>
      </trkpt>
      <trkpt lat="47.10374" lon="-2.06681">
        <ele>36</ele>
        <time>2019-05-03T10:42:53Z</time>
      </trkpt>
      <trkpt lat="47.10348" lon="-2.06646">
        <ele>36</ele>
        <time>2019-05-03T10:43:12Z</time>
      </trkpt>
      <trkpt lat="47.10223" lon="-2.06759">
        <ele>35</ele>
        <time>2019-05-03T10:43:54Z</time>
      </trkpt>
      <trkpt lat="47.1019" lon="-2.06811">
        <ele>35</ele>
        <time>2019-05-03T10:44:12Z</time>
      </trkpt>
      <trkpt lat="47.10205" lon="-2.06857">
        <ele>34</ele>
        <time>2019-05-03T10:44:42Z</time>
      </trkpt>
      <trkpt lat="47.10217" lon="-2.06857">
        <ele>34</ele>
        <time>2019-05-03T10:44:54Z</time>
      </trkpt>
      <trkpt lat="47.10242" lon="-2.06906">
        <ele>33</ele>
        <time>2019-05-03T10:45:43Z</time>
      </trkpt>
      <trkpt lat="47.1029" lon="-2.06949">
        <ele>33</ele>
        <time>2019-05-03T10:46:40Z</time>
      </trkpt>
      <trkpt lat="47.10317" lon="-2.06997">
        <ele>32</ele>
        <time>2019-05-03T10:47:27Z</time>
      </trkpt>
      <trkpt lat="47.10356" lon="-2.06954">
        <ele>33</ele>
        <time>2019-05-03T10:47:51Z</time>
      </trkpt>
      <trkpt lat="47.10441" lon="-2.07059">
        <ele>32</ele>
        <time>2019-05-03T10:48:33Z</time>
      </trkpt>
      <trkpt lat="47.10505" lon="-2.06916">
        <ele>33</ele>
        <time>2019-05-03T10:49:21Z</time>
      </trkpt>
      <trkpt lat="47.10495" lon="-2.06923">
        <ele>33</ele>
        <time>2019-05-03T10:49:33Z</time>
      </trkpt>
      <trkpt lat="47.10456" lon="-2.07024">
        <ele>32</ele>
        <time>2019-05-03T10:50:11Z</time>
      </trkpt>
      <trkpt lat="47.10432" lon="-2.07194">
        <ele>30</ele>
        <time>2019-05-03T10:50:53Z</time>
      </trkpt>
      <trkpt lat="47.1039" lon="-2.07294">
        <ele>29</ele>
        <time>2019-05-03T10:51:11Z</time>
      </trkpt>
      <trkpt lat="47.10375" lon="-2.07386">
        <ele>26</ele>
        <time>2019-05-03T10:51:23Z</time>
      </trkpt>
      <trkpt lat="47.10351" lon="-2.07468">
        <ele>24</ele>
        <time>2019-05-03T10:51:35Z</time>
      </trkpt>
      <trkpt lat="47.10413" lon="-2.07666">
        <ele>25</ele>
        <time>2019-05-03T10:52:23Z</time>
      </trkpt>
      <trkpt lat="47.10415" lon="-2.07704">
        <ele>25</ele>
        <time>2019-05-03T10:52:29Z</time>
      </trkpt>
      <trkpt lat="47.10392" lon="-2.07817">
        <ele>23</ele>
        <time>2019-05-03T10:52:47Z</time>
      </trkpt>
      <trkpt lat="47.10394" lon="-2.07902">
        <ele>24</ele>
        <time>2019-05-03T10:53:05Z</time>
      </trkpt>
      <trkpt lat="47.10425" lon="-2.07989">
        <ele>24</ele>
        <time>2019-05-03T10:53:23Z</time>
      </trkpt>
      <trkpt lat="47.10476" lon="-2.08054">
        <ele>24</ele>
        <time>2019-05-03T10:53:41Z</time>
      </trkpt>
      <trkpt lat="47.10689" lon="-2.08454">
        <ele>29</ele>
        <time>2019-05-03T10:55:17Z</time>
      </trkpt>
      <trkpt lat="47.10717" lon="-2.08622">
        <ele>29</ele>
        <time>2019-05-03T10:55:47Z</time>
      </trkpt>
      <trkpt lat="47.10765" lon="-2.08818">
        <ele>27</ele>
        <time>2019-05-03T10:56:29Z</time>
      </trkpt>
      <trkpt lat="47.10767" lon="-2.08868">
        <ele>27</ele>
        <time>2019-05-03T10:56:41Z</time>
      </trkpt>
      <trkpt lat="47.10739" lon="-2.08958">
        <ele>26</ele>
        <time>2019-05-03T10:57:05Z</time>
      </trkpt>
      <trkpt lat="47.10752" lon="-2.09027">
        <ele>27</ele>
        <time>2019-05-03T10:57:17Z</time>
      </trkpt>
      <trkpt lat="47.10761" lon="-2.09058">
        <ele>27</ele>
        <time>2019-05-03T10:57:23Z</time>
      </trkpt>
      <trkpt lat="47.10814" lon="-2.09109">
        <ele>28</ele>
        <time>2019-05-03T10:57:41Z</time>
      </trkpt>
      <trkpt lat="47.10853" lon="-2.09281">
        <ele>26</ele>
        <time>2019-05-03T10:58:11Z</time>
      </trkpt>
      <trkpt lat="47.10916" lon="-2.0941">
        <ele>25</ele>
        <time>2019-05-03T10:58:41Z</time>
      </trkpt>
      <trkpt lat="47.10992" lon="-2.09634">
        <ele>28</ele>
        <time>2019-05-03T10:59:29Z</time>
      </trkpt>
      <trkpt lat="47.11044" lon="-2.09848">
        <ele>31</ele>
        <time>2019-05-03T11:00:17Z</time>
      </trkpt>
      <trkpt lat="47.11036" lon="-2.09902">
        <ele>31</ele>
        <time>2019-05-03T11:00:29Z</time>
      </trkpt>
      <trkpt lat="47.10865" lon="-2.10287">
        <ele>25</ele>
        <time>2019-05-03T11:01:53Z</time>
      </trkpt>
      <trkpt lat="47.10849" lon="-2.10348">
        <ele>24</ele>
        <time>2019-05-03T11:02:05Z</time>
      </trkpt>
      <trkpt lat="47.10883" lon="-2.10394">
        <ele>23</ele>
        <time>2019-05-03T11:02:17Z</time>
      </trkpt>
      <trkpt lat="47.10951" lon="-2.10458">
        <ele>20</ele>
        <time>2019-05-03T11:02:41Z</time>
      </trkpt>
      <trkpt lat="47.11056" lon="-2.10233">
        <ele>27</ele>
        <time>2019-05-03T11:03:47Z</time>
      </trkpt>
      <trkpt lat="47.1107" lon="-2.10258">
        <ele>23</ele>
        <time>2019-05-03T11:03:53Z</time>
      </trkpt>
      <trkpt lat="47.11137" lon="-2.10325">
        <ele>14</ele>
        <time>2019-05-03T11:04:05Z</time>
      </trkpt>
      <trkpt lat="47.11207" lon="-2.10382">
        <ele>14</ele>
        <time>2019-05-03T11:04:17Z</time>
      </trkpt>
      <trkpt lat="47.11239" lon="-2.10385">
        <ele>15</ele>
        <time>2019-05-03T11:04:23Z</time>
      </trkpt>
      <trkpt lat="47.113" lon="-2.10359">
        <ele>16</ele>
        <time>2019-05-03T11:04:35Z</time>
      </trkpt>
      <trkpt lat="47.11398" lon="-2.10251">
        <ele>10</ele>
        <time>2019-05-03T11:05:15Z</time>
      </trkpt>
      <trkpt lat="47.11403" lon="-2.10261">
        <ele>4</ele>
        <time>2019-05-03T11:05:25Z</time>
      </trkpt>
      <trkpt lat="47.11395" lon="-2.1024">
        <ele>10</ele>
        <time>2019-05-03T11:05:41Z</time>
      </trkpt>
      <trkpt lat="47.11423" lon="-2.10117">
        <ele>1</ele>
        <time>2019-05-03T11:06:11Z</time>
      </trkpt>
      <trkpt lat="47.11437" lon="-2.09985">
        <ele>6</ele>
        <time>2019-05-03T11:06:41Z</time>
      </trkpt>
      <trkpt lat="47.11462" lon="-2.09873">
        <ele>1</ele>
        <time>2019-05-03T11:07:05Z</time>
      </trkpt>
      <trkpt lat="47.11428" lon="-2.09816">
        <ele>9</ele>
        <time>2019-05-03T11:07:29Z</time>
      </trkpt>
      <trkpt lat="47.11442" lon="-2.09826">
        <ele>9</ele>
        <time>2019-05-03T11:07:47Z</time>
      </trkpt>
      <trkpt lat="47.11442" lon="-2.09841">
        <ele>8</ele>
        <time>2019-05-03T11:08:02Z</time>
      </trkpt>
      <trkpt lat="47.1144" lon="-2.09816">
        <ele>9</ele>
        <time>2019-05-03T11:08:27Z</time>
      </trkpt>
      <trkpt lat="47.11455" lon="-2.09844">
        <ele>1</ele>
        <time>2019-05-03T11:08:37Z</time>
      </trkpt>
      <trkpt lat="47.11478" lon="-2.09856">
        <ele>1</ele>
        <time>2019-05-03T11:09:21Z</time>
      </trkpt>
      <trkpt lat="47.11521" lon="-2.09868">
        <ele>3</ele>
        <time>2019-05-03T11:10:16Z</time>
      </trkpt>
      <trkpt lat="47.11539" lon="-2.09857">
        <ele>3</ele>
        <time>2019-05-03T11:11:12Z</time>
      </trkpt>
      <trkpt lat="47.11579" lon="-2.0995">
        <ele>-1</ele>
        <time>2019-05-03T11:12:29Z</time>
      </trkpt>
      <trkpt lat="47.11583" lon="-2.10013">
        <ele>13</ele>
        <time>2019-05-03T11:13:24Z</time>
      </trkpt>
      <trkpt lat="47.11576" lon="-2.10095">
        <ele>15</ele>
        <time>2019-05-03T11:14:30Z</time>
      </trkpt>
      <trkpt lat="47.11598" lon="-2.10263">
        <ele>22</ele>
        <time>2019-05-03T11:16:54Z</time>
      </trkpt>
      <trkpt lat="47.11625" lon="-2.10281">
        <ele>22</ele>
        <time>2019-05-03T11:17:04Z</time>
      </trkpt>
      <trkpt lat="47.11687" lon="-2.10269">
        <ele>25</ele>
        <time>2019-05-03T11:18:56Z</time>
      </trkpt>
      <trkpt lat="47.11617" lon="-2.10271">
        <ele>22</ele>
        <time>2019-05-03T11:19:15Z</time>
      </trkpt>
      <trkpt lat="47.11603" lon="-2.10268">
        <ele>22</ele>
        <time>2019-05-03T11:19:20Z</time>
      </trkpt>
      <trkpt lat="47.11596" lon="-2.10252">
        <ele>22</ele>
        <time>2019-05-03T11:19:39Z</time>
      </trkpt>
      <trkpt lat="47.11573" lon="-2.10322">
        <ele>19</ele>
        <time>2019-05-03T11:20:22Z</time>
      </trkpt>
      <trkpt lat="47.11578" lon="-2.10386">
        <ele>19</ele>
        <time>2019-05-03T11:20:48Z</time>
      </trkpt>
      <trkpt lat="47.11546" lon="-2.1045">
        <ele>15</ele>
        <time>2019-05-03T11:21:30Z</time>
      </trkpt>
      <trkpt lat="47.11528" lon="-2.10458">
        <ele>16</ele>
        <time>2019-05-03T11:21:56Z</time>
      </trkpt>
      <trkpt lat="47.11553" lon="-2.10509">
        <ele>21</ele>
        <time>2019-05-03T11:22:21Z</time>
      </trkpt>
      <trkpt lat="47.11576" lon="-2.10518">
        <ele>21</ele>
        <time>2019-05-03T11:22:38Z</time>
      </trkpt>
      <trkpt lat="47.11594" lon="-2.10546">
        <ele>23</ele>
        <time>2019-05-03T11:22:57Z</time>
      </trkpt>
      <trkpt lat="47.11617" lon="-2.10637">
        <ele>18</ele>
        <time>2019-05-03T11:23:16Z</time>
      </trkpt>
      <trkpt lat="47.11669" lon="-2.10683">
        <ele>15</ele>
        <time>2019-05-03T11:23:28Z</time>
      </trkpt>
      <trkpt lat="47.1186" lon="-2.10984">
        <ele>23</ele>
        <time>2019-05-03T11:25:46Z</time>
      </trkpt>
      <trkpt lat="47.12001" lon="-2.10972">
        <ele>30</ele>
        <time>2019-05-03T11:27:10Z</time>
      </trkpt>
      <trkpt lat="47.12118" lon="-2.11054">
        <ele>35</ele>
        <time>2019-05-03T11:28:22Z</time>
      </trkpt>
      <trkpt lat="47.12141" lon="-2.11056">
        <ele>35</ele>
        <time>2019-05-03T11:28:47Z</time>
      </trkpt>
      <trkpt lat="47.12153" lon="-2.11085">
        <ele>35</ele>
        <time>2019-05-03T11:28:59Z</time>
      </trkpt>
      <trkpt lat="47.12178" lon="-2.11106">
        <ele>37</ele>
        <time>2019-05-03T11:29:11Z</time>
      </trkpt>
      <trkpt lat="47.12173" lon="-2.1117">
        <ele>37</ele>
        <time>2019-05-03T11:29:28Z</time>
      </trkpt>
      <trkpt lat="47.12239" lon="-2.11756">
        <ele>33</ele>
        <time>2019-05-03T11:31:22Z</time>
      </trkpt>
      <trkpt lat="47.1226" lon="-2.11783">
        <ele>34</ele>
        <time>2019-05-03T11:31:44Z</time>
      </trkpt>
      <trkpt lat="47.12251" lon="-2.11837">
        <ele>35</ele>
        <time>2019-05-03T11:32:02Z</time>
      </trkpt>
      <trkpt lat="47.12286" lon="-2.12165">
        <ele>36</ele>
        <time>2019-05-03T11:33:20Z</time>
      </trkpt>
      <trkpt lat="47.12303" lon="-2.12297">
        <ele>36</ele>
        <time>2019-05-03T11:33:50Z</time>
      </trkpt>
      <trkpt lat="47.12309" lon="-2.12319">
        <ele>35</ele>
        <time>2019-05-03T11:33:56Z</time>
      </trkpt>
      <trkpt lat="47.12336" lon="-2.12349">
        <ele>35</ele>
        <time>2019-05-03T11:34:15Z</time>
      </trkpt>
      <trkpt lat="47.12335" lon="-2.12392">
        <ele>35</ele>
        <time>2019-05-03T11:34:38Z</time>
      </trkpt>
      <trkpt lat="47.12322" lon="-2.12405">
        <ele>35</ele>
        <time>2019-05-03T11:34:50Z</time>
      </trkpt>
      <trkpt lat="47.12321" lon="-2.12457">
        <ele>35</ele>
        <time>2019-05-03T11:35:03Z</time>
      </trkpt>
      <trkpt lat="47.12375" lon="-2.12963">
        <ele>36</ele>
        <time>2019-05-03T11:36:50Z</time>
      </trkpt>
      <trkpt lat="47.12404" lon="-2.13182">
        <ele>35</ele>
        <time>2019-05-03T11:37:44Z</time>
      </trkpt>
      <trkpt lat="47.12411" lon="-2.13193">
        <ele>35</ele>
        <time>2019-05-03T11:37:50Z</time>
      </trkpt>
      <trkpt lat="47.12422" lon="-2.13189">
        <ele>35</ele>
        <time>2019-05-03T11:38:08Z</time>
      </trkpt>
      <trkpt lat="47.12398" lon="-2.13201">
        <ele>35</ele>
        <time>2019-05-03T11:38:34Z</time>
      </trkpt>
      <trkpt lat="47.12364" lon="-2.13246">
        <ele>35</ele>
        <time>2019-05-03T11:39:04Z</time>
      </trkpt>
      <trkpt lat="47.12157" lon="-2.13254">
        <ele>37</ele>
        <time>2019-05-03T11:40:10Z</time>
      </trkpt>
      <trkpt lat="47.12038" lon="-2.13279">
        <ele>39</ele>
        <time>2019-05-03T11:40:46Z</time>
      </trkpt>
      <trkpt lat="47.12066" lon="-2.13495">
        <ele>37</ele>
        <time>2019-05-03T11:41:29Z</time>
      </trkpt>
      <trkpt lat="47.12133" lon="-2.13771">
        <ele>36</ele>
        <time>2019-05-03T11:42:22Z</time>
      </trkpt>
      <trkpt lat="47.12098" lon="-2.13811">
        <ele>35</ele>
        <time>2019-05-03T11:42:34Z</time>
      </trkpt>
      <trkpt lat="47.12064" lon="-2.13917">
        <ele>35</ele>
        <time>2019-05-03T11:42:52Z</time>
      </trkpt>
      <trkpt lat="47.11979" lon="-2.14058">
        <ele>33</ele>
        <time>2019-05-03T11:43:22Z</time>
      </trkpt>
      <trkpt lat="47.11978" lon="-2.1407">
        <ele>32</ele>
        <time>2019-05-03T11:43:30Z</time>
      </trkpt>
      <trkpt lat="47.12232" lon="-2.14504">
        <ele>33</ele>
        <time>2019-05-03T11:45:43Z</time>
      </trkpt>
      <trkpt lat="47.12211" lon="-2.14512">
        <ele>32</ele>
        <time>2019-05-03T11:45:54Z</time>
      </trkpt>
      <trkpt lat="47.1217" lon="-2.14479">
        <ele>32</ele>
        <time>2019-05-03T11:46:12Z</time>
      </trkpt>
      <trkpt lat="47.12132" lon="-2.14467">
        <ele>32</ele>
        <time>2019-05-03T11:46:24Z</time>
      </trkpt>
      <trkpt lat="47.12008" lon="-2.14519">
        <ele>29</ele>
        <time>2019-05-03T11:46:54Z</time>
      </trkpt>
      <trkpt lat="47.1194" lon="-2.14608">
        <ele>25</ele>
        <time>2019-05-03T11:47:12Z</time>
      </trkpt>
      <trkpt lat="47.11884" lon="-2.14802">
        <ele>23</ele>
        <time>2019-05-03T11:47:36Z</time>
      </trkpt>
      <trkpt lat="47.11828" lon="-2.14848">
        <ele>23</ele>
        <time>2019-05-03T11:47:54Z</time>
      </trkpt>
      <trkpt lat="47.11823" lon="-2.14863">
        <ele>23</ele>
        <time>2019-05-03T11:48:05Z</time>
      </trkpt>
      <trkpt lat="47.11882" lon="-2.14888">
        <ele>26</ele>
        <time>2019-05-03T11:48:39Z</time>
      </trkpt>
      <trkpt lat="47.1195" lon="-2.15209">
        <ele>29</ele>
        <time>2019-05-03T11:50:04Z</time>
      </trkpt>
      <trkpt lat="47.11968" lon="-2.15255">
        <ele>30</ele>
        <time>2019-05-03T11:50:16Z</time>
      </trkpt>
      <trkpt lat="47.12011" lon="-2.15307">
        <ele>30</ele>
        <time>2019-05-03T11:50:34Z</time>
      </trkpt>
      <trkpt lat="47.12053" lon="-2.15389">
        <ele>29</ele>
        <time>2019-05-03T11:50:52Z</time>
      </trkpt>
      <trkpt lat="47.12095" lon="-2.15605">
        <ele>26</ele>
        <time>2019-05-03T11:51:22Z</time>
      </trkpt>
      <trkpt lat="47.12095" lon="-2.15745">
        <ele>25</ele>
        <time>2019-05-03T11:51:40Z</time>
      </trkpt>
      <trkpt lat="47.12127" lon="-2.15835">
        <ele>22</ele>
        <time>2019-05-03T11:51:52Z</time>
      </trkpt>
      <trkpt lat="47.12231" lon="-2.16007">
        <ele>15</ele>
        <time>2019-05-03T11:52:16Z</time>
      </trkpt>
      <trkpt lat="47.12261" lon="-2.16119">
        <ele>13</ele>
        <time>2019-05-03T11:52:28Z</time>
      </trkpt>
      <trkpt lat="47.12283" lon="-2.16251">
        <ele>13</ele>
        <time>2019-05-03T11:52:46Z</time>
      </trkpt>
      <trkpt lat="47.12275" lon="-2.16272">
        <ele>14</ele>
        <time>2019-05-03T11:52:52Z</time>
      </trkpt>
      <trkpt lat="47.12243" lon="-2.16292">
        <ele>14</ele>
        <time>2019-05-03T11:53:04Z</time>
      </trkpt>
      <trkpt lat="47.12181" lon="-2.16308">
        <ele>14</ele>
        <time>2019-05-03T11:53:22Z</time>
      </trkpt>
      <trkpt lat="47.12063" lon="-2.16365">
        <ele>12</ele>
        <time>2019-05-03T11:53:46Z</time>
      </trkpt>
      <trkpt lat="47.11963" lon="-2.1645">
        <ele>10</ele>
        <time>2019-05-03T11:54:10Z</time>
      </trkpt>
      <trkpt lat="47.11922" lon="-2.16467">
        <ele>9</ele>
        <time>2019-05-03T11:54:22Z</time>
      </trkpt>
      <trkpt lat="47.11873" lon="-2.16503">
        <ele>5</ele>
        <time>2019-05-03T11:54:40Z</time>
      </trkpt>
      <trkpt lat="47.11858" lon="-2.16524">
        <ele>5</ele>
        <time>2019-05-03T11:54:52Z</time>
      </trkpt>
      <trkpt lat="47.11857" lon="-2.16542">
        <ele>5</ele>
        <time>2019-05-03T11:55:04Z</time>
      </trkpt>
      <trkpt lat="47.11873" lon="-2.1666">
        <ele>8</ele>
        <time>2019-05-03T11:56:04Z</time>
      </trkpt>
      <trkpt lat="47.11911" lon="-2.16779">
        <ele>11</ele>
        <time>2019-05-03T11:56:40Z</time>
      </trkpt>
      <trkpt lat="47.11937" lon="-2.16775">
        <ele>12</ele>
        <time>2019-05-03T11:56:52Z</time>
      </trkpt>
      <trkpt lat="47.11995" lon="-2.16722">
        <ele>16</ele>
        <time>2019-05-03T11:57:28Z</time>
      </trkpt>
      <trkpt lat="47.1204" lon="-2.16701">
        <ele>17</ele>
        <time>2019-05-03T11:57:52Z</time>
      </trkpt>
      <trkpt lat="47.12049" lon="-2.16685">
        <ele>17</ele>
        <time>2019-05-03T11:58:04Z</time>
      </trkpt>
      <trkpt lat="47.12046" lon="-2.16665">
        <ele>16</ele>
        <time>2019-05-03T11:58:21Z</time>
      </trkpt>
      <trkpt lat="47.12049" lon="-2.16707">
        <ele>18</ele>
        <time>2019-05-03T11:58:54Z</time>
      </trkpt>
      <trkpt lat="47.12073" lon="-2.16787">
        <ele>18</ele>
        <time>2019-05-03T11:59:24Z</time>
      </trkpt>
      <trkpt lat="47.12155" lon="-2.17214">
        <ele>21</ele>
        <time>2019-05-03T12:01:12Z</time>
      </trkpt>
      <trkpt lat="47.12178" lon="-2.17266">
        <ele>21</ele>
        <time>2019-05-03T12:01:24Z</time>
      </trkpt>
      <trkpt lat="47.12227" lon="-2.1727">
        <ele>22</ele>
        <time>2019-05-03T12:01:42Z</time>
      </trkpt>
      <trkpt lat="47.12322" lon="-2.17182">
        <ele>23</ele>
        <time>2019-05-03T12:02:18Z</time>
      </trkpt>
      <trkpt lat="47.12392" lon="-2.17101">
        <ele>23</ele>
        <time>2019-05-03T12:02:42Z</time>
      </trkpt>
      <trkpt lat="47.12778" lon="-2.16959">
        <ele>26</ele>
        <time>2019-05-03T12:04:30Z</time>
      </trkpt>
      <trkpt lat="47.12879" lon="-2.16889">
        <ele>30</ele>
        <time>2019-05-03T12:05:06Z</time>
      </trkpt>
      <trkpt lat="47.12969" lon="-2.17059">
        <ele>28</ele>
        <time>2019-05-03T12:05:48Z</time>
      </trkpt>
      <trkpt lat="47.12999" lon="-2.1715">
        <ele>28</ele>
        <time>2019-05-03T12:06:06Z</time>
      </trkpt>
      <trkpt lat="47.13021" lon="-2.17319">
        <ele>28</ele>
        <time>2019-05-03T12:06:36Z</time>
      </trkpt>
      <trkpt lat="47.13017" lon="-2.17376">
        <ele>28</ele>
        <time>2019-05-03T12:06:48Z</time>
      </trkpt>
      <trkpt lat="47.12844" lon="-2.17438">
        <ele>28</ele>
        <time>2019-05-03T12:07:30Z</time>
      </trkpt>
      <trkpt lat="47.12801" lon="-2.17472">
        <ele>27</ele>
        <time>2019-05-03T12:07:42Z</time>
      </trkpt>
      <trkpt lat="47.12848" lon="-2.17736">
        <ele>28</ele>
        <time>2019-05-03T12:08:36Z</time>
      </trkpt>
      <trkpt lat="47.12875" lon="-2.17746">
        <ele>28</ele>
        <time>2019-05-03T12:08:54Z</time>
      </trkpt>
      <trkpt lat="47.12868" lon="-2.17859">
        <ele>27</ele>
        <time>2019-05-03T12:09:18Z</time>
      </trkpt>
      <trkpt lat="47.12854" lon="-2.17891">
        <ele>26</ele>
        <time>2019-05-03T12:09:24Z</time>
      </trkpt>
      <trkpt lat="47.12852" lon="-2.17971">
        <ele>25</ele>
        <time>2019-05-03T12:09:36Z</time>
      </trkpt>
      <trkpt lat="47.12838" lon="-2.17999">
        <ele>25</ele>
        <time>2019-05-03T12:09:42Z</time>
      </trkpt>
      <trkpt lat="47.12828" lon="-2.18092">
        <ele>27</ele>
        <time>2019-05-03T12:10:06Z</time>
      </trkpt>
      <trkpt lat="47.12826" lon="-2.18176">
        <ele>29</ele>
        <time>2019-05-03T12:10:24Z</time>
      </trkpt>
      <trkpt lat="47.12958" lon="-2.18226">
        <ele>29</ele>
        <time>2019-05-03T12:11:06Z</time>
      </trkpt>
      <trkpt lat="47.12978" lon="-2.18267">
        <ele>29</ele>
        <time>2019-05-03T12:11:18Z</time>
      </trkpt>
      <trkpt lat="47.12996" lon="-2.1834">
        <ele>30</ele>
        <time>2019-05-03T12:11:36Z</time>
      </trkpt>
      <trkpt lat="47.12995" lon="-2.18363">
        <ele>31</ele>
        <time>2019-05-03T12:11:42Z</time>
      </trkpt>
      <trkpt lat="47.12958" lon="-2.18394">
        <ele>30</ele>
        <time>2019-05-03T12:11:54Z</time>
      </trkpt>
      <trkpt lat="47.12949" lon="-2.18424">
        <ele>31</ele>
        <time>2019-05-03T12:12:00Z</time>
      </trkpt>
      <trkpt lat="47.12952" lon="-2.18534">
        <ele>32</ele>
        <time>2019-05-03T12:12:24Z</time>
      </trkpt>
      <trkpt lat="47.12913" lon="-2.18597">
        <ele>32</ele>
        <time>2019-05-03T12:12:42Z</time>
      </trkpt>
      <trkpt lat="47.12936" lon="-2.18909">
        <ele>35</ele>
        <time>2019-05-03T12:14:00Z</time>
      </trkpt>
      <trkpt lat="47.12972" lon="-2.19014">
        <ele>34</ele>
        <time>2019-05-03T12:14:24Z</time>
      </trkpt>
      <trkpt lat="47.12986" lon="-2.19024">
        <ele>34</ele>
        <time>2019-05-03T12:14:30Z</time>
      </trkpt>
      <trkpt lat="47.13111" lon="-2.18991">
        <ele>35</ele>
        <time>2019-05-03T12:15:06Z</time>
      </trkpt>
      <trkpt lat="47.13137" lon="-2.18973">
        <ele>35</ele>
        <time>2019-05-03T12:15:25Z</time>
      </trkpt>
      <trkpt lat="47.13127" lon="-2.1898">
        <ele>35</ele>
        <time>2019-05-03T12:15:32Z</time>
      </trkpt>
      <trkpt lat="47.13111" lon="-2.1902">
        <ele>35</ele>
        <time>2019-05-03T12:15:44Z</time>
      </trkpt>
      <trkpt lat="47.13102" lon="-2.19228">
        <ele>34</ele>
        <time>2019-05-03T12:16:20Z</time>
      </trkpt>
      <trkpt lat="47.12906" lon="-2.19293">
        <ele>31</ele>
        <time>2019-05-03T12:17:12Z</time>
      </trkpt>
      <trkpt lat="47.12897" lon="-2.19321">
        <ele>30</ele>
        <time>2019-05-03T12:17:18Z</time>
      </trkpt>
      <trkpt lat="47.12897" lon="-2.19409">
        <ele>29</ele>
        <time>2019-05-03T12:17:30Z</time>
      </trkpt>
      <trkpt lat="47.12852" lon="-2.19454">
        <ele>26</ele>
        <time>2019-05-03T12:17:42Z</time>
      </trkpt>
      <trkpt lat="47.12785" lon="-2.19482">
        <ele>24</ele>
        <time>2019-05-03T12:17:54Z</time>
      </trkpt>
      <trkpt lat="47.12748" lon="-2.19473">
        <ele>23</ele>
        <time>2019-05-03T12:18:00Z</time>
      </trkpt>
      <trkpt lat="47.12686" lon="-2.19434">
        <ele>21</ele>
        <time>2019-05-03T12:18:18Z</time>
      </trkpt>
      <trkpt lat="47.12602" lon="-2.19413">
        <ele>19</ele>
        <time>2019-05-03T12:18:36Z</time>
      </trkpt>
      <trkpt lat="47.12557" lon="-2.19445">
        <ele>18</ele>
        <time>2019-05-03T12:18:48Z</time>
      </trkpt>
      <trkpt lat="47.12554" lon="-2.19465">
        <ele>19</ele>
        <time>2019-05-03T12:18:54Z</time>
      </trkpt>
      <trkpt lat="47.12563" lon="-2.19523">
        <ele>22</ele>
        <time>2019-05-03T12:19:24Z</time>
      </trkpt>
      <trkpt lat="47.12575" lon="-2.19522">
        <ele>22</ele>
        <time>2019-05-03T12:19:36Z</time>
      </trkpt>
      <trkpt lat="47.12584" lon="-2.19535">
        <ele>22</ele>
        <time>2019-05-03T12:19:48Z</time>
      </trkpt>
      <trkpt lat="47.12612" lon="-2.19662">
        <ele>26</ele>
        <time>2019-05-03T12:20:54Z</time>
      </trkpt>
      <trkpt lat="47.12478" lon="-2.19769">
        <ele>17</ele>
        <time>2019-05-03T12:22:06Z</time>
      </trkpt>
      <trkpt lat="47.12455" lon="-2.20017">
        <ele>15</ele>
        <time>2019-05-03T12:23:18Z</time>
      </trkpt>
      <trkpt lat="47.12463" lon="-2.20111">
        <ele>14</ele>
        <time>2019-05-03T12:23:30Z</time>
      </trkpt>
      <trkpt lat="47.12514" lon="-2.20273">
        <ele>13</ele>
        <time>2019-05-03T12:23:54Z</time>
      </trkpt>
      <trkpt lat="47.1252" lon="-2.20342">
        <ele>10</ele>
        <time>2019-05-03T12:24:00Z</time>
      </trkpt>
      <trkpt lat="47.12499" lon="-2.20419">
        <ele>6</ele>
        <time>2019-05-03T12:24:12Z</time>
      </trkpt>
      <trkpt lat="47.12499" lon="-2.20462">
        <ele>6</ele>
        <time>2019-05-03T12:24:24Z</time>
      </trkpt>
      <trkpt lat="47.12511" lon="-2.20525">
        <ele>9</ele>
        <time>2019-05-03T12:24:58Z</time>
      </trkpt>
      <trkpt lat="47.12505" lon="-2.20615">
        <ele>10</ele>
        <time>2019-05-03T12:25:16Z</time>
      </trkpt>
      <trkpt lat="47.12523" lon="-2.20708">
        <ele>10</ele>
        <time>2019-05-03T12:25:34Z</time>
      </trkpt>
      <trkpt lat="47.12455" lon="-2.21158">
        <ele>11.6</ele>
        <time>2019-05-03T12:27:04Z</time>
      </trkpt>
      <trkpt lat="47.12455" lon="-2.21304">
        <ele>6</ele>
        <time>2019-05-03T12:27:28Z</time>
      </trkpt>
      <trkpt lat="47.12438" lon="-2.21458">
        <ele>10</ele>
        <time>2019-05-03T12:27:52Z</time>
      </trkpt>
      <trkpt lat="47.12444" lon="-2.21491">
        <ele>10</ele>
        <time>2019-05-03T12:27:58Z</time>
      </trkpt>
      <trkpt lat="47.12483" lon="-2.21594">
        <ele>12</ele>
        <time>2019-05-03T12:28:16Z</time>
      </trkpt>
      <trkpt lat="47.12483" lon="-2.21728">
        <ele>9</ele>
        <time>2019-05-03T12:29:08Z</time>
      </trkpt>
      <trkpt lat="47.12536" lon="-2.21898">
        <ele>7</ele>
        <time>2019-05-03T12:29:56Z</time>
      </trkpt>
      <trkpt lat="47.12549" lon="-2.21994">
        <ele>4</ele>
        <time>2019-05-03T12:30:14Z</time>
      </trkpt>
      <trkpt lat="47.12573" lon="-2.22049">
        <ele>4</ele>
        <time>2019-05-03T12:30:26Z</time>
      </trkpt>
      <trkpt lat="47.12587" lon="-2.22069">
        <ele>4</ele>
        <time>2019-05-03T12:30:32Z</time>
      </trkpt>
      <trkpt lat="47.12626" lon="-2.22086">
        <ele>6</ele>
        <time>2019-05-03T12:30:44Z</time>
      </trkpt>
      <trkpt lat="47.12775" lon="-2.22078">
        <ele>10</ele>
        <time>2019-05-03T12:31:26Z</time>
      </trkpt>
      <trkpt lat="47.12801" lon="-2.22087">
        <ele>11</ele>
        <time>2019-05-03T12:31:38Z</time>
      </trkpt>
      <trkpt lat="47.12805" lon="-2.22102">
        <ele>9</ele>
        <time>2019-05-03T12:31:44Z</time>
      </trkpt>
      <trkpt lat="47.12799" lon="-2.22124">
        <ele>9</ele>
        <time>2019-05-03T12:31:50Z</time>
      </trkpt>
      <trkpt lat="47.12801" lon="-2.22167">
        <ele>7</ele>
        <time>2019-05-03T12:32:02Z</time>
      </trkpt>
      <trkpt lat="47.12912" lon="-2.22328">
        <ele>9</ele>
        <time>2019-05-03T12:32:56Z</time>
      </trkpt>
      <trkpt lat="47.12972" lon="-2.22399">
        <ele>10</ele>
        <time>2019-05-03T12:33:20Z</time>
      </trkpt>
      <trkpt lat="47.13005" lon="-2.22495">
        <ele>8</ele>
        <time>2019-05-03T12:33:44Z</time>
      </trkpt>
      <trkpt lat="47.13125" lon="-2.22697">
        <ele>10</ele>
        <time>2019-05-03T12:34:38Z</time>
      </trkpt>
      <trkpt lat="47.1313" lon="-2.22722">
        <ele>7</ele>
        <time>2019-05-03T12:34:44Z</time>
      </trkpt>
      <trkpt lat="47.13124" lon="-2.22888">
        <ele>7</ele>
        <time>2019-05-03T12:35:25Z</time>
      </trkpt>
      <trkpt lat="47.13163" lon="-2.23043">
        <ele>13</ele>
        <time>2019-05-03T12:36:07Z</time>
      </trkpt>
      <trkpt lat="47.13174" lon="-2.23277">
        <ele>8</ele>
        <time>2019-05-03T12:36:49Z</time>
      </trkpt>
      <trkpt lat="47.13194" lon="-2.23362">
        <ele>9</ele>
        <time>2019-05-03T12:37:01Z</time>
      </trkpt>
      <trkpt lat="47.13188" lon="-2.23428">
        <ele>9</ele>
        <time>2019-05-03T12:37:13Z</time>
      </trkpt>
      <trkpt lat="47.13162" lon="-2.23482">
        <ele>3</ele>
        <time>2019-05-03T12:37:35Z</time>
      </trkpt>
      <trkpt lat="47.13157" lon="-2.23555">
        <ele>10</ele>
        <time>2019-05-03T12:37:55Z</time>
      </trkpt>
      <trkpt lat="47.13168" lon="-2.23646">
        <ele>13</ele>
        <time>2019-05-03T12:38:19Z</time>
      </trkpt>
      <trkpt lat="47.13191" lon="-2.23667">
        <ele>14</ele>
        <time>2019-05-03T12:38:31Z</time>
      </trkpt>
      <trkpt lat="47.13282" lon="-2.23664">
        <ele>18</ele>
        <time>2019-05-03T12:39:07Z</time>
      </trkpt>
      <trkpt lat="47.13313" lon="-2.2393">
        <ele>10</ele>
        <time>2019-05-03T12:39:55Z</time>
      </trkpt>
      <trkpt lat="47.13382" lon="-2.23938">
        <ele>12</ele>
        <time>2019-05-03T12:40:13Z</time>
      </trkpt>
      <trkpt lat="47.13357" lon="-2.24034">
        <ele>10</ele>
        <time>2019-05-03T12:40:31Z</time>
      </trkpt>
      <trkpt lat="47.13279" lon="-2.24171">
        <ele>6</ele>
        <time>2019-05-03T12:41:01Z</time>
      </trkpt>
      <trkpt lat="47.13249" lon="-2.24339">
        <ele>6</ele>
        <time>2019-05-03T12:41:31Z</time>
      </trkpt>
      <trkpt lat="47.13249" lon="-2.24365">
        <ele>8</ele>
        <time>2019-05-03T12:41:37Z</time>
      </trkpt>
      <trkpt lat="47.13277" lon="-2.24403">
        <ele>11</ele>
        <time>2019-05-03T12:41:49Z</time>
      </trkpt>
      <trkpt lat="47.13451" lon="-2.24457">
        <ele>8</ele>
        <time>2019-05-03T12:42:37Z</time>
      </trkpt>
      <trkpt lat="47.13516" lon="-2.2452">
        <ele>5</ele>
        <time>2019-05-03T12:43:01Z</time>
      </trkpt>
      <trkpt lat="47.13555" lon="-2.24529">
        <ele>5</ele>
        <time>2019-05-03T12:43:13Z</time>
      </trkpt>
      <trkpt lat="47.13573" lon="-2.2452">
        <ele>4</ele>
        <time>2019-05-03T12:43:25Z</time>
      </trkpt>
      <trkpt lat="47.13577" lon="-2.24462">
        <ele>4</ele>
        <time>2019-05-03T12:43:43Z</time>
      </trkpt>
      <trkpt lat="47.1356" lon="-2.24288">
        <ele>4</ele>
        <time>2019-05-03T12:44:19Z</time>
      </trkpt>
      <trkpt lat="47.13569" lon="-2.2429">
        <ele>4</ele>
        <time>2019-05-03T12:44:31Z</time>
      </trkpt>
      <trkpt lat="47.13572" lon="-2.24313">
        <ele>4</ele>
        <time>2019-05-03T12:44:53Z</time>
      </trkpt>
      <trkpt lat="47.1356" lon="-2.24253">
        <ele>4</ele>
        <time>2019-05-03T12:45:13Z</time>
      </trkpt>
      <trkpt lat="47.13574" lon="-2.2408">
        <ele>8</ele>
        <time>2019-05-03T12:46:01Z</time>
      </trkpt>
      <trkpt lat="47.13566" lon="-2.23998">
        <ele>10</ele>
        <time>2019-05-03T12:46:25Z</time>
      </trkpt>
      <trkpt lat="47.1357" lon="-2.23779">
        <ele>14</ele>
        <time>2019-05-03T12:47:25Z</time>
      </trkpt>
      <trkpt lat="47.1356" lon="-2.23654">
        <ele>16</ele>
        <time>2019-05-03T12:47:55Z</time>
      </trkpt>
      <trkpt lat="47.13576" lon="-2.23473">
        <ele>15</ele>
        <time>2019-05-03T12:48:31Z</time>
      </trkpt>
      <trkpt lat="47.13624" lon="-2.23468">
        <ele>16</ele>
        <time>2019-05-03T12:48:43Z</time>
      </trkpt>
      <trkpt lat="47.13671" lon="-2.2348">
        <ele>16</ele>
        <time>2019-05-03T12:48:55Z</time>
      </trkpt>
      <trkpt lat="47.13947" lon="-2.23607">
        <ele>5</ele>
        <time>2019-05-03T12:49:49Z</time>
      </trkpt>
      <trkpt lat="47.13988" lon="-2.23593">
        <ele>5</ele>
        <time>2019-05-03T12:50:01Z</time>
      </trkpt>
      <trkpt lat="47.14048" lon="-2.23551">
        <ele>4</ele>
        <time>2019-05-03T12:50:19Z</time>
      </trkpt>
      <trkpt lat="47.14134" lon="-2.23388">
        <ele>6</ele>
        <time>2019-05-03T12:50:55Z</time>
      </trkpt>
      <trkpt lat="47.14141" lon="-2.23324">
        <ele>7</ele>
        <time>2019-05-03T12:51:07Z</time>
      </trkpt>
      <trkpt lat="47.14091" lon="-2.23209">
        <ele>9</ele>
        <time>2019-05-03T12:51:31Z</time>
      </trkpt>
      <trkpt lat="47.14029" lon="-2.23116">
        <ele>11</ele>
        <time>2019-05-03T12:51:55Z</time>
      </trkpt>
      <trkpt lat="47.13955" lon="-2.22955">
        <ele>13</ele>
        <time>2019-05-03T12:52:37Z</time>
      </trkpt>
      <trkpt lat="47.13951" lon="-2.2293">
        <ele>14</ele>
        <time>2019-05-03T12:52:43Z</time>
      </trkpt>
      <trkpt lat="47.13965" lon="-2.22843">
        <ele>12</ele>
        <time>2019-05-03T12:53:01Z</time>
      </trkpt>
      <trkpt lat="47.13979" lon="-2.22615">
        <ele>11</ele>
        <time>2019-05-03T12:53:43Z</time>
      </trkpt>
      <trkpt lat="47.14036" lon="-2.22618">
        <ele>10</ele>
        <time>2019-05-03T12:53:55Z</time>
      </trkpt>
      <trkpt lat="47.14157" lon="-2.2265">
        <ele>8</ele>
        <time>2019-05-03T12:54:19Z</time>
      </trkpt>
      <trkpt lat="47.14182" lon="-2.22664">
        <ele>8</ele>
        <time>2019-05-03T12:54:25Z</time>
      </trkpt>
      <trkpt lat="47.14274" lon="-2.22764">
        <ele>6</ele>
        <time>2019-05-03T12:54:49Z</time>
      </trkpt>
      <trkpt lat="47.14326" lon="-2.22803">
        <ele>6</ele>
        <time>2019-05-03T12:55:01Z</time>
      </trkpt>
      <trkpt lat="47.14353" lon="-2.22809">
        <ele>5</ele>
        <time>2019-05-03T12:55:07Z</time>
      </trkpt>
      <trkpt lat="47.1446" lon="-2.22788">
        <ele>5</ele>
        <time>2019-05-03T12:55:37Z</time>
      </trkpt>
      <trkpt lat="47.14486" lon="-2.22841">
        <ele>4</ele>
        <time>2019-05-03T12:55:55Z</time>
      </trkpt>
      <trkpt lat="47.14502" lon="-2.22827">
        <ele>4</ele>
        <time>2019-05-03T12:56:01Z</time>
      </trkpt>
      <trkpt lat="47.14584" lon="-2.22666">
        <ele>7</ele>
        <time>2019-05-03T12:56:37Z</time>
      </trkpt>
      <trkpt lat="47.14615" lon="-2.2262">
        <ele>8</ele>
        <time>2019-05-03T12:56:49Z</time>
      </trkpt>
      <trkpt lat="47.1478" lon="-2.22584">
        <ele>8</ele>
        <time>2019-05-03T12:57:31Z</time>
      </trkpt>
      <trkpt lat="47.14832" lon="-2.22563">
        <ele>7</ele>
        <time>2019-05-03T12:57:43Z</time>
      </trkpt>
      <trkpt lat="47.14926" lon="-2.22422">
        <ele>6</ele>
        <time>2019-05-03T12:58:13Z</time>
      </trkpt>
      <trkpt lat="47.14972" lon="-2.22381">
        <ele>6</ele>
        <time>2019-05-03T12:58:25Z</time>
      </trkpt>
      <trkpt lat="47.15069" lon="-2.22405">
        <ele>5</ele>
        <time>2019-05-03T12:58:49Z</time>
      </trkpt>
      <trkpt lat="47.15088" lon="-2.22436">
        <ele>4</ele>
        <time>2019-05-03T12:58:55Z</time>
      </trkpt>
      <trkpt lat="47.15133" lon="-2.22475">
        <ele>5</ele>
        <time>2019-05-03T12:59:07Z</time>
      </trkpt>
      <trkpt lat="47.15159" lon="-2.22483">
        <ele>5</ele>
        <time>2019-05-03T12:59:13Z</time>
      </trkpt>
      <trkpt lat="47.15212" lon="-2.22473">
        <ele>4</ele>
        <time>2019-05-03T12:59:25Z</time>
      </trkpt>
      <trkpt lat="47.15321" lon="-2.22274">
        <ele>2</ele>
        <time>2019-05-03T13:00:01Z</time>
      </trkpt>
      <trkpt lat="47.15335" lon="-2.22195">
        <ele>1</ele>
        <time>2019-05-03T13:00:13Z</time>
      </trkpt>
      <trkpt lat="47.15336" lon="-2.22115">
        <ele>1</ele>
        <time>2019-05-03T13:00:25Z</time>
      </trkpt>
      <trkpt lat="47.15294" lon="-2.21849">
        <ele>3</ele>
        <time>2019-05-03T13:01:01Z</time>
      </trkpt>
      <trkpt lat="47.15258" lon="-2.21759">
        <ele>6</ele>
        <time>2019-05-03T13:01:13Z</time>
      </trkpt>
      <trkpt lat="47.15249" lon="-2.21671">
        <ele>5</ele>
        <time>2019-05-03T13:01:25Z</time>
      </trkpt>
      <trkpt lat="47.15467" lon="-2.21396">
        <ele>6</ele>
        <time>2019-05-03T13:02:31Z</time>
      </trkpt>
      <trkpt lat="47.15501" lon="-2.21322">
        <ele>4</ele>
        <time>2019-05-03T13:02:43Z</time>
      </trkpt>
      <trkpt lat="47.15515" lon="-2.21179">
        <ele>5</ele>
        <time>2019-05-03T13:03:01Z</time>
      </trkpt>
      <trkpt lat="47.15614" lon="-2.20722">
        <ele>4</ele>
        <time>2019-05-03T13:04:01Z</time>
      </trkpt>
      <trkpt lat="47.15665" lon="-2.20392">
        <ele>4</ele>
        <time>2019-05-03T13:04:49Z</time>
      </trkpt>
      <trkpt lat="47.15713" lon="-2.20223">
        <ele>6</ele>
        <time>2019-05-03T13:05:19Z</time>
      </trkpt>
      <trkpt lat="47.15721" lon="-2.20217">
        <ele>6</ele>
        <time>2019-05-03T13:05:30Z</time>
      </trkpt>
      <trkpt lat="47.15773" lon="-2.19875">
        <ele>8</ele>
        <time>2019-05-03T13:06:31Z</time>
      </trkpt>
      <trkpt lat="47.15788" lon="-2.19812">
        <ele>9</ele>
        <time>2019-05-03T13:06:43Z</time>
      </trkpt>
      <trkpt lat="47.1579" lon="-2.19646">
        <ele>10</ele>
        <time>2019-05-03T13:07:13Z</time>
      </trkpt>
      <trkpt lat="47.15762" lon="-2.19478">
        <ele>7</ele>
        <time>2019-05-03T13:07:37Z</time>
      </trkpt>
      <trkpt lat="47.15691" lon="-2.19441">
        <ele>8</ele>
        <time>2019-05-03T13:07:49Z</time>
      </trkpt>
      <trkpt lat="47.15596" lon="-2.19433">
        <ele>9</ele>
        <time>2019-05-03T13:08:13Z</time>
      </trkpt>
      <trkpt lat="47.15468" lon="-2.19375">
        <ele>9</ele>
        <time>2019-05-03T13:08:49Z</time>
      </trkpt>
      <trkpt lat="47.15492" lon="-2.19206">
        <ele>13</ele>
        <time>2019-05-03T13:09:45Z</time>
      </trkpt>
      <trkpt lat="47.15485" lon="-2.19085">
        <ele>14</ele>
        <time>2019-05-03T13:10:21Z</time>
      </trkpt>
      <trkpt lat="47.15396" lon="-2.18833">
        <ele>14</ele>
        <time>2019-05-03T13:11:45Z</time>
      </trkpt>
      <trkpt lat="47.1529" lon="-2.18231">
        <ele>13</ele>
        <time>2019-05-03T13:13:03Z</time>
      </trkpt>
      <trkpt lat="47.15195" lon="-2.17911">
        <ele>13</ele>
        <time>2019-05-03T13:13:51Z</time>
      </trkpt>
      <trkpt lat="47.15245" lon="-2.17864">
        <ele>12</ele>
        <time>2019-05-03T13:14:03Z</time>
      </trkpt>
      <trkpt lat="47.15296" lon="-2.178">
        <ele>11</ele>
        <time>2019-05-03T13:14:14Z</time>
      </trkpt>
      <trkpt lat="47.15316" lon="-2.17756">
        <ele>11</ele>
        <time>2019-05-03T13:14:21Z</time>
      </trkpt>
      <trkpt lat="47.15382" lon="-2.17544">
        <ele>8</ele>
        <time>2019-05-03T13:14:45Z</time>
      </trkpt>
      <trkpt lat="47.15504" lon="-2.17254">
        <ele>5</ele>
        <time>2019-05-03T13:15:21Z</time>
      </trkpt>
      <trkpt lat="47.15516" lon="-2.17204">
        <ele>5</ele>
        <time>2019-05-03T13:15:27Z</time>
      </trkpt>
      <trkpt lat="47.15524" lon="-2.17106">
        <ele>6</ele>
        <time>2019-05-03T13:15:39Z</time>
      </trkpt>
      <trkpt lat="47.15523" lon="-2.17056">
        <ele>6</ele>
        <time>2019-05-03T13:15:45Z</time>
      </trkpt>
      <trkpt lat="47.15501" lon="-2.1693">
        <ele>8</ele>
        <time>2019-05-03T13:16:03Z</time>
      </trkpt>
      <trkpt lat="47.15503" lon="-2.16748">
        <ele>11</ele>
        <time>2019-05-03T13:16:40Z</time>
      </trkpt>
      <trkpt lat="47.15531" lon="-2.16597">
        <ele>12</ele>
        <time>2019-05-03T13:17:16Z</time>
      </trkpt>
      <trkpt lat="47.1557" lon="-2.16526">
        <ele>12</ele>
        <time>2019-05-03T13:17:34Z</time>
      </trkpt>
      <trkpt lat="47.15682" lon="-2.16403">
        <ele>9</ele>
        <time>2019-05-03T13:18:04Z</time>
      </trkpt>
      <trkpt lat="47.1582" lon="-2.15947">
        <ele>7</ele>
        <time>2019-05-03T13:18:59Z</time>
      </trkpt>
      <trkpt lat="47.16282" lon="-2.15515">
        <ele>21</ele>
        <time>2019-05-03T13:22:04Z</time>
      </trkpt>
      <trkpt lat="47.16775" lon="-2.1492">
        <ele>5</ele>
        <time>2019-05-03T13:23:53Z</time>
      </trkpt>
      <trkpt lat="47.16962" lon="-2.14851">
        <ele>8</ele>
        <time>2019-05-03T13:24:28Z</time>
      </trkpt>
      <trkpt lat="47.17274" lon="-2.14773">
        <ele>16</ele>
        <time>2019-05-03T13:26:37Z</time>
      </trkpt>
      <trkpt lat="47.17381" lon="-2.14703">
        <ele>20</ele>
        <time>2019-05-03T13:28:25Z</time>
      </trkpt>
      <trkpt lat="47.17411" lon="-2.14712">
        <ele>21</ele>
        <time>2019-05-03T13:28:50Z</time>
      </trkpt>
      <trkpt lat="47.17421" lon="-2.14687">
        <ele>21</ele>
        <time>2019-05-03T13:29:08Z</time>
      </trkpt>
      <trkpt lat="47.17495" lon="-2.14627">
        <ele>22</ele>
        <time>2019-05-03T13:29:44Z</time>
      </trkpt>
      <trkpt lat="47.17521" lon="-2.14669">
        <ele>22</ele>
        <time>2019-05-03T13:29:56Z</time>
      </trkpt>
      <trkpt lat="47.17549" lon="-2.14694">
        <ele>20</ele>
        <time>2019-05-03T13:30:08Z</time>
      </trkpt>
      <trkpt lat="47.17572" lon="-2.14759">
        <ele>17</ele>
        <time>2019-05-03T13:30:27Z</time>
      </trkpt>
      <trkpt lat="47.17575" lon="-2.1473">
        <ele>18</ele>
        <time>2019-05-03T13:30:48Z</time>
      </trkpt>
      <trkpt lat="47.17536" lon="-2.14695">
        <ele>20</ele>
        <time>2019-05-03T13:30:59Z</time>
      </trkpt>
      <trkpt lat="47.17495" lon="-2.14628">
        <ele>22</ele>
        <time>2019-05-03T13:31:37Z</time>
      </trkpt>
      <trkpt lat="47.17441" lon="-2.14668">
        <ele>22</ele>
        <time>2019-05-03T13:32:02Z</time>
      </trkpt>
      <trkpt lat="47.17415" lon="-2.14706">
        <ele>21</ele>
        <time>2019-05-03T13:32:20Z</time>
      </trkpt>
      <trkpt lat="47.17396" lon="-2.14694">
        <ele>21</ele>
        <time>2019-05-03T13:32:32Z</time>
      </trkpt>
      <trkpt lat="47.17402" lon="-2.14597">
        <ele>23</ele>
        <time>2019-05-03T13:33:03Z</time>
      </trkpt>
      <trkpt lat="47.17408" lon="-2.14601">
        <ele>23</ele>
        <time>2019-05-03T13:33:09Z</time>
      </trkpt>
      <trkpt lat="47.17404" lon="-2.14672">
        <ele>21</ele>
        <time>2019-05-03T13:33:33Z</time>
      </trkpt>
      <trkpt lat="47.17415" lon="-2.14676">
        <ele>21</ele>
        <time>2019-05-03T13:33:47Z</time>
      </trkpt>
      <trkpt lat="47.17555" lon="-2.14568">
        <ele>22</ele>
        <time>2019-05-03T13:34:45Z</time>
      </trkpt>
      <trkpt lat="47.17773" lon="-2.1467">
        <ele>14</ele>
        <time>2019-05-03T13:35:34Z</time>
      </trkpt>
      <trkpt lat="47.17776" lon="-2.14693">
        <ele>13</ele>
        <time>2019-05-03T13:35:45Z</time>
      </trkpt>
      <trkpt lat="47.17796" lon="-2.14685">
        <ele>13</ele>
        <time>2019-05-03T13:35:57Z</time>
      </trkpt>
      <trkpt lat="47.17866" lon="-2.14718">
        <ele>13</ele>
        <time>2019-05-03T13:36:21Z</time>
      </trkpt>
      <trkpt lat="47.17964" lon="-2.14834">
        <ele>19</ele>
        <time>2019-05-03T13:37:21Z</time>
      </trkpt>
      <trkpt lat="47.17995" lon="-2.14854">
        <ele>23</ele>
        <time>2019-05-03T13:37:39Z</time>
      </trkpt>
      <trkpt lat="47.1795" lon="-2.14927">
        <ele>21</ele>
        <time>2019-05-03T13:38:13Z</time>
      </trkpt>
      <trkpt lat="47.17891" lon="-2.14973">
        <ele>19</ele>
        <time>2019-05-03T13:38:31Z</time>
      </trkpt>
      <trkpt lat="47.17868" lon="-2.15022">
        <ele>19</ele>
        <time>2019-05-03T13:38:43Z</time>
      </trkpt>
      <trkpt lat="47.1788" lon="-2.15138">
        <ele>22</ele>
        <time>2019-05-03T13:39:07Z</time>
      </trkpt>
      <trkpt lat="47.17936" lon="-2.15303">
        <ele>23</ele>
        <time>2019-05-03T13:39:43Z</time>
      </trkpt>
      <trkpt lat="47.17938" lon="-2.15394">
        <ele>23</ele>
        <time>2019-05-03T13:40:07Z</time>
      </trkpt>
      <trkpt lat="47.17758" lon="-2.1554">
        <ele>23</ele>
        <time>2019-05-03T13:40:55Z</time>
      </trkpt>
      <trkpt lat="47.17688" lon="-2.15681">
        <ele>25</ele>
        <time>2019-05-03T13:41:25Z</time>
      </trkpt>
      <trkpt lat="47.17615" lon="-2.15802">
        <ele>24</ele>
        <time>2019-05-03T13:41:55Z</time>
      </trkpt>
      <trkpt lat="47.17623" lon="-2.15842">
        <ele>26</ele>
        <time>2019-05-03T13:42:07Z</time>
      </trkpt>
      <trkpt lat="47.17612" lon="-2.15999">
        <ele>27</ele>
        <time>2019-05-03T13:42:37Z</time>
      </trkpt>
      <trkpt lat="47.17615" lon="-2.16178">
        <ele>18</ele>
        <time>2019-05-03T13:43:01Z</time>
      </trkpt>
      <trkpt lat="47.17605" lon="-2.16366">
        <ele>9</ele>
        <time>2019-05-03T13:43:31Z</time>
      </trkpt>
      <trkpt lat="47.17618" lon="-2.16376">
        <ele>9</ele>
        <time>2019-05-03T13:43:37Z</time>
      </trkpt>
      <trkpt lat="47.17716" lon="-2.16363">
        <ele>10</ele>
        <time>2019-05-03T13:44:15Z</time>
      </trkpt>
      <trkpt lat="47.1781" lon="-2.16338">
        <ele>11</ele>
        <time>2019-05-03T13:44:39Z</time>
      </trkpt>
      <trkpt lat="47.17979" lon="-2.16316">
        <ele>6</ele>
        <time>2019-05-03T13:45:22Z</time>
      </trkpt>
      <trkpt lat="47.18047" lon="-2.16265">
        <ele>6</ele>
        <time>2019-05-03T13:45:39Z</time>
      </trkpt>
      <trkpt lat="47.18059" lon="-2.16244">
        <ele>7</ele>
        <time>2019-05-03T13:45:46Z</time>
      </trkpt>
      <trkpt lat="47.18055" lon="-2.16196">
        <ele>9</ele>
        <time>2019-05-03T13:46:03Z</time>
      </trkpt>
      <trkpt lat="47.18066" lon="-2.16246">
        <ele>7</ele>
        <time>2019-05-03T13:46:16Z</time>
      </trkpt>
      <trkpt lat="47.18193" lon="-2.1618">
        <ele>8</ele>
        <time>2019-05-03T13:46:45Z</time>
      </trkpt>
      <trkpt lat="47.18176" lon="-2.16163">
        <ele>8</ele>
        <time>2019-05-03T13:47:08Z</time>
      </trkpt>
      <trkpt lat="47.1815" lon="-2.16109">
        <ele>10</ele>
        <time>2019-05-03T13:47:53Z</time>
      </trkpt>
      <trkpt lat="47.18156" lon="-2.16046">
        <ele>12</ele>
        <time>2019-05-03T13:48:29Z</time>
      </trkpt>
      <trkpt lat="47.18149" lon="-2.16027">
        <ele>13</ele>
        <time>2019-05-03T13:48:53Z</time>
      </trkpt>
      <trkpt lat="47.18152" lon="-2.16022">
        <ele>13</ele>
        <time>2019-05-03T13:49:17Z</time>
      </trkpt>
      <trkpt lat="47.18154" lon="-2.16011">
        <ele>14</ele>
        <time>2019-05-04T05:58:02Z</time>
      </trkpt>
      <trkpt lat="47.18159" lon="-2.16025">
        <ele>10</ele>
        <time>2019-05-04T05:58:16Z</time>
      </trkpt>
      <trkpt lat="47.18151" lon="-2.1602">
        <ele>10</ele>
        <time>2019-05-04T05:58:22Z</time>
      </trkpt>
      <trkpt lat="47.18158" lon="-2.16028">
        <ele>10</ele>
        <time>2019-05-04T05:58:26Z</time>
      </trkpt>
      <trkpt lat="47.18153" lon="-2.16086">
        <ele>10</ele>
        <time>2019-05-04T05:58:50Z</time>
      </trkpt>
      <trkpt lat="47.18178" lon="-2.16157">
        <ele>5</ele>
        <time>2019-05-04T05:59:20Z</time>
      </trkpt>
      <trkpt lat="47.18206" lon="-2.16169">
        <ele>5</ele>
        <time>2019-05-04T05:59:38Z</time>
      </trkpt>
      <trkpt lat="47.18217" lon="-2.16189">
        <ele>5</ele>
        <time>2019-05-04T05:59:50Z</time>
      </trkpt>
      <trkpt lat="47.18235" lon="-2.16201">
        <ele>6</ele>
        <time>2019-05-04T06:00:02Z</time>
      </trkpt>
      <trkpt lat="47.18274" lon="-2.16217">
        <ele>6</ele>
        <time>2019-05-04T06:00:26Z</time>
      </trkpt>
      <trkpt lat="47.18347" lon="-2.16177">
        <ele>1</ele>
        <time>2019-05-04T06:01:08Z</time>
      </trkpt>
      <trkpt lat="47.18447" lon="-2.16137">
        <ele>15</ele>
        <time>2019-05-04T06:02:08Z</time>
      </trkpt>
      <trkpt lat="47.18627" lon="-2.16">
        <ele>22</ele>
        <time>2019-05-04T06:03:56Z</time>
      </trkpt>
      <trkpt lat="47.1878" lon="-2.15944">
        <ele>20</ele>
        <time>2019-05-04T06:04:50Z</time>
      </trkpt>
      <trkpt lat="47.18935" lon="-2.15706">
        <ele>26</ele>
        <time>2019-05-04T06:06:08Z</time>
      </trkpt>
      <trkpt lat="47.19034" lon="-2.156">
        <ele>30</ele>
        <time>2019-05-04T06:07:02Z</time>
      </trkpt>
      <trkpt lat="47.18985" lon="-2.1564">
        <ele>25</ele>
        <time>2019-05-04T06:07:26Z</time>
      </trkpt>
      <trkpt lat="47.19029" lon="-2.15595">
        <ele>30</ele>
        <time>2019-05-04T06:08:04Z</time>
      </trkpt>
      <trkpt lat="47.19018" lon="-2.15572">
        <ele>30</ele>
        <time>2019-05-04T06:08:18Z</time>
      </trkpt>
      <trkpt lat="47.18959" lon="-2.1533">
        <ele>32</ele>
        <time>2019-05-04T06:09:12Z</time>
      </trkpt>
      <trkpt lat="47.18925" lon="-2.15232">
        <ele>32</ele>
        <time>2019-05-04T06:09:30Z</time>
      </trkpt>
      <trkpt lat="47.18918" lon="-2.15155">
        <ele>31</ele>
        <time>2019-05-04T06:09:42Z</time>
      </trkpt>
      <trkpt lat="47.18882" lon="-2.14962">
        <ele>29</ele>
        <time>2019-05-04T06:10:12Z</time>
      </trkpt>
      <trkpt lat="47.18989" lon="-2.14878">
        <ele>30</ele>
        <time>2019-05-04T06:10:48Z</time>
      </trkpt>
      <trkpt lat="47.1914" lon="-2.14791">
        <ele>26</ele>
        <time>2019-05-04T06:11:18Z</time>
      </trkpt>
      <trkpt lat="47.19276" lon="-2.14749">
        <ele>30</ele>
        <time>2019-05-04T06:11:54Z</time>
      </trkpt>
      <trkpt lat="47.19324" lon="-2.14744">
        <ele>30</ele>
        <time>2019-05-04T06:12:12Z</time>
      </trkpt>
      <trkpt lat="47.19338" lon="-2.149">
        <ele>28</ele>
        <time>2019-05-04T06:12:42Z</time>
      </trkpt>
      <trkpt lat="47.1941" lon="-2.15007">
        <ele>25</ele>
        <time>2019-05-04T06:13:06Z</time>
      </trkpt>
      <trkpt lat="47.19514" lon="-2.15077">
        <ele>19</ele>
        <time>2019-05-04T06:13:24Z</time>
      </trkpt>
      <trkpt lat="47.19557" lon="-2.1507">
        <ele>18</ele>
        <time>2019-05-04T06:13:30Z</time>
      </trkpt>
      <trkpt lat="47.19677" lon="-2.14997">
        <ele>19</ele>
        <time>2019-05-04T06:14:00Z</time>
      </trkpt>
      <trkpt lat="47.19699" lon="-2.15042">
        <ele>19</ele>
        <time>2019-05-04T06:14:12Z</time>
      </trkpt>
      <trkpt lat="47.1973" lon="-2.15271">
        <ele>26</ele>
        <time>2019-05-04T06:14:54Z</time>
      </trkpt>
      <trkpt lat="47.19823" lon="-2.15277">
        <ele>28</ele>
        <time>2019-05-04T06:15:24Z</time>
      </trkpt>
      <trkpt lat="47.19869" lon="-2.15264">
        <ele>28</ele>
        <time>2019-05-04T06:15:36Z</time>
      </trkpt>
      <trkpt lat="47.19903" lon="-2.1527">
        <ele>28</ele>
        <time>2019-05-04T06:15:42Z</time>
      </trkpt>
      <trkpt lat="47.1997" lon="-2.15306">
        <ele>26</ele>
        <time>2019-05-04T06:15:54Z</time>
      </trkpt>
      <trkpt lat="47.20101" lon="-2.15281">
        <ele>21</ele>
        <time>2019-05-04T06:16:24Z</time>
      </trkpt>
      <trkpt lat="47.20274" lon="-2.1527">
        <ele>22</ele>
        <time>2019-05-04T06:16:46Z</time>
      </trkpt>
      <trkpt lat="47.20314" lon="-2.15289">
        <ele>20</ele>
        <time>2019-05-04T06:16:52Z</time>
      </trkpt>
      <trkpt lat="47.20383" lon="-2.15424">
        <ele>17</ele>
        <time>2019-05-04T06:17:10Z</time>
      </trkpt>
      <trkpt lat="47.20448" lon="-2.15499">
        <ele>13</ele>
        <time>2019-05-04T06:17:28Z</time>
      </trkpt>
      <trkpt lat="47.20486" lon="-2.15467">
        <ele>17</ele>
        <time>2019-05-04T06:17:40Z</time>
      </trkpt>
      <trkpt lat="47.20507" lon="-2.15324">
        <ele>16</ele>
        <time>2019-05-04T06:18:10Z</time>
      </trkpt>
      <trkpt lat="47.20542" lon="-2.15259">
        <ele>16</ele>
        <time>2019-05-04T06:18:22Z</time>
      </trkpt>
      <trkpt lat="47.20568" lon="-2.15256">
        <ele>15</ele>
        <time>2019-05-04T06:18:28Z</time>
      </trkpt>
      <trkpt lat="47.20749" lon="-2.1529">
        <ele>9</ele>
        <time>2019-05-04T06:19:04Z</time>
      </trkpt>
      <trkpt lat="47.20871" lon="-2.15333">
        <ele>8</ele>
        <time>2019-05-04T06:19:28Z</time>
      </trkpt>
      <trkpt lat="47.20922" lon="-2.15378">
        <ele>8</ele>
        <time>2019-05-04T06:19:40Z</time>
      </trkpt>
      <trkpt lat="47.21154" lon="-2.15748">
        <ele>5</ele>
        <time>2019-05-04T06:20:46Z</time>
      </trkpt>
      <trkpt lat="47.2125" lon="-2.15877">
        <ele>5</ele>
        <time>2019-05-04T06:21:10Z</time>
      </trkpt>
      <trkpt lat="47.21536" lon="-2.16048">
        <ele>8</ele>
        <time>2019-05-04T06:22:28Z</time>
      </trkpt>
      <trkpt lat="47.2163" lon="-2.16116">
        <ele>11</ele>
        <time>2019-05-04T06:22:58Z</time>
      </trkpt>
      <trkpt lat="47.2185" lon="-2.16233">
        <ele>13</ele>
        <time>2019-05-04T06:24:04Z</time>
      </trkpt>
      <trkpt lat="47.21965" lon="-2.1644">
        <ele>13</ele>
        <time>2019-05-04T06:24:58Z</time>
      </trkpt>
      <trkpt lat="47.22497" lon="-2.17051">
        <ele>10</ele>
        <time>2019-05-04T06:28:04Z</time>
      </trkpt>
      <trkpt lat="47.22671" lon="-2.17273">
        <ele>9</ele>
        <time>2019-05-04T06:29:04Z</time>
      </trkpt>
      <trkpt lat="47.2284" lon="-2.17501">
        <ele>11</ele>
        <time>2019-05-04T06:30:10Z</time>
      </trkpt>
      <trkpt lat="47.22841" lon="-2.17523">
        <ele>11</ele>
        <time>2019-05-04T06:30:22Z</time>
      </trkpt>
      <trkpt lat="47.22859" lon="-2.1755">
        <ele>7</ele>
        <time>2019-05-04T06:30:42Z</time>
      </trkpt>
      <trkpt lat="47.22865" lon="-2.17587">
        <ele>7</ele>
        <time>2019-05-04T06:31:18Z</time>
      </trkpt>
      <trkpt lat="47.22887" lon="-2.176">
        <ele>7</ele>
        <time>2019-05-04T06:31:30Z</time>
      </trkpt>
      <trkpt lat="47.22947" lon="-2.1767">
        <ele>6</ele>
        <time>2019-05-04T06:31:54Z</time>
      </trkpt>
      <trkpt lat="47.22984" lon="-2.17698">
        <ele>8</ele>
        <time>2019-05-04T06:32:06Z</time>
      </trkpt>
      <trkpt lat="47.23128" lon="-2.17864">
        <ele>5</ele>
        <time>2019-05-04T06:32:54Z</time>
      </trkpt>
      <trkpt lat="47.23188" lon="-2.17897">
        <ele>7</ele>
        <time>2019-05-04T06:33:12Z</time>
      </trkpt>
      <trkpt lat="47.2327" lon="-2.17878">
        <ele>9</ele>
        <time>2019-05-04T06:33:30Z</time>
      </trkpt>
      <trkpt lat="47.23318" lon="-2.17818">
        <ele>9</ele>
        <time>2019-05-04T06:33:42Z</time>
      </trkpt>
      <trkpt lat="47.23333" lon="-2.17742">
        <ele>12</ele>
        <time>2019-05-04T06:33:54Z</time>
      </trkpt>
      <trkpt lat="47.23345" lon="-2.17519">
        <ele>10</ele>
        <time>2019-05-04T06:34:36Z</time>
      </trkpt>
      <trkpt lat="47.23389" lon="-2.17533">
        <ele>12</ele>
        <time>2019-05-04T06:34:48Z</time>
      </trkpt>
      <trkpt lat="47.23483" lon="-2.1754">
        <ele>12</ele>
        <time>2019-05-04T06:35:12Z</time>
      </trkpt>
      <trkpt lat="47.23536" lon="-2.17516">
        <ele>9</ele>
        <time>2019-05-04T06:35:24Z</time>
      </trkpt>
      <trkpt lat="47.23559" lon="-2.17481">
        <ele>8</ele>
        <time>2019-05-04T06:35:30Z</time>
      </trkpt>
      <trkpt lat="47.2359" lon="-2.17406">
        <ele>8</ele>
        <time>2019-05-04T06:35:42Z</time>
      </trkpt>
      <trkpt lat="47.23648" lon="-2.17208">
        <ele>9</ele>
        <time>2019-05-04T06:36:18Z</time>
      </trkpt>
      <trkpt lat="47.23736" lon="-2.17111">
        <ele>8</ele>
        <time>2019-05-04T06:36:48Z</time>
      </trkpt>
      <trkpt lat="47.23825" lon="-2.16992">
        <ele>8</ele>
        <time>2019-05-04T06:37:12Z</time>
      </trkpt>
      <trkpt lat="47.23848" lon="-2.16955">
        <ele>6</ele>
        <time>2019-05-04T06:37:18Z</time>
      </trkpt>
      <trkpt lat="47.23863" lon="-2.16889">
        <ele>6</ele>
        <time>2019-05-04T06:37:30Z</time>
      </trkpt>
      <trkpt lat="47.24057" lon="-2.1667">
        <ele>8</ele>
        <time>2019-05-04T06:38:30Z</time>
      </trkpt>
      <trkpt lat="47.2432" lon="-2.16347">
        <ele>7</ele>
        <time>2019-05-04T06:39:48Z</time>
      </trkpt>
      <trkpt lat="47.24359" lon="-2.16309">
        <ele>7</ele>
        <time>2019-05-04T06:40:00Z</time>
      </trkpt>
      <trkpt lat="47.24381" lon="-2.16258">
        <ele>6</ele>
        <time>2019-05-04T06:40:12Z</time>
      </trkpt>
      <trkpt lat="47.24422" lon="-2.16247">
        <ele>8</ele>
        <time>2019-05-04T06:40:30Z</time>
      </trkpt>
      <trkpt lat="47.24462" lon="-2.16215">
        <ele>8</ele>
        <time>2019-05-04T06:40:48Z</time>
      </trkpt>
      <trkpt lat="47.24497" lon="-2.16205">
        <ele>10</ele>
        <time>2019-05-04T06:41:00Z</time>
      </trkpt>
      <trkpt lat="47.24512" lon="-2.16218">
        <ele>10</ele>
        <time>2019-05-04T06:41:06Z</time>
      </trkpt>
      <trkpt lat="47.24519" lon="-2.16259">
        <ele>10</ele>
        <time>2019-05-04T06:41:18Z</time>
      </trkpt>
      <trkpt lat="47.24582" lon="-2.16273">
        <ele>12</ele>
        <time>2019-05-04T06:41:47Z</time>
      </trkpt>
      <trkpt lat="47.24748" lon="-2.16261">
        <ele>10</ele>
        <time>2019-05-04T06:42:36Z</time>
      </trkpt>
      <trkpt lat="47.24906" lon="-2.16281">
        <ele>9</ele>
        <time>2019-05-04T06:43:18Z</time>
      </trkpt>
      <trkpt lat="47.24938" lon="-2.16275">
        <ele>9</ele>
        <time>2019-05-04T06:43:30Z</time>
      </trkpt>
      <trkpt lat="47.24984" lon="-2.16223">
        <ele>8</ele>
        <time>2019-05-04T06:43:48Z</time>
      </trkpt>
      <trkpt lat="47.25108" lon="-2.16184">
        <ele>9</ele>
        <time>2019-05-04T06:44:18Z</time>
      </trkpt>
      <trkpt lat="47.2528" lon="-2.16157">
        <ele>9</ele>
        <time>2019-05-04T06:45:00Z</time>
      </trkpt>
      <trkpt lat="47.25316" lon="-2.16186">
        <ele>9</ele>
        <time>2019-05-04T06:45:12Z</time>
      </trkpt>
      <trkpt lat="47.2555" lon="-2.16062">
        <ele>8</ele>
        <time>2019-05-04T06:46:12Z</time>
      </trkpt>
      <trkpt lat="47.25702" lon="-2.1602">
        <ele>9</ele>
        <time>2019-05-04T06:46:48Z</time>
      </trkpt>
      <trkpt lat="47.25804" lon="-2.16014">
        <ele>10</ele>
        <time>2019-05-04T06:47:12Z</time>
      </trkpt>
      <trkpt lat="47.25888" lon="-2.16027">
        <ele>10</ele>
        <time>2019-05-04T06:47:30Z</time>
      </trkpt>
      <trkpt lat="47.2599" lon="-2.16066">
        <ele>8</ele>
        <time>2019-05-04T06:47:54Z</time>
      </trkpt>
      <trkpt lat="47.26021" lon="-2.16053">
        <ele>8</ele>
        <time>2019-05-04T06:48:12Z</time>
      </trkpt>
      <trkpt lat="47.26273" lon="-2.16375">
        <ele>7</ele>
        <time>2019-05-04T06:49:36Z</time>
      </trkpt>
      <trkpt lat="47.26367" lon="-2.16435">
        <ele>6</ele>
        <time>2019-05-04T06:50:00Z</time>
      </trkpt>
      <trkpt lat="47.26445" lon="-2.16461">
        <ele>5</ele>
        <time>2019-05-04T06:50:18Z</time>
      </trkpt>
      <trkpt lat="47.26482" lon="-2.16511">
        <ele>5</ele>
        <time>2019-05-04T06:50:30Z</time>
      </trkpt>
      <trkpt lat="47.26539" lon="-2.16559">
        <ele>5</ele>
        <time>2019-05-04T06:50:48Z</time>
      </trkpt>
      <trkpt lat="47.26752" lon="-2.16706">
        <ele>7</ele>
        <time>2019-05-04T06:51:48Z</time>
      </trkpt>
      <trkpt lat="47.26811" lon="-2.16729">
        <ele>3</ele>
        <time>2019-05-04T06:52:12Z</time>
      </trkpt>
      <trkpt lat="47.26819" lon="-2.16706">
        <ele>3</ele>
        <time>2019-05-04T06:52:28Z</time>
      </trkpt>
      <trkpt lat="47.26819" lon="-2.16613">
        <ele>1</ele>
        <time>2019-05-04T06:52:58Z</time>
      </trkpt>
      <trkpt lat="47.26827" lon="-2.166">
        <ele>1</ele>
        <time>2019-05-04T06:53:10Z</time>
      </trkpt>
      <trkpt lat="47.26815" lon="-2.16571">
        <ele>1</ele>
        <time>2019-05-04T06:53:24Z</time>
      </trkpt>
      <trkpt lat="47.26801" lon="-2.16469">
        <ele>4</ele>
        <time>2019-05-04T06:53:42Z</time>
      </trkpt>
      <trkpt lat="47.26791" lon="-2.1626">
        <ele>4</ele>
        <time>2019-05-04T06:54:18Z</time>
      </trkpt>
      <trkpt lat="47.26714" lon="-2.1626">
        <ele>4</ele>
        <time>2019-05-04T06:54:48Z</time>
      </trkpt>
      <trkpt lat="47.2671" lon="-2.16211">
        <ele>5</ele>
        <time>2019-05-04T06:55:00Z</time>
      </trkpt>
      <trkpt lat="47.26715" lon="-2.16157">
        <ele>4</ele>
        <time>2019-05-04T06:55:12Z</time>
      </trkpt>
      <trkpt lat="47.26735" lon="-2.161">
        <ele>5</ele>
        <time>2019-05-04T06:55:24Z</time>
      </trkpt>
      <trkpt lat="47.26862" lon="-2.16125">
        <ele>4</ele>
        <time>2019-05-04T06:56:06Z</time>
      </trkpt>
      <trkpt lat="47.26908" lon="-2.16003">
        <ele>1</ele>
        <time>2019-05-04T06:56:36Z</time>
      </trkpt>
      <trkpt lat="47.26922" lon="-2.15883">
        <ele>1</ele>
        <time>2019-05-04T06:57:20Z</time>
      </trkpt>
      <trkpt lat="47.26939" lon="-2.15842">
        <ele>2</ele>
        <time>2019-05-04T06:57:47Z</time>
      </trkpt>
      <trkpt lat="47.26967" lon="-2.15438">
        <ele>1</ele>
        <time>2019-05-04T06:58:47Z</time>
      </trkpt>
      <trkpt lat="47.26965" lon="-2.15359">
        <ele>1</ele>
        <time>2019-05-04T06:59:00Z</time>
      </trkpt>
      <trkpt lat="47.2698" lon="-2.15223">
        <ele>2</ele>
        <time>2019-05-04T06:59:31Z</time>
      </trkpt>
      <trkpt lat="47.26965" lon="-2.15167">
        <ele>2</ele>
        <time>2019-05-04T06:59:43Z</time>
      </trkpt>
      <trkpt lat="47.2695" lon="-2.15052">
        <ele>1</ele>
        <time>2019-05-04T07:00:02Z</time>
      </trkpt>
      <trkpt lat="47.26928" lon="-2.1502">
        <ele>1</ele>
        <time>2019-05-04T07:00:07Z</time>
      </trkpt>
      <trkpt lat="47.26895" lon="-2.15018">
        <ele>3</ele>
        <time>2019-05-04T07:00:13Z</time>
      </trkpt>
      <trkpt lat="47.26873" lon="-2.15">
        <ele>3</ele>
        <time>2019-05-04T07:00:25Z</time>
      </trkpt>
      <trkpt lat="47.26911" lon="-2.14989">
        <ele>1</ele>
        <time>2019-05-04T07:00:43Z</time>
      </trkpt>
      <trkpt lat="47.26926" lon="-2.14962">
        <ele>1</ele>
        <time>2019-05-04T07:00:55Z</time>
      </trkpt>
      <trkpt lat="47.2694" lon="-2.14755">
        <ele>3</ele>
        <time>2019-05-04T07:01:49Z</time>
      </trkpt>
      <trkpt lat="47.26964" lon="-2.14675">
        <ele>3</ele>
        <time>2019-05-04T07:02:07Z</time>
      </trkpt>
      <trkpt lat="47.26963" lon="-2.14654">
        <ele>3</ele>
        <time>2019-05-04T07:02:13Z</time>
      </trkpt>
      <trkpt lat="47.26988" lon="-2.14572">
        <ele>4</ele>
        <time>2019-05-04T07:02:31Z</time>
      </trkpt>
      <trkpt lat="47.27007" lon="-2.1447">
        <ele>3</ele>
        <time>2019-05-04T07:02:55Z</time>
      </trkpt>
      <trkpt lat="47.27043" lon="-2.14371">
        <ele>3</ele>
        <time>2019-05-04T07:03:19Z</time>
      </trkpt>
      <trkpt lat="47.2705" lon="-2.14313">
        <ele>4</ele>
        <time>2019-05-04T07:03:31Z</time>
      </trkpt>
      <trkpt lat="47.27036" lon="-2.14216">
        <ele>1</ele>
        <time>2019-05-04T07:04:11Z</time>
      </trkpt>
      <trkpt lat="47.27044" lon="-2.14185">
        <ele>1</ele>
        <time>2019-05-04T07:04:25Z</time>
      </trkpt>
      <trkpt lat="47.27039" lon="-2.14143">
        <ele>1</ele>
        <time>2019-05-04T07:04:37Z</time>
      </trkpt>
      <trkpt lat="47.27058" lon="-2.14051">
        <ele>3</ele>
        <time>2019-05-04T07:04:55Z</time>
      </trkpt>
      <trkpt lat="47.27193" lon="-2.13713">
        <ele>2</ele>
        <time>2019-05-04T07:06:01Z</time>
      </trkpt>
      <trkpt lat="47.27271" lon="-2.13575">
        <ele>1</ele>
        <time>2019-05-04T07:06:31Z</time>
      </trkpt>
      <trkpt lat="47.27324" lon="-2.13461">
        <ele>2</ele>
        <time>2019-05-04T07:06:55Z</time>
      </trkpt>
      <trkpt lat="47.27375" lon="-2.13419">
        <ele>3.5</ele>
        <time>2019-05-04T07:07:13Z</time>
      </trkpt>
      <trkpt lat="47.27424" lon="-2.13255">
        <ele>1</ele>
        <time>2019-05-04T07:07:43Z</time>
      </trkpt>
      <trkpt lat="47.27439" lon="-2.1313">
        <ele>2</ele>
        <time>2019-05-04T07:08:01Z</time>
      </trkpt>
      <trkpt lat="47.27441" lon="-2.12965">
        <ele>1</ele>
        <time>2019-05-04T07:08:25Z</time>
      </trkpt>
      <trkpt lat="47.27471" lon="-2.12863">
        <ele>3.9</ele>
        <time>2019-05-04T07:08:43Z</time>
      </trkpt>
      <trkpt lat="47.27484" lon="-2.12715">
        <ele>2</ele>
        <time>2019-05-04T07:09:07Z</time>
      </trkpt>
      <trkpt lat="47.27487" lon="-2.12451">
        <ele>3.5</ele>
        <time>2019-05-04T07:09:49Z</time>
      </trkpt>
      <trkpt lat="47.27525" lon="-2.11626">
        <ele>2</ele>
        <time>2019-05-04T07:11:43Z</time>
      </trkpt>
      <trkpt lat="47.27496" lon="-2.11474">
        <ele>1</ele>
        <time>2019-05-04T07:12:07Z</time>
      </trkpt>
      <trkpt lat="47.27527" lon="-2.11114">
        <ele>1</ele>
        <time>2019-05-04T07:13:07Z</time>
      </trkpt>
      <trkpt lat="47.27581" lon="-2.10841">
        <ele>1</ele>
        <time>2019-05-04T07:13:49Z</time>
      </trkpt>
      <trkpt lat="47.27786" lon="-2.10219">
        <ele>1</ele>
        <time>2019-05-04T07:15:37Z</time>
      </trkpt>
      <trkpt lat="47.27867" lon="-2.09846">
        <ele>1</ele>
        <time>2019-05-04T07:16:37Z</time>
      </trkpt>
      <trkpt lat="47.27891" lon="-2.09669">
        <ele>1</ele>
        <time>2019-05-04T07:17:07Z</time>
      </trkpt>
      <trkpt lat="47.28015" lon="-2.08445">
        <ele>2</ele>
        <time>2019-05-04T07:20:37Z</time>
      </trkpt>
      <trkpt lat="47.28046" lon="-2.08263">
        <ele>1</ele>
        <time>2019-05-04T07:21:07Z</time>
      </trkpt>
      <trkpt lat="47.28074" lon="-2.07886">
        <ele>2</ele>
        <time>2019-05-04T07:22:07Z</time>
      </trkpt>
      <trkpt lat="47.28109" lon="-2.07665">
        <ele>3.1</ele>
        <time>2019-05-04T07:22:49Z</time>
      </trkpt>
      <trkpt lat="47.28102" lon="-2.07119">
        <ele>3</ele>
        <time>2019-05-04T07:25:01Z</time>
      </trkpt>
      <trkpt lat="47.28113" lon="-2.06866">
        <ele>2.9</ele>
        <time>2019-05-04T07:25:43Z</time>
      </trkpt>
      <trkpt lat="47.28144" lon="-2.06422">
        <ele>3</ele>
        <time>2019-05-04T07:26:55Z</time>
      </trkpt>
      <trkpt lat="47.28143" lon="-2.06347">
        <ele>1</ele>
        <time>2019-05-04T07:27:07Z</time>
      </trkpt>
      <trkpt lat="47.28109" lon="-2.06287">
        <ele>3</ele>
        <time>2019-05-04T07:27:19Z</time>
      </trkpt>
      <trkpt lat="47.28068" lon="-2.06268">
        <ele>2</ele>
        <time>2019-05-04T07:27:31Z</time>
      </trkpt>
      <trkpt lat="47.28012" lon="-2.0628">
        <ele>4</ele>
        <time>2019-05-04T07:27:49Z</time>
      </trkpt>
      <trkpt lat="47.27997" lon="-2.06269">
        <ele>4</ele>
        <time>2019-05-04T07:28:25Z</time>
      </trkpt>
      <trkpt lat="47.27972" lon="-2.06221">
        <ele>1</ele>
        <time>2019-05-04T07:28:49Z</time>
      </trkpt>
      <trkpt lat="47.27877" lon="-2.06186">
        <ele>6</ele>
        <time>2019-05-04T07:29:25Z</time>
      </trkpt>
      <trkpt lat="47.27878" lon="-2.06167">
        <ele>6</ele>
        <time>2019-05-04T07:29:31Z</time>
      </trkpt>
      <trkpt lat="47.2786" lon="-2.06145">
        <ele>6</ele>
        <time>2019-05-04T07:29:49Z</time>
      </trkpt>
      <trkpt lat="47.27771" lon="-2.06157">
        <ele>7</ele>
        <time>2019-05-04T07:30:25Z</time>
      </trkpt>
      <trkpt lat="47.27756" lon="-2.06033">
        <ele>6</ele>
        <time>2019-05-04T07:30:49Z</time>
      </trkpt>
      <trkpt lat="47.27754" lon="-2.05918">
        <ele>5</ele>
        <time>2019-05-04T07:31:13Z</time>
      </trkpt>
      <trkpt lat="47.27771" lon="-2.05855">
        <ele>6</ele>
        <time>2019-05-04T07:31:25Z</time>
      </trkpt>
      <trkpt lat="47.27805" lon="-2.05835">
        <ele>6</ele>
        <time>2019-05-04T07:31:37Z</time>
      </trkpt>
      <trkpt lat="47.27966" lon="-2.05692">
        <ele>2</ele>
        <time>2019-05-04T07:32:25Z</time>
      </trkpt>
      <trkpt lat="47.28475" lon="-2.04596">
        <ele>2</ele>
        <time>2019-05-04T07:35:49Z</time>
      </trkpt>
      <trkpt lat="47.28683" lon="-2.04276">
        <ele>3</ele>
        <time>2019-05-04T07:37:01Z</time>
      </trkpt>
      <trkpt lat="47.28703" lon="-2.04212">
        <ele>3</ele>
        <time>2019-05-04T07:37:19Z</time>
      </trkpt>
      <trkpt lat="47.28724" lon="-2.04209">
        <ele>3</ele>
        <time>2019-05-04T07:37:25Z</time>
      </trkpt>
      <trkpt lat="47.28762" lon="-2.04177">
        <ele>4</ele>
        <time>2019-05-04T07:37:37Z</time>
      </trkpt>
      <trkpt lat="47.28876" lon="-2.03991">
        <ele>8</ele>
        <time>2019-05-04T07:38:25Z</time>
      </trkpt>
      <trkpt lat="47.28888" lon="-2.03961">
        <ele>8</ele>
        <time>2019-05-04T07:38:31Z</time>
      </trkpt>
      <trkpt lat="47.28901" lon="-2.03886">
        <ele>9</ele>
        <time>2019-05-04T07:38:43Z</time>
      </trkpt>
      <trkpt lat="47.28917" lon="-2.03485">
        <ele>4</ele>
        <time>2019-05-04T07:39:37Z</time>
      </trkpt>
      <trkpt lat="47.28959" lon="-2.03306">
        <ele>2</ele>
        <time>2019-05-04T07:40:07Z</time>
      </trkpt>
      <trkpt lat="47.28973" lon="-2.03288">
        <ele>2</ele>
        <time>2019-05-04T07:40:13Z</time>
      </trkpt>
      <trkpt lat="47.28987" lon="-2.0323">
        <ele>3</ele>
        <time>2019-05-04T07:40:25Z</time>
      </trkpt>
      <trkpt lat="47.28984" lon="-2.03027">
        <ele>3</ele>
        <time>2019-05-04T07:41:01Z</time>
      </trkpt>
      <trkpt lat="47.28971" lon="-2.02926">
        <ele>4</ele>
        <time>2019-05-04T07:41:19Z</time>
      </trkpt>
      <trkpt lat="47.28894" lon="-2.02694">
        <ele>1</ele>
        <time>2019-05-04T07:42:07Z</time>
      </trkpt>
      <trkpt lat="47.28862" lon="-2.02702">
        <ele>4</ele>
        <time>2019-05-04T07:42:19Z</time>
      </trkpt>
      <trkpt lat="47.28845" lon="-2.02598">
        <ele>5</ele>
        <time>2019-05-04T07:42:37Z</time>
      </trkpt>
      <trkpt lat="47.28828" lon="-2.023">
        <ele>3</ele>
        <time>2019-05-04T07:43:37Z</time>
      </trkpt>
      <trkpt lat="47.28797" lon="-2.02156">
        <ele>2</ele>
        <time>2019-05-04T07:44:07Z</time>
      </trkpt>
      <trkpt lat="47.2874" lon="-2.02052">
        <ele>4</ele>
        <time>2019-05-04T07:44:31Z</time>
      </trkpt>
      <trkpt lat="47.28696" lon="-2.0191">
        <ele>3</ele>
        <time>2019-05-04T07:44:55Z</time>
      </trkpt>
      <trkpt lat="47.28615" lon="-2.01757">
        <ele>4</ele>
        <time>2019-05-04T07:45:31Z</time>
      </trkpt>
      <trkpt lat="47.28641" lon="-2.01731">
        <ele>4</ele>
        <time>2019-05-04T07:45:55Z</time>
      </trkpt>
      <trkpt lat="47.28654" lon="-2.01668">
        <ele>4</ele>
        <time>2019-05-04T07:46:55Z</time>
      </trkpt>
      <trkpt lat="47.28666" lon="-2.01675">
        <ele>4</ele>
        <time>2019-05-04T07:47:20Z</time>
      </trkpt>
      <trkpt lat="47.28655" lon="-2.01687">
        <ele>4</ele>
        <time>2019-05-04T07:47:31Z</time>
      </trkpt>
      <trkpt lat="47.28649" lon="-2.01712">
        <ele>4</ele>
        <time>2019-05-04T07:47:49Z</time>
      </trkpt>
      <trkpt lat="47.28659" lon="-2.01722">
        <ele>4</ele>
        <time>2019-05-04T07:48:07Z</time>
      </trkpt>
      <trkpt lat="47.28663" lon="-2.01713">
        <ele>4</ele>
        <time>2019-05-04T07:48:27Z</time>
      </trkpt>
      <trkpt lat="47.28664" lon="-2.01721">
        <ele>4</ele>
        <time>2019-05-04T07:48:35Z</time>
      </trkpt>
      <trkpt lat="47.28652" lon="-2.01719">
        <ele>4</ele>
        <time>2019-05-04T07:48:53Z</time>
      </trkpt>
      <trkpt lat="47.28612" lon="-2.01749">
        <ele>4</ele>
        <time>2019-05-04T07:49:39Z</time>
      </trkpt>
      <trkpt lat="47.28558" lon="-2.01695">
        <ele>6</ele>
        <time>2019-05-04T07:50:09Z</time>
      </trkpt>
      <trkpt lat="47.28498" lon="-2.01676">
        <ele>6</ele>
        <time>2019-05-04T07:50:27Z</time>
      </trkpt>
      <trkpt lat="47.28452" lon="-2.01647">
        <ele>5</ele>
        <time>2019-05-04T07:50:39Z</time>
      </trkpt>
      <trkpt lat="47.28326" lon="-2.0162">
        <ele>5</ele>
        <time>2019-05-04T07:51:09Z</time>
      </trkpt>
      <trkpt lat="47.28326" lon="-2.01587">
        <ele>4</ele>
        <time>2019-05-04T07:51:21Z</time>
      </trkpt>
      <trkpt lat="47.28197" lon="-2.01563">
        <ele>2</ele>
        <time>2019-05-04T07:51:51Z</time>
      </trkpt>
      <trkpt lat="47.27934" lon="-2.0148">
        <ele>1</ele>
        <time>2019-05-04T07:53:03Z</time>
      </trkpt>
      <trkpt lat="47.27921" lon="-2.01368">
        <ele>5</ele>
        <time>2019-05-04T07:53:27Z</time>
      </trkpt>
      <trkpt lat="47.27904" lon="-2.01303">
        <ele>5</ele>
        <time>2019-05-04T07:53:39Z</time>
      </trkpt>
      <trkpt lat="47.27868" lon="-2.0121">
        <ele>5</ele>
        <time>2019-05-04T07:53:57Z</time>
      </trkpt>
      <trkpt lat="47.27756" lon="-2.00967">
        <ele>7</ele>
        <time>2019-05-04T07:54:51Z</time>
      </trkpt>
      <trkpt lat="47.27763" lon="-2.0094">
        <ele>7</ele>
        <time>2019-05-04T07:54:57Z</time>
      </trkpt>
      <trkpt lat="47.27822" lon="-2.0083">
        <ele>6</ele>
        <time>2019-05-04T07:55:21Z</time>
      </trkpt>
      <trkpt lat="47.27951" lon="-2.00683">
        <ele>4</ele>
        <time>2019-05-04T07:55:57Z</time>
      </trkpt>
      <trkpt lat="47.27936" lon="-2.00604">
        <ele>3</ele>
        <time>2019-05-04T07:56:09Z</time>
      </trkpt>
      <trkpt lat="47.27814" lon="-2.00488">
        <ele>4</ele>
        <time>2019-05-04T07:56:39Z</time>
      </trkpt>
      <trkpt lat="47.27763" lon="-2.00453">
        <ele>4</ele>
        <time>2019-05-04T07:56:51Z</time>
      </trkpt>
      <trkpt lat="47.27681" lon="-2.00442">
        <ele>5</ele>
        <time>2019-05-04T07:57:09Z</time>
      </trkpt>
      <trkpt lat="47.2767" lon="-2.00411">
        <ele>5</ele>
        <time>2019-05-04T07:57:15Z</time>
      </trkpt>
      <trkpt lat="47.27678" lon="-2.00222">
        <ele>6</ele>
        <time>2019-05-04T07:57:45Z</time>
      </trkpt>
      <trkpt lat="47.27632" lon="-2.00066">
        <ele>4</ele>
        <time>2019-05-04T07:58:09Z</time>
      </trkpt>
      <trkpt lat="47.27571" lon="-1.9994">
        <ele>4</ele>
        <time>2019-05-04T07:58:33Z</time>
      </trkpt>
      <trkpt lat="47.27567" lon="-1.99898">
        <ele>4</ele>
        <time>2019-05-04T07:58:39Z</time>
      </trkpt>
      <trkpt lat="47.27574" lon="-1.99809">
        <ele>4</ele>
        <time>2019-05-04T07:58:51Z</time>
      </trkpt>
      <trkpt lat="47.27565" lon="-1.99678">
        <ele>4</ele>
        <time>2019-05-04T07:59:09Z</time>
      </trkpt>
      <trkpt lat="47.2753" lon="-1.99511">
        <ele>3</ele>
        <time>2019-05-04T07:59:33Z</time>
      </trkpt>
      <trkpt lat="47.27503" lon="-1.99436">
        <ele>3</ele>
        <time>2019-05-04T07:59:45Z</time>
      </trkpt>
      <trkpt lat="47.27538" lon="-1.99229">
        <ele>4</ele>
        <time>2019-05-04T08:00:15Z</time>
      </trkpt>
      <trkpt lat="47.27585" lon="-1.99122">
        <ele>4</ele>
        <time>2019-05-04T08:00:33Z</time>
      </trkpt>
      <trkpt lat="47.27602" lon="-1.99006">
        <ele>4</ele>
        <time>2019-05-04T08:00:51Z</time>
      </trkpt>
      <trkpt lat="47.27595" lon="-1.98924">
        <ele>2</ele>
        <time>2019-05-04T08:01:03Z</time>
      </trkpt>
      <trkpt lat="47.27517" lon="-1.98613">
        <ele>3</ele>
        <time>2019-05-04T08:01:51Z</time>
      </trkpt>
      <trkpt lat="47.27478" lon="-1.98552">
        <ele>4</ele>
        <time>2019-05-04T08:02:03Z</time>
      </trkpt>
      <trkpt lat="47.27411" lon="-1.9848">
        <ele>4</ele>
        <time>2019-05-04T08:02:21Z</time>
      </trkpt>
      <trkpt lat="47.27415" lon="-1.98404">
        <ele>5</ele>
        <time>2019-05-04T08:02:33Z</time>
      </trkpt>
      <trkpt lat="47.27443" lon="-1.98215">
        <ele>6</ele>
        <time>2019-05-04T08:03:03Z</time>
      </trkpt>
      <trkpt lat="47.27461" lon="-1.9821">
        <ele>4</ele>
        <time>2019-05-04T08:03:19Z</time>
      </trkpt>
      <trkpt lat="47.27446" lon="-1.98197">
        <ele>6</ele>
        <time>2019-05-04T08:03:27Z</time>
      </trkpt>
      <trkpt lat="47.27443" lon="-1.97989">
        <ele>6</ele>
        <time>2019-05-04T08:04:15Z</time>
      </trkpt>
      <trkpt lat="47.27421" lon="-1.97862">
        <ele>8</ele>
        <time>2019-05-04T08:04:45Z</time>
      </trkpt>
      <trkpt lat="47.27396" lon="-1.97788">
        <ele>8</ele>
        <time>2019-05-04T08:05:03Z</time>
      </trkpt>
      <trkpt lat="47.27327" lon="-1.97747">
        <ele>10</ele>
        <time>2019-05-04T08:05:27Z</time>
      </trkpt>
      <trkpt lat="47.273" lon="-1.97715">
        <ele>10</ele>
        <time>2019-05-04T08:05:39Z</time>
      </trkpt>
      <trkpt lat="47.27278" lon="-1.97558">
        <ele>7</ele>
        <time>2019-05-04T08:06:03Z</time>
      </trkpt>
      <trkpt lat="47.27239" lon="-1.97392">
        <ele>6</ele>
        <time>2019-05-04T08:06:21Z</time>
      </trkpt>
      <trkpt lat="47.27221" lon="-1.97352">
        <ele>6</ele>
        <time>2019-05-04T08:06:27Z</time>
      </trkpt>
      <trkpt lat="47.27112" lon="-1.97175">
        <ele>8</ele>
        <time>2019-05-04T08:07:09Z</time>
      </trkpt>
      <trkpt lat="47.27092" lon="-1.97102">
        <ele>8</ele>
        <time>2019-05-04T08:07:21Z</time>
      </trkpt>
      <trkpt lat="47.27075" lon="-1.9696">
        <ele>9</ele>
        <time>2019-05-04T08:07:45Z</time>
      </trkpt>
      <trkpt lat="47.26984" lon="-1.9677">
        <ele>12</ele>
        <time>2019-05-04T08:08:09Z</time>
      </trkpt>
      <trkpt lat="47.26895" lon="-1.96535">
        <ele>14</ele>
        <time>2019-05-04T08:08:57Z</time>
      </trkpt>
      <trkpt lat="47.26822" lon="-1.96367">
        <ele>14</ele>
        <time>2019-05-04T08:09:27Z</time>
      </trkpt>
      <trkpt lat="47.26764" lon="-1.96142">
        <ele>17</ele>
        <time>2019-05-04T08:10:09Z</time>
      </trkpt>
      <trkpt lat="47.26739" lon="-1.96077">
        <ele>13</ele>
        <time>2019-05-04T08:10:20Z</time>
      </trkpt>
      <trkpt lat="47.2671" lon="-1.95929">
        <ele>12</ele>
        <time>2019-05-04T08:10:44Z</time>
      </trkpt>
      <trkpt lat="47.26603" lon="-1.95637">
        <ele>11</ele>
        <time>2019-05-04T08:11:38Z</time>
      </trkpt>
      <trkpt lat="47.26558" lon="-1.95464">
        <ele>7</ele>
        <time>2019-05-04T08:11:56Z</time>
      </trkpt>
      <trkpt lat="47.26505" lon="-1.95366">
        <ele>5</ele>
        <time>2019-05-04T08:12:08Z</time>
      </trkpt>
      <trkpt lat="47.26475" lon="-1.95226">
        <ele>5</ele>
        <time>2019-05-04T08:12:26Z</time>
      </trkpt>
      <trkpt lat="47.26475" lon="-1.95101">
        <ele>6</ele>
        <time>2019-05-04T08:12:44Z</time>
      </trkpt>
      <trkpt lat="47.26503" lon="-1.9509">
        <ele>6</ele>
        <time>2019-05-04T08:12:50Z</time>
      </trkpt>
      <trkpt lat="47.26552" lon="-1.9509">
        <ele>4</ele>
        <time>2019-05-04T08:13:02Z</time>
      </trkpt>
      <trkpt lat="47.26605" lon="-1.95069">
        <ele>4</ele>
        <time>2019-05-04T08:13:14Z</time>
      </trkpt>
      <trkpt lat="47.26646" lon="-1.95016">
        <ele>2</ele>
        <time>2019-05-04T08:13:26Z</time>
      </trkpt>
      <trkpt lat="47.2672" lon="-1.94863">
        <ele>2</ele>
        <time>2019-05-04T08:13:50Z</time>
      </trkpt>
      <trkpt lat="47.26715" lon="-1.94825">
        <ele>2</ele>
        <time>2019-05-04T08:13:56Z</time>
      </trkpt>
      <trkpt lat="47.26646" lon="-1.9468">
        <ele>2</ele>
        <time>2019-05-04T08:14:26Z</time>
      </trkpt>
      <trkpt lat="47.26622" lon="-1.94606">
        <ele>2</ele>
        <time>2019-05-04T08:14:50Z</time>
      </trkpt>
      <trkpt lat="47.26617" lon="-1.94522">
        <ele>4</ele>
        <time>2019-05-04T08:15:20Z</time>
      </trkpt>
      <trkpt lat="47.26573" lon="-1.94304">
        <ele>2</ele>
        <time>2019-05-04T08:16:20Z</time>
      </trkpt>
      <trkpt lat="47.26588" lon="-1.94193">
        <ele>2</ele>
        <time>2019-05-04T08:16:38Z</time>
      </trkpt>
      <trkpt lat="47.26582" lon="-1.94104">
        <ele>1</ele>
        <time>2019-05-04T08:16:50Z</time>
      </trkpt>
      <trkpt lat="47.26477" lon="-1.93522">
        <ele>1</ele>
        <time>2019-05-04T08:18:14Z</time>
      </trkpt>
      <trkpt lat="47.26457" lon="-1.9336">
        <ele>2.1</ele>
        <time>2019-05-04T08:18:38Z</time>
      </trkpt>
      <trkpt lat="47.26403" lon="-1.93054">
        <ele>1</ele>
        <time>2019-05-04T08:19:26Z</time>
      </trkpt>
      <trkpt lat="47.26374" lon="-1.92946">
        <ele>2.6</ele>
        <time>2019-05-04T08:19:44Z</time>
      </trkpt>
      <trkpt lat="47.26315" lon="-1.92629">
        <ele>1</ele>
        <time>2019-05-04T08:20:32Z</time>
      </trkpt>
      <trkpt lat="47.26269" lon="-1.92435">
        <ele>1.8</ele>
        <time>2019-05-04T08:21:02Z</time>
      </trkpt>
      <trkpt lat="47.26175" lon="-1.9214">
        <ele>1</ele>
        <time>2019-05-04T08:21:50Z</time>
      </trkpt>
      <trkpt lat="47.26049" lon="-1.91828">
        <ele>3</ele>
        <time>2019-05-04T08:22:50Z</time>
      </trkpt>
      <trkpt lat="47.25907" lon="-1.91555">
        <ele>2</ele>
        <time>2019-05-04T08:23:38Z</time>
      </trkpt>
      <trkpt lat="47.25851" lon="-1.9146">
        <ele>2</ele>
        <time>2019-05-04T08:24:02Z</time>
      </trkpt>
      <trkpt lat="47.25873" lon="-1.91535">
        <ele>2</ele>
        <time>2019-05-04T08:24:34Z</time>
      </trkpt>
      <trkpt lat="47.25878" lon="-1.91532">
        <ele>2.1</ele>
        <time>2019-05-04T08:24:43Z</time>
      </trkpt>
      <trkpt lat="47.25876" lon="-1.91543">
        <ele>2.3</ele>
        <time>2019-05-04T08:24:49Z</time>
      </trkpt>
      <trkpt lat="47.25886" lon="-1.9153">
        <ele>2</ele>
        <time>2019-05-04T08:24:55Z</time>
      </trkpt>
      <trkpt lat="47.2583" lon="-1.91417">
        <ele>2.1</ele>
        <time>2019-05-04T08:25:37Z</time>
      </trkpt>
      <trkpt lat="47.25135" lon="-1.90152">
        <ele>2.5</ele>
        <time>2019-05-04T08:29:47Z</time>
      </trkpt>
      <trkpt lat="47.25117" lon="-1.90125">
        <ele>2</ele>
        <time>2019-05-04T08:29:53Z</time>
      </trkpt>
      <trkpt lat="47.25068" lon="-1.90095">
        <ele>2</ele>
        <time>2019-05-04T08:30:05Z</time>
      </trkpt>
      <trkpt lat="47.25027" lon="-1.90031">
        <ele>1</ele>
        <time>2019-05-04T08:30:17Z</time>
      </trkpt>
      <trkpt lat="47.24977" lon="-1.8992">
        <ele>2.6</ele>
        <time>2019-05-04T08:30:35Z</time>
      </trkpt>
      <trkpt lat="47.24963" lon="-1.89789">
        <ele>1.6</ele>
        <time>2019-05-04T08:30:53Z</time>
      </trkpt>
      <trkpt lat="47.24521" lon="-1.88699">
        <ele>2</ele>
        <time>2019-05-04T08:33:41Z</time>
      </trkpt>
      <trkpt lat="47.24356" lon="-1.88322">
        <ele>1</ele>
        <time>2019-05-04T08:34:41Z</time>
      </trkpt>
      <trkpt lat="47.23955" lon="-1.87505">
        <ele>1</ele>
        <time>2019-05-04T08:36:53Z</time>
      </trkpt>
      <trkpt lat="47.23861" lon="-1.87325">
        <ele>2</ele>
        <time>2019-05-04T08:37:23Z</time>
      </trkpt>
      <trkpt lat="47.23801" lon="-1.87185">
        <ele>2</ele>
        <time>2019-05-04T08:37:53Z</time>
      </trkpt>
      <trkpt lat="47.23754" lon="-1.87107">
        <ele>2.8</ele>
        <time>2019-05-04T08:38:11Z</time>
      </trkpt>
      <trkpt lat="47.23362" lon="-1.86323">
        <ele>2.9</ele>
        <time>2019-05-04T08:40:23Z</time>
      </trkpt>
      <trkpt lat="47.22687" lon="-1.84959">
        <ele>4</ele>
        <time>2019-05-04T08:44:05Z</time>
      </trkpt>
      <trkpt lat="47.22537" lon="-1.84674">
        <ele>2.5</ele>
        <time>2019-05-04T08:44:59Z</time>
      </trkpt>
      <trkpt lat="47.22469" lon="-1.84601">
        <ele>3</ele>
        <time>2019-05-04T08:45:17Z</time>
      </trkpt>
      <trkpt lat="47.22419" lon="-1.84494">
        <ele>1</ele>
        <time>2019-05-04T08:45:35Z</time>
      </trkpt>
      <trkpt lat="47.22385" lon="-1.84371">
        <ele>1</ele>
        <time>2019-05-04T08:45:53Z</time>
      </trkpt>
      <trkpt lat="47.22316" lon="-1.84219">
        <ele>2</ele>
        <time>2019-05-04T08:46:23Z</time>
      </trkpt>
      <trkpt lat="47.21762" lon="-1.83103">
        <ele>2</ele>
        <time>2019-05-04T08:50:17Z</time>
      </trkpt>
      <trkpt lat="47.21621" lon="-1.82836">
        <ele>1</ele>
        <time>2019-05-04T08:51:24Z</time>
      </trkpt>
      <trkpt lat="47.21403" lon="-1.82475">
        <ele>2.5</ele>
        <time>2019-05-04T08:53:13Z</time>
      </trkpt>
      <trkpt lat="47.21388" lon="-1.82436">
        <ele>2</ele>
        <time>2019-05-04T08:53:25Z</time>
      </trkpt>
      <trkpt lat="47.21395" lon="-1.82416">
        <ele>2</ele>
        <time>2019-05-04T08:53:46Z</time>
      </trkpt>
      <trkpt lat="47.21382" lon="-1.82433">
        <ele>2</ele>
        <time>2019-05-04T08:53:59Z</time>
      </trkpt>
      <trkpt lat="47.21447" lon="-1.82353">
        <ele>4.4</ele>
        <time>2019-05-04T08:54:41Z</time>
      </trkpt>
      <trkpt lat="47.21433" lon="-1.82311">
        <ele>1.2</ele>
        <time>2019-05-04T08:54:59Z</time>
      </trkpt>
      <trkpt lat="47.21413" lon="-1.82283">
        <ele>4.1</ele>
        <time>2019-05-04T08:55:11Z</time>
      </trkpt>
      <trkpt lat="47.21373" lon="-1.82253">
        <ele>2.9</ele>
        <time>2019-05-04T08:55:23Z</time>
      </trkpt>
      <trkpt lat="47.21344" lon="-1.8221">
        <ele>3</ele>
        <time>2019-05-04T08:55:35Z</time>
      </trkpt>
      <trkpt lat="47.21085" lon="-1.81778">
        <ele>1</ele>
        <time>2019-05-04T08:57:29Z</time>
      </trkpt>
      <trkpt lat="47.21009" lon="-1.81619">
        <ele>2.7</ele>
        <time>2019-05-04T08:57:59Z</time>
      </trkpt>
      <trkpt lat="47.209" lon="-1.81341">
        <ele>2.1</ele>
        <time>2019-05-04T08:58:47Z</time>
      </trkpt>
      <trkpt lat="47.20833" lon="-1.81081">
        <ele>3</ele>
        <time>2019-05-04T08:59:41Z</time>
      </trkpt>
      <trkpt lat="47.20826" lon="-1.81076">
        <ele>2.5</ele>
        <time>2019-05-04T08:59:53Z</time>
      </trkpt>
      <trkpt lat="47.20798" lon="-1.80946">
        <ele>2.5</ele>
        <time>2019-05-04T09:00:23Z</time>
      </trkpt>
      <trkpt lat="47.20741" lon="-1.80567">
        <ele>2.6</ele>
        <time>2019-05-04T09:01:29Z</time>
      </trkpt>
      <trkpt lat="47.20735" lon="-1.80419">
        <ele>2.9</ele>
        <time>2019-05-04T09:01:53Z</time>
      </trkpt>
      <trkpt lat="47.20701" lon="-1.80045">
        <ele>2</ele>
        <time>2019-05-04T09:02:53Z</time>
      </trkpt>
      <trkpt lat="47.20683" lon="-1.7959">
        <ele>1</ele>
        <time>2019-05-04T09:04:05Z</time>
      </trkpt>
      <trkpt lat="47.20685" lon="-1.79363">
        <ele>2.3</ele>
        <time>2019-05-04T09:04:41Z</time>
      </trkpt>
      <trkpt lat="47.20711" lon="-1.79107">
        <ele>2.2</ele>
        <time>2019-05-04T09:05:17Z</time>
      </trkpt>
      <trkpt lat="47.20719" lon="-1.79067">
        <ele>2.8</ele>
        <time>2019-05-04T09:05:23Z</time>
      </trkpt>
      <trkpt lat="47.20767" lon="-1.78971">
        <ele>5</ele>
        <time>2019-05-04T09:05:41Z</time>
      </trkpt>
      <trkpt lat="47.20793" lon="-1.78895">
        <ele>2.3</ele>
        <time>2019-05-04T09:05:53Z</time>
      </trkpt>
      <trkpt lat="47.20823" lon="-1.78743">
        <ele>2.3</ele>
        <time>2019-05-04T09:06:17Z</time>
      </trkpt>
      <trkpt lat="47.20827" lon="-1.78674">
        <ele>2.9</ele>
        <time>2019-05-04T09:06:29Z</time>
      </trkpt>
      <trkpt lat="47.20821" lon="-1.78642">
        <ele>3.4</ele>
        <time>2019-05-04T09:06:35Z</time>
      </trkpt>
      <trkpt lat="47.20794" lon="-1.78599">
        <ele>3.2</ele>
        <time>2019-05-04T09:06:47Z</time>
      </trkpt>
      <trkpt lat="47.20743" lon="-1.7856">
        <ele>6</ele>
        <time>2019-05-04T09:07:17Z</time>
      </trkpt>
      <trkpt lat="47.20657" lon="-1.78546">
        <ele>6</ele>
        <time>2019-05-04T09:08:19Z</time>
      </trkpt>
      <trkpt lat="47.20629" lon="-1.78517">
        <ele>8</ele>
        <time>2019-05-04T09:08:31Z</time>
      </trkpt>
      <trkpt lat="47.20625" lon="-1.78426">
        <ele>8</ele>
        <time>2019-05-04T09:08:43Z</time>
      </trkpt>
      <trkpt lat="47.20587" lon="-1.78096">
        <ele>7</ele>
        <time>2019-05-04T09:09:37Z</time>
      </trkpt>
      <trkpt lat="47.20583" lon="-1.77907">
        <ele>8</ele>
        <time>2019-05-04T09:10:19Z</time>
      </trkpt>
      <trkpt lat="47.20598" lon="-1.77799">
        <ele>8</ele>
        <time>2019-05-04T09:10:43Z</time>
      </trkpt>
      <trkpt lat="47.20595" lon="-1.777">
        <ele>9</ele>
        <time>2019-05-04T09:11:13Z</time>
      </trkpt>
      <trkpt lat="47.20608" lon="-1.77546">
        <ele>7</ele>
        <time>2019-05-04T09:11:31Z</time>
      </trkpt>
      <trkpt lat="47.20572" lon="-1.77336">
        <ele>6</ele>
        <time>2019-05-04T09:12:13Z</time>
      </trkpt>
      <trkpt lat="47.20564" lon="-1.771">
        <ele>4</ele>
        <time>2019-05-04T09:12:55Z</time>
      </trkpt>
      <trkpt lat="47.20551" lon="-1.76995">
        <ele>9</ele>
        <time>2019-05-04T09:13:13Z</time>
      </trkpt>
      <trkpt lat="47.20559" lon="-1.76962">
        <ele>3</ele>
        <time>2019-05-04T09:13:19Z</time>
      </trkpt>
      <trkpt lat="47.20555" lon="-1.76883">
        <ele>9</ele>
        <time>2019-05-04T09:13:31Z</time>
      </trkpt>
      <trkpt lat="47.2053" lon="-1.76771">
        <ele>7</ele>
        <time>2019-05-04T09:13:49Z</time>
      </trkpt>
      <trkpt lat="47.20492" lon="-1.76649">
        <ele>5</ele>
        <time>2019-05-04T09:14:01Z</time>
      </trkpt>
      <trkpt lat="47.20487" lon="-1.76598">
        <ele>3</ele>
        <time>2019-05-04T09:14:07Z</time>
      </trkpt>
      <trkpt lat="47.20466" lon="-1.76513">
        <ele>3</ele>
        <time>2019-05-04T09:14:19Z</time>
      </trkpt>
      <trkpt lat="47.20461" lon="-1.76434">
        <ele>6</ele>
        <time>2019-05-04T09:14:31Z</time>
      </trkpt>
      <trkpt lat="47.20441" lon="-1.76338">
        <ele>6</ele>
        <time>2019-05-04T09:14:49Z</time>
      </trkpt>
      <trkpt lat="47.20437" lon="-1.76242">
        <ele>6</ele>
        <time>2019-05-04T09:15:07Z</time>
      </trkpt>
      <trkpt lat="47.20423" lon="-1.76179">
        <ele>5</ele>
        <time>2019-05-04T09:15:19Z</time>
      </trkpt>
      <trkpt lat="47.20397" lon="-1.7595">
        <ele>1</ele>
        <time>2019-05-04T09:15:55Z</time>
      </trkpt>
      <trkpt lat="47.20383" lon="-1.75878">
        <ele>5.3</ele>
        <time>2019-05-04T09:16:07Z</time>
      </trkpt>
      <trkpt lat="47.20346" lon="-1.75739">
        <ele>7</ele>
        <time>2019-05-04T09:16:37Z</time>
      </trkpt>
      <trkpt lat="47.2033" lon="-1.75636">
        <ele>3</ele>
        <time>2019-05-04T09:16:55Z</time>
      </trkpt>
      <trkpt lat="47.2028" lon="-1.75459">
        <ele>3.9</ele>
        <time>2019-05-04T09:18:05Z</time>
      </trkpt>
      <trkpt lat="47.203" lon="-1.75516">
        <ele>3</ele>
        <time>2019-05-04T09:18:51Z</time>
      </trkpt>
      <trkpt lat="47.20192" lon="-1.75139">
        <ele>2</ele>
        <time>2019-05-04T09:20:15Z</time>
      </trkpt>
      <trkpt lat="47.20125" lon="-1.7479">
        <ele>5</ele>
        <time>2019-05-04T09:21:21Z</time>
      </trkpt>
      <trkpt lat="47.20074" lon="-1.7448">
        <ele>5</ele>
        <time>2019-05-04T09:22:09Z</time>
      </trkpt>
      <trkpt lat="47.20039" lon="-1.74329">
        <ele>5</ele>
        <time>2019-05-04T09:22:33Z</time>
      </trkpt>
      <trkpt lat="47.19996" lon="-1.74248">
        <ele>12</ele>
        <time>2019-05-04T09:22:51Z</time>
      </trkpt>
      <trkpt lat="47.19956" lon="-1.73975">
        <ele>16</ele>
        <time>2019-05-04T09:24:27Z</time>
      </trkpt>
      <trkpt lat="47.20002" lon="-1.73902">
        <ele>9</ele>
        <time>2019-05-04T09:24:55Z</time>
      </trkpt>
      <trkpt lat="47.20008" lon="-1.73857">
        <ele>11</ele>
        <time>2019-05-04T09:25:07Z</time>
      </trkpt>
      <trkpt lat="47.20029" lon="-1.73811">
        <ele>11</ele>
        <time>2019-05-04T09:25:19Z</time>
      </trkpt>
      <trkpt lat="47.20048" lon="-1.73669">
        <ele>9</ele>
        <time>2019-05-04T09:25:37Z</time>
      </trkpt>
      <trkpt lat="47.2005" lon="-1.73593">
        <ele>9</ele>
        <time>2019-05-04T09:25:49Z</time>
      </trkpt>
      <trkpt lat="47.20073" lon="-1.73539">
        <ele>9</ele>
        <time>2019-05-04T09:26:01Z</time>
      </trkpt>
      <trkpt lat="47.20079" lon="-1.73444">
        <ele>10</ele>
        <time>2019-05-04T09:26:13Z</time>
      </trkpt>
      <trkpt lat="47.20066" lon="-1.73362">
        <ele>10</ele>
        <time>2019-05-04T09:26:25Z</time>
      </trkpt>
      <trkpt lat="47.20065" lon="-1.73144">
        <ele>9</ele>
        <time>2019-05-04T09:26:55Z</time>
      </trkpt>
      <trkpt lat="47.20045" lon="-1.7302">
        <ele>6</ele>
        <time>2019-05-04T09:27:13Z</time>
      </trkpt>
      <trkpt lat="47.20019" lon="-1.72957">
        <ele>6</ele>
        <time>2019-05-04T09:27:25Z</time>
      </trkpt>
      <trkpt lat="47.2001" lon="-1.72851">
        <ele>5</ele>
        <time>2019-05-04T09:27:43Z</time>
      </trkpt>
      <trkpt lat="47.19987" lon="-1.72783">
        <ele>9</ele>
        <time>2019-05-04T09:27:55Z</time>
      </trkpt>
      <trkpt lat="47.19947" lon="-1.72591">
        <ele>5</ele>
        <time>2019-05-04T09:28:25Z</time>
      </trkpt>
      <trkpt lat="47.19913" lon="-1.72537">
        <ele>5</ele>
        <time>2019-05-04T09:28:37Z</time>
      </trkpt>
      <trkpt lat="47.19919" lon="-1.72537">
        <ele>5</ele>
        <time>2019-05-04T09:28:57Z</time>
      </trkpt>
      <trkpt lat="47.19906" lon="-1.72501">
        <ele>5</ele>
        <time>2019-05-04T09:29:09Z</time>
      </trkpt>
      <trkpt lat="47.19887" lon="-1.72475">
        <ele>11</ele>
        <time>2019-05-04T09:29:21Z</time>
      </trkpt>
      <trkpt lat="47.19935" lon="-1.72459">
        <ele>6</ele>
        <time>2019-05-04T09:29:39Z</time>
      </trkpt>
      <trkpt lat="47.19961" lon="-1.72437">
        <ele>6</ele>
        <time>2019-05-04T09:29:51Z</time>
      </trkpt>
      <trkpt lat="47.1997" lon="-1.7238">
        <ele>6</ele>
        <time>2019-05-04T09:30:03Z</time>
      </trkpt>
      <trkpt lat="47.19945" lon="-1.72345">
        <ele>7</ele>
        <time>2019-05-04T09:30:15Z</time>
      </trkpt>
      <trkpt lat="47.19924" lon="-1.72255">
        <ele>7</ele>
        <time>2019-05-04T09:30:33Z</time>
      </trkpt>
      <trkpt lat="47.19901" lon="-1.72227">
        <ele>11</ele>
        <time>2019-05-04T09:30:45Z</time>
      </trkpt>
      <trkpt lat="47.19897" lon="-1.72248">
        <ele>11</ele>
        <time>2019-05-04T09:30:57Z</time>
      </trkpt>
      <trkpt lat="47.19829" lon="-1.72259">
        <ele>11</ele>
        <time>2019-05-04T09:31:27Z</time>
      </trkpt>
      <trkpt lat="47.19776" lon="-1.72279">
        <ele>16</ele>
        <time>2019-05-04T09:32:15Z</time>
      </trkpt>
      <trkpt lat="47.1972" lon="-1.7225">
        <ele>16</ele>
        <time>2019-05-04T09:32:39Z</time>
      </trkpt>
      <trkpt lat="47.19708" lon="-1.71977">
        <ele>13</ele>
        <time>2019-05-04T09:33:15Z</time>
      </trkpt>
      <trkpt lat="47.19641" lon="-1.71942">
        <ele>13</ele>
        <time>2019-05-04T09:33:33Z</time>
      </trkpt>
      <trkpt lat="47.19618" lon="-1.71985">
        <ele>7</ele>
        <time>2019-05-04T09:33:45Z</time>
      </trkpt>
      <trkpt lat="47.19561" lon="-1.71662">
        <ele>12</ele>
        <time>2019-05-04T09:34:57Z</time>
      </trkpt>
      <trkpt lat="47.1951" lon="-1.71443">
        <ele>16</ele>
        <time>2019-05-04T09:35:57Z</time>
      </trkpt>
      <trkpt lat="47.19512" lon="-1.7143">
        <ele>16</ele>
        <time>2019-05-04T09:36:03Z</time>
      </trkpt>
      <trkpt lat="47.19595" lon="-1.71387">
        <ele>18</ele>
        <time>2019-05-04T09:36:45Z</time>
      </trkpt>
      <trkpt lat="47.19585" lon="-1.71359">
        <ele>21</ele>
        <time>2019-05-04T09:36:57Z</time>
      </trkpt>
      <trkpt lat="47.19528" lon="-1.71289">
        <ele>19</ele>
        <time>2019-05-04T09:37:21Z</time>
      </trkpt>
      <trkpt lat="47.19504" lon="-1.71247">
        <ele>21</ele>
        <time>2019-05-04T09:37:33Z</time>
      </trkpt>
      <trkpt lat="47.19485" lon="-1.71163">
        <ele>21</ele>
        <time>2019-05-04T09:37:57Z</time>
      </trkpt>
      <trkpt lat="47.1949" lon="-1.71095">
        <ele>26</ele>
        <time>2019-05-04T09:38:15Z</time>
      </trkpt>
      <trkpt lat="47.19507" lon="-1.71065">
        <ele>26</ele>
        <time>2019-05-04T09:38:27Z</time>
      </trkpt>
      <trkpt lat="47.19597" lon="-1.71021">
        <ele>27</ele>
        <time>2019-05-04T09:39:09Z</time>
      </trkpt>
      <trkpt lat="47.19719" lon="-1.70944">
        <ele>11</ele>
        <time>2019-05-04T09:39:45Z</time>
      </trkpt>
      <trkpt lat="47.19768" lon="-1.70842">
        <ele>11</ele>
        <time>2019-05-04T09:39:57Z</time>
      </trkpt>
      <trkpt lat="47.19759" lon="-1.70754">
        <ele>11</ele>
        <time>2019-05-04T09:40:03Z</time>
      </trkpt>
      <trkpt lat="47.19724" lon="-1.70598">
        <ele>10</ele>
        <time>2019-05-04T09:40:21Z</time>
      </trkpt>
      <trkpt lat="47.19715" lon="-1.70526">
        <ele>17</ele>
        <time>2019-05-04T09:40:33Z</time>
      </trkpt>
      <trkpt lat="47.19714" lon="-1.70418">
        <ele>14</ele>
        <time>2019-05-04T09:40:51Z</time>
      </trkpt>
      <trkpt lat="47.1968" lon="-1.70276">
        <ele>14</ele>
        <time>2019-05-04T09:41:15Z</time>
      </trkpt>
      <trkpt lat="47.19675" lon="-1.70191">
        <ele>14</ele>
        <time>2019-05-04T09:41:27Z</time>
      </trkpt>
      <trkpt lat="47.19693" lon="-1.6994">
        <ele>11</ele>
        <time>2019-05-04T09:42:09Z</time>
      </trkpt>
      <trkpt lat="47.19679" lon="-1.69908">
        <ele>11</ele>
        <time>2019-05-04T09:42:15Z</time>
      </trkpt>
      <trkpt lat="47.19676" lon="-1.69841">
        <ele>8</ele>
        <time>2019-05-04T09:42:27Z</time>
      </trkpt>
      <trkpt lat="47.19623" lon="-1.69701">
        <ele>8</ele>
        <time>2019-05-04T09:42:57Z</time>
      </trkpt>
      <trkpt lat="47.19604" lon="-1.69673">
        <ele>8</ele>
        <time>2019-05-04T09:43:03Z</time>
      </trkpt>
      <trkpt lat="47.19507" lon="-1.69441">
        <ele>7</ele>
        <time>2019-05-04T09:43:51Z</time>
      </trkpt>
      <trkpt lat="47.19481" lon="-1.69409">
        <ele>7</ele>
        <time>2019-05-04T09:44:03Z</time>
      </trkpt>
      <trkpt lat="47.19461" lon="-1.69399">
        <ele>7</ele>
        <time>2019-05-04T09:44:09Z</time>
      </trkpt>
      <trkpt lat="47.19407" lon="-1.69464">
        <ele>18</ele>
        <time>2019-05-04T09:44:33Z</time>
      </trkpt>
      <trkpt lat="47.19366" lon="-1.69482">
        <ele>18</ele>
        <time>2019-05-04T09:44:45Z</time>
      </trkpt>
      <trkpt lat="47.1929" lon="-1.69468">
        <ele>18</ele>
        <time>2019-05-04T09:45:21Z</time>
      </trkpt>
      <trkpt lat="47.19282" lon="-1.6946">
        <ele>22</ele>
        <time>2019-05-04T09:45:36Z</time>
      </trkpt>
      <trkpt lat="47.19301" lon="-1.69435">
        <ele>22</ele>
        <time>2019-05-04T09:45:51Z</time>
      </trkpt>
      <trkpt lat="47.19365" lon="-1.69397">
        <ele>16</ele>
        <time>2019-05-04T09:46:33Z</time>
      </trkpt>
      <trkpt lat="47.19412" lon="-1.69286">
        <ele>14</ele>
        <time>2019-05-04T09:47:21Z</time>
      </trkpt>
      <trkpt lat="47.1937" lon="-1.6909">
        <ele>14</ele>
        <time>2019-05-04T09:48:45Z</time>
      </trkpt>
      <trkpt lat="47.19327" lon="-1.68993">
        <ele>23</ele>
        <time>2019-05-04T09:49:27Z</time>
      </trkpt>
      <trkpt lat="47.19293" lon="-1.6894">
        <ele>23</ele>
        <time>2019-05-04T09:49:51Z</time>
      </trkpt>
      <trkpt lat="47.19279" lon="-1.68896">
        <ele>18</ele>
        <time>2019-05-04T09:50:09Z</time>
      </trkpt>
      <trkpt lat="47.19239" lon="-1.68837">
        <ele>31</ele>
        <time>2019-05-04T09:50:45Z</time>
      </trkpt>
      <trkpt lat="47.19242" lon="-1.68801">
        <ele>31</ele>
        <time>2019-05-04T09:51:03Z</time>
      </trkpt>
      <trkpt lat="47.19222" lon="-1.6873">
        <ele>29</ele>
        <time>2019-05-04T09:51:15Z</time>
      </trkpt>
      <trkpt lat="47.19157" lon="-1.68676">
        <ele>35</ele>
        <time>2019-05-04T09:51:57Z</time>
      </trkpt>
      <trkpt lat="47.19155" lon="-1.68664">
        <ele>35</ele>
        <time>2019-05-04T09:52:03Z</time>
      </trkpt>
      <trkpt lat="47.19165" lon="-1.68656">
        <ele>29</ele>
        <time>2019-05-04T09:52:09Z</time>
      </trkpt>
      <trkpt lat="47.19167" lon="-1.68622">
        <ele>22</ele>
        <time>2019-05-04T09:52:21Z</time>
      </trkpt>
      <trkpt lat="47.19157" lon="-1.68567">
        <ele>35</ele>
        <time>2019-05-04T09:52:45Z</time>
      </trkpt>
      <trkpt lat="47.19146" lon="-1.68556">
        <ele>35</ele>
        <time>2019-05-04T09:52:51Z</time>
      </trkpt>
      <trkpt lat="47.19128" lon="-1.68495">
        <ele>32</ele>
        <time>2019-05-04T09:53:15Z</time>
      </trkpt>
      <trkpt lat="47.19158" lon="-1.68457">
        <ele>32</ele>
        <time>2019-05-04T09:53:33Z</time>
      </trkpt>
      <trkpt lat="47.19156" lon="-1.68336">
        <ele>27</ele>
        <time>2019-05-04T09:53:57Z</time>
      </trkpt>
      <trkpt lat="47.19152" lon="-1.68307">
        <ele>27</ele>
        <time>2019-05-04T09:54:03Z</time>
      </trkpt>
      <trkpt lat="47.19121" lon="-1.68243">
        <ele>27</ele>
        <time>2019-05-04T09:54:15Z</time>
      </trkpt>
      <trkpt lat="47.19117" lon="-1.68146">
        <ele>20</ele>
        <time>2019-05-04T09:54:27Z</time>
      </trkpt>
      <trkpt lat="47.19098" lon="-1.68075">
        <ele>7</ele>
        <time>2019-05-04T09:54:39Z</time>
      </trkpt>
      <trkpt lat="47.19057" lon="-1.68029">
        <ele>25</ele>
        <time>2019-05-04T09:54:51Z</time>
      </trkpt>
      <trkpt lat="47.19017" lon="-1.68018">
        <ele>25</ele>
        <time>2019-05-04T09:55:03Z</time>
      </trkpt>
      <trkpt lat="47.18985" lon="-1.6803">
        <ele>25</ele>
        <time>2019-05-04T09:55:27Z</time>
      </trkpt>
      <trkpt lat="47.18954" lon="-1.67974">
        <ele>35</ele>
        <time>2019-05-04T09:55:57Z</time>
      </trkpt>
      <trkpt lat="47.1892" lon="-1.67888">
        <ele>30</ele>
        <time>2019-05-04T09:56:15Z</time>
      </trkpt>
      <trkpt lat="47.18911" lon="-1.6777">
        <ele>25</ele>
        <time>2019-05-04T09:56:49Z</time>
      </trkpt>
      <trkpt lat="47.18895" lon="-1.67711">
        <ele>25</ele>
        <time>2019-05-04T09:57:13Z</time>
      </trkpt>
      <trkpt lat="47.18854" lon="-1.677">
        <ele>36</ele>
        <time>2019-05-04T09:57:37Z</time>
      </trkpt>
      <trkpt lat="47.18802" lon="-1.67716">
        <ele>36</ele>
        <time>2019-05-04T09:58:07Z</time>
      </trkpt>
      <trkpt lat="47.18752" lon="-1.6762">
        <ele>38</ele>
        <time>2019-05-04T09:58:43Z</time>
      </trkpt>
      <trkpt lat="47.18716" lon="-1.67622">
        <ele>38</ele>
        <time>2019-05-04T09:58:55Z</time>
      </trkpt>
      <trkpt lat="47.18679" lon="-1.67602">
        <ele>39</ele>
        <time>2019-05-04T09:59:07Z</time>
      </trkpt>
      <trkpt lat="47.18623" lon="-1.67521">
        <ele>39</ele>
        <time>2019-05-04T09:59:25Z</time>
      </trkpt>
      <trkpt lat="47.18594" lon="-1.67451">
        <ele>39</ele>
        <time>2019-05-04T09:59:37Z</time>
      </trkpt>
      <trkpt lat="47.18577" lon="-1.67437">
        <ele>39</ele>
        <time>2019-05-04T09:59:43Z</time>
      </trkpt>
      <trkpt lat="47.1855" lon="-1.67449">
        <ele>39</ele>
        <time>2019-05-04T09:59:49Z</time>
      </trkpt>
      <trkpt lat="47.18504" lon="-1.6744">
        <ele>37</ele>
        <time>2019-05-04T10:00:07Z</time>
      </trkpt>
      <trkpt lat="47.17758" lon="-1.67883">
        <ele>35</ele>
        <time>2019-05-04T10:02:49Z</time>
      </trkpt>
      <trkpt lat="47.17742" lon="-1.67889">
        <ele>35</ele>
        <time>2019-05-04T10:02:55Z</time>
      </trkpt>
      <trkpt lat="47.17725" lon="-1.67868">
        <ele>35</ele>
        <time>2019-05-04T10:03:07Z</time>
      </trkpt>
      <trkpt lat="47.1771" lon="-1.67811">
        <ele>35</ele>
        <time>2019-05-04T10:03:48Z</time>
      </trkpt>
      <trkpt lat="47.17698" lon="-1.67786">
        <ele>35</ele>
        <time>2019-05-04T10:04:10Z</time>
      </trkpt>
      <trkpt lat="47.17684" lon="-1.67776">
        <ele>35</ele>
        <time>2019-05-04T10:04:11Z</time>
      </trkpt>
      <trkpt lat="47.17711" lon="-1.67865">
        <ele>35</ele>
        <time>2019-05-04T10:04:22Z</time>
      </trkpt>
      <trkpt lat="47.17726" lon="-1.67885">
        <ele>35</ele>
        <time>2019-05-04T10:04:55Z</time>
      </trkpt>
      <trkpt lat="47.17633" lon="-1.68003">
        <ele>34</ele>
        <time>2019-05-04T10:05:34Z</time>
      </trkpt>
      <trkpt lat="47.17594" lon="-1.68082">
        <ele>34</ele>
        <time>2019-05-04T10:05:46Z</time>
      </trkpt>
      <trkpt lat="47.17565" lon="-1.68166">
        <ele>33</ele>
        <time>2019-05-04T10:06:04Z</time>
      </trkpt>
      <trkpt lat="47.17566" lon="-1.68181">
        <ele>32</ele>
        <time>2019-05-04T10:06:10Z</time>
      </trkpt>
      <trkpt lat="47.17588" lon="-1.68208">
        <ele>33</ele>
        <time>2019-05-04T10:06:26Z</time>
      </trkpt>
      <trkpt lat="47.17587" lon="-1.68219">
        <ele>33</ele>
        <time>2019-05-04T10:06:28Z</time>
      </trkpt>
      <trkpt lat="47.17571" lon="-1.68214">
        <ele>32</ele>
        <time>2019-05-04T10:06:34Z</time>
      </trkpt>
      <trkpt lat="47.1754" lon="-1.68228">
        <ele>32</ele>
        <time>2019-05-04T10:06:46Z</time>
      </trkpt>
      <trkpt lat="47.17486" lon="-1.68329">
        <ele>31</ele>
        <time>2019-05-04T10:07:16Z</time>
      </trkpt>
      <trkpt lat="47.17446" lon="-1.68364">
        <ele>32</ele>
        <time>2019-05-04T10:07:34Z</time>
      </trkpt>
      <trkpt lat="47.17394" lon="-1.68389">
        <ele>33</ele>
        <time>2019-05-04T10:07:52Z</time>
      </trkpt>
      <trkpt lat="47.17367" lon="-1.68421">
        <ele>33</ele>
        <time>2019-05-04T10:08:04Z</time>
      </trkpt>
      <trkpt lat="47.17328" lon="-1.68371">
        <ele>32</ele>
        <time>2019-05-04T10:08:27Z</time>
      </trkpt>
      <trkpt lat="47.1739" lon="-1.6838">
        <ele>33</ele>
        <time>2019-05-04T10:08:52Z</time>
      </trkpt>
      <trkpt lat="47.17451" lon="-1.68352">
        <ele>32</ele>
        <time>2019-05-04T10:09:10Z</time>
      </trkpt>
      <trkpt lat="47.17487" lon="-1.68312">
        <ele>31</ele>
        <time>2019-05-04T10:09:22Z</time>
      </trkpt>
      <trkpt lat="47.17518" lon="-1.68232">
        <ele>32</ele>
        <time>2019-05-04T10:09:34Z</time>
      </trkpt>
      <trkpt lat="47.17521" lon="-1.68176">
        <ele>32</ele>
        <time>2019-05-04T10:09:46Z</time>
      </trkpt>
      <trkpt lat="47.17554" lon="-1.68148">
        <ele>33</ele>
        <time>2019-05-04T10:09:58Z</time>
      </trkpt>
      <trkpt lat="47.17615" lon="-1.68013">
        <ele>33</ele>
        <time>2019-05-04T10:10:52Z</time>
      </trkpt>
      <trkpt lat="47.17618" lon="-1.67959">
        <ele>33</ele>
        <time>2019-05-04T10:11:04Z</time>
      </trkpt>
      <trkpt lat="47.17633" lon="-1.67911">
        <ele>34</ele>
        <time>2019-05-04T10:11:16Z</time>
      </trkpt>
      <trkpt lat="47.1763" lon="-1.67859">
        <ele>34</ele>
        <time>2019-05-04T10:11:45Z</time>
      </trkpt>
      <trkpt lat="47.1765" lon="-1.6791">
        <ele>34</ele>
        <time>2019-05-04T10:12:07Z</time>
      </trkpt>
      <trkpt lat="47.17667" lon="-1.67928">
        <ele>35</ele>
        <time>2019-05-04T10:12:24Z</time>
      </trkpt>
      <trkpt lat="47.17986" lon="-1.67745">
        <ele>34</ele>
        <time>2019-05-04T10:14:00Z</time>
      </trkpt>
      <trkpt lat="47.17972" lon="-1.67641">
        <ele>34</ele>
        <time>2019-05-04T10:14:34Z</time>
      </trkpt>
      <trkpt lat="47.17951" lon="-1.67552">
        <ele>34</ele>
        <time>2019-05-04T10:14:52Z</time>
      </trkpt>
      <trkpt lat="47.17907" lon="-1.67412">
        <ele>34</ele>
        <time>2019-05-04T10:15:28Z</time>
      </trkpt>
      <trkpt lat="47.17522" lon="-1.66701">
        <ele>32</ele>
        <time>2019-05-04T10:18:12Z</time>
      </trkpt>
      <trkpt lat="47.17475" lon="-1.66598">
        <ele>33</ele>
        <time>2019-05-04T10:18:36Z</time>
      </trkpt>
      <trkpt lat="47.17521" lon="-1.66542">
        <ele>34</ele>
        <time>2019-05-04T10:18:54Z</time>
      </trkpt>
      <trkpt lat="47.17746" lon="-1.66332">
        <ele>36</ele>
        <time>2019-05-04T10:20:00Z</time>
      </trkpt>
      <trkpt lat="47.17943" lon="-1.66089">
        <ele>38</ele>
        <time>2019-05-04T10:21:18Z</time>
      </trkpt>
      <trkpt lat="47.18078" lon="-1.65966">
        <ele>40</ele>
        <time>2019-05-04T10:22:12Z</time>
      </trkpt>
      <trkpt lat="47.18199" lon="-1.65818">
        <ele>39</ele>
        <time>2019-05-04T10:23:30Z</time>
      </trkpt>
      <trkpt lat="47.18092" lon="-1.6594">
        <ele>41</ele>
        <time>2019-05-04T10:24:42Z</time>
      </trkpt>
      <trkpt lat="47.18051" lon="-1.65885">
        <ele>41</ele>
        <time>2019-05-04T10:25:00Z</time>
      </trkpt>
      <trkpt lat="47.18025" lon="-1.65827">
        <ele>41</ele>
        <time>2019-05-04T10:25:12Z</time>
      </trkpt>
      <trkpt lat="47.17941" lon="-1.65557">
        <ele>39</ele>
        <time>2019-05-04T10:26:00Z</time>
      </trkpt>
      <trkpt lat="47.17912" lon="-1.65442">
        <ele>37</ele>
        <time>2019-05-04T10:26:18Z</time>
      </trkpt>
      <trkpt lat="47.17877" lon="-1.65343">
        <ele>34</ele>
        <time>2019-05-04T10:26:30Z</time>
      </trkpt>
      <trkpt lat="47.17858" lon="-1.65256">
        <ele>34</ele>
        <time>2019-05-04T10:26:48Z</time>
      </trkpt>
      <trkpt lat="47.17869" lon="-1.65285">
        <ele>34</ele>
        <time>2019-05-04T10:27:06Z</time>
      </trkpt>
      <trkpt lat="47.17928" lon="-1.65266">
        <ele>33</ele>
        <time>2019-05-04T10:27:47Z</time>
      </trkpt>
      <trkpt lat="47.17911" lon="-1.65266">
        <ele>33</ele>
        <time>2019-05-04T10:27:57Z</time>
      </trkpt>
      <trkpt lat="47.17879" lon="-1.65286">
        <ele>34</ele>
        <time>2019-05-04T10:28:10Z</time>
      </trkpt>
      <trkpt lat="47.17864" lon="-1.65266">
        <ele>34</ele>
        <time>2019-05-04T10:28:22Z</time>
      </trkpt>
      <trkpt lat="47.17857" lon="-1.6512">
        <ele>32</ele>
        <time>2019-05-04T10:28:52Z</time>
      </trkpt>
      <trkpt lat="47.17847" lon="-1.65061">
        <ele>36</ele>
        <time>2019-05-04T10:29:04Z</time>
      </trkpt>
      <trkpt lat="47.17848" lon="-1.65003">
        <ele>36</ele>
        <time>2019-05-04T10:29:16Z</time>
      </trkpt>
      <trkpt lat="47.17838" lon="-1.6493">
        <ele>36</ele>
        <time>2019-05-04T10:29:38Z</time>
      </trkpt>
      <trkpt lat="47.17927" lon="-1.64768">
        <ele>34</ele>
        <time>2019-05-04T10:30:16Z</time>
      </trkpt>
      <trkpt lat="47.1794" lon="-1.64724">
        <ele>34</ele>
        <time>2019-05-04T10:30:22Z</time>
      </trkpt>
      <trkpt lat="47.1798" lon="-1.6443">
        <ele>29</ele>
        <time>2019-05-04T10:30:58Z</time>
      </trkpt>
      <trkpt lat="47.1795" lon="-1.64293">
        <ele>30</ele>
        <time>2019-05-04T10:31:22Z</time>
      </trkpt>
      <trkpt lat="47.17878" lon="-1.64108">
        <ele>27</ele>
        <time>2019-05-04T10:31:52Z</time>
      </trkpt>
      <trkpt lat="47.17825" lon="-1.63922">
        <ele>24</ele>
        <time>2019-05-04T10:32:16Z</time>
      </trkpt>
      <trkpt lat="47.17815" lon="-1.63723">
        <ele>16</ele>
        <time>2019-05-04T10:32:40Z</time>
      </trkpt>
      <trkpt lat="47.17781" lon="-1.63663">
        <ele>14</ele>
        <time>2019-05-04T10:32:52Z</time>
      </trkpt>
      <trkpt lat="47.17821" lon="-1.6349">
        <ele>10</ele>
        <time>2019-05-04T10:33:16Z</time>
      </trkpt>
      <trkpt lat="47.17846" lon="-1.63211">
        <ele>10</ele>
        <time>2019-05-04T10:34:04Z</time>
      </trkpt>
      <trkpt lat="47.1785" lon="-1.63061">
        <ele>12</ele>
        <time>2019-05-04T10:34:34Z</time>
      </trkpt>
      <trkpt lat="47.17865" lon="-1.62921">
        <ele>18</ele>
        <time>2019-05-04T10:35:21Z</time>
      </trkpt>
      <trkpt lat="47.17861" lon="-1.62873">
        <ele>18</ele>
        <time>2019-05-04T10:35:40Z</time>
      </trkpt>
      <trkpt lat="47.17547" lon="-1.62403">
        <ele>21</ele>
        <time>2019-05-04T10:38:26Z</time>
      </trkpt>
      <trkpt lat="47.17505" lon="-1.62412">
        <ele>20</ele>
        <time>2019-05-04T10:38:38Z</time>
      </trkpt>
      <trkpt lat="47.1746" lon="-1.62374">
        <ele>19</ele>
        <time>2019-05-04T10:38:50Z</time>
      </trkpt>
      <trkpt lat="47.17361" lon="-1.62376">
        <ele>17</ele>
        <time>2019-05-04T10:39:20Z</time>
      </trkpt>
      <trkpt lat="47.17358" lon="-1.62389">
        <ele>17</ele>
        <time>2019-05-04T10:39:32Z</time>
      </trkpt>
      <trkpt lat="47.17366" lon="-1.62402">
        <ele>17</ele>
        <time>2019-05-04T10:39:47Z</time>
      </trkpt>
      <trkpt lat="47.17403" lon="-1.6236">
        <ele>18</ele>
        <time>2019-05-04T10:40:06Z</time>
      </trkpt>
      <trkpt lat="47.17491" lon="-1.62369">
        <ele>20</ele>
        <time>2019-05-04T10:40:41Z</time>
      </trkpt>
      <trkpt lat="47.17518" lon="-1.62351">
        <ele>20</ele>
        <time>2019-05-04T10:41:00Z</time>
      </trkpt>
      <trkpt lat="47.17626" lon="-1.62056">
        <ele>25</ele>
        <time>2019-05-04T10:42:30Z</time>
      </trkpt>
      <trkpt lat="47.17639" lon="-1.61984">
        <ele>25</ele>
        <time>2019-05-04T10:42:48Z</time>
      </trkpt>
      <trkpt lat="47.17662" lon="-1.61933">
        <ele>25</ele>
        <time>2019-05-04T10:43:00Z</time>
      </trkpt>
      <trkpt lat="47.17678" lon="-1.61864">
        <ele>25</ele>
        <time>2019-05-04T10:43:12Z</time>
      </trkpt>
      <trkpt lat="47.1769" lon="-1.61738">
        <ele>21</ele>
        <time>2019-05-04T10:43:30Z</time>
      </trkpt>
      <trkpt lat="47.1769" lon="-1.61619">
        <ele>16</ele>
        <time>2019-05-04T10:43:42Z</time>
      </trkpt>
      <trkpt lat="47.17676" lon="-1.61505">
        <ele>14</ele>
        <time>2019-05-04T10:43:54Z</time>
      </trkpt>
      <trkpt lat="47.17652" lon="-1.61456">
        <ele>14</ele>
        <time>2019-05-04T10:44:00Z</time>
      </trkpt>
      <trkpt lat="47.17585" lon="-1.61386">
        <ele>13</ele>
        <time>2019-05-04T10:44:12Z</time>
      </trkpt>
      <trkpt lat="47.17531" lon="-1.61346">
        <ele>12</ele>
        <time>2019-05-04T10:44:24Z</time>
      </trkpt>
      <trkpt lat="47.17512" lon="-1.6128">
        <ele>11</ele>
        <time>2019-05-04T10:44:36Z</time>
      </trkpt>
      <trkpt lat="47.17431" lon="-1.61089">
        <ele>8</ele>
        <time>2019-05-04T10:45:06Z</time>
      </trkpt>
      <trkpt lat="47.17387" lon="-1.61023">
        <ele>6</ele>
        <time>2019-05-04T10:45:18Z</time>
      </trkpt>
      <trkpt lat="47.17393" lon="-1.60881">
        <ele>11</ele>
        <time>2019-05-04T10:45:41Z</time>
      </trkpt>
      <trkpt lat="47.17416" lon="-1.60769">
        <ele>15</ele>
        <time>2019-05-04T10:46:18Z</time>
      </trkpt>
      <trkpt lat="47.17501" lon="-1.60607">
        <ele>17</ele>
        <time>2019-05-04T10:47:23Z</time>
      </trkpt>
      <trkpt lat="47.17627" lon="-1.60407">
        <ele>19</ele>
        <time>2019-05-04T10:48:36Z</time>
      </trkpt>
      <trkpt lat="47.17704" lon="-1.60304">
        <ele>20</ele>
        <time>2019-05-04T10:49:18Z</time>
      </trkpt>
      <trkpt lat="47.17727" lon="-1.60257">
        <ele>15</ele>
        <time>2019-05-04T10:49:30Z</time>
      </trkpt>
      <trkpt lat="47.17768" lon="-1.6014">
        <ele>10</ele>
        <time>2019-05-04T10:49:54Z</time>
      </trkpt>
      <trkpt lat="47.17877" lon="-1.59955">
        <ele>8</ele>
        <time>2019-05-04T10:50:30Z</time>
      </trkpt>
      <trkpt lat="47.17926" lon="-1.59887">
        <ele>3</ele>
        <time>2019-05-04T10:50:54Z</time>
      </trkpt>
      <trkpt lat="47.17957" lon="-1.59763">
        <ele>15</ele>
        <time>2019-05-04T10:51:42Z</time>
      </trkpt>
      <trkpt lat="47.17955" lon="-1.59731">
        <ele>15</ele>
        <time>2019-05-04T10:51:54Z</time>
      </trkpt>
      <trkpt lat="47.17986" lon="-1.59671">
        <ele>19</ele>
        <time>2019-05-04T10:52:18Z</time>
      </trkpt>
      <trkpt lat="47.1801" lon="-1.59541">
        <ele>23</ele>
        <time>2019-05-04T10:53:00Z</time>
      </trkpt>
      <trkpt lat="47.18047" lon="-1.5946">
        <ele>23</ele>
        <time>2019-05-04T10:53:36Z</time>
      </trkpt>
      <trkpt lat="47.18052" lon="-1.59417">
        <ele>23</ele>
        <time>2019-05-04T10:53:48Z</time>
      </trkpt>
      <trkpt lat="47.18249" lon="-1.59231">
        <ele>22</ele>
        <time>2019-05-04T10:55:28Z</time>
      </trkpt>
      <trkpt lat="47.18267" lon="-1.59197">
        <ele>22</ele>
        <time>2019-05-04T10:55:40Z</time>
      </trkpt>
      <trkpt lat="47.18315" lon="-1.59246">
        <ele>21</ele>
        <time>2019-05-04T10:55:58Z</time>
      </trkpt>
      <trkpt lat="47.184" lon="-1.59297">
        <ele>18</ele>
        <time>2019-05-04T10:56:16Z</time>
      </trkpt>
      <trkpt lat="47.1847" lon="-1.59315">
        <ele>14</ele>
        <time>2019-05-04T10:56:28Z</time>
      </trkpt>
      <trkpt lat="47.18545" lon="-1.59313">
        <ele>11</ele>
        <time>2019-05-04T10:56:40Z</time>
      </trkpt>
      <trkpt lat="47.18572" lon="-1.59255">
        <ele>9</ele>
        <time>2019-05-04T10:56:52Z</time>
      </trkpt>
      <trkpt lat="47.18615" lon="-1.58932">
        <ele>10</ele>
        <time>2019-05-04T10:57:46Z</time>
      </trkpt>
      <trkpt lat="47.18627" lon="-1.5891">
        <ele>10</ele>
        <time>2019-05-04T10:57:52Z</time>
      </trkpt>
      <trkpt lat="47.18686" lon="-1.5891">
        <ele>8</ele>
        <time>2019-05-04T10:58:10Z</time>
      </trkpt>
      <trkpt lat="47.18695" lon="-1.58889">
        <ele>7</ele>
        <time>2019-05-04T10:58:16Z</time>
      </trkpt>
      <trkpt lat="47.18729" lon="-1.58696">
        <ele>7</ele>
        <time>2019-05-04T10:58:58Z</time>
      </trkpt>
      <trkpt lat="47.18768" lon="-1.58703">
        <ele>8</ele>
        <time>2019-05-04T10:59:16Z</time>
      </trkpt>
      <trkpt lat="47.188" lon="-1.58683">
        <ele>8</ele>
        <time>2019-05-04T10:59:42Z</time>
      </trkpt>
      <trkpt lat="47.18831" lon="-1.58718">
        <ele>8</ele>
        <time>2019-05-04T11:00:05Z</time>
      </trkpt>
      <trkpt lat="47.1887" lon="-1.58711">
        <ele>7</ele>
        <time>2019-05-04T11:00:24Z</time>
      </trkpt>
      <trkpt lat="47.18905" lon="-1.58692">
        <ele>7</ele>
        <time>2019-05-04T11:00:42Z</time>
      </trkpt>
      <trkpt lat="47.19067" lon="-1.58534">
        <ele>6</ele>
        <time>2019-05-04T11:02:19Z</time>
      </trkpt>
      <trkpt lat="47.19071" lon="-1.58544">
        <ele>6</ele>
        <time>2019-05-04T11:02:31Z</time>
      </trkpt>
      <trkpt lat="47.19109" lon="-1.58509">
        <ele>6</ele>
        <time>2019-05-04T11:02:49Z</time>
      </trkpt>
      <trkpt lat="47.19159" lon="-1.58517">
        <ele>6</ele>
        <time>2019-05-04T11:03:06Z</time>
      </trkpt>
      <trkpt lat="47.19197" lon="-1.58582">
        <ele>6</ele>
        <time>2019-05-04T11:03:31Z</time>
      </trkpt>
      <trkpt lat="47.1925" lon="-1.58565">
        <ele>6</ele>
        <time>2019-05-04T11:03:49Z</time>
      </trkpt>
      <trkpt lat="47.19273" lon="-1.58518">
        <ele>5</ele>
        <time>2019-05-04T11:04:01Z</time>
      </trkpt>
      <trkpt lat="47.19287" lon="-1.58526">
        <ele>5</ele>
        <time>2019-05-04T11:04:07Z</time>
      </trkpt>
      <trkpt lat="47.19317" lon="-1.58592">
        <ele>5</ele>
        <time>2019-05-04T11:04:25Z</time>
      </trkpt>
      <trkpt lat="47.19337" lon="-1.58614">
        <ele>5</ele>
        <time>2019-05-04T11:04:36Z</time>
      </trkpt>
      <trkpt lat="47.19351" lon="-1.58604">
        <ele>5</ele>
        <time>2019-05-04T11:04:43Z</time>
      </trkpt>
      <trkpt lat="47.19393" lon="-1.58494">
        <ele>7</ele>
        <time>2019-05-04T11:05:13Z</time>
      </trkpt>
      <trkpt lat="47.19436" lon="-1.58436">
        <ele>9</ele>
        <time>2019-05-04T11:05:37Z</time>
      </trkpt>
      <trkpt lat="47.19519" lon="-1.5826">
        <ele>4</ele>
        <time>2019-05-04T11:06:36Z</time>
      </trkpt>
      <trkpt lat="47.19529" lon="-1.58232">
        <ele>4</ele>
        <time>2019-05-04T11:06:49Z</time>
      </trkpt>
      <trkpt lat="47.19532" lon="-1.58171">
        <ele>1</ele>
        <time>2019-05-04T11:07:07Z</time>
      </trkpt>
      <trkpt lat="47.19529" lon="-1.58064">
        <ele>3</ele>
        <time>2019-05-04T11:07:52Z</time>
      </trkpt>
      <trkpt lat="47.19517" lon="-1.5801">
        <ele>3</ele>
        <time>2019-05-04T11:08:35Z</time>
      </trkpt>
      <trkpt lat="47.19503" lon="-1.58011">
        <ele>3</ele>
        <time>2019-05-04T11:08:50Z</time>
      </trkpt>
      <trkpt lat="47.19515" lon="-1.58024">
        <ele>3</ele>
        <time>2019-05-04T11:09:08Z</time>
      </trkpt>
      <trkpt lat="47.19507" lon="-1.58011">
        <ele>3</ele>
        <time>2019-05-04T11:09:16Z</time>
      </trkpt>
      <trkpt lat="47.19525" lon="-1.58022">
        <ele>3</ele>
        <time>2019-05-04T11:09:29Z</time>
      </trkpt>
      <trkpt lat="47.19506" lon="-1.57999">
        <ele>3</ele>
        <time>2019-05-04T11:10:10Z</time>
      </trkpt>
      <trkpt lat="47.19483" lon="-1.57884">
        <ele>5</ele>
        <time>2019-05-04T11:10:35Z</time>
      </trkpt>
      <trkpt lat="47.1948" lon="-1.57829">
        <ele>5</ele>
        <time>2019-05-04T11:10:47Z</time>
      </trkpt>
      <trkpt lat="47.1958" lon="-1.57322">
        <ele>6</ele>
        <time>2019-05-04T11:12:23Z</time>
      </trkpt>
      <trkpt lat="47.19592" lon="-1.57151">
        <ele>7</ele>
        <time>2019-05-04T11:12:53Z</time>
      </trkpt>
      <trkpt lat="47.19577" lon="-1.5713">
        <ele>8</ele>
        <time>2019-05-04T11:12:59Z</time>
      </trkpt>
      <trkpt lat="47.19499" lon="-1.57109">
        <ele>8</ele>
        <time>2019-05-04T11:13:41Z</time>
      </trkpt>
      <trkpt lat="47.19452" lon="-1.57109">
        <ele>8</ele>
        <time>2019-05-04T11:14:05Z</time>
      </trkpt>
      <trkpt lat="47.19437" lon="-1.57097">
        <ele>7</ele>
        <time>2019-05-04T11:14:27Z</time>
      </trkpt>
      <trkpt lat="47.19452" lon="-1.57053">
        <ele>7</ele>
        <time>2019-05-04T11:14:57Z</time>
      </trkpt>
      <trkpt lat="47.19456" lon="-1.57023">
        <ele>7</ele>
        <time>2019-05-04T11:15:21Z</time>
      </trkpt>
      <trkpt lat="47.19451" lon="-1.57028">
        <ele>7</ele>
        <time>2019-05-04T11:15:38Z</time>
      </trkpt>
      <trkpt lat="47.19481" lon="-1.56863">
        <ele>7</ele>
        <time>2019-05-04T11:16:15Z</time>
      </trkpt>
      <trkpt lat="47.19531" lon="-1.56772">
        <ele>7</ele>
        <time>2019-05-04T11:16:33Z</time>
      </trkpt>
      <trkpt lat="47.19555" lon="-1.56698">
        <ele>7</ele>
        <time>2019-05-04T11:16:45Z</time>
      </trkpt>
      <trkpt lat="47.19571" lon="-1.56617">
        <ele>9</ele>
        <time>2019-05-04T11:16:57Z</time>
      </trkpt>
      <trkpt lat="47.19574" lon="-1.56491">
        <ele>9</ele>
        <time>2019-05-04T11:17:15Z</time>
      </trkpt>
      <trkpt lat="47.19556" lon="-1.56294">
        <ele>5</ele>
        <time>2019-05-04T11:17:45Z</time>
      </trkpt>
      <trkpt lat="47.19539" lon="-1.5624">
        <ele>5</ele>
        <time>2019-05-04T11:17:57Z</time>
      </trkpt>
      <trkpt lat="47.19569" lon="-1.56213">
        <ele>5</ele>
        <time>2019-05-04T11:18:15Z</time>
      </trkpt>
      <trkpt lat="47.19451" lon="-1.56233">
        <ele>4</ele>
        <time>2019-05-04T11:18:53Z</time>
      </trkpt>
      <trkpt lat="47.19438" lon="-1.56228">
        <ele>4</ele>
        <time>2019-05-04T11:19:05Z</time>
      </trkpt>
      <trkpt lat="47.1945" lon="-1.56235">
        <ele>4</ele>
        <time>2019-05-04T11:19:17Z</time>
      </trkpt>
      <trkpt lat="47.19572" lon="-1.56219">
        <ele>5</ele>
        <time>2019-05-04T11:19:53Z</time>
      </trkpt>
      <trkpt lat="47.19642" lon="-1.56197">
        <ele>5</ele>
        <time>2019-05-04T11:20:17Z</time>
      </trkpt>
      <trkpt lat="47.19694" lon="-1.562">
        <ele>3</ele>
        <time>2019-05-04T11:20:41Z</time>
      </trkpt>
      <trkpt lat="47.19943" lon="-1.5615">
        <ele>8.1</ele>
        <time>2019-05-04T11:22:11Z</time>
      </trkpt>
      <trkpt lat="47.19955" lon="-1.56131">
        <ele>4</ele>
        <time>2019-05-04T11:22:17Z</time>
      </trkpt>
      <trkpt lat="47.1994" lon="-1.56092">
        <ele>6.1</ele>
        <time>2019-05-04T11:22:30Z</time>
      </trkpt>
      <trkpt lat="47.19954" lon="-1.56123">
        <ele>4</ele>
        <time>2019-05-04T11:22:37Z</time>
      </trkpt>
      <trkpt lat="47.19952" lon="-1.56141">
        <ele>4</ele>
        <time>2019-05-04T11:22:43Z</time>
      </trkpt>
      <trkpt lat="47.19942" lon="-1.56149">
        <ele>7.8</ele>
        <time>2019-05-04T11:22:54Z</time>
      </trkpt>
      <trkpt lat="47.19951" lon="-1.56146">
        <ele>8.2</ele>
        <time>2019-05-04T11:22:55Z</time>
      </trkpt>
      <trkpt lat="47.19955" lon="-1.56123">
        <ele>4</ele>
        <time>2019-05-04T11:23:01Z</time>
      </trkpt>
      <trkpt lat="47.19942" lon="-1.56096">
        <ele>6.5</ele>
        <time>2019-05-04T11:23:07Z</time>
      </trkpt>
      <trkpt lat="47.19932" lon="-1.56036">
        <ele>7.3</ele>
        <time>2019-05-04T11:23:19Z</time>
      </trkpt>
      <trkpt lat="47.1993" lon="-1.55807">
        <ele>7</ele>
        <time>2019-05-04T11:24:07Z</time>
      </trkpt>
      <trkpt lat="47.19931" lon="-1.5572">
        <ele>5.5</ele>
        <time>2019-05-04T11:24:25Z</time>
      </trkpt>
      <trkpt lat="47.19948" lon="-1.5567">
        <ele>7</ele>
        <time>2019-05-04T11:24:37Z</time>
      </trkpt>
      <trkpt lat="47.20019" lon="-1.55627">
        <ele>8</ele>
        <time>2019-05-04T11:25:01Z</time>
      </trkpt>
      <trkpt lat="47.20047" lon="-1.55595">
        <ele>8</ele>
        <time>2019-05-04T11:25:13Z</time>
      </trkpt>
      <trkpt lat="47.20132" lon="-1.5548">
        <ele>9</ele>
        <time>2019-05-04T11:25:55Z</time>
      </trkpt>
      <trkpt lat="47.20146" lon="-1.55426">
        <ele>9</ele>
        <time>2019-05-04T11:26:22Z</time>
      </trkpt>
      <trkpt lat="47.20204" lon="-1.55387">
        <ele>9</ele>
        <time>2019-05-04T11:26:44Z</time>
      </trkpt>
      <trkpt lat="47.20361" lon="-1.55173">
        <ele>9</ele>
        <time>2019-05-04T11:27:54Z</time>
      </trkpt>
      <trkpt lat="47.2041" lon="-1.55075">
        <ele>8</ele>
        <time>2019-05-04T11:28:18Z</time>
      </trkpt>
      <trkpt lat="47.20508" lon="-1.54765">
        <ele>11</ele>
        <time>2019-05-04T11:29:51Z</time>
      </trkpt>
      <trkpt lat="47.20542" lon="-1.54752">
        <ele>11</ele>
        <time>2019-05-04T11:30:13Z</time>
      </trkpt>
      <trkpt lat="47.20581" lon="-1.54756">
        <ele>11</ele>
        <time>2019-05-04T11:30:46Z</time>
      </trkpt>
      <trkpt lat="47.20617" lon="-1.54795">
        <ele>10</ele>
        <time>2019-05-04T11:31:08Z</time>
      </trkpt>
      <trkpt lat="47.20671" lon="-1.54825">
        <ele>10</ele>
        <time>2019-05-04T11:31:32Z</time>
      </trkpt>
      <trkpt lat="47.2071" lon="-1.54787">
        <ele>9</ele>
        <time>2019-05-04T11:31:55Z</time>
      </trkpt>
      <trkpt lat="47.20747" lon="-1.54712">
        <ele>7</ele>
        <time>2019-05-04T11:32:19Z</time>
      </trkpt>
      <trkpt lat="47.20934" lon="-1.54134">
        <ele>8</ele>
        <time>2019-05-04T11:34:06Z</time>
      </trkpt>
      <trkpt lat="47.20992" lon="-1.53904">
        <ele>7</ele>
        <time>2019-05-04T11:34:48Z</time>
      </trkpt>
      <trkpt lat="47.2097" lon="-1.53846">
        <ele>8</ele>
        <time>2019-05-04T11:35:00Z</time>
      </trkpt>
      <trkpt lat="47.2085" lon="-1.53696">
        <ele>12</ele>
        <time>2019-05-04T11:36:02Z</time>
      </trkpt>
      <trkpt lat="47.20839" lon="-1.53662">
        <ele>11</ele>
        <time>2019-05-04T11:36:14Z</time>
      </trkpt>
      <trkpt lat="47.20836" lon="-1.5361">
        <ele>10</ele>
        <time>2019-05-04T11:36:48Z</time>
      </trkpt>
      <trkpt lat="47.20904" lon="-1.53545">
        <ele>10</ele>
        <time>2019-05-04T11:38:29Z</time>
      </trkpt>
      <trkpt lat="47.20945" lon="-1.53552">
        <ele>10</ele>
        <time>2019-05-04T11:38:39Z</time>
      </trkpt>
      <trkpt lat="47.21003" lon="-1.53537">
        <ele>7</ele>
        <time>2019-05-04T11:39:01Z</time>
      </trkpt>
      <trkpt lat="47.21068" lon="-1.53549">
        <ele>5</ele>
        <time>2019-05-04T11:39:25Z</time>
      </trkpt>
      <trkpt lat="47.21224" lon="-1.53615">
        <ele>1</ele>
        <time>2019-05-04T11:40:13Z</time>
      </trkpt>
      <trkpt lat="47.21273" lon="-1.53602">
        <ele>3</ele>
        <time>2019-05-04T11:40:37Z</time>
      </trkpt>
      <trkpt lat="47.21285" lon="-1.53567">
        <ele>3</ele>
        <time>2019-05-04T11:40:48Z</time>
      </trkpt>
      <trkpt lat="47.21312" lon="-1.53193">
        <ele>7</ele>
        <time>2019-05-04T11:43:18Z</time>
      </trkpt>
      <trkpt lat="47.21324" lon="-1.53116">
        <ele>1</ele>
        <time>2019-05-04T11:43:29Z</time>
      </trkpt>
      <trkpt lat="47.21336" lon="-1.52956">
        <ele>1</ele>
        <time>2019-05-04T11:44:14Z</time>
      </trkpt>
      <trkpt lat="47.21408" lon="-1.52612">
        <ele>4</ele>
        <time>2019-05-04T11:45:38Z</time>
      </trkpt>
      <trkpt lat="47.21656" lon="-1.5184">
        <ele>2</ele>
        <time>2019-05-04T11:49:03Z</time>
      </trkpt>
      <trkpt lat="47.21713" lon="-1.51698">
        <ele>3</ele>
        <time>2019-05-04T11:49:33Z</time>
      </trkpt>
      <trkpt lat="47.21806" lon="-1.51508">
        <ele>5</ele>
        <time>2019-05-04T11:50:15Z</time>
      </trkpt>
      <trkpt lat="47.21838" lon="-1.51372">
        <ele>3</ele>
        <time>2019-05-04T11:50:39Z</time>
      </trkpt>
      <trkpt lat="47.21923" lon="-1.51099">
        <ele>4</ele>
        <time>2019-05-04T11:51:32Z</time>
      </trkpt>
      <trkpt lat="47.21947" lon="-1.51059">
        <ele>1</ele>
        <time>2019-05-04T11:51:44Z</time>
      </trkpt>
      <trkpt lat="47.21998" lon="-1.5087">
        <ele>2</ele>
        <time>2019-05-04T11:52:20Z</time>
      </trkpt>
      <trkpt lat="47.22021" lon="-1.50822">
        <ele>5</ele>
        <time>2019-05-04T11:52:32Z</time>
      </trkpt>
      <trkpt lat="47.22052" lon="-1.50672">
        <ele>6</ele>
        <time>2019-05-04T11:52:56Z</time>
      </trkpt>
      <trkpt lat="47.22068" lon="-1.50435">
        <ele>1</ele>
        <time>2019-05-04T11:53:32Z</time>
      </trkpt>
      <trkpt lat="47.22092" lon="-1.50341">
        <ele>1</ele>
        <time>2019-05-04T11:53:50Z</time>
      </trkpt>
      <trkpt lat="47.22133" lon="-1.5025">
        <ele>3</ele>
        <time>2019-05-04T11:54:08Z</time>
      </trkpt>
      <trkpt lat="47.22181" lon="-1.50086">
        <ele>2</ele>
        <time>2019-05-04T11:54:38Z</time>
      </trkpt>
      <trkpt lat="47.22192" lon="-1.50018">
        <ele>3</ele>
        <time>2019-05-04T11:54:50Z</time>
      </trkpt>
      <trkpt lat="47.22222" lon="-1.49918">
        <ele>4</ele>
        <time>2019-05-04T11:55:08Z</time>
      </trkpt>
      <trkpt lat="47.22288" lon="-1.49632">
        <ele>6</ele>
        <time>2019-05-04T11:55:56Z</time>
      </trkpt>
      <trkpt lat="47.22487" lon="-1.49099">
        <ele>4</ele>
        <time>2019-05-04T11:57:26Z</time>
      </trkpt>
      <trkpt lat="47.22632" lon="-1.48621">
        <ele>2</ele>
        <time>2019-05-04T11:58:50Z</time>
      </trkpt>
      <trkpt lat="47.22711" lon="-1.4841">
        <ele>2</ele>
        <time>2019-05-04T11:59:44Z</time>
      </trkpt>
      <trkpt lat="47.22903" lon="-1.48127">
        <ele>3</ele>
        <time>2019-05-04T12:00:56Z</time>
      </trkpt>
      <trkpt lat="47.22949" lon="-1.48108">
        <ele>4</ele>
        <time>2019-05-04T12:01:08Z</time>
      </trkpt>
      <trkpt lat="47.23004" lon="-1.48012">
        <ele>5</ele>
        <time>2019-05-04T12:01:32Z</time>
      </trkpt>
      <trkpt lat="47.23119" lon="-1.47857">
        <ele>5</ele>
        <time>2019-05-04T12:02:14Z</time>
      </trkpt>
      <trkpt lat="47.232" lon="-1.47658">
        <ele>4</ele>
        <time>2019-05-04T12:02:56Z</time>
      </trkpt>
      <trkpt lat="47.23258" lon="-1.47537">
        <ele>2</ele>
        <time>2019-05-04T12:03:26Z</time>
      </trkpt>
      <trkpt lat="47.23307" lon="-1.47505">
        <ele>3</ele>
        <time>2019-05-04T12:03:44Z</time>
      </trkpt>
      <trkpt lat="47.23338" lon="-1.47465">
        <ele>3</ele>
        <time>2019-05-04T12:03:56Z</time>
      </trkpt>
      <trkpt lat="47.23412" lon="-1.47437">
        <ele>6</ele>
        <time>2019-05-04T12:04:20Z</time>
      </trkpt>
      <trkpt lat="47.23553" lon="-1.47341">
        <ele>4</ele>
        <time>2019-05-04T12:05:02Z</time>
      </trkpt>
      <trkpt lat="47.23663" lon="-1.47231">
        <ele>7</ele>
        <time>2019-05-04T12:05:38Z</time>
      </trkpt>
      <trkpt lat="47.23923" lon="-1.46871">
        <ele>2</ele>
        <time>2019-05-04T12:08:06Z</time>
      </trkpt>
      <trkpt lat="47.24045" lon="-1.46755">
        <ele>4</ele>
        <time>2019-05-04T12:09:17Z</time>
      </trkpt>
      <trkpt lat="47.24237" lon="-1.46504">
        <ele>3</ele>
        <time>2019-05-04T12:10:40Z</time>
      </trkpt>
      <trkpt lat="47.24412" lon="-1.46245">
        <ele>6</ele>
        <time>2019-05-04T12:11:41Z</time>
      </trkpt>
      <trkpt lat="47.24511" lon="-1.4612">
        <ele>6</ele>
        <time>2019-05-04T12:12:39Z</time>
      </trkpt>
      <trkpt lat="47.24623" lon="-1.45888">
        <ele>6</ele>
        <time>2019-05-04T12:13:33Z</time>
      </trkpt>
      <trkpt lat="47.24713" lon="-1.45543">
        <ele>4</ele>
        <time>2019-05-04T12:14:39Z</time>
      </trkpt>
      <trkpt lat="47.24753" lon="-1.45454">
        <ele>4</ele>
        <time>2019-05-04T12:15:03Z</time>
      </trkpt>
      <trkpt lat="47.24779" lon="-1.45373">
        <ele>5</ele>
        <time>2019-05-04T12:15:21Z</time>
      </trkpt>
      <trkpt lat="47.2485" lon="-1.45247">
        <ele>5</ele>
        <time>2019-05-04T12:15:51Z</time>
      </trkpt>
      <trkpt lat="47.24906" lon="-1.45167">
        <ele>5</ele>
        <time>2019-05-04T12:16:09Z</time>
      </trkpt>
      <trkpt lat="47.24976" lon="-1.45093">
        <ele>5</ele>
        <time>2019-05-04T12:16:33Z</time>
      </trkpt>
      <trkpt lat="47.24972" lon="-1.45085">
        <ele>5</ele>
        <time>2019-05-04T12:16:45Z</time>
      </trkpt>
      <trkpt lat="47.25017" lon="-1.45171">
        <ele>6</ele>
        <time>2019-05-04T12:17:33Z</time>
      </trkpt>
      <trkpt lat="47.25012" lon="-1.45143">
        <ele>6</ele>
        <time>2019-05-04T12:17:45Z</time>
      </trkpt>
      <trkpt lat="47.24991" lon="-1.45108">
        <ele>6</ele>
        <time>2019-05-04T12:17:57Z</time>
      </trkpt>
      <trkpt lat="47.24994" lon="-1.45075">
        <ele>6</ele>
        <time>2019-05-04T12:18:09Z</time>
      </trkpt>
      <trkpt lat="47.25225" lon="-1.44873">
        <ele>5</ele>
        <time>2019-05-04T12:19:21Z</time>
      </trkpt>
      <trkpt lat="47.25371" lon="-1.44713">
        <ele>6</ele>
        <time>2019-05-04T12:20:09Z</time>
      </trkpt>
      <trkpt lat="47.25556" lon="-1.44446">
        <ele>5</ele>
        <time>2019-05-04T12:21:15Z</time>
      </trkpt>
      <trkpt lat="47.25645" lon="-1.4435">
        <ele>6</ele>
        <time>2019-05-04T12:21:45Z</time>
      </trkpt>
      <trkpt lat="47.25802" lon="-1.4415">
        <ele>5</ele>
        <time>2019-05-04T12:22:39Z</time>
      </trkpt>
      <trkpt lat="47.25857" lon="-1.44093">
        <ele>5</ele>
        <time>2019-05-04T12:22:57Z</time>
      </trkpt>
      <trkpt lat="47.25889" lon="-1.44027">
        <ele>6</ele>
        <time>2019-05-04T12:23:09Z</time>
      </trkpt>
      <trkpt lat="47.26015" lon="-1.43884">
        <ele>5</ele>
        <time>2019-05-04T12:23:45Z</time>
      </trkpt>
      <trkpt lat="47.26097" lon="-1.43756">
        <ele>5</ele>
        <time>2019-05-04T12:24:21Z</time>
      </trkpt>
      <trkpt lat="47.26107" lon="-1.43751">
        <ele>7</ele>
        <time>2019-05-04T12:24:27Z</time>
      </trkpt>
      <trkpt lat="47.26188" lon="-1.43835">
        <ele>9</ele>
        <time>2019-05-04T12:25:15Z</time>
      </trkpt>
      <trkpt lat="47.26271" lon="-1.43939">
        <ele>11</ele>
        <time>2019-05-04T12:25:57Z</time>
      </trkpt>
      <trkpt lat="47.2645" lon="-1.4396">
        <ele>11</ele>
        <time>2019-05-04T12:27:03Z</time>
      </trkpt>
      <trkpt lat="47.26497" lon="-1.43975">
        <ele>11</ele>
        <time>2019-05-04T12:27:29Z</time>
      </trkpt>
      <trkpt lat="47.26508" lon="-1.43966">
        <ele>11</ele>
        <time>2019-05-04T12:27:35Z</time>
      </trkpt>
      <trkpt lat="47.26633" lon="-1.4412">
        <ele>12</ele>
        <time>2019-05-04T12:28:35Z</time>
      </trkpt>
      <trkpt lat="47.26648" lon="-1.44129">
        <ele>12</ele>
        <time>2019-05-04T12:28:41Z</time>
      </trkpt>
      <trkpt lat="47.2667" lon="-1.4412">
        <ele>13</ele>
        <time>2019-05-04T12:28:53Z</time>
      </trkpt>
      <trkpt lat="47.26669" lon="-1.44142">
        <ele>12</ele>
        <time>2019-05-04T12:29:15Z</time>
      </trkpt>
      <trkpt lat="47.26654" lon="-1.44125">
        <ele>12</ele>
        <time>2019-05-04T12:29:39Z</time>
      </trkpt>
      <trkpt lat="47.26644" lon="-1.44136">
        <ele>12</ele>
        <time>2019-05-04T12:29:51Z</time>
      </trkpt>
      <trkpt lat="47.26624" lon="-1.44105">
        <ele>12</ele>
        <time>2019-05-04T12:31:09Z</time>
      </trkpt>
      <trkpt lat="47.2668" lon="-1.4409">
        <ele>13</ele>
        <time>2019-05-04T12:31:20Z</time>
      </trkpt>
      <trkpt lat="47.26723" lon="-1.44016">
        <ele>13</ele>
        <time>2019-05-04T12:32:48Z</time>
      </trkpt>
      <trkpt lat="47.26715" lon="-1.44004">
        <ele>13</ele>
        <time>2019-05-04T12:33:02Z</time>
      </trkpt>
      <trkpt lat="47.26701" lon="-1.44058">
        <ele>13</ele>
        <time>2019-05-04T12:33:23Z</time>
      </trkpt>
      <trkpt lat="47.26659" lon="-1.44115">
        <ele>12</ele>
        <time>2019-05-04T12:34:52Z</time>
      </trkpt>
      <trkpt lat="47.26636" lon="-1.44114">
        <ele>12</ele>
        <time>2019-05-04T12:35:02Z</time>
      </trkpt>
      <trkpt lat="47.26567" lon="-1.44037">
        <ele>11</ele>
        <time>2019-05-04T12:35:47Z</time>
      </trkpt>
      <trkpt lat="47.25929" lon="-1.43122">
        <ele>5</ele>
        <time>2019-05-04T12:38:44Z</time>
      </trkpt>
      <trkpt lat="47.2577" lon="-1.42732">
        <ele>2</ele>
        <time>2019-05-04T12:39:55Z</time>
      </trkpt>
      <trkpt lat="47.25719" lon="-1.42629">
        <ele>4</ele>
        <time>2019-05-04T12:40:13Z</time>
      </trkpt>
      <trkpt lat="47.25717" lon="-1.42607">
        <ele>8</ele>
        <time>2019-05-04T12:40:20Z</time>
      </trkpt>
      <trkpt lat="47.25724" lon="-1.42604">
        <ele>8</ele>
        <time>2019-05-04T12:40:27Z</time>
      </trkpt>
      <trkpt lat="47.25708" lon="-1.42572">
        <ele>8</ele>
        <time>2019-05-04T12:40:33Z</time>
      </trkpt>
      <trkpt lat="47.25671" lon="-1.42289">
        <ele>6</ele>
        <time>2019-05-04T12:41:09Z</time>
      </trkpt>
      <trkpt lat="47.25558" lon="-1.41222">
        <ele>6</ele>
        <time>2019-05-04T12:43:33Z</time>
      </trkpt>
      <trkpt lat="47.25531" lon="-1.41103">
        <ele>3</ele>
        <time>2019-05-04T12:43:51Z</time>
      </trkpt>
      <trkpt lat="47.25495" lon="-1.4105">
        <ele>3</ele>
        <time>2019-05-04T12:44:03Z</time>
      </trkpt>
      <trkpt lat="47.25494" lon="-1.41021">
        <ele>3</ele>
        <time>2019-05-04T12:44:09Z</time>
      </trkpt>
      <trkpt lat="47.25519" lon="-1.40965">
        <ele>4</ele>
        <time>2019-05-04T12:44:21Z</time>
      </trkpt>
      <trkpt lat="47.25521" lon="-1.40896">
        <ele>4</ele>
        <time>2019-05-04T12:44:43Z</time>
      </trkpt>
      <trkpt lat="47.25389" lon="-1.39671">
        <ele>4</ele>
        <time>2019-05-04T12:48:01Z</time>
      </trkpt>
      <trkpt lat="47.25385" lon="-1.39595">
        <ele>4</ele>
        <time>2019-05-04T12:48:13Z</time>
      </trkpt>
      <trkpt lat="47.25393" lon="-1.39456">
        <ele>6</ele>
        <time>2019-05-04T12:48:37Z</time>
      </trkpt>
      <trkpt lat="47.2536" lon="-1.39435">
        <ele>6</ele>
        <time>2019-05-04T12:48:49Z</time>
      </trkpt>
      <trkpt lat="47.25339" lon="-1.39447">
        <ele>6</ele>
        <time>2019-05-04T12:48:55Z</time>
      </trkpt>
      <trkpt lat="47.25307" lon="-1.39489">
        <ele>7</ele>
        <time>2019-05-04T12:49:07Z</time>
      </trkpt>
      <trkpt lat="47.253" lon="-1.39593">
        <ele>6</ele>
        <time>2019-05-04T12:49:25Z</time>
      </trkpt>
      <trkpt lat="47.25278" lon="-1.39704">
        <ele>5</ele>
        <time>2019-05-04T12:49:49Z</time>
      </trkpt>
      <trkpt lat="47.25247" lon="-1.39827">
        <ele>7</ele>
        <time>2019-05-04T12:50:13Z</time>
      </trkpt>
      <trkpt lat="47.25238" lon="-1.39897">
        <ele>6</ele>
        <time>2019-05-04T12:50:24Z</time>
      </trkpt>
      <trkpt lat="47.25179" lon="-1.40117">
        <ele>5</ele>
        <time>2019-05-04T12:51:06Z</time>
      </trkpt>
      <trkpt lat="47.25077" lon="-1.40295">
        <ele>5</ele>
        <time>2019-05-04T12:51:48Z</time>
      </trkpt>
      <trkpt lat="47.24981" lon="-1.40423">
        <ele>6</ele>
        <time>2019-05-04T12:52:30Z</time>
      </trkpt>
      <trkpt lat="47.24933" lon="-1.40379">
        <ele>8</ele>
        <time>2019-05-04T12:52:54Z</time>
      </trkpt>
      <trkpt lat="47.24896" lon="-1.40416">
        <ele>8</ele>
        <time>2019-05-04T12:53:12Z</time>
      </trkpt>
      <trkpt lat="47.24871" lon="-1.4047">
        <ele>7</ele>
        <time>2019-05-04T12:53:30Z</time>
      </trkpt>
      <trkpt lat="47.24877" lon="-1.40478">
        <ele>7</ele>
        <time>2019-05-04T12:53:43Z</time>
      </trkpt>
      <trkpt lat="47.24868" lon="-1.405">
        <ele>6</ele>
        <time>2019-05-04T12:54:01Z</time>
      </trkpt>
      <trkpt lat="47.24874" lon="-1.40502">
        <ele>6</ele>
        <time>2019-05-04T12:54:12Z</time>
      </trkpt>
      <trkpt lat="47.24865" lon="-1.40506">
        <ele>4</ele>
        <time>2019-05-05T05:49:00Z</time>
      </trkpt>
      <trkpt lat="47.24877" lon="-1.40503">
        <ele>4</ele>
        <time>2019-05-05T05:49:13Z</time>
      </trkpt>
      <trkpt lat="47.24877" lon="-1.40489">
        <ele>4</ele>
        <time>2019-05-05T05:49:16Z</time>
      </trkpt>
      <trkpt lat="47.24877" lon="-1.40498">
        <ele>4</ele>
        <time>2019-05-05T05:49:27Z</time>
      </trkpt>
      <trkpt lat="47.2487" lon="-1.40486">
        <ele>8</ele>
        <time>2019-05-05T05:49:40Z</time>
      </trkpt>
      <trkpt lat="47.24876" lon="-1.40462">
        <ele>8</ele>
        <time>2019-05-05T05:49:46Z</time>
      </trkpt>
      <trkpt lat="47.24874" lon="-1.40478">
        <ele>8</ele>
        <time>2019-05-05T05:49:53Z</time>
      </trkpt>
      <trkpt lat="47.24868" lon="-1.40473">
        <ele>8</ele>
        <time>2019-05-05T05:50:01Z</time>
      </trkpt>
      <trkpt lat="47.24876" lon="-1.40456">
        <ele>8</ele>
        <time>2019-05-05T05:50:08Z</time>
      </trkpt>
      <trkpt lat="47.24935" lon="-1.40376">
        <ele>8</ele>
        <time>2019-05-05T05:50:44Z</time>
      </trkpt>
      <trkpt lat="47.24792" lon="-1.40203">
        <ele>15</ele>
        <time>2019-05-05T05:52:02Z</time>
      </trkpt>
      <trkpt lat="47.24716" lon="-1.40078">
        <ele>15</ele>
        <time>2019-05-05T05:52:50Z</time>
      </trkpt>
      <trkpt lat="47.25096" lon="-1.39385">
        <ele>14</ele>
        <time>2019-05-05T05:55:44Z</time>
      </trkpt>
      <trkpt lat="47.25124" lon="-1.39322">
        <ele>14</ele>
        <time>2019-05-05T05:55:56Z</time>
      </trkpt>
      <trkpt lat="47.25129" lon="-1.39265">
        <ele>11</ele>
        <time>2019-05-05T05:56:08Z</time>
      </trkpt>
      <trkpt lat="47.25156" lon="-1.392">
        <ele>11</ele>
        <time>2019-05-05T05:56:26Z</time>
      </trkpt>
      <trkpt lat="47.25208" lon="-1.39117">
        <ele>11</ele>
        <time>2019-05-05T05:56:50Z</time>
      </trkpt>
      <trkpt lat="47.25308" lon="-1.38912">
        <ele>13</ele>
        <time>2019-05-05T05:57:38Z</time>
      </trkpt>
      <trkpt lat="47.2535" lon="-1.38788">
        <ele>12</ele>
        <time>2019-05-05T05:58:08Z</time>
      </trkpt>
      <trkpt lat="47.25355" lon="-1.38776">
        <ele>12</ele>
        <time>2019-05-05T05:58:17Z</time>
      </trkpt>
      <trkpt lat="47.25359" lon="-1.3878">
        <ele>12</ele>
        <time>2019-05-05T05:58:23Z</time>
      </trkpt>
      <trkpt lat="47.2535" lon="-1.38781">
        <ele>12</ele>
        <time>2019-05-05T05:58:27Z</time>
      </trkpt>
      <trkpt lat="47.25358" lon="-1.38767">
        <ele>12</ele>
        <time>2019-05-05T05:58:34Z</time>
      </trkpt>
      <trkpt lat="47.25357" lon="-1.38743">
        <ele>12</ele>
        <time>2019-05-05T05:58:46Z</time>
      </trkpt>
      <trkpt lat="47.25384" lon="-1.38653">
        <ele>12</ele>
        <time>2019-05-05T05:59:16Z</time>
      </trkpt>
      <trkpt lat="47.25421" lon="-1.38601">
        <ele>11</ele>
        <time>2019-05-05T05:59:34Z</time>
      </trkpt>
      <trkpt lat="47.25405" lon="-1.38508">
        <ele>12</ele>
        <time>2019-05-05T06:00:04Z</time>
      </trkpt>
      <trkpt lat="47.25428" lon="-1.38489">
        <ele>10</ele>
        <time>2019-05-05T06:00:16Z</time>
      </trkpt>
      <trkpt lat="47.25444" lon="-1.3852">
        <ele>10</ele>
        <time>2019-05-05T06:00:28Z</time>
      </trkpt>
      <trkpt lat="47.25451" lon="-1.3857">
        <ele>11</ele>
        <time>2019-05-05T06:00:40Z</time>
      </trkpt>
      <trkpt lat="47.25442" lon="-1.38585">
        <ele>11</ele>
        <time>2019-05-05T06:00:46Z</time>
      </trkpt>
      <trkpt lat="47.25423" lon="-1.3859">
        <ele>11</ele>
        <time>2019-05-05T06:01:05Z</time>
      </trkpt>
      <trkpt lat="47.25407" lon="-1.38513">
        <ele>10</ele>
        <time>2019-05-05T06:01:28Z</time>
      </trkpt>
      <trkpt lat="47.25421" lon="-1.38503">
        <ele>10</ele>
        <time>2019-05-05T06:01:39Z</time>
      </trkpt>
      <trkpt lat="47.25477" lon="-1.38501">
        <ele>10</ele>
        <time>2019-05-05T06:02:01Z</time>
      </trkpt>
      <trkpt lat="47.25502" lon="-1.38516">
        <ele>7</ele>
        <time>2019-05-05T06:02:13Z</time>
      </trkpt>
      <trkpt lat="47.25524" lon="-1.38552">
        <ele>7</ele>
        <time>2019-05-05T06:02:36Z</time>
      </trkpt>
      <trkpt lat="47.25535" lon="-1.38543">
        <ele>7</ele>
        <time>2019-05-05T06:02:58Z</time>
      </trkpt>
      <trkpt lat="47.25543" lon="-1.38587">
        <ele>8</ele>
        <time>2019-05-05T06:03:16Z</time>
      </trkpt>
      <trkpt lat="47.25577" lon="-1.3859">
        <ele>8</ele>
        <time>2019-05-05T06:03:36Z</time>
      </trkpt>
      <trkpt lat="47.25575" lon="-1.38264">
        <ele>6</ele>
        <time>2019-05-05T06:04:48Z</time>
      </trkpt>
      <trkpt lat="47.25582" lon="-1.38217">
        <ele>6</ele>
        <time>2019-05-05T06:05:00Z</time>
      </trkpt>
      <trkpt lat="47.2558" lon="-1.38158">
        <ele>6</ele>
        <time>2019-05-05T06:05:28Z</time>
      </trkpt>
      <trkpt lat="47.2558" lon="-1.38618">
        <ele>8</ele>
        <time>2019-05-05T06:07:42Z</time>
      </trkpt>
      <trkpt lat="47.25612" lon="-1.38649">
        <ele>5</ele>
        <time>2019-05-05T06:08:06Z</time>
      </trkpt>
      <trkpt lat="47.2563" lon="-1.38634">
        <ele>5</ele>
        <time>2019-05-05T06:08:12Z</time>
      </trkpt>
      <trkpt lat="47.26105" lon="-1.38013">
        <ele>4</ele>
        <time>2019-05-05T06:11:00Z</time>
      </trkpt>
      <trkpt lat="47.26158" lon="-1.37908">
        <ele>4</ele>
        <time>2019-05-05T06:11:24Z</time>
      </trkpt>
      <trkpt lat="47.26376" lon="-1.37396">
        <ele>4</ele>
        <time>2019-05-05T06:13:18Z</time>
      </trkpt>
      <trkpt lat="47.26621" lon="-1.36766">
        <ele>6</ele>
        <time>2019-05-05T06:15:36Z</time>
      </trkpt>
      <trkpt lat="47.2665" lon="-1.36721">
        <ele>6</ele>
        <time>2019-05-05T06:15:48Z</time>
      </trkpt>
      <trkpt lat="47.26801" lon="-1.36553">
        <ele>6</ele>
        <time>2019-05-05T06:16:42Z</time>
      </trkpt>
      <trkpt lat="47.26827" lon="-1.36513">
        <ele>5</ele>
        <time>2019-05-05T06:16:54Z</time>
      </trkpt>
      <trkpt lat="47.26889" lon="-1.36377">
        <ele>4</ele>
        <time>2019-05-05T06:17:30Z</time>
      </trkpt>
      <trkpt lat="47.26919" lon="-1.36341">
        <ele>5</ele>
        <time>2019-05-05T06:17:42Z</time>
      </trkpt>
      <trkpt lat="47.27009" lon="-1.36298">
        <ele>6</ele>
        <time>2019-05-05T06:18:12Z</time>
      </trkpt>
      <trkpt lat="47.27033" lon="-1.363">
        <ele>6</ele>
        <time>2019-05-05T06:18:24Z</time>
      </trkpt>
      <trkpt lat="47.27177" lon="-1.36607">
        <ele>5</ele>
        <time>2019-05-05T06:19:42Z</time>
      </trkpt>
      <trkpt lat="47.27328" lon="-1.37248">
        <ele>7</ele>
        <time>2019-05-05T06:21:48Z</time>
      </trkpt>
      <trkpt lat="47.27436" lon="-1.37628">
        <ele>3</ele>
        <time>2019-05-05T06:23:00Z</time>
      </trkpt>
      <trkpt lat="47.27467" lon="-1.37673">
        <ele>3</ele>
        <time>2019-05-05T06:23:12Z</time>
      </trkpt>
      <trkpt lat="47.2754" lon="-1.37741">
        <ele>3</ele>
        <time>2019-05-05T06:23:36Z</time>
      </trkpt>
      <trkpt lat="47.27728" lon="-1.37891">
        <ele>3</ele>
        <time>2019-05-05T06:24:36Z</time>
      </trkpt>
      <trkpt lat="47.27858" lon="-1.38011">
        <ele>4</ele>
        <time>2019-05-05T06:25:18Z</time>
      </trkpt>
      <trkpt lat="47.27997" lon="-1.38255">
        <ele>7</ele>
        <time>2019-05-05T06:26:18Z</time>
      </trkpt>
      <trkpt lat="47.28107" lon="-1.38392">
        <ele>6</ele>
        <time>2019-05-05T06:27:00Z</time>
      </trkpt>
      <trkpt lat="47.28184" lon="-1.38526">
        <ele>7</ele>
        <time>2019-05-05T06:27:42Z</time>
      </trkpt>
      <trkpt lat="47.2828" lon="-1.38321">
        <ele>7</ele>
        <time>2019-05-05T06:28:42Z</time>
      </trkpt>
      <trkpt lat="47.28327" lon="-1.38236">
        <ele>6</ele>
        <time>2019-05-05T06:29:06Z</time>
      </trkpt>
      <trkpt lat="47.28377" lon="-1.38109">
        <ele>6</ele>
        <time>2019-05-05T06:29:36Z</time>
      </trkpt>
      <trkpt lat="47.28803" lon="-1.3761">
        <ele>4</ele>
        <time>2019-05-05T06:32:06Z</time>
      </trkpt>
      <trkpt lat="47.28835" lon="-1.37559">
        <ele>6</ele>
        <time>2019-05-05T06:32:24Z</time>
      </trkpt>
      <trkpt lat="47.28944" lon="-1.37216">
        <ele>6</ele>
        <time>2019-05-05T06:33:42Z</time>
      </trkpt>
      <trkpt lat="47.29" lon="-1.37086">
        <ele>7</ele>
        <time>2019-05-05T06:34:12Z</time>
      </trkpt>
      <trkpt lat="47.29305" lon="-1.36487">
        <ele>6</ele>
        <time>2019-05-05T06:36:42Z</time>
      </trkpt>
      <trkpt lat="47.2999" lon="-1.35175">
        <ele>4</ele>
        <time>2019-05-05T06:42:12Z</time>
      </trkpt>
      <trkpt lat="47.30091" lon="-1.3494">
        <ele>7</ele>
        <time>2019-05-05T06:43:28Z</time>
      </trkpt>
      <trkpt lat="47.30105" lon="-1.34985">
        <ele>7</ele>
        <time>2019-05-05T06:43:40Z</time>
      </trkpt>
      <trkpt lat="47.30263" lon="-1.35145">
        <ele>2</ele>
        <time>2019-05-05T06:44:34Z</time>
      </trkpt>
      <trkpt lat="47.30273" lon="-1.35166">
        <ele>2</ele>
        <time>2019-05-05T06:44:40Z</time>
      </trkpt>
      <trkpt lat="47.30271" lon="-1.35196">
        <ele>2</ele>
        <time>2019-05-05T06:44:52Z</time>
      </trkpt>
      <trkpt lat="47.30268" lon="-1.35153">
        <ele>2</ele>
        <time>2019-05-05T06:45:04Z</time>
      </trkpt>
      <trkpt lat="47.30092" lon="-1.34967">
        <ele>7</ele>
        <time>2019-05-05T06:46:04Z</time>
      </trkpt>
      <trkpt lat="47.30105" lon="-1.3484">
        <ele>6</ele>
        <time>2019-05-05T06:46:28Z</time>
      </trkpt>
      <trkpt lat="47.30154" lon="-1.34807">
        <ele>6</ele>
        <time>2019-05-05T06:46:40Z</time>
      </trkpt>
      <trkpt lat="47.30154" lon="-1.34677">
        <ele>6</ele>
        <time>2019-05-05T06:47:10Z</time>
      </trkpt>
      <trkpt lat="47.30144" lon="-1.34618">
        <ele>6</ele>
        <time>2019-05-05T06:47:22Z</time>
      </trkpt>
      <trkpt lat="47.30149" lon="-1.34556">
        <ele>5</ele>
        <time>2019-05-05T06:47:34Z</time>
      </trkpt>
      <trkpt lat="47.30119" lon="-1.34543">
        <ele>5</ele>
        <time>2019-05-05T06:47:46Z</time>
      </trkpt>
      <trkpt lat="47.30082" lon="-1.34499">
        <ele>5</ele>
        <time>2019-05-05T06:47:58Z</time>
      </trkpt>
      <trkpt lat="47.30024" lon="-1.34185">
        <ele>6</ele>
        <time>2019-05-05T06:48:52Z</time>
      </trkpt>
      <trkpt lat="47.30019" lon="-1.34124">
        <ele>6</ele>
        <time>2019-05-05T06:49:04Z</time>
      </trkpt>
      <trkpt lat="47.30066" lon="-1.34105">
        <ele>6</ele>
        <time>2019-05-05T06:49:16Z</time>
      </trkpt>
      <trkpt lat="47.30107" lon="-1.34126">
        <ele>6</ele>
        <time>2019-05-05T06:49:34Z</time>
      </trkpt>
      <trkpt lat="47.30123" lon="-1.34079">
        <ele>6</ele>
        <time>2019-05-05T06:49:46Z</time>
      </trkpt>
      <trkpt lat="47.30202" lon="-1.33999">
        <ele>8</ele>
        <time>2019-05-05T06:50:10Z</time>
      </trkpt>
      <trkpt lat="47.30221" lon="-1.34">
        <ele>8</ele>
        <time>2019-05-05T06:50:16Z</time>
      </trkpt>
      <trkpt lat="47.30242" lon="-1.34061">
        <ele>7</ele>
        <time>2019-05-05T06:50:28Z</time>
      </trkpt>
      <trkpt lat="47.30271" lon="-1.34097">
        <ele>7</ele>
        <time>2019-05-05T06:50:40Z</time>
      </trkpt>
      <trkpt lat="47.30325" lon="-1.34034">
        <ele>7</ele>
        <time>2019-05-05T06:50:58Z</time>
      </trkpt>
      <trkpt lat="47.3036" lon="-1.3397">
        <ele>7</ele>
        <time>2019-05-05T06:51:16Z</time>
      </trkpt>
      <trkpt lat="47.3038" lon="-1.33959">
        <ele>7</ele>
        <time>2019-05-05T06:51:22Z</time>
      </trkpt>
      <trkpt lat="47.30428" lon="-1.33891">
        <ele>7</ele>
        <time>2019-05-05T06:51:40Z</time>
      </trkpt>
      <trkpt lat="47.30488" lon="-1.33833">
        <ele>7</ele>
        <time>2019-05-05T06:51:58Z</time>
      </trkpt>
      <trkpt lat="47.30571" lon="-1.33784">
        <ele>7</ele>
        <time>2019-05-05T06:52:22Z</time>
      </trkpt>
      <trkpt lat="47.30659" lon="-1.33749">
        <ele>6</ele>
        <time>2019-05-05T06:52:46Z</time>
      </trkpt>
      <trkpt lat="47.307" lon="-1.33707">
        <ele>6</ele>
        <time>2019-05-05T06:52:58Z</time>
      </trkpt>
      <trkpt lat="47.30712" lon="-1.33676">
        <ele>6</ele>
        <time>2019-05-05T06:53:04Z</time>
      </trkpt>
      <trkpt lat="47.30718" lon="-1.33604">
        <ele>8</ele>
        <time>2019-05-05T06:53:16Z</time>
      </trkpt>
      <trkpt lat="47.30612" lon="-1.33286">
        <ele>6</ele>
        <time>2019-05-05T06:54:10Z</time>
      </trkpt>
      <trkpt lat="47.30639" lon="-1.33232">
        <ele>6</ele>
        <time>2019-05-05T06:54:22Z</time>
      </trkpt>
      <trkpt lat="47.31164" lon="-1.33017">
        <ele>7</ele>
        <time>2019-05-05T06:56:40Z</time>
      </trkpt>
      <trkpt lat="47.31249" lon="-1.32975">
        <ele>8</ele>
        <time>2019-05-05T06:57:04Z</time>
      </trkpt>
      <trkpt lat="47.31488" lon="-1.32779">
        <ele>18</ele>
        <time>2019-05-05T06:58:16Z</time>
      </trkpt>
      <trkpt lat="47.31605" lon="-1.32631">
        <ele>17</ele>
        <time>2019-05-05T06:58:58Z</time>
      </trkpt>
      <trkpt lat="47.3167" lon="-1.32504">
        <ele>12</ele>
        <time>2019-05-05T06:59:22Z</time>
      </trkpt>
      <trkpt lat="47.31729" lon="-1.32149">
        <ele>17</ele>
        <time>2019-05-05T07:00:22Z</time>
      </trkpt>
      <trkpt lat="47.31795" lon="-1.31957">
        <ele>13</ele>
        <time>2019-05-05T07:01:10Z</time>
      </trkpt>
      <trkpt lat="47.31808" lon="-1.31951">
        <ele>13</ele>
        <time>2019-05-05T07:01:16Z</time>
      </trkpt>
      <trkpt lat="47.31886" lon="-1.31994">
        <ele>10</ele>
        <time>2019-05-05T07:01:34Z</time>
      </trkpt>
      <trkpt lat="47.31931" lon="-1.32008">
        <ele>7</ele>
        <time>2019-05-05T07:01:46Z</time>
      </trkpt>
      <trkpt lat="47.3197" lon="-1.31981">
        <ele>7</ele>
        <time>2019-05-05T07:01:58Z</time>
      </trkpt>
      <trkpt lat="47.32079" lon="-1.31705">
        <ele>6</ele>
        <time>2019-05-05T07:02:46Z</time>
      </trkpt>
      <trkpt lat="47.32371" lon="-1.31241">
        <ele>8</ele>
        <time>2019-05-05T07:04:16Z</time>
      </trkpt>
      <trkpt lat="47.32434" lon="-1.31057">
        <ele>7</ele>
        <time>2019-05-05T07:04:46Z</time>
      </trkpt>
      <trkpt lat="47.32461" lon="-1.30948">
        <ele>8</ele>
        <time>2019-05-05T07:05:04Z</time>
      </trkpt>
      <trkpt lat="47.32527" lon="-1.30766">
        <ele>7</ele>
        <time>2019-05-05T07:05:40Z</time>
      </trkpt>
      <trkpt lat="47.32677" lon="-1.30432">
        <ele>5</ele>
        <time>2019-05-05T07:06:46Z</time>
      </trkpt>
      <trkpt lat="47.32678" lon="-1.30354">
        <ele>5</ele>
        <time>2019-05-05T07:06:58Z</time>
      </trkpt>
      <trkpt lat="47.32639" lon="-1.3025">
        <ele>8</ele>
        <time>2019-05-05T07:07:22Z</time>
      </trkpt>
      <trkpt lat="47.32723" lon="-1.30118">
        <ele>7</ele>
        <time>2019-05-05T07:08:08Z</time>
      </trkpt>
      <trkpt lat="47.32927" lon="-1.29728">
        <ele>10</ele>
        <time>2019-05-05T07:09:32Z</time>
      </trkpt>
      <trkpt lat="47.33069" lon="-1.2949">
        <ele>15</ele>
        <time>2019-05-05T07:10:20Z</time>
      </trkpt>
      <trkpt lat="47.33146" lon="-1.29376">
        <ele>4</ele>
        <time>2019-05-05T07:10:44Z</time>
      </trkpt>
      <trkpt lat="47.33147" lon="-1.29346">
        <ele>13</ele>
        <time>2019-05-05T07:10:50Z</time>
      </trkpt>
      <trkpt lat="47.33134" lon="-1.29334">
        <ele>18</ele>
        <time>2019-05-05T07:10:56Z</time>
      </trkpt>
      <trkpt lat="47.33129" lon="-1.29286">
        <ele>18</ele>
        <time>2019-05-05T07:11:14Z</time>
      </trkpt>
      <trkpt lat="47.33163" lon="-1.29221">
        <ele>16</ele>
        <time>2019-05-05T07:11:32Z</time>
      </trkpt>
      <trkpt lat="47.33185" lon="-1.29155">
        <ele>16</ele>
        <time>2019-05-05T07:11:44Z</time>
      </trkpt>
      <trkpt lat="47.33209" lon="-1.29149">
        <ele>16</ele>
        <time>2019-05-05T07:11:50Z</time>
      </trkpt>
      <trkpt lat="47.33331" lon="-1.2923">
        <ele>7</ele>
        <time>2019-05-05T07:12:14Z</time>
      </trkpt>
      <trkpt lat="47.33354" lon="-1.2925">
        <ele>7</ele>
        <time>2019-05-05T07:12:20Z</time>
      </trkpt>
      <trkpt lat="47.33391" lon="-1.29311">
        <ele>7</ele>
        <time>2019-05-05T07:12:32Z</time>
      </trkpt>
      <trkpt lat="47.33409" lon="-1.29375">
        <ele>5</ele>
        <time>2019-05-05T07:12:44Z</time>
      </trkpt>
      <trkpt lat="47.33598" lon="-1.29523">
        <ele>9</ele>
        <time>2019-05-05T07:13:38Z</time>
      </trkpt>
      <trkpt lat="47.33645" lon="-1.29541">
        <ele>8</ele>
        <time>2019-05-05T07:13:50Z</time>
      </trkpt>
      <trkpt lat="47.33658" lon="-1.29471">
        <ele>10</ele>
        <time>2019-05-05T07:14:02Z</time>
      </trkpt>
      <trkpt lat="47.3373" lon="-1.29249">
        <ele>7</ele>
        <time>2019-05-05T07:14:44Z</time>
      </trkpt>
      <trkpt lat="47.33748" lon="-1.29157">
        <ele>8</ele>
        <time>2019-05-05T07:15:02Z</time>
      </trkpt>
      <trkpt lat="47.33753" lon="-1.2895">
        <ele>8</ele>
        <time>2019-05-05T07:15:44Z</time>
      </trkpt>
      <trkpt lat="47.33766" lon="-1.28882">
        <ele>8</ele>
        <time>2019-05-05T07:15:56Z</time>
      </trkpt>
      <trkpt lat="47.33775" lon="-1.28725">
        <ele>9</ele>
        <time>2019-05-05T07:16:20Z</time>
      </trkpt>
      <trkpt lat="47.33791" lon="-1.28631">
        <ele>4</ele>
        <time>2019-05-05T07:16:38Z</time>
      </trkpt>
      <trkpt lat="47.33811" lon="-1.2857">
        <ele>4</ele>
        <time>2019-05-05T07:16:50Z</time>
      </trkpt>
      <trkpt lat="47.33802" lon="-1.28538">
        <ele>5</ele>
        <time>2019-05-05T07:16:56Z</time>
      </trkpt>
      <trkpt lat="47.33812" lon="-1.28434">
        <ele>5</ele>
        <time>2019-05-05T07:17:14Z</time>
      </trkpt>
      <trkpt lat="47.33871" lon="-1.28002">
        <ele>6</ele>
        <time>2019-05-05T07:18:20Z</time>
      </trkpt>
      <trkpt lat="47.33879" lon="-1.27797">
        <ele>9</ele>
        <time>2019-05-05T07:19:05Z</time>
      </trkpt>
      <trkpt lat="47.33756" lon="-1.27756">
        <ele>14</ele>
        <time>2019-05-05T07:20:00Z</time>
      </trkpt>
      <trkpt lat="47.3375" lon="-1.2774">
        <ele>14</ele>
        <time>2019-05-05T07:20:12Z</time>
      </trkpt>
      <trkpt lat="47.33761" lon="-1.2773">
        <ele>14</ele>
        <time>2019-05-05T07:20:26Z</time>
      </trkpt>
      <trkpt lat="47.33777" lon="-1.27742">
        <ele>14</ele>
        <time>2019-05-05T07:20:32Z</time>
      </trkpt>
      <trkpt lat="47.3439" lon="-1.27934">
        <ele>9</ele>
        <time>2019-05-05T07:23:32Z</time>
      </trkpt>
      <trkpt lat="47.34432" lon="-1.27955">
        <ele>9</ele>
        <time>2019-05-05T07:23:44Z</time>
      </trkpt>
      <trkpt lat="47.34466" lon="-1.27988">
        <ele>8</ele>
        <time>2019-05-05T07:23:56Z</time>
      </trkpt>
      <trkpt lat="47.34504" lon="-1.28053">
        <ele>9</ele>
        <time>2019-05-05T07:24:08Z</time>
      </trkpt>
      <trkpt lat="47.34518" lon="-1.28107">
        <ele>9</ele>
        <time>2019-05-05T07:24:14Z</time>
      </trkpt>
      <trkpt lat="47.34523" lon="-1.28219">
        <ele>7</ele>
        <time>2019-05-05T07:24:26Z</time>
      </trkpt>
      <trkpt lat="47.34548" lon="-1.28245">
        <ele>8</ele>
        <time>2019-05-05T07:24:38Z</time>
      </trkpt>
      <trkpt lat="47.34546" lon="-1.2826">
        <ele>8</ele>
        <time>2019-05-05T07:24:44Z</time>
      </trkpt>
      <trkpt lat="47.34541" lon="-1.28259">
        <ele>8</ele>
        <time>2019-05-05T07:24:52Z</time>
      </trkpt>
      <trkpt lat="47.34549" lon="-1.28244">
        <ele>8</ele>
        <time>2019-05-05T07:25:00Z</time>
      </trkpt>
      <trkpt lat="47.34594" lon="-1.28235">
        <ele>8</ele>
        <time>2019-05-05T07:25:12Z</time>
      </trkpt>
      <trkpt lat="47.34623" lon="-1.28339">
        <ele>9</ele>
        <time>2019-05-05T07:25:36Z</time>
      </trkpt>
      <trkpt lat="47.34652" lon="-1.28359">
        <ele>12</ele>
        <time>2019-05-05T07:25:48Z</time>
      </trkpt>
      <trkpt lat="47.34673" lon="-1.28305">
        <ele>12</ele>
        <time>2019-05-05T07:26:00Z</time>
      </trkpt>
      <trkpt lat="47.34721" lon="-1.28106">
        <ele>18</ele>
        <time>2019-05-05T07:26:42Z</time>
      </trkpt>
      <trkpt lat="47.34694" lon="-1.28072">
        <ele>10</ele>
        <time>2019-05-05T07:26:54Z</time>
      </trkpt>
      <trkpt lat="47.34679" lon="-1.28022">
        <ele>10</ele>
        <time>2019-05-05T07:27:06Z</time>
      </trkpt>
      <trkpt lat="47.34697" lon="-1.27809">
        <ele>4</ele>
        <time>2019-05-05T07:27:42Z</time>
      </trkpt>
      <trkpt lat="47.34726" lon="-1.27665">
        <ele>8</ele>
        <time>2019-05-05T07:28:06Z</time>
      </trkpt>
      <trkpt lat="47.34734" lon="-1.27479">
        <ele>8</ele>
        <time>2019-05-05T07:28:36Z</time>
      </trkpt>
      <trkpt lat="47.34775" lon="-1.27084">
        <ele>8</ele>
        <time>2019-05-05T07:29:36Z</time>
      </trkpt>
      <trkpt lat="47.34806" lon="-1.26887">
        <ele>7</ele>
        <time>2019-05-05T07:30:12Z</time>
      </trkpt>
      <trkpt lat="47.3483" lon="-1.26771">
        <ele>7</ele>
        <time>2019-05-05T07:30:36Z</time>
      </trkpt>
      <trkpt lat="47.34952" lon="-1.26639">
        <ele>16</ele>
        <time>2019-05-05T07:31:30Z</time>
      </trkpt>
      <trkpt lat="47.34928" lon="-1.26491">
        <ele>15</ele>
        <time>2019-05-05T07:32:06Z</time>
      </trkpt>
      <trkpt lat="47.3491" lon="-1.26274">
        <ele>19</ele>
        <time>2019-05-05T07:32:48Z</time>
      </trkpt>
      <trkpt lat="47.34824" lon="-1.26007">
        <ele>11</ele>
        <time>2019-05-05T07:33:36Z</time>
      </trkpt>
      <trkpt lat="47.34764" lon="-1.25686">
        <ele>11</ele>
        <time>2019-05-05T07:34:30Z</time>
      </trkpt>
      <trkpt lat="47.3477" lon="-1.25608">
        <ele>11</ele>
        <time>2019-05-05T07:34:42Z</time>
      </trkpt>
      <trkpt lat="47.34789" lon="-1.25504">
        <ele>10</ele>
        <time>2019-05-05T07:35:00Z</time>
      </trkpt>
      <trkpt lat="47.34794" lon="-1.25379">
        <ele>11</ele>
        <time>2019-05-05T07:35:30Z</time>
      </trkpt>
      <trkpt lat="47.34717" lon="-1.25341">
        <ele>5</ele>
        <time>2019-05-05T07:35:54Z</time>
      </trkpt>
      <trkpt lat="47.34748" lon="-1.25112">
        <ele>13</ele>
        <time>2019-05-05T07:36:42Z</time>
      </trkpt>
      <trkpt lat="47.34804" lon="-1.24902">
        <ele>5</ele>
        <time>2019-05-05T07:37:24Z</time>
      </trkpt>
      <trkpt lat="47.35017" lon="-1.2439">
        <ele>18</ele>
        <time>2019-05-05T07:38:54Z</time>
      </trkpt>
      <trkpt lat="47.35139" lon="-1.23961">
        <ele>13</ele>
        <time>2019-05-05T07:40:06Z</time>
      </trkpt>
      <trkpt lat="47.35171" lon="-1.23814">
        <ele>5</ele>
        <time>2019-05-05T07:40:30Z</time>
      </trkpt>
      <trkpt lat="47.35184" lon="-1.23795">
        <ele>5</ele>
        <time>2019-05-05T07:40:36Z</time>
      </trkpt>
      <trkpt lat="47.35248" lon="-1.23553">
        <ele>5</ele>
        <time>2019-05-05T07:41:30Z</time>
      </trkpt>
      <trkpt lat="47.35346" lon="-1.23246">
        <ele>5</ele>
        <time>2019-05-05T07:42:30Z</time>
      </trkpt>
      <trkpt lat="47.35559" lon="-1.22806">
        <ele>20</ele>
        <time>2019-05-05T07:43:48Z</time>
      </trkpt>
      <trkpt lat="47.3557" lon="-1.22781">
        <ele>20</ele>
        <time>2019-05-05T07:43:54Z</time>
      </trkpt>
      <trkpt lat="47.35571" lon="-1.22755">
        <ele>14</ele>
        <time>2019-05-05T07:44:14Z</time>
      </trkpt>
      <trkpt lat="47.35588" lon="-1.22736">
        <ele>14</ele>
        <time>2019-05-05T07:44:22Z</time>
      </trkpt>
      <trkpt lat="47.35738" lon="-1.22437">
        <ele>10</ele>
        <time>2019-05-05T07:45:22Z</time>
      </trkpt>
      <trkpt lat="47.35713" lon="-1.22382">
        <ele>10</ele>
        <time>2019-05-05T07:45:34Z</time>
      </trkpt>
      <trkpt lat="47.35706" lon="-1.22319">
        <ele>9</ele>
        <time>2019-05-05T07:45:52Z</time>
      </trkpt>
      <trkpt lat="47.35729" lon="-1.22182">
        <ele>7</ele>
        <time>2019-05-05T07:46:40Z</time>
      </trkpt>
      <trkpt lat="47.35772" lon="-1.21812">
        <ele>8</ele>
        <time>2019-05-05T07:48:08Z</time>
      </trkpt>
      <trkpt lat="47.35876" lon="-1.21275">
        <ele>8</ele>
        <time>2019-05-05T07:49:38Z</time>
      </trkpt>
      <trkpt lat="47.35896" lon="-1.21206">
        <ele>10</ele>
        <time>2019-05-05T07:49:50Z</time>
      </trkpt>
      <trkpt lat="47.35953" lon="-1.21076">
        <ele>9</ele>
        <time>2019-05-05T07:50:14Z</time>
      </trkpt>
      <trkpt lat="47.36015" lon="-1.20904">
        <ele>11</ele>
        <time>2019-05-05T07:50:44Z</time>
      </trkpt>
      <trkpt lat="47.36056" lon="-1.20723">
        <ele>13</ele>
        <time>2019-05-05T07:51:14Z</time>
      </trkpt>
      <trkpt lat="47.36065" lon="-1.20646">
        <ele>11</ele>
        <time>2019-05-05T07:51:26Z</time>
      </trkpt>
      <trkpt lat="47.36069" lon="-1.20448">
        <ele>11</ele>
        <time>2019-05-05T07:51:56Z</time>
      </trkpt>
      <trkpt lat="47.36085" lon="-1.2022">
        <ele>10</ele>
        <time>2019-05-05T07:52:32Z</time>
      </trkpt>
      <trkpt lat="47.36133" lon="-1.20193">
        <ele>11</ele>
        <time>2019-05-05T07:52:50Z</time>
      </trkpt>
      <trkpt lat="47.36162" lon="-1.20143">
        <ele>11</ele>
        <time>2019-05-05T07:53:02Z</time>
      </trkpt>
      <trkpt lat="47.36188" lon="-1.20012">
        <ele>10</ele>
        <time>2019-05-05T07:53:26Z</time>
      </trkpt>
      <trkpt lat="47.36284" lon="-1.19745">
        <ele>11</ele>
        <time>2019-05-05T07:54:20Z</time>
      </trkpt>
      <trkpt lat="47.36327" lon="-1.19502">
        <ele>15</ele>
        <time>2019-05-05T07:55:02Z</time>
      </trkpt>
      <trkpt lat="47.36345" lon="-1.19342">
        <ele>12</ele>
        <time>2019-05-05T07:55:38Z</time>
      </trkpt>
      <trkpt lat="47.36334" lon="-1.19033">
        <ele>12</ele>
        <time>2019-05-05T07:56:38Z</time>
      </trkpt>
      <trkpt lat="47.36341" lon="-1.18779">
        <ele>12</ele>
        <time>2019-05-05T07:57:26Z</time>
      </trkpt>
      <trkpt lat="47.36354" lon="-1.18744">
        <ele>12</ele>
        <time>2019-05-05T07:57:38Z</time>
      </trkpt>
      <trkpt lat="47.3634" lon="-1.18679">
        <ele>12</ele>
        <time>2019-05-05T07:57:56Z</time>
      </trkpt>
      <trkpt lat="47.36336" lon="-1.18623">
        <ele>13</ele>
        <time>2019-05-05T07:58:14Z</time>
      </trkpt>
      <trkpt lat="47.3634" lon="-1.18337">
        <ele>14</ele>
        <time>2019-05-05T07:59:26Z</time>
      </trkpt>
      <trkpt lat="47.36327" lon="-1.1829">
        <ele>14</ele>
        <time>2019-05-05T07:59:38Z</time>
      </trkpt>
      <trkpt lat="47.36331" lon="-1.18095">
        <ele>14</ele>
        <time>2019-05-05T08:00:20Z</time>
      </trkpt>
      <trkpt lat="47.36313" lon="-1.17906">
        <ele>12</ele>
        <time>2019-05-05T08:00:56Z</time>
      </trkpt>
      <trkpt lat="47.36354" lon="-1.17729">
        <ele>7</ele>
        <time>2019-05-05T08:02:08Z</time>
      </trkpt>
      <trkpt lat="47.36372" lon="-1.17729">
        <ele>7</ele>
        <time>2019-05-05T08:02:14Z</time>
      </trkpt>
      <trkpt lat="47.36491" lon="-1.178">
        <ele>22</ele>
        <time>2019-05-05T08:03:20Z</time>
      </trkpt>
      <trkpt lat="47.36522" lon="-1.17778">
        <ele>22</ele>
        <time>2019-05-05T08:03:38Z</time>
      </trkpt>
      <trkpt lat="47.36553" lon="-1.1767">
        <ele>19</ele>
        <time>2019-05-05T08:04:26Z</time>
      </trkpt>
      <trkpt lat="47.36532" lon="-1.17768">
        <ele>22</ele>
        <time>2019-05-05T08:04:56Z</time>
      </trkpt>
      <trkpt lat="47.36536" lon="-1.17816">
        <ele>22</ele>
        <time>2019-05-05T08:05:12Z</time>
      </trkpt>
      <trkpt lat="47.36527" lon="-1.17804">
        <ele>22</ele>
        <time>2019-05-05T08:05:16Z</time>
      </trkpt>
      <trkpt lat="47.36524" lon="-1.17815">
        <ele>22</ele>
        <time>2019-05-05T08:05:20Z</time>
      </trkpt>
      <trkpt lat="47.36492" lon="-1.17808">
        <ele>22</ele>
        <time>2019-05-05T08:05:32Z</time>
      </trkpt>
      <trkpt lat="47.35838" lon="-1.17466">
        <ele>10</ele>
        <time>2019-05-05T08:08:02Z</time>
      </trkpt>
      <trkpt lat="47.35758" lon="-1.17406">
        <ele>11</ele>
        <time>2019-05-05T08:08:26Z</time>
      </trkpt>
      <trkpt lat="47.3578" lon="-1.17334">
        <ele>11</ele>
        <time>2019-05-05T08:08:38Z</time>
      </trkpt>
      <trkpt lat="47.35771" lon="-1.17258">
        <ele>11</ele>
        <time>2019-05-05T08:08:50Z</time>
      </trkpt>
      <trkpt lat="47.35742" lon="-1.17173">
        <ele>13</ele>
        <time>2019-05-05T08:09:14Z</time>
      </trkpt>
      <trkpt lat="47.35709" lon="-1.17124">
        <ele>9</ele>
        <time>2019-05-05T08:09:26Z</time>
      </trkpt>
      <trkpt lat="47.35638" lon="-1.16965">
        <ele>8</ele>
        <time>2019-05-05T08:09:50Z</time>
      </trkpt>
      <trkpt lat="47.35636" lon="-1.16886">
        <ele>8</ele>
        <time>2019-05-05T08:10:02Z</time>
      </trkpt>
      <trkpt lat="47.35659" lon="-1.16734">
        <ele>10</ele>
        <time>2019-05-05T08:10:26Z</time>
      </trkpt>
      <trkpt lat="47.35633" lon="-1.1649">
        <ele>6</ele>
        <time>2019-05-05T08:11:02Z</time>
      </trkpt>
      <trkpt lat="47.35639" lon="-1.1638">
        <ele>1</ele>
        <time>2019-05-05T08:11:20Z</time>
      </trkpt>
      <trkpt lat="47.35634" lon="-1.16217">
        <ele>11.1</ele>
        <time>2019-05-05T08:11:44Z</time>
      </trkpt>
      <trkpt lat="47.35652" lon="-1.16095">
        <ele>-3</ele>
        <time>2019-05-05T08:12:02Z</time>
      </trkpt>
      <trkpt lat="47.35663" lon="-1.15962">
        <ele>8.9</ele>
        <time>2019-05-05T08:12:20Z</time>
      </trkpt>
      <trkpt lat="47.35601" lon="-1.15835">
        <ele>8</ele>
        <time>2019-05-05T08:12:44Z</time>
      </trkpt>
      <trkpt lat="47.35549" lon="-1.15749">
        <ele>7</ele>
        <time>2019-05-05T08:13:02Z</time>
      </trkpt>
      <trkpt lat="47.3549" lon="-1.15672">
        <ele>7</ele>
        <time>2019-05-05T08:13:20Z</time>
      </trkpt>
      <trkpt lat="47.35433" lon="-1.15658">
        <ele>8</ele>
        <time>2019-05-05T08:13:32Z</time>
      </trkpt>
      <trkpt lat="47.35383" lon="-1.15668">
        <ele>8</ele>
        <time>2019-05-05T08:13:44Z</time>
      </trkpt>
      <trkpt lat="47.35339" lon="-1.15645">
        <ele>8</ele>
        <time>2019-05-05T08:13:56Z</time>
      </trkpt>
      <trkpt lat="47.35315" lon="-1.15574">
        <ele>8</ele>
        <time>2019-05-05T08:14:08Z</time>
      </trkpt>
      <trkpt lat="47.35299" lon="-1.15461">
        <ele>9</ele>
        <time>2019-05-05T08:14:26Z</time>
      </trkpt>
      <trkpt lat="47.35298" lon="-1.1542">
        <ele>9</ele>
        <time>2019-05-05T08:14:32Z</time>
      </trkpt>
      <trkpt lat="47.35317" lon="-1.15253">
        <ele>8</ele>
        <time>2019-05-05T08:14:56Z</time>
      </trkpt>
      <trkpt lat="47.35312" lon="-1.15174">
        <ele>7</ele>
        <time>2019-05-05T08:15:08Z</time>
      </trkpt>
      <trkpt lat="47.35265" lon="-1.15071">
        <ele>8</ele>
        <time>2019-05-05T08:15:32Z</time>
      </trkpt>
      <trkpt lat="47.35205" lon="-1.15001">
        <ele>8</ele>
        <time>2019-05-05T08:15:50Z</time>
      </trkpt>
      <trkpt lat="47.35193" lon="-1.14974">
        <ele>8</ele>
        <time>2019-05-05T08:15:56Z</time>
      </trkpt>
      <trkpt lat="47.35184" lon="-1.14895">
        <ele>9</ele>
        <time>2019-05-05T08:16:08Z</time>
      </trkpt>
      <trkpt lat="47.35193" lon="-1.14759">
        <ele>8</ele>
        <time>2019-05-05T08:16:32Z</time>
      </trkpt>
      <trkpt lat="47.35204" lon="-1.1469">
        <ele>8</ele>
        <time>2019-05-05T08:16:44Z</time>
      </trkpt>
      <trkpt lat="47.35212" lon="-1.14655">
        <ele>9</ele>
        <time>2019-05-05T08:16:50Z</time>
      </trkpt>
      <trkpt lat="47.35247" lon="-1.14586">
        <ele>9</ele>
        <time>2019-05-05T08:17:02Z</time>
      </trkpt>
      <trkpt lat="47.35264" lon="-1.14483">
        <ele>8</ele>
        <time>2019-05-05T08:17:20Z</time>
      </trkpt>
      <trkpt lat="47.35266" lon="-1.14445">
        <ele>8</ele>
        <time>2019-05-05T08:17:26Z</time>
      </trkpt>
      <trkpt lat="47.35241" lon="-1.1434">
        <ele>8</ele>
        <time>2019-05-05T08:17:44Z</time>
      </trkpt>
      <trkpt lat="47.35254" lon="-1.14161">
        <ele>8</ele>
        <time>2019-05-05T08:18:14Z</time>
      </trkpt>
      <trkpt lat="47.35327" lon="-1.13883">
        <ele>8</ele>
        <time>2019-05-05T08:19:02Z</time>
      </trkpt>
      <trkpt lat="47.35353" lon="-1.13667">
        <ele>8</ele>
        <time>2019-05-05T08:19:38Z</time>
      </trkpt>
      <trkpt lat="47.35366" lon="-1.13603">
        <ele>8</ele>
        <time>2019-05-05T08:19:50Z</time>
      </trkpt>
      <trkpt lat="47.35379" lon="-1.13567">
        <ele>10</ele>
        <time>2019-05-05T08:19:56Z</time>
      </trkpt>
      <trkpt lat="47.35438" lon="-1.13491">
        <ele>10</ele>
        <time>2019-05-05T08:20:14Z</time>
      </trkpt>
      <trkpt lat="47.35506" lon="-1.1329">
        <ele>10</ele>
        <time>2019-05-05T08:20:56Z</time>
      </trkpt>
      <trkpt lat="47.35581" lon="-1.12989">
        <ele>10</ele>
        <time>2019-05-05T08:21:50Z</time>
      </trkpt>
      <trkpt lat="47.35629" lon="-1.12827">
        <ele>10</ele>
        <time>2019-05-05T08:22:20Z</time>
      </trkpt>
      <trkpt lat="47.3562" lon="-1.12791">
        <ele>10</ele>
        <time>2019-05-05T08:22:26Z</time>
      </trkpt>
      <trkpt lat="47.35617" lon="-1.12723">
        <ele>9</ele>
        <time>2019-05-05T08:22:38Z</time>
      </trkpt>
      <trkpt lat="47.35633" lon="-1.12623">
        <ele>9</ele>
        <time>2019-05-05T08:22:56Z</time>
      </trkpt>
      <trkpt lat="47.3567" lon="-1.12489">
        <ele>8</ele>
        <time>2019-05-05T08:23:20Z</time>
      </trkpt>
      <trkpt lat="47.35684" lon="-1.12455">
        <ele>10</ele>
        <time>2019-05-05T08:23:26Z</time>
      </trkpt>
      <trkpt lat="47.35718" lon="-1.12429">
        <ele>10</ele>
        <time>2019-05-05T08:23:38Z</time>
      </trkpt>
      <trkpt lat="47.35741" lon="-1.12369">
        <ele>10</ele>
        <time>2019-05-05T08:23:50Z</time>
      </trkpt>
      <trkpt lat="47.35802" lon="-1.12267">
        <ele>9</ele>
        <time>2019-05-05T08:24:20Z</time>
      </trkpt>
      <trkpt lat="47.35772" lon="-1.12184">
        <ele>8</ele>
        <time>2019-05-05T08:24:38Z</time>
      </trkpt>
      <trkpt lat="47.35765" lon="-1.1212">
        <ele>8</ele>
        <time>2019-05-05T08:24:50Z</time>
      </trkpt>
      <trkpt lat="47.3577" lon="-1.12043">
        <ele>9</ele>
        <time>2019-05-05T08:25:02Z</time>
      </trkpt>
      <trkpt lat="47.35799" lon="-1.11847">
        <ele>9</ele>
        <time>2019-05-05T08:25:38Z</time>
      </trkpt>
      <trkpt lat="47.35827" lon="-1.11837">
        <ele>9</ele>
        <time>2019-05-05T08:25:50Z</time>
      </trkpt>
      <trkpt lat="47.35992" lon="-1.11842">
        <ele>9</ele>
        <time>2019-05-05T08:26:26Z</time>
      </trkpt>
      <trkpt lat="47.36252" lon="-1.11816">
        <ele>10</ele>
        <time>2019-05-05T08:27:20Z</time>
      </trkpt>
      <trkpt lat="47.36362" lon="-1.11829">
        <ele>11</ele>
        <time>2019-05-05T08:27:44Z</time>
      </trkpt>
      <trkpt lat="47.36465" lon="-1.1187">
        <ele>11</ele>
        <time>2019-05-05T08:28:08Z</time>
      </trkpt>
      <trkpt lat="47.36597" lon="-1.11888">
        <ele>7</ele>
        <time>2019-05-05T08:28:44Z</time>
      </trkpt>
      <trkpt lat="47.36569" lon="-1.11444">
        <ele>12</ele>
        <time>2019-05-05T08:29:56Z</time>
      </trkpt>
      <trkpt lat="47.36572" lon="-1.11337">
        <ele>11</ele>
        <time>2019-05-05T08:30:14Z</time>
      </trkpt>
      <trkpt lat="47.36558" lon="-1.11067">
        <ele>10</ele>
        <time>2019-05-05T08:30:56Z</time>
      </trkpt>
      <trkpt lat="47.36521" lon="-1.10604">
        <ele>11</ele>
        <time>2019-05-05T08:32:14Z</time>
      </trkpt>
      <trkpt lat="47.36523" lon="-1.10447">
        <ele>10</ele>
        <time>2019-05-05T08:32:38Z</time>
      </trkpt>
      <trkpt lat="47.36517" lon="-1.10296">
        <ele>9</ele>
        <time>2019-05-05T08:33:02Z</time>
      </trkpt>
      <trkpt lat="47.36503" lon="-1.10221">
        <ele>10</ele>
        <time>2019-05-05T08:33:14Z</time>
      </trkpt>
      <trkpt lat="47.36502" lon="-1.10113">
        <ele>9</ele>
        <time>2019-05-05T08:33:32Z</time>
      </trkpt>
      <trkpt lat="47.36483" lon="-1.09998">
        <ele>10</ele>
        <time>2019-05-05T08:33:50Z</time>
      </trkpt>
      <trkpt lat="47.36436" lon="-1.0979">
        <ele>11</ele>
        <time>2019-05-05T08:34:26Z</time>
      </trkpt>
      <trkpt lat="47.36432" lon="-1.09707">
        <ele>11</ele>
        <time>2019-05-05T08:34:38Z</time>
      </trkpt>
      <trkpt lat="47.36405" lon="-1.09564">
        <ele>10</ele>
        <time>2019-05-05T08:35:02Z</time>
      </trkpt>
      <trkpt lat="47.36375" lon="-1.09264">
        <ele>9</ele>
        <time>2019-05-05T08:35:50Z</time>
      </trkpt>
      <trkpt lat="47.36344" lon="-1.09122">
        <ele>8</ele>
        <time>2019-05-05T08:36:14Z</time>
      </trkpt>
      <trkpt lat="47.36414" lon="-1.09113">
        <ele>8</ele>
        <time>2019-05-05T08:36:32Z</time>
      </trkpt>
      <trkpt lat="47.36504" lon="-1.09015">
        <ele>9</ele>
        <time>2019-05-05T08:36:56Z</time>
      </trkpt>
      <trkpt lat="47.36563" lon="-1.09004">
        <ele>9</ele>
        <time>2019-05-05T08:37:08Z</time>
      </trkpt>
      <trkpt lat="47.36572" lon="-1.08976">
        <ele>9</ele>
        <time>2019-05-05T08:37:14Z</time>
      </trkpt>
      <trkpt lat="47.36573" lon="-1.08742">
        <ele>9</ele>
        <time>2019-05-05T08:37:50Z</time>
      </trkpt>
      <trkpt lat="47.36537" lon="-1.08559">
        <ele>10</ele>
        <time>2019-05-05T08:38:20Z</time>
      </trkpt>
      <trkpt lat="47.36527" lon="-1.08443">
        <ele>9</ele>
        <time>2019-05-05T08:38:38Z</time>
      </trkpt>
      <trkpt lat="47.36512" lon="-1.08365">
        <ele>9</ele>
        <time>2019-05-05T08:38:50Z</time>
      </trkpt>
      <trkpt lat="47.36495" lon="-1.08334">
        <ele>10</ele>
        <time>2019-05-05T08:38:56Z</time>
      </trkpt>
      <trkpt lat="47.36441" lon="-1.08307">
        <ele>10</ele>
        <time>2019-05-05T08:39:08Z</time>
      </trkpt>
      <trkpt lat="47.36303" lon="-1.08091">
        <ele>9</ele>
        <time>2019-05-05T08:39:50Z</time>
      </trkpt>
      <trkpt lat="47.36306" lon="-1.0798">
        <ele>9</ele>
        <time>2019-05-05T08:40:08Z</time>
      </trkpt>
      <trkpt lat="47.36295" lon="-1.07908">
        <ele>9</ele>
        <time>2019-05-05T08:40:20Z</time>
      </trkpt>
      <trkpt lat="47.36263" lon="-1.07805">
        <ele>9</ele>
        <time>2019-05-05T08:40:38Z</time>
      </trkpt>
      <trkpt lat="47.36255" lon="-1.0769">
        <ele>9</ele>
        <time>2019-05-05T08:40:56Z</time>
      </trkpt>
      <trkpt lat="47.36287" lon="-1.07437">
        <ele>10</ele>
        <time>2019-05-05T08:41:38Z</time>
      </trkpt>
      <trkpt lat="47.36328" lon="-1.07331">
        <ele>10</ele>
        <time>2019-05-05T08:41:56Z</time>
      </trkpt>
      <trkpt lat="47.36373" lon="-1.07264">
        <ele>10</ele>
        <time>2019-05-05T08:42:14Z</time>
      </trkpt>
      <trkpt lat="47.36412" lon="-1.07189">
        <ele>10</ele>
        <time>2019-05-05T08:42:32Z</time>
      </trkpt>
      <trkpt lat="47.36433" lon="-1.07123">
        <ele>10</ele>
        <time>2019-05-05T08:42:44Z</time>
      </trkpt>
      <trkpt lat="47.36436" lon="-1.07087">
        <ele>11</ele>
        <time>2019-05-05T08:42:50Z</time>
      </trkpt>
      <trkpt lat="47.36419" lon="-1.0693">
        <ele>10</ele>
        <time>2019-05-05T08:43:14Z</time>
      </trkpt>
      <trkpt lat="47.36419" lon="-1.06856">
        <ele>10</ele>
        <time>2019-05-05T08:43:26Z</time>
      </trkpt>
      <trkpt lat="47.36438" lon="-1.06702">
        <ele>9</ele>
        <time>2019-05-05T08:43:50Z</time>
      </trkpt>
      <trkpt lat="47.36457" lon="-1.06634">
        <ele>9</ele>
        <time>2019-05-05T08:44:02Z</time>
      </trkpt>
      <trkpt lat="47.36449" lon="-1.06606">
        <ele>9</ele>
        <time>2019-05-05T08:44:08Z</time>
      </trkpt>
      <trkpt lat="47.36356" lon="-1.06545">
        <ele>8</ele>
        <time>2019-05-05T08:44:32Z</time>
      </trkpt>
      <trkpt lat="47.36293" lon="-1.06487">
        <ele>9</ele>
        <time>2019-05-05T08:44:50Z</time>
      </trkpt>
      <trkpt lat="47.36133" lon="-1.06471">
        <ele>10</ele>
        <time>2019-05-05T08:45:26Z</time>
      </trkpt>
      <trkpt lat="47.36092" lon="-1.06241">
        <ele>11</ele>
        <time>2019-05-05T08:46:02Z</time>
      </trkpt>
      <trkpt lat="47.36096" lon="-1.05956">
        <ele>11</ele>
        <time>2019-05-05T08:46:51Z</time>
      </trkpt>
      <trkpt lat="47.36104" lon="-1.05909">
        <ele>11</ele>
        <time>2019-05-05T08:47:11Z</time>
      </trkpt>
      <trkpt lat="47.36099" lon="-1.05903">
        <ele>11</ele>
        <time>2019-05-05T08:47:17Z</time>
      </trkpt>
      <trkpt lat="47.36087" lon="-1.05612">
        <ele>10</ele>
        <time>2019-05-05T08:48:22Z</time>
      </trkpt>
      <trkpt lat="47.36091" lon="-1.0491">
        <ele>12</ele>
        <time>2019-05-05T08:50:16Z</time>
      </trkpt>
      <trkpt lat="47.36098" lon="-1.04836">
        <ele>12</ele>
        <time>2019-05-05T08:50:28Z</time>
      </trkpt>
      <trkpt lat="47.36123" lon="-1.04822">
        <ele>9</ele>
        <time>2019-05-05T08:50:34Z</time>
      </trkpt>
      <trkpt lat="47.3615" lon="-1.04778">
        <ele>9</ele>
        <time>2019-05-05T08:50:46Z</time>
      </trkpt>
      <trkpt lat="47.36161" lon="-1.04539">
        <ele>9</ele>
        <time>2019-05-05T08:51:28Z</time>
      </trkpt>
      <trkpt lat="47.36157" lon="-1.04306">
        <ele>10</ele>
        <time>2019-05-05T08:52:10Z</time>
      </trkpt>
      <trkpt lat="47.36104" lon="-1.03919">
        <ele>11</ele>
        <time>2019-05-05T08:53:16Z</time>
      </trkpt>
      <trkpt lat="47.36087" lon="-1.03887">
        <ele>11</ele>
        <time>2019-05-05T08:53:22Z</time>
      </trkpt>
      <trkpt lat="47.36048" lon="-1.03922">
        <ele>11</ele>
        <time>2019-05-05T08:53:40Z</time>
      </trkpt>
      <trkpt lat="47.36029" lon="-1.03892">
        <ele>11</ele>
        <time>2019-05-05T08:53:52Z</time>
      </trkpt>
      <trkpt lat="47.36077" lon="-1.03651">
        <ele>12</ele>
        <time>2019-05-05T08:55:04Z</time>
      </trkpt>
      <trkpt lat="47.36105" lon="-1.03547">
        <ele>12</ele>
        <time>2019-05-05T08:55:22Z</time>
      </trkpt>
      <trkpt lat="47.36136" lon="-1.03521">
        <ele>13</ele>
        <time>2019-05-05T08:55:34Z</time>
      </trkpt>
      <trkpt lat="47.36163" lon="-1.03482">
        <ele>13</ele>
        <time>2019-05-05T08:55:46Z</time>
      </trkpt>
      <trkpt lat="47.36189" lon="-1.03395">
        <ele>13</ele>
        <time>2019-05-05T08:56:04Z</time>
      </trkpt>
      <trkpt lat="47.36218" lon="-1.03231">
        <ele>14</ele>
        <time>2019-05-05T08:56:34Z</time>
      </trkpt>
      <trkpt lat="47.36235" lon="-1.03172">
        <ele>14</ele>
        <time>2019-05-05T08:56:46Z</time>
      </trkpt>
      <trkpt lat="47.36245" lon="-1.03148">
        <ele>14</ele>
        <time>2019-05-05T08:56:51Z</time>
      </trkpt>
      <trkpt lat="47.36305" lon="-1.03157">
        <ele>11</ele>
        <time>2019-05-05T08:57:09Z</time>
      </trkpt>
      <trkpt lat="47.36349" lon="-1.03006">
        <ele>12</ele>
        <time>2019-05-05T08:57:33Z</time>
      </trkpt>
      <trkpt lat="47.36407" lon="-1.02908">
        <ele>9</ele>
        <time>2019-05-05T08:57:57Z</time>
      </trkpt>
      <trkpt lat="47.36404" lon="-1.02806">
        <ele>9</ele>
        <time>2019-05-05T08:58:27Z</time>
      </trkpt>
      <trkpt lat="47.36388" lon="-1.02739">
        <ele>18</ele>
        <time>2019-05-05T08:58:45Z</time>
      </trkpt>
      <trkpt lat="47.36381" lon="-1.02645">
        <ele>24</ele>
        <time>2019-05-05T08:59:13Z</time>
      </trkpt>
      <trkpt lat="47.36409" lon="-1.02606">
        <ele>13</ele>
        <time>2019-05-05T08:59:33Z</time>
      </trkpt>
      <trkpt lat="47.36426" lon="-1.02508">
        <ele>17</ele>
        <time>2019-05-05T08:59:51Z</time>
      </trkpt>
      <trkpt lat="47.36446" lon="-1.02249">
        <ele>26</ele>
        <time>2019-05-05T09:00:27Z</time>
      </trkpt>
      <trkpt lat="47.36461" lon="-1.02136">
        <ele>29</ele>
        <time>2019-05-05T09:00:45Z</time>
      </trkpt>
      <trkpt lat="47.36467" lon="-1.01918">
        <ele>29</ele>
        <time>2019-05-05T09:01:21Z</time>
      </trkpt>
      <trkpt lat="47.36437" lon="-1.01602">
        <ele>10</ele>
        <time>2019-05-05T09:02:21Z</time>
      </trkpt>
      <trkpt lat="47.36424" lon="-1.01576">
        <ele>10</ele>
        <time>2019-05-05T09:02:41Z</time>
      </trkpt>
      <trkpt lat="47.36428" lon="-1.01567">
        <ele>10</ele>
        <time>2019-05-05T09:02:51Z</time>
      </trkpt>
      <trkpt lat="47.36421" lon="-1.01536">
        <ele>10</ele>
        <time>2019-05-05T09:03:04Z</time>
      </trkpt>
      <trkpt lat="47.36431" lon="-1.01478">
        <ele>9</ele>
        <time>2019-05-05T09:03:22Z</time>
      </trkpt>
      <trkpt lat="47.3642" lon="-1.01435">
        <ele>9</ele>
        <time>2019-05-05T09:03:40Z</time>
      </trkpt>
      <trkpt lat="47.364" lon="-1.01412">
        <ele>9</ele>
        <time>2019-05-05T09:03:58Z</time>
      </trkpt>
      <trkpt lat="47.36394" lon="-1.01416">
        <ele>9</ele>
        <time>2019-05-05T09:04:10Z</time>
      </trkpt>
      <trkpt lat="47.36391" lon="-1.01466">
        <ele>17</ele>
        <time>2019-05-05T09:04:44Z</time>
      </trkpt>
      <trkpt lat="47.36331" lon="-1.01488">
        <ele>18</ele>
        <time>2019-05-05T09:05:10Z</time>
      </trkpt>
      <trkpt lat="47.36249" lon="-1.0154">
        <ele>23</ele>
        <time>2019-05-05T09:05:58Z</time>
      </trkpt>
      <trkpt lat="47.36118" lon="-1.01603">
        <ele>25</ele>
        <time>2019-05-05T09:07:10Z</time>
      </trkpt>
      <trkpt lat="47.36071" lon="-1.01621">
        <ele>24</ele>
        <time>2019-05-05T09:07:34Z</time>
      </trkpt>
      <trkpt lat="47.36063" lon="-1.01617">
        <ele>24</ele>
        <time>2019-05-05T09:07:46Z</time>
      </trkpt>
      <trkpt lat="47.36065" lon="-1.01612">
        <ele>24</ele>
        <time>2019-05-05T09:07:56Z</time>
      </trkpt>
      <trkpt lat="47.36059" lon="-1.0161">
        <ele>24</ele>
        <time>2019-05-05T09:08:00Z</time>
      </trkpt>
      <trkpt lat="47.3613" lon="-1.01559">
        <ele>25</ele>
        <time>2019-05-05T09:08:39Z</time>
      </trkpt>
      <trkpt lat="47.36147" lon="-1.01531">
        <ele>25</ele>
        <time>2019-05-05T09:08:51Z</time>
      </trkpt>
      <trkpt lat="47.36117" lon="-1.01241">
        <ele>22</ele>
        <time>2019-05-05T09:09:57Z</time>
      </trkpt>
      <trkpt lat="47.36054" lon="-1.00909">
        <ele>21</ele>
        <time>2019-05-05T09:10:51Z</time>
      </trkpt>
      <trkpt lat="47.36061" lon="-1.00751">
        <ele>22</ele>
        <time>2019-05-05T09:11:15Z</time>
      </trkpt>
      <trkpt lat="47.36058" lon="-1.00666">
        <ele>22</ele>
        <time>2019-05-05T09:11:27Z</time>
      </trkpt>
      <trkpt lat="47.36048" lon="-1.00613">
        <ele>19</ele>
        <time>2019-05-05T09:11:39Z</time>
      </trkpt>
      <trkpt lat="47.35993" lon="-1.0043">
        <ele>13</ele>
        <time>2019-05-05T09:12:03Z</time>
      </trkpt>
      <trkpt lat="47.36029" lon="-1.00138">
        <ele>15</ele>
        <time>2019-05-05T09:12:51Z</time>
      </trkpt>
      <trkpt lat="47.36055" lon="-1.0005">
        <ele>18</ele>
        <time>2019-05-05T09:13:26Z</time>
      </trkpt>
      <trkpt lat="47.36079" lon="-1.0002">
        <ele>18</ele>
        <time>2019-05-05T09:13:39Z</time>
      </trkpt>
      <trkpt lat="47.36103" lon="-0.99967">
        <ele>20</ele>
        <time>2019-05-05T09:13:51Z</time>
      </trkpt>
      <trkpt lat="47.36141" lon="-0.99784">
        <ele>12</ele>
        <time>2019-05-05T09:14:21Z</time>
      </trkpt>
      <trkpt lat="47.36143" lon="-0.99741">
        <ele>12</ele>
        <time>2019-05-05T09:14:27Z</time>
      </trkpt>
      <trkpt lat="47.36115" lon="-0.99386">
        <ele>17</ele>
        <time>2019-05-05T09:15:15Z</time>
      </trkpt>
      <trkpt lat="47.36118" lon="-0.99335">
        <ele>12</ele>
        <time>2019-05-05T09:15:21Z</time>
      </trkpt>
      <trkpt lat="47.3616" lon="-0.99105">
        <ele>15</ele>
        <time>2019-05-05T09:15:51Z</time>
      </trkpt>
      <trkpt lat="47.36157" lon="-0.98881">
        <ele>16</ele>
        <time>2019-05-05T09:16:21Z</time>
      </trkpt>
      <trkpt lat="47.36168" lon="-0.98737">
        <ele>15</ele>
        <time>2019-05-05T09:16:39Z</time>
      </trkpt>
      <trkpt lat="47.36161" lon="-0.98648">
        <ele>15</ele>
        <time>2019-05-05T09:16:51Z</time>
      </trkpt>
      <trkpt lat="47.36131" lon="-0.98524">
        <ele>11</ele>
        <time>2019-05-05T09:17:09Z</time>
      </trkpt>
      <trkpt lat="47.36121" lon="-0.98436">
        <ele>12</ele>
        <time>2019-05-05T09:17:21Z</time>
      </trkpt>
      <trkpt lat="47.36159" lon="-0.98317">
        <ele>14</ele>
        <time>2019-05-05T09:17:39Z</time>
      </trkpt>
      <trkpt lat="47.36176" lon="-0.9824">
        <ele>14</ele>
        <time>2019-05-05T09:17:51Z</time>
      </trkpt>
      <trkpt lat="47.36195" lon="-0.97751">
        <ele>19</ele>
        <time>2019-05-05T09:19:03Z</time>
      </trkpt>
      <trkpt lat="47.36208" lon="-0.97635">
        <ele>20</ele>
        <time>2019-05-05T09:19:21Z</time>
      </trkpt>
      <trkpt lat="47.36553" lon="-0.96329">
        <ele>16</ele>
        <time>2019-05-05T09:22:57Z</time>
      </trkpt>
      <trkpt lat="47.3664" lon="-0.95905">
        <ele>14</ele>
        <time>2019-05-05T09:24:09Z</time>
      </trkpt>
      <trkpt lat="47.36648" lon="-0.95821">
        <ele>16</ele>
        <time>2019-05-05T09:24:27Z</time>
      </trkpt>
      <trkpt lat="47.36651" lon="-0.95558">
        <ele>19</ele>
        <time>2019-05-05T09:25:21Z</time>
      </trkpt>
      <trkpt lat="47.36681" lon="-0.95405">
        <ele>17</ele>
        <time>2019-05-05T09:25:51Z</time>
      </trkpt>
      <trkpt lat="47.36689" lon="-0.95318">
        <ele>17</ele>
        <time>2019-05-05T09:26:09Z</time>
      </trkpt>
      <trkpt lat="47.36654" lon="-0.94627">
        <ele>18</ele>
        <time>2019-05-05T09:27:57Z</time>
      </trkpt>
      <trkpt lat="47.3665" lon="-0.94454">
        <ele>25</ele>
        <time>2019-05-05T09:28:39Z</time>
      </trkpt>
      <trkpt lat="47.36655" lon="-0.94406">
        <ele>25</ele>
        <time>2019-05-05T09:28:51Z</time>
      </trkpt>
      <trkpt lat="47.36642" lon="-0.94325">
        <ele>27</ele>
        <time>2019-05-05T09:29:09Z</time>
      </trkpt>
      <trkpt lat="47.36638" lon="-0.94181">
        <ele>30</ele>
        <time>2019-05-05T09:29:51Z</time>
      </trkpt>
      <trkpt lat="47.36645" lon="-0.941">
        <ele>30</ele>
        <time>2019-05-05T09:30:15Z</time>
      </trkpt>
      <trkpt lat="47.36643" lon="-0.93469">
        <ele>39</ele>
        <time>2019-05-05T09:33:03Z</time>
      </trkpt>
      <trkpt lat="47.3665" lon="-0.93419">
        <ele>39</ele>
        <time>2019-05-05T09:33:15Z</time>
      </trkpt>
      <trkpt lat="47.36667" lon="-0.93354">
        <ele>44</ele>
        <time>2019-05-05T09:33:33Z</time>
      </trkpt>
      <trkpt lat="47.36767" lon="-0.93203">
        <ele>29</ele>
        <time>2019-05-05T09:34:03Z</time>
      </trkpt>
      <trkpt lat="47.37064" lon="-0.92714">
        <ele>17</ele>
        <time>2019-05-05T09:35:21Z</time>
      </trkpt>
      <trkpt lat="47.3725" lon="-0.92282">
        <ele>14</ele>
        <time>2019-05-05T09:36:21Z</time>
      </trkpt>
      <trkpt lat="47.37276" lon="-0.92197">
        <ele>14</ele>
        <time>2019-05-05T09:36:33Z</time>
      </trkpt>
      <trkpt lat="47.3729" lon="-0.9211">
        <ele>14</ele>
        <time>2019-05-05T09:36:45Z</time>
      </trkpt>
      <trkpt lat="47.37324" lon="-0.91673">
        <ele>16</ele>
        <time>2019-05-05T09:37:51Z</time>
      </trkpt>
      <trkpt lat="47.37342" lon="-0.91577">
        <ele>14</ele>
        <time>2019-05-05T09:38:09Z</time>
      </trkpt>
      <trkpt lat="47.37409" lon="-0.91426">
        <ele>14</ele>
        <time>2019-05-05T09:38:39Z</time>
      </trkpt>
      <trkpt lat="47.375" lon="-0.91277">
        <ele>13</ele>
        <time>2019-05-05T09:39:09Z</time>
      </trkpt>
      <trkpt lat="47.37577" lon="-0.91168">
        <ele>13</ele>
        <time>2019-05-05T09:39:33Z</time>
      </trkpt>
      <trkpt lat="47.37607" lon="-0.91105">
        <ele>12</ele>
        <time>2019-05-05T09:39:45Z</time>
      </trkpt>
      <trkpt lat="47.37643" lon="-0.90964">
        <ele>13</ele>
        <time>2019-05-05T09:40:09Z</time>
      </trkpt>
      <trkpt lat="47.37664" lon="-0.9074">
        <ele>13</ele>
        <time>2019-05-05T09:40:45Z</time>
      </trkpt>
      <trkpt lat="47.37686" lon="-0.90586">
        <ele>14</ele>
        <time>2019-05-05T09:41:09Z</time>
      </trkpt>
      <trkpt lat="47.37752" lon="-0.90414">
        <ele>12</ele>
        <time>2019-05-05T09:41:39Z</time>
      </trkpt>
      <trkpt lat="47.3786" lon="-0.90199">
        <ele>12</ele>
        <time>2019-05-05T09:42:21Z</time>
      </trkpt>
      <trkpt lat="47.37885" lon="-0.90047">
        <ele>9</ele>
        <time>2019-05-05T09:42:45Z</time>
      </trkpt>
      <trkpt lat="47.3796" lon="-0.8975">
        <ele>12</ele>
        <time>2019-05-05T09:43:33Z</time>
      </trkpt>
      <trkpt lat="47.37952" lon="-0.89554">
        <ele>11</ele>
        <time>2019-05-05T09:44:03Z</time>
      </trkpt>
      <trkpt lat="47.3793" lon="-0.89321">
        <ele>13</ele>
        <time>2019-05-05T09:44:39Z</time>
      </trkpt>
      <trkpt lat="47.37935" lon="-0.89142">
        <ele>12</ele>
        <time>2019-05-05T09:45:03Z</time>
      </trkpt>
      <trkpt lat="47.37929" lon="-0.89095">
        <ele>11</ele>
        <time>2019-05-05T09:45:09Z</time>
      </trkpt>
      <trkpt lat="47.37898" lon="-0.88968">
        <ele>11</ele>
        <time>2019-05-05T09:45:27Z</time>
      </trkpt>
      <trkpt lat="47.37892" lon="-0.88889">
        <ele>11</ele>
        <time>2019-05-05T09:45:39Z</time>
      </trkpt>
      <trkpt lat="47.37928" lon="-0.88775">
        <ele>12</ele>
        <time>2019-05-05T09:45:57Z</time>
      </trkpt>
      <trkpt lat="47.3795" lon="-0.88569">
        <ele>13</ele>
        <time>2019-05-05T09:46:27Z</time>
      </trkpt>
      <trkpt lat="47.38004" lon="-0.88372">
        <ele>10</ele>
        <time>2019-05-05T09:46:57Z</time>
      </trkpt>
      <trkpt lat="47.38025" lon="-0.88221">
        <ele>12</ele>
        <time>2019-05-05T09:47:21Z</time>
      </trkpt>
      <trkpt lat="47.3812" lon="-0.87859">
        <ele>13</ele>
        <time>2019-05-05T09:48:21Z</time>
      </trkpt>
      <trkpt lat="47.38126" lon="-0.87817">
        <ele>13</ele>
        <time>2019-05-05T09:48:27Z</time>
      </trkpt>
      <trkpt lat="47.38136" lon="-0.87529">
        <ele>16</ele>
        <time>2019-05-05T09:49:21Z</time>
      </trkpt>
      <trkpt lat="47.38223" lon="-0.87179">
        <ele>16</ele>
        <time>2019-05-05T09:50:27Z</time>
      </trkpt>
      <trkpt lat="47.38312" lon="-0.86936">
        <ele>14</ele>
        <time>2019-05-05T09:51:03Z</time>
      </trkpt>
      <trkpt lat="47.38344" lon="-0.86873">
        <ele>14</ele>
        <time>2019-05-05T09:51:15Z</time>
      </trkpt>
      <trkpt lat="47.38563" lon="-0.86621">
        <ele>18</ele>
        <time>2019-05-05T09:52:21Z</time>
      </trkpt>
      <trkpt lat="47.38591" lon="-0.86571">
        <ele>18</ele>
        <time>2019-05-05T09:52:33Z</time>
      </trkpt>
      <trkpt lat="47.38659" lon="-0.86313">
        <ele>21</ele>
        <time>2019-05-05T09:53:21Z</time>
      </trkpt>
      <trkpt lat="47.38664" lon="-0.86268">
        <ele>21</ele>
        <time>2019-05-05T09:53:33Z</time>
      </trkpt>
      <trkpt lat="47.38676" lon="-0.86245">
        <ele>21</ele>
        <time>2019-05-05T09:53:48Z</time>
      </trkpt>
      <trkpt lat="47.3882" lon="-0.86275">
        <ele>20</ele>
        <time>2019-05-05T09:54:37Z</time>
      </trkpt>
      <trkpt lat="47.38885" lon="-0.86278">
        <ele>20</ele>
        <time>2019-05-05T09:54:49Z</time>
      </trkpt>
      <trkpt lat="47.38954" lon="-0.86265">
        <ele>14</ele>
        <time>2019-05-05T09:55:01Z</time>
      </trkpt>
      <trkpt lat="47.38988" lon="-0.86254">
        <ele>14</ele>
        <time>2019-05-05T09:55:07Z</time>
      </trkpt>
      <trkpt lat="47.39061" lon="-0.86205">
        <ele>14</ele>
        <time>2019-05-05T09:55:25Z</time>
      </trkpt>
      <trkpt lat="47.39164" lon="-0.86136">
        <ele>16</ele>
        <time>2019-05-05T09:55:55Z</time>
      </trkpt>
      <trkpt lat="47.39189" lon="-0.86107">
        <ele>12</ele>
        <time>2019-05-05T09:56:07Z</time>
      </trkpt>
      <trkpt lat="47.39158" lon="-0.86019">
        <ele>11</ele>
        <time>2019-05-05T09:56:57Z</time>
      </trkpt>
      <trkpt lat="47.39017" lon="-0.85889">
        <ele>10</ele>
        <time>2019-05-05T09:58:17Z</time>
      </trkpt>
      <trkpt lat="47.38971" lon="-0.85815">
        <ele>12</ele>
        <time>2019-05-05T09:58:35Z</time>
      </trkpt>
      <trkpt lat="47.38919" lon="-0.85648">
        <ele>10</ele>
        <time>2019-05-05T09:59:19Z</time>
      </trkpt>
      <trkpt lat="47.38915" lon="-0.85584">
        <ele>10</ele>
        <time>2019-05-05T09:59:43Z</time>
      </trkpt>
      <trkpt lat="47.3888" lon="-0.85533">
        <ele>15</ele>
        <time>2019-05-05T10:00:05Z</time>
      </trkpt>
      <trkpt lat="47.38847" lon="-0.85414">
        <ele>10</ele>
        <time>2019-05-05T10:00:29Z</time>
      </trkpt>
      <trkpt lat="47.38781" lon="-0.85239">
        <ele>11</ele>
        <time>2019-05-05T10:01:05Z</time>
      </trkpt>
      <trkpt lat="47.38679" lon="-0.85042">
        <ele>19</ele>
        <time>2019-05-05T10:02:03Z</time>
      </trkpt>
      <trkpt lat="47.38773" lon="-0.84913">
        <ele>11</ele>
        <time>2019-05-05T10:02:47Z</time>
      </trkpt>
      <trkpt lat="47.38807" lon="-0.84895">
        <ele>11</ele>
        <time>2019-05-05T10:02:53Z</time>
      </trkpt>
      <trkpt lat="47.38869" lon="-0.8492">
        <ele>12</ele>
        <time>2019-05-05T10:03:05Z</time>
      </trkpt>
      <trkpt lat="47.3891" lon="-0.84873">
        <ele>13</ele>
        <time>2019-05-05T10:03:17Z</time>
      </trkpt>
      <trkpt lat="47.38948" lon="-0.8469">
        <ele>11</ele>
        <time>2019-05-05T10:03:47Z</time>
      </trkpt>
      <trkpt lat="47.38936" lon="-0.84509">
        <ele>11</ele>
        <time>2019-05-05T10:04:17Z</time>
      </trkpt>
      <trkpt lat="47.38903" lon="-0.84343">
        <ele>13</ele>
        <time>2019-05-05T10:04:47Z</time>
      </trkpt>
      <trkpt lat="47.38881" lon="-0.84303">
        <ele>12</ele>
        <time>2019-05-05T10:04:53Z</time>
      </trkpt>
      <trkpt lat="47.38757" lon="-0.84152">
        <ele>12</ele>
        <time>2019-05-05T10:05:23Z</time>
      </trkpt>
      <trkpt lat="47.387" lon="-0.84053">
        <ele>12</ele>
        <time>2019-05-05T10:05:41Z</time>
      </trkpt>
      <trkpt lat="47.38622" lon="-0.83942">
        <ele>12</ele>
        <time>2019-05-05T10:06:05Z</time>
      </trkpt>
      <trkpt lat="47.38602" lon="-0.83922">
        <ele>12</ele>
        <time>2019-05-05T10:06:11Z</time>
      </trkpt>
      <trkpt lat="47.38557" lon="-0.83936">
        <ele>12</ele>
        <time>2019-05-05T10:06:23Z</time>
      </trkpt>
      <trkpt lat="47.38494" lon="-0.83874">
        <ele>12</ele>
        <time>2019-05-05T10:06:41Z</time>
      </trkpt>
      <trkpt lat="47.38429" lon="-0.83679">
        <ele>11</ele>
        <time>2019-05-05T10:07:17Z</time>
      </trkpt>
      <trkpt lat="47.38385" lon="-0.83574">
        <ele>12</ele>
        <time>2019-05-05T10:07:35Z</time>
      </trkpt>
      <trkpt lat="47.38345" lon="-0.83424">
        <ele>11</ele>
        <time>2019-05-05T10:07:59Z</time>
      </trkpt>
      <trkpt lat="47.38267" lon="-0.83257">
        <ele>12</ele>
        <time>2019-05-05T10:08:29Z</time>
      </trkpt>
      <trkpt lat="47.38164" lon="-0.83123">
        <ele>11</ele>
        <time>2019-05-05T10:08:59Z</time>
      </trkpt>
      <trkpt lat="47.38011" lon="-0.82992">
        <ele>12</ele>
        <time>2019-05-05T10:09:35Z</time>
      </trkpt>
      <trkpt lat="47.37879" lon="-0.8286">
        <ele>11</ele>
        <time>2019-05-05T10:10:11Z</time>
      </trkpt>
      <trkpt lat="47.37814" lon="-0.82765">
        <ele>18</ele>
        <time>2019-05-05T10:10:29Z</time>
      </trkpt>
      <trkpt lat="47.37757" lon="-0.82633">
        <ele>11</ele>
        <time>2019-05-05T10:10:53Z</time>
      </trkpt>
      <trkpt lat="47.3771" lon="-0.82483">
        <ele>13</ele>
        <time>2019-05-05T10:11:17Z</time>
      </trkpt>
      <trkpt lat="47.37617" lon="-0.82018">
        <ele>14</ele>
        <time>2019-05-05T10:12:29Z</time>
      </trkpt>
      <trkpt lat="47.37562" lon="-0.81822">
        <ele>12</ele>
        <time>2019-05-05T10:12:59Z</time>
      </trkpt>
      <trkpt lat="47.37468" lon="-0.81551">
        <ele>12</ele>
        <time>2019-05-05T10:13:41Z</time>
      </trkpt>
      <trkpt lat="47.37404" lon="-0.81334">
        <ele>14</ele>
        <time>2019-05-05T10:14:17Z</time>
      </trkpt>
      <trkpt lat="47.37399" lon="-0.81178">
        <ele>15</ele>
        <time>2019-05-05T10:14:41Z</time>
      </trkpt>
      <trkpt lat="47.37373" lon="-0.81018">
        <ele>13</ele>
        <time>2019-05-05T10:15:05Z</time>
      </trkpt>
      <trkpt lat="47.3734" lon="-0.80904">
        <ele>13</ele>
        <time>2019-05-05T10:15:23Z</time>
      </trkpt>
      <trkpt lat="47.37279" lon="-0.80751">
        <ele>13</ele>
        <time>2019-05-05T10:15:47Z</time>
      </trkpt>
      <trkpt lat="47.37233" lon="-0.80597">
        <ele>13</ele>
        <time>2019-05-05T10:16:11Z</time>
      </trkpt>
      <trkpt lat="47.37158" lon="-0.80241">
        <ele>14</ele>
        <time>2019-05-05T10:17:05Z</time>
      </trkpt>
      <trkpt lat="47.37113" lon="-0.80215">
        <ele>13</ele>
        <time>2019-05-05T10:17:17Z</time>
      </trkpt>
      <trkpt lat="47.36952" lon="-0.80296">
        <ele>14</ele>
        <time>2019-05-05T10:17:53Z</time>
      </trkpt>
      <trkpt lat="47.36765" lon="-0.79984">
        <ele>11</ele>
        <time>2019-05-05T10:18:53Z</time>
      </trkpt>
      <trkpt lat="47.3675" lon="-0.79947">
        <ele>11</ele>
        <time>2019-05-05T10:18:59Z</time>
      </trkpt>
      <trkpt lat="47.36702" lon="-0.79711">
        <ele>11</ele>
        <time>2019-05-05T10:19:35Z</time>
      </trkpt>
      <trkpt lat="47.36689" lon="-0.79585">
        <ele>15</ele>
        <time>2019-05-05T10:19:53Z</time>
      </trkpt>
      <trkpt lat="47.36661" lon="-0.79516">
        <ele>11</ele>
        <time>2019-05-05T10:20:05Z</time>
      </trkpt>
      <trkpt lat="47.36644" lon="-0.79437">
        <ele>11</ele>
        <time>2019-05-05T10:20:17Z</time>
      </trkpt>
      <trkpt lat="47.36638" lon="-0.7935">
        <ele>13</ele>
        <time>2019-05-05T10:20:29Z</time>
      </trkpt>
      <trkpt lat="47.36649" lon="-0.79231">
        <ele>15</ele>
        <time>2019-05-05T10:20:47Z</time>
      </trkpt>
      <trkpt lat="47.36626" lon="-0.79159">
        <ele>15</ele>
        <time>2019-05-05T10:20:59Z</time>
      </trkpt>
      <trkpt lat="47.36609" lon="-0.79124">
        <ele>15</ele>
        <time>2019-05-05T10:21:05Z</time>
      </trkpt>
      <trkpt lat="47.36566" lon="-0.79071">
        <ele>11</ele>
        <time>2019-05-05T10:21:17Z</time>
      </trkpt>
      <trkpt lat="47.36539" lon="-0.79005">
        <ele>11</ele>
        <time>2019-05-05T10:21:29Z</time>
      </trkpt>
      <trkpt lat="47.3648" lon="-0.78815">
        <ele>11</ele>
        <time>2019-05-05T10:21:59Z</time>
      </trkpt>
      <trkpt lat="47.36464" lon="-0.78699">
        <ele>11</ele>
        <time>2019-05-05T10:22:17Z</time>
      </trkpt>
      <trkpt lat="47.36329" lon="-0.78212">
        <ele>12</ele>
        <time>2019-05-05T10:23:53Z</time>
      </trkpt>
      <trkpt lat="47.36197" lon="-0.77837">
        <ele>11</ele>
        <time>2019-05-05T10:25:22Z</time>
      </trkpt>
      <trkpt lat="47.36204" lon="-0.77826">
        <ele>11</ele>
        <time>2019-05-05T10:25:26Z</time>
      </trkpt>
      <trkpt lat="47.36187" lon="-0.77717">
        <ele>13</ele>
        <time>2019-05-05T10:25:57Z</time>
      </trkpt>
      <trkpt lat="47.36181" lon="-0.77514">
        <ele>15</ele>
        <time>2019-05-05T10:26:33Z</time>
      </trkpt>
      <trkpt lat="47.36145" lon="-0.77471">
        <ele>15</ele>
        <time>2019-05-05T10:26:45Z</time>
      </trkpt>
      <trkpt lat="47.36076" lon="-0.7724">
        <ele>15</ele>
        <time>2019-05-05T10:27:27Z</time>
      </trkpt>
      <trkpt lat="47.36055" lon="-0.7723">
        <ele>15</ele>
        <time>2019-05-05T10:27:33Z</time>
      </trkpt>
      <trkpt lat="47.35979" lon="-0.77271">
        <ele>14</ele>
        <time>2019-05-05T10:27:51Z</time>
      </trkpt>
      <trkpt lat="47.35927" lon="-0.77242">
        <ele>11</ele>
        <time>2019-05-05T10:28:03Z</time>
      </trkpt>
      <trkpt lat="47.35894" lon="-0.77199">
        <ele>11</ele>
        <time>2019-05-05T10:28:15Z</time>
      </trkpt>
      <trkpt lat="47.3583" lon="-0.77087">
        <ele>11</ele>
        <time>2019-05-05T10:28:45Z</time>
      </trkpt>
      <trkpt lat="47.35779" lon="-0.7698">
        <ele>13</ele>
        <time>2019-05-05T10:29:09Z</time>
      </trkpt>
      <trkpt lat="47.35706" lon="-0.76854">
        <ele>13</ele>
        <time>2019-05-05T10:29:39Z</time>
      </trkpt>
      <trkpt lat="47.35619" lon="-0.76729">
        <ele>12</ele>
        <time>2019-05-05T10:30:15Z</time>
      </trkpt>
      <trkpt lat="47.35592" lon="-0.76679">
        <ele>12</ele>
        <time>2019-05-05T10:30:27Z</time>
      </trkpt>
      <trkpt lat="47.35575" lon="-0.76629">
        <ele>12</ele>
        <time>2019-05-05T10:30:39Z</time>
      </trkpt>
      <trkpt lat="47.35558" lon="-0.76482">
        <ele>11</ele>
        <time>2019-05-05T10:31:09Z</time>
      </trkpt>
      <trkpt lat="47.35542" lon="-0.7645">
        <ele>11</ele>
        <time>2019-05-05T10:31:33Z</time>
      </trkpt>
      <trkpt lat="47.35518" lon="-0.76335">
        <ele>11</ele>
        <time>2019-05-05T10:31:57Z</time>
      </trkpt>
      <trkpt lat="47.35513" lon="-0.76278">
        <ele>11</ele>
        <time>2019-05-05T10:32:09Z</time>
      </trkpt>
      <trkpt lat="47.35518" lon="-0.7618">
        <ele>13</ele>
        <time>2019-05-05T10:32:39Z</time>
      </trkpt>
      <trkpt lat="47.355" lon="-0.76144">
        <ele>13</ele>
        <time>2019-05-05T10:33:03Z</time>
      </trkpt>
      <trkpt lat="47.35512" lon="-0.76116">
        <ele>13</ele>
        <time>2019-05-05T10:33:27Z</time>
      </trkpt>
      <trkpt lat="47.35503" lon="-0.76114">
        <ele>13</ele>
        <time>2019-05-05T10:33:29Z</time>
      </trkpt>
      <trkpt lat="47.35486" lon="-0.76083">
        <ele>13</ele>
        <time>2019-05-05T10:33:40Z</time>
      </trkpt>
      <trkpt lat="47.35479" lon="-0.75952">
        <ele>15</ele>
        <time>2019-05-05T10:34:04Z</time>
      </trkpt>
      <trkpt lat="47.35374" lon="-0.7567">
        <ele>14</ele>
        <time>2019-05-05T10:34:59Z</time>
      </trkpt>
      <trkpt lat="47.35416" lon="-0.75586">
        <ele>14</ele>
        <time>2019-05-05T10:35:11Z</time>
      </trkpt>
      <trkpt lat="47.35518" lon="-0.75448">
        <ele>14</ele>
        <time>2019-05-05T10:35:40Z</time>
      </trkpt>
      <trkpt lat="47.3574" lon="-0.75361">
        <ele>15</ele>
        <time>2019-05-05T10:36:41Z</time>
      </trkpt>
      <trkpt lat="47.3578" lon="-0.75193">
        <ele>13</ele>
        <time>2019-05-05T10:37:17Z</time>
      </trkpt>
      <trkpt lat="47.35806" lon="-0.7503">
        <ele>13</ele>
        <time>2019-05-05T10:37:47Z</time>
      </trkpt>
      <trkpt lat="47.35811" lon="-0.74883">
        <ele>13</ele>
        <time>2019-05-05T10:38:11Z</time>
      </trkpt>
      <trkpt lat="47.35819" lon="-0.74859">
        <ele>13</ele>
        <time>2019-05-05T10:38:17Z</time>
      </trkpt>
      <trkpt lat="47.35877" lon="-0.74853">
        <ele>13</ele>
        <time>2019-05-05T10:38:29Z</time>
      </trkpt>
      <trkpt lat="47.35895" lon="-0.74842">
        <ele>13</ele>
        <time>2019-05-05T10:38:34Z</time>
      </trkpt>
      <trkpt lat="47.3591" lon="-0.74817">
        <ele>13</ele>
        <time>2019-05-05T10:38:47Z</time>
      </trkpt>
      <trkpt lat="47.35991" lon="-0.74825">
        <ele>14</ele>
        <time>2019-05-05T10:39:05Z</time>
      </trkpt>
      <trkpt lat="47.36035" lon="-0.74801">
        <ele>13</ele>
        <time>2019-05-05T10:39:16Z</time>
      </trkpt>
      <trkpt lat="47.36058" lon="-0.7481">
        <ele>13</ele>
        <time>2019-05-05T10:39:29Z</time>
      </trkpt>
      <trkpt lat="47.36073" lon="-0.74977">
        <ele>14</ele>
        <time>2019-05-05T10:39:59Z</time>
      </trkpt>
      <trkpt lat="47.36105" lon="-0.7519">
        <ele>15</ele>
        <time>2019-05-05T10:40:35Z</time>
      </trkpt>
      <trkpt lat="47.36183" lon="-0.7538">
        <ele>15</ele>
        <time>2019-05-05T10:41:11Z</time>
      </trkpt>
      <trkpt lat="47.36265" lon="-0.7571">
        <ele>16</ele>
        <time>2019-05-05T10:42:16Z</time>
      </trkpt>
      <trkpt lat="47.36288" lon="-0.75708">
        <ele>16</ele>
        <time>2019-05-05T10:42:28Z</time>
      </trkpt>
      <trkpt lat="47.36399" lon="-0.75652">
        <ele>12</ele>
        <time>2019-05-05T10:43:11Z</time>
      </trkpt>
      <trkpt lat="47.36714" lon="-0.75475">
        <ele>12</ele>
        <time>2019-05-05T10:44:43Z</time>
      </trkpt>
      <trkpt lat="47.36937" lon="-0.75364">
        <ele>12</ele>
        <time>2019-05-05T10:45:56Z</time>
      </trkpt>
      <trkpt lat="47.37009" lon="-0.75323">
        <ele>17</ele>
        <time>2019-05-05T10:46:14Z</time>
      </trkpt>
      <trkpt lat="47.37036" lon="-0.75298">
        <ele>17</ele>
        <time>2019-05-05T10:46:26Z</time>
      </trkpt>
      <trkpt lat="47.37014" lon="-0.75239">
        <ele>15</ele>
        <time>2019-05-05T10:46:38Z</time>
      </trkpt>
      <trkpt lat="47.36953" lon="-0.74909">
        <ele>14</ele>
        <time>2019-05-05T10:47:38Z</time>
      </trkpt>
      <trkpt lat="47.36815" lon="-0.74506">
        <ele>14</ele>
        <time>2019-05-05T10:48:50Z</time>
      </trkpt>
      <trkpt lat="47.36811" lon="-0.74467">
        <ele>14</ele>
        <time>2019-05-05T10:48:56Z</time>
      </trkpt>
      <trkpt lat="47.36815" lon="-0.7439">
        <ele>15</ele>
        <time>2019-05-05T10:49:08Z</time>
      </trkpt>
      <trkpt lat="47.36839" lon="-0.7432">
        <ele>15</ele>
        <time>2019-05-05T10:49:20Z</time>
      </trkpt>
      <trkpt lat="47.36842" lon="-0.7425">
        <ele>17</ele>
        <time>2019-05-05T10:49:32Z</time>
      </trkpt>
      <trkpt lat="47.36785" lon="-0.74088">
        <ele>15</ele>
        <time>2019-05-05T10:50:02Z</time>
      </trkpt>
      <trkpt lat="47.36769" lon="-0.7398">
        <ele>13</ele>
        <time>2019-05-05T10:50:20Z</time>
      </trkpt>
      <trkpt lat="47.36674" lon="-0.73507">
        <ele>14</ele>
        <time>2019-05-05T10:51:38Z</time>
      </trkpt>
      <trkpt lat="47.36587" lon="-0.73263">
        <ele>15</ele>
        <time>2019-05-05T10:52:21Z</time>
      </trkpt>
      <trkpt lat="47.3657" lon="-0.73189">
        <ele>14</ele>
        <time>2019-05-05T10:52:33Z</time>
      </trkpt>
      <trkpt lat="47.36524" lon="-0.7308">
        <ele>14</ele>
        <time>2019-05-05T10:52:51Z</time>
      </trkpt>
      <trkpt lat="47.36508" lon="-0.72997">
        <ele>15</ele>
        <time>2019-05-05T10:53:03Z</time>
      </trkpt>
      <trkpt lat="47.36434" lon="-0.72805">
        <ele>14</ele>
        <time>2019-05-05T10:53:44Z</time>
      </trkpt>
      <trkpt lat="47.36381" lon="-0.72699">
        <ele>12</ele>
        <time>2019-05-05T10:54:08Z</time>
      </trkpt>
      <trkpt lat="47.36381" lon="-0.7266">
        <ele>12</ele>
        <time>2019-05-05T10:54:14Z</time>
      </trkpt>
      <trkpt lat="47.36459" lon="-0.72348">
        <ele>16</ele>
        <time>2019-05-05T10:55:08Z</time>
      </trkpt>
      <trkpt lat="47.36462" lon="-0.72277">
        <ele>16</ele>
        <time>2019-05-05T10:55:20Z</time>
      </trkpt>
      <trkpt lat="47.36438" lon="-0.72049">
        <ele>16</ele>
        <time>2019-05-05T10:55:56Z</time>
      </trkpt>
      <trkpt lat="47.36437" lon="-0.71855">
        <ele>16</ele>
        <time>2019-05-05T10:56:26Z</time>
      </trkpt>
      <trkpt lat="47.365" lon="-0.71624">
        <ele>14</ele>
        <time>2019-05-05T10:57:08Z</time>
      </trkpt>
      <trkpt lat="47.36547" lon="-0.7037">
        <ele>11</ele>
        <time>2019-05-05T11:00:32Z</time>
      </trkpt>
      <trkpt lat="47.36588" lon="-0.70166">
        <ele>15</ele>
        <time>2019-05-05T11:01:08Z</time>
      </trkpt>
      <trkpt lat="47.366" lon="-0.70062">
        <ele>15</ele>
        <time>2019-05-05T11:01:26Z</time>
      </trkpt>
      <trkpt lat="47.36587" lon="-0.70058">
        <ele>15</ele>
        <time>2019-05-05T11:01:38Z</time>
      </trkpt>
      <trkpt lat="47.3659" lon="-0.7002">
        <ele>14</ele>
        <time>2019-05-05T11:01:50Z</time>
      </trkpt>
      <trkpt lat="47.36631" lon="-0.69852">
        <ele>11</ele>
        <time>2019-05-05T11:02:20Z</time>
      </trkpt>
      <trkpt lat="47.36647" lon="-0.69652">
        <ele>11</ele>
        <time>2019-05-05T11:02:56Z</time>
      </trkpt>
      <trkpt lat="47.36734" lon="-0.694">
        <ele>16</ele>
        <time>2019-05-05T11:03:44Z</time>
      </trkpt>
      <trkpt lat="47.36772" lon="-0.69264">
        <ele>16</ele>
        <time>2019-05-05T11:04:08Z</time>
      </trkpt>
      <trkpt lat="47.36803" lon="-0.69111">
        <ele>12</ele>
        <time>2019-05-05T11:04:38Z</time>
      </trkpt>
      <trkpt lat="47.36848" lon="-0.69011">
        <ele>11</ele>
        <time>2019-05-05T11:04:56Z</time>
      </trkpt>
      <trkpt lat="47.36967" lon="-0.68802">
        <ele>15</ele>
        <time>2019-05-05T11:05:44Z</time>
      </trkpt>
      <trkpt lat="47.37017" lon="-0.68677">
        <ele>12</ele>
        <time>2019-05-05T11:06:08Z</time>
      </trkpt>
      <trkpt lat="47.37071" lon="-0.68493">
        <ele>13</ele>
        <time>2019-05-05T11:06:50Z</time>
      </trkpt>
      <trkpt lat="47.37153" lon="-0.68453">
        <ele>19</ele>
        <time>2019-05-05T11:07:47Z</time>
      </trkpt>
      <trkpt lat="47.37081" lon="-0.68408">
        <ele>13</ele>
        <time>2019-05-05T11:09:22Z</time>
      </trkpt>
      <trkpt lat="47.37078" lon="-0.68392">
        <ele>13</ele>
        <time>2019-05-05T11:09:37Z</time>
      </trkpt>
      <trkpt lat="47.37116" lon="-0.68427">
        <ele>13</ele>
        <time>2019-05-05T11:10:30Z</time>
      </trkpt>
      <trkpt lat="47.37145" lon="-0.68437">
        <ele>19</ele>
        <time>2019-05-05T11:11:01Z</time>
      </trkpt>
      <trkpt lat="47.37155" lon="-0.68452">
        <ele>19</ele>
        <time>2019-05-05T11:11:20Z</time>
      </trkpt>
      <trkpt lat="47.37171" lon="-0.68447">
        <ele>19</ele>
        <time>2019-05-05T11:11:40Z</time>
      </trkpt>
      <trkpt lat="47.37313" lon="-0.68496">
        <ele>24</ele>
        <time>2019-05-05T11:14:04Z</time>
      </trkpt>
      <trkpt lat="47.37381" lon="-0.68511">
        <ele>30</ele>
        <time>2019-05-05T11:15:16Z</time>
      </trkpt>
      <trkpt lat="47.37393" lon="-0.68495">
        <ele>30</ele>
        <time>2019-05-05T11:15:38Z</time>
      </trkpt>
      <trkpt lat="47.37397" lon="-0.68472">
        <ele>30</ele>
        <time>2019-05-05T11:15:52Z</time>
      </trkpt>
      <trkpt lat="47.37418" lon="-0.68466">
        <ele>37</ele>
        <time>2019-05-05T11:16:18Z</time>
      </trkpt>
      <trkpt lat="47.37489" lon="-0.68493">
        <ele>37</ele>
        <time>2019-05-05T11:17:02Z</time>
      </trkpt>
      <trkpt lat="47.3759" lon="-0.68511">
        <ele>44</ele>
        <time>2019-05-05T11:17:54Z</time>
      </trkpt>
      <trkpt lat="47.37604" lon="-0.68447">
        <ele>47</ele>
        <time>2019-05-05T11:18:18Z</time>
      </trkpt>
      <trkpt lat="47.37634" lon="-0.68394">
        <ele>47</ele>
        <time>2019-05-05T11:18:51Z</time>
      </trkpt>
      <trkpt lat="47.37677" lon="-0.68233">
        <ele>45</ele>
        <time>2019-05-05T11:19:47Z</time>
      </trkpt>
      <trkpt lat="47.37733" lon="-0.68076">
        <ele>46</ele>
        <time>2019-05-05T11:20:35Z</time>
      </trkpt>
      <trkpt lat="47.37813" lon="-0.6772">
        <ele>46</ele>
        <time>2019-05-05T11:21:38Z</time>
      </trkpt>
      <trkpt lat="47.37984" lon="-0.67178">
        <ele>51</ele>
        <time>2019-05-05T11:24:25Z</time>
      </trkpt>
      <trkpt lat="47.38044" lon="-0.67069">
        <ele>50</ele>
        <time>2019-05-05T11:25:01Z</time>
      </trkpt>
      <trkpt lat="47.38239" lon="-0.66767">
        <ele>44</ele>
        <time>2019-05-05T11:26:05Z</time>
      </trkpt>
      <trkpt lat="47.38368" lon="-0.66601">
        <ele>41</ele>
        <time>2019-05-05T11:26:44Z</time>
      </trkpt>
      <trkpt lat="47.38381" lon="-0.66535">
        <ele>41</ele>
        <time>2019-05-05T11:26:56Z</time>
      </trkpt>
      <trkpt lat="47.38398" lon="-0.66329">
        <ele>39</ele>
        <time>2019-05-05T11:27:19Z</time>
      </trkpt>
      <trkpt lat="47.38479" lon="-0.66284">
        <ele>40</ele>
        <time>2019-05-05T11:27:43Z</time>
      </trkpt>
      <trkpt lat="47.3857" lon="-0.66185">
        <ele>39</ele>
        <time>2019-05-05T11:28:19Z</time>
      </trkpt>
      <trkpt lat="47.38566" lon="-0.66144">
        <ele>39</ele>
        <time>2019-05-05T11:28:31Z</time>
      </trkpt>
      <trkpt lat="47.38473" lon="-0.65953">
        <ele>36</ele>
        <time>2019-05-05T11:29:07Z</time>
      </trkpt>
      <trkpt lat="47.38418" lon="-0.65888">
        <ele>32</ele>
        <time>2019-05-05T11:29:19Z</time>
      </trkpt>
      <trkpt lat="47.38288" lon="-0.65785">
        <ele>31</ele>
        <time>2019-05-05T11:29:55Z</time>
      </trkpt>
      <trkpt lat="47.38279" lon="-0.65771">
        <ele>28</ele>
        <time>2019-05-05T11:30:01Z</time>
      </trkpt>
      <trkpt lat="47.3828" lon="-0.65719">
        <ele>28</ele>
        <time>2019-05-05T11:30:13Z</time>
      </trkpt>
      <trkpt lat="47.38268" lon="-0.65676">
        <ele>28</ele>
        <time>2019-05-05T11:30:31Z</time>
      </trkpt>
      <trkpt lat="47.3819" lon="-0.65598">
        <ele>21</ele>
        <time>2019-05-05T11:31:06Z</time>
      </trkpt>
      <trkpt lat="47.3819" lon="-0.6559">
        <ele>21</ele>
        <time>2019-05-05T11:31:10Z</time>
      </trkpt>
      <trkpt lat="47.38174" lon="-0.65606">
        <ele>21</ele>
        <time>2019-05-05T11:31:17Z</time>
      </trkpt>
      <trkpt lat="47.38141" lon="-0.65608">
        <ele>19</ele>
        <time>2019-05-05T11:31:29Z</time>
      </trkpt>
      <trkpt lat="47.38122" lon="-0.65563">
        <ele>19</ele>
        <time>2019-05-05T11:31:41Z</time>
      </trkpt>
      <trkpt lat="47.38136" lon="-0.6551">
        <ele>19</ele>
        <time>2019-05-05T11:31:53Z</time>
      </trkpt>
      <trkpt lat="47.38233" lon="-0.65271">
        <ele>17</ele>
        <time>2019-05-05T11:32:29Z</time>
      </trkpt>
      <trkpt lat="47.38567" lon="-0.64486">
        <ele>18</ele>
        <time>2019-05-05T11:35:09Z</time>
      </trkpt>
      <trkpt lat="47.38585" lon="-0.64476">
        <ele>18</ele>
        <time>2019-05-05T11:35:15Z</time>
      </trkpt>
      <trkpt lat="47.38625" lon="-0.64512">
        <ele>18</ele>
        <time>2019-05-05T11:35:27Z</time>
      </trkpt>
      <trkpt lat="47.3865" lon="-0.64513">
        <ele>22</ele>
        <time>2019-05-05T11:35:39Z</time>
      </trkpt>
      <trkpt lat="47.38688" lon="-0.6432">
        <ele>20</ele>
        <time>2019-05-05T11:36:21Z</time>
      </trkpt>
      <trkpt lat="47.38728" lon="-0.64178">
        <ele>24</ele>
        <time>2019-05-05T11:36:51Z</time>
      </trkpt>
      <trkpt lat="47.3873" lon="-0.64155">
        <ele>24</ele>
        <time>2019-05-05T11:37:04Z</time>
      </trkpt>
      <trkpt lat="47.3871" lon="-0.64138">
        <ele>18</ele>
        <time>2019-05-05T11:37:23Z</time>
      </trkpt>
      <trkpt lat="47.38718" lon="-0.64101">
        <ele>11</ele>
        <time>2019-05-05T11:37:35Z</time>
      </trkpt>
      <trkpt lat="47.38783" lon="-0.63981">
        <ele>11</ele>
        <time>2019-05-05T11:38:05Z</time>
      </trkpt>
      <trkpt lat="47.38824" lon="-0.63934">
        <ele>15</ele>
        <time>2019-05-05T11:38:23Z</time>
      </trkpt>
      <trkpt lat="47.38961" lon="-0.63699">
        <ele>11</ele>
        <time>2019-05-05T11:39:23Z</time>
      </trkpt>
      <trkpt lat="47.39103" lon="-0.63495">
        <ele>16</ele>
        <time>2019-05-05T11:40:17Z</time>
      </trkpt>
      <trkpt lat="47.39136" lon="-0.63401">
        <ele>11</ele>
        <time>2019-05-05T11:40:35Z</time>
      </trkpt>
      <trkpt lat="47.39219" lon="-0.63272">
        <ele>10</ele>
        <time>2019-05-05T11:41:05Z</time>
      </trkpt>
      <trkpt lat="47.39255" lon="-0.6324">
        <ele>10</ele>
        <time>2019-05-05T11:41:17Z</time>
      </trkpt>
      <trkpt lat="47.39328" lon="-0.63151">
        <ele>9</ele>
        <time>2019-05-05T11:41:41Z</time>
      </trkpt>
      <trkpt lat="47.39406" lon="-0.63079">
        <ele>19</ele>
        <time>2019-05-05T11:42:05Z</time>
      </trkpt>
      <trkpt lat="47.39481" lon="-0.63025">
        <ele>13</ele>
        <time>2019-05-05T11:42:29Z</time>
      </trkpt>
      <trkpt lat="47.39615" lon="-0.62862">
        <ele>10</ele>
        <time>2019-05-05T11:43:17Z</time>
      </trkpt>
      <trkpt lat="47.39627" lon="-0.62857">
        <ele>10</ele>
        <time>2019-05-05T11:43:32Z</time>
      </trkpt>
      <trkpt lat="47.39628" lon="-0.62849">
        <ele>10</ele>
        <time>2019-05-05T11:43:36Z</time>
      </trkpt>
      <trkpt lat="47.39673" lon="-0.62841">
        <ele>20</ele>
        <time>2019-05-05T11:43:54Z</time>
      </trkpt>
      <trkpt lat="47.39806" lon="-0.62729">
        <ele>13</ele>
        <time>2019-05-05T11:44:36Z</time>
      </trkpt>
      <trkpt lat="47.39859" lon="-0.6268">
        <ele>19</ele>
        <time>2019-05-05T11:45:03Z</time>
      </trkpt>
      <trkpt lat="47.39864" lon="-0.62657">
        <ele>19</ele>
        <time>2019-05-05T11:45:10Z</time>
      </trkpt>
      <trkpt lat="47.39927" lon="-0.62593">
        <ele>9</ele>
        <time>2019-05-05T11:45:34Z</time>
      </trkpt>
      <trkpt lat="47.40278" lon="-0.62387">
        <ele>16</ele>
        <time>2019-05-05T11:47:04Z</time>
      </trkpt>
      <trkpt lat="47.40428" lon="-0.62263">
        <ele>17</ele>
        <time>2019-05-05T11:47:52Z</time>
      </trkpt>
      <trkpt lat="47.40443" lon="-0.62261">
        <ele>17</ele>
        <time>2019-05-05T11:47:58Z</time>
      </trkpt>
      <trkpt lat="47.40467" lon="-0.62303">
        <ele>17</ele>
        <time>2019-05-05T11:48:22Z</time>
      </trkpt>
      <trkpt lat="47.40513" lon="-0.62284">
        <ele>23</ele>
        <time>2019-05-05T11:48:46Z</time>
      </trkpt>
      <trkpt lat="47.40615" lon="-0.62162">
        <ele>19</ele>
        <time>2019-05-05T11:49:16Z</time>
      </trkpt>
      <trkpt lat="47.4066" lon="-0.62093">
        <ele>19</ele>
        <time>2019-05-05T11:49:40Z</time>
      </trkpt>
      <trkpt lat="47.40815" lon="-0.62006">
        <ele>24</ele>
        <time>2019-05-05T11:50:34Z</time>
      </trkpt>
      <trkpt lat="47.4082" lon="-0.61989">
        <ele>24</ele>
        <time>2019-05-05T11:50:40Z</time>
      </trkpt>
      <trkpt lat="47.40809" lon="-0.61929">
        <ele>18</ele>
        <time>2019-05-05T11:50:52Z</time>
      </trkpt>
      <trkpt lat="47.40855" lon="-0.61886">
        <ele>18</ele>
        <time>2019-05-05T11:51:10Z</time>
      </trkpt>
      <trkpt lat="47.40858" lon="-0.61841">
        <ele>21</ele>
        <time>2019-05-05T11:51:22Z</time>
      </trkpt>
      <trkpt lat="47.40892" lon="-0.61825">
        <ele>21</ele>
        <time>2019-05-05T11:51:40Z</time>
      </trkpt>
      <trkpt lat="47.40933" lon="-0.61774">
        <ele>11</ele>
        <time>2019-05-05T11:52:16Z</time>
      </trkpt>
      <trkpt lat="47.40997" lon="-0.61739">
        <ele>16</ele>
        <time>2019-05-05T11:52:34Z</time>
      </trkpt>
      <trkpt lat="47.4106" lon="-0.61727">
        <ele>18</ele>
        <time>2019-05-05T11:52:52Z</time>
      </trkpt>
      <trkpt lat="47.4128" lon="-0.61646">
        <ele>12</ele>
        <time>2019-05-05T11:53:52Z</time>
      </trkpt>
      <trkpt lat="47.41314" lon="-0.61605">
        <ele>12</ele>
        <time>2019-05-05T11:54:04Z</time>
      </trkpt>
      <trkpt lat="47.41419" lon="-0.61522">
        <ele>15</ele>
        <time>2019-05-05T11:54:34Z</time>
      </trkpt>
      <trkpt lat="47.41568" lon="-0.61445">
        <ele>18</ele>
        <time>2019-05-05T11:55:22Z</time>
      </trkpt>
      <trkpt lat="47.41613" lon="-0.61404">
        <ele>21</ele>
        <time>2019-05-05T11:55:40Z</time>
      </trkpt>
      <trkpt lat="47.41712" lon="-0.61346">
        <ele>19</ele>
        <time>2019-05-05T11:56:10Z</time>
      </trkpt>
      <trkpt lat="47.41689" lon="-0.61315">
        <ele>14</ele>
        <time>2019-05-05T11:56:22Z</time>
      </trkpt>
      <trkpt lat="47.41681" lon="-0.61278">
        <ele>14</ele>
        <time>2019-05-05T11:56:34Z</time>
      </trkpt>
      <trkpt lat="47.41783" lon="-0.61135">
        <ele>14</ele>
        <time>2019-05-05T11:57:10Z</time>
      </trkpt>
      <trkpt lat="47.41885" lon="-0.61047">
        <ele>17</ele>
        <time>2019-05-05T11:57:40Z</time>
      </trkpt>
      <trkpt lat="47.41978" lon="-0.60988">
        <ele>18</ele>
        <time>2019-05-05T11:58:10Z</time>
      </trkpt>
      <trkpt lat="47.42033" lon="-0.60965">
        <ele>15</ele>
        <time>2019-05-05T11:58:28Z</time>
      </trkpt>
      <trkpt lat="47.42051" lon="-0.60975">
        <ele>18</ele>
        <time>2019-05-05T11:58:34Z</time>
      </trkpt>
      <trkpt lat="47.42067" lon="-0.61024">
        <ele>19</ele>
        <time>2019-05-05T11:58:52Z</time>
      </trkpt>
      <trkpt lat="47.42077" lon="-0.6102">
        <ele>19</ele>
        <time>2019-05-05T11:59:04Z</time>
      </trkpt>
      <trkpt lat="47.42079" lon="-0.60978">
        <ele>19</ele>
        <time>2019-05-05T11:59:16Z</time>
      </trkpt>
      <trkpt lat="47.41947" lon="-0.60631">
        <ele>23</ele>
        <time>2019-05-05T12:00:28Z</time>
      </trkpt>
      <trkpt lat="47.41903" lon="-0.60434">
        <ele>19</ele>
        <time>2019-05-05T12:00:58Z</time>
      </trkpt>
      <trkpt lat="47.41878" lon="-0.60224">
        <ele>19</ele>
        <time>2019-05-05T12:01:28Z</time>
      </trkpt>
      <trkpt lat="47.41865" lon="-0.5967">
        <ele>19</ele>
        <time>2019-05-05T12:02:58Z</time>
      </trkpt>
      <trkpt lat="47.4186" lon="-0.59644">
        <ele>19</ele>
        <time>2019-05-05T12:03:04Z</time>
      </trkpt>
      <trkpt lat="47.41816" lon="-0.59637">
        <ele>19</ele>
        <time>2019-05-05T12:03:16Z</time>
      </trkpt>
      <trkpt lat="47.41763" lon="-0.59293">
        <ele>19</ele>
        <time>2019-05-05T12:04:10Z</time>
      </trkpt>
      <trkpt lat="47.41764" lon="-0.59211">
        <ele>19</ele>
        <time>2019-05-05T12:04:22Z</time>
      </trkpt>
      <trkpt lat="47.41749" lon="-0.58918">
        <ele>19</ele>
        <time>2019-05-05T12:05:04Z</time>
      </trkpt>
      <trkpt lat="47.41765" lon="-0.58295">
        <ele>17</ele>
        <time>2019-05-05T12:06:34Z</time>
      </trkpt>
      <trkpt lat="47.41759" lon="-0.58063">
        <ele>14</ele>
        <time>2019-05-05T12:07:22Z</time>
      </trkpt>
      <trkpt lat="47.41775" lon="-0.57947">
        <ele>14</ele>
        <time>2019-05-05T12:07:46Z</time>
      </trkpt>
      <trkpt lat="47.41801" lon="-0.57821">
        <ele>28</ele>
        <time>2019-05-05T12:08:10Z</time>
      </trkpt>
      <trkpt lat="47.41805" lon="-0.57737">
        <ele>24</ele>
        <time>2019-05-05T12:08:22Z</time>
      </trkpt>
      <trkpt lat="47.41861" lon="-0.57518">
        <ele>18</ele>
        <time>2019-05-05T12:08:58Z</time>
      </trkpt>
      <trkpt lat="47.4196" lon="-0.57349">
        <ele>20</ele>
        <time>2019-05-05T12:09:34Z</time>
      </trkpt>
      <trkpt lat="47.4199" lon="-0.5728">
        <ele>24</ele>
        <time>2019-05-05T12:09:46Z</time>
      </trkpt>
      <trkpt lat="47.42029" lon="-0.57156">
        <ele>19</ele>
        <time>2019-05-05T12:10:10Z</time>
      </trkpt>
      <trkpt lat="47.42096" lon="-0.56982">
        <ele>28</ele>
        <time>2019-05-05T12:10:52Z</time>
      </trkpt>
      <trkpt lat="47.42098" lon="-0.56943">
        <ele>28</ele>
        <time>2019-05-05T12:11:04Z</time>
      </trkpt>
      <trkpt lat="47.42113" lon="-0.56915">
        <ele>28</ele>
        <time>2019-05-05T12:11:16Z</time>
      </trkpt>
      <trkpt lat="47.42141" lon="-0.56813">
        <ele>30</ele>
        <time>2019-05-05T12:11:52Z</time>
      </trkpt>
      <trkpt lat="47.42211" lon="-0.56637">
        <ele>28</ele>
        <time>2019-05-05T12:12:28Z</time>
      </trkpt>
      <trkpt lat="47.4222" lon="-0.5657">
        <ele>30</ele>
        <time>2019-05-05T12:12:46Z</time>
      </trkpt>
      <trkpt lat="47.42255" lon="-0.56503">
        <ele>30</ele>
        <time>2019-05-05T12:13:04Z</time>
      </trkpt>
      <trkpt lat="47.42382" lon="-0.56163">
        <ele>34</ele>
        <time>2019-05-05T12:14:28Z</time>
      </trkpt>
      <trkpt lat="47.42464" lon="-0.55868">
        <ele>29</ele>
        <time>2019-05-05T12:15:22Z</time>
      </trkpt>
      <trkpt lat="47.42533" lon="-0.55649">
        <ele>28</ele>
        <time>2019-05-05T12:16:04Z</time>
      </trkpt>
      <trkpt lat="47.42576" lon="-0.55534">
        <ele>27</ele>
        <time>2019-05-05T12:16:34Z</time>
      </trkpt>
      <trkpt lat="47.42733" lon="-0.55003">
        <ele>23</ele>
        <time>2019-05-05T12:18:04Z</time>
      </trkpt>
      <trkpt lat="47.42762" lon="-0.54934">
        <ele>23</ele>
        <time>2019-05-05T12:18:22Z</time>
      </trkpt>
      <trkpt lat="47.42799" lon="-0.54783">
        <ele>20</ele>
        <time>2019-05-05T12:18:46Z</time>
      </trkpt>
      <trkpt lat="47.42967" lon="-0.54237">
        <ele>17</ele>
        <time>2019-05-05T12:20:16Z</time>
      </trkpt>
      <trkpt lat="47.42975" lon="-0.54201">
        <ele>17</ele>
        <time>2019-05-05T12:20:22Z</time>
      </trkpt>
      <trkpt lat="47.42976" lon="-0.54152">
        <ele>17</ele>
        <time>2019-05-05T12:20:34Z</time>
      </trkpt>
      <trkpt lat="47.42992" lon="-0.54134">
        <ele>17</ele>
        <time>2019-05-05T12:20:40Z</time>
      </trkpt>
      <trkpt lat="47.43017" lon="-0.54068">
        <ele>16</ele>
        <time>2019-05-05T12:20:52Z</time>
      </trkpt>
      <trkpt lat="47.43215" lon="-0.53422">
        <ele>22</ele>
        <time>2019-05-05T12:22:46Z</time>
      </trkpt>
      <trkpt lat="47.43179" lon="-0.53236">
        <ele>21</ele>
        <time>2019-05-05T12:23:16Z</time>
      </trkpt>
      <trkpt lat="47.43185" lon="-0.53114">
        <ele>21</ele>
        <time>2019-05-05T12:23:40Z</time>
      </trkpt>
      <trkpt lat="47.43145" lon="-0.53077">
        <ele>19</ele>
        <time>2019-05-05T12:23:58Z</time>
      </trkpt>
      <trkpt lat="47.4308" lon="-0.53045">
        <ele>15</ele>
        <time>2019-05-05T12:24:28Z</time>
      </trkpt>
      <trkpt lat="47.43065" lon="-0.53016">
        <ele>15</ele>
        <time>2019-05-05T12:24:40Z</time>
      </trkpt>
      <trkpt lat="47.43068" lon="-0.5297">
        <ele>18</ele>
        <time>2019-05-05T12:24:52Z</time>
      </trkpt>
      <trkpt lat="47.43063" lon="-0.52933">
        <ele>18</ele>
        <time>2019-05-05T12:25:04Z</time>
      </trkpt>
      <trkpt lat="47.43016" lon="-0.52891">
        <ele>18</ele>
        <time>2019-05-05T12:25:22Z</time>
      </trkpt>
      <trkpt lat="47.42994" lon="-0.52885">
        <ele>20</ele>
        <time>2019-05-05T12:25:28Z</time>
      </trkpt>
      <trkpt lat="47.42956" lon="-0.52857">
        <ele>21</ele>
        <time>2019-05-05T12:25:40Z</time>
      </trkpt>
      <trkpt lat="47.42961" lon="-0.52829">
        <ele>21</ele>
        <time>2019-05-05T12:25:46Z</time>
      </trkpt>
      <trkpt lat="47.42955" lon="-0.52807">
        <ele>21</ele>
        <time>2019-05-05T12:25:59Z</time>
      </trkpt>
      <trkpt lat="47.42971" lon="-0.52789">
        <ele>21</ele>
        <time>2019-05-05T12:26:06Z</time>
      </trkpt>
      <trkpt lat="47.42984" lon="-0.52709">
        <ele>20</ele>
        <time>2019-05-05T12:26:18Z</time>
      </trkpt>
      <trkpt lat="47.42964" lon="-0.52699">
        <ele>20</ele>
        <time>2019-05-05T12:26:24Z</time>
      </trkpt>
      <trkpt lat="47.42921" lon="-0.52652">
        <ele>20</ele>
        <time>2019-05-05T12:26:36Z</time>
      </trkpt>
      <trkpt lat="47.4291" lon="-0.52591">
        <ele>19</ele>
        <time>2019-05-05T12:26:48Z</time>
      </trkpt>
      <trkpt lat="47.42865" lon="-0.52609">
        <ele>20</ele>
        <time>2019-05-05T12:27:00Z</time>
      </trkpt>
      <trkpt lat="47.42836" lon="-0.52592">
        <ele>19</ele>
        <time>2019-05-05T12:27:12Z</time>
      </trkpt>
      <trkpt lat="47.42894" lon="-0.52351">
        <ele>18</ele>
        <time>2019-05-05T12:28:48Z</time>
      </trkpt>
      <trkpt lat="47.42872" lon="-0.52183">
        <ele>20</ele>
        <time>2019-05-05T12:29:24Z</time>
      </trkpt>
      <trkpt lat="47.42877" lon="-0.52118">
        <ele>20</ele>
        <time>2019-05-05T12:29:36Z</time>
      </trkpt>
      <trkpt lat="47.42868" lon="-0.51959">
        <ele>18</ele>
        <time>2019-05-05T12:30:06Z</time>
      </trkpt>
      <trkpt lat="47.42843" lon="-0.51684">
        <ele>19</ele>
        <time>2019-05-05T12:30:54Z</time>
      </trkpt>
      <trkpt lat="47.42802" lon="-0.51593">
        <ele>19</ele>
        <time>2019-05-05T12:31:12Z</time>
      </trkpt>
      <trkpt lat="47.42571" lon="-0.51272">
        <ele>19</ele>
        <time>2019-05-05T12:32:24Z</time>
      </trkpt>
      <trkpt lat="47.42535" lon="-0.5121">
        <ele>17</ele>
        <time>2019-05-05T12:32:36Z</time>
      </trkpt>
      <trkpt lat="47.42455" lon="-0.51042">
        <ele>18</ele>
        <time>2019-05-05T12:33:06Z</time>
      </trkpt>
      <trkpt lat="47.42374" lon="-0.50768">
        <ele>18</ele>
        <time>2019-05-05T12:33:48Z</time>
      </trkpt>
      <trkpt lat="47.42335" lon="-0.50568">
        <ele>19</ele>
        <time>2019-05-05T12:34:18Z</time>
      </trkpt>
      <trkpt lat="47.42332" lon="-0.50422">
        <ele>21</ele>
        <time>2019-05-05T12:34:36Z</time>
      </trkpt>
      <trkpt lat="47.42341" lon="-0.50336">
        <ele>26</ele>
        <time>2019-05-05T12:34:48Z</time>
      </trkpt>
      <trkpt lat="47.42391" lon="-0.50137">
        <ele>19</ele>
        <time>2019-05-05T12:35:18Z</time>
      </trkpt>
      <trkpt lat="47.42411" lon="-0.50013">
        <ele>17</ele>
        <time>2019-05-05T12:35:36Z</time>
      </trkpt>
      <trkpt lat="47.42415" lon="-0.49973">
        <ele>19</ele>
        <time>2019-05-05T12:35:42Z</time>
      </trkpt>
      <trkpt lat="47.42407" lon="-0.49806">
        <ele>19</ele>
        <time>2019-05-05T12:36:06Z</time>
      </trkpt>
      <trkpt lat="47.42398" lon="-0.49768">
        <ele>19</ele>
        <time>2019-05-05T12:36:12Z</time>
      </trkpt>
      <trkpt lat="47.42363" lon="-0.49699">
        <ele>17</ele>
        <time>2019-05-05T12:36:24Z</time>
      </trkpt>
      <trkpt lat="47.42221" lon="-0.49537">
        <ele>23</ele>
        <time>2019-05-05T12:37:00Z</time>
      </trkpt>
      <trkpt lat="47.42161" lon="-0.49439">
        <ele>23</ele>
        <time>2019-05-05T12:37:18Z</time>
      </trkpt>
      <trkpt lat="47.42139" lon="-0.49356">
        <ele>21</ele>
        <time>2019-05-05T12:37:30Z</time>
      </trkpt>
      <trkpt lat="47.42123" lon="-0.49099">
        <ele>20</ele>
        <time>2019-05-05T12:38:06Z</time>
      </trkpt>
      <trkpt lat="47.42046" lon="-0.4887">
        <ele>19</ele>
        <time>2019-05-05T12:38:42Z</time>
      </trkpt>
      <trkpt lat="47.41935" lon="-0.48488">
        <ele>19</ele>
        <time>2019-05-05T12:39:42Z</time>
      </trkpt>
      <trkpt lat="47.41918" lon="-0.48402">
        <ele>19</ele>
        <time>2019-05-05T12:39:54Z</time>
      </trkpt>
      <trkpt lat="47.41879" lon="-0.47977">
        <ele>16</ele>
        <time>2019-05-05T12:40:54Z</time>
      </trkpt>
      <trkpt lat="47.41839" lon="-0.4725">
        <ele>18</ele>
        <time>2019-05-05T12:42:42Z</time>
      </trkpt>
      <trkpt lat="47.41864" lon="-0.47028">
        <ele>18</ele>
        <time>2019-05-05T12:43:18Z</time>
      </trkpt>
      <trkpt lat="47.41883" lon="-0.46543">
        <ele>20</ele>
        <time>2019-05-05T12:44:36Z</time>
      </trkpt>
      <trkpt lat="47.41929" lon="-0.46283">
        <ele>18</ele>
        <time>2019-05-05T12:45:18Z</time>
      </trkpt>
      <trkpt lat="47.41952" lon="-0.45967">
        <ele>15</ele>
        <time>2019-05-05T12:46:06Z</time>
      </trkpt>
      <trkpt lat="47.41966" lon="-0.45854">
        <ele>14</ele>
        <time>2019-05-05T12:46:24Z</time>
      </trkpt>
      <trkpt lat="47.41978" lon="-0.45302">
        <ele>18</ele>
        <time>2019-05-05T12:47:54Z</time>
      </trkpt>
      <trkpt lat="47.41985" lon="-0.45262">
        <ele>18</ele>
        <time>2019-05-05T12:48:00Z</time>
      </trkpt>
      <trkpt lat="47.42057" lon="-0.45053">
        <ele>17</ele>
        <time>2019-05-05T12:48:36Z</time>
      </trkpt>
      <trkpt lat="47.41983" lon="-0.44885">
        <ele>19</ele>
        <time>2019-05-05T12:49:12Z</time>
      </trkpt>
      <trkpt lat="47.41995" lon="-0.44873">
        <ele>19</ele>
        <time>2019-05-05T12:49:24Z</time>
      </trkpt>
      <trkpt lat="47.42013" lon="-0.44832">
        <ele>19</ele>
        <time>2019-05-05T12:49:36Z</time>
      </trkpt>
      <trkpt lat="47.42029" lon="-0.44661">
        <ele>21</ele>
        <time>2019-05-05T12:50:06Z</time>
      </trkpt>
      <trkpt lat="47.42024" lon="-0.44588">
        <ele>22</ele>
        <time>2019-05-05T12:50:18Z</time>
      </trkpt>
      <trkpt lat="47.42012" lon="-0.4452">
        <ele>22</ele>
        <time>2019-05-05T12:50:30Z</time>
      </trkpt>
      <trkpt lat="47.41941" lon="-0.44289">
        <ele>21</ele>
        <time>2019-05-05T12:51:12Z</time>
      </trkpt>
      <trkpt lat="47.4193" lon="-0.44218">
        <ele>22</ele>
        <time>2019-05-05T12:51:24Z</time>
      </trkpt>
      <trkpt lat="47.41916" lon="-0.43882">
        <ele>22</ele>
        <time>2019-05-05T12:52:18Z</time>
      </trkpt>
      <trkpt lat="47.4193" lon="-0.43803">
        <ele>21</ele>
        <time>2019-05-05T12:52:30Z</time>
      </trkpt>
      <trkpt lat="47.41933" lon="-0.4373">
        <ele>21</ele>
        <time>2019-05-05T12:52:42Z</time>
      </trkpt>
      <trkpt lat="47.41936" lon="-0.43451">
        <ele>21</ele>
        <time>2019-05-05T12:53:30Z</time>
      </trkpt>
      <trkpt lat="47.41907" lon="-0.432">
        <ele>21</ele>
        <time>2019-05-05T12:54:12Z</time>
      </trkpt>
      <trkpt lat="47.41905" lon="-0.4314">
        <ele>21</ele>
        <time>2019-05-05T12:54:24Z</time>
      </trkpt>
      <trkpt lat="47.41926" lon="-0.43131">
        <ele>21</ele>
        <time>2019-05-05T12:54:30Z</time>
      </trkpt>
      <trkpt lat="47.41989" lon="-0.43131">
        <ele>21</ele>
        <time>2019-05-05T12:54:42Z</time>
      </trkpt>
      <trkpt lat="47.42023" lon="-0.43116">
        <ele>19</ele>
        <time>2019-05-05T12:54:54Z</time>
      </trkpt>
      <trkpt lat="47.42018" lon="-0.43093">
        <ele>19</ele>
        <time>2019-05-05T12:55:10Z</time>
      </trkpt>
      <trkpt lat="47.42033" lon="-0.4293">
        <ele>19</ele>
        <time>2019-05-05T12:55:40Z</time>
      </trkpt>
      <trkpt lat="47.42034" lon="-0.42806">
        <ele>18</ele>
        <time>2019-05-05T12:56:04Z</time>
      </trkpt>
      <trkpt lat="47.42096" lon="-0.42816">
        <ele>19</ele>
        <time>2019-05-05T12:56:22Z</time>
      </trkpt>
      <trkpt lat="47.42105" lon="-0.42727">
        <ele>19</ele>
        <time>2019-05-05T12:56:40Z</time>
      </trkpt>
      <trkpt lat="47.4215" lon="-0.42462">
        <ele>19</ele>
        <time>2019-05-05T12:57:28Z</time>
      </trkpt>
      <trkpt lat="47.42174" lon="-0.42398">
        <ele>18</ele>
        <time>2019-05-05T12:57:40Z</time>
      </trkpt>
      <trkpt lat="47.42287" lon="-0.42335">
        <ele>17</ele>
        <time>2019-05-05T12:58:10Z</time>
      </trkpt>
      <trkpt lat="47.4244" lon="-0.42162">
        <ele>17</ele>
        <time>2019-05-05T12:58:58Z</time>
      </trkpt>
      <trkpt lat="47.42485" lon="-0.42124">
        <ele>17</ele>
        <time>2019-05-05T12:59:10Z</time>
      </trkpt>
      <trkpt lat="47.42572" lon="-0.42066">
        <ele>17</ele>
        <time>2019-05-05T12:59:34Z</time>
      </trkpt>
      <trkpt lat="47.4271" lon="-0.42016">
        <ele>18</ele>
        <time>2019-05-05T13:00:10Z</time>
      </trkpt>
      <trkpt lat="47.4274" lon="-0.41989">
        <ele>18</ele>
        <time>2019-05-05T13:00:22Z</time>
      </trkpt>
      <trkpt lat="47.42782" lon="-0.41601">
        <ele>17</ele>
        <time>2019-05-05T13:01:28Z</time>
      </trkpt>
      <trkpt lat="47.42789" lon="-0.40734">
        <ele>16</ele>
        <time>2019-05-05T13:03:52Z</time>
      </trkpt>
      <trkpt lat="47.42635" lon="-0.40681">
        <ele>18</ele>
        <time>2019-05-05T13:04:34Z</time>
      </trkpt>
      <trkpt lat="47.42262" lon="-0.40586">
        <ele>18</ele>
        <time>2019-05-05T13:06:04Z</time>
      </trkpt>
      <trkpt lat="47.42214" lon="-0.40535">
        <ele>21</ele>
        <time>2019-05-05T13:06:22Z</time>
      </trkpt>
      <trkpt lat="47.42284" lon="-0.40292">
        <ele>18</ele>
        <time>2019-05-05T13:07:10Z</time>
      </trkpt>
      <trkpt lat="47.42332" lon="-0.4017">
        <ele>18</ele>
        <time>2019-05-05T13:07:34Z</time>
      </trkpt>
      <trkpt lat="47.42387" lon="-0.39983">
        <ele>17</ele>
        <time>2019-05-05T13:08:10Z</time>
      </trkpt>
      <trkpt lat="47.42487" lon="-0.39706">
        <ele>18</ele>
        <time>2019-05-05T13:09:04Z</time>
      </trkpt>
      <trkpt lat="47.42532" lon="-0.39553">
        <ele>20</ele>
        <time>2019-05-05T13:09:34Z</time>
      </trkpt>
      <trkpt lat="47.42523" lon="-0.39441">
        <ele>18</ele>
        <time>2019-05-05T13:09:52Z</time>
      </trkpt>
      <trkpt lat="47.42499" lon="-0.39282">
        <ele>18</ele>
        <time>2019-05-05T13:10:22Z</time>
      </trkpt>
      <trkpt lat="47.42496" lon="-0.39198">
        <ele>18</ele>
        <time>2019-05-05T13:10:44Z</time>
      </trkpt>
      <trkpt lat="47.42463" lon="-0.39">
        <ele>19</ele>
        <time>2019-05-05T13:11:20Z</time>
      </trkpt>
      <trkpt lat="47.42468" lon="-0.38765">
        <ele>20</ele>
        <time>2019-05-05T13:12:02Z</time>
      </trkpt>
      <trkpt lat="47.42484" lon="-0.38629">
        <ele>19</ele>
        <time>2019-05-05T13:12:26Z</time>
      </trkpt>
      <trkpt lat="47.42494" lon="-0.38469">
        <ele>19</ele>
        <time>2019-05-05T13:12:56Z</time>
      </trkpt>
      <trkpt lat="47.4249" lon="-0.38379">
        <ele>20</ele>
        <time>2019-05-05T13:13:14Z</time>
      </trkpt>
      <trkpt lat="47.42518" lon="-0.38348">
        <ele>20</ele>
        <time>2019-05-05T13:13:36Z</time>
      </trkpt>
      <trkpt lat="47.42535" lon="-0.3818">
        <ele>18</ele>
        <time>2019-05-05T13:14:06Z</time>
      </trkpt>
      <trkpt lat="47.425" lon="-0.37924">
        <ele>18</ele>
        <time>2019-05-05T13:14:48Z</time>
      </trkpt>
      <trkpt lat="47.42491" lon="-0.37627">
        <ele>16</ele>
        <time>2019-05-05T13:15:30Z</time>
      </trkpt>
      <trkpt lat="47.42483" lon="-0.37547">
        <ele>16</ele>
        <time>2019-05-05T13:15:42Z</time>
      </trkpt>
      <trkpt lat="47.42452" lon="-0.37432">
        <ele>17</ele>
        <time>2019-05-05T13:16:00Z</time>
      </trkpt>
      <trkpt lat="47.42412" lon="-0.37326">
        <ele>17</ele>
        <time>2019-05-05T13:16:18Z</time>
      </trkpt>
      <trkpt lat="47.42371" lon="-0.37168">
        <ele>16</ele>
        <time>2019-05-05T13:16:42Z</time>
      </trkpt>
      <trkpt lat="47.42345" lon="-0.37054">
        <ele>17</ele>
        <time>2019-05-05T13:17:00Z</time>
      </trkpt>
      <trkpt lat="47.42301" lon="-0.36795">
        <ele>18</ele>
        <time>2019-05-05T13:17:42Z</time>
      </trkpt>
      <trkpt lat="47.42291" lon="-0.36781">
        <ele>18</ele>
        <time>2019-05-05T13:17:48Z</time>
      </trkpt>
      <trkpt lat="47.42167" lon="-0.36829">
        <ele>19</ele>
        <time>2019-05-05T13:18:18Z</time>
      </trkpt>
      <trkpt lat="47.42129" lon="-0.36825">
        <ele>19</ele>
        <time>2019-05-05T13:18:30Z</time>
      </trkpt>
      <trkpt lat="47.41967" lon="-0.36022">
        <ele>18</ele>
        <time>2019-05-05T13:20:42Z</time>
      </trkpt>
      <trkpt lat="47.41982" lon="-0.36007">
        <ele>18</ele>
        <time>2019-05-05T13:20:48Z</time>
      </trkpt>
      <trkpt lat="47.42029" lon="-0.36016">
        <ele>18</ele>
        <time>2019-05-05T13:21:00Z</time>
      </trkpt>
      <trkpt lat="47.42067" lon="-0.35984">
        <ele>19</ele>
        <time>2019-05-05T13:21:12Z</time>
      </trkpt>
      <trkpt lat="47.42049" lon="-0.35723">
        <ele>19</ele>
        <time>2019-05-05T13:21:54Z</time>
      </trkpt>
      <trkpt lat="47.41969" lon="-0.35347">
        <ele>18</ele>
        <time>2019-05-05T13:22:54Z</time>
      </trkpt>
      <trkpt lat="47.4195" lon="-0.35231">
        <ele>19</ele>
        <time>2019-05-05T13:23:12Z</time>
      </trkpt>
      <trkpt lat="47.41931" lon="-0.35154">
        <ele>19</ele>
        <time>2019-05-05T13:23:30Z</time>
      </trkpt>
      <trkpt lat="47.41899" lon="-0.35104">
        <ele>19</ele>
        <time>2019-05-05T13:23:42Z</time>
      </trkpt>
      <trkpt lat="47.41808" lon="-0.35099">
        <ele>18</ele>
        <time>2019-05-05T13:24:06Z</time>
      </trkpt>
      <trkpt lat="47.41771" lon="-0.35077">
        <ele>18</ele>
        <time>2019-05-05T13:24:18Z</time>
      </trkpt>
      <trkpt lat="47.41753" lon="-0.35013">
        <ele>19</ele>
        <time>2019-05-05T13:24:30Z</time>
      </trkpt>
      <trkpt lat="47.41724" lon="-0.34789">
        <ele>18</ele>
        <time>2019-05-05T13:25:06Z</time>
      </trkpt>
      <trkpt lat="47.41681" lon="-0.34541">
        <ele>19</ele>
        <time>2019-05-05T13:25:54Z</time>
      </trkpt>
      <trkpt lat="47.4163" lon="-0.34484">
        <ele>19</ele>
        <time>2019-05-05T13:26:12Z</time>
      </trkpt>
      <trkpt lat="47.41567" lon="-0.34382">
        <ele>20</ele>
        <time>2019-05-05T13:26:36Z</time>
      </trkpt>
      <trkpt lat="47.41572" lon="-0.34359">
        <ele>20</ele>
        <time>2019-05-05T13:26:42Z</time>
      </trkpt>
      <trkpt lat="47.4164" lon="-0.34283">
        <ele>18</ele>
        <time>2019-05-05T13:27:06Z</time>
      </trkpt>
      <trkpt lat="47.41597" lon="-0.34124">
        <ele>18</ele>
        <time>2019-05-05T13:27:36Z</time>
      </trkpt>
      <trkpt lat="47.41562" lon="-0.34037">
        <ele>19</ele>
        <time>2019-05-05T13:27:54Z</time>
      </trkpt>
      <trkpt lat="47.41433" lon="-0.3361">
        <ele>18</ele>
        <time>2019-05-05T13:29:00Z</time>
      </trkpt>
      <trkpt lat="47.41412" lon="-0.33581">
        <ele>19</ele>
        <time>2019-05-05T13:29:06Z</time>
      </trkpt>
      <trkpt lat="47.41379" lon="-0.33576">
        <ele>19</ele>
        <time>2019-05-05T13:29:12Z</time>
      </trkpt>
      <trkpt lat="47.41321" lon="-0.3353">
        <ele>20</ele>
        <time>2019-05-05T13:29:24Z</time>
      </trkpt>
      <trkpt lat="47.41309" lon="-0.33486">
        <ele>22</ele>
        <time>2019-05-05T13:29:30Z</time>
      </trkpt>
      <trkpt lat="47.41312" lon="-0.33348">
        <ele>20</ele>
        <time>2019-05-05T13:29:54Z</time>
      </trkpt>
      <trkpt lat="47.41136" lon="-0.33363">
        <ele>22</ele>
        <time>2019-05-05T13:31:00Z</time>
      </trkpt>
      <trkpt lat="47.41118" lon="-0.33353">
        <ele>21</ele>
        <time>2019-05-05T13:31:12Z</time>
      </trkpt>
      <trkpt lat="47.4107" lon="-0.33166">
        <ele>23</ele>
        <time>2019-05-05T13:31:54Z</time>
      </trkpt>
      <trkpt lat="47.41041" lon="-0.32954">
        <ele>16</ele>
        <time>2019-05-05T13:32:30Z</time>
      </trkpt>
      <trkpt lat="47.40996" lon="-0.32343">
        <ele>24</ele>
        <time>2019-05-05T13:34:00Z</time>
      </trkpt>
      <trkpt lat="47.40897" lon="-0.32065">
        <ele>21</ele>
        <time>2019-05-05T13:34:48Z</time>
      </trkpt>
      <trkpt lat="47.40884" lon="-0.31937">
        <ele>23</ele>
        <time>2019-05-05T13:35:06Z</time>
      </trkpt>
      <trkpt lat="47.40864" lon="-0.31841">
        <ele>23</ele>
        <time>2019-05-05T13:35:28Z</time>
      </trkpt>
      <trkpt lat="47.40854" lon="-0.31833">
        <ele>14</ele>
        <time>2019-05-05T13:35:34Z</time>
      </trkpt>
      <trkpt lat="47.40777" lon="-0.31847">
        <ele>14</ele>
        <time>2019-05-05T13:35:58Z</time>
      </trkpt>
      <trkpt lat="47.40437" lon="-0.31934">
        <ele>20</ele>
        <time>2019-05-05T13:37:16Z</time>
      </trkpt>
      <trkpt lat="47.40477" lon="-0.31938">
        <ele>20</ele>
        <time>2019-05-05T13:37:28Z</time>
      </trkpt>
      <trkpt lat="47.405" lon="-0.31973">
        <ele>15</ele>
        <time>2019-05-05T13:37:46Z</time>
      </trkpt>
      <trkpt lat="47.40495" lon="-0.31913">
        <ele>15</ele>
        <time>2019-05-05T13:38:16Z</time>
      </trkpt>
      <trkpt lat="47.40384" lon="-0.31885">
        <ele>23</ele>
        <time>2019-05-05T13:38:46Z</time>
      </trkpt>
      <trkpt lat="47.40335" lon="-0.31854">
        <ele>23</ele>
        <time>2019-05-05T13:38:58Z</time>
      </trkpt>
      <trkpt lat="47.40258" lon="-0.31822">
        <ele>22</ele>
        <time>2019-05-05T13:39:16Z</time>
      </trkpt>
      <trkpt lat="47.40202" lon="-0.31805">
        <ele>21</ele>
        <time>2019-05-05T13:39:28Z</time>
      </trkpt>
      <trkpt lat="47.40061" lon="-0.31783">
        <ele>22</ele>
        <time>2019-05-05T13:39:58Z</time>
      </trkpt>
      <trkpt lat="47.39984" lon="-0.3178">
        <ele>24</ele>
        <time>2019-05-05T13:40:16Z</time>
      </trkpt>
      <trkpt lat="47.39943" lon="-0.31767">
        <ele>24</ele>
        <time>2019-05-05T13:40:28Z</time>
      </trkpt>
      <trkpt lat="47.39842" lon="-0.31708">
        <ele>25</ele>
        <time>2019-05-05T13:40:58Z</time>
      </trkpt>
      <trkpt lat="47.3983" lon="-0.31687">
        <ele>30</ele>
        <time>2019-05-05T13:41:04Z</time>
      </trkpt>
      <trkpt lat="47.39819" lon="-0.3163">
        <ele>30</ele>
        <time>2019-05-05T13:41:16Z</time>
      </trkpt>
      <trkpt lat="47.39805" lon="-0.31609">
        <ele>30</ele>
        <time>2019-05-05T13:41:28Z</time>
      </trkpt>
      <trkpt lat="47.39806" lon="-0.31593">
        <ele>30</ele>
        <time>2019-05-05T13:41:41Z</time>
      </trkpt>
      <trkpt lat="47.39802" lon="-0.31594">
        <ele>30</ele>
        <time>2019-05-05T13:41:45Z</time>
      </trkpt>
      <trkpt lat="47.39806" lon="-0.31594">
        <ele>30</ele>
        <time>2019-05-05T13:41:47Z</time>
      </trkpt>
      <trkpt lat="47.39806" lon="-0.31601">
        <ele>30</ele>
        <time>2019-05-05T13:42:09Z</time>
      </trkpt>
      <trkpt lat="47.39805" lon="-0.31598">
        <ele>30</ele>
        <time>2019-05-06T06:02:27Z</time>
      </trkpt>
      <trkpt lat="47.39772" lon="-0.31621">
        <ele>30</ele>
        <time>2019-05-06T06:03:27Z</time>
      </trkpt>
      <trkpt lat="47.39768" lon="-0.31561">
        <ele>28</ele>
        <time>2019-05-06T06:03:51Z</time>
      </trkpt>
      <trkpt lat="47.39758" lon="-0.31529">
        <ele>28</ele>
        <time>2019-05-06T06:04:03Z</time>
      </trkpt>
      <trkpt lat="47.39758" lon="-0.31481">
        <ele>28</ele>
        <time>2019-05-06T06:04:27Z</time>
      </trkpt>
      <trkpt lat="47.39775" lon="-0.3132">
        <ele>27</ele>
        <time>2019-05-06T06:05:09Z</time>
      </trkpt>
      <trkpt lat="47.39785" lon="-0.31044">
        <ele>26</ele>
        <time>2019-05-06T06:06:09Z</time>
      </trkpt>
      <trkpt lat="47.39782" lon="-0.3095">
        <ele>27</ele>
        <time>2019-05-06T06:06:27Z</time>
      </trkpt>
      <trkpt lat="47.39764" lon="-0.3074">
        <ele>26</ele>
        <time>2019-05-06T06:07:09Z</time>
      </trkpt>
      <trkpt lat="47.39754" lon="-0.30668">
        <ele>26</ele>
        <time>2019-05-06T06:07:21Z</time>
      </trkpt>
      <trkpt lat="47.39713" lon="-0.30514">
        <ele>28</ele>
        <time>2019-05-06T06:07:51Z</time>
      </trkpt>
      <trkpt lat="47.39699" lon="-0.30266">
        <ele>32</ele>
        <time>2019-05-06T06:08:45Z</time>
      </trkpt>
      <trkpt lat="47.39648" lon="-0.29934">
        <ele>32</ele>
        <time>2019-05-06T06:09:39Z</time>
      </trkpt>
      <trkpt lat="47.39599" lon="-0.29768">
        <ele>35</ele>
        <time>2019-05-06T06:10:09Z</time>
      </trkpt>
      <trkpt lat="47.39528" lon="-0.29566">
        <ele>39</ele>
        <time>2019-05-06T06:11:09Z</time>
      </trkpt>
      <trkpt lat="47.39522" lon="-0.29369">
        <ele>33</ele>
        <time>2019-05-06T06:11:39Z</time>
      </trkpt>
      <trkpt lat="47.39337" lon="-0.28803">
        <ele>33</ele>
        <time>2019-05-06T06:13:13Z</time>
      </trkpt>
      <trkpt lat="47.39269" lon="-0.28545">
        <ele>32</ele>
        <time>2019-05-06T06:14:03Z</time>
      </trkpt>
      <trkpt lat="47.39176" lon="-0.28261">
        <ele>26</ele>
        <time>2019-05-06T06:14:44Z</time>
      </trkpt>
      <trkpt lat="47.39173" lon="-0.28237">
        <ele>26</ele>
        <time>2019-05-06T06:14:56Z</time>
      </trkpt>
      <trkpt lat="47.39104" lon="-0.28141">
        <ele>18</ele>
        <time>2019-05-06T06:15:28Z</time>
      </trkpt>
      <trkpt lat="47.39002" lon="-0.27972">
        <ele>19</ele>
        <time>2019-05-06T06:16:04Z</time>
      </trkpt>
      <trkpt lat="47.38939" lon="-0.279">
        <ele>31</ele>
        <time>2019-05-06T06:16:22Z</time>
      </trkpt>
      <trkpt lat="47.38708" lon="-0.27726">
        <ele>25</ele>
        <time>2019-05-06T06:17:22Z</time>
      </trkpt>
      <trkpt lat="47.38619" lon="-0.27626">
        <ele>37</ele>
        <time>2019-05-06T06:17:52Z</time>
      </trkpt>
      <trkpt lat="47.38482" lon="-0.27537">
        <ele>27</ele>
        <time>2019-05-06T06:18:22Z</time>
      </trkpt>
      <trkpt lat="47.38278" lon="-0.27355">
        <ele>15</ele>
        <time>2019-05-06T06:19:16Z</time>
      </trkpt>
      <trkpt lat="47.38022" lon="-0.27176">
        <ele>14</ele>
        <time>2019-05-06T06:20:16Z</time>
      </trkpt>
      <trkpt lat="47.37907" lon="-0.27114">
        <ele>33</ele>
        <time>2019-05-06T06:20:40Z</time>
      </trkpt>
      <trkpt lat="47.37729" lon="-0.26971">
        <ele>36</ele>
        <time>2019-05-06T06:21:22Z</time>
      </trkpt>
      <trkpt lat="47.37624" lon="-0.26905">
        <ele>23</ele>
        <time>2019-05-06T06:21:46Z</time>
      </trkpt>
      <trkpt lat="47.37537" lon="-0.26838">
        <ele>38</ele>
        <time>2019-05-06T06:22:04Z</time>
      </trkpt>
      <trkpt lat="47.37297" lon="-0.26625">
        <ele>17</ele>
        <time>2019-05-06T06:22:58Z</time>
      </trkpt>
      <trkpt lat="47.36881" lon="-0.2634">
        <ele>16</ele>
        <time>2019-05-06T06:24:49Z</time>
      </trkpt>
      <trkpt lat="47.36683" lon="-0.26311">
        <ele>22</ele>
        <time>2019-05-06T06:25:44Z</time>
      </trkpt>
      <trkpt lat="47.3655" lon="-0.26308">
        <ele>24</ele>
        <time>2019-05-06T06:26:14Z</time>
      </trkpt>
      <trkpt lat="47.364" lon="-0.26283">
        <ele>25</ele>
        <time>2019-05-06T06:26:44Z</time>
      </trkpt>
      <trkpt lat="47.36313" lon="-0.2625">
        <ele>24</ele>
        <time>2019-05-06T06:27:02Z</time>
      </trkpt>
      <trkpt lat="47.36261" lon="-0.26221">
        <ele>26</ele>
        <time>2019-05-06T06:27:14Z</time>
      </trkpt>
      <trkpt lat="47.36086" lon="-0.26099">
        <ele>31</ele>
        <time>2019-05-06T06:27:56Z</time>
      </trkpt>
      <trkpt lat="47.36015" lon="-0.26029">
        <ele>30</ele>
        <time>2019-05-06T06:28:14Z</time>
      </trkpt>
      <trkpt lat="47.35955" lon="-0.25944">
        <ele>26</ele>
        <time>2019-05-06T06:28:32Z</time>
      </trkpt>
      <trkpt lat="47.35857" lon="-0.2583">
        <ele>27</ele>
        <time>2019-05-06T06:29:02Z</time>
      </trkpt>
      <trkpt lat="47.35808" lon="-0.25738">
        <ele>26</ele>
        <time>2019-05-06T06:29:20Z</time>
      </trkpt>
      <trkpt lat="47.35748" lon="-0.25649">
        <ele>24</ele>
        <time>2019-05-06T06:29:38Z</time>
      </trkpt>
      <trkpt lat="47.35711" lon="-0.25542">
        <ele>25</ele>
        <time>2019-05-06T06:29:56Z</time>
      </trkpt>
      <trkpt lat="47.35641" lon="-0.25379">
        <ele>29</ele>
        <time>2019-05-06T06:30:26Z</time>
      </trkpt>
      <trkpt lat="47.35581" lon="-0.25258">
        <ele>24</ele>
        <time>2019-05-06T06:30:50Z</time>
      </trkpt>
      <trkpt lat="47.35508" lon="-0.25144">
        <ele>33</ele>
        <time>2019-05-06T06:31:14Z</time>
      </trkpt>
      <trkpt lat="47.35443" lon="-0.25062">
        <ele>33</ele>
        <time>2019-05-06T06:31:38Z</time>
      </trkpt>
      <trkpt lat="47.35393" lon="-0.2503">
        <ele>33</ele>
        <time>2019-05-06T06:31:50Z</time>
      </trkpt>
      <trkpt lat="47.35287" lon="-0.24933">
        <ele>31</ele>
        <time>2019-05-06T06:32:14Z</time>
      </trkpt>
      <trkpt lat="47.35201" lon="-0.24821">
        <ele>27</ele>
        <time>2019-05-06T06:32:38Z</time>
      </trkpt>
      <trkpt lat="47.35025" lon="-0.24455">
        <ele>37</ele>
        <time>2019-05-06T06:33:56Z</time>
      </trkpt>
      <trkpt lat="47.3486" lon="-0.24268">
        <ele>29</ele>
        <time>2019-05-06T06:34:38Z</time>
      </trkpt>
      <trkpt lat="47.3477" lon="-0.24134">
        <ele>29</ele>
        <time>2019-05-06T06:35:02Z</time>
      </trkpt>
      <trkpt lat="47.34649" lon="-0.23832">
        <ele>22</ele>
        <time>2019-05-06T06:35:50Z</time>
      </trkpt>
      <trkpt lat="47.346" lon="-0.23718">
        <ele>27</ele>
        <time>2019-05-06T06:36:08Z</time>
      </trkpt>
      <trkpt lat="47.34546" lon="-0.23619">
        <ele>21</ele>
        <time>2019-05-06T06:36:26Z</time>
      </trkpt>
      <trkpt lat="47.34372" lon="-0.23204">
        <ele>27</ele>
        <time>2019-05-06T06:37:44Z</time>
      </trkpt>
      <trkpt lat="47.34388" lon="-0.23174">
        <ele>27</ele>
        <time>2019-05-06T06:37:56Z</time>
      </trkpt>
      <trkpt lat="47.34432" lon="-0.23131">
        <ele>27</ele>
        <time>2019-05-06T06:38:14Z</time>
      </trkpt>
      <trkpt lat="47.3496" lon="-0.22678">
        <ele>18</ele>
        <time>2019-05-06T06:40:46Z</time>
      </trkpt>
      <trkpt lat="47.34959" lon="-0.22648">
        <ele>26</ele>
        <time>2019-05-06T06:40:52Z</time>
      </trkpt>
      <trkpt lat="47.34946" lon="-0.2261">
        <ele>26</ele>
        <time>2019-05-06T06:41:08Z</time>
      </trkpt>
      <trkpt lat="47.34846" lon="-0.22421">
        <ele>25</ele>
        <time>2019-05-06T06:41:44Z</time>
      </trkpt>
      <trkpt lat="47.34839" lon="-0.22416">
        <ele>25</ele>
        <time>2019-05-06T06:41:50Z</time>
      </trkpt>
      <trkpt lat="47.34858" lon="-0.22461">
        <ele>25</ele>
        <time>2019-05-06T06:42:02Z</time>
      </trkpt>
      <trkpt lat="47.34865" lon="-0.22504">
        <ele>25</ele>
        <time>2019-05-06T06:42:14Z</time>
      </trkpt>
      <trkpt lat="47.348" lon="-0.22364">
        <ele>23</ele>
        <time>2019-05-06T06:42:44Z</time>
      </trkpt>
      <trkpt lat="47.34789" lon="-0.2233">
        <ele>23</ele>
        <time>2019-05-06T06:42:50Z</time>
      </trkpt>
      <trkpt lat="47.34763" lon="-0.22141">
        <ele>26</ele>
        <time>2019-05-06T06:43:20Z</time>
      </trkpt>
      <trkpt lat="47.34697" lon="-0.21914">
        <ele>26</ele>
        <time>2019-05-06T06:44:02Z</time>
      </trkpt>
      <trkpt lat="47.34689" lon="-0.2191">
        <ele>26</ele>
        <time>2019-05-06T06:44:08Z</time>
      </trkpt>
      <trkpt lat="47.34672" lon="-0.21929">
        <ele>26</ele>
        <time>2019-05-06T06:44:20Z</time>
      </trkpt>
      <trkpt lat="47.34617" lon="-0.22024">
        <ele>19</ele>
        <time>2019-05-06T06:44:56Z</time>
      </trkpt>
      <trkpt lat="47.34591" lon="-0.22051">
        <ele>19</ele>
        <time>2019-05-06T06:45:08Z</time>
      </trkpt>
      <trkpt lat="47.34548" lon="-0.21988">
        <ele>19</ele>
        <time>2019-05-06T06:45:43Z</time>
      </trkpt>
      <trkpt lat="47.34542" lon="-0.21958">
        <ele>24</ele>
        <time>2019-05-06T06:45:53Z</time>
      </trkpt>
      <trkpt lat="47.34473" lon="-0.21809">
        <ele>25</ele>
        <time>2019-05-06T06:46:35Z</time>
      </trkpt>
      <trkpt lat="47.34309" lon="-0.21517">
        <ele>20</ele>
        <time>2019-05-06T06:47:47Z</time>
      </trkpt>
      <trkpt lat="47.3429" lon="-0.21459">
        <ele>20</ele>
        <time>2019-05-06T06:47:59Z</time>
      </trkpt>
      <trkpt lat="47.34236" lon="-0.21151">
        <ele>18</ele>
        <time>2019-05-06T06:49:19Z</time>
      </trkpt>
      <trkpt lat="47.34202" lon="-0.21002">
        <ele>25</ele>
        <time>2019-05-06T06:49:55Z</time>
      </trkpt>
      <trkpt lat="47.3409" lon="-0.2065">
        <ele>24</ele>
        <time>2019-05-06T06:51:19Z</time>
      </trkpt>
      <trkpt lat="47.33973" lon="-0.20423">
        <ele>27</ele>
        <time>2019-05-06T06:52:07Z</time>
      </trkpt>
      <trkpt lat="47.33905" lon="-0.20319">
        <ele>26</ele>
        <time>2019-05-06T06:52:31Z</time>
      </trkpt>
      <trkpt lat="47.33847" lon="-0.20205">
        <ele>23</ele>
        <time>2019-05-06T06:52:55Z</time>
      </trkpt>
      <trkpt lat="47.33836" lon="-0.20196">
        <ele>23</ele>
        <time>2019-05-06T06:53:07Z</time>
      </trkpt>
      <trkpt lat="47.33857" lon="-0.20195">
        <ele>23</ele>
        <time>2019-05-06T06:53:25Z</time>
      </trkpt>
      <trkpt lat="47.33901" lon="-0.20147">
        <ele>26</ele>
        <time>2019-05-06T06:53:57Z</time>
      </trkpt>
      <trkpt lat="47.33786" lon="-0.20005">
        <ele>23</ele>
        <time>2019-05-06T06:54:53Z</time>
      </trkpt>
      <trkpt lat="47.33723" lon="-0.19908">
        <ele>25</ele>
        <time>2019-05-06T06:55:17Z</time>
      </trkpt>
      <trkpt lat="47.33687" lon="-0.19826">
        <ele>23</ele>
        <time>2019-05-06T06:55:35Z</time>
      </trkpt>
      <trkpt lat="47.33606" lon="-0.19741">
        <ele>25</ele>
        <time>2019-05-06T06:55:59Z</time>
      </trkpt>
      <trkpt lat="47.33538" lon="-0.19625">
        <ele>25</ele>
        <time>2019-05-06T06:56:23Z</time>
      </trkpt>
      <trkpt lat="47.33509" lon="-0.19558">
        <ele>19</ele>
        <time>2019-05-06T06:56:35Z</time>
      </trkpt>
      <trkpt lat="47.33432" lon="-0.19338">
        <ele>25</ele>
        <time>2019-05-06T06:57:11Z</time>
      </trkpt>
      <trkpt lat="47.33369" lon="-0.19127">
        <ele>21</ele>
        <time>2019-05-06T06:57:47Z</time>
      </trkpt>
      <trkpt lat="47.33323" lon="-0.19031">
        <ele>20</ele>
        <time>2019-05-06T06:58:05Z</time>
      </trkpt>
      <trkpt lat="47.33273" lon="-0.18899">
        <ele>25</ele>
        <time>2019-05-06T06:58:29Z</time>
      </trkpt>
      <trkpt lat="47.33202" lon="-0.18745">
        <ele>27</ele>
        <time>2019-05-06T06:58:59Z</time>
      </trkpt>
      <trkpt lat="47.33086" lon="-0.18598">
        <ele>24</ele>
        <time>2019-05-06T06:59:35Z</time>
      </trkpt>
      <trkpt lat="47.3306" lon="-0.18538">
        <ele>29</ele>
        <time>2019-05-06T06:59:47Z</time>
      </trkpt>
      <trkpt lat="47.33008" lon="-0.18351">
        <ele>28</ele>
        <time>2019-05-06T07:00:23Z</time>
      </trkpt>
      <trkpt lat="47.32992" lon="-0.1832">
        <ele>28</ele>
        <time>2019-05-06T07:00:29Z</time>
      </trkpt>
      <trkpt lat="47.32915" lon="-0.18221">
        <ele>25</ele>
        <time>2019-05-06T07:00:53Z</time>
      </trkpt>
      <trkpt lat="47.32845" lon="-0.18091">
        <ele>20</ele>
        <time>2019-05-06T07:01:17Z</time>
      </trkpt>
      <trkpt lat="47.328" lon="-0.17941">
        <ele>23</ele>
        <time>2019-05-06T07:01:41Z</time>
      </trkpt>
      <trkpt lat="47.32707" lon="-0.17729">
        <ele>23</ele>
        <time>2019-05-06T07:02:17Z</time>
      </trkpt>
      <trkpt lat="47.32671" lon="-0.17671">
        <ele>18</ele>
        <time>2019-05-06T07:02:29Z</time>
      </trkpt>
      <trkpt lat="47.32593" lon="-0.17493">
        <ele>22</ele>
        <time>2019-05-06T07:02:59Z</time>
      </trkpt>
      <trkpt lat="47.32531" lon="-0.17261">
        <ele>21</ele>
        <time>2019-05-06T07:03:35Z</time>
      </trkpt>
      <trkpt lat="47.32458" lon="-0.17073">
        <ele>18</ele>
        <time>2019-05-06T07:04:05Z</time>
      </trkpt>
      <trkpt lat="47.32414" lon="-0.16909">
        <ele>23</ele>
        <time>2019-05-06T07:04:29Z</time>
      </trkpt>
      <trkpt lat="47.32348" lon="-0.16709">
        <ele>27</ele>
        <time>2019-05-06T07:04:59Z</time>
      </trkpt>
      <trkpt lat="47.32165" lon="-0.16303">
        <ele>23</ele>
        <time>2019-05-06T07:06:05Z</time>
      </trkpt>
      <trkpt lat="47.32082" lon="-0.16084">
        <ele>24</ele>
        <time>2019-05-06T07:06:41Z</time>
      </trkpt>
      <trkpt lat="47.31981" lon="-0.15844">
        <ele>27</ele>
        <time>2019-05-06T07:07:23Z</time>
      </trkpt>
      <trkpt lat="47.31882" lon="-0.1563">
        <ele>28</ele>
        <time>2019-05-06T07:07:59Z</time>
      </trkpt>
      <trkpt lat="47.31801" lon="-0.15495">
        <ele>27</ele>
        <time>2019-05-06T07:08:23Z</time>
      </trkpt>
      <trkpt lat="47.31746" lon="-0.15385">
        <ele>27</ele>
        <time>2019-05-06T07:08:41Z</time>
      </trkpt>
      <trkpt lat="47.31683" lon="-0.15302">
        <ele>29</ele>
        <time>2019-05-06T07:08:59Z</time>
      </trkpt>
      <trkpt lat="47.31575" lon="-0.15192">
        <ele>26</ele>
        <time>2019-05-06T07:09:29Z</time>
      </trkpt>
      <trkpt lat="47.31539" lon="-0.15135">
        <ele>26</ele>
        <time>2019-05-06T07:09:41Z</time>
      </trkpt>
      <trkpt lat="47.31477" lon="-0.15008">
        <ele>29</ele>
        <time>2019-05-06T07:10:05Z</time>
      </trkpt>
      <trkpt lat="47.31454" lon="-0.14978">
        <ele>24</ele>
        <time>2019-05-06T07:10:17Z</time>
      </trkpt>
      <trkpt lat="47.31446" lon="-0.1495">
        <ele>27</ele>
        <time>2019-05-06T07:10:33Z</time>
      </trkpt>
      <trkpt lat="47.31406" lon="-0.14881">
        <ele>27</ele>
        <time>2019-05-06T07:10:51Z</time>
      </trkpt>
      <trkpt lat="47.31302" lon="-0.14665">
        <ele>29</ele>
        <time>2019-05-06T07:11:39Z</time>
      </trkpt>
      <trkpt lat="47.31128" lon="-0.14341">
        <ele>29</ele>
        <time>2019-05-06T07:12:45Z</time>
      </trkpt>
      <trkpt lat="47.30985" lon="-0.13968">
        <ele>27</ele>
        <time>2019-05-06T07:13:57Z</time>
      </trkpt>
      <trkpt lat="47.30909" lon="-0.13828">
        <ele>26</ele>
        <time>2019-05-06T07:14:27Z</time>
      </trkpt>
      <trkpt lat="47.30831" lon="-0.1372">
        <ele>27</ele>
        <time>2019-05-06T07:14:51Z</time>
      </trkpt>
      <trkpt lat="47.30661" lon="-0.13435">
        <ele>26</ele>
        <time>2019-05-06T07:15:51Z</time>
      </trkpt>
      <trkpt lat="47.30588" lon="-0.13288">
        <ele>28</ele>
        <time>2019-05-06T07:16:33Z</time>
      </trkpt>
      <trkpt lat="47.30601" lon="-0.13317">
        <ele>28</ele>
        <time>2019-05-06T07:16:49Z</time>
      </trkpt>
      <trkpt lat="47.30586" lon="-0.13306">
        <ele>28</ele>
        <time>2019-05-06T07:17:01Z</time>
      </trkpt>
      <trkpt lat="47.30498" lon="-0.13104">
        <ele>28</ele>
        <time>2019-05-06T07:17:31Z</time>
      </trkpt>
      <trkpt lat="47.30466" lon="-0.13013">
        <ele>27</ele>
        <time>2019-05-06T07:17:43Z</time>
      </trkpt>
      <trkpt lat="47.30261" lon="-0.12585">
        <ele>28</ele>
        <time>2019-05-06T07:18:49Z</time>
      </trkpt>
      <trkpt lat="47.2997" lon="-0.12132">
        <ele>28</ele>
        <time>2019-05-06T07:20:53Z</time>
      </trkpt>
      <trkpt lat="47.29629" lon="-0.11583">
        <ele>28</ele>
        <time>2019-05-06T07:22:53Z</time>
      </trkpt>
      <trkpt lat="47.29588" lon="-0.11502">
        <ele>28</ele>
        <time>2019-05-06T07:23:11Z</time>
      </trkpt>
      <trkpt lat="47.2951" lon="-0.11399">
        <ele>28</ele>
        <time>2019-05-06T07:23:35Z</time>
      </trkpt>
      <trkpt lat="47.29236" lon="-0.1096">
        <ele>29</ele>
        <time>2019-05-06T07:25:11Z</time>
      </trkpt>
      <trkpt lat="47.29154" lon="-0.10822">
        <ele>28</ele>
        <time>2019-05-06T07:25:41Z</time>
      </trkpt>
      <trkpt lat="47.29139" lon="-0.10786">
        <ele>28</ele>
        <time>2019-05-06T07:25:53Z</time>
      </trkpt>
      <trkpt lat="47.2906" lon="-0.10683">
        <ele>27</ele>
        <time>2019-05-06T07:26:23Z</time>
      </trkpt>
      <trkpt lat="47.28961" lon="-0.10528">
        <ele>28</ele>
        <time>2019-05-06T07:26:53Z</time>
      </trkpt>
      <trkpt lat="47.28772" lon="-0.10203">
        <ele>28</ele>
        <time>2019-05-06T07:27:59Z</time>
      </trkpt>
      <trkpt lat="47.28696" lon="-0.10084">
        <ele>27</ele>
        <time>2019-05-06T07:28:23Z</time>
      </trkpt>
      <trkpt lat="47.28654" lon="-0.10034">
        <ele>28</ele>
        <time>2019-05-06T07:28:35Z</time>
      </trkpt>
      <trkpt lat="47.28543" lon="-0.09847">
        <ele>28</ele>
        <time>2019-05-06T07:29:11Z</time>
      </trkpt>
      <trkpt lat="47.28463" lon="-0.09734">
        <ele>29</ele>
        <time>2019-05-06T07:29:47Z</time>
      </trkpt>
      <trkpt lat="47.28328" lon="-0.0952">
        <ele>28</ele>
        <time>2019-05-06T07:30:28Z</time>
      </trkpt>
      <trkpt lat="47.27946" lon="-0.08891">
        <ele>27</ele>
        <time>2019-05-06T07:32:46Z</time>
      </trkpt>
      <trkpt lat="47.27859" lon="-0.08771">
        <ele>27</ele>
        <time>2019-05-06T07:33:16Z</time>
      </trkpt>
      <trkpt lat="47.27545" lon="-0.08284">
        <ele>26</ele>
        <time>2019-05-06T07:35:35Z</time>
      </trkpt>
      <trkpt lat="47.27492" lon="-0.08214">
        <ele>28</ele>
        <time>2019-05-06T07:35:54Z</time>
      </trkpt>
      <trkpt lat="47.27405" lon="-0.08209">
        <ele>30</ele>
        <time>2019-05-06T07:36:17Z</time>
      </trkpt>
      <trkpt lat="47.27345" lon="-0.0817">
        <ele>33</ele>
        <time>2019-05-06T07:36:35Z</time>
      </trkpt>
      <trkpt lat="47.27302" lon="-0.08191">
        <ele>33</ele>
        <time>2019-05-06T07:36:48Z</time>
      </trkpt>
      <trkpt lat="47.27287" lon="-0.08187">
        <ele>33</ele>
        <time>2019-05-06T07:37:00Z</time>
      </trkpt>
      <trkpt lat="47.27266" lon="-0.08143">
        <ele>21</ele>
        <time>2019-05-06T07:37:17Z</time>
      </trkpt>
      <trkpt lat="47.27308" lon="-0.08065">
        <ele>33</ele>
        <time>2019-05-06T07:38:05Z</time>
      </trkpt>
      <trkpt lat="47.27339" lon="-0.0798">
        <ele>33</ele>
        <time>2019-05-06T07:38:17Z</time>
      </trkpt>
      <trkpt lat="47.27298" lon="-0.07892">
        <ele>28</ele>
        <time>2019-05-06T07:38:35Z</time>
      </trkpt>
      <trkpt lat="47.27272" lon="-0.07861">
        <ele>28</ele>
        <time>2019-05-06T07:38:48Z</time>
      </trkpt>
      <trkpt lat="47.27232" lon="-0.07842">
        <ele>30</ele>
        <time>2019-05-06T07:38:59Z</time>
      </trkpt>
      <trkpt lat="47.27219" lon="-0.07815">
        <ele>29</ele>
        <time>2019-05-06T07:39:05Z</time>
      </trkpt>
      <trkpt lat="47.27154" lon="-0.07758">
        <ele>26</ele>
        <time>2019-05-06T07:39:23Z</time>
      </trkpt>
      <trkpt lat="47.27118" lon="-0.07713">
        <ele>26</ele>
        <time>2019-05-06T07:39:35Z</time>
      </trkpt>
      <trkpt lat="47.27048" lon="-0.07598">
        <ele>22</ele>
        <time>2019-05-06T07:39:59Z</time>
      </trkpt>
      <trkpt lat="47.26736" lon="-0.07026">
        <ele>22</ele>
        <time>2019-05-06T07:41:59Z</time>
      </trkpt>
      <trkpt lat="47.26708" lon="-0.07011">
        <ele>22</ele>
        <time>2019-05-06T07:42:33Z</time>
      </trkpt>
      <trkpt lat="47.26553" lon="-0.07196">
        <ele>26</ele>
        <time>2019-05-06T07:43:27Z</time>
      </trkpt>
      <trkpt lat="47.26491" lon="-0.07258">
        <ele>35</ele>
        <time>2019-05-06T07:43:45Z</time>
      </trkpt>
      <trkpt lat="47.26438" lon="-0.07329">
        <ele>35</ele>
        <time>2019-05-06T07:44:03Z</time>
      </trkpt>
      <trkpt lat="47.26416" lon="-0.07344">
        <ele>34</ele>
        <time>2019-05-06T07:44:09Z</time>
      </trkpt>
      <trkpt lat="47.26146" lon="-0.07657">
        <ele>27</ele>
        <time>2019-05-06T07:45:39Z</time>
      </trkpt>
      <trkpt lat="47.26128" lon="-0.07668">
        <ele>27</ele>
        <time>2019-05-06T07:45:51Z</time>
      </trkpt>
      <trkpt lat="47.26078" lon="-0.07586">
        <ele>27</ele>
        <time>2019-05-06T07:46:09Z</time>
      </trkpt>
      <trkpt lat="47.26021" lon="-0.07445">
        <ele>29</ele>
        <time>2019-05-06T07:46:33Z</time>
      </trkpt>
      <trkpt lat="47.25991" lon="-0.07389">
        <ele>22</ele>
        <time>2019-05-06T07:46:45Z</time>
      </trkpt>
      <trkpt lat="47.25929" lon="-0.07286">
        <ele>31</ele>
        <time>2019-05-06T07:47:09Z</time>
      </trkpt>
      <trkpt lat="47.25895" lon="-0.07263">
        <ele>22</ele>
        <time>2019-05-06T07:47:21Z</time>
      </trkpt>
      <trkpt lat="47.25827" lon="-0.07127">
        <ele>22</ele>
        <time>2019-05-06T07:47:51Z</time>
      </trkpt>
      <trkpt lat="47.2572" lon="-0.06945">
        <ele>23</ele>
        <time>2019-05-06T07:48:33Z</time>
      </trkpt>
      <trkpt lat="47.25666" lon="-0.06897">
        <ele>40</ele>
        <time>2019-05-06T07:48:51Z</time>
      </trkpt>
      <trkpt lat="47.25652" lon="-0.06862">
        <ele>27</ele>
        <time>2019-05-06T07:48:57Z</time>
      </trkpt>
      <trkpt lat="47.25628" lon="-0.06842">
        <ele>27</ele>
        <time>2019-05-06T07:49:03Z</time>
      </trkpt>
      <trkpt lat="47.2556" lon="-0.06747">
        <ele>41</ele>
        <time>2019-05-06T07:49:27Z</time>
      </trkpt>
      <trkpt lat="47.2551" lon="-0.06693">
        <ele>28</ele>
        <time>2019-05-06T07:49:45Z</time>
      </trkpt>
      <trkpt lat="47.25442" lon="-0.0659">
        <ele>29</ele>
        <time>2019-05-06T07:50:09Z</time>
      </trkpt>
      <trkpt lat="47.25365" lon="-0.06443">
        <ele>36</ele>
        <time>2019-05-06T07:50:39Z</time>
      </trkpt>
      <trkpt lat="47.25342" lon="-0.06388">
        <ele>36</ele>
        <time>2019-05-06T07:50:51Z</time>
      </trkpt>
      <trkpt lat="47.25326" lon="-0.06307">
        <ele>25</ele>
        <time>2019-05-06T07:51:09Z</time>
      </trkpt>
      <trkpt lat="47.25333" lon="-0.0627">
        <ele>25</ele>
        <time>2019-05-06T07:51:21Z</time>
      </trkpt>
      <trkpt lat="47.25244" lon="-0.06112">
        <ele>28</ele>
        <time>2019-05-06T07:51:57Z</time>
      </trkpt>
      <trkpt lat="47.25195" lon="-0.05989">
        <ele>40</ele>
        <time>2019-05-06T07:52:21Z</time>
      </trkpt>
      <trkpt lat="47.25181" lon="-0.05922">
        <ele>40</ele>
        <time>2019-05-06T07:52:33Z</time>
      </trkpt>
      <trkpt lat="47.25188" lon="-0.05878">
        <ele>32</ele>
        <time>2019-05-06T07:52:45Z</time>
      </trkpt>
      <trkpt lat="47.25046" lon="-0.05417">
        <ele>33</ele>
        <time>2019-05-06T07:54:21Z</time>
      </trkpt>
      <trkpt lat="47.2501" lon="-0.05258">
        <ele>39</ele>
        <time>2019-05-06T07:55:03Z</time>
      </trkpt>
      <trkpt lat="47.24989" lon="-0.05206">
        <ele>34</ele>
        <time>2019-05-06T07:55:27Z</time>
      </trkpt>
      <trkpt lat="47.24892" lon="-0.04742">
        <ele>35</ele>
        <time>2019-05-06T07:56:45Z</time>
      </trkpt>
      <trkpt lat="47.24864" lon="-0.04669">
        <ele>35</ele>
        <time>2019-05-06T07:56:57Z</time>
      </trkpt>
      <trkpt lat="47.24826" lon="-0.04606">
        <ele>40</ele>
        <time>2019-05-06T07:57:09Z</time>
      </trkpt>
      <trkpt lat="47.24774" lon="-0.0444">
        <ele>33</ele>
        <time>2019-05-06T07:57:39Z</time>
      </trkpt>
      <trkpt lat="47.24741" lon="-0.04382">
        <ele>40</ele>
        <time>2019-05-06T07:57:51Z</time>
      </trkpt>
      <trkpt lat="47.24684" lon="-0.04237">
        <ele>36</ele>
        <time>2019-05-06T07:58:21Z</time>
      </trkpt>
      <trkpt lat="47.24543" lon="-0.03729">
        <ele>48</ele>
        <time>2019-05-06T07:59:51Z</time>
      </trkpt>
      <trkpt lat="47.245" lon="-0.03598">
        <ele>37</ele>
        <time>2019-05-06T08:00:15Z</time>
      </trkpt>
      <trkpt lat="47.24461" lon="-0.03513">
        <ele>47</ele>
        <time>2019-05-06T08:00:33Z</time>
      </trkpt>
      <trkpt lat="47.24377" lon="-0.03285">
        <ele>46</ele>
        <time>2019-05-06T08:01:15Z</time>
      </trkpt>
      <trkpt lat="47.24326" lon="-0.03089">
        <ele>39</ele>
        <time>2019-05-06T08:01:51Z</time>
      </trkpt>
      <trkpt lat="47.24265" lon="-0.02916">
        <ele>43</ele>
        <time>2019-05-06T08:02:21Z</time>
      </trkpt>
      <trkpt lat="47.24201" lon="-0.02658">
        <ele>30</ele>
        <time>2019-05-06T08:03:09Z</time>
      </trkpt>
      <trkpt lat="47.24147" lon="-0.02494">
        <ele>41</ele>
        <time>2019-05-06T08:03:39Z</time>
      </trkpt>
      <trkpt lat="47.24086" lon="-0.02335">
        <ele>41</ele>
        <time>2019-05-06T08:04:09Z</time>
      </trkpt>
      <trkpt lat="47.24053" lon="-0.02115">
        <ele>37</ele>
        <time>2019-05-06T08:04:45Z</time>
      </trkpt>
      <trkpt lat="47.23982" lon="-0.01763">
        <ele>37</ele>
        <time>2019-05-06T08:05:45Z</time>
      </trkpt>
      <trkpt lat="47.23918" lon="-0.01496">
        <ele>26</ele>
        <time>2019-05-06T08:06:27Z</time>
      </trkpt>
      <trkpt lat="47.23903" lon="-0.01468">
        <ele>41</ele>
        <time>2019-05-06T08:06:39Z</time>
      </trkpt>
      <trkpt lat="47.23875" lon="-0.01381">
        <ele>41</ele>
        <time>2019-05-06T08:06:57Z</time>
      </trkpt>
      <trkpt lat="47.23797" lon="-0.01108">
        <ele>43</ele>
        <time>2019-05-06T08:07:45Z</time>
      </trkpt>
      <trkpt lat="47.23735" lon="-0.00944">
        <ele>28</ele>
        <time>2019-05-06T08:08:15Z</time>
      </trkpt>
      <trkpt lat="47.23631" lon="-0.00732">
        <ele>34</ele>
        <time>2019-05-06T08:08:57Z</time>
      </trkpt>
      <trkpt lat="47.23599" lon="-0.00632">
        <ele>34</ele>
        <time>2019-05-06T08:09:15Z</time>
      </trkpt>
      <trkpt lat="47.2358" lon="-0.00491">
        <ele>34</ele>
        <time>2019-05-06T08:09:39Z</time>
      </trkpt>
      <trkpt lat="47.23413" lon="0.00123">
        <ele>37</ele>
        <time>2019-05-06T08:11:27Z</time>
      </trkpt>
      <trkpt lat="47.23416" lon="0.00155">
        <ele>34</ele>
        <time>2019-05-06T08:11:33Z</time>
      </trkpt>
      <trkpt lat="47.23381" lon="0.00287">
        <ele>29</ele>
        <time>2019-05-06T08:11:57Z</time>
      </trkpt>
      <trkpt lat="47.23293" lon="0.00587">
        <ele>32</ele>
        <time>2019-05-06T08:12:51Z</time>
      </trkpt>
      <trkpt lat="47.23265" lon="0.00655">
        <ele>32</ele>
        <time>2019-05-06T08:13:03Z</time>
      </trkpt>
      <trkpt lat="47.23226" lon="0.0079">
        <ele>42</ele>
        <time>2019-05-06T08:13:27Z</time>
      </trkpt>
      <trkpt lat="47.23186" lon="0.00888">
        <ele>34</ele>
        <time>2019-05-06T08:13:45Z</time>
      </trkpt>
      <trkpt lat="47.23138" lon="0.01069">
        <ele>45</ele>
        <time>2019-05-06T08:14:21Z</time>
      </trkpt>
      <trkpt lat="47.23086" lon="0.01176">
        <ele>33</ele>
        <time>2019-05-06T08:15:07Z</time>
      </trkpt>
      <trkpt lat="47.22976" lon="0.01553">
        <ele>30</ele>
        <time>2019-05-06T08:16:19Z</time>
      </trkpt>
      <trkpt lat="47.22961" lon="0.01624">
        <ele>30</ele>
        <time>2019-05-06T08:16:31Z</time>
      </trkpt>
      <trkpt lat="47.22932" lon="0.01693">
        <ele>30</ele>
        <time>2019-05-06T08:16:43Z</time>
      </trkpt>
      <trkpt lat="47.22542" lon="0.02919">
        <ele>30</ele>
        <time>2019-05-06T08:20:00Z</time>
      </trkpt>
      <trkpt lat="47.22514" lon="0.02975">
        <ele>31</ele>
        <time>2019-05-06T08:20:12Z</time>
      </trkpt>
      <trkpt lat="47.22525" lon="0.02996">
        <ele>30</ele>
        <time>2019-05-06T08:20:18Z</time>
      </trkpt>
      <trkpt lat="47.22549" lon="0.02991">
        <ele>30</ele>
        <time>2019-05-06T08:20:24Z</time>
      </trkpt>
      <trkpt lat="47.22835" lon="0.03066">
        <ele>32</ele>
        <time>2019-05-06T08:21:36Z</time>
      </trkpt>
      <trkpt lat="47.2288" lon="0.03097">
        <ele>32</ele>
        <time>2019-05-06T08:21:48Z</time>
      </trkpt>
      <trkpt lat="47.22913" lon="0.03151">
        <ele>30</ele>
        <time>2019-05-06T08:22:00Z</time>
      </trkpt>
      <trkpt lat="47.2289" lon="0.03209">
        <ele>28</ele>
        <time>2019-05-06T08:22:18Z</time>
      </trkpt>
      <trkpt lat="47.22842" lon="0.03246">
        <ele>29</ele>
        <time>2019-05-06T08:22:30Z</time>
      </trkpt>
      <trkpt lat="47.22807" lon="0.03294">
        <ele>29</ele>
        <time>2019-05-06T08:22:42Z</time>
      </trkpt>
      <trkpt lat="47.22745" lon="0.03418">
        <ele>29</ele>
        <time>2019-05-06T08:23:06Z</time>
      </trkpt>
      <trkpt lat="47.22698" lon="0.03548">
        <ele>30</ele>
        <time>2019-05-06T08:23:30Z</time>
      </trkpt>
      <trkpt lat="47.22684" lon="0.03627">
        <ele>32</ele>
        <time>2019-05-06T08:23:52Z</time>
      </trkpt>
      <trkpt lat="47.22665" lon="0.03663">
        <ele>32</ele>
        <time>2019-05-06T08:24:14Z</time>
      </trkpt>
      <trkpt lat="47.22645" lon="0.03781">
        <ele>29</ele>
        <time>2019-05-06T08:24:44Z</time>
      </trkpt>
      <trkpt lat="47.22597" lon="0.03936">
        <ele>30</ele>
        <time>2019-05-06T08:25:20Z</time>
      </trkpt>
      <trkpt lat="47.22555" lon="0.04047">
        <ele>28</ele>
        <time>2019-05-06T08:25:38Z</time>
      </trkpt>
      <trkpt lat="47.22416" lon="0.04285">
        <ele>33</ele>
        <time>2019-05-06T08:26:32Z</time>
      </trkpt>
      <trkpt lat="47.22389" lon="0.04445">
        <ele>30</ele>
        <time>2019-05-06T08:26:56Z</time>
      </trkpt>
      <trkpt lat="47.22336" lon="0.04574">
        <ele>28</ele>
        <time>2019-05-06T08:27:20Z</time>
      </trkpt>
      <trkpt lat="47.22298" lon="0.0462">
        <ele>31</ele>
        <time>2019-05-06T08:27:32Z</time>
      </trkpt>
      <trkpt lat="47.22198" lon="0.04785">
        <ele>29</ele>
        <time>2019-05-06T08:28:08Z</time>
      </trkpt>
      <trkpt lat="47.2201" lon="0.04993">
        <ele>29</ele>
        <time>2019-05-06T08:29:20Z</time>
      </trkpt>
      <trkpt lat="47.21947" lon="0.05121">
        <ele>32</ele>
        <time>2019-05-06T08:29:54Z</time>
      </trkpt>
      <trkpt lat="47.21938" lon="0.05161">
        <ele>32</ele>
        <time>2019-05-06T08:30:09Z</time>
      </trkpt>
      <trkpt lat="47.21934" lon="0.05146">
        <ele>32</ele>
        <time>2019-05-06T08:30:22Z</time>
      </trkpt>
      <trkpt lat="47.21942" lon="0.05136">
        <ele>32</ele>
        <time>2019-05-06T08:30:34Z</time>
      </trkpt>
      <trkpt lat="47.21916" lon="0.05121">
        <ele>32</ele>
        <time>2019-05-06T08:30:52Z</time>
      </trkpt>
      <trkpt lat="47.21878" lon="0.05064">
        <ele>35</ele>
        <time>2019-05-06T08:31:16Z</time>
      </trkpt>
      <trkpt lat="47.21859" lon="0.05098">
        <ele>42</ele>
        <time>2019-05-06T08:31:34Z</time>
      </trkpt>
      <trkpt lat="47.21687" lon="0.0564">
        <ele>29</ele>
        <time>2019-05-06T08:33:58Z</time>
      </trkpt>
      <trkpt lat="47.21659" lon="0.05768">
        <ele>41</ele>
        <time>2019-05-06T08:34:34Z</time>
      </trkpt>
      <trkpt lat="47.2161" lon="0.06146">
        <ele>34</ele>
        <time>2019-05-06T08:35:52Z</time>
      </trkpt>
      <trkpt lat="47.21399" lon="0.06851">
        <ele>27</ele>
        <time>2019-05-06T08:37:58Z</time>
      </trkpt>
      <trkpt lat="47.21291" lon="0.07074">
        <ele>49</ele>
        <time>2019-05-06T08:38:58Z</time>
      </trkpt>
      <trkpt lat="47.21182" lon="0.07351">
        <ele>44</ele>
        <time>2019-05-06T08:39:58Z</time>
      </trkpt>
      <trkpt lat="47.21155" lon="0.0739">
        <ele>44</ele>
        <time>2019-05-06T08:40:13Z</time>
      </trkpt>
      <trkpt lat="47.21159" lon="0.07399">
        <ele>44</ele>
        <time>2019-05-06T08:40:17Z</time>
      </trkpt>
      <trkpt lat="47.2115" lon="0.07398">
        <ele>44</ele>
        <time>2019-05-06T08:40:34Z</time>
      </trkpt>
      <trkpt lat="47.21156" lon="0.07397">
        <ele>44</ele>
        <time>2019-05-06T08:40:43Z</time>
      </trkpt>
      <trkpt lat="47.21155" lon="0.07416">
        <ele>44</ele>
        <time>2019-05-06T08:40:50Z</time>
      </trkpt>
      <trkpt lat="47.21134" lon="0.07468">
        <ele>32</ele>
        <time>2019-05-06T08:41:02Z</time>
      </trkpt>
      <trkpt lat="47.21085" lon="0.07548">
        <ele>45</ele>
        <time>2019-05-06T08:41:20Z</time>
      </trkpt>
      <trkpt lat="47.21057" lon="0.07639">
        <ele>31</ele>
        <time>2019-05-06T08:41:32Z</time>
      </trkpt>
      <trkpt lat="47.20929" lon="0.07837">
        <ele>36</ele>
        <time>2019-05-06T08:42:20Z</time>
      </trkpt>
      <trkpt lat="47.20909" lon="0.07851">
        <ele>36</ele>
        <time>2019-05-06T08:42:44Z</time>
      </trkpt>
      <trkpt lat="47.20899" lon="0.07844">
        <ele>36</ele>
        <time>2019-05-06T08:42:52Z</time>
      </trkpt>
      <trkpt lat="47.20913" lon="0.0783">
        <ele>36</ele>
        <time>2019-05-06T08:43:06Z</time>
      </trkpt>
      <trkpt lat="47.20937" lon="0.07855">
        <ele>27</ele>
        <time>2019-05-06T08:43:18Z</time>
      </trkpt>
      <trkpt lat="47.2124" lon="0.08337">
        <ele>34</ele>
        <time>2019-05-06T08:44:54Z</time>
      </trkpt>
      <trkpt lat="47.21272" lon="0.08419">
        <ele>33</ele>
        <time>2019-05-06T08:45:06Z</time>
      </trkpt>
      <trkpt lat="47.2124" lon="0.08417">
        <ele>33</ele>
        <time>2019-05-06T08:45:18Z</time>
      </trkpt>
      <trkpt lat="47.21054" lon="0.08278">
        <ele>28</ele>
        <time>2019-05-06T08:46:06Z</time>
      </trkpt>
      <trkpt lat="47.20982" lon="0.08393">
        <ele>29</ele>
        <time>2019-05-06T08:46:36Z</time>
      </trkpt>
      <trkpt lat="47.20869" lon="0.0872">
        <ele>33</ele>
        <time>2019-05-06T08:47:30Z</time>
      </trkpt>
      <trkpt lat="47.20808" lon="0.08975">
        <ele>31</ele>
        <time>2019-05-06T08:48:12Z</time>
      </trkpt>
      <trkpt lat="47.20612" lon="0.09436">
        <ele>31</ele>
        <time>2019-05-06T08:49:42Z</time>
      </trkpt>
      <trkpt lat="47.20599" lon="0.09473">
        <ele>31</ele>
        <time>2019-05-06T08:49:48Z</time>
      </trkpt>
      <trkpt lat="47.20579" lon="0.09606">
        <ele>33</ele>
        <time>2019-05-06T08:50:12Z</time>
      </trkpt>
      <trkpt lat="47.20526" lon="0.09786">
        <ele>28</ele>
        <time>2019-05-06T08:50:42Z</time>
      </trkpt>
      <trkpt lat="47.20434" lon="0.10042">
        <ele>29</ele>
        <time>2019-05-06T08:51:24Z</time>
      </trkpt>
      <trkpt lat="47.20345" lon="0.10243">
        <ele>35</ele>
        <time>2019-05-06T08:52:00Z</time>
      </trkpt>
      <trkpt lat="47.20277" lon="0.10424">
        <ele>41</ele>
        <time>2019-05-06T08:52:30Z</time>
      </trkpt>
      <trkpt lat="47.2026" lon="0.10407">
        <ele>41</ele>
        <time>2019-05-06T08:52:36Z</time>
      </trkpt>
      <trkpt lat="47.20154" lon="0.10231">
        <ele>34</ele>
        <time>2019-05-06T08:53:12Z</time>
      </trkpt>
      <trkpt lat="47.20058" lon="0.10134">
        <ele>35</ele>
        <time>2019-05-06T08:53:36Z</time>
      </trkpt>
      <trkpt lat="47.20003" lon="0.10111">
        <ele>35</ele>
        <time>2019-05-06T08:53:48Z</time>
      </trkpt>
      <trkpt lat="47.19947" lon="0.10121">
        <ele>33</ele>
        <time>2019-05-06T08:54:00Z</time>
      </trkpt>
      <trkpt lat="47.19883" lon="0.10172">
        <ele>30</ele>
        <time>2019-05-06T08:54:18Z</time>
      </trkpt>
      <trkpt lat="47.19828" lon="0.10234">
        <ele>30</ele>
        <time>2019-05-06T08:54:36Z</time>
      </trkpt>
      <trkpt lat="47.19774" lon="0.10279">
        <ele>31</ele>
        <time>2019-05-06T08:54:54Z</time>
      </trkpt>
      <trkpt lat="47.19591" lon="0.10377">
        <ele>31</ele>
        <time>2019-05-06T08:55:48Z</time>
      </trkpt>
      <trkpt lat="47.19484" lon="0.10449">
        <ele>37</ele>
        <time>2019-05-06T08:56:24Z</time>
      </trkpt>
      <trkpt lat="47.19385" lon="0.10561">
        <ele>32</ele>
        <time>2019-05-06T08:57:00Z</time>
      </trkpt>
      <trkpt lat="47.19255" lon="0.10667">
        <ele>31</ele>
        <time>2019-05-06T08:57:42Z</time>
      </trkpt>
      <trkpt lat="47.1911" lon="0.10818">
        <ele>33</ele>
        <time>2019-05-06T08:58:30Z</time>
      </trkpt>
      <trkpt lat="47.19058" lon="0.10884">
        <ele>31</ele>
        <time>2019-05-06T08:58:48Z</time>
      </trkpt>
      <trkpt lat="47.19023" lon="0.10954">
        <ele>31</ele>
        <time>2019-05-06T08:59:06Z</time>
      </trkpt>
      <trkpt lat="47.1894" lon="0.11091">
        <ele>30</ele>
        <time>2019-05-06T08:59:36Z</time>
      </trkpt>
      <trkpt lat="47.18885" lon="0.11202">
        <ele>34</ele>
        <time>2019-05-06T09:00:00Z</time>
      </trkpt>
      <trkpt lat="47.18772" lon="0.11489">
        <ele>26</ele>
        <time>2019-05-06T09:01:00Z</time>
      </trkpt>
      <trkpt lat="47.18714" lon="0.11718">
        <ele>31</ele>
        <time>2019-05-06T09:01:42Z</time>
      </trkpt>
      <trkpt lat="47.18744" lon="0.11771">
        <ele>31</ele>
        <time>2019-05-06T09:01:54Z</time>
      </trkpt>
      <trkpt lat="47.18866" lon="0.11804">
        <ele>34</ele>
        <time>2019-05-06T09:02:24Z</time>
      </trkpt>
      <trkpt lat="47.18973" lon="0.11866">
        <ele>33</ele>
        <time>2019-05-06T09:02:48Z</time>
      </trkpt>
      <trkpt lat="47.19019" lon="0.11903">
        <ele>33</ele>
        <time>2019-05-06T09:03:00Z</time>
      </trkpt>
      <trkpt lat="47.19109" lon="0.1195">
        <ele>31</ele>
        <time>2019-05-06T09:03:24Z</time>
      </trkpt>
      <trkpt lat="47.19522" lon="0.12234">
        <ele>32</ele>
        <time>2019-05-06T09:05:06Z</time>
      </trkpt>
      <trkpt lat="47.19863" lon="0.12423">
        <ele>32</ele>
        <time>2019-05-06T09:06:18Z</time>
      </trkpt>
      <trkpt lat="47.20104" lon="0.1258">
        <ele>30</ele>
        <time>2019-05-06T09:07:12Z</time>
      </trkpt>
      <trkpt lat="47.20378" lon="0.12877">
        <ele>31</ele>
        <time>2019-05-06T09:08:24Z</time>
      </trkpt>
      <trkpt lat="47.2044" lon="0.12968">
        <ele>31</ele>
        <time>2019-05-06T09:08:48Z</time>
      </trkpt>
      <trkpt lat="47.20462" lon="0.13019">
        <ele>31</ele>
        <time>2019-05-06T09:09:00Z</time>
      </trkpt>
      <trkpt lat="47.20197" lon="0.13462">
        <ele>32</ele>
        <time>2019-05-06T09:10:36Z</time>
      </trkpt>
      <trkpt lat="47.20148" lon="0.13643">
        <ele>33</ele>
        <time>2019-05-06T09:11:00Z</time>
      </trkpt>
      <trkpt lat="47.19997" lon="0.14103">
        <ele>31</ele>
        <time>2019-05-06T09:12:18Z</time>
      </trkpt>
      <trkpt lat="47.19989" lon="0.14158">
        <ele>34</ele>
        <time>2019-05-06T09:12:30Z</time>
      </trkpt>
      <trkpt lat="47.19999" lon="0.14298">
        <ele>32</ele>
        <time>2019-05-06T09:13:00Z</time>
      </trkpt>
      <trkpt lat="47.20074" lon="0.14417">
        <ele>32</ele>
        <time>2019-05-06T09:13:42Z</time>
      </trkpt>
      <trkpt lat="47.20077" lon="0.14438">
        <ele>33</ele>
        <time>2019-05-06T09:13:58Z</time>
      </trkpt>
      <trkpt lat="47.20081" lon="0.14426">
        <ele>33</ele>
        <time>2019-05-06T09:14:00Z</time>
      </trkpt>
      <trkpt lat="47.20209" lon="0.14487">
        <ele>33</ele>
        <time>2019-05-06T09:14:51Z</time>
      </trkpt>
      <trkpt lat="47.20231" lon="0.14503">
        <ele>33</ele>
        <time>2019-05-06T09:14:57Z</time>
      </trkpt>
      <trkpt lat="47.20294" lon="0.14602">
        <ele>33</ele>
        <time>2019-05-06T09:15:21Z</time>
      </trkpt>
      <trkpt lat="47.20332" lon="0.14631">
        <ele>33</ele>
        <time>2019-05-06T09:15:33Z</time>
      </trkpt>
      <trkpt lat="47.20428" lon="0.14649">
        <ele>34</ele>
        <time>2019-05-06T09:15:57Z</time>
      </trkpt>
      <trkpt lat="47.20488" lon="0.1469">
        <ele>35</ele>
        <time>2019-05-06T09:16:16Z</time>
      </trkpt>
      <trkpt lat="47.20509" lon="0.14725">
        <ele>34</ele>
        <time>2019-05-06T09:16:33Z</time>
      </trkpt>
      <trkpt lat="47.20526" lon="0.14718">
        <ele>34</ele>
        <time>2019-05-06T09:16:45Z</time>
      </trkpt>
      <trkpt lat="47.20514" lon="0.14743">
        <ele>34</ele>
        <time>2019-05-06T09:16:57Z</time>
      </trkpt>
      <trkpt lat="47.2051" lon="0.14787">
        <ele>34</ele>
        <time>2019-05-06T09:17:09Z</time>
      </trkpt>
      <trkpt lat="47.20521" lon="0.14809">
        <ele>34</ele>
        <time>2019-05-06T09:17:15Z</time>
      </trkpt>
      <trkpt lat="47.20582" lon="0.14871">
        <ele>36</ele>
        <time>2019-05-06T09:17:39Z</time>
      </trkpt>
      <trkpt lat="47.20567" lon="0.14975">
        <ele>38</ele>
        <time>2019-05-06T09:18:03Z</time>
      </trkpt>
      <trkpt lat="47.20561" lon="0.15089">
        <ele>38</ele>
        <time>2019-05-06T09:18:27Z</time>
      </trkpt>
      <trkpt lat="47.20597" lon="0.15304">
        <ele>37</ele>
        <time>2019-05-06T09:19:09Z</time>
      </trkpt>
      <trkpt lat="47.20607" lon="0.15474">
        <ele>37</ele>
        <time>2019-05-06T09:19:39Z</time>
      </trkpt>
      <trkpt lat="47.20592" lon="0.15706">
        <ele>36</ele>
        <time>2019-05-06T09:20:15Z</time>
      </trkpt>
      <trkpt lat="47.20576" lon="0.15835">
        <ele>40</ele>
        <time>2019-05-06T09:20:33Z</time>
      </trkpt>
      <trkpt lat="47.20532" lon="0.15924">
        <ele>36</ele>
        <time>2019-05-06T09:20:51Z</time>
      </trkpt>
      <trkpt lat="47.2054" lon="0.15999">
        <ele>36</ele>
        <time>2019-05-06T09:21:03Z</time>
      </trkpt>
      <trkpt lat="47.20567" lon="0.16098">
        <ele>35</ele>
        <time>2019-05-06T09:21:21Z</time>
      </trkpt>
      <trkpt lat="47.20568" lon="0.16146">
        <ele>35</ele>
        <time>2019-05-06T09:21:27Z</time>
      </trkpt>
      <trkpt lat="47.20547" lon="0.16348">
        <ele>33</ele>
        <time>2019-05-06T09:21:57Z</time>
      </trkpt>
      <trkpt lat="47.20544" lon="0.16533">
        <ele>32</ele>
        <time>2019-05-06T09:22:27Z</time>
      </trkpt>
      <trkpt lat="47.2053" lon="0.16605">
        <ele>32</ele>
        <time>2019-05-06T09:22:39Z</time>
      </trkpt>
      <trkpt lat="47.20497" lon="0.16666">
        <ele>32</ele>
        <time>2019-05-06T09:22:57Z</time>
      </trkpt>
      <trkpt lat="47.205" lon="0.16675">
        <ele>32</ele>
        <time>2019-05-06T09:23:03Z</time>
      </trkpt>
      <trkpt lat="47.20602" lon="0.16708">
        <ele>33</ele>
        <time>2019-05-06T09:23:27Z</time>
      </trkpt>
      <trkpt lat="47.20649" lon="0.16753">
        <ele>33</ele>
        <time>2019-05-06T09:23:39Z</time>
      </trkpt>
      <trkpt lat="47.20692" lon="0.16804">
        <ele>38</ele>
        <time>2019-05-06T09:23:51Z</time>
      </trkpt>
      <trkpt lat="47.20744" lon="0.16911">
        <ele>36</ele>
        <time>2019-05-06T09:24:09Z</time>
      </trkpt>
      <trkpt lat="47.20796" lon="0.16991">
        <ele>36</ele>
        <time>2019-05-06T09:24:27Z</time>
      </trkpt>
      <trkpt lat="47.2079" lon="0.17022">
        <ele>36</ele>
        <time>2019-05-06T09:24:33Z</time>
      </trkpt>
      <trkpt lat="47.20788" lon="0.1714">
        <ele>35</ele>
        <time>2019-05-06T09:24:51Z</time>
      </trkpt>
      <trkpt lat="47.20752" lon="0.17322">
        <ele>33</ele>
        <time>2019-05-06T09:25:21Z</time>
      </trkpt>
      <trkpt lat="47.20742" lon="0.17541">
        <ele>34</ele>
        <time>2019-05-06T09:25:57Z</time>
      </trkpt>
      <trkpt lat="47.20713" lon="0.17575">
        <ele>34</ele>
        <time>2019-05-06T09:26:09Z</time>
      </trkpt>
      <trkpt lat="47.20713" lon="0.17682">
        <ele>33</ele>
        <time>2019-05-06T09:26:27Z</time>
      </trkpt>
      <trkpt lat="47.20697" lon="0.17701">
        <ele>33</ele>
        <time>2019-05-06T09:26:33Z</time>
      </trkpt>
      <trkpt lat="47.2065" lon="0.17711">
        <ele>31</ele>
        <time>2019-05-06T09:26:45Z</time>
      </trkpt>
      <trkpt lat="47.20638" lon="0.18004">
        <ele>34</ele>
        <time>2019-05-06T09:27:33Z</time>
      </trkpt>
      <trkpt lat="47.20611" lon="0.18013">
        <ele>34</ele>
        <time>2019-05-06T09:27:45Z</time>
      </trkpt>
      <trkpt lat="47.20553" lon="0.18012">
        <ele>34</ele>
        <time>2019-05-06T09:28:03Z</time>
      </trkpt>
      <trkpt lat="47.20524" lon="0.18033">
        <ele>34</ele>
        <time>2019-05-06T09:28:15Z</time>
      </trkpt>
      <trkpt lat="47.20514" lon="0.18191">
        <ele>36</ele>
        <time>2019-05-06T09:28:51Z</time>
      </trkpt>
      <trkpt lat="47.20537" lon="0.18241">
        <ele>36</ele>
        <time>2019-05-06T09:29:15Z</time>
      </trkpt>
      <trkpt lat="47.20526" lon="0.18262">
        <ele>36</ele>
        <time>2019-05-06T09:29:35Z</time>
      </trkpt>
      <trkpt lat="47.20504" lon="0.18278">
        <ele>35</ele>
        <time>2019-05-06T09:29:54Z</time>
      </trkpt>
      <trkpt lat="47.20533" lon="0.18325">
        <ele>35</ele>
        <time>2019-05-06T09:30:21Z</time>
      </trkpt>
      <trkpt lat="47.20498" lon="0.1835">
        <ele>35</ele>
        <time>2019-05-06T09:30:39Z</time>
      </trkpt>
      <trkpt lat="47.2049" lon="0.18353">
        <ele>35</ele>
        <time>2019-05-06T09:30:56Z</time>
      </trkpt>
      <trkpt lat="47.20536" lon="0.18353">
        <ele>35</ele>
        <time>2019-05-06T09:31:29Z</time>
      </trkpt>
      <trkpt lat="47.2058" lon="0.18433">
        <ele>34</ele>
        <time>2019-05-06T09:31:58Z</time>
      </trkpt>
      <trkpt lat="47.20604" lon="0.1851">
        <ele>34</ele>
        <time>2019-05-06T09:32:22Z</time>
      </trkpt>
      <trkpt lat="47.20622" lon="0.18608">
        <ele>34</ele>
        <time>2019-05-06T09:32:46Z</time>
      </trkpt>
      <trkpt lat="47.20631" lon="0.18713">
        <ele>35</ele>
        <time>2019-05-06T09:33:04Z</time>
      </trkpt>
      <trkpt lat="47.20802" lon="0.18864">
        <ele>35</ele>
        <time>2019-05-06T09:33:58Z</time>
      </trkpt>
      <trkpt lat="47.20873" lon="0.18869">
        <ele>36</ele>
        <time>2019-05-06T09:34:16Z</time>
      </trkpt>
      <trkpt lat="47.21003" lon="0.18833">
        <ele>35</ele>
        <time>2019-05-06T09:34:52Z</time>
      </trkpt>
      <trkpt lat="47.2105" lon="0.18842">
        <ele>36</ele>
        <time>2019-05-06T09:35:04Z</time>
      </trkpt>
      <trkpt lat="47.21165" lon="0.1891">
        <ele>37</ele>
        <time>2019-05-06T09:35:40Z</time>
      </trkpt>
      <trkpt lat="47.21197" lon="0.18964">
        <ele>38</ele>
        <time>2019-05-06T09:35:52Z</time>
      </trkpt>
      <trkpt lat="47.21236" lon="0.19082">
        <ele>37</ele>
        <time>2019-05-06T09:36:16Z</time>
      </trkpt>
      <trkpt lat="47.21291" lon="0.19211">
        <ele>36</ele>
        <time>2019-05-06T09:36:40Z</time>
      </trkpt>
      <trkpt lat="47.21356" lon="0.19338">
        <ele>38</ele>
        <time>2019-05-06T09:37:04Z</time>
      </trkpt>
      <trkpt lat="47.21467" lon="0.19524">
        <ele>41</ele>
        <time>2019-05-06T09:37:46Z</time>
      </trkpt>
      <trkpt lat="47.21631" lon="0.19716">
        <ele>38</ele>
        <time>2019-05-06T09:38:34Z</time>
      </trkpt>
      <trkpt lat="47.21803" lon="0.19862">
        <ele>39</ele>
        <time>2019-05-06T09:39:22Z</time>
      </trkpt>
      <trkpt lat="47.21905" lon="0.20034">
        <ele>36</ele>
        <time>2019-05-06T09:39:58Z</time>
      </trkpt>
      <trkpt lat="47.21994" lon="0.201">
        <ele>36</ele>
        <time>2019-05-06T09:40:22Z</time>
      </trkpt>
      <trkpt lat="47.22041" lon="0.20119">
        <ele>36</ele>
        <time>2019-05-06T09:40:34Z</time>
      </trkpt>
      <trkpt lat="47.22151" lon="0.20216">
        <ele>40</ele>
        <time>2019-05-06T09:41:04Z</time>
      </trkpt>
      <trkpt lat="47.2227" lon="0.20295">
        <ele>38</ele>
        <time>2019-05-06T09:41:34Z</time>
      </trkpt>
      <trkpt lat="47.2249" lon="0.20489">
        <ele>38</ele>
        <time>2019-05-06T09:42:34Z</time>
      </trkpt>
      <trkpt lat="47.22611" lon="0.20614">
        <ele>37</ele>
        <time>2019-05-06T09:43:10Z</time>
      </trkpt>
      <trkpt lat="47.22761" lon="0.20787">
        <ele>36</ele>
        <time>2019-05-06T09:43:58Z</time>
      </trkpt>
      <trkpt lat="47.23017" lon="0.21013">
        <ele>35</ele>
        <time>2019-05-06T09:45:04Z</time>
      </trkpt>
      <trkpt lat="47.23167" lon="0.21199">
        <ele>35</ele>
        <time>2019-05-06T09:45:46Z</time>
      </trkpt>
      <trkpt lat="47.23215" lon="0.21245">
        <ele>35</ele>
        <time>2019-05-06T09:45:58Z</time>
      </trkpt>
      <trkpt lat="47.2327" lon="0.2126">
        <ele>37</ele>
        <time>2019-05-06T09:46:10Z</time>
      </trkpt>
      <trkpt lat="47.23368" lon="0.21211">
        <ele>36</ele>
        <time>2019-05-06T09:46:40Z</time>
      </trkpt>
      <trkpt lat="47.23342" lon="0.21087">
        <ele>35</ele>
        <time>2019-05-06T09:47:04Z</time>
      </trkpt>
      <trkpt lat="47.23339" lon="0.20973">
        <ele>36</ele>
        <time>2019-05-06T09:47:28Z</time>
      </trkpt>
      <trkpt lat="47.23392" lon="0.20953">
        <ele>37</ele>
        <time>2019-05-06T09:47:46Z</time>
      </trkpt>
      <trkpt lat="47.2347" lon="0.2094">
        <ele>37</ele>
        <time>2019-05-06T09:48:10Z</time>
      </trkpt>
      <trkpt lat="47.23524" lon="0.20949">
        <ele>37</ele>
        <time>2019-05-06T09:48:22Z</time>
      </trkpt>
      <trkpt lat="47.23541" lon="0.20966">
        <ele>37</ele>
        <time>2019-05-06T09:48:28Z</time>
      </trkpt>
      <trkpt lat="47.23561" lon="0.21036">
        <ele>37</ele>
        <time>2019-05-06T09:48:40Z</time>
      </trkpt>
      <trkpt lat="47.23602" lon="0.2102">
        <ele>37</ele>
        <time>2019-05-06T09:48:52Z</time>
      </trkpt>
      <trkpt lat="47.23696" lon="0.20965">
        <ele>37</ele>
        <time>2019-05-06T09:49:16Z</time>
      </trkpt>
      <trkpt lat="47.2374" lon="0.20982">
        <ele>38</ele>
        <time>2019-05-06T09:49:28Z</time>
      </trkpt>
      <trkpt lat="47.23794" lon="0.20984">
        <ele>38</ele>
        <time>2019-05-06T09:49:40Z</time>
      </trkpt>
      <trkpt lat="47.23841" lon="0.20971">
        <ele>38</ele>
        <time>2019-05-06T09:49:52Z</time>
      </trkpt>
      <trkpt lat="47.23904" lon="0.20928">
        <ele>38</ele>
        <time>2019-05-06T09:50:10Z</time>
      </trkpt>
      <trkpt lat="47.23997" lon="0.21021">
        <ele>36</ele>
        <time>2019-05-06T09:50:46Z</time>
      </trkpt>
      <trkpt lat="47.24069" lon="0.21236">
        <ele>38</ele>
        <time>2019-05-06T09:51:34Z</time>
      </trkpt>
      <trkpt lat="47.24146" lon="0.21536">
        <ele>37</ele>
        <time>2019-05-06T09:52:28Z</time>
      </trkpt>
      <trkpt lat="47.24193" lon="0.2178">
        <ele>42</ele>
        <time>2019-05-06T09:53:16Z</time>
      </trkpt>
      <trkpt lat="47.24214" lon="0.21928">
        <ele>44</ele>
        <time>2019-05-06T09:53:46Z</time>
      </trkpt>
      <trkpt lat="47.24234" lon="0.22007">
        <ele>44</ele>
        <time>2019-05-06T09:53:58Z</time>
      </trkpt>
      <trkpt lat="47.24255" lon="0.22174">
        <ele>44</ele>
        <time>2019-05-06T09:54:28Z</time>
      </trkpt>
      <trkpt lat="47.24295" lon="0.22365">
        <ele>44</ele>
        <time>2019-05-06T09:54:58Z</time>
      </trkpt>
      <trkpt lat="47.24348" lon="0.22681">
        <ele>43</ele>
        <time>2019-05-06T09:55:52Z</time>
      </trkpt>
      <trkpt lat="47.24599" lon="0.23623">
        <ele>36</ele>
        <time>2019-05-06T09:58:40Z</time>
      </trkpt>
      <trkpt lat="47.24634" lon="0.23739">
        <ele>36</ele>
        <time>2019-05-06T09:58:58Z</time>
      </trkpt>
      <trkpt lat="47.24657" lon="0.23868">
        <ele>37</ele>
        <time>2019-05-06T09:59:22Z</time>
      </trkpt>
      <trkpt lat="47.24728" lon="0.24113">
        <ele>37</ele>
        <time>2019-05-06T10:00:04Z</time>
      </trkpt>
      <trkpt lat="47.24755" lon="0.24251">
        <ele>41</ele>
        <time>2019-05-06T10:00:28Z</time>
      </trkpt>
      <trkpt lat="47.24845" lon="0.24513">
        <ele>35</ele>
        <time>2019-05-06T10:01:22Z</time>
      </trkpt>
      <trkpt lat="47.24903" lon="0.24648">
        <ele>35</ele>
        <time>2019-05-06T10:02:10Z</time>
      </trkpt>
      <trkpt lat="47.25137" lon="0.25054">
        <ele>39</ele>
        <time>2019-05-06T10:03:46Z</time>
      </trkpt>
      <trkpt lat="47.25171" lon="0.25129">
        <ele>39</ele>
        <time>2019-05-06T10:04:04Z</time>
      </trkpt>
      <trkpt lat="47.2524" lon="0.25241">
        <ele>40</ele>
        <time>2019-05-06T10:04:28Z</time>
      </trkpt>
      <trkpt lat="47.25394" lon="0.25541">
        <ele>37</ele>
        <time>2019-05-06T10:05:28Z</time>
      </trkpt>
      <trkpt lat="47.25472" lon="0.25735">
        <ele>38</ele>
        <time>2019-05-06T10:06:04Z</time>
      </trkpt>
      <trkpt lat="47.25548" lon="0.25955">
        <ele>40</ele>
        <time>2019-05-06T10:06:46Z</time>
      </trkpt>
      <trkpt lat="47.25628" lon="0.26251">
        <ele>40</ele>
        <time>2019-05-06T10:07:34Z</time>
      </trkpt>
      <trkpt lat="47.25667" lon="0.26434">
        <ele>37</ele>
        <time>2019-05-06T10:08:10Z</time>
      </trkpt>
      <trkpt lat="47.25788" lon="0.26664">
        <ele>40</ele>
        <time>2019-05-06T10:09:10Z</time>
      </trkpt>
      <trkpt lat="47.25927" lon="0.27086">
        <ele>37</ele>
        <time>2019-05-06T10:10:34Z</time>
      </trkpt>
      <trkpt lat="47.25961" lon="0.27266">
        <ele>35</ele>
        <time>2019-05-06T10:11:04Z</time>
      </trkpt>
      <trkpt lat="47.25983" lon="0.27498">
        <ele>38</ele>
        <time>2019-05-06T10:11:58Z</time>
      </trkpt>
      <trkpt lat="47.26028" lon="0.27802">
        <ele>38</ele>
        <time>2019-05-06T10:12:57Z</time>
      </trkpt>
      <trkpt lat="47.26033" lon="0.28021">
        <ele>37</ele>
        <time>2019-05-06T10:13:39Z</time>
      </trkpt>
      <trkpt lat="47.26027" lon="0.28223">
        <ele>38</ele>
        <time>2019-05-06T10:14:15Z</time>
      </trkpt>
      <trkpt lat="47.26062" lon="0.2846">
        <ele>40</ele>
        <time>2019-05-06T10:14:57Z</time>
      </trkpt>
      <trkpt lat="47.26126" lon="0.28795">
        <ele>37</ele>
        <time>2019-05-06T10:16:03Z</time>
      </trkpt>
      <trkpt lat="47.26127" lon="0.28777">
        <ele>37</ele>
        <time>2019-05-06T10:16:21Z</time>
      </trkpt>
      <trkpt lat="47.26183" lon="0.28744">
        <ele>37</ele>
        <time>2019-05-06T10:16:50Z</time>
      </trkpt>
      <trkpt lat="47.26176" lon="0.28756">
        <ele>37</ele>
        <time>2019-05-06T10:17:03Z</time>
      </trkpt>
      <trkpt lat="47.26183" lon="0.28753">
        <ele>37</ele>
        <time>2019-05-06T10:17:15Z</time>
      </trkpt>
      <trkpt lat="47.26186" lon="0.28737">
        <ele>37</ele>
        <time>2019-05-06T10:17:33Z</time>
      </trkpt>
      <trkpt lat="47.26213" lon="0.28781">
        <ele>37</ele>
        <time>2019-05-06T10:18:08Z</time>
      </trkpt>
      <trkpt lat="47.2622" lon="0.28779">
        <ele>37</ele>
        <time>2019-05-06T10:18:09Z</time>
      </trkpt>
      <trkpt lat="47.26189" lon="0.28749">
        <ele>37</ele>
        <time>2019-05-06T10:18:44Z</time>
      </trkpt>
      <trkpt lat="47.26128" lon="0.28771">
        <ele>37</ele>
        <time>2019-05-06T10:19:28Z</time>
      </trkpt>
      <trkpt lat="47.26139" lon="0.2885">
        <ele>36</ele>
        <time>2019-05-06T10:19:54Z</time>
      </trkpt>
      <trkpt lat="47.26198" lon="0.29099">
        <ele>37</ele>
        <time>2019-05-06T10:20:54Z</time>
      </trkpt>
      <trkpt lat="47.26253" lon="0.29277">
        <ele>35</ele>
        <time>2019-05-06T10:21:30Z</time>
      </trkpt>
      <trkpt lat="47.26311" lon="0.29508">
        <ele>35</ele>
        <time>2019-05-06T10:22:12Z</time>
      </trkpt>
      <trkpt lat="47.26316" lon="0.2955">
        <ele>34</ele>
        <time>2019-05-06T10:22:18Z</time>
      </trkpt>
      <trkpt lat="47.26314" lon="0.29664">
        <ele>34</ele>
        <time>2019-05-06T10:22:36Z</time>
      </trkpt>
      <trkpt lat="47.26323" lon="0.29733">
        <ele>34</ele>
        <time>2019-05-06T10:22:48Z</time>
      </trkpt>
      <trkpt lat="47.26339" lon="0.29786">
        <ele>34</ele>
        <time>2019-05-06T10:23:00Z</time>
      </trkpt>
      <trkpt lat="47.26398" lon="0.29919">
        <ele>35</ele>
        <time>2019-05-06T10:23:30Z</time>
      </trkpt>
      <trkpt lat="47.26415" lon="0.30134">
        <ele>34</ele>
        <time>2019-05-06T10:24:06Z</time>
      </trkpt>
      <trkpt lat="47.26435" lon="0.3023">
        <ele>34</ele>
        <time>2019-05-06T10:24:24Z</time>
      </trkpt>
      <trkpt lat="47.26465" lon="0.30327">
        <ele>34</ele>
        <time>2019-05-06T10:24:42Z</time>
      </trkpt>
      <trkpt lat="47.26536" lon="0.30465">
        <ele>34</ele>
        <time>2019-05-06T10:25:12Z</time>
      </trkpt>
      <trkpt lat="47.26596" lon="0.30664">
        <ele>36</ele>
        <time>2019-05-06T10:25:48Z</time>
      </trkpt>
      <trkpt lat="47.26635" lon="0.30761">
        <ele>35</ele>
        <time>2019-05-06T10:26:06Z</time>
      </trkpt>
      <trkpt lat="47.26732" lon="0.30931">
        <ele>37</ele>
        <time>2019-05-06T10:26:42Z</time>
      </trkpt>
      <trkpt lat="47.26773" lon="0.3098">
        <ele>37</ele>
        <time>2019-05-06T10:26:54Z</time>
      </trkpt>
      <trkpt lat="47.26816" lon="0.31067">
        <ele>37</ele>
        <time>2019-05-06T10:27:12Z</time>
      </trkpt>
      <trkpt lat="47.26843" lon="0.31131">
        <ele>37</ele>
        <time>2019-05-06T10:27:24Z</time>
      </trkpt>
      <trkpt lat="47.26875" lon="0.31244">
        <ele>36</ele>
        <time>2019-05-06T10:27:42Z</time>
      </trkpt>
      <trkpt lat="47.26915" lon="0.31342">
        <ele>36</ele>
        <time>2019-05-06T10:28:00Z</time>
      </trkpt>
      <trkpt lat="47.26957" lon="0.31405">
        <ele>36</ele>
        <time>2019-05-06T10:28:12Z</time>
      </trkpt>
      <trkpt lat="47.27016" lon="0.31535">
        <ele>37</ele>
        <time>2019-05-06T10:28:36Z</time>
      </trkpt>
      <trkpt lat="47.27076" lon="0.31616">
        <ele>37</ele>
        <time>2019-05-06T10:28:54Z</time>
      </trkpt>
      <trkpt lat="47.27147" lon="0.31674">
        <ele>40</ele>
        <time>2019-05-06T10:29:12Z</time>
      </trkpt>
      <trkpt lat="47.27233" lon="0.31818">
        <ele>38</ele>
        <time>2019-05-06T10:29:42Z</time>
      </trkpt>
      <trkpt lat="47.27305" lon="0.3203">
        <ele>36</ele>
        <time>2019-05-06T10:30:18Z</time>
      </trkpt>
      <trkpt lat="47.27325" lon="0.32052">
        <ele>37</ele>
        <time>2019-05-06T10:30:24Z</time>
      </trkpt>
      <trkpt lat="47.27429" lon="0.32091">
        <ele>40</ele>
        <time>2019-05-06T10:30:48Z</time>
      </trkpt>
      <trkpt lat="47.27472" lon="0.32123">
        <ele>39</ele>
        <time>2019-05-06T10:31:00Z</time>
      </trkpt>
      <trkpt lat="47.27538" lon="0.32189">
        <ele>38</ele>
        <time>2019-05-06T10:31:18Z</time>
      </trkpt>
      <trkpt lat="47.27642" lon="0.32316">
        <ele>35</ele>
        <time>2019-05-06T10:31:48Z</time>
      </trkpt>
      <trkpt lat="47.2772" lon="0.32432">
        <ele>36</ele>
        <time>2019-05-06T10:32:12Z</time>
      </trkpt>
      <trkpt lat="47.27741" lon="0.32455">
        <ele>36</ele>
        <time>2019-05-06T10:32:18Z</time>
      </trkpt>
      <trkpt lat="47.27813" lon="0.32492">
        <ele>35</ele>
        <time>2019-05-06T10:32:36Z</time>
      </trkpt>
      <trkpt lat="47.27875" lon="0.32566">
        <ele>34</ele>
        <time>2019-05-06T10:32:54Z</time>
      </trkpt>
      <trkpt lat="47.27947" lon="0.32682">
        <ele>34</ele>
        <time>2019-05-06T10:33:18Z</time>
      </trkpt>
      <trkpt lat="47.27976" lon="0.32833">
        <ele>37</ele>
        <time>2019-05-06T10:33:42Z</time>
      </trkpt>
      <trkpt lat="47.28057" lon="0.32982">
        <ele>36</ele>
        <time>2019-05-06T10:34:12Z</time>
      </trkpt>
      <trkpt lat="47.28143" lon="0.33078">
        <ele>37</ele>
        <time>2019-05-06T10:34:36Z</time>
      </trkpt>
      <trkpt lat="47.28191" lon="0.33111">
        <ele>36</ele>
        <time>2019-05-06T10:34:48Z</time>
      </trkpt>
      <trkpt lat="47.28349" lon="0.33331">
        <ele>36</ele>
        <time>2019-05-06T10:35:36Z</time>
      </trkpt>
      <trkpt lat="47.28423" lon="0.33497">
        <ele>36</ele>
        <time>2019-05-06T10:36:06Z</time>
      </trkpt>
      <trkpt lat="47.28466" lon="0.33557">
        <ele>36</ele>
        <time>2019-05-06T10:36:18Z</time>
      </trkpt>
      <trkpt lat="47.28575" lon="0.33679">
        <ele>36</ele>
        <time>2019-05-06T10:36:48Z</time>
      </trkpt>
      <trkpt lat="47.28787" lon="0.34069">
        <ele>38</ele>
        <time>2019-05-06T10:38:00Z</time>
      </trkpt>
      <trkpt lat="47.28953" lon="0.34328">
        <ele>37</ele>
        <time>2019-05-06T10:38:54Z</time>
      </trkpt>
      <trkpt lat="47.29051" lon="0.3445">
        <ele>38</ele>
        <time>2019-05-06T10:39:24Z</time>
      </trkpt>
      <trkpt lat="47.29103" lon="0.34582">
        <ele>38</ele>
        <time>2019-05-06T10:39:48Z</time>
      </trkpt>
      <trkpt lat="47.29156" lon="0.3468">
        <ele>38</ele>
        <time>2019-05-06T10:40:06Z</time>
      </trkpt>
      <trkpt lat="47.29192" lon="0.34741">
        <ele>39</ele>
        <time>2019-05-06T10:40:18Z</time>
      </trkpt>
      <trkpt lat="47.29275" lon="0.34845">
        <ele>38</ele>
        <time>2019-05-06T10:40:42Z</time>
      </trkpt>
      <trkpt lat="47.29376" lon="0.34991">
        <ele>38</ele>
        <time>2019-05-06T10:41:12Z</time>
      </trkpt>
      <trkpt lat="47.295" lon="0.35226">
        <ele>38</ele>
        <time>2019-05-06T10:42:00Z</time>
      </trkpt>
      <trkpt lat="47.29549" lon="0.35401">
        <ele>38</ele>
        <time>2019-05-06T10:42:36Z</time>
      </trkpt>
      <trkpt lat="47.29586" lon="0.35499">
        <ele>39</ele>
        <time>2019-05-06T10:43:12Z</time>
      </trkpt>
      <trkpt lat="47.2963" lon="0.35725">
        <ele>39</ele>
        <time>2019-05-06T10:44:00Z</time>
      </trkpt>
      <trkpt lat="47.29698" lon="0.35943">
        <ele>37</ele>
        <time>2019-05-06T10:44:42Z</time>
      </trkpt>
      <trkpt lat="47.29745" lon="0.36128">
        <ele>37</ele>
        <time>2019-05-06T10:45:18Z</time>
      </trkpt>
      <trkpt lat="47.29801" lon="0.36295">
        <ele>38</ele>
        <time>2019-05-06T10:45:48Z</time>
      </trkpt>
      <trkpt lat="47.29829" lon="0.36437">
        <ele>38</ele>
        <time>2019-05-06T10:46:12Z</time>
      </trkpt>
      <trkpt lat="47.29848" lon="0.36634">
        <ele>37</ele>
        <time>2019-05-06T10:46:42Z</time>
      </trkpt>
      <trkpt lat="47.29868" lon="0.36708">
        <ele>38</ele>
        <time>2019-05-06T10:46:54Z</time>
      </trkpt>
      <trkpt lat="47.299" lon="0.36762">
        <ele>39</ele>
        <time>2019-05-06T10:47:06Z</time>
      </trkpt>
      <trkpt lat="47.30008" lon="0.36881">
        <ele>39</ele>
        <time>2019-05-06T10:47:36Z</time>
      </trkpt>
      <trkpt lat="47.30098" lon="0.37063">
        <ele>38</ele>
        <time>2019-05-06T10:48:12Z</time>
      </trkpt>
      <trkpt lat="47.30232" lon="0.37256">
        <ele>39</ele>
        <time>2019-05-06T10:48:54Z</time>
      </trkpt>
      <trkpt lat="47.30261" lon="0.37313">
        <ele>38</ele>
        <time>2019-05-06T10:49:06Z</time>
      </trkpt>
      <trkpt lat="47.30322" lon="0.37577">
        <ele>39</ele>
        <time>2019-05-06T10:49:48Z</time>
      </trkpt>
      <trkpt lat="47.30413" lon="0.37914">
        <ele>39</ele>
        <time>2019-05-06T10:50:42Z</time>
      </trkpt>
      <trkpt lat="47.30486" lon="0.38026">
        <ele>39</ele>
        <time>2019-05-06T10:51:06Z</time>
      </trkpt>
      <trkpt lat="47.30509" lon="0.38097">
        <ele>39</ele>
        <time>2019-05-06T10:51:18Z</time>
      </trkpt>
      <trkpt lat="47.30644" lon="0.38389">
        <ele>40</ele>
        <time>2019-05-06T10:52:12Z</time>
      </trkpt>
      <trkpt lat="47.30698" lon="0.38486">
        <ele>40</ele>
        <time>2019-05-06T10:52:30Z</time>
      </trkpt>
      <trkpt lat="47.30777" lon="0.38807">
        <ele>40</ele>
        <time>2019-05-06T10:53:18Z</time>
      </trkpt>
      <trkpt lat="47.30918" lon="0.39086">
        <ele>39</ele>
        <time>2019-05-06T10:54:06Z</time>
      </trkpt>
      <trkpt lat="47.30981" lon="0.39273">
        <ele>41</ele>
        <time>2019-05-06T10:54:36Z</time>
      </trkpt>
      <trkpt lat="47.31002" lon="0.39397">
        <ele>43</ele>
        <time>2019-05-06T10:54:54Z</time>
      </trkpt>
      <trkpt lat="47.31037" lon="0.39508">
        <ele>40</ele>
        <time>2019-05-06T10:55:12Z</time>
      </trkpt>
      <trkpt lat="47.31075" lon="0.39616">
        <ele>41</ele>
        <time>2019-05-06T10:55:30Z</time>
      </trkpt>
      <trkpt lat="47.31158" lon="0.39786">
        <ele>40</ele>
        <time>2019-05-06T10:56:00Z</time>
      </trkpt>
      <trkpt lat="47.31217" lon="0.3994">
        <ele>40</ele>
        <time>2019-05-06T10:56:24Z</time>
      </trkpt>
      <trkpt lat="47.31252" lon="0.40105">
        <ele>41</ele>
        <time>2019-05-06T10:56:48Z</time>
      </trkpt>
      <trkpt lat="47.31307" lon="0.40294">
        <ele>42</ele>
        <time>2019-05-06T10:57:18Z</time>
      </trkpt>
      <trkpt lat="47.31471" lon="0.40744">
        <ele>38</ele>
        <time>2019-05-06T10:58:36Z</time>
      </trkpt>
      <trkpt lat="47.31493" lon="0.40842">
        <ele>39</ele>
        <time>2019-05-06T10:59:00Z</time>
      </trkpt>
      <trkpt lat="47.31532" lon="0.40973">
        <ele>39</ele>
        <time>2019-05-06T10:59:30Z</time>
      </trkpt>
      <trkpt lat="47.31539" lon="0.4107">
        <ele>40</ele>
        <time>2019-05-06T10:59:48Z</time>
      </trkpt>
      <trkpt lat="47.31575" lon="0.41211">
        <ele>41</ele>
        <time>2019-05-06T11:00:12Z</time>
      </trkpt>
      <trkpt lat="47.31759" lon="0.4171">
        <ele>41</ele>
        <time>2019-05-06T11:01:36Z</time>
      </trkpt>
      <trkpt lat="47.31782" lon="0.41786">
        <ele>44</ele>
        <time>2019-05-06T11:01:48Z</time>
      </trkpt>
      <trkpt lat="47.31817" lon="0.4194">
        <ele>42</ele>
        <time>2019-05-06T11:02:12Z</time>
      </trkpt>
      <trkpt lat="47.31825" lon="0.42021">
        <ele>42</ele>
        <time>2019-05-06T11:02:24Z</time>
      </trkpt>
      <trkpt lat="47.31808" lon="0.42371">
        <ele>41</ele>
        <time>2019-05-06T11:03:18Z</time>
      </trkpt>
      <trkpt lat="47.31861" lon="0.42544">
        <ele>39</ele>
        <time>2019-05-06T11:03:54Z</time>
      </trkpt>
      <trkpt lat="47.3187" lon="0.42648">
        <ele>40</ele>
        <time>2019-05-06T11:04:12Z</time>
      </trkpt>
      <trkpt lat="47.31889" lon="0.42715">
        <ele>39</ele>
        <time>2019-05-06T11:04:24Z</time>
      </trkpt>
      <trkpt lat="47.31887" lon="0.42819">
        <ele>40</ele>
        <time>2019-05-06T11:04:42Z</time>
      </trkpt>
      <trkpt lat="47.31893" lon="0.42886">
        <ele>40</ele>
        <time>2019-05-06T11:04:54Z</time>
      </trkpt>
      <trkpt lat="47.31917" lon="0.43025">
        <ele>42</ele>
        <time>2019-05-06T11:05:18Z</time>
      </trkpt>
      <trkpt lat="47.31969" lon="0.43192">
        <ele>40</ele>
        <time>2019-05-06T11:05:48Z</time>
      </trkpt>
      <trkpt lat="47.31997" lon="0.43256">
        <ele>39</ele>
        <time>2019-05-06T11:06:00Z</time>
      </trkpt>
      <trkpt lat="47.3205" lon="0.43454">
        <ele>39</ele>
        <time>2019-05-06T11:06:36Z</time>
      </trkpt>
      <trkpt lat="47.3205" lon="0.43566">
        <ele>40</ele>
        <time>2019-05-06T11:06:54Z</time>
      </trkpt>
      <trkpt lat="47.32039" lon="0.43674">
        <ele>40</ele>
        <time>2019-05-06T11:07:12Z</time>
      </trkpt>
      <trkpt lat="47.32073" lon="0.43816">
        <ele>39</ele>
        <time>2019-05-06T11:07:36Z</time>
      </trkpt>
      <trkpt lat="47.32085" lon="0.4396">
        <ele>40</ele>
        <time>2019-05-06T11:08:00Z</time>
      </trkpt>
      <trkpt lat="47.321" lon="0.44027">
        <ele>40</ele>
        <time>2019-05-06T11:08:12Z</time>
      </trkpt>
      <trkpt lat="47.32181" lon="0.44289">
        <ele>40</ele>
        <time>2019-05-06T11:09:00Z</time>
      </trkpt>
      <trkpt lat="47.32212" lon="0.44469">
        <ele>40</ele>
        <time>2019-05-06T11:09:30Z</time>
      </trkpt>
      <trkpt lat="47.32214" lon="0.44547">
        <ele>40</ele>
        <time>2019-05-06T11:09:42Z</time>
      </trkpt>
      <trkpt lat="47.32225" lon="0.44624">
        <ele>40</ele>
        <time>2019-05-06T11:09:54Z</time>
      </trkpt>
      <trkpt lat="47.32499" lon="0.45668">
        <ele>42</ele>
        <time>2019-05-06T11:13:00Z</time>
      </trkpt>
      <trkpt lat="47.32525" lon="0.45734">
        <ele>41</ele>
        <time>2019-05-06T11:13:12Z</time>
      </trkpt>
      <trkpt lat="47.32678" lon="0.4599">
        <ele>41</ele>
        <time>2019-05-06T11:14:06Z</time>
      </trkpt>
      <trkpt lat="47.32698" lon="0.46013">
        <ele>39</ele>
        <time>2019-05-06T11:14:12Z</time>
      </trkpt>
      <trkpt lat="47.32768" lon="0.46038">
        <ele>40</ele>
        <time>2019-05-06T11:14:30Z</time>
      </trkpt>
      <trkpt lat="47.32809" lon="0.46085">
        <ele>40</ele>
        <time>2019-05-06T11:14:42Z</time>
      </trkpt>
      <trkpt lat="47.32917" lon="0.46238">
        <ele>41</ele>
        <time>2019-05-06T11:15:18Z</time>
      </trkpt>
      <trkpt lat="47.32989" lon="0.46395">
        <ele>41</ele>
        <time>2019-05-06T11:15:48Z</time>
      </trkpt>
      <trkpt lat="47.33036" lon="0.46459">
        <ele>42</ele>
        <time>2019-05-06T11:16:00Z</time>
      </trkpt>
      <trkpt lat="47.33128" lon="0.46552">
        <ele>41</ele>
        <time>2019-05-06T11:16:30Z</time>
      </trkpt>
      <trkpt lat="47.33144" lon="0.46577">
        <ele>41</ele>
        <time>2019-05-06T11:16:36Z</time>
      </trkpt>
      <trkpt lat="47.33169" lon="0.46654">
        <ele>41</ele>
        <time>2019-05-06T11:16:48Z</time>
      </trkpt>
      <trkpt lat="47.3322" lon="0.4674">
        <ele>42</ele>
        <time>2019-05-06T11:17:06Z</time>
      </trkpt>
      <trkpt lat="47.33314" lon="0.46868">
        <ele>41</ele>
        <time>2019-05-06T11:17:36Z</time>
      </trkpt>
      <trkpt lat="47.33399" lon="0.46963">
        <ele>40</ele>
        <time>2019-05-06T11:18:00Z</time>
      </trkpt>
      <trkpt lat="47.33533" lon="0.47133">
        <ele>40</ele>
        <time>2019-05-06T11:18:42Z</time>
      </trkpt>
      <trkpt lat="47.33624" lon="0.47268">
        <ele>46</ele>
        <time>2019-05-06T11:19:12Z</time>
      </trkpt>
      <trkpt lat="47.33727" lon="0.47377">
        <ele>43</ele>
        <time>2019-05-06T11:19:42Z</time>
      </trkpt>
      <trkpt lat="47.33807" lon="0.47477">
        <ele>43</ele>
        <time>2019-05-06T11:20:06Z</time>
      </trkpt>
      <trkpt lat="47.33834" lon="0.47544">
        <ele>42</ele>
        <time>2019-05-06T11:20:18Z</time>
      </trkpt>
      <trkpt lat="47.33903" lon="0.47603">
        <ele>41</ele>
        <time>2019-05-06T11:20:36Z</time>
      </trkpt>
      <trkpt lat="47.33956" lon="0.47606">
        <ele>41</ele>
        <time>2019-05-06T11:20:48Z</time>
      </trkpt>
      <trkpt lat="47.34006" lon="0.47622">
        <ele>40</ele>
        <time>2019-05-06T11:21:00Z</time>
      </trkpt>
      <trkpt lat="47.34181" lon="0.47868">
        <ele>39</ele>
        <time>2019-05-06T11:21:54Z</time>
      </trkpt>
      <trkpt lat="47.34188" lon="0.47947">
        <ele>40</ele>
        <time>2019-05-06T11:22:06Z</time>
      </trkpt>
      <trkpt lat="47.34166" lon="0.48052">
        <ele>41</ele>
        <time>2019-05-06T11:22:24Z</time>
      </trkpt>
      <trkpt lat="47.34114" lon="0.48121">
        <ele>41</ele>
        <time>2019-05-06T11:22:42Z</time>
      </trkpt>
      <trkpt lat="47.34116" lon="0.48128">
        <ele>41</ele>
        <time>2019-05-06T11:22:50Z</time>
      </trkpt>
      <trkpt lat="47.34107" lon="0.4815">
        <ele>39</ele>
        <time>2019-05-06T11:23:10Z</time>
      </trkpt>
      <trkpt lat="47.34067" lon="0.48211">
        <ele>38</ele>
        <time>2019-05-06T11:23:28Z</time>
      </trkpt>
      <trkpt lat="47.33828" lon="0.48512">
        <ele>40</ele>
        <time>2019-05-06T11:24:46Z</time>
      </trkpt>
      <trkpt lat="47.33806" lon="0.48618">
        <ele>38</ele>
        <time>2019-05-06T11:25:04Z</time>
      </trkpt>
      <trkpt lat="47.33751" lon="0.48784">
        <ele>40</ele>
        <time>2019-05-06T11:25:40Z</time>
      </trkpt>
      <trkpt lat="47.33755" lon="0.48805">
        <ele>40</ele>
        <time>2019-05-06T11:25:46Z</time>
      </trkpt>
      <trkpt lat="47.33775" lon="0.48825">
        <ele>42</ele>
        <time>2019-05-06T11:25:52Z</time>
      </trkpt>
      <trkpt lat="47.3381" lon="0.48887">
        <ele>41</ele>
        <time>2019-05-06T11:26:04Z</time>
      </trkpt>
      <trkpt lat="47.33823" lon="0.49012">
        <ele>42</ele>
        <time>2019-05-06T11:26:34Z</time>
      </trkpt>
      <trkpt lat="47.33848" lon="0.49035">
        <ele>41</ele>
        <time>2019-05-06T11:26:46Z</time>
      </trkpt>
      <trkpt lat="47.33975" lon="0.4923">
        <ele>40</ele>
        <time>2019-05-06T11:27:34Z</time>
      </trkpt>
      <trkpt lat="47.34084" lon="0.49496">
        <ele>40</ele>
        <time>2019-05-06T11:28:28Z</time>
      </trkpt>
      <trkpt lat="47.34137" lon="0.49661">
        <ele>42</ele>
        <time>2019-05-06T11:28:58Z</time>
      </trkpt>
      <trkpt lat="47.34227" lon="0.4982">
        <ele>42</ele>
        <time>2019-05-06T11:29:34Z</time>
      </trkpt>
      <trkpt lat="47.34294" lon="0.49958">
        <ele>43</ele>
        <time>2019-05-06T11:30:04Z</time>
      </trkpt>
      <trkpt lat="47.34329" lon="0.50096">
        <ele>43</ele>
        <time>2019-05-06T11:30:28Z</time>
      </trkpt>
      <trkpt lat="47.34405" lon="0.50343">
        <ele>41</ele>
        <time>2019-05-06T11:31:16Z</time>
      </trkpt>
      <trkpt lat="47.34445" lon="0.50516">
        <ele>43</ele>
        <time>2019-05-06T11:32:00Z</time>
      </trkpt>
      <trkpt lat="47.34441" lon="0.50748">
        <ele>42</ele>
        <time>2019-05-06T11:32:42Z</time>
      </trkpt>
      <trkpt lat="47.34404" lon="0.51033">
        <ele>45</ele>
        <time>2019-05-06T11:33:42Z</time>
      </trkpt>
      <trkpt lat="47.34361" lon="0.51065">
        <ele>44</ele>
        <time>2019-05-06T11:33:54Z</time>
      </trkpt>
      <trkpt lat="47.34175" lon="0.51121">
        <ele>41</ele>
        <time>2019-05-06T11:34:36Z</time>
      </trkpt>
      <trkpt lat="47.34096" lon="0.51139">
        <ele>44</ele>
        <time>2019-05-06T11:35:28Z</time>
      </trkpt>
      <trkpt lat="47.34068" lon="0.51128">
        <ele>46</ele>
        <time>2019-05-06T11:35:51Z</time>
      </trkpt>
      <trkpt lat="47.34082" lon="0.51139">
        <ele>44</ele>
        <time>2019-05-06T11:35:56Z</time>
      </trkpt>
      <trkpt lat="47.34107" lon="0.51135">
        <ele>44</ele>
        <time>2019-05-06T11:36:07Z</time>
      </trkpt>
      <trkpt lat="47.34171" lon="0.51108">
        <ele>41</ele>
        <time>2019-05-06T11:36:37Z</time>
      </trkpt>
      <trkpt lat="47.34345" lon="0.51058">
        <ele>43</ele>
        <time>2019-05-06T11:37:37Z</time>
      </trkpt>
      <trkpt lat="47.34387" lon="0.51034">
        <ele>44</ele>
        <time>2019-05-06T11:37:55Z</time>
      </trkpt>
      <trkpt lat="47.34406" lon="0.51055">
        <ele>45</ele>
        <time>2019-05-06T11:38:07Z</time>
      </trkpt>
      <trkpt lat="47.34413" lon="0.5113">
        <ele>42</ele>
        <time>2019-05-06T11:38:25Z</time>
      </trkpt>
      <trkpt lat="47.34407" lon="0.51258">
        <ele>40</ele>
        <time>2019-05-06T11:38:55Z</time>
      </trkpt>
      <trkpt lat="47.34382" lon="0.51461">
        <ele>41</ele>
        <time>2019-05-06T11:39:53Z</time>
      </trkpt>
      <trkpt lat="47.34351" lon="0.51638">
        <ele>42</ele>
        <time>2019-05-06T11:40:29Z</time>
      </trkpt>
      <trkpt lat="47.34343" lon="0.51745">
        <ele>43</ele>
        <time>2019-05-06T11:40:47Z</time>
      </trkpt>
      <trkpt lat="47.34357" lon="0.5196">
        <ele>45</ele>
        <time>2019-05-06T11:41:23Z</time>
      </trkpt>
      <trkpt lat="47.3437" lon="0.52035">
        <ele>48</ele>
        <time>2019-05-06T11:41:41Z</time>
      </trkpt>
      <trkpt lat="47.34397" lon="0.5213">
        <ele>47</ele>
        <time>2019-05-06T11:41:53Z</time>
      </trkpt>
      <trkpt lat="47.34464" lon="0.52289">
        <ele>50</ele>
        <time>2019-05-06T11:42:17Z</time>
      </trkpt>
      <trkpt lat="47.34563" lon="0.52425">
        <ele>49</ele>
        <time>2019-05-06T11:42:41Z</time>
      </trkpt>
      <trkpt lat="47.34639" lon="0.5262">
        <ele>45</ele>
        <time>2019-05-06T11:43:11Z</time>
      </trkpt>
      <trkpt lat="47.34701" lon="0.52833">
        <ele>42</ele>
        <time>2019-05-06T11:43:47Z</time>
      </trkpt>
      <trkpt lat="47.34703" lon="0.52896">
        <ele>43</ele>
        <time>2019-05-06T11:43:59Z</time>
      </trkpt>
      <trkpt lat="47.34682" lon="0.52962">
        <ele>42</ele>
        <time>2019-05-06T11:44:11Z</time>
      </trkpt>
      <trkpt lat="47.34683" lon="0.53016">
        <ele>42</ele>
        <time>2019-05-06T11:44:23Z</time>
      </trkpt>
      <trkpt lat="47.34714" lon="0.5324">
        <ele>42</ele>
        <time>2019-05-06T11:45:11Z</time>
      </trkpt>
      <trkpt lat="47.34692" lon="0.53367">
        <ele>43</ele>
        <time>2019-05-06T11:45:35Z</time>
      </trkpt>
      <trkpt lat="47.34686" lon="0.53516">
        <ele>45</ele>
        <time>2019-05-06T11:46:05Z</time>
      </trkpt>
      <trkpt lat="47.34693" lon="0.53627">
        <ele>44</ele>
        <time>2019-05-06T11:46:29Z</time>
      </trkpt>
      <trkpt lat="47.34715" lon="0.53774">
        <ele>50</ele>
        <time>2019-05-06T11:46:53Z</time>
      </trkpt>
      <trkpt lat="47.34753" lon="0.54139">
        <ele>46</ele>
        <time>2019-05-06T11:47:53Z</time>
      </trkpt>
      <trkpt lat="47.34788" lon="0.54311">
        <ele>46</ele>
        <time>2019-05-06T11:48:29Z</time>
      </trkpt>
      <trkpt lat="47.34798" lon="0.54505">
        <ele>52</ele>
        <time>2019-05-06T11:49:21Z</time>
      </trkpt>
      <trkpt lat="47.34804" lon="0.54512">
        <ele>52</ele>
        <time>2019-05-06T11:49:33Z</time>
      </trkpt>
      <trkpt lat="47.34802" lon="0.5453">
        <ele>52</ele>
        <time>2019-05-06T11:49:51Z</time>
      </trkpt>
      <trkpt lat="47.34816" lon="0.54548">
        <ele>42</ele>
        <time>2019-05-06T11:49:57Z</time>
      </trkpt>
      <trkpt lat="47.3484" lon="0.54622">
        <ele>40</ele>
        <time>2019-05-06T11:50:09Z</time>
      </trkpt>
      <trkpt lat="47.34862" lon="0.54754">
        <ele>42</ele>
        <time>2019-05-06T11:50:39Z</time>
      </trkpt>
      <trkpt lat="47.34916" lon="0.54863">
        <ele>43</ele>
        <time>2019-05-06T11:51:03Z</time>
      </trkpt>
      <trkpt lat="47.35059" lon="0.54948">
        <ele>44</ele>
        <time>2019-05-06T11:52:05Z</time>
      </trkpt>
      <trkpt lat="47.35005" lon="0.54925">
        <ele>41</ele>
        <time>2019-05-06T11:52:56Z</time>
      </trkpt>
      <trkpt lat="47.35021" lon="0.54922">
        <ele>41</ele>
        <time>2019-05-06T11:53:07Z</time>
      </trkpt>
      <trkpt lat="47.35101" lon="0.54969">
        <ele>41</ele>
        <time>2019-05-06T11:53:47Z</time>
      </trkpt>
      <trkpt lat="47.35143" lon="0.54974">
        <ele>40</ele>
        <time>2019-05-06T11:53:59Z</time>
      </trkpt>
      <trkpt lat="47.35233" lon="0.54961">
        <ele>41</ele>
        <time>2019-05-06T11:54:29Z</time>
      </trkpt>
      <trkpt lat="47.35334" lon="0.54926">
        <ele>41</ele>
        <time>2019-05-06T11:55:05Z</time>
      </trkpt>
      <trkpt lat="47.35373" lon="0.54899">
        <ele>41</ele>
        <time>2019-05-06T11:55:17Z</time>
      </trkpt>
      <trkpt lat="47.35557" lon="0.5472">
        <ele>40</ele>
        <time>2019-05-06T11:56:23Z</time>
      </trkpt>
      <trkpt lat="47.35597" lon="0.54671">
        <ele>41</ele>
        <time>2019-05-06T11:56:35Z</time>
      </trkpt>
      <trkpt lat="47.35647" lon="0.54639">
        <ele>40</ele>
        <time>2019-05-06T11:56:47Z</time>
      </trkpt>
      <trkpt lat="47.35737" lon="0.54638">
        <ele>43</ele>
        <time>2019-05-06T11:57:11Z</time>
      </trkpt>
      <trkpt lat="47.35798" lon="0.54662">
        <ele>43</ele>
        <time>2019-05-06T11:57:29Z</time>
      </trkpt>
      <trkpt lat="47.35841" lon="0.54696">
        <ele>44</ele>
        <time>2019-05-06T11:57:41Z</time>
      </trkpt>
      <trkpt lat="47.35921" lon="0.54804">
        <ele>43</ele>
        <time>2019-05-06T11:58:11Z</time>
      </trkpt>
      <trkpt lat="47.35948" lon="0.54868">
        <ele>43</ele>
        <time>2019-05-06T11:58:23Z</time>
      </trkpt>
      <trkpt lat="47.35975" lon="0.5496">
        <ele>42</ele>
        <time>2019-05-06T11:58:41Z</time>
      </trkpt>
      <trkpt lat="47.36003" lon="0.55116">
        <ele>41</ele>
        <time>2019-05-06T11:59:05Z</time>
      </trkpt>
      <trkpt lat="47.36003" lon="0.55212">
        <ele>43</ele>
        <time>2019-05-06T11:59:23Z</time>
      </trkpt>
      <trkpt lat="47.35985" lon="0.55236">
        <ele>43</ele>
        <time>2019-05-06T11:59:29Z</time>
      </trkpt>
      <trkpt lat="47.3595" lon="0.55262">
        <ele>44</ele>
        <time>2019-05-06T11:59:41Z</time>
      </trkpt>
      <trkpt lat="47.35966" lon="0.55319">
        <ele>44</ele>
        <time>2019-05-06T11:59:53Z</time>
      </trkpt>
      <trkpt lat="47.3597" lon="0.55416">
        <ele>43</ele>
        <time>2019-05-06T12:00:11Z</time>
      </trkpt>
      <trkpt lat="47.36013" lon="0.5551">
        <ele>43</ele>
        <time>2019-05-06T12:00:29Z</time>
      </trkpt>
      <trkpt lat="47.36063" lon="0.55728">
        <ele>43</ele>
        <time>2019-05-06T12:01:05Z</time>
      </trkpt>
      <trkpt lat="47.36076" lon="0.55761">
        <ele>43</ele>
        <time>2019-05-06T12:01:11Z</time>
      </trkpt>
      <trkpt lat="47.36123" lon="0.55831">
        <ele>41</ele>
        <time>2019-05-06T12:01:29Z</time>
      </trkpt>
      <trkpt lat="47.36213" lon="0.56045">
        <ele>45</ele>
        <time>2019-05-06T12:02:11Z</time>
      </trkpt>
      <trkpt lat="47.36313" lon="0.56223">
        <ele>44</ele>
        <time>2019-05-06T12:02:53Z</time>
      </trkpt>
      <trkpt lat="47.36333" lon="0.56297">
        <ele>45</ele>
        <time>2019-05-06T12:03:05Z</time>
      </trkpt>
      <trkpt lat="47.36349" lon="0.56419">
        <ele>42</ele>
        <time>2019-05-06T12:03:23Z</time>
      </trkpt>
      <trkpt lat="47.36339" lon="0.56494">
        <ele>43</ele>
        <time>2019-05-06T12:03:35Z</time>
      </trkpt>
      <trkpt lat="47.36329" lon="0.56527">
        <ele>42</ele>
        <time>2019-05-06T12:03:41Z</time>
      </trkpt>
      <trkpt lat="47.36202" lon="0.56787">
        <ele>41</ele>
        <time>2019-05-06T12:04:29Z</time>
      </trkpt>
      <trkpt lat="47.3608" lon="0.57018">
        <ele>42</ele>
        <time>2019-05-06T12:05:17Z</time>
      </trkpt>
      <trkpt lat="47.36058" lon="0.57118">
        <ele>44</ele>
        <time>2019-05-06T12:05:35Z</time>
      </trkpt>
      <trkpt lat="47.36046" lon="0.57342">
        <ele>41</ele>
        <time>2019-05-06T12:06:11Z</time>
      </trkpt>
      <trkpt lat="47.36049" lon="0.57442">
        <ele>42</ele>
        <time>2019-05-06T12:06:29Z</time>
      </trkpt>
      <trkpt lat="47.36063" lon="0.57555">
        <ele>44</ele>
        <time>2019-05-06T12:06:47Z</time>
      </trkpt>
      <trkpt lat="47.36116" lon="0.57823">
        <ele>44</ele>
        <time>2019-05-06T12:07:35Z</time>
      </trkpt>
      <trkpt lat="47.36292" lon="0.58292">
        <ele>42</ele>
        <time>2019-05-06T12:09:05Z</time>
      </trkpt>
      <trkpt lat="47.36378" lon="0.58544">
        <ele>44</ele>
        <time>2019-05-06T12:09:53Z</time>
      </trkpt>
      <trkpt lat="47.36409" lon="0.58644">
        <ele>45</ele>
        <time>2019-05-06T12:10:11Z</time>
      </trkpt>
      <trkpt lat="47.36439" lon="0.58816">
        <ele>45</ele>
        <time>2019-05-06T12:10:41Z</time>
      </trkpt>
      <trkpt lat="47.36438" lon="0.58989">
        <ele>47</ele>
        <time>2019-05-06T12:11:11Z</time>
      </trkpt>
      <trkpt lat="47.36409" lon="0.59251">
        <ele>44</ele>
        <time>2019-05-06T12:11:53Z</time>
      </trkpt>
      <trkpt lat="47.36379" lon="0.59401">
        <ele>43</ele>
        <time>2019-05-06T12:12:17Z</time>
      </trkpt>
      <trkpt lat="47.36316" lon="0.59625">
        <ele>46</ele>
        <time>2019-05-06T12:12:59Z</time>
      </trkpt>
      <trkpt lat="47.36285" lon="0.59915">
        <ele>45</ele>
        <time>2019-05-06T12:13:47Z</time>
      </trkpt>
      <trkpt lat="47.36279" lon="0.60205">
        <ele>47</ele>
        <time>2019-05-06T12:14:35Z</time>
      </trkpt>
      <trkpt lat="47.36294" lon="0.60375">
        <ele>46</ele>
        <time>2019-05-06T12:15:05Z</time>
      </trkpt>
      <trkpt lat="47.36281" lon="0.60462">
        <ele>45</ele>
        <time>2019-05-06T12:15:23Z</time>
      </trkpt>
      <trkpt lat="47.36285" lon="0.60478">
        <ele>45</ele>
        <time>2019-05-06T12:15:29Z</time>
      </trkpt>
      <trkpt lat="47.36313" lon="0.60507">
        <ele>44</ele>
        <time>2019-05-06T12:15:41Z</time>
      </trkpt>
      <trkpt lat="47.36387" lon="0.60752">
        <ele>43</ele>
        <time>2019-05-06T12:16:44Z</time>
      </trkpt>
      <trkpt lat="47.36431" lon="0.60868">
        <ele>47</ele>
        <time>2019-05-06T12:17:15Z</time>
      </trkpt>
      <trkpt lat="47.36549" lon="0.61095">
        <ele>47</ele>
        <time>2019-05-06T12:18:03Z</time>
      </trkpt>
      <trkpt lat="47.36598" lon="0.61177">
        <ele>49</ele>
        <time>2019-05-06T12:18:21Z</time>
      </trkpt>
      <trkpt lat="47.36635" lon="0.61225">
        <ele>49</ele>
        <time>2019-05-06T12:18:33Z</time>
      </trkpt>
      <trkpt lat="47.36722" lon="0.61305">
        <ele>45</ele>
        <time>2019-05-06T12:18:57Z</time>
      </trkpt>
      <trkpt lat="47.36759" lon="0.61351">
        <ele>44</ele>
        <time>2019-05-06T12:19:09Z</time>
      </trkpt>
      <trkpt lat="47.36844" lon="0.6149">
        <ele>43</ele>
        <time>2019-05-06T12:19:39Z</time>
      </trkpt>
      <trkpt lat="47.36869" lon="0.61555">
        <ele>43</ele>
        <time>2019-05-06T12:19:51Z</time>
      </trkpt>
      <trkpt lat="47.36919" lon="0.61801">
        <ele>43</ele>
        <time>2019-05-06T12:20:33Z</time>
      </trkpt>
      <trkpt lat="47.37033" lon="0.6249">
        <ele>45</ele>
        <time>2019-05-06T12:22:33Z</time>
      </trkpt>
      <trkpt lat="47.37038" lon="0.62864">
        <ele>45</ele>
        <time>2019-05-06T12:23:39Z</time>
      </trkpt>
      <trkpt lat="47.37091" lon="0.63251">
        <ele>44</ele>
        <time>2019-05-06T12:24:45Z</time>
      </trkpt>
      <trkpt lat="47.37133" lon="0.63725">
        <ele>43</ele>
        <time>2019-05-06T12:25:57Z</time>
      </trkpt>
      <trkpt lat="47.37151" lon="0.63801">
        <ele>44</ele>
        <time>2019-05-06T12:26:09Z</time>
      </trkpt>
      <trkpt lat="47.37202" lon="0.63954">
        <ele>45</ele>
        <time>2019-05-06T12:26:39Z</time>
      </trkpt>
      <trkpt lat="47.37216" lon="0.64112">
        <ele>49</ele>
        <time>2019-05-06T12:27:09Z</time>
      </trkpt>
      <trkpt lat="47.3722" lon="0.64353">
        <ele>44</ele>
        <time>2019-05-06T12:27:51Z</time>
      </trkpt>
      <trkpt lat="47.37236" lon="0.64595">
        <ele>43</ele>
        <time>2019-05-06T12:28:33Z</time>
      </trkpt>
      <trkpt lat="47.37257" lon="0.64661">
        <ele>44</ele>
        <time>2019-05-06T12:28:45Z</time>
      </trkpt>
      <trkpt lat="47.37402" lon="0.64896">
        <ele>43</ele>
        <time>2019-05-06T12:29:39Z</time>
      </trkpt>
      <trkpt lat="47.37416" lon="0.64925">
        <ele>43</ele>
        <time>2019-05-06T12:29:45Z</time>
      </trkpt>
      <trkpt lat="47.37431" lon="0.64986">
        <ele>43</ele>
        <time>2019-05-06T12:29:57Z</time>
      </trkpt>
      <trkpt lat="47.37427" lon="0.65053">
        <ele>42</ele>
        <time>2019-05-06T12:30:09Z</time>
      </trkpt>
      <trkpt lat="47.37385" lon="0.65311">
        <ele>44</ele>
        <time>2019-05-06T12:30:51Z</time>
      </trkpt>
      <trkpt lat="47.37125" lon="0.65438">
        <ele>44</ele>
        <time>2019-05-06T12:32:03Z</time>
      </trkpt>
      <trkpt lat="47.37081" lon="0.65472">
        <ele>45</ele>
        <time>2019-05-06T12:32:15Z</time>
      </trkpt>
      <trkpt lat="47.37061" lon="0.65571">
        <ele>45</ele>
        <time>2019-05-06T12:32:33Z</time>
      </trkpt>
      <trkpt lat="47.37015" lon="0.657">
        <ele>46</ele>
        <time>2019-05-06T12:32:57Z</time>
      </trkpt>
      <trkpt lat="47.36939" lon="0.6578">
        <ele>46</ele>
        <time>2019-05-06T12:33:21Z</time>
      </trkpt>
      <trkpt lat="47.36867" lon="0.65874">
        <ele>45</ele>
        <time>2019-05-06T12:33:45Z</time>
      </trkpt>
      <trkpt lat="47.36829" lon="0.65965">
        <ele>45</ele>
        <time>2019-05-06T12:34:03Z</time>
      </trkpt>
      <trkpt lat="47.36808" lon="0.66054">
        <ele>45</ele>
        <time>2019-05-06T12:34:21Z</time>
      </trkpt>
      <trkpt lat="47.36779" lon="0.66101">
        <ele>45</ele>
        <time>2019-05-06T12:34:43Z</time>
      </trkpt>
      <trkpt lat="47.36765" lon="0.66101">
        <ele>44</ele>
        <time>2019-05-06T12:34:49Z</time>
      </trkpt>
      <trkpt lat="47.36517" lon="0.65964">
        <ele>47</ele>
        <time>2019-05-06T12:36:01Z</time>
      </trkpt>
      <trkpt lat="47.36496" lon="0.65975">
        <ele>47</ele>
        <time>2019-05-06T12:36:07Z</time>
      </trkpt>
      <trkpt lat="47.36479" lon="0.6603">
        <ele>47</ele>
        <time>2019-05-06T12:36:19Z</time>
      </trkpt>
      <trkpt lat="47.36476" lon="0.66067">
        <ele>47</ele>
        <time>2019-05-06T12:36:31Z</time>
      </trkpt>
      <trkpt lat="47.36449" lon="0.66139">
        <ele>48</ele>
        <time>2019-05-06T12:36:49Z</time>
      </trkpt>
      <trkpt lat="47.36398" lon="0.66391">
        <ele>48</ele>
        <time>2019-05-06T12:37:43Z</time>
      </trkpt>
      <trkpt lat="47.36369" lon="0.66483">
        <ele>49</ele>
        <time>2019-05-06T12:38:01Z</time>
      </trkpt>
      <trkpt lat="47.3636" lon="0.66553">
        <ele>48</ele>
        <time>2019-05-06T12:38:13Z</time>
      </trkpt>
      <trkpt lat="47.3636" lon="0.66584">
        <ele>48</ele>
        <time>2019-05-06T12:38:19Z</time>
      </trkpt>
      <trkpt lat="47.36379" lon="0.6665">
        <ele>47</ele>
        <time>2019-05-06T12:38:31Z</time>
      </trkpt>
      <trkpt lat="47.36376" lon="0.66808">
        <ele>45</ele>
        <time>2019-05-06T12:39:01Z</time>
      </trkpt>
      <trkpt lat="47.36391" lon="0.66879">
        <ele>46</ele>
        <time>2019-05-06T12:39:13Z</time>
      </trkpt>
      <trkpt lat="47.36391" lon="0.66913">
        <ele>47</ele>
        <time>2019-05-06T12:39:19Z</time>
      </trkpt>
      <trkpt lat="47.36373" lon="0.67012">
        <ele>47</ele>
        <time>2019-05-06T12:39:37Z</time>
      </trkpt>
      <trkpt lat="47.36377" lon="0.67042">
        <ele>46</ele>
        <time>2019-05-06T12:39:43Z</time>
      </trkpt>
      <trkpt lat="47.36414" lon="0.67146">
        <ele>45</ele>
        <time>2019-05-06T12:40:07Z</time>
      </trkpt>
      <trkpt lat="47.3642" lon="0.67187">
        <ele>46</ele>
        <time>2019-05-06T12:40:19Z</time>
      </trkpt>
      <trkpt lat="47.36443" lon="0.67258">
        <ele>47</ele>
        <time>2019-05-06T12:40:37Z</time>
      </trkpt>
      <trkpt lat="47.36442" lon="0.67329">
        <ele>48</ele>
        <time>2019-05-06T12:40:55Z</time>
      </trkpt>
      <trkpt lat="47.36448" lon="0.67388">
        <ele>49</ele>
        <time>2019-05-06T12:41:07Z</time>
      </trkpt>
      <trkpt lat="47.36423" lon="0.67459">
        <ele>49</ele>
        <time>2019-05-06T12:41:25Z</time>
      </trkpt>
      <trkpt lat="47.3642" lon="0.67507">
        <ele>49</ele>
        <time>2019-05-06T12:41:37Z</time>
      </trkpt>
      <trkpt lat="47.36402" lon="0.67528">
        <ele>49</ele>
        <time>2019-05-06T12:41:43Z</time>
      </trkpt>
      <trkpt lat="47.36364" lon="0.67603">
        <ele>49</ele>
        <time>2019-05-06T12:42:13Z</time>
      </trkpt>
      <trkpt lat="47.36318" lon="0.67664">
        <ele>50</ele>
        <time>2019-05-06T12:42:25Z</time>
      </trkpt>
      <trkpt lat="47.36292" lon="0.67733">
        <ele>51</ele>
        <time>2019-05-06T12:42:37Z</time>
      </trkpt>
      <trkpt lat="47.36249" lon="0.67789">
        <ele>53</ele>
        <time>2019-05-06T12:42:49Z</time>
      </trkpt>
      <trkpt lat="47.36258" lon="0.67859">
        <ele>49</ele>
        <time>2019-05-06T12:43:01Z</time>
      </trkpt>
      <trkpt lat="47.3624" lon="0.67922">
        <ele>52</ele>
        <time>2019-05-06T12:43:13Z</time>
      </trkpt>
      <trkpt lat="47.36237" lon="0.67983">
        <ele>53</ele>
        <time>2019-05-06T12:43:25Z</time>
      </trkpt>
      <trkpt lat="47.36245" lon="0.68019">
        <ele>53</ele>
        <time>2019-05-06T12:43:31Z</time>
      </trkpt>
      <trkpt lat="47.36247" lon="0.68098">
        <ele>53</ele>
        <time>2019-05-06T12:43:43Z</time>
      </trkpt>
      <trkpt lat="47.36278" lon="0.68167">
        <ele>50</ele>
        <time>2019-05-06T12:44:01Z</time>
      </trkpt>
      <trkpt lat="47.36299" lon="0.68237">
        <ele>50</ele>
        <time>2019-05-06T12:44:13Z</time>
      </trkpt>
      <trkpt lat="47.36305" lon="0.68329">
        <ele>49</ele>
        <time>2019-05-06T12:44:25Z</time>
      </trkpt>
      <trkpt lat="47.36326" lon="0.68413">
        <ele>49</ele>
        <time>2019-05-06T12:44:43Z</time>
      </trkpt>
      <trkpt lat="47.36343" lon="0.6844">
        <ele>49</ele>
        <time>2019-05-06T12:44:55Z</time>
      </trkpt>
      <trkpt lat="47.36386" lon="0.68417">
        <ele>50</ele>
        <time>2019-05-06T12:45:19Z</time>
      </trkpt>
      <trkpt lat="47.36401" lon="0.68439">
        <ele>51</ele>
        <time>2019-05-06T12:45:31Z</time>
      </trkpt>
      <trkpt lat="47.36425" lon="0.68454">
        <ele>51</ele>
        <time>2019-05-06T12:45:49Z</time>
      </trkpt>
      <trkpt lat="47.3642" lon="0.6851">
        <ele>50</ele>
        <time>2019-05-06T12:46:07Z</time>
      </trkpt>
      <trkpt lat="47.36395" lon="0.68595">
        <ele>51</ele>
        <time>2019-05-06T12:46:31Z</time>
      </trkpt>
      <trkpt lat="47.36386" lon="0.68655">
        <ele>51</ele>
        <time>2019-05-06T12:46:43Z</time>
      </trkpt>
      <trkpt lat="47.36384" lon="0.68766">
        <ele>49</ele>
        <time>2019-05-06T12:47:01Z</time>
      </trkpt>
      <trkpt lat="47.36397" lon="0.68782">
        <ele>49</ele>
        <time>2019-05-06T12:47:07Z</time>
      </trkpt>
      <trkpt lat="47.36423" lon="0.68771">
        <ele>49</ele>
        <time>2019-05-06T12:47:25Z</time>
      </trkpt>
      <trkpt lat="47.36457" lon="0.68833">
        <ele>49</ele>
        <time>2019-05-06T12:47:43Z</time>
      </trkpt>
      <trkpt lat="47.36514" lon="0.68876">
        <ele>47</ele>
        <time>2019-05-06T12:48:07Z</time>
      </trkpt>
      <trkpt lat="47.36518" lon="0.68911">
        <ele>47</ele>
        <time>2019-05-06T12:48:13Z</time>
      </trkpt>
      <trkpt lat="47.36514" lon="0.69003">
        <ele>46</ele>
        <time>2019-05-06T12:48:37Z</time>
      </trkpt>
      <trkpt lat="47.3652" lon="0.69054">
        <ele>46</ele>
        <time>2019-05-06T12:48:49Z</time>
      </trkpt>
      <trkpt lat="47.36574" lon="0.69242">
        <ele>48</ele>
        <time>2019-05-06T12:49:19Z</time>
      </trkpt>
      <trkpt lat="47.3658" lon="0.69366">
        <ele>48</ele>
        <time>2019-05-06T12:49:43Z</time>
      </trkpt>
      <trkpt lat="47.36597" lon="0.69428">
        <ele>48</ele>
        <time>2019-05-06T12:49:55Z</time>
      </trkpt>
      <trkpt lat="47.36642" lon="0.69665">
        <ele>51</ele>
        <time>2019-05-06T12:50:43Z</time>
      </trkpt>
      <trkpt lat="47.36638" lon="0.69744">
        <ele>51</ele>
        <time>2019-05-06T12:51:01Z</time>
      </trkpt>
      <trkpt lat="47.36666" lon="0.69793">
        <ele>53</ele>
        <time>2019-05-06T12:51:19Z</time>
      </trkpt>
      <trkpt lat="47.3669" lon="0.69794">
        <ele>52</ele>
        <time>2019-05-06T12:51:33Z</time>
      </trkpt>
      <trkpt lat="47.36688" lon="0.69798">
        <ele>52</ele>
        <time>2019-05-06T12:51:40Z</time>
      </trkpt>
      <trkpt lat="47.36713" lon="0.69784">
        <ele>52</ele>
        <time>2019-05-06T12:52:15Z</time>
      </trkpt>
      <trkpt lat="47.36714" lon="0.69825">
        <ele>52</ele>
        <time>2019-05-06T12:52:26Z</time>
      </trkpt>
      <trkpt lat="47.3673" lon="0.69874">
        <ele>52</ele>
        <time>2019-05-06T12:52:44Z</time>
      </trkpt>
      <trkpt lat="47.36715" lon="0.69885">
        <ele>53</ele>
        <time>2019-05-06T12:52:56Z</time>
      </trkpt>
      <trkpt lat="47.36736" lon="0.69875">
        <ele>52</ele>
        <time>2019-05-06T12:53:08Z</time>
      </trkpt>
      <trkpt lat="47.36756" lon="0.69821">
        <ele>52</ele>
        <time>2019-05-06T12:53:32Z</time>
      </trkpt>
      <trkpt lat="47.3681" lon="0.69786">
        <ele>53</ele>
        <time>2019-05-06T12:53:56Z</time>
      </trkpt>
      <trkpt lat="47.37032" lon="0.69705">
        <ele>45</ele>
        <time>2019-05-06T12:55:14Z</time>
      </trkpt>
      <trkpt lat="47.37101" lon="0.69668">
        <ele>46</ele>
        <time>2019-05-06T12:55:54Z</time>
      </trkpt>
      <trkpt lat="47.37385" lon="0.69567">
        <ele>55</ele>
        <time>2019-05-06T12:57:52Z</time>
      </trkpt>
      <trkpt lat="47.37619" lon="0.69442">
        <ele>55</ele>
        <time>2019-05-06T12:59:59Z</time>
      </trkpt>
      <trkpt lat="47.37703" lon="0.69415">
        <ele>53</ele>
        <time>2019-05-06T13:00:35Z</time>
      </trkpt>
      <trkpt lat="47.37873" lon="0.69342">
        <ele>53</ele>
        <time>2019-05-06T13:01:35Z</time>
      </trkpt>
      <trkpt lat="47.37966" lon="0.69338">
        <ele>52</ele>
        <time>2019-05-06T13:02:54Z</time>
      </trkpt>
      <trkpt lat="47.38071" lon="0.69267">
        <ele>53</ele>
        <time>2019-05-06T13:04:00Z</time>
      </trkpt>
      <trkpt lat="47.38437" lon="0.69095">
        <ele>57</ele>
        <time>2019-05-06T13:06:12Z</time>
      </trkpt>
      <trkpt lat="47.38677" lon="0.6903">
        <ele>53</ele>
        <time>2019-05-06T13:07:30Z</time>
      </trkpt>
      <trkpt lat="47.38694" lon="0.69012">
        <ele>53</ele>
        <time>2019-05-06T13:07:48Z</time>
      </trkpt>
      <trkpt lat="47.3871" lon="0.6901">
        <ele>53</ele>
        <time>2019-05-06T13:08:00Z</time>
      </trkpt>
      <trkpt lat="47.38775" lon="0.68965">
        <ele>55</ele>
        <time>2019-05-06T13:08:24Z</time>
      </trkpt>
      <trkpt lat="47.38862" lon="0.68959">
        <ele>54</ele>
        <time>2019-05-06T13:08:54Z</time>
      </trkpt>
      <trkpt lat="47.38959" lon="0.68911">
        <ele>53</ele>
        <time>2019-05-06T13:09:45Z</time>
      </trkpt>
      <trkpt lat="47.38978" lon="0.6892">
        <ele>53</ele>
        <time>2019-05-06T13:10:14Z</time>
      </trkpt>
      <trkpt lat="47.39025" lon="0.68911">
        <ele>54</ele>
        <time>2019-05-06T13:10:24Z</time>
      </trkpt>
      <trkpt lat="47.39042" lon="0.68986">
        <ele>55</ele>
        <time>2019-05-06T13:11:08Z</time>
      </trkpt>
      <trkpt lat="47.39079" lon="0.6926">
        <ele>52</ele>
        <time>2019-05-06T13:12:30Z</time>
      </trkpt>
      <trkpt lat="47.39089" lon="0.69289">
        <ele>52</ele>
        <time>2019-05-06T13:12:42Z</time>
      </trkpt>
      <trkpt lat="47.39123" lon="0.69338">
        <ele>54</ele>
        <time>2019-05-06T13:13:05Z</time>
      </trkpt>
      <trkpt lat="47.3915" lon="0.69351">
        <ele>55</ele>
        <time>2019-05-06T13:13:16Z</time>
      </trkpt>
      <trkpt lat="47.39221" lon="0.69351">
        <ele>54</ele>
        <time>2019-05-06T13:13:40Z</time>
      </trkpt>
      <trkpt lat="47.39438" lon="0.69271">
        <ele>56</ele>
        <time>2019-05-06T13:14:52Z</time>
      </trkpt>
      <trkpt lat="47.3949" lon="0.69345">
        <ele>57</ele>
        <time>2019-05-06T13:15:27Z</time>
      </trkpt>
      <trkpt lat="47.39542" lon="0.69344">
        <ele>57</ele>
        <time>2019-05-06T13:15:50Z</time>
      </trkpt>
      <trkpt lat="47.39715" lon="0.69298">
        <ele>56</ele>
        <time>2019-05-06T13:17:01Z</time>
      </trkpt>
      <trkpt lat="47.39731" lon="0.69299">
        <ele>56</ele>
        <time>2019-05-06T13:17:12Z</time>
      </trkpt>
      <trkpt lat="47.39748" lon="0.6934">
        <ele>53</ele>
        <time>2019-05-06T13:17:34Z</time>
      </trkpt>
      <trkpt lat="47.39759" lon="0.69452">
        <ele>53</ele>
        <time>2019-05-06T13:17:57Z</time>
      </trkpt>
      <trkpt lat="47.39768" lon="0.69882">
        <ele>51</ele>
        <time>2019-05-06T13:19:27Z</time>
      </trkpt>
      <trkpt lat="47.39762" lon="0.69928">
        <ele>53</ele>
        <time>2019-05-06T13:19:44Z</time>
      </trkpt>
      <trkpt lat="47.39759" lon="0.70155">
        <ele>50</ele>
        <time>2019-05-06T13:20:38Z</time>
      </trkpt>
      <trkpt lat="47.39714" lon="0.70554">
        <ele>49</ele>
        <time>2019-05-06T13:22:02Z</time>
      </trkpt>
      <trkpt lat="47.39702" lon="0.7083">
        <ele>47</ele>
        <time>2019-05-06T13:23:08Z</time>
      </trkpt>
      <trkpt lat="47.39703" lon="0.71179">
        <ele>45</ele>
        <time>2019-05-06T13:24:26Z</time>
      </trkpt>
      <trkpt lat="47.3971" lon="0.71197">
        <ele>45</ele>
        <time>2019-05-06T13:24:35Z</time>
      </trkpt>
      <trkpt lat="47.39712" lon="0.71345">
        <ele>46</ele>
        <time>2019-05-06T13:25:11Z</time>
      </trkpt>
      <trkpt lat="47.39703" lon="0.7147">
        <ele>46</ele>
        <time>2019-05-06T13:25:35Z</time>
      </trkpt>
      <trkpt lat="47.39706" lon="0.71633">
        <ele>45</ele>
        <time>2019-05-06T13:26:05Z</time>
      </trkpt>
      <trkpt lat="47.39695" lon="0.72056">
        <ele>49</ele>
        <time>2019-05-06T13:27:29Z</time>
      </trkpt>
      <trkpt lat="47.39701" lon="0.72454">
        <ele>48</ele>
        <time>2019-05-06T13:28:41Z</time>
      </trkpt>
      <trkpt lat="47.39729" lon="0.72686">
        <ele>50</ele>
        <time>2019-05-06T13:29:29Z</time>
      </trkpt>
      <trkpt lat="47.39785" lon="0.72835">
        <ele>51</ele>
        <time>2019-05-06T13:30:05Z</time>
      </trkpt>
      <trkpt lat="47.39813" lon="0.72947">
        <ele>50</ele>
        <time>2019-05-06T13:30:29Z</time>
      </trkpt>
      <trkpt lat="47.3985" lon="0.73049">
        <ele>50</ele>
        <time>2019-05-06T13:30:47Z</time>
      </trkpt>
      <trkpt lat="47.39996" lon="0.73409">
        <ele>48</ele>
        <time>2019-05-06T13:31:59Z</time>
      </trkpt>
      <trkpt lat="47.4" lon="0.73475">
        <ele>49</ele>
        <time>2019-05-06T13:32:11Z</time>
      </trkpt>
      <trkpt lat="47.40027" lon="0.73583">
        <ele>46</ele>
        <time>2019-05-06T13:32:35Z</time>
      </trkpt>
      <trkpt lat="47.4004" lon="0.73708">
        <ele>47</ele>
        <time>2019-05-06T13:32:59Z</time>
      </trkpt>
      <trkpt lat="47.40045" lon="0.73838">
        <ele>47</ele>
        <time>2019-05-06T13:33:23Z</time>
      </trkpt>
      <trkpt lat="47.40039" lon="0.73942">
        <ele>48</ele>
        <time>2019-05-06T13:33:41Z</time>
      </trkpt>
      <trkpt lat="47.40042" lon="0.7401">
        <ele>49</ele>
        <time>2019-05-06T13:33:53Z</time>
      </trkpt>
      <trkpt lat="47.40071" lon="0.74201">
        <ele>46</ele>
        <time>2019-05-06T13:34:29Z</time>
      </trkpt>
      <trkpt lat="47.40127" lon="0.74432">
        <ele>46</ele>
        <time>2019-05-06T13:35:17Z</time>
      </trkpt>
      <trkpt lat="47.40141" lon="0.74556">
        <ele>47</ele>
        <time>2019-05-06T13:35:41Z</time>
      </trkpt>
      <trkpt lat="47.4018" lon="0.74732">
        <ele>47</ele>
        <time>2019-05-06T13:36:17Z</time>
      </trkpt>
      <trkpt lat="47.40198" lon="0.74861">
        <ele>50</ele>
        <time>2019-05-06T13:37:05Z</time>
      </trkpt>
      <trkpt lat="47.40195" lon="0.74848">
        <ele>50</ele>
        <time>2019-05-06T13:37:19Z</time>
      </trkpt>
      <trkpt lat="47.40179" lon="0.74852">
        <ele>50</ele>
        <time>2019-05-06T13:37:25Z</time>
      </trkpt>
      <trkpt lat="47.40179" lon="0.74881">
        <ele>50</ele>
        <time>2019-05-06T13:37:31Z</time>
      </trkpt>
      <trkpt lat="47.40163" lon="0.74946">
        <ele>50</ele>
        <time>2019-05-06T13:37:43Z</time>
      </trkpt>
      <trkpt lat="47.39982" lon="0.74964">
        <ele>50</ele>
        <time>2019-05-06T13:38:43Z</time>
      </trkpt>
      <trkpt lat="47.39781" lon="0.75005">
        <ele>50</ele>
        <time>2019-05-06T13:39:49Z</time>
      </trkpt>
      <trkpt lat="47.39774" lon="0.75037">
        <ele>50</ele>
        <time>2019-05-06T13:40:01Z</time>
      </trkpt>
      <trkpt lat="47.39826" lon="0.75561">
        <ele>50</ele>
        <time>2019-05-06T13:42:19Z</time>
      </trkpt>
      <trkpt lat="47.39822" lon="0.75664">
        <ele>50</ele>
        <time>2019-05-06T13:42:43Z</time>
      </trkpt>
      <trkpt lat="47.39794" lon="0.75802">
        <ele>51</ele>
        <time>2019-05-06T13:43:19Z</time>
      </trkpt>
      <trkpt lat="47.39714" lon="0.7605">
        <ele>50</ele>
        <time>2019-05-06T13:44:39Z</time>
      </trkpt>
      <trkpt lat="47.39658" lon="0.7625">
        <ele>50</ele>
        <time>2019-05-06T13:45:27Z</time>
      </trkpt>
      <trkpt lat="47.39635" lon="0.76287">
        <ele>50</ele>
        <time>2019-05-06T13:45:45Z</time>
      </trkpt>
      <trkpt lat="47.39599" lon="0.76293">
        <ele>51</ele>
        <time>2019-05-06T13:46:03Z</time>
      </trkpt>
      <trkpt lat="47.39598" lon="0.7633">
        <ele>51</ele>
        <time>2019-05-06T13:46:15Z</time>
      </trkpt>
      <trkpt lat="47.39585" lon="0.76361">
        <ele>50</ele>
        <time>2019-05-06T13:46:33Z</time>
      </trkpt>
      <trkpt lat="47.39594" lon="0.76295">
        <ele>51</ele>
        <time>2019-05-06T13:46:57Z</time>
      </trkpt>
      <trkpt lat="47.39606" lon="0.76286">
        <ele>50</ele>
        <time>2019-05-06T13:47:03Z</time>
      </trkpt>
      <trkpt lat="47.39634" lon="0.76287">
        <ele>50</ele>
        <time>2019-05-06T13:47:22Z</time>
      </trkpt>
      <trkpt lat="47.39553" lon="0.76753">
        <ele>52</ele>
        <time>2019-05-06T13:49:19Z</time>
      </trkpt>
      <trkpt lat="47.39532" lon="0.76928">
        <ele>52</ele>
        <time>2019-05-06T13:50:10Z</time>
      </trkpt>
      <trkpt lat="47.39522" lon="0.76957">
        <ele>52</ele>
        <time>2019-05-06T13:50:29Z</time>
      </trkpt>
      <trkpt lat="47.39495" lon="0.7698">
        <ele>52</ele>
        <time>2019-05-06T13:51:03Z</time>
      </trkpt>
      <trkpt lat="47.39418" lon="0.77003">
        <ele>53</ele>
        <time>2019-05-06T13:52:25Z</time>
      </trkpt>
      <trkpt lat="47.39395" lon="0.76999">
        <ele>54</ele>
        <time>2019-05-06T13:52:49Z</time>
      </trkpt>
      <trkpt lat="47.39387" lon="0.76984">
        <ele>54</ele>
        <time>2019-05-06T13:53:01Z</time>
      </trkpt>
      <trkpt lat="47.39343" lon="0.76956">
        <ele>53</ele>
        <time>2019-05-06T13:53:55Z</time>
      </trkpt>
      <trkpt lat="47.39337" lon="0.76962">
        <ele>53</ele>
        <time>2019-05-06T13:54:09Z</time>
      </trkpt>
      <trkpt lat="47.39342" lon="0.76968">
        <ele>53</ele>
        <time>2019-05-06T13:54:20Z</time>
      </trkpt>
      <trkpt lat="47.39333" lon="0.76965">
        <ele>53</ele>
        <time>2019-05-06T13:54:38Z</time>
      </trkpt>
      <trkpt lat="47.39327" lon="0.77009">
        <ele>52</ele>
        <time>2019-05-06T13:54:50Z</time>
      </trkpt>
      <trkpt lat="47.39319" lon="0.77018">
        <ele>51</ele>
        <time>2019-05-06T13:55:02Z</time>
      </trkpt>
      <trkpt lat="47.39166" lon="0.77004">
        <ele>52</ele>
        <time>2019-05-06T13:56:08Z</time>
      </trkpt>
      <trkpt lat="47.39017" lon="0.76961">
        <ele>51</ele>
        <time>2019-05-06T13:56:50Z</time>
      </trkpt>
      <trkpt lat="47.38987" lon="0.76941">
        <ele>51</ele>
        <time>2019-05-06T13:56:56Z</time>
      </trkpt>
      <trkpt lat="47.3893" lon="0.7686">
        <ele>51</ele>
        <time>2019-05-06T13:57:08Z</time>
      </trkpt>
      <trkpt lat="47.38877" lon="0.76679">
        <ele>51</ele>
        <time>2019-05-06T13:57:38Z</time>
      </trkpt>
      <trkpt lat="47.38738" lon="0.76811">
        <ele>52</ele>
        <time>2019-05-06T13:58:26Z</time>
      </trkpt>
      <trkpt lat="47.38676" lon="0.76849">
        <ele>51</ele>
        <time>2019-05-06T13:58:50Z</time>
      </trkpt>
      <trkpt lat="47.38659" lon="0.76837">
        <ele>51</ele>
        <time>2019-05-06T13:59:02Z</time>
      </trkpt>
      <trkpt lat="47.38653" lon="0.76811">
        <ele>51</ele>
        <time>2019-05-06T13:59:18Z</time>
      </trkpt>
      <trkpt lat="47.38658" lon="0.76808">
        <ele>51</ele>
        <time>2019-05-06T13:59:20Z</time>
      </trkpt>
      <trkpt lat="47.38648" lon="0.76804">
        <ele>51</ele>
        <time>2019-05-06T13:59:28Z</time>
      </trkpt>
      <trkpt lat="47.38642" lon="0.76813">
        <ele>51</ele>
        <time>2019-05-06T13:59:38Z</time>
      </trkpt>
      <trkpt lat="47.38647" lon="0.76799">
        <ele>51</ele>
        <time>2019-05-06T13:59:43Z</time>
      </trkpt>
      <trkpt lat="47.38648" lon="0.76801">
        <ele>51</ele>
        <time>2019-05-06T13:59:44Z</time>
      </trkpt>
      <trkpt lat="47.38648" lon="0.76801">
        <ele>51</ele>
        <time>2019-05-06T13:59:45Z</time>
      </trkpt>
      <trkpt lat="47.38655" lon="0.768">
        <ele>51</ele>
        <time>2019-05-07T05:16:55Z</time>
      </trkpt>
      <trkpt lat="47.38649" lon="0.76794">
        <ele>51</ele>
        <time>2019-05-07T05:17:09Z</time>
      </trkpt>
      <trkpt lat="47.38641" lon="0.76806">
        <ele>51</ele>
        <time>2019-05-07T05:17:10Z</time>
      </trkpt>
      <trkpt lat="47.38664" lon="0.76807">
        <ele>51</ele>
        <time>2019-05-07T05:18:09Z</time>
      </trkpt>
      <trkpt lat="47.38662" lon="0.76808">
        <ele>51</ele>
        <time>2019-05-07T05:18:29Z</time>
      </trkpt>
      <trkpt lat="47.38649" lon="0.76807">
        <ele>51</ele>
        <time>2019-05-07T05:18:48Z</time>
      </trkpt>
      <trkpt lat="47.38646" lon="0.76815">
        <ele>51</ele>
        <time>2019-05-07T05:18:56Z</time>
      </trkpt>
      <trkpt lat="47.38668" lon="0.76951">
        <ele>51</ele>
        <time>2019-05-07T05:19:32Z</time>
      </trkpt>
      <trkpt lat="47.38746" lon="0.77277">
        <ele>52</ele>
        <time>2019-05-07T05:20:50Z</time>
      </trkpt>
      <trkpt lat="47.38808" lon="0.7762">
        <ele>49</ele>
        <time>2019-05-07T05:22:02Z</time>
      </trkpt>
      <trkpt lat="47.38889" lon="0.77882">
        <ele>51</ele>
        <time>2019-05-07T05:22:56Z</time>
      </trkpt>
      <trkpt lat="47.38904" lon="0.7795">
        <ele>51</ele>
        <time>2019-05-07T05:23:08Z</time>
      </trkpt>
      <trkpt lat="47.38909" lon="0.77982">
        <ele>51</ele>
        <time>2019-05-07T05:23:14Z</time>
      </trkpt>
      <trkpt lat="47.38894" lon="0.78094">
        <ele>49</ele>
        <time>2019-05-07T05:23:32Z</time>
      </trkpt>
      <trkpt lat="47.38922" lon="0.78184">
        <ele>49</ele>
        <time>2019-05-07T05:23:50Z</time>
      </trkpt>
      <trkpt lat="47.38962" lon="0.78262">
        <ele>49</ele>
        <time>2019-05-07T05:24:08Z</time>
      </trkpt>
      <trkpt lat="47.38979" lon="0.78326">
        <ele>50</ele>
        <time>2019-05-07T05:24:20Z</time>
      </trkpt>
      <trkpt lat="47.38956" lon="0.78462">
        <ele>51</ele>
        <time>2019-05-07T05:24:44Z</time>
      </trkpt>
      <trkpt lat="47.38911" lon="0.78513">
        <ele>51</ele>
        <time>2019-05-07T05:24:56Z</time>
      </trkpt>
      <trkpt lat="47.38806" lon="0.78589">
        <ele>50</ele>
        <time>2019-05-07T05:25:26Z</time>
      </trkpt>
      <trkpt lat="47.38784" lon="0.78593">
        <ele>50</ele>
        <time>2019-05-07T05:25:32Z</time>
      </trkpt>
      <trkpt lat="47.38733" lon="0.78567">
        <ele>50</ele>
        <time>2019-05-07T05:25:44Z</time>
      </trkpt>
      <trkpt lat="47.38655" lon="0.78463">
        <ele>47</ele>
        <time>2019-05-07T05:26:08Z</time>
      </trkpt>
      <trkpt lat="47.3863" lon="0.78468">
        <ele>47</ele>
        <time>2019-05-07T05:26:14Z</time>
      </trkpt>
      <trkpt lat="47.38585" lon="0.78533">
        <ele>48</ele>
        <time>2019-05-07T05:26:38Z</time>
      </trkpt>
      <trkpt lat="47.38584" lon="0.78545">
        <ele>48</ele>
        <time>2019-05-07T05:26:44Z</time>
      </trkpt>
      <trkpt lat="47.39102" lon="0.78793">
        <ele>50</ele>
        <time>2019-05-07T05:29:38Z</time>
      </trkpt>
      <trkpt lat="47.39168" lon="0.78818">
        <ele>50</ele>
        <time>2019-05-07T05:29:50Z</time>
      </trkpt>
      <trkpt lat="47.39286" lon="0.78838">
        <ele>51</ele>
        <time>2019-05-07T05:30:08Z</time>
      </trkpt>
      <trkpt lat="47.39354" lon="0.78881">
        <ele>51</ele>
        <time>2019-05-07T05:30:20Z</time>
      </trkpt>
      <trkpt lat="47.39414" lon="0.78859">
        <ele>48</ele>
        <time>2019-05-07T05:30:32Z</time>
      </trkpt>
      <trkpt lat="47.39561" lon="0.78897">
        <ele>51</ele>
        <time>2019-05-07T05:31:02Z</time>
      </trkpt>
      <trkpt lat="47.39826" lon="0.78909">
        <ele>51</ele>
        <time>2019-05-07T05:32:02Z</time>
      </trkpt>
      <trkpt lat="47.39929" lon="0.78929">
        <ele>51</ele>
        <time>2019-05-07T05:32:26Z</time>
      </trkpt>
      <trkpt lat="47.39954" lon="0.78941">
        <ele>51</ele>
        <time>2019-05-07T05:32:32Z</time>
      </trkpt>
      <trkpt lat="47.40005" lon="0.78986">
        <ele>50</ele>
        <time>2019-05-07T05:32:44Z</time>
      </trkpt>
      <trkpt lat="47.40042" lon="0.79054">
        <ele>52</ele>
        <time>2019-05-07T05:32:56Z</time>
      </trkpt>
      <trkpt lat="47.40053" lon="0.79095">
        <ele>52</ele>
        <time>2019-05-07T05:33:02Z</time>
      </trkpt>
      <trkpt lat="47.4006" lon="0.79176">
        <ele>51</ele>
        <time>2019-05-07T05:33:14Z</time>
      </trkpt>
      <trkpt lat="47.40037" lon="0.79272">
        <ele>50</ele>
        <time>2019-05-07T05:33:32Z</time>
      </trkpt>
      <trkpt lat="47.40055" lon="0.79301">
        <ele>50</ele>
        <time>2019-05-07T05:33:38Z</time>
      </trkpt>
      <trkpt lat="47.40081" lon="0.79306">
        <ele>50</ele>
        <time>2019-05-07T05:33:44Z</time>
      </trkpt>
      <trkpt lat="47.40125" lon="0.79289">
        <ele>53</ele>
        <time>2019-05-07T05:33:56Z</time>
      </trkpt>
      <trkpt lat="47.40124" lon="0.79428">
        <ele>52</ele>
        <time>2019-05-07T05:34:26Z</time>
      </trkpt>
      <trkpt lat="47.40134" lon="0.79537">
        <ele>53</ele>
        <time>2019-05-07T05:34:50Z</time>
      </trkpt>
      <trkpt lat="47.40127" lon="0.79642">
        <ele>53</ele>
        <time>2019-05-07T05:35:14Z</time>
      </trkpt>
      <trkpt lat="47.40153" lon="0.79642">
        <ele>53</ele>
        <time>2019-05-07T05:35:26Z</time>
      </trkpt>
      <trkpt lat="47.40033" lon="0.8005">
        <ele>48</ele>
        <time>2019-05-07T05:36:32Z</time>
      </trkpt>
      <trkpt lat="47.40015" lon="0.80088">
        <ele>52</ele>
        <time>2019-05-07T05:36:38Z</time>
      </trkpt>
      <trkpt lat="47.39859" lon="0.80317">
        <ele>55</ele>
        <time>2019-05-07T05:37:20Z</time>
      </trkpt>
      <trkpt lat="47.3983" lon="0.80388">
        <ele>54</ele>
        <time>2019-05-07T05:37:32Z</time>
      </trkpt>
      <trkpt lat="47.39798" lon="0.80437">
        <ele>54</ele>
        <time>2019-05-07T05:37:44Z</time>
      </trkpt>
      <trkpt lat="47.39777" lon="0.8051">
        <ele>51</ele>
        <time>2019-05-07T05:37:56Z</time>
      </trkpt>
      <trkpt lat="47.39745" lon="0.80586">
        <ele>51</ele>
        <time>2019-05-07T05:38:08Z</time>
      </trkpt>
      <trkpt lat="47.39658" lon="0.80693">
        <ele>52</ele>
        <time>2019-05-07T05:38:32Z</time>
      </trkpt>
      <trkpt lat="47.39602" lon="0.80822">
        <ele>53</ele>
        <time>2019-05-07T05:38:56Z</time>
      </trkpt>
      <trkpt lat="47.39547" lon="0.81026">
        <ele>49</ele>
        <time>2019-05-07T05:39:32Z</time>
      </trkpt>
      <trkpt lat="47.39535" lon="0.8105">
        <ele>49</ele>
        <time>2019-05-07T05:39:44Z</time>
      </trkpt>
      <trkpt lat="47.39506" lon="0.8105">
        <ele>49</ele>
        <time>2019-05-07T05:40:02Z</time>
      </trkpt>
      <trkpt lat="47.39445" lon="0.81161">
        <ele>53</ele>
        <time>2019-05-07T05:40:26Z</time>
      </trkpt>
      <trkpt lat="47.39368" lon="0.81238">
        <ele>52</ele>
        <time>2019-05-07T05:40:50Z</time>
      </trkpt>
      <trkpt lat="47.39337" lon="0.8128">
        <ele>52</ele>
        <time>2019-05-07T05:41:02Z</time>
      </trkpt>
      <trkpt lat="47.39302" lon="0.81272">
        <ele>52</ele>
        <time>2019-05-07T05:41:14Z</time>
      </trkpt>
      <trkpt lat="47.39278" lon="0.81306">
        <ele>49</ele>
        <time>2019-05-07T05:41:26Z</time>
      </trkpt>
      <trkpt lat="47.39256" lon="0.81387">
        <ele>53</ele>
        <time>2019-05-07T05:42:02Z</time>
      </trkpt>
      <trkpt lat="47.39275" lon="0.81439">
        <ele>50</ele>
        <time>2019-05-07T05:42:14Z</time>
      </trkpt>
      <trkpt lat="47.39193" lon="0.8176">
        <ele>47</ele>
        <time>2019-05-07T05:43:38Z</time>
      </trkpt>
      <trkpt lat="47.39169" lon="0.81794">
        <ele>56</ele>
        <time>2019-05-07T05:44:01Z</time>
      </trkpt>
      <trkpt lat="47.39156" lon="0.8188">
        <ele>50</ele>
        <time>2019-05-07T05:44:26Z</time>
      </trkpt>
      <trkpt lat="47.39085" lon="0.82105">
        <ele>54</ele>
        <time>2019-05-07T05:45:19Z</time>
      </trkpt>
      <trkpt lat="47.39042" lon="0.82269">
        <ele>54</ele>
        <time>2019-05-07T05:45:55Z</time>
      </trkpt>
      <trkpt lat="47.3903" lon="0.82359">
        <ele>54</ele>
        <time>2019-05-07T05:46:13Z</time>
      </trkpt>
      <trkpt lat="47.3901" lon="0.82437">
        <ele>51</ele>
        <time>2019-05-07T05:46:39Z</time>
      </trkpt>
      <trkpt lat="47.39041" lon="0.82798">
        <ele>53</ele>
        <time>2019-05-07T05:48:03Z</time>
      </trkpt>
      <trkpt lat="47.39031" lon="0.82809">
        <ele>53</ele>
        <time>2019-05-07T05:48:09Z</time>
      </trkpt>
      <trkpt lat="47.39025" lon="0.82795">
        <ele>53</ele>
        <time>2019-05-07T05:48:15Z</time>
      </trkpt>
      <trkpt lat="47.39025" lon="0.82765">
        <ele>53</ele>
        <time>2019-05-07T05:48:33Z</time>
      </trkpt>
      <trkpt lat="47.39018" lon="0.82772">
        <ele>53</ele>
        <time>2019-05-07T05:48:34Z</time>
      </trkpt>
      <trkpt lat="47.39024" lon="0.82808">
        <ele>53</ele>
        <time>2019-05-07T05:49:03Z</time>
      </trkpt>
      <trkpt lat="47.39041" lon="0.82808">
        <ele>53</ele>
        <time>2019-05-07T05:49:21Z</time>
      </trkpt>
      <trkpt lat="47.39043" lon="0.82816">
        <ele>56</ele>
        <time>2019-05-07T05:49:33Z</time>
      </trkpt>
      <trkpt lat="47.39064" lon="0.83018">
        <ele>60</ele>
        <time>2019-05-07T05:50:15Z</time>
      </trkpt>
      <trkpt lat="47.39105" lon="0.83852">
        <ele>54</ele>
        <time>2019-05-07T05:52:33Z</time>
      </trkpt>
      <trkpt lat="47.39101" lon="0.84006">
        <ele>55</ele>
        <time>2019-05-07T05:52:57Z</time>
      </trkpt>
      <trkpt lat="47.39105" lon="0.84149">
        <ele>58</ele>
        <time>2019-05-07T05:53:21Z</time>
      </trkpt>
      <trkpt lat="47.39133" lon="0.84641">
        <ele>68</ele>
        <time>2019-05-07T05:54:45Z</time>
      </trkpt>
      <trkpt lat="47.39114" lon="0.85173">
        <ele>68</ele>
        <time>2019-05-07T05:56:15Z</time>
      </trkpt>
      <trkpt lat="47.39121" lon="0.85256">
        <ele>68</ele>
        <time>2019-05-07T05:56:27Z</time>
      </trkpt>
      <trkpt lat="47.39139" lon="0.85373">
        <ele>64</ele>
        <time>2019-05-07T05:56:45Z</time>
      </trkpt>
      <trkpt lat="47.39152" lon="0.85382">
        <ele>64</ele>
        <time>2019-05-07T05:56:51Z</time>
      </trkpt>
      <trkpt lat="47.3918" lon="0.85471">
        <ele>64</ele>
        <time>2019-05-07T05:57:15Z</time>
      </trkpt>
      <trkpt lat="47.39183" lon="0.85504">
        <ele>64</ele>
        <time>2019-05-07T05:57:35Z</time>
      </trkpt>
      <trkpt lat="47.39239" lon="0.85653">
        <ele>57</ele>
        <time>2019-05-07T05:58:05Z</time>
      </trkpt>
      <trkpt lat="47.39288" lon="0.85829">
        <ele>53</ele>
        <time>2019-05-07T05:58:34Z</time>
      </trkpt>
      <trkpt lat="47.39438" lon="0.86216">
        <ele>56</ele>
        <time>2019-05-07T05:59:40Z</time>
      </trkpt>
      <trkpt lat="47.39454" lon="0.86289">
        <ele>56</ele>
        <time>2019-05-07T05:59:52Z</time>
      </trkpt>
      <trkpt lat="47.39465" lon="0.86441">
        <ele>54</ele>
        <time>2019-05-07T06:00:16Z</time>
      </trkpt>
      <trkpt lat="47.39496" lon="0.86636">
        <ele>54</ele>
        <time>2019-05-07T06:00:46Z</time>
      </trkpt>
      <trkpt lat="47.39551" lon="0.8685">
        <ele>56</ele>
        <time>2019-05-07T06:01:22Z</time>
      </trkpt>
      <trkpt lat="47.39589" lon="0.8703">
        <ele>55</ele>
        <time>2019-05-07T06:01:52Z</time>
      </trkpt>
      <trkpt lat="47.3962" lon="0.87216">
        <ele>52</ele>
        <time>2019-05-07T06:02:22Z</time>
      </trkpt>
      <trkpt lat="47.39654" lon="0.87371">
        <ele>49</ele>
        <time>2019-05-07T06:02:46Z</time>
      </trkpt>
      <trkpt lat="47.3967" lon="0.87492">
        <ele>50</ele>
        <time>2019-05-07T06:03:04Z</time>
      </trkpt>
      <trkpt lat="47.39673" lon="0.87646">
        <ele>50</ele>
        <time>2019-05-07T06:03:28Z</time>
      </trkpt>
      <trkpt lat="47.39666" lon="0.8802">
        <ele>50</ele>
        <time>2019-05-07T06:04:28Z</time>
      </trkpt>
      <trkpt lat="47.39694" lon="0.88237">
        <ele>53</ele>
        <time>2019-05-07T06:05:04Z</time>
      </trkpt>
      <trkpt lat="47.39714" lon="0.88524">
        <ele>52</ele>
        <time>2019-05-07T06:05:52Z</time>
      </trkpt>
      <trkpt lat="47.3969" lon="0.88515">
        <ele>52</ele>
        <time>2019-05-07T06:06:10Z</time>
      </trkpt>
      <trkpt lat="47.39611" lon="0.88509">
        <ele>53</ele>
        <time>2019-05-07T06:06:28Z</time>
      </trkpt>
      <trkpt lat="47.39631" lon="0.88651">
        <ele>53</ele>
        <time>2019-05-07T06:06:58Z</time>
      </trkpt>
      <trkpt lat="47.39637" lon="0.88771">
        <ele>52</ele>
        <time>2019-05-07T06:07:22Z</time>
      </trkpt>
      <trkpt lat="47.39628" lon="0.89024">
        <ele>54</ele>
        <time>2019-05-07T06:08:10Z</time>
      </trkpt>
      <trkpt lat="47.3964" lon="0.89364">
        <ele>59</ele>
        <time>2019-05-07T06:09:22Z</time>
      </trkpt>
      <trkpt lat="47.3965" lon="0.89378">
        <ele>53</ele>
        <time>2019-05-07T06:09:40Z</time>
      </trkpt>
      <trkpt lat="47.39645" lon="0.89377">
        <ele>59</ele>
        <time>2019-05-07T06:09:52Z</time>
      </trkpt>
      <trkpt lat="47.3965" lon="0.89525">
        <ele>54</ele>
        <time>2019-05-07T06:10:28Z</time>
      </trkpt>
      <trkpt lat="47.39661" lon="0.89585">
        <ele>55</ele>
        <time>2019-05-07T06:10:40Z</time>
      </trkpt>
      <trkpt lat="47.39682" lon="0.89647">
        <ele>55</ele>
        <time>2019-05-07T06:10:52Z</time>
      </trkpt>
      <trkpt lat="47.39683" lon="0.89714">
        <ele>56</ele>
        <time>2019-05-07T06:11:22Z</time>
      </trkpt>
      <trkpt lat="47.3966" lon="0.89967">
        <ele>60</ele>
        <time>2019-05-07T06:12:10Z</time>
      </trkpt>
      <trkpt lat="47.39672" lon="0.90082">
        <ele>60</ele>
        <time>2019-05-07T06:12:28Z</time>
      </trkpt>
      <trkpt lat="47.39712" lon="0.90281">
        <ele>70</ele>
        <time>2019-05-07T06:12:58Z</time>
      </trkpt>
      <trkpt lat="47.39789" lon="0.90809">
        <ele>62</ele>
        <time>2019-05-07T06:14:16Z</time>
      </trkpt>
      <trkpt lat="47.39848" lon="0.91407">
        <ele>60</ele>
        <time>2019-05-07T06:15:52Z</time>
      </trkpt>
      <trkpt lat="47.39865" lon="0.9176">
        <ele>63</ele>
        <time>2019-05-07T06:16:40Z</time>
      </trkpt>
      <trkpt lat="47.39863" lon="0.91901">
        <ele>61</ele>
        <time>2019-05-07T06:16:58Z</time>
      </trkpt>
      <trkpt lat="47.39844" lon="0.92026">
        <ele>57</ele>
        <time>2019-05-07T06:17:28Z</time>
      </trkpt>
      <trkpt lat="47.39843" lon="0.92037">
        <ele>57</ele>
        <time>2019-05-07T06:17:49Z</time>
      </trkpt>
      <trkpt lat="47.39834" lon="0.92043">
        <ele>66</ele>
        <time>2019-05-07T06:17:55Z</time>
      </trkpt>
      <trkpt lat="47.39824" lon="0.92101">
        <ele>66</ele>
        <time>2019-05-07T06:18:06Z</time>
      </trkpt>
      <trkpt lat="47.3984" lon="0.922">
        <ele>58</ele>
        <time>2019-05-07T06:18:40Z</time>
      </trkpt>
      <trkpt lat="47.39841" lon="0.92308">
        <ele>59</ele>
        <time>2019-05-07T06:18:58Z</time>
      </trkpt>
      <trkpt lat="47.39833" lon="0.92362">
        <ele>70</ele>
        <time>2019-05-07T06:19:10Z</time>
      </trkpt>
      <trkpt lat="47.39854" lon="0.9255">
        <ele>58</ele>
        <time>2019-05-07T06:19:46Z</time>
      </trkpt>
      <trkpt lat="47.39882" lon="0.92702">
        <ele>66</ele>
        <time>2019-05-07T06:20:22Z</time>
      </trkpt>
      <trkpt lat="47.39885" lon="0.92784">
        <ele>66</ele>
        <time>2019-05-07T06:20:40Z</time>
      </trkpt>
      <trkpt lat="47.39872" lon="0.92889">
        <ele>67</ele>
        <time>2019-05-07T06:20:58Z</time>
      </trkpt>
      <trkpt lat="47.39915" lon="0.93123">
        <ele>59</ele>
        <time>2019-05-07T06:21:22Z</time>
      </trkpt>
      <trkpt lat="47.39983" lon="0.93743">
        <ele>69</ele>
        <time>2019-05-07T06:22:52Z</time>
      </trkpt>
      <trkpt lat="47.40027" lon="0.93786">
        <ele>55</ele>
        <time>2019-05-07T06:23:04Z</time>
      </trkpt>
      <trkpt lat="47.40069" lon="0.93782">
        <ele>55</ele>
        <time>2019-05-07T06:23:10Z</time>
      </trkpt>
      <trkpt lat="47.40146" lon="0.9375">
        <ele>52</ele>
        <time>2019-05-07T06:23:28Z</time>
      </trkpt>
      <trkpt lat="47.40199" lon="0.93743">
        <ele>52</ele>
        <time>2019-05-07T06:23:40Z</time>
      </trkpt>
      <trkpt lat="47.40228" lon="0.93768">
        <ele>54</ele>
        <time>2019-05-07T06:23:46Z</time>
      </trkpt>
      <trkpt lat="47.4027" lon="0.93829">
        <ele>52</ele>
        <time>2019-05-07T06:23:58Z</time>
      </trkpt>
      <trkpt lat="47.40288" lon="0.93888">
        <ele>52</ele>
        <time>2019-05-07T06:24:10Z</time>
      </trkpt>
      <trkpt lat="47.40328" lon="0.93908">
        <ele>53</ele>
        <time>2019-05-07T06:24:22Z</time>
      </trkpt>
      <trkpt lat="47.40338" lon="0.94013">
        <ele>55</ele>
        <time>2019-05-07T06:24:40Z</time>
      </trkpt>
      <trkpt lat="47.40351" lon="0.94047">
        <ele>55</ele>
        <time>2019-05-07T06:24:52Z</time>
      </trkpt>
      <trkpt lat="47.4036" lon="0.94191">
        <ele>53</ele>
        <time>2019-05-07T06:25:22Z</time>
      </trkpt>
      <trkpt lat="47.40393" lon="0.94346">
        <ele>53</ele>
        <time>2019-05-07T06:25:46Z</time>
      </trkpt>
      <trkpt lat="47.40418" lon="0.94422">
        <ele>53</ele>
        <time>2019-05-07T06:25:58Z</time>
      </trkpt>
      <trkpt lat="47.40535" lon="0.94962">
        <ele>54</ele>
        <time>2019-05-07T06:27:40Z</time>
      </trkpt>
      <trkpt lat="47.4051" lon="0.94982">
        <ele>54</ele>
        <time>2019-05-07T06:27:52Z</time>
      </trkpt>
      <trkpt lat="47.40371" lon="0.95042">
        <ele>56</ele>
        <time>2019-05-07T06:28:46Z</time>
      </trkpt>
      <trkpt lat="47.4037" lon="0.95073">
        <ele>56</ele>
        <time>2019-05-07T06:28:52Z</time>
      </trkpt>
      <trkpt lat="47.40398" lon="0.95211">
        <ele>55</ele>
        <time>2019-05-07T06:29:22Z</time>
      </trkpt>
      <trkpt lat="47.40463" lon="0.95426">
        <ele>56</ele>
        <time>2019-05-07T06:30:04Z</time>
      </trkpt>
      <trkpt lat="47.40547" lon="0.95582">
        <ele>56</ele>
        <time>2019-05-07T06:30:40Z</time>
      </trkpt>
      <trkpt lat="47.40601" lon="0.95725">
        <ele>57</ele>
        <time>2019-05-07T06:31:09Z</time>
      </trkpt>
      <trkpt lat="47.40622" lon="0.95718">
        <ele>57</ele>
        <time>2019-05-07T06:31:15Z</time>
      </trkpt>
      <trkpt lat="47.40662" lon="0.95732">
        <ele>57</ele>
        <time>2019-05-07T06:31:27Z</time>
      </trkpt>
      <trkpt lat="47.40673" lon="0.95878">
        <ele>53</ele>
        <time>2019-05-07T06:31:51Z</time>
      </trkpt>
      <trkpt lat="47.40693" lon="0.95994">
        <ele>53</ele>
        <time>2019-05-07T06:32:09Z</time>
      </trkpt>
      <trkpt lat="47.40706" lon="0.96065">
        <ele>53</ele>
        <time>2019-05-07T06:32:21Z</time>
      </trkpt>
      <trkpt lat="47.40738" lon="0.9617">
        <ele>56</ele>
        <time>2019-05-07T06:32:39Z</time>
      </trkpt>
      <trkpt lat="47.40758" lon="0.96279">
        <ele>58</ele>
        <time>2019-05-07T06:32:57Z</time>
      </trkpt>
      <trkpt lat="47.40765" lon="0.96351">
        <ele>53</ele>
        <time>2019-05-07T06:33:09Z</time>
      </trkpt>
      <trkpt lat="47.40781" lon="0.96424">
        <ele>54</ele>
        <time>2019-05-07T06:33:21Z</time>
      </trkpt>
      <trkpt lat="47.40771" lon="0.96453">
        <ele>54</ele>
        <time>2019-05-07T06:33:27Z</time>
      </trkpt>
      <trkpt lat="47.40772" lon="0.96528">
        <ele>54</ele>
        <time>2019-05-07T06:33:39Z</time>
      </trkpt>
      <trkpt lat="47.40792" lon="0.96644">
        <ele>54</ele>
        <time>2019-05-07T06:33:57Z</time>
      </trkpt>
      <trkpt lat="47.40869" lon="0.96965">
        <ele>59</ele>
        <time>2019-05-07T06:34:51Z</time>
      </trkpt>
      <trkpt lat="47.40962" lon="0.97153">
        <ele>55</ele>
        <time>2019-05-07T06:35:27Z</time>
      </trkpt>
      <trkpt lat="47.41095" lon="0.97358">
        <ele>54</ele>
        <time>2019-05-07T06:36:21Z</time>
      </trkpt>
      <trkpt lat="47.4115" lon="0.97551">
        <ele>55</ele>
        <time>2019-05-07T06:37:09Z</time>
      </trkpt>
      <trkpt lat="47.4122" lon="0.97731">
        <ele>64</ele>
        <time>2019-05-07T06:37:45Z</time>
      </trkpt>
      <trkpt lat="47.41227" lon="0.97745">
        <ele>64</ele>
        <time>2019-05-07T06:37:51Z</time>
      </trkpt>
      <trkpt lat="47.41221" lon="0.97712">
        <ele>64</ele>
        <time>2019-05-07T06:38:03Z</time>
      </trkpt>
      <trkpt lat="47.41248" lon="0.97776">
        <ele>54</ele>
        <time>2019-05-07T06:38:15Z</time>
      </trkpt>
      <trkpt lat="47.41269" lon="0.97896">
        <ele>56</ele>
        <time>2019-05-07T06:38:33Z</time>
      </trkpt>
      <trkpt lat="47.4129" lon="0.98096">
        <ele>57</ele>
        <time>2019-05-07T06:39:31Z</time>
      </trkpt>
      <trkpt lat="47.41286" lon="0.98111">
        <ele>57</ele>
        <time>2019-05-07T06:39:39Z</time>
      </trkpt>
      <trkpt lat="47.41296" lon="0.98163">
        <ele>57</ele>
        <time>2019-05-07T06:39:57Z</time>
      </trkpt>
      <trkpt lat="47.41388" lon="0.98449">
        <ele>55</ele>
        <time>2019-05-07T06:41:21Z</time>
      </trkpt>
      <trkpt lat="47.4143" lon="0.98545">
        <ele>54</ele>
        <time>2019-05-07T06:42:00Z</time>
      </trkpt>
      <trkpt lat="47.4144" lon="0.98593">
        <ele>54</ele>
        <time>2019-05-07T06:42:23Z</time>
      </trkpt>
      <trkpt lat="47.41412" lon="0.98541">
        <ele>75</ele>
        <time>2019-05-07T06:43:02Z</time>
      </trkpt>
      <trkpt lat="47.4142" lon="0.98576">
        <ele>54</ele>
        <time>2019-05-07T06:43:23Z</time>
      </trkpt>
      <trkpt lat="47.41451" lon="0.98664">
        <ele>60</ele>
        <time>2019-05-07T06:43:47Z</time>
      </trkpt>
      <trkpt lat="47.41499" lon="0.98766">
        <ele>76</ele>
        <time>2019-05-07T06:44:11Z</time>
      </trkpt>
      <trkpt lat="47.41544" lon="0.98934">
        <ele>62</ele>
        <time>2019-05-07T06:44:47Z</time>
      </trkpt>
      <trkpt lat="47.41614" lon="0.99157">
        <ele>61</ele>
        <time>2019-05-07T06:45:29Z</time>
      </trkpt>
      <trkpt lat="47.4182" lon="0.99718">
        <ele>72</ele>
        <time>2019-05-07T06:47:17Z</time>
      </trkpt>
      <trkpt lat="47.41859" lon="0.99844">
        <ele>78</ele>
        <time>2019-05-07T06:47:41Z</time>
      </trkpt>
      <trkpt lat="47.41883" lon="0.99907">
        <ele>68</ele>
        <time>2019-05-07T06:47:53Z</time>
      </trkpt>
      <trkpt lat="47.42034" lon="1.0022">
        <ele>74</ele>
        <time>2019-05-07T06:49:05Z</time>
      </trkpt>
      <trkpt lat="47.42195" lon="1.00492">
        <ele>61</ele>
        <time>2019-05-07T06:49:58Z</time>
      </trkpt>
      <trkpt lat="47.42378" lon="1.00823">
        <ele>60</ele>
        <time>2019-05-07T06:50:47Z</time>
      </trkpt>
      <trkpt lat="47.42589" lon="1.01238">
        <ele>61</ele>
        <time>2019-05-07T06:52:11Z</time>
      </trkpt>
      <trkpt lat="47.42706" lon="1.01432">
        <ele>58</ele>
        <time>2019-05-07T06:52:54Z</time>
      </trkpt>
      <trkpt lat="47.42791" lon="1.01616">
        <ele>61</ele>
        <time>2019-05-07T06:53:30Z</time>
      </trkpt>
      <trkpt lat="47.42893" lon="1.01784">
        <ele>61</ele>
        <time>2019-05-07T06:54:06Z</time>
      </trkpt>
      <trkpt lat="47.42954" lon="1.01946">
        <ele>59</ele>
        <time>2019-05-07T06:54:36Z</time>
      </trkpt>
      <trkpt lat="47.43056" lon="1.02261">
        <ele>59</ele>
        <time>2019-05-07T06:55:30Z</time>
      </trkpt>
      <trkpt lat="47.43239" lon="1.02774">
        <ele>61</ele>
        <time>2019-05-07T06:57:11Z</time>
      </trkpt>
      <trkpt lat="47.4333" lon="1.02911">
        <ele>59</ele>
        <time>2019-05-07T06:57:48Z</time>
      </trkpt>
      <trkpt lat="47.43356" lon="1.02963">
        <ele>59</ele>
        <time>2019-05-07T06:58:00Z</time>
      </trkpt>
      <trkpt lat="47.43347" lon="1.02996">
        <ele>59</ele>
        <time>2019-05-07T06:58:06Z</time>
      </trkpt>
      <trkpt lat="47.43351" lon="1.03029">
        <ele>61</ele>
        <time>2019-05-07T06:58:49Z</time>
      </trkpt>
      <trkpt lat="47.43293" lon="1.03094">
        <ele>61</ele>
        <time>2019-05-07T06:59:25Z</time>
      </trkpt>
      <trkpt lat="47.43293" lon="1.03111">
        <ele>61</ele>
        <time>2019-05-07T06:59:31Z</time>
      </trkpt>
      <trkpt lat="47.43309" lon="1.03154">
        <ele>74</ele>
        <time>2019-05-07T06:59:55Z</time>
      </trkpt>
      <trkpt lat="47.4351" lon="1.03473">
        <ele>68</ele>
        <time>2019-05-07T07:01:37Z</time>
      </trkpt>
      <trkpt lat="47.43762" lon="1.03989">
        <ele>64</ele>
        <time>2019-05-07T07:03:37Z</time>
      </trkpt>
      <trkpt lat="47.43863" lon="1.04236">
        <ele>75</ele>
        <time>2019-05-07T07:04:36Z</time>
      </trkpt>
      <trkpt lat="47.43899" lon="1.04306">
        <ele>75</ele>
        <time>2019-05-07T07:05:00Z</time>
      </trkpt>
      <trkpt lat="47.43962" lon="1.04483">
        <ele>66</ele>
        <time>2019-05-07T07:05:41Z</time>
      </trkpt>
      <trkpt lat="47.44089" lon="1.04779">
        <ele>72</ele>
        <time>2019-05-07T07:06:35Z</time>
      </trkpt>
      <trkpt lat="47.44179" lon="1.05013">
        <ele>73</ele>
        <time>2019-05-07T07:07:18Z</time>
      </trkpt>
      <trkpt lat="47.44247" lon="1.05224">
        <ele>74</ele>
        <time>2019-05-07T07:07:54Z</time>
      </trkpt>
      <trkpt lat="47.44272" lon="1.05267">
        <ele>74</ele>
        <time>2019-05-07T07:08:06Z</time>
      </trkpt>
      <trkpt lat="47.44323" lon="1.05456">
        <ele>66</ele>
        <time>2019-05-07T07:08:41Z</time>
      </trkpt>
      <trkpt lat="47.4438" lon="1.05603">
        <ele>79</ele>
        <time>2019-05-07T07:09:12Z</time>
      </trkpt>
      <trkpt lat="47.4446" lon="1.05879">
        <ele>83</ele>
        <time>2019-05-07T07:09:59Z</time>
      </trkpt>
      <trkpt lat="47.4453" lon="1.06036">
        <ele>79</ele>
        <time>2019-05-07T07:10:30Z</time>
      </trkpt>
      <trkpt lat="47.44542" lon="1.06075">
        <ele>79</ele>
        <time>2019-05-07T07:10:36Z</time>
      </trkpt>
      <trkpt lat="47.44557" lon="1.06174">
        <ele>85</ele>
        <time>2019-05-07T07:10:54Z</time>
      </trkpt>
      <trkpt lat="47.44606" lon="1.06348">
        <ele>67</ele>
        <time>2019-05-07T07:11:24Z</time>
      </trkpt>
      <trkpt lat="47.44729" lon="1.06702">
        <ele>69</ele>
        <time>2019-05-07T07:12:23Z</time>
      </trkpt>
      <trkpt lat="47.44847" lon="1.07122">
        <ele>86</ele>
        <time>2019-05-07T07:13:30Z</time>
      </trkpt>
      <trkpt lat="47.44981" lon="1.07628">
        <ele>72</ele>
        <time>2019-05-07T07:14:48Z</time>
      </trkpt>
      <trkpt lat="47.45052" lon="1.07923">
        <ele>68</ele>
        <time>2019-05-07T07:15:36Z</time>
      </trkpt>
      <trkpt lat="47.45375" lon="1.09381">
        <ele>77</ele>
        <time>2019-05-07T07:19:29Z</time>
      </trkpt>
      <trkpt lat="47.45484" lon="1.09804">
        <ele>73</ele>
        <time>2019-05-07T07:20:46Z</time>
      </trkpt>
      <trkpt lat="47.45528" lon="1.09944">
        <ele>66</ele>
        <time>2019-05-07T07:21:28Z</time>
      </trkpt>
      <trkpt lat="47.45538" lon="1.09947">
        <ele>66</ele>
        <time>2019-05-07T07:21:34Z</time>
      </trkpt>
      <trkpt lat="47.45582" lon="1.09893">
        <ele>66</ele>
        <time>2019-05-07T07:22:06Z</time>
      </trkpt>
      <trkpt lat="47.45651" lon="1.09848">
        <ele>62</ele>
        <time>2019-05-07T07:22:30Z</time>
      </trkpt>
      <trkpt lat="47.45755" lon="1.09759">
        <ele>62</ele>
        <time>2019-05-07T07:23:00Z</time>
      </trkpt>
      <trkpt lat="47.45824" lon="1.09723">
        <ele>62</ele>
        <time>2019-05-07T07:23:18Z</time>
      </trkpt>
      <trkpt lat="47.45852" lon="1.09697">
        <ele>62</ele>
        <time>2019-05-07T07:23:39Z</time>
      </trkpt>
      <trkpt lat="47.45866" lon="1.09748">
        <ele>65</ele>
        <time>2019-05-07T07:24:11Z</time>
      </trkpt>
      <trkpt lat="47.4586" lon="1.0968">
        <ele>62</ele>
        <time>2019-05-07T07:24:21Z</time>
      </trkpt>
      <trkpt lat="47.45817" lon="1.0952">
        <ele>60</ele>
        <time>2019-05-07T07:25:17Z</time>
      </trkpt>
      <trkpt lat="47.4584" lon="1.09473">
        <ele>60</ele>
        <time>2019-05-07T07:25:39Z</time>
      </trkpt>
      <trkpt lat="47.45935" lon="1.09408">
        <ele>59</ele>
        <time>2019-05-07T07:26:12Z</time>
      </trkpt>
      <trkpt lat="47.46096" lon="1.0932">
        <ele>61</ele>
        <time>2019-05-07T07:27:00Z</time>
      </trkpt>
      <trkpt lat="47.46127" lon="1.09338">
        <ele>61</ele>
        <time>2019-05-07T07:27:12Z</time>
      </trkpt>
      <trkpt lat="47.46226" lon="1.09749">
        <ele>64</ele>
        <time>2019-05-07T07:28:36Z</time>
      </trkpt>
      <trkpt lat="47.46235" lon="1.09755">
        <ele>64</ele>
        <time>2019-05-07T07:28:48Z</time>
      </trkpt>
      <trkpt lat="47.46248" lon="1.09808">
        <ele>58</ele>
        <time>2019-05-07T07:29:00Z</time>
      </trkpt>
      <trkpt lat="47.46257" lon="1.09912">
        <ele>60</ele>
        <time>2019-05-07T07:29:24Z</time>
      </trkpt>
      <trkpt lat="47.46242" lon="1.10041">
        <ele>67</ele>
        <time>2019-05-07T07:29:48Z</time>
      </trkpt>
      <trkpt lat="47.46251" lon="1.10257">
        <ele>60</ele>
        <time>2019-05-07T07:30:24Z</time>
      </trkpt>
      <trkpt lat="47.46278" lon="1.10447">
        <ele>69</ele>
        <time>2019-05-07T07:30:54Z</time>
      </trkpt>
      <trkpt lat="47.46333" lon="1.10714">
        <ele>64</ele>
        <time>2019-05-07T07:31:36Z</time>
      </trkpt>
      <trkpt lat="47.46367" lon="1.10927">
        <ele>63</ele>
        <time>2019-05-07T07:32:12Z</time>
      </trkpt>
      <trkpt lat="47.46377" lon="1.1104">
        <ele>67</ele>
        <time>2019-05-07T07:32:30Z</time>
      </trkpt>
      <trkpt lat="47.46409" lon="1.11187">
        <ele>69</ele>
        <time>2019-05-07T07:32:54Z</time>
      </trkpt>
      <trkpt lat="47.46427" lon="1.11308">
        <ele>65</ele>
        <time>2019-05-07T07:33:12Z</time>
      </trkpt>
      <trkpt lat="47.46487" lon="1.11579">
        <ele>63</ele>
        <time>2019-05-07T07:34:00Z</time>
      </trkpt>
      <trkpt lat="47.46512" lon="1.11723">
        <ele>63</ele>
        <time>2019-05-07T07:34:24Z</time>
      </trkpt>
      <trkpt lat="47.4657" lon="1.11957">
        <ele>61</ele>
        <time>2019-05-07T07:35:06Z</time>
      </trkpt>
      <trkpt lat="47.46666" lon="1.12306">
        <ele>60</ele>
        <time>2019-05-07T07:36:12Z</time>
      </trkpt>
      <trkpt lat="47.46771" lon="1.12651">
        <ele>64</ele>
        <time>2019-05-07T07:37:18Z</time>
      </trkpt>
      <trkpt lat="47.46798" lon="1.12764">
        <ele>67</ele>
        <time>2019-05-07T07:37:42Z</time>
      </trkpt>
      <trkpt lat="47.46779" lon="1.13045">
        <ele>62</ele>
        <time>2019-05-07T07:38:36Z</time>
      </trkpt>
      <trkpt lat="47.46823" lon="1.13253">
        <ele>60</ele>
        <time>2019-05-07T07:39:12Z</time>
      </trkpt>
      <trkpt lat="47.46832" lon="1.13319">
        <ele>61</ele>
        <time>2019-05-07T07:39:24Z</time>
      </trkpt>
      <trkpt lat="47.46832" lon="1.13413">
        <ele>61</ele>
        <time>2019-05-07T07:39:42Z</time>
      </trkpt>
      <trkpt lat="47.46767" lon="1.13545">
        <ele>63</ele>
        <time>2019-05-07T07:40:18Z</time>
      </trkpt>
      <trkpt lat="47.46751" lon="1.13547">
        <ele>63</ele>
        <time>2019-05-07T07:40:24Z</time>
      </trkpt>
      <trkpt lat="47.46739" lon="1.13534">
        <ele>63</ele>
        <time>2019-05-07T07:40:45Z</time>
      </trkpt>
      <trkpt lat="47.46708" lon="1.13503">
        <ele>67</ele>
        <time>2019-05-07T07:40:58Z</time>
      </trkpt>
      <trkpt lat="47.46676" lon="1.13493">
        <ele>67</ele>
        <time>2019-05-07T07:41:10Z</time>
      </trkpt>
      <trkpt lat="47.46655" lon="1.13557">
        <ele>67</ele>
        <time>2019-05-07T07:41:34Z</time>
      </trkpt>
      <trkpt lat="47.46647" lon="1.13612">
        <ele>74</ele>
        <time>2019-05-07T07:41:58Z</time>
      </trkpt>
      <trkpt lat="47.46666" lon="1.13655">
        <ele>74</ele>
        <time>2019-05-07T07:42:22Z</time>
      </trkpt>
      <trkpt lat="47.46686" lon="1.1374">
        <ele>83</ele>
        <time>2019-05-07T07:42:58Z</time>
      </trkpt>
      <trkpt lat="47.46684" lon="1.13768">
        <ele>83</ele>
        <time>2019-05-07T07:43:10Z</time>
      </trkpt>
      <trkpt lat="47.46657" lon="1.13802">
        <ele>83</ele>
        <time>2019-05-07T07:43:28Z</time>
      </trkpt>
      <trkpt lat="47.46605" lon="1.13825">
        <ele>85</ele>
        <time>2019-05-07T07:43:58Z</time>
      </trkpt>
      <trkpt lat="47.46585" lon="1.13855">
        <ele>86</ele>
        <time>2019-05-07T07:44:16Z</time>
      </trkpt>
      <trkpt lat="47.46606" lon="1.13897">
        <ele>86</ele>
        <time>2019-05-07T07:44:46Z</time>
      </trkpt>
      <trkpt lat="47.46641" lon="1.13932">
        <ele>84</ele>
        <time>2019-05-07T07:45:10Z</time>
      </trkpt>
      <trkpt lat="47.46663" lon="1.13968">
        <ele>84</ele>
        <time>2019-05-07T07:45:22Z</time>
      </trkpt>
      <trkpt lat="47.46695" lon="1.14115">
        <ele>84</ele>
        <time>2019-05-07T07:45:52Z</time>
      </trkpt>
      <trkpt lat="47.46699" lon="1.14163">
        <ele>85</ele>
        <time>2019-05-07T07:46:04Z</time>
      </trkpt>
      <trkpt lat="47.4669" lon="1.14213">
        <ele>85</ele>
        <time>2019-05-07T07:46:16Z</time>
      </trkpt>
      <trkpt lat="47.4669" lon="1.14268">
        <ele>84</ele>
        <time>2019-05-07T07:46:28Z</time>
      </trkpt>
      <trkpt lat="47.46735" lon="1.14393">
        <ele>88</ele>
        <time>2019-05-07T07:46:58Z</time>
      </trkpt>
      <trkpt lat="47.46753" lon="1.14501">
        <ele>90</ele>
        <time>2019-05-07T07:47:22Z</time>
      </trkpt>
      <trkpt lat="47.46759" lon="1.14668">
        <ele>91</ele>
        <time>2019-05-07T07:48:04Z</time>
      </trkpt>
      <trkpt lat="47.46814" lon="1.14881">
        <ele>92</ele>
        <time>2019-05-07T07:48:58Z</time>
      </trkpt>
      <trkpt lat="47.4681" lon="1.14987">
        <ele>93</ele>
        <time>2019-05-07T07:49:22Z</time>
      </trkpt>
      <trkpt lat="47.46819" lon="1.15219">
        <ele>94</ele>
        <time>2019-05-07T07:50:10Z</time>
      </trkpt>
      <trkpt lat="47.46826" lon="1.15236">
        <ele>94</ele>
        <time>2019-05-07T07:50:16Z</time>
      </trkpt>
      <trkpt lat="47.46873" lon="1.15247">
        <ele>94</ele>
        <time>2019-05-07T07:50:34Z</time>
      </trkpt>
      <trkpt lat="47.46898" lon="1.15262">
        <ele>92</ele>
        <time>2019-05-07T07:50:46Z</time>
      </trkpt>
      <trkpt lat="47.46904" lon="1.15351">
        <ele>92</ele>
        <time>2019-05-07T07:51:10Z</time>
      </trkpt>
      <trkpt lat="47.46916" lon="1.15423">
        <ele>91</ele>
        <time>2019-05-07T07:51:22Z</time>
      </trkpt>
      <trkpt lat="47.47062" lon="1.15826">
        <ele>96</ele>
        <time>2019-05-07T07:53:22Z</time>
      </trkpt>
      <trkpt lat="47.47241" lon="1.16158">
        <ele>97</ele>
        <time>2019-05-07T07:54:52Z</time>
      </trkpt>
      <trkpt lat="47.47298" lon="1.16231">
        <ele>96</ele>
        <time>2019-05-07T07:55:10Z</time>
      </trkpt>
      <trkpt lat="47.47356" lon="1.16381">
        <ele>92</ele>
        <time>2019-05-07T07:55:28Z</time>
      </trkpt>
      <trkpt lat="47.47386" lon="1.16419">
        <ele>86</ele>
        <time>2019-05-07T07:55:34Z</time>
      </trkpt>
      <trkpt lat="47.47466" lon="1.164">
        <ele>76</ele>
        <time>2019-05-07T07:55:46Z</time>
      </trkpt>
      <trkpt lat="47.47521" lon="1.16532">
        <ele>74</ele>
        <time>2019-05-07T07:55:58Z</time>
      </trkpt>
      <trkpt lat="47.47617" lon="1.16693">
        <ele>71</ele>
        <time>2019-05-07T07:56:22Z</time>
      </trkpt>
      <trkpt lat="47.47683" lon="1.16924">
        <ele>73</ele>
        <time>2019-05-07T07:56:58Z</time>
      </trkpt>
      <trkpt lat="47.47738" lon="1.17172">
        <ele>61</ele>
        <time>2019-05-07T07:57:34Z</time>
      </trkpt>
      <trkpt lat="47.47794" lon="1.17364">
        <ele>75</ele>
        <time>2019-05-07T07:58:04Z</time>
      </trkpt>
      <trkpt lat="47.47838" lon="1.17565">
        <ele>70</ele>
        <time>2019-05-07T07:58:34Z</time>
      </trkpt>
      <trkpt lat="47.47941" lon="1.17891">
        <ele>62</ele>
        <time>2019-05-07T07:59:46Z</time>
      </trkpt>
      <trkpt lat="47.48018" lon="1.18213">
        <ele>63</ele>
        <time>2019-05-07T08:01:04Z</time>
      </trkpt>
      <trkpt lat="47.48026" lon="1.18264">
        <ele>66</ele>
        <time>2019-05-07T08:01:22Z</time>
      </trkpt>
      <trkpt lat="47.48022" lon="1.18282">
        <ele>66</ele>
        <time>2019-05-07T08:01:41Z</time>
      </trkpt>
      <trkpt lat="47.48075" lon="1.18402">
        <ele>74</ele>
        <time>2019-05-07T08:02:20Z</time>
      </trkpt>
      <trkpt lat="47.48159" lon="1.18653">
        <ele>72</ele>
        <time>2019-05-07T08:03:14Z</time>
      </trkpt>
      <trkpt lat="47.48292" lon="1.18962">
        <ele>61</ele>
        <time>2019-05-07T08:04:26Z</time>
      </trkpt>
      <trkpt lat="47.48324" lon="1.19069">
        <ele>62</ele>
        <time>2019-05-07T08:04:53Z</time>
      </trkpt>
      <trkpt lat="47.48295" lon="1.19094">
        <ele>62</ele>
        <time>2019-05-07T08:05:06Z</time>
      </trkpt>
      <trkpt lat="47.48248" lon="1.19166">
        <ele>64</ele>
        <time>2019-05-07T08:05:30Z</time>
      </trkpt>
      <trkpt lat="47.4823" lon="1.1917">
        <ele>64</ele>
        <time>2019-05-07T08:05:42Z</time>
      </trkpt>
      <trkpt lat="47.48218" lon="1.19193">
        <ele>64</ele>
        <time>2019-05-07T08:06:01Z</time>
      </trkpt>
      <trkpt lat="47.48225" lon="1.19176">
        <ele>64</ele>
        <time>2019-05-07T08:06:17Z</time>
      </trkpt>
      <trkpt lat="47.48246" lon="1.19173">
        <ele>64</ele>
        <time>2019-05-07T08:06:24Z</time>
      </trkpt>
      <trkpt lat="47.483" lon="1.19097">
        <ele>62</ele>
        <time>2019-05-07T08:06:54Z</time>
      </trkpt>
      <trkpt lat="47.48326" lon="1.19079">
        <ele>62</ele>
        <time>2019-05-07T08:07:06Z</time>
      </trkpt>
      <trkpt lat="47.48411" lon="1.19342">
        <ele>64</ele>
        <time>2019-05-07T08:08:06Z</time>
      </trkpt>
      <trkpt lat="47.48526" lon="1.19587">
        <ele>66</ele>
        <time>2019-05-07T08:09:06Z</time>
      </trkpt>
      <trkpt lat="47.48557" lon="1.19634">
        <ele>64</ele>
        <time>2019-05-07T08:09:18Z</time>
      </trkpt>
      <trkpt lat="47.48596" lon="1.19715">
        <ele>66</ele>
        <time>2019-05-07T08:09:36Z</time>
      </trkpt>
      <trkpt lat="47.48647" lon="1.19875">
        <ele>66</ele>
        <time>2019-05-07T08:10:12Z</time>
      </trkpt>
      <trkpt lat="47.4877" lon="1.20125">
        <ele>70</ele>
        <time>2019-05-07T08:11:12Z</time>
      </trkpt>
      <trkpt lat="47.48895" lon="1.20303">
        <ele>68</ele>
        <time>2019-05-07T08:11:48Z</time>
      </trkpt>
      <trkpt lat="47.48931" lon="1.20377">
        <ele>68</ele>
        <time>2019-05-07T08:12:00Z</time>
      </trkpt>
      <trkpt lat="47.48971" lon="1.20514">
        <ele>66</ele>
        <time>2019-05-07T08:12:24Z</time>
      </trkpt>
      <trkpt lat="47.48999" lon="1.20652">
        <ele>66</ele>
        <time>2019-05-07T08:12:48Z</time>
      </trkpt>
      <trkpt lat="47.49051" lon="1.20864">
        <ele>64</ele>
        <time>2019-05-07T08:13:24Z</time>
      </trkpt>
      <trkpt lat="47.49074" lon="1.2105">
        <ele>66</ele>
        <time>2019-05-07T08:13:54Z</time>
      </trkpt>
      <trkpt lat="47.49104" lon="1.21184">
        <ele>69</ele>
        <time>2019-05-07T08:14:18Z</time>
      </trkpt>
      <trkpt lat="47.49097" lon="1.21339">
        <ele>68</ele>
        <time>2019-05-07T08:14:42Z</time>
      </trkpt>
      <trkpt lat="47.49112" lon="1.21455">
        <ele>69</ele>
        <time>2019-05-07T08:15:00Z</time>
      </trkpt>
      <trkpt lat="47.49119" lon="1.21575">
        <ele>69</ele>
        <time>2019-05-07T08:15:18Z</time>
      </trkpt>
      <trkpt lat="47.49103" lon="1.22022">
        <ele>67</ele>
        <time>2019-05-07T08:16:30Z</time>
      </trkpt>
      <trkpt lat="47.49079" lon="1.22293">
        <ele>66</ele>
        <time>2019-05-07T08:17:06Z</time>
      </trkpt>
      <trkpt lat="47.49072" lon="1.22463">
        <ele>65</ele>
        <time>2019-05-07T08:17:30Z</time>
      </trkpt>
      <trkpt lat="47.4906" lon="1.22521">
        <ele>65</ele>
        <time>2019-05-07T08:17:42Z</time>
      </trkpt>
      <trkpt lat="47.49078" lon="1.22664">
        <ele>65</ele>
        <time>2019-05-07T08:18:06Z</time>
      </trkpt>
      <trkpt lat="47.49083" lon="1.22786">
        <ele>67</ele>
        <time>2019-05-07T08:18:24Z</time>
      </trkpt>
      <trkpt lat="47.49165" lon="1.2334">
        <ele>66</ele>
        <time>2019-05-07T08:19:48Z</time>
      </trkpt>
      <trkpt lat="47.49175" lon="1.23492">
        <ele>67</ele>
        <time>2019-05-07T08:20:12Z</time>
      </trkpt>
      <trkpt lat="47.49207" lon="1.2361">
        <ele>68</ele>
        <time>2019-05-07T08:20:30Z</time>
      </trkpt>
      <trkpt lat="47.49233" lon="1.23737">
        <ele>66</ele>
        <time>2019-05-07T08:20:54Z</time>
      </trkpt>
      <trkpt lat="47.49324" lon="1.24046">
        <ele>62</ele>
        <time>2019-05-07T08:21:48Z</time>
      </trkpt>
      <trkpt lat="47.49323" lon="1.24112">
        <ele>62</ele>
        <time>2019-05-07T08:22:00Z</time>
      </trkpt>
      <trkpt lat="47.49278" lon="1.24311">
        <ele>65</ele>
        <time>2019-05-07T08:22:30Z</time>
      </trkpt>
      <trkpt lat="47.49269" lon="1.24436">
        <ele>65</ele>
        <time>2019-05-07T08:22:48Z</time>
      </trkpt>
      <trkpt lat="47.49286" lon="1.24477">
        <ele>65</ele>
        <time>2019-05-07T08:22:54Z</time>
      </trkpt>
      <trkpt lat="47.49346" lon="1.24547">
        <ele>62</ele>
        <time>2019-05-07T08:23:12Z</time>
      </trkpt>
      <trkpt lat="47.49416" lon="1.24682">
        <ele>63</ele>
        <time>2019-05-07T08:23:36Z</time>
      </trkpt>
      <trkpt lat="47.49443" lon="1.24748">
        <ele>63</ele>
        <time>2019-05-07T08:23:48Z</time>
      </trkpt>
      <trkpt lat="47.49462" lon="1.24821">
        <ele>63</ele>
        <time>2019-05-07T08:24:00Z</time>
      </trkpt>
      <trkpt lat="47.49459" lon="1.24898">
        <ele>64</ele>
        <time>2019-05-07T08:24:12Z</time>
      </trkpt>
      <trkpt lat="47.49479" lon="1.25127">
        <ele>64</ele>
        <time>2019-05-07T08:24:48Z</time>
      </trkpt>
      <trkpt lat="47.49477" lon="1.25226">
        <ele>64</ele>
        <time>2019-05-07T08:25:06Z</time>
      </trkpt>
      <trkpt lat="47.49416" lon="1.25508">
        <ele>65</ele>
        <time>2019-05-07T08:25:54Z</time>
      </trkpt>
      <trkpt lat="47.49361" lon="1.25634">
        <ele>64</ele>
        <time>2019-05-07T08:26:18Z</time>
      </trkpt>
      <trkpt lat="47.49341" lon="1.257">
        <ele>65</ele>
        <time>2019-05-07T08:26:30Z</time>
      </trkpt>
      <trkpt lat="47.49345" lon="1.25768">
        <ele>65</ele>
        <time>2019-05-07T08:26:42Z</time>
      </trkpt>
      <trkpt lat="47.49372" lon="1.25899">
        <ele>66</ele>
        <time>2019-05-07T08:27:12Z</time>
      </trkpt>
      <trkpt lat="47.49384" lon="1.26004">
        <ele>67</ele>
        <time>2019-05-07T08:27:42Z</time>
      </trkpt>
      <trkpt lat="47.49445" lon="1.26024">
        <ele>67</ele>
        <time>2019-05-07T08:28:06Z</time>
      </trkpt>
      <trkpt lat="47.49453" lon="1.2602">
        <ele>67</ele>
        <time>2019-05-07T08:28:18Z</time>
      </trkpt>
      <trkpt lat="47.49449" lon="1.26026">
        <ele>67</ele>
        <time>2019-05-07T08:28:26Z</time>
      </trkpt>
      <trkpt lat="47.49451" lon="1.2609">
        <ele>70</ele>
        <time>2019-05-07T08:28:56Z</time>
      </trkpt>
      <trkpt lat="47.49508" lon="1.26161">
        <ele>80</ele>
        <time>2019-05-07T08:30:02Z</time>
      </trkpt>
      <trkpt lat="47.49528" lon="1.26218">
        <ele>82</ele>
        <time>2019-05-07T08:30:38Z</time>
      </trkpt>
      <trkpt lat="47.49569" lon="1.26244">
        <ele>82</ele>
        <time>2019-05-07T08:31:26Z</time>
      </trkpt>
      <trkpt lat="47.49575" lon="1.26214">
        <ele>82</ele>
        <time>2019-05-07T08:31:50Z</time>
      </trkpt>
      <trkpt lat="47.49562" lon="1.26161">
        <ele>80</ele>
        <time>2019-05-07T08:32:10Z</time>
      </trkpt>
      <trkpt lat="47.49555" lon="1.26089">
        <ele>80</ele>
        <time>2019-05-07T08:32:34Z</time>
      </trkpt>
      <trkpt lat="47.49554" lon="1.26001">
        <ele>77</ele>
        <time>2019-05-07T08:33:04Z</time>
      </trkpt>
      <trkpt lat="47.49547" lon="1.26043">
        <ele>77</ele>
        <time>2019-05-07T08:33:22Z</time>
      </trkpt>
      <trkpt lat="47.49557" lon="1.26096">
        <ele>80</ele>
        <time>2019-05-07T08:33:34Z</time>
      </trkpt>
      <trkpt lat="47.49563" lon="1.26198">
        <ele>80</ele>
        <time>2019-05-07T08:33:52Z</time>
      </trkpt>
      <trkpt lat="47.49581" lon="1.26254">
        <ele>82</ele>
        <time>2019-05-07T08:34:04Z</time>
      </trkpt>
      <trkpt lat="47.49616" lon="1.26299">
        <ele>84</ele>
        <time>2019-05-07T08:34:34Z</time>
      </trkpt>
      <trkpt lat="47.49658" lon="1.26316">
        <ele>84</ele>
        <time>2019-05-07T08:34:58Z</time>
      </trkpt>
      <trkpt lat="47.49743" lon="1.26273">
        <ele>88</ele>
        <time>2019-05-07T08:35:52Z</time>
      </trkpt>
      <trkpt lat="47.49744" lon="1.26302">
        <ele>88</ele>
        <time>2019-05-07T08:36:04Z</time>
      </trkpt>
      <trkpt lat="47.49757" lon="1.26356">
        <ele>89</ele>
        <time>2019-05-07T08:36:22Z</time>
      </trkpt>
      <trkpt lat="47.49778" lon="1.26357">
        <ele>89</ele>
        <time>2019-05-07T08:36:52Z</time>
      </trkpt>
      <trkpt lat="47.49776" lon="1.26347">
        <ele>89</ele>
        <time>2019-05-07T08:37:04Z</time>
      </trkpt>
      <trkpt lat="47.49797" lon="1.26334">
        <ele>91</ele>
        <time>2019-05-07T08:37:16Z</time>
      </trkpt>
      <trkpt lat="47.49806" lon="1.26343">
        <ele>89</ele>
        <time>2019-05-07T08:37:28Z</time>
      </trkpt>
      <trkpt lat="47.49781" lon="1.26361">
        <ele>89</ele>
        <time>2019-05-07T08:37:49Z</time>
      </trkpt>
      <trkpt lat="47.49784" lon="1.26379">
        <ele>89</ele>
        <time>2019-05-07T08:37:55Z</time>
      </trkpt>
      <trkpt lat="47.49775" lon="1.26424">
        <ele>89</ele>
        <time>2019-05-07T08:38:13Z</time>
      </trkpt>
      <trkpt lat="47.49918" lon="1.2669">
        <ele>92</ele>
        <time>2019-05-07T08:39:37Z</time>
      </trkpt>
      <trkpt lat="47.49968" lon="1.268">
        <ele>94</ele>
        <time>2019-05-07T08:40:07Z</time>
      </trkpt>
      <trkpt lat="47.50091" lon="1.26992">
        <ele>94</ele>
        <time>2019-05-07T08:41:07Z</time>
      </trkpt>
      <trkpt lat="47.50136" lon="1.27045">
        <ele>97</ele>
        <time>2019-05-07T08:41:25Z</time>
      </trkpt>
      <trkpt lat="47.50217" lon="1.27112">
        <ele>95</ele>
        <time>2019-05-07T08:41:49Z</time>
      </trkpt>
      <trkpt lat="47.50354" lon="1.27176">
        <ele>102</ele>
        <time>2019-05-07T08:42:31Z</time>
      </trkpt>
      <trkpt lat="47.50482" lon="1.27283">
        <ele>94</ele>
        <time>2019-05-07T08:43:31Z</time>
      </trkpt>
      <trkpt lat="47.50708" lon="1.27587">
        <ele>98</ele>
        <time>2019-05-07T08:45:25Z</time>
      </trkpt>
      <trkpt lat="47.5083" lon="1.27767">
        <ele>96</ele>
        <time>2019-05-07T08:46:19Z</time>
      </trkpt>
      <trkpt lat="47.50972" lon="1.27937">
        <ele>91</ele>
        <time>2019-05-07T08:46:55Z</time>
      </trkpt>
      <trkpt lat="47.51044" lon="1.28072">
        <ele>90</ele>
        <time>2019-05-07T08:47:13Z</time>
      </trkpt>
      <trkpt lat="47.51114" lon="1.28154">
        <ele>90</ele>
        <time>2019-05-07T08:47:37Z</time>
      </trkpt>
      <trkpt lat="47.51161" lon="1.28177">
        <ele>90</ele>
        <time>2019-05-07T08:47:49Z</time>
      </trkpt>
      <trkpt lat="47.51314" lon="1.28177">
        <ele>79</ele>
        <time>2019-05-07T08:48:07Z</time>
      </trkpt>
      <trkpt lat="47.51421" lon="1.28188">
        <ele>71</ele>
        <time>2019-05-07T08:48:19Z</time>
      </trkpt>
      <trkpt lat="47.51453" lon="1.28206">
        <ele>68</ele>
        <time>2019-05-07T08:48:25Z</time>
      </trkpt>
      <trkpt lat="47.51514" lon="1.28274">
        <ele>71</ele>
        <time>2019-05-07T08:48:37Z</time>
      </trkpt>
      <trkpt lat="47.51579" lon="1.28318">
        <ele>68</ele>
        <time>2019-05-07T08:48:49Z</time>
      </trkpt>
      <trkpt lat="47.51629" lon="1.28377">
        <ele>67</ele>
        <time>2019-05-07T08:49:01Z</time>
      </trkpt>
      <trkpt lat="47.51656" lon="1.28423">
        <ele>75</ele>
        <time>2019-05-07T08:49:13Z</time>
      </trkpt>
      <trkpt lat="47.5163" lon="1.28536">
        <ele>75</ele>
        <time>2019-05-07T08:49:55Z</time>
      </trkpt>
      <trkpt lat="47.51624" lon="1.28612">
        <ele>80</ele>
        <time>2019-05-07T08:50:25Z</time>
      </trkpt>
      <trkpt lat="47.51642" lon="1.28721">
        <ele>83</ele>
        <time>2019-05-07T08:51:01Z</time>
      </trkpt>
      <trkpt lat="47.51678" lon="1.28825">
        <ele>86</ele>
        <time>2019-05-07T08:51:31Z</time>
      </trkpt>
      <trkpt lat="47.51671" lon="1.28881">
        <ele>86</ele>
        <time>2019-05-07T08:51:49Z</time>
      </trkpt>
      <trkpt lat="47.51658" lon="1.28923">
        <ele>86</ele>
        <time>2019-05-07T08:52:07Z</time>
      </trkpt>
      <trkpt lat="47.51693" lon="1.29067">
        <ele>87</ele>
        <time>2019-05-07T08:52:43Z</time>
      </trkpt>
      <trkpt lat="47.51722" lon="1.29129">
        <ele>86</ele>
        <time>2019-05-07T08:52:55Z</time>
      </trkpt>
      <trkpt lat="47.51755" lon="1.29179">
        <ele>86</ele>
        <time>2019-05-07T08:53:07Z</time>
      </trkpt>
      <trkpt lat="47.51772" lon="1.29169">
        <ele>86</ele>
        <time>2019-05-07T08:53:13Z</time>
      </trkpt>
      <trkpt lat="47.51802" lon="1.29075">
        <ele>85</ele>
        <time>2019-05-07T08:53:25Z</time>
      </trkpt>
      <trkpt lat="47.51889" lon="1.28972">
        <ele>81</ele>
        <time>2019-05-07T08:53:43Z</time>
      </trkpt>
      <trkpt lat="47.51903" lon="1.28903">
        <ele>82</ele>
        <time>2019-05-07T08:53:49Z</time>
      </trkpt>
      <trkpt lat="47.51966" lon="1.28704">
        <ele>76</ele>
        <time>2019-05-07T08:54:07Z</time>
      </trkpt>
      <trkpt lat="47.51995" lon="1.28655">
        <ele>73</ele>
        <time>2019-05-07T08:54:19Z</time>
      </trkpt>
      <trkpt lat="47.52122" lon="1.28785">
        <ele>69</ele>
        <time>2019-05-07T08:54:55Z</time>
      </trkpt>
      <trkpt lat="47.52307" lon="1.28999">
        <ele>70</ele>
        <time>2019-05-07T08:55:49Z</time>
      </trkpt>
      <trkpt lat="47.52546" lon="1.29355">
        <ele>70</ele>
        <time>2019-05-07T08:57:13Z</time>
      </trkpt>
      <trkpt lat="47.52635" lon="1.29433">
        <ele>74</ele>
        <time>2019-05-07T08:57:37Z</time>
      </trkpt>
      <trkpt lat="47.52687" lon="1.29498">
        <ele>71</ele>
        <time>2019-05-07T08:57:55Z</time>
      </trkpt>
      <trkpt lat="47.52749" lon="1.29601">
        <ele>79</ele>
        <time>2019-05-07T08:58:25Z</time>
      </trkpt>
      <trkpt lat="47.52768" lon="1.29649">
        <ele>87</ele>
        <time>2019-05-07T08:58:37Z</time>
      </trkpt>
      <trkpt lat="47.52833" lon="1.29733">
        <ele>87</ele>
        <time>2019-05-07T08:59:01Z</time>
      </trkpt>
      <trkpt lat="47.52912" lon="1.29714">
        <ele>80</ele>
        <time>2019-05-07T08:59:13Z</time>
      </trkpt>
      <trkpt lat="47.52978" lon="1.29655">
        <ele>75</ele>
        <time>2019-05-07T08:59:25Z</time>
      </trkpt>
      <trkpt lat="47.53049" lon="1.29675">
        <ele>70</ele>
        <time>2019-05-07T08:59:37Z</time>
      </trkpt>
      <trkpt lat="47.53133" lon="1.29741">
        <ele>69</ele>
        <time>2019-05-07T08:59:49Z</time>
      </trkpt>
      <trkpt lat="47.53225" lon="1.29846">
        <ele>71</ele>
        <time>2019-05-07T09:00:13Z</time>
      </trkpt>
      <trkpt lat="47.53344" lon="1.29958">
        <ele>68</ele>
        <time>2019-05-07T09:00:43Z</time>
      </trkpt>
      <trkpt lat="47.53534" lon="1.30163">
        <ele>66</ele>
        <time>2019-05-07T09:01:37Z</time>
      </trkpt>
      <trkpt lat="47.53685" lon="1.30411">
        <ele>71</ele>
        <time>2019-05-07T09:02:31Z</time>
      </trkpt>
      <trkpt lat="47.53792" lon="1.30568">
        <ele>73</ele>
        <time>2019-05-07T09:03:13Z</time>
      </trkpt>
      <trkpt lat="47.53919" lon="1.30392">
        <ele>69</ele>
        <time>2019-05-07T09:03:55Z</time>
      </trkpt>
      <trkpt lat="47.53965" lon="1.30415">
        <ele>65</ele>
        <time>2019-05-07T09:04:07Z</time>
      </trkpt>
      <trkpt lat="47.54058" lon="1.30553">
        <ele>66</ele>
        <time>2019-05-07T09:04:37Z</time>
      </trkpt>
      <trkpt lat="47.54111" lon="1.30593">
        <ele>66</ele>
        <time>2019-05-07T09:04:55Z</time>
      </trkpt>
      <trkpt lat="47.54155" lon="1.30647">
        <ele>67</ele>
        <time>2019-05-07T09:05:07Z</time>
      </trkpt>
      <trkpt lat="47.54176" lon="1.30746">
        <ele>66</ele>
        <time>2019-05-07T09:05:25Z</time>
      </trkpt>
      <trkpt lat="47.54244" lon="1.30866">
        <ele>66</ele>
        <time>2019-05-07T09:05:49Z</time>
      </trkpt>
      <trkpt lat="47.54254" lon="1.30897">
        <ele>67</ele>
        <time>2019-05-07T09:05:55Z</time>
      </trkpt>
      <trkpt lat="47.54255" lon="1.30962">
        <ele>67</ele>
        <time>2019-05-07T09:06:07Z</time>
      </trkpt>
      <trkpt lat="47.543" lon="1.30968">
        <ele>67</ele>
        <time>2019-05-07T09:06:19Z</time>
      </trkpt>
      <trkpt lat="47.54323" lon="1.30954">
        <ele>67</ele>
        <time>2019-05-07T09:06:25Z</time>
      </trkpt>
      <trkpt lat="47.54385" lon="1.30883">
        <ele>67</ele>
        <time>2019-05-07T09:06:49Z</time>
      </trkpt>
      <trkpt lat="47.54872" lon="1.30192">
        <ele>66</ele>
        <time>2019-05-07T09:09:13Z</time>
      </trkpt>
      <trkpt lat="47.5488" lon="1.30183">
        <ele>67</ele>
        <time>2019-05-07T09:09:21Z</time>
      </trkpt>
      <trkpt lat="47.54896" lon="1.30188">
        <ele>67</ele>
        <time>2019-05-07T09:09:29Z</time>
      </trkpt>
      <trkpt lat="47.54944" lon="1.30118">
        <ele>67</ele>
        <time>2019-05-07T09:09:47Z</time>
      </trkpt>
      <trkpt lat="47.5497" lon="1.30118">
        <ele>66</ele>
        <time>2019-05-07T09:09:53Z</time>
      </trkpt>
      <trkpt lat="47.55015" lon="1.30161">
        <ele>66</ele>
        <time>2019-05-07T09:10:05Z</time>
      </trkpt>
      <trkpt lat="47.55058" lon="1.3019">
        <ele>66</ele>
        <time>2019-05-07T09:10:17Z</time>
      </trkpt>
      <trkpt lat="47.5518" lon="1.29935">
        <ele>68</ele>
        <time>2019-05-07T09:11:11Z</time>
      </trkpt>
      <trkpt lat="47.55201" lon="1.29938">
        <ele>68</ele>
        <time>2019-05-07T09:11:17Z</time>
      </trkpt>
      <trkpt lat="47.55322" lon="1.30034">
        <ele>67</ele>
        <time>2019-05-07T09:11:53Z</time>
      </trkpt>
      <trkpt lat="47.55351" lon="1.29981">
        <ele>67</ele>
        <time>2019-05-07T09:12:05Z</time>
      </trkpt>
      <trkpt lat="47.5539" lon="1.2996">
        <ele>67</ele>
        <time>2019-05-07T09:12:17Z</time>
      </trkpt>
      <trkpt lat="47.55436" lon="1.29992">
        <ele>67</ele>
        <time>2019-05-07T09:12:29Z</time>
      </trkpt>
      <trkpt lat="47.55454" lon="1.30017">
        <ele>67</ele>
        <time>2019-05-07T09:12:35Z</time>
      </trkpt>
      <trkpt lat="47.555" lon="1.30057">
        <ele>66</ele>
        <time>2019-05-07T09:12:47Z</time>
      </trkpt>
      <trkpt lat="47.55584" lon="1.301">
        <ele>65</ele>
        <time>2019-05-07T09:13:05Z</time>
      </trkpt>
      <trkpt lat="47.55759" lon="1.30233">
        <ele>68</ele>
        <time>2019-05-07T09:13:47Z</time>
      </trkpt>
      <trkpt lat="47.56165" lon="1.30556">
        <ele>68</ele>
        <time>2019-05-07T09:15:39Z</time>
      </trkpt>
      <trkpt lat="47.56398" lon="1.30782">
        <ele>68</ele>
        <time>2019-05-07T09:16:39Z</time>
      </trkpt>
      <trkpt lat="47.56679" lon="1.31082">
        <ele>69</ele>
        <time>2019-05-07T09:17:45Z</time>
      </trkpt>
      <trkpt lat="47.56727" lon="1.3114">
        <ele>69</ele>
        <time>2019-05-07T09:17:57Z</time>
      </trkpt>
      <trkpt lat="47.56759" lon="1.31206">
        <ele>67</ele>
        <time>2019-05-07T09:18:09Z</time>
      </trkpt>
      <trkpt lat="47.56779" lon="1.31232">
        <ele>67</ele>
        <time>2019-05-07T09:18:15Z</time>
      </trkpt>
      <trkpt lat="47.56836" lon="1.31279">
        <ele>65</ele>
        <time>2019-05-07T09:18:27Z</time>
      </trkpt>
      <trkpt lat="47.56927" lon="1.31408">
        <ele>65</ele>
        <time>2019-05-07T09:18:51Z</time>
      </trkpt>
      <trkpt lat="47.57251" lon="1.32038">
        <ele>70</ele>
        <time>2019-05-07T09:20:39Z</time>
      </trkpt>
      <trkpt lat="47.57324" lon="1.3221">
        <ele>68</ele>
        <time>2019-05-07T09:21:09Z</time>
      </trkpt>
      <trkpt lat="47.57385" lon="1.32331">
        <ele>70</ele>
        <time>2019-05-07T09:21:33Z</time>
      </trkpt>
      <trkpt lat="47.57403" lon="1.32352">
        <ele>70</ele>
        <time>2019-05-07T09:21:39Z</time>
      </trkpt>
      <trkpt lat="47.57431" lon="1.32361">
        <ele>70</ele>
        <time>2019-05-07T09:21:57Z</time>
      </trkpt>
      <trkpt lat="47.57442" lon="1.32386">
        <ele>71</ele>
        <time>2019-05-07T09:22:09Z</time>
      </trkpt>
      <trkpt lat="47.57457" lon="1.32399">
        <ele>71</ele>
        <time>2019-05-07T09:22:25Z</time>
      </trkpt>
      <trkpt lat="47.57427" lon="1.3232">
        <ele>70</ele>
        <time>2019-05-07T09:22:43Z</time>
      </trkpt>
      <trkpt lat="47.57444" lon="1.32309">
        <ele>70</ele>
        <time>2019-05-07T09:22:55Z</time>
      </trkpt>
      <trkpt lat="47.57548" lon="1.32544">
        <ele>68</ele>
        <time>2019-05-07T09:23:43Z</time>
      </trkpt>
      <trkpt lat="47.57588" lon="1.32622">
        <ele>66</ele>
        <time>2019-05-07T09:24:01Z</time>
      </trkpt>
      <trkpt lat="47.57628" lon="1.32676">
        <ele>67</ele>
        <time>2019-05-07T09:24:13Z</time>
      </trkpt>
      <trkpt lat="47.57678" lon="1.32789">
        <ele>66</ele>
        <time>2019-05-07T09:24:31Z</time>
      </trkpt>
      <trkpt lat="47.57752" lon="1.32919">
        <ele>66</ele>
        <time>2019-05-07T09:24:55Z</time>
      </trkpt>
      <trkpt lat="47.57834" lon="1.3302">
        <ele>69</ele>
        <time>2019-05-07T09:25:33Z</time>
      </trkpt>
      <trkpt lat="47.57916" lon="1.33163">
        <ele>70</ele>
        <time>2019-05-07T09:26:15Z</time>
      </trkpt>
      <trkpt lat="47.5799" lon="1.33262">
        <ele>69</ele>
        <time>2019-05-07T09:26:38Z</time>
      </trkpt>
      <trkpt lat="47.5807" lon="1.3335">
        <ele>70</ele>
        <time>2019-05-07T09:27:02Z</time>
      </trkpt>
      <trkpt lat="47.58145" lon="1.33456">
        <ele>66</ele>
        <time>2019-05-07T09:27:26Z</time>
      </trkpt>
      <trkpt lat="47.58322" lon="1.33742">
        <ele>66</ele>
        <time>2019-05-07T09:28:26Z</time>
      </trkpt>
      <trkpt lat="47.5841" lon="1.33906">
        <ele>69</ele>
        <time>2019-05-07T09:29:27Z</time>
      </trkpt>
      <trkpt lat="47.58415" lon="1.33918">
        <ele>69</ele>
        <time>2019-05-07T09:29:33Z</time>
      </trkpt>
      <trkpt lat="47.58417" lon="1.33938">
        <ele>69</ele>
        <time>2019-05-07T09:29:51Z</time>
      </trkpt>
      <trkpt lat="47.58418" lon="1.33922">
        <ele>69</ele>
        <time>2019-05-07T09:30:11Z</time>
      </trkpt>
      <trkpt lat="47.58447" lon="1.33945">
        <ele>69</ele>
        <time>2019-05-07T09:30:24Z</time>
      </trkpt>
      <trkpt lat="47.58515" lon="1.34048">
        <ele>69</ele>
        <time>2019-05-07T09:31:06Z</time>
      </trkpt>
      <trkpt lat="47.58552" lon="1.34118">
        <ele>69</ele>
        <time>2019-05-07T09:31:24Z</time>
      </trkpt>
      <trkpt lat="47.58578" lon="1.34318">
        <ele>72</ele>
        <time>2019-05-07T09:32:00Z</time>
      </trkpt>
      <trkpt lat="47.58632" lon="1.34441">
        <ele>70</ele>
        <time>2019-05-07T09:32:24Z</time>
      </trkpt>
      <trkpt lat="47.58704" lon="1.34571">
        <ele>69</ele>
        <time>2019-05-07T09:32:48Z</time>
      </trkpt>
      <trkpt lat="47.58726" lon="1.34632">
        <ele>71</ele>
        <time>2019-05-07T09:33:00Z</time>
      </trkpt>
      <trkpt lat="47.58784" lon="1.34754">
        <ele>70</ele>
        <time>2019-05-07T09:33:24Z</time>
      </trkpt>
      <trkpt lat="47.58807" lon="1.34786">
        <ele>70</ele>
        <time>2019-05-07T09:33:36Z</time>
      </trkpt>
      <trkpt lat="47.58919" lon="1.34995">
        <ele>71</ele>
        <time>2019-05-07T09:34:32Z</time>
      </trkpt>
      <trkpt lat="47.58959" lon="1.35119">
        <ele>66</ele>
        <time>2019-05-07T09:34:56Z</time>
      </trkpt>
      <trkpt lat="47.59032" lon="1.35434">
        <ele>73</ele>
        <time>2019-05-07T09:35:56Z</time>
      </trkpt>
      <trkpt lat="47.59077" lon="1.35502">
        <ele>74</ele>
        <time>2019-05-07T09:36:20Z</time>
      </trkpt>
      <trkpt lat="47.59111" lon="1.35518">
        <ele>74</ele>
        <time>2019-05-07T09:36:32Z</time>
      </trkpt>
      <trkpt lat="47.59154" lon="1.35552">
        <ele>74</ele>
        <time>2019-05-07T09:36:44Z</time>
      </trkpt>
      <trkpt lat="47.59212" lon="1.3565">
        <ele>74</ele>
        <time>2019-05-07T09:37:02Z</time>
      </trkpt>
      <trkpt lat="47.59281" lon="1.35748">
        <ele>73</ele>
        <time>2019-05-07T09:37:20Z</time>
      </trkpt>
      <trkpt lat="47.59594" lon="1.36395">
        <ele>72</ele>
        <time>2019-05-07T09:39:14Z</time>
      </trkpt>
      <trkpt lat="47.59686" lon="1.36537">
        <ele>69</ele>
        <time>2019-05-07T09:39:56Z</time>
      </trkpt>
      <trkpt lat="47.5976" lon="1.36607">
        <ele>70</ele>
        <time>2019-05-07T09:40:14Z</time>
      </trkpt>
      <trkpt lat="47.59785" lon="1.36669">
        <ele>69</ele>
        <time>2019-05-07T09:40:26Z</time>
      </trkpt>
      <trkpt lat="47.59947" lon="1.36955">
        <ele>71</ele>
        <time>2019-05-07T09:41:20Z</time>
      </trkpt>
      <trkpt lat="47.60004" lon="1.36963">
        <ele>69</ele>
        <time>2019-05-07T09:41:32Z</time>
      </trkpt>
      <trkpt lat="47.60062" lon="1.37052">
        <ele>68</ele>
        <time>2019-05-07T09:41:50Z</time>
      </trkpt>
      <trkpt lat="47.60067" lon="1.37077">
        <ele>74</ele>
        <time>2019-05-07T09:41:56Z</time>
      </trkpt>
      <trkpt lat="47.60063" lon="1.37109">
        <ele>74</ele>
        <time>2019-05-07T09:42:08Z</time>
      </trkpt>
      <trkpt lat="47.60086" lon="1.37157">
        <ele>74</ele>
        <time>2019-05-07T09:42:20Z</time>
      </trkpt>
      <trkpt lat="47.60158" lon="1.37129">
        <ele>74</ele>
        <time>2019-05-07T09:42:32Z</time>
      </trkpt>
      <trkpt lat="47.6023" lon="1.37125">
        <ele>74</ele>
        <time>2019-05-07T09:42:44Z</time>
      </trkpt>
      <trkpt lat="47.60354" lon="1.37184">
        <ele>67</ele>
        <time>2019-05-07T09:43:14Z</time>
      </trkpt>
      <trkpt lat="47.60559" lon="1.37346">
        <ele>68</ele>
        <time>2019-05-07T09:44:08Z</time>
      </trkpt>
      <trkpt lat="47.60575" lon="1.3737">
        <ele>68</ele>
        <time>2019-05-07T09:44:14Z</time>
      </trkpt>
      <trkpt lat="47.60631" lon="1.37506">
        <ele>72</ele>
        <time>2019-05-07T09:44:44Z</time>
      </trkpt>
      <trkpt lat="47.60709" lon="1.37612">
        <ele>72</ele>
        <time>2019-05-07T09:45:08Z</time>
      </trkpt>
      <trkpt lat="47.60771" lon="1.37696">
        <ele>71</ele>
        <time>2019-05-07T09:45:26Z</time>
      </trkpt>
      <trkpt lat="47.608" lon="1.37685">
        <ele>71</ele>
        <time>2019-05-07T09:45:38Z</time>
      </trkpt>
      <trkpt lat="47.60834" lon="1.377">
        <ele>71</ele>
        <time>2019-05-07T09:45:50Z</time>
      </trkpt>
      <trkpt lat="47.61122" lon="1.38137">
        <ele>74</ele>
        <time>2019-05-07T09:47:26Z</time>
      </trkpt>
      <trkpt lat="47.61211" lon="1.38239">
        <ele>73</ele>
        <time>2019-05-07T09:47:50Z</time>
      </trkpt>
      <trkpt lat="47.6126" lon="1.38324">
        <ele>73</ele>
        <time>2019-05-07T09:48:08Z</time>
      </trkpt>
      <trkpt lat="47.61324" lon="1.38371">
        <ele>71</ele>
        <time>2019-05-07T09:48:26Z</time>
      </trkpt>
      <trkpt lat="47.61695" lon="1.38988">
        <ele>71</ele>
        <time>2019-05-07T09:50:26Z</time>
      </trkpt>
      <trkpt lat="47.61859" lon="1.39218">
        <ele>70</ele>
        <time>2019-05-07T09:51:14Z</time>
      </trkpt>
      <trkpt lat="47.61973" lon="1.39363">
        <ele>70</ele>
        <time>2019-05-07T09:51:56Z</time>
      </trkpt>
      <trkpt lat="47.62092" lon="1.39597">
        <ele>71</ele>
        <time>2019-05-07T09:52:48Z</time>
      </trkpt>
      <trkpt lat="47.62139" lon="1.39677">
        <ele>73</ele>
        <time>2019-05-07T09:53:00Z</time>
      </trkpt>
      <trkpt lat="47.62194" lon="1.39748">
        <ele>70</ele>
        <time>2019-05-07T09:53:12Z</time>
      </trkpt>
      <trkpt lat="47.62352" lon="1.39917">
        <ele>71</ele>
        <time>2019-05-07T09:54:02Z</time>
      </trkpt>
      <trkpt lat="47.62471" lon="1.40079">
        <ele>71</ele>
        <time>2019-05-07T09:54:44Z</time>
      </trkpt>
      <trkpt lat="47.62726" lon="1.40481">
        <ele>71</ele>
        <time>2019-05-07T09:56:02Z</time>
      </trkpt>
      <trkpt lat="47.62809" lon="1.40593">
        <ele>71</ele>
        <time>2019-05-07T09:56:26Z</time>
      </trkpt>
      <trkpt lat="47.62919" lon="1.40687">
        <ele>71</ele>
        <time>2019-05-07T09:56:50Z</time>
      </trkpt>
      <trkpt lat="47.62971" lon="1.40795">
        <ele>70</ele>
        <time>2019-05-07T09:57:08Z</time>
      </trkpt>
      <trkpt lat="47.6303" lon="1.40943">
        <ele>70</ele>
        <time>2019-05-07T09:57:32Z</time>
      </trkpt>
      <trkpt lat="47.6313" lon="1.41116">
        <ele>71</ele>
        <time>2019-05-07T09:58:02Z</time>
      </trkpt>
      <trkpt lat="47.63193" lon="1.41193">
        <ele>72</ele>
        <time>2019-05-07T09:58:20Z</time>
      </trkpt>
      <trkpt lat="47.6327" lon="1.41262">
        <ele>74</ele>
        <time>2019-05-07T09:58:52Z</time>
      </trkpt>
      <trkpt lat="47.63318" lon="1.41319">
        <ele>73</ele>
        <time>2019-05-07T09:59:04Z</time>
      </trkpt>
      <trkpt lat="47.6338" lon="1.41416">
        <ele>73</ele>
        <time>2019-05-07T09:59:22Z</time>
      </trkpt>
      <trkpt lat="47.63666" lon="1.41755">
        <ele>73</ele>
        <time>2019-05-07T10:00:34Z</time>
      </trkpt>
      <trkpt lat="47.63828" lon="1.41968">
        <ele>74</ele>
        <time>2019-05-07T10:01:10Z</time>
      </trkpt>
      <trkpt lat="47.63998" lon="1.42212">
        <ele>74</ele>
        <time>2019-05-07T10:01:58Z</time>
      </trkpt>
      <trkpt lat="47.64054" lon="1.42273">
        <ele>73</ele>
        <time>2019-05-07T10:02:16Z</time>
      </trkpt>
      <trkpt lat="47.64077" lon="1.4227">
        <ele>73</ele>
        <time>2019-05-07T10:02:22Z</time>
      </trkpt>
      <trkpt lat="47.64108" lon="1.42243">
        <ele>73</ele>
        <time>2019-05-07T10:02:34Z</time>
      </trkpt>
      <trkpt lat="47.64201" lon="1.42334">
        <ele>73</ele>
        <time>2019-05-07T10:03:04Z</time>
      </trkpt>
      <trkpt lat="47.64393" lon="1.42541">
        <ele>73</ele>
        <time>2019-05-07T10:04:04Z</time>
      </trkpt>
      <trkpt lat="47.64519" lon="1.42708">
        <ele>75</ele>
        <time>2019-05-07T10:04:46Z</time>
      </trkpt>
      <trkpt lat="47.64575" lon="1.42809">
        <ele>75</ele>
        <time>2019-05-07T10:05:10Z</time>
      </trkpt>
      <trkpt lat="47.64704" lon="1.4293">
        <ele>70</ele>
        <time>2019-05-07T10:05:56Z</time>
      </trkpt>
      <trkpt lat="47.64754" lon="1.42996">
        <ele>75</ele>
        <time>2019-05-07T10:06:14Z</time>
      </trkpt>
      <trkpt lat="47.64894" lon="1.43252">
        <ele>73</ele>
        <time>2019-05-07T10:07:08Z</time>
      </trkpt>
      <trkpt lat="47.65004" lon="1.43424">
        <ele>71</ele>
        <time>2019-05-07T10:07:44Z</time>
      </trkpt>
      <trkpt lat="47.65053" lon="1.43565">
        <ele>73</ele>
        <time>2019-05-07T10:08:08Z</time>
      </trkpt>
      <trkpt lat="47.65075" lon="1.43664">
        <ele>70</ele>
        <time>2019-05-07T10:08:26Z</time>
      </trkpt>
      <trkpt lat="47.6509" lon="1.43803">
        <ele>72</ele>
        <time>2019-05-07T10:08:50Z</time>
      </trkpt>
      <trkpt lat="47.65069" lon="1.44102">
        <ele>74</ele>
        <time>2019-05-07T10:09:38Z</time>
      </trkpt>
      <trkpt lat="47.65063" lon="1.4444">
        <ele>74</ele>
        <time>2019-05-07T10:10:38Z</time>
      </trkpt>
      <trkpt lat="47.65077" lon="1.44508">
        <ele>75</ele>
        <time>2019-05-07T10:10:56Z</time>
      </trkpt>
      <trkpt lat="47.65091" lon="1.44662">
        <ele>75</ele>
        <time>2019-05-07T10:11:38Z</time>
      </trkpt>
      <trkpt lat="47.65096" lon="1.44813">
        <ele>77</ele>
        <time>2019-05-07T10:12:02Z</time>
      </trkpt>
      <trkpt lat="47.65091" lon="1.44964">
        <ele>77</ele>
        <time>2019-05-07T10:12:32Z</time>
      </trkpt>
      <trkpt lat="47.65099" lon="1.45042">
        <ele>75</ele>
        <time>2019-05-07T10:12:44Z</time>
      </trkpt>
      <trkpt lat="47.6514" lon="1.45215">
        <ele>76</ele>
        <time>2019-05-07T10:13:08Z</time>
      </trkpt>
      <trkpt lat="47.65139" lon="1.45373">
        <ele>77</ele>
        <time>2019-05-07T10:13:26Z</time>
      </trkpt>
      <trkpt lat="47.65148" lon="1.45526">
        <ele>77</ele>
        <time>2019-05-07T10:13:44Z</time>
      </trkpt>
      <trkpt lat="47.65198" lon="1.45954">
        <ele>71</ele>
        <time>2019-05-07T10:14:38Z</time>
      </trkpt>
      <trkpt lat="47.65212" lon="1.46131">
        <ele>73</ele>
        <time>2019-05-07T10:15:02Z</time>
      </trkpt>
      <trkpt lat="47.65217" lon="1.46331">
        <ele>74</ele>
        <time>2019-05-07T10:15:32Z</time>
      </trkpt>
      <trkpt lat="47.65281" lon="1.47003">
        <ele>74</ele>
        <time>2019-05-07T10:17:14Z</time>
      </trkpt>
      <trkpt lat="47.65302" lon="1.47114">
        <ele>74</ele>
        <time>2019-05-07T10:17:32Z</time>
      </trkpt>
      <trkpt lat="47.65329" lon="1.47185">
        <ele>74</ele>
        <time>2019-05-07T10:17:44Z</time>
      </trkpt>
      <trkpt lat="47.65335" lon="1.47269">
        <ele>75</ele>
        <time>2019-05-07T10:17:56Z</time>
      </trkpt>
      <trkpt lat="47.65364" lon="1.47431">
        <ele>75</ele>
        <time>2019-05-07T10:18:20Z</time>
      </trkpt>
      <trkpt lat="47.65432" lon="1.47723">
        <ele>73</ele>
        <time>2019-05-07T10:19:02Z</time>
      </trkpt>
      <trkpt lat="47.65433" lon="1.47782">
        <ele>76</ele>
        <time>2019-05-07T10:19:14Z</time>
      </trkpt>
      <trkpt lat="47.65458" lon="1.47861">
        <ele>76</ele>
        <time>2019-05-07T10:19:38Z</time>
      </trkpt>
      <trkpt lat="47.65483" lon="1.47978">
        <ele>81</ele>
        <time>2019-05-07T10:20:08Z</time>
      </trkpt>
      <trkpt lat="47.65502" lon="1.48028">
        <ele>81</ele>
        <time>2019-05-07T10:20:20Z</time>
      </trkpt>
      <trkpt lat="47.65532" lon="1.48173">
        <ele>73</ele>
        <time>2019-05-07T10:20:50Z</time>
      </trkpt>
      <trkpt lat="47.65583" lon="1.4837">
        <ele>79</ele>
        <time>2019-05-07T10:21:34Z</time>
      </trkpt>
      <trkpt lat="47.6559" lon="1.48434">
        <ele>79</ele>
        <time>2019-05-07T10:21:52Z</time>
      </trkpt>
      <trkpt lat="47.65726" lon="1.48856">
        <ele>73</ele>
        <time>2019-05-07T10:23:32Z</time>
      </trkpt>
      <trkpt lat="47.65767" lon="1.49039">
        <ele>81</ele>
        <time>2019-05-07T10:24:13Z</time>
      </trkpt>
      <trkpt lat="47.65821" lon="1.49206">
        <ele>74</ele>
        <time>2019-05-07T10:24:43Z</time>
      </trkpt>
      <trkpt lat="47.65848" lon="1.49364">
        <ele>77</ele>
        <time>2019-05-07T10:25:13Z</time>
      </trkpt>
      <trkpt lat="47.65859" lon="1.49412">
        <ele>77</ele>
        <time>2019-05-07T10:25:25Z</time>
      </trkpt>
      <trkpt lat="47.65868" lon="1.49414">
        <ele>84</ele>
        <time>2019-05-07T10:25:42Z</time>
      </trkpt>
      <trkpt lat="47.6586" lon="1.49412">
        <ele>77</ele>
        <time>2019-05-07T10:25:48Z</time>
      </trkpt>
      <trkpt lat="47.65868" lon="1.49458">
        <ele>84</ele>
        <time>2019-05-07T10:26:01Z</time>
      </trkpt>
      <trkpt lat="47.65923" lon="1.496">
        <ele>79</ele>
        <time>2019-05-07T10:26:49Z</time>
      </trkpt>
      <trkpt lat="47.65968" lon="1.49751">
        <ele>83</ele>
        <time>2019-05-07T10:27:38Z</time>
      </trkpt>
      <trkpt lat="47.66018" lon="1.49888">
        <ele>78</ele>
        <time>2019-05-07T10:28:02Z</time>
      </trkpt>
      <trkpt lat="47.66099" lon="1.50172">
        <ele>78</ele>
        <time>2019-05-07T10:28:57Z</time>
      </trkpt>
      <trkpt lat="47.6621" lon="1.50507">
        <ele>78</ele>
        <time>2019-05-07T10:30:03Z</time>
      </trkpt>
      <trkpt lat="47.66299" lon="1.50811">
        <ele>81</ele>
        <time>2019-05-07T10:30:57Z</time>
      </trkpt>
      <trkpt lat="47.66348" lon="1.50921">
        <ele>81</ele>
        <time>2019-05-07T10:31:26Z</time>
      </trkpt>
      <trkpt lat="47.66436" lon="1.51176">
        <ele>80</ele>
        <time>2019-05-07T10:32:21Z</time>
      </trkpt>
      <trkpt lat="47.66503" lon="1.5131">
        <ele>81</ele>
        <time>2019-05-07T10:32:45Z</time>
      </trkpt>
      <trkpt lat="47.66538" lon="1.51403">
        <ele>86</ele>
        <time>2019-05-07T10:33:02Z</time>
      </trkpt>
      <trkpt lat="47.66583" lon="1.51482">
        <ele>81</ele>
        <time>2019-05-07T10:33:15Z</time>
      </trkpt>
      <trkpt lat="47.66617" lon="1.51585">
        <ele>81</ele>
        <time>2019-05-07T10:33:33Z</time>
      </trkpt>
      <trkpt lat="47.66889" lon="1.52059">
        <ele>83</ele>
        <time>2019-05-07T10:35:32Z</time>
      </trkpt>
      <trkpt lat="47.66923" lon="1.52164">
        <ele>81</ele>
        <time>2019-05-07T10:36:03Z</time>
      </trkpt>
      <trkpt lat="47.66955" lon="1.52371">
        <ele>81</ele>
        <time>2019-05-07T10:36:32Z</time>
      </trkpt>
      <trkpt lat="47.66983" lon="1.52455">
        <ele>79</ele>
        <time>2019-05-07T10:36:44Z</time>
      </trkpt>
      <trkpt lat="47.67031" lon="1.52531">
        <ele>77</ele>
        <time>2019-05-07T10:37:16Z</time>
      </trkpt>
      <trkpt lat="47.67091" lon="1.52606">
        <ele>80</ele>
        <time>2019-05-07T10:37:46Z</time>
      </trkpt>
      <trkpt lat="47.67086" lon="1.52589">
        <ele>80</ele>
        <time>2019-05-07T10:37:58Z</time>
      </trkpt>
      <trkpt lat="47.67041" lon="1.52525">
        <ele>77</ele>
        <time>2019-05-07T10:38:46Z</time>
      </trkpt>
      <trkpt lat="47.67025" lon="1.5252">
        <ele>77</ele>
        <time>2019-05-07T10:39:01Z</time>
      </trkpt>
      <trkpt lat="47.67014" lon="1.52485">
        <ele>77</ele>
        <time>2019-05-07T10:39:13Z</time>
      </trkpt>
      <trkpt lat="47.67014" lon="1.52463">
        <ele>77</ele>
        <time>2019-05-07T10:39:19Z</time>
      </trkpt>
      <trkpt lat="47.67047" lon="1.52469">
        <ele>77</ele>
        <time>2019-05-07T10:39:37Z</time>
      </trkpt>
      <trkpt lat="47.67066" lon="1.52493">
        <ele>77</ele>
        <time>2019-05-07T10:39:49Z</time>
      </trkpt>
      <trkpt lat="47.67084" lon="1.52547">
        <ele>77</ele>
        <time>2019-05-07T10:40:07Z</time>
      </trkpt>
      <trkpt lat="47.67127" lon="1.52577">
        <ele>79</ele>
        <time>2019-05-07T10:40:25Z</time>
      </trkpt>
      <trkpt lat="47.67141" lon="1.52607">
        <ele>79</ele>
        <time>2019-05-07T10:40:37Z</time>
      </trkpt>
      <trkpt lat="47.67139" lon="1.52619">
        <ele>79</ele>
        <time>2019-05-07T10:40:54Z</time>
      </trkpt>
      <trkpt lat="47.67145" lon="1.52642">
        <ele>79</ele>
        <time>2019-05-07T10:41:06Z</time>
      </trkpt>
      <trkpt lat="47.6722" lon="1.52637">
        <ele>79</ele>
        <time>2019-05-07T10:41:17Z</time>
      </trkpt>
      <trkpt lat="47.67285" lon="1.52701">
        <ele>76</ele>
        <time>2019-05-07T10:41:50Z</time>
      </trkpt>
      <trkpt lat="47.67339" lon="1.52739">
        <ele>79</ele>
        <time>2019-05-07T10:42:14Z</time>
      </trkpt>
      <trkpt lat="47.67354" lon="1.52771">
        <ele>79</ele>
        <time>2019-05-07T10:42:26Z</time>
      </trkpt>
      <trkpt lat="47.67393" lon="1.52954">
        <ele>75</ele>
        <time>2019-05-07T10:43:02Z</time>
      </trkpt>
      <trkpt lat="47.67429" lon="1.53041">
        <ele>80</ele>
        <time>2019-05-07T10:43:14Z</time>
      </trkpt>
      <trkpt lat="47.67445" lon="1.5312">
        <ele>80</ele>
        <time>2019-05-07T10:43:38Z</time>
      </trkpt>
      <trkpt lat="47.67543" lon="1.533">
        <ele>85</ele>
        <time>2019-05-07T10:44:56Z</time>
      </trkpt>
      <trkpt lat="47.67585" lon="1.53361">
        <ele>81</ele>
        <time>2019-05-07T10:45:20Z</time>
      </trkpt>
      <trkpt lat="47.6769" lon="1.53562">
        <ele>84</ele>
        <time>2019-05-07T10:46:20Z</time>
      </trkpt>
      <trkpt lat="47.67723" lon="1.53659">
        <ele>84</ele>
        <time>2019-05-07T10:46:44Z</time>
      </trkpt>
      <trkpt lat="47.67854" lon="1.53916">
        <ele>76</ele>
        <time>2019-05-07T10:47:38Z</time>
      </trkpt>
      <trkpt lat="47.67887" lon="1.54006">
        <ele>79</ele>
        <time>2019-05-07T10:47:56Z</time>
      </trkpt>
      <trkpt lat="47.67925" lon="1.54056">
        <ele>79</ele>
        <time>2019-05-07T10:48:08Z</time>
      </trkpt>
      <trkpt lat="47.67992" lon="1.5421">
        <ele>79</ele>
        <time>2019-05-07T10:48:38Z</time>
      </trkpt>
      <trkpt lat="47.68086" lon="1.54387">
        <ele>84</ele>
        <time>2019-05-07T10:49:14Z</time>
      </trkpt>
      <trkpt lat="47.68108" lon="1.5447">
        <ele>84</ele>
        <time>2019-05-07T10:49:32Z</time>
      </trkpt>
      <trkpt lat="47.68169" lon="1.546">
        <ele>79</ele>
        <time>2019-05-07T10:50:10Z</time>
      </trkpt>
      <trkpt lat="47.68226" lon="1.54753">
        <ele>76</ele>
        <time>2019-05-07T10:50:34Z</time>
      </trkpt>
      <trkpt lat="47.68266" lon="1.54894">
        <ele>83</ele>
        <time>2019-05-07T10:50:58Z</time>
      </trkpt>
      <trkpt lat="47.683" lon="1.54976">
        <ele>80</ele>
        <time>2019-05-07T10:51:10Z</time>
      </trkpt>
      <trkpt lat="47.68312" lon="1.55014">
        <ele>80</ele>
        <time>2019-05-07T10:51:15Z</time>
      </trkpt>
      <trkpt lat="47.68323" lon="1.55089">
        <ele>82</ele>
        <time>2019-05-07T10:51:27Z</time>
      </trkpt>
      <trkpt lat="47.6835" lon="1.55162">
        <ele>82</ele>
        <time>2019-05-07T10:51:40Z</time>
      </trkpt>
      <trkpt lat="47.68362" lon="1.55218">
        <ele>82</ele>
        <time>2019-05-07T10:51:52Z</time>
      </trkpt>
      <trkpt lat="47.68372" lon="1.55225">
        <ele>82</ele>
        <time>2019-05-07T10:51:58Z</time>
      </trkpt>
      <trkpt lat="47.68402" lon="1.5512">
        <ele>80</ele>
        <time>2019-05-07T10:52:17Z</time>
      </trkpt>
      <trkpt lat="47.68435" lon="1.5517">
        <ele>80</ele>
        <time>2019-05-07T10:52:29Z</time>
      </trkpt>
      <trkpt lat="47.68459" lon="1.55186">
        <ele>78</ele>
        <time>2019-05-07T10:52:35Z</time>
      </trkpt>
      <trkpt lat="47.68496" lon="1.55184">
        <ele>76</ele>
        <time>2019-05-07T10:52:47Z</time>
      </trkpt>
      <trkpt lat="47.68543" lon="1.55295">
        <ele>76</ele>
        <time>2019-05-07T10:53:05Z</time>
      </trkpt>
      <trkpt lat="47.68605" lon="1.55395">
        <ele>75</ele>
        <time>2019-05-07T10:53:23Z</time>
      </trkpt>
      <trkpt lat="47.68625" lon="1.55446">
        <ele>75</ele>
        <time>2019-05-07T10:53:35Z</time>
      </trkpt>
      <trkpt lat="47.68667" lon="1.55525">
        <ele>76</ele>
        <time>2019-05-07T10:53:53Z</time>
      </trkpt>
      <trkpt lat="47.68705" lon="1.55581">
        <ele>76</ele>
        <time>2019-05-07T10:54:05Z</time>
      </trkpt>
      <trkpt lat="47.68736" lon="1.55684">
        <ele>77</ele>
        <time>2019-05-07T10:54:23Z</time>
      </trkpt>
      <trkpt lat="47.68668" lon="1.55809">
        <ele>77</ele>
        <time>2019-05-07T10:55:05Z</time>
      </trkpt>
      <trkpt lat="47.68524" lon="1.5601">
        <ele>87</ele>
        <time>2019-05-07T10:56:52Z</time>
      </trkpt>
      <trkpt lat="47.68528" lon="1.56024">
        <ele>87</ele>
        <time>2019-05-07T10:56:59Z</time>
      </trkpt>
      <trkpt lat="47.68847" lon="1.56455">
        <ele>86</ele>
        <time>2019-05-07T10:58:53Z</time>
      </trkpt>
      <trkpt lat="47.69626" lon="1.57537">
        <ele>85</ele>
        <time>2019-05-07T11:02:23Z</time>
      </trkpt>
      <trkpt lat="47.70034" lon="1.58189">
        <ele>82</ele>
        <time>2019-05-07T11:04:05Z</time>
      </trkpt>
      <trkpt lat="47.70172" lon="1.58435">
        <ele>83</ele>
        <time>2019-05-07T11:04:47Z</time>
      </trkpt>
      <trkpt lat="47.70219" lon="1.58536">
        <ele>83</ele>
        <time>2019-05-07T11:05:11Z</time>
      </trkpt>
      <trkpt lat="47.70254" lon="1.58578">
        <ele>86</ele>
        <time>2019-05-07T11:05:29Z</time>
      </trkpt>
      <trkpt lat="47.70356" lon="1.58749">
        <ele>87</ele>
        <time>2019-05-07T11:06:11Z</time>
      </trkpt>
      <trkpt lat="47.70426" lon="1.58884">
        <ele>86</ele>
        <time>2019-05-07T11:06:41Z</time>
      </trkpt>
      <trkpt lat="47.70582" lon="1.5915">
        <ele>89</ele>
        <time>2019-05-07T11:08:01Z</time>
      </trkpt>
      <trkpt lat="47.70771" lon="1.59496">
        <ele>92</ele>
        <time>2019-05-07T11:09:31Z</time>
      </trkpt>
      <trkpt lat="47.70962" lon="1.59827">
        <ele>92</ele>
        <time>2019-05-07T11:10:43Z</time>
      </trkpt>
      <trkpt lat="47.70984" lon="1.5988">
        <ele>92</ele>
        <time>2019-05-07T11:10:55Z</time>
      </trkpt>
      <trkpt lat="47.71063" lon="1.60006">
        <ele>90</ele>
        <time>2019-05-07T11:11:19Z</time>
      </trkpt>
      <trkpt lat="47.71328" lon="1.60475">
        <ele>90</ele>
        <time>2019-05-07T11:13:01Z</time>
      </trkpt>
      <trkpt lat="47.71356" lon="1.60555">
        <ele>90</ele>
        <time>2019-05-07T11:13:19Z</time>
      </trkpt>
      <trkpt lat="47.71583" lon="1.60954">
        <ele>90</ele>
        <time>2019-05-07T11:14:31Z</time>
      </trkpt>
      <trkpt lat="47.71673" lon="1.61138">
        <ele>90</ele>
        <time>2019-05-07T11:15:07Z</time>
      </trkpt>
      <trkpt lat="47.71723" lon="1.61214">
        <ele>89</ele>
        <time>2019-05-07T11:15:25Z</time>
      </trkpt>
      <trkpt lat="47.71732" lon="1.61243">
        <ele>89</ele>
        <time>2019-05-07T11:15:31Z</time>
      </trkpt>
      <trkpt lat="47.71749" lon="1.614">
        <ele>89</ele>
        <time>2019-05-07T11:15:55Z</time>
      </trkpt>
      <trkpt lat="47.7177" lon="1.61475">
        <ele>89</ele>
        <time>2019-05-07T11:16:07Z</time>
      </trkpt>
      <trkpt lat="47.71952" lon="1.61918">
        <ele>91</ele>
        <time>2019-05-07T11:17:23Z</time>
      </trkpt>
      <trkpt lat="47.72299" lon="1.62646">
        <ele>89</ele>
        <time>2019-05-07T11:19:41Z</time>
      </trkpt>
      <trkpt lat="47.72508" lon="1.63102">
        <ele>91</ele>
        <time>2019-05-07T11:20:41Z</time>
      </trkpt>
      <trkpt lat="47.72584" lon="1.63288">
        <ele>94</ele>
        <time>2019-05-07T11:21:17Z</time>
      </trkpt>
      <trkpt lat="47.72818" lon="1.63784">
        <ele>90</ele>
        <time>2019-05-07T11:22:29Z</time>
      </trkpt>
      <trkpt lat="47.72853" lon="1.6387">
        <ele>91</ele>
        <time>2019-05-07T11:22:41Z</time>
      </trkpt>
      <trkpt lat="47.72942" lon="1.64032">
        <ele>94</ele>
        <time>2019-05-07T11:23:17Z</time>
      </trkpt>
      <trkpt lat="47.73072" lon="1.64185">
        <ele>91</ele>
        <time>2019-05-07T11:24:05Z</time>
      </trkpt>
      <trkpt lat="47.73106" lon="1.64238">
        <ele>89</ele>
        <time>2019-05-07T11:24:17Z</time>
      </trkpt>
      <trkpt lat="47.73149" lon="1.64285">
        <ele>94</ele>
        <time>2019-05-07T11:24:29Z</time>
      </trkpt>
      <trkpt lat="47.73239" lon="1.64409">
        <ele>97</ele>
        <time>2019-05-07T11:25:07Z</time>
      </trkpt>
      <trkpt lat="47.73246" lon="1.6441">
        <ele>97</ele>
        <time>2019-05-07T11:25:15Z</time>
      </trkpt>
      <trkpt lat="47.73244" lon="1.64405">
        <ele>97</ele>
        <time>2019-05-07T11:25:16Z</time>
      </trkpt>
      <trkpt lat="47.73244" lon="1.64419">
        <ele>97</ele>
        <time>2019-05-07T11:25:19Z</time>
      </trkpt>
      <trkpt lat="47.73377" lon="1.64579">
        <ele>96</ele>
        <time>2019-05-07T11:26:07Z</time>
      </trkpt>
      <trkpt lat="47.73511" lon="1.64772">
        <ele>96</ele>
        <time>2019-05-07T11:26:49Z</time>
      </trkpt>
      <trkpt lat="47.73552" lon="1.64709">
        <ele>96</ele>
        <time>2019-05-07T11:27:01Z</time>
      </trkpt>
      <trkpt lat="47.73722" lon="1.64534">
        <ele>91</ele>
        <time>2019-05-07T11:27:37Z</time>
      </trkpt>
      <trkpt lat="47.73983" lon="1.64244">
        <ele>82</ele>
        <time>2019-05-07T11:28:25Z</time>
      </trkpt>
      <trkpt lat="47.74011" lon="1.64221">
        <ele>82</ele>
        <time>2019-05-07T11:28:31Z</time>
      </trkpt>
      <trkpt lat="47.74131" lon="1.64187">
        <ele>80</ele>
        <time>2019-05-07T11:28:55Z</time>
      </trkpt>
      <trkpt lat="47.74192" lon="1.64198">
        <ele>80</ele>
        <time>2019-05-07T11:29:07Z</time>
      </trkpt>
      <trkpt lat="47.74223" lon="1.64214">
        <ele>80</ele>
        <time>2019-05-07T11:29:13Z</time>
      </trkpt>
      <trkpt lat="47.74279" lon="1.64262">
        <ele>80</ele>
        <time>2019-05-07T11:29:25Z</time>
      </trkpt>
      <trkpt lat="47.74334" lon="1.64286">
        <ele>81</ele>
        <time>2019-05-07T11:29:37Z</time>
      </trkpt>
      <trkpt lat="47.74397" lon="1.64276">
        <ele>80</ele>
        <time>2019-05-07T11:29:49Z</time>
      </trkpt>
      <trkpt lat="47.74614" lon="1.64185">
        <ele>80</ele>
        <time>2019-05-07T11:30:31Z</time>
      </trkpt>
      <trkpt lat="47.74678" lon="1.64171">
        <ele>80</ele>
        <time>2019-05-07T11:30:43Z</time>
      </trkpt>
      <trkpt lat="47.7477" lon="1.64165">
        <ele>81</ele>
        <time>2019-05-07T11:31:01Z</time>
      </trkpt>
      <trkpt lat="47.76367" lon="1.64296">
        <ele>85</ele>
        <time>2019-05-07T11:36:31Z</time>
      </trkpt>
      <trkpt lat="47.76469" lon="1.64279">
        <ele>86</ele>
        <time>2019-05-07T11:36:55Z</time>
      </trkpt>
      <trkpt lat="47.76526" lon="1.64255">
        <ele>84</ele>
        <time>2019-05-07T11:37:07Z</time>
      </trkpt>
      <trkpt lat="47.77448" lon="1.64017">
        <ele>84</ele>
        <time>2019-05-07T11:40:31Z</time>
      </trkpt>
      <trkpt lat="47.77552" lon="1.64034">
        <ele>82</ele>
        <time>2019-05-07T11:41:07Z</time>
      </trkpt>
      <trkpt lat="47.77763" lon="1.63502">
        <ele>88</ele>
        <time>2019-05-07T11:43:47Z</time>
      </trkpt>
      <trkpt lat="47.77773" lon="1.63503">
        <ele>88</ele>
        <time>2019-05-07T11:43:53Z</time>
      </trkpt>
      <trkpt lat="47.77922" lon="1.63631">
        <ele>89</ele>
        <time>2019-05-07T11:44:46Z</time>
      </trkpt>
      <trkpt lat="47.77963" lon="1.63647">
        <ele>89</ele>
        <time>2019-05-07T11:45:04Z</time>
      </trkpt>
      <trkpt lat="47.77995" lon="1.63638">
        <ele>90</ele>
        <time>2019-05-07T11:45:16Z</time>
      </trkpt>
      <trkpt lat="47.78015" lon="1.63654">
        <ele>90</ele>
        <time>2019-05-07T11:45:43Z</time>
      </trkpt>
      <trkpt lat="47.78216" lon="1.63884">
        <ele>90</ele>
        <time>2019-05-07T11:48:20Z</time>
      </trkpt>
      <trkpt lat="47.78234" lon="1.6389">
        <ele>90</ele>
        <time>2019-05-07T11:48:32Z</time>
      </trkpt>
      <trkpt lat="47.78251" lon="1.63881">
        <ele>90</ele>
        <time>2019-05-07T11:48:48Z</time>
      </trkpt>
      <trkpt lat="47.78309" lon="1.63825">
        <ele>96</ele>
        <time>2019-05-07T11:49:36Z</time>
      </trkpt>
      <trkpt lat="47.78363" lon="1.63906">
        <ele>94</ele>
        <time>2019-05-07T11:50:08Z</time>
      </trkpt>
      <trkpt lat="47.78416" lon="1.6401">
        <ele>93</ele>
        <time>2019-05-07T11:50:44Z</time>
      </trkpt>
      <trkpt lat="47.78628" lon="1.64312">
        <ele>93</ele>
        <time>2019-05-07T11:52:48Z</time>
      </trkpt>
      <trkpt lat="47.78706" lon="1.64384">
        <ele>96</ele>
        <time>2019-05-07T11:53:18Z</time>
      </trkpt>
      <trkpt lat="47.78872" lon="1.64603">
        <ele>98</ele>
        <time>2019-05-07T11:54:18Z</time>
      </trkpt>
      <trkpt lat="47.78924" lon="1.64766">
        <ele>101</ele>
        <time>2019-05-07T11:55:18Z</time>
      </trkpt>
      <trkpt lat="47.79102" lon="1.65121">
        <ele>101</ele>
        <time>2019-05-07T11:57:38Z</time>
      </trkpt>
      <trkpt lat="47.79253" lon="1.65303">
        <ele>101</ele>
        <time>2019-05-07T11:58:44Z</time>
      </trkpt>
      <trkpt lat="47.79342" lon="1.65384">
        <ele>100</ele>
        <time>2019-05-07T11:59:14Z</time>
      </trkpt>
      <trkpt lat="47.79419" lon="1.65468">
        <ele>101</ele>
        <time>2019-05-07T11:59:50Z</time>
      </trkpt>
      <trkpt lat="47.79474" lon="1.655">
        <ele>99</ele>
        <time>2019-05-07T12:00:08Z</time>
      </trkpt>
      <trkpt lat="47.79552" lon="1.65565">
        <ele>99</ele>
        <time>2019-05-07T12:00:44Z</time>
      </trkpt>
      <trkpt lat="47.79583" lon="1.65595">
        <ele>101</ele>
        <time>2019-05-07T12:00:56Z</time>
      </trkpt>
      <trkpt lat="47.79667" lon="1.65714">
        <ele>100</ele>
        <time>2019-05-07T12:01:38Z</time>
      </trkpt>
      <trkpt lat="47.79757" lon="1.65785">
        <ele>100</ele>
        <time>2019-05-07T12:02:20Z</time>
      </trkpt>
      <trkpt lat="47.79815" lon="1.65905">
        <ele>100</ele>
        <time>2019-05-07T12:02:56Z</time>
      </trkpt>
      <trkpt lat="47.79873" lon="1.66141">
        <ele>95</ele>
        <time>2019-05-07T12:03:56Z</time>
      </trkpt>
      <trkpt lat="47.79907" lon="1.66377">
        <ele>87</ele>
        <time>2019-05-07T12:04:38Z</time>
      </trkpt>
      <trkpt lat="47.79891" lon="1.66413">
        <ele>87</ele>
        <time>2019-05-07T12:04:44Z</time>
      </trkpt>
      <trkpt lat="47.79824" lon="1.66493">
        <ele>83</ele>
        <time>2019-05-07T12:05:08Z</time>
      </trkpt>
      <trkpt lat="47.79826" lon="1.66501">
        <ele>83</ele>
        <time>2019-05-07T12:05:15Z</time>
      </trkpt>
      <trkpt lat="47.7982" lon="1.66485">
        <ele>83</ele>
        <time>2019-05-07T12:05:22Z</time>
      </trkpt>
      <trkpt lat="47.79761" lon="1.66496">
        <ele>83</ele>
        <time>2019-05-07T12:05:46Z</time>
      </trkpt>
      <trkpt lat="47.79817" lon="1.66489">
        <ele>83</ele>
        <time>2019-05-07T12:06:04Z</time>
      </trkpt>
      <trkpt lat="47.79824" lon="1.66504">
        <ele>83</ele>
        <time>2019-05-07T12:06:10Z</time>
      </trkpt>
      <trkpt lat="47.79811" lon="1.66571">
        <ele>83</ele>
        <time>2019-05-07T12:06:22Z</time>
      </trkpt>
      <trkpt lat="47.79809" lon="1.66648">
        <ele>84</ele>
        <time>2019-05-07T12:06:34Z</time>
      </trkpt>
      <trkpt lat="47.80037" lon="1.66988">
        <ele>84</ele>
        <time>2019-05-07T12:07:46Z</time>
      </trkpt>
      <trkpt lat="47.8005" lon="1.67088">
        <ele>83</ele>
        <time>2019-05-07T12:08:04Z</time>
      </trkpt>
      <trkpt lat="47.80159" lon="1.67272">
        <ele>85</ele>
        <time>2019-05-07T12:08:58Z</time>
      </trkpt>
      <trkpt lat="47.80149" lon="1.67276">
        <ele>85</ele>
        <time>2019-05-07T12:09:04Z</time>
      </trkpt>
      <trkpt lat="47.80126" lon="1.67319">
        <ele>85</ele>
        <time>2019-05-07T12:09:16Z</time>
      </trkpt>
      <trkpt lat="47.79898" lon="1.67932">
        <ele>84</ele>
        <time>2019-05-07T12:11:28Z</time>
      </trkpt>
      <trkpt lat="47.79846" lon="1.68054">
        <ele>84</ele>
        <time>2019-05-07T12:11:58Z</time>
      </trkpt>
      <trkpt lat="47.79781" lon="1.68157">
        <ele>85</ele>
        <time>2019-05-07T12:12:28Z</time>
      </trkpt>
      <trkpt lat="47.79778" lon="1.68172">
        <ele>85</ele>
        <time>2019-05-07T12:12:34Z</time>
      </trkpt>
      <trkpt lat="47.7979" lon="1.68233">
        <ele>85</ele>
        <time>2019-05-07T12:12:46Z</time>
      </trkpt>
      <trkpt lat="47.79827" lon="1.68304">
        <ele>85</ele>
        <time>2019-05-07T12:12:58Z</time>
      </trkpt>
      <trkpt lat="47.79831" lon="1.68376">
        <ele>81</ele>
        <time>2019-05-07T12:13:16Z</time>
      </trkpt>
      <trkpt lat="47.79911" lon="1.68416">
        <ele>82</ele>
        <time>2019-05-07T12:13:40Z</time>
      </trkpt>
      <trkpt lat="47.80107" lon="1.6859">
        <ele>82</ele>
        <time>2019-05-07T12:14:46Z</time>
      </trkpt>
      <trkpt lat="47.80266" lon="1.68503">
        <ele>85</ele>
        <time>2019-05-07T12:15:34Z</time>
      </trkpt>
      <trkpt lat="47.80393" lon="1.6842">
        <ele>85</ele>
        <time>2019-05-07T12:16:10Z</time>
      </trkpt>
      <trkpt lat="47.80693" lon="1.68335">
        <ele>86</ele>
        <time>2019-05-07T12:17:34Z</time>
      </trkpt>
      <trkpt lat="47.81003" lon="1.68345">
        <ele>86</ele>
        <time>2019-05-07T12:19:21Z</time>
      </trkpt>
      <trkpt lat="47.8111" lon="1.68373">
        <ele>86</ele>
        <time>2019-05-07T12:19:45Z</time>
      </trkpt>
      <trkpt lat="47.81238" lon="1.68421">
        <ele>87</ele>
        <time>2019-05-07T12:20:15Z</time>
      </trkpt>
      <trkpt lat="47.81329" lon="1.68488">
        <ele>94</ele>
        <time>2019-05-07T12:20:39Z</time>
      </trkpt>
      <trkpt lat="47.81369" lon="1.68529">
        <ele>87</ele>
        <time>2019-05-07T12:20:51Z</time>
      </trkpt>
      <trkpt lat="47.8144" lon="1.68649">
        <ele>88</ele>
        <time>2019-05-07T12:21:21Z</time>
      </trkpt>
      <trkpt lat="47.8149" lon="1.6872">
        <ele>88</ele>
        <time>2019-05-07T12:21:39Z</time>
      </trkpt>
      <trkpt lat="47.8152" lon="1.68746">
        <ele>90</ele>
        <time>2019-05-07T12:21:51Z</time>
      </trkpt>
      <trkpt lat="47.81548" lon="1.68792">
        <ele>87</ele>
        <time>2019-05-07T12:22:09Z</time>
      </trkpt>
      <trkpt lat="47.81555" lon="1.68809">
        <ele>87</ele>
        <time>2019-05-07T12:22:23Z</time>
      </trkpt>
      <trkpt lat="47.8154" lon="1.68831">
        <ele>87</ele>
        <time>2019-05-07T12:22:31Z</time>
      </trkpt>
      <trkpt lat="47.81553" lon="1.68862">
        <ele>87</ele>
        <time>2019-05-07T12:22:37Z</time>
      </trkpt>
      <trkpt lat="47.81592" lon="1.68899">
        <ele>87</ele>
        <time>2019-05-07T12:22:49Z</time>
      </trkpt>
      <trkpt lat="47.81611" lon="1.69001">
        <ele>89</ele>
        <time>2019-05-07T12:23:07Z</time>
      </trkpt>
      <trkpt lat="47.81667" lon="1.69148">
        <ele>86</ele>
        <time>2019-05-07T12:23:31Z</time>
      </trkpt>
      <trkpt lat="47.81807" lon="1.69296">
        <ele>92</ele>
        <time>2019-05-07T12:24:07Z</time>
      </trkpt>
      <trkpt lat="47.81891" lon="1.69351">
        <ele>88</ele>
        <time>2019-05-07T12:24:31Z</time>
      </trkpt>
      <trkpt lat="47.82042" lon="1.69512">
        <ele>87</ele>
        <time>2019-05-07T12:25:19Z</time>
      </trkpt>
      <trkpt lat="47.82068" lon="1.69528">
        <ele>93</ele>
        <time>2019-05-07T12:25:25Z</time>
      </trkpt>
      <trkpt lat="47.8211" lon="1.69576">
        <ele>93</ele>
        <time>2019-05-07T12:25:37Z</time>
      </trkpt>
      <trkpt lat="47.82283" lon="1.69726">
        <ele>89</ele>
        <time>2019-05-07T12:26:25Z</time>
      </trkpt>
      <trkpt lat="47.82303" lon="1.69733">
        <ele>89</ele>
        <time>2019-05-07T12:26:31Z</time>
      </trkpt>
      <trkpt lat="47.82364" lon="1.6973">
        <ele>90</ele>
        <time>2019-05-07T12:26:49Z</time>
      </trkpt>
      <trkpt lat="47.82405" lon="1.69768">
        <ele>90</ele>
        <time>2019-05-07T12:27:13Z</time>
      </trkpt>
      <trkpt lat="47.82412" lon="1.69799">
        <ele>90</ele>
        <time>2019-05-07T12:27:25Z</time>
      </trkpt>
      <trkpt lat="47.82442" lon="1.6985">
        <ele>90</ele>
        <time>2019-05-07T12:27:49Z</time>
      </trkpt>
      <trkpt lat="47.82376" lon="1.69997">
        <ele>91</ele>
        <time>2019-05-07T12:28:31Z</time>
      </trkpt>
      <trkpt lat="47.82176" lon="1.70388">
        <ele>85</ele>
        <time>2019-05-07T12:30:15Z</time>
      </trkpt>
      <trkpt lat="47.82214" lon="1.70446">
        <ele>87</ele>
        <time>2019-05-07T12:30:27Z</time>
      </trkpt>
      <trkpt lat="47.82315" lon="1.70535">
        <ele>88</ele>
        <time>2019-05-07T12:30:45Z</time>
      </trkpt>
      <trkpt lat="47.82445" lon="1.70601">
        <ele>87</ele>
        <time>2019-05-07T12:31:09Z</time>
      </trkpt>
      <trkpt lat="47.82587" lon="1.7072">
        <ele>88</ele>
        <time>2019-05-07T12:31:39Z</time>
      </trkpt>
      <trkpt lat="47.82645" lon="1.70829">
        <ele>85</ele>
        <time>2019-05-07T12:31:57Z</time>
      </trkpt>
      <trkpt lat="47.82944" lon="1.71157">
        <ele>88</ele>
        <time>2019-05-07T12:33:09Z</time>
      </trkpt>
      <trkpt lat="47.83032" lon="1.71286">
        <ele>90</ele>
        <time>2019-05-07T12:33:33Z</time>
      </trkpt>
      <trkpt lat="47.83118" lon="1.71394">
        <ele>87</ele>
        <time>2019-05-07T12:33:57Z</time>
      </trkpt>
      <trkpt lat="47.83241" lon="1.71526">
        <ele>88</ele>
        <time>2019-05-07T12:34:33Z</time>
      </trkpt>
      <trkpt lat="47.83243" lon="1.71597">
        <ele>88</ele>
        <time>2019-05-07T12:34:45Z</time>
      </trkpt>
      <trkpt lat="47.83261" lon="1.7167">
        <ele>88</ele>
        <time>2019-05-07T12:34:57Z</time>
      </trkpt>
      <trkpt lat="47.83296" lon="1.71732">
        <ele>88</ele>
        <time>2019-05-07T12:35:09Z</time>
      </trkpt>
      <trkpt lat="47.83413" lon="1.71895">
        <ele>87</ele>
        <time>2019-05-07T12:35:45Z</time>
      </trkpt>
      <trkpt lat="47.83498" lon="1.72043">
        <ele>88</ele>
        <time>2019-05-07T12:36:15Z</time>
      </trkpt>
      <trkpt lat="47.83528" lon="1.72111">
        <ele>88</ele>
        <time>2019-05-07T12:36:27Z</time>
      </trkpt>
      <trkpt lat="47.83546" lon="1.72184">
        <ele>88</ele>
        <time>2019-05-07T12:36:40Z</time>
      </trkpt>
      <trkpt lat="47.83582" lon="1.7228">
        <ele>90</ele>
        <time>2019-05-07T12:36:57Z</time>
      </trkpt>
      <trkpt lat="47.83628" lon="1.72388">
        <ele>89</ele>
        <time>2019-05-07T12:37:15Z</time>
      </trkpt>
      <trkpt lat="47.83666" lon="1.72447">
        <ele>89</ele>
        <time>2019-05-07T12:37:27Z</time>
      </trkpt>
      <trkpt lat="47.83772" lon="1.72559">
        <ele>89</ele>
        <time>2019-05-07T12:37:57Z</time>
      </trkpt>
      <trkpt lat="47.83803" lon="1.72612">
        <ele>89</ele>
        <time>2019-05-07T12:38:10Z</time>
      </trkpt>
      <trkpt lat="47.83929" lon="1.72921">
        <ele>91</ele>
        <time>2019-05-07T12:38:57Z</time>
      </trkpt>
      <trkpt lat="47.83992" lon="1.73102">
        <ele>94</ele>
        <time>2019-05-07T12:39:27Z</time>
      </trkpt>
      <trkpt lat="47.84069" lon="1.73342">
        <ele>92</ele>
        <time>2019-05-07T12:40:03Z</time>
      </trkpt>
      <trkpt lat="47.84129" lon="1.73589">
        <ele>89</ele>
        <time>2019-05-07T12:40:39Z</time>
      </trkpt>
      <trkpt lat="47.84166" lon="1.73891">
        <ele>87</ele>
        <time>2019-05-07T12:41:27Z</time>
      </trkpt>
      <trkpt lat="47.842" lon="1.74105">
        <ele>88</ele>
        <time>2019-05-07T12:41:57Z</time>
      </trkpt>
      <trkpt lat="47.84211" lon="1.74482">
        <ele>88</ele>
        <time>2019-05-07T12:42:51Z</time>
      </trkpt>
      <trkpt lat="47.84185" lon="1.74596">
        <ele>88</ele>
        <time>2019-05-07T12:43:09Z</time>
      </trkpt>
      <trkpt lat="47.84216" lon="1.74678">
        <ele>88</ele>
        <time>2019-05-07T12:43:27Z</time>
      </trkpt>
      <trkpt lat="47.84361" lon="1.74833">
        <ele>88</ele>
        <time>2019-05-07T12:44:15Z</time>
      </trkpt>
      <trkpt lat="47.84508" lon="1.74954">
        <ele>89</ele>
        <time>2019-05-07T12:44:52Z</time>
      </trkpt>
      <trkpt lat="47.84669" lon="1.75105">
        <ele>88</ele>
        <time>2019-05-07T12:45:27Z</time>
      </trkpt>
      <trkpt lat="47.84823" lon="1.75292">
        <ele>89</ele>
        <time>2019-05-07T12:46:03Z</time>
      </trkpt>
      <trkpt lat="47.84871" lon="1.75363">
        <ele>89</ele>
        <time>2019-05-07T12:46:15Z</time>
      </trkpt>
      <trkpt lat="47.84982" lon="1.75534">
        <ele>89</ele>
        <time>2019-05-07T12:46:45Z</time>
      </trkpt>
      <trkpt lat="47.85073" lon="1.75696">
        <ele>90</ele>
        <time>2019-05-07T12:47:15Z</time>
      </trkpt>
      <trkpt lat="47.85299" lon="1.76207">
        <ele>90</ele>
        <time>2019-05-07T12:48:33Z</time>
      </trkpt>
      <trkpt lat="47.85505" lon="1.76767">
        <ele>89</ele>
        <time>2019-05-07T12:49:57Z</time>
      </trkpt>
      <trkpt lat="47.85664" lon="1.77099">
        <ele>91</ele>
        <time>2019-05-07T12:50:51Z</time>
      </trkpt>
      <trkpt lat="47.85701" lon="1.77296">
        <ele>89</ele>
        <time>2019-05-07T12:51:21Z</time>
      </trkpt>
      <trkpt lat="47.85754" lon="1.7738">
        <ele>89</ele>
        <time>2019-05-07T12:51:39Z</time>
      </trkpt>
      <trkpt lat="47.85787" lon="1.77494">
        <ele>90</ele>
        <time>2019-05-07T12:51:57Z</time>
      </trkpt>
      <trkpt lat="47.85813" lon="1.7756">
        <ele>90</ele>
        <time>2019-05-07T12:52:09Z</time>
      </trkpt>
      <trkpt lat="47.85863" lon="1.77657">
        <ele>89</ele>
        <time>2019-05-07T12:52:27Z</time>
      </trkpt>
      <trkpt lat="47.8611" lon="1.78025">
        <ele>91</ele>
        <time>2019-05-07T12:53:39Z</time>
      </trkpt>
      <trkpt lat="47.86221" lon="1.78164">
        <ele>93</ele>
        <time>2019-05-07T12:54:09Z</time>
      </trkpt>
      <trkpt lat="47.86349" lon="1.78534">
        <ele>90</ele>
        <time>2019-05-07T12:55:14Z</time>
      </trkpt>
      <trkpt lat="47.86293" lon="1.79052">
        <ele>89</ele>
        <time>2019-05-07T12:56:52Z</time>
      </trkpt>
      <trkpt lat="47.863" lon="1.79088">
        <ele>89</ele>
        <time>2019-05-07T12:56:57Z</time>
      </trkpt>
      <trkpt lat="47.8636" lon="1.79228">
        <ele>90</ele>
        <time>2019-05-07T12:57:21Z</time>
      </trkpt>
      <trkpt lat="47.86371" lon="1.79544">
        <ele>94</ele>
        <time>2019-05-07T12:58:09Z</time>
      </trkpt>
      <trkpt lat="47.86352" lon="1.79664">
        <ele>89</ele>
        <time>2019-05-07T12:58:44Z</time>
      </trkpt>
      <trkpt lat="47.86341" lon="1.79667">
        <ele>89</ele>
        <time>2019-05-07T12:58:45Z</time>
      </trkpt>
      <trkpt lat="47.86326" lon="1.79724">
        <ele>89</ele>
        <time>2019-05-07T12:58:57Z</time>
      </trkpt>
      <trkpt lat="47.86231" lon="1.7999">
        <ele>91</ele>
        <time>2019-05-07T12:59:45Z</time>
      </trkpt>
      <trkpt lat="47.8621" lon="1.80072">
        <ele>94</ele>
        <time>2019-05-07T12:59:57Z</time>
      </trkpt>
      <trkpt lat="47.86197" lon="1.80159">
        <ele>93</ele>
        <time>2019-05-07T13:00:09Z</time>
      </trkpt>
      <trkpt lat="47.86221" lon="1.80415">
        <ele>91</ele>
        <time>2019-05-07T13:00:45Z</time>
      </trkpt>
      <trkpt lat="47.86291" lon="1.8068">
        <ele>91</ele>
        <time>2019-05-07T13:01:21Z</time>
      </trkpt>
      <trkpt lat="47.86313" lon="1.80821">
        <ele>93</ele>
        <time>2019-05-07T13:01:39Z</time>
      </trkpt>
      <trkpt lat="47.8632" lon="1.81189">
        <ele>94</ele>
        <time>2019-05-07T13:02:27Z</time>
      </trkpt>
      <trkpt lat="47.86315" lon="1.81542">
        <ele>91</ele>
        <time>2019-05-07T13:03:15Z</time>
      </trkpt>
      <trkpt lat="47.86324" lon="1.81745">
        <ele>91</ele>
        <time>2019-05-07T13:03:45Z</time>
      </trkpt>
      <trkpt lat="47.86358" lon="1.82099">
        <ele>99</ele>
        <time>2019-05-07T13:04:59Z</time>
      </trkpt>
      <trkpt lat="47.86402" lon="1.82302">
        <ele>101</ele>
        <time>2019-05-07T13:05:41Z</time>
      </trkpt>
      <trkpt lat="47.86407" lon="1.82375">
        <ele>99</ele>
        <time>2019-05-07T13:05:59Z</time>
      </trkpt>
      <trkpt lat="47.864" lon="1.82419">
        <ele>99</ele>
        <time>2019-05-07T13:06:11Z</time>
      </trkpt>
      <trkpt lat="47.86433" lon="1.82491">
        <ele>99</ele>
        <time>2019-05-07T13:06:29Z</time>
      </trkpt>
      <trkpt lat="47.86497" lon="1.82741">
        <ele>102</ele>
        <time>2019-05-07T13:07:29Z</time>
      </trkpt>
      <trkpt lat="47.86519" lon="1.82791">
        <ele>102</ele>
        <time>2019-05-07T13:07:41Z</time>
      </trkpt>
      <trkpt lat="47.86557" lon="1.82912">
        <ele>102</ele>
        <time>2019-05-07T13:08:05Z</time>
      </trkpt>
      <trkpt lat="47.8662" lon="1.83059">
        <ele>100</ele>
        <time>2019-05-07T13:08:35Z</time>
      </trkpt>
      <trkpt lat="47.86665" lon="1.83219">
        <ele>101</ele>
        <time>2019-05-07T13:09:05Z</time>
      </trkpt>
      <trkpt lat="47.86772" lon="1.83538">
        <ele>100</ele>
        <time>2019-05-07T13:10:05Z</time>
      </trkpt>
      <trkpt lat="47.86789" lon="1.83616">
        <ele>101</ele>
        <time>2019-05-07T13:10:27Z</time>
      </trkpt>
      <trkpt lat="47.86847" lon="1.83616">
        <ele>100</ele>
        <time>2019-05-07T13:10:47Z</time>
      </trkpt>
      <trkpt lat="47.86874" lon="1.83752">
        <ele>100</ele>
        <time>2019-05-07T13:11:11Z</time>
      </trkpt>
      <trkpt lat="47.86879" lon="1.83816">
        <ele>100</ele>
        <time>2019-05-07T13:11:23Z</time>
      </trkpt>
      <trkpt lat="47.86901" lon="1.83842">
        <ele>100</ele>
        <time>2019-05-07T13:11:29Z</time>
      </trkpt>
      <trkpt lat="47.86927" lon="1.839">
        <ele>100</ele>
        <time>2019-05-07T13:11:41Z</time>
      </trkpt>
      <trkpt lat="47.86934" lon="1.83905">
        <ele>100</ele>
        <time>2019-05-07T13:11:47Z</time>
      </trkpt>
      <trkpt lat="47.8702" lon="1.83887">
        <ele>97</ele>
        <time>2019-05-07T13:12:05Z</time>
      </trkpt>
      <trkpt lat="47.87036" lon="1.83909">
        <ele>91</ele>
        <time>2019-05-07T13:12:11Z</time>
      </trkpt>
      <trkpt lat="47.87055" lon="1.83967">
        <ele>91</ele>
        <time>2019-05-07T13:12:23Z</time>
      </trkpt>
      <trkpt lat="47.87179" lon="1.83988">
        <ele>91</ele>
        <time>2019-05-07T13:13:11Z</time>
      </trkpt>
      <trkpt lat="47.87193" lon="1.84003">
        <ele>91</ele>
        <time>2019-05-07T13:13:19Z</time>
      </trkpt>
      <trkpt lat="47.87259" lon="1.84001">
        <ele>89</ele>
        <time>2019-05-07T13:13:43Z</time>
      </trkpt>
      <trkpt lat="47.87318" lon="1.84014">
        <ele>92</ele>
        <time>2019-05-07T13:14:01Z</time>
      </trkpt>
      <trkpt lat="47.87325" lon="1.84074">
        <ele>92</ele>
        <time>2019-05-07T13:14:25Z</time>
      </trkpt>
      <trkpt lat="47.87333" lon="1.84084">
        <ele>92</ele>
        <time>2019-05-07T13:14:37Z</time>
      </trkpt>
      <trkpt lat="47.87333" lon="1.84127">
        <ele>92</ele>
        <time>2019-05-07T13:14:55Z</time>
      </trkpt>
      <trkpt lat="47.8735" lon="1.84163">
        <ele>92</ele>
        <time>2019-05-07T13:15:07Z</time>
      </trkpt>
      <trkpt lat="47.87632" lon="1.85069">
        <ele>92</ele>
        <time>2019-05-07T13:18:01Z</time>
      </trkpt>
      <trkpt lat="47.87773" lon="1.8555">
        <ele>93</ele>
        <time>2019-05-07T13:19:31Z</time>
      </trkpt>
      <trkpt lat="47.87809" lon="1.85653">
        <ele>93</ele>
        <time>2019-05-07T13:19:49Z</time>
      </trkpt>
      <trkpt lat="47.87912" lon="1.86054">
        <ele>93</ele>
        <time>2019-05-07T13:21:13Z</time>
      </trkpt>
      <trkpt lat="47.8799" lon="1.86262">
        <ele>94</ele>
        <time>2019-05-07T13:21:55Z</time>
      </trkpt>
      <trkpt lat="47.88058" lon="1.86476">
        <ele>94</ele>
        <time>2019-05-07T13:22:25Z</time>
      </trkpt>
      <trkpt lat="47.88111" lon="1.86487">
        <ele>94</ele>
        <time>2019-05-07T13:22:43Z</time>
      </trkpt>
      <trkpt lat="47.88174" lon="1.86531">
        <ele>92</ele>
        <time>2019-05-07T13:23:07Z</time>
      </trkpt>
      <trkpt lat="47.88336" lon="1.86436">
        <ele>93</ele>
        <time>2019-05-07T13:24:07Z</time>
      </trkpt>
      <trkpt lat="47.88349" lon="1.86405">
        <ele>93</ele>
        <time>2019-05-07T13:24:19Z</time>
      </trkpt>
      <trkpt lat="47.88405" lon="1.86403">
        <ele>93</ele>
        <time>2019-05-07T13:24:37Z</time>
      </trkpt>
      <trkpt lat="47.88638" lon="1.8628">
        <ele>92</ele>
        <time>2019-05-07T13:25:37Z</time>
      </trkpt>
      <trkpt lat="47.8867" lon="1.86256">
        <ele>92</ele>
        <time>2019-05-07T13:25:55Z</time>
      </trkpt>
      <trkpt lat="47.88696" lon="1.86251">
        <ele>92</ele>
        <time>2019-05-07T13:26:05Z</time>
      </trkpt>
      <trkpt lat="47.88789" lon="1.86256">
        <ele>92</ele>
        <time>2019-05-07T13:26:35Z</time>
      </trkpt>
      <trkpt lat="47.88822" lon="1.86266">
        <ele>92</ele>
        <time>2019-05-07T13:26:47Z</time>
      </trkpt>
      <trkpt lat="47.88851" lon="1.86291">
        <ele>92</ele>
        <time>2019-05-07T13:26:59Z</time>
      </trkpt>
      <trkpt lat="47.88922" lon="1.86303">
        <ele>93</ele>
        <time>2019-05-07T13:27:23Z</time>
      </trkpt>
      <trkpt lat="47.88998" lon="1.86299">
        <ele>93</ele>
        <time>2019-05-07T13:27:41Z</time>
      </trkpt>
      <trkpt lat="47.89059" lon="1.86273">
        <ele>93</ele>
        <time>2019-05-07T13:27:59Z</time>
      </trkpt>
      <trkpt lat="47.89068" lon="1.86277">
        <ele>93</ele>
        <time>2019-05-07T13:28:11Z</time>
      </trkpt>
      <trkpt lat="47.89069" lon="1.86307">
        <ele>93</ele>
        <time>2019-05-07T13:28:24Z</time>
      </trkpt>
      <trkpt lat="47.89078" lon="1.86284">
        <ele>93</ele>
        <time>2019-05-07T13:28:43Z</time>
      </trkpt>
      <trkpt lat="47.89091" lon="1.86294">
        <ele>93</ele>
        <time>2019-05-07T13:28:49Z</time>
      </trkpt>
      <trkpt lat="47.89192" lon="1.86725">
        <ele>93</ele>
        <time>2019-05-07T13:30:25Z</time>
      </trkpt>
      <trkpt lat="47.8923" lon="1.8696">
        <ele>92</ele>
        <time>2019-05-07T13:31:13Z</time>
      </trkpt>
      <trkpt lat="47.89261" lon="1.87261">
        <ele>94</ele>
        <time>2019-05-07T13:32:13Z</time>
      </trkpt>
      <trkpt lat="47.89267" lon="1.87383">
        <ele>92</ele>
        <time>2019-05-07T13:32:37Z</time>
      </trkpt>
      <trkpt lat="47.8926" lon="1.87514">
        <ele>93</ele>
        <time>2019-05-07T13:33:07Z</time>
      </trkpt>
      <trkpt lat="47.89265" lon="1.87536">
        <ele>93</ele>
        <time>2019-05-07T13:33:13Z</time>
      </trkpt>
      <trkpt lat="47.89332" lon="1.8761">
        <ele>95</ele>
        <time>2019-05-07T13:34:03Z</time>
      </trkpt>
      <trkpt lat="47.89335" lon="1.87651">
        <ele>95</ele>
        <time>2019-05-07T13:34:15Z</time>
      </trkpt>
      <trkpt lat="47.8938" lon="1.87807">
        <ele>94</ele>
        <time>2019-05-07T13:34:39Z</time>
      </trkpt>
      <trkpt lat="47.89389" lon="1.87879">
        <ele>94</ele>
        <time>2019-05-07T13:34:51Z</time>
      </trkpt>
      <trkpt lat="47.89405" lon="1.88031">
        <ele>93</ele>
        <time>2019-05-07T13:35:15Z</time>
      </trkpt>
      <trkpt lat="47.89414" lon="1.88223">
        <ele>93</ele>
        <time>2019-05-07T13:35:45Z</time>
      </trkpt>
      <trkpt lat="47.89449" lon="1.89269">
        <ele>93</ele>
        <time>2019-05-07T13:38:45Z</time>
      </trkpt>
      <trkpt lat="47.89449" lon="1.8936">
        <ele>93</ele>
        <time>2019-05-07T13:39:03Z</time>
      </trkpt>
      <trkpt lat="47.89445" lon="1.89364">
        <ele>93</ele>
        <time>2019-05-07T13:39:15Z</time>
      </trkpt>
      <trkpt lat="47.8945" lon="1.89437">
        <ele>93</ele>
        <time>2019-05-07T13:39:33Z</time>
      </trkpt>
      <trkpt lat="47.89468" lon="1.895">
        <ele>93</ele>
        <time>2019-05-07T13:39:51Z</time>
      </trkpt>
      <trkpt lat="47.89476" lon="1.89642">
        <ele>93</ele>
        <time>2019-05-07T13:40:09Z</time>
      </trkpt>
      <trkpt lat="47.89475" lon="1.89681">
        <ele>93</ele>
        <time>2019-05-07T13:40:15Z</time>
      </trkpt>
      <trkpt lat="47.89452" lon="1.89736">
        <ele>93</ele>
        <time>2019-05-07T13:40:27Z</time>
      </trkpt>
      <trkpt lat="47.89445" lon="1.89779">
        <ele>93</ele>
        <time>2019-05-07T13:40:53Z</time>
      </trkpt>
      <trkpt lat="47.89464" lon="1.89976">
        <ele>96</ele>
        <time>2019-05-07T13:41:50Z</time>
      </trkpt>
      <trkpt lat="47.8948" lon="1.90281">
        <ele>94</ele>
        <time>2019-05-07T13:42:38Z</time>
      </trkpt>
      <trkpt lat="47.89457" lon="1.90492">
        <ele>94</ele>
        <time>2019-05-07T13:43:32Z</time>
      </trkpt>
      <trkpt lat="47.89433" lon="1.90521">
        <ele>94</ele>
        <time>2019-05-07T13:43:38Z</time>
      </trkpt>
      <trkpt lat="47.89421" lon="1.90569">
        <ele>101</ele>
        <time>2019-05-07T13:43:44Z</time>
      </trkpt>
      <trkpt lat="47.89413" lon="1.90653">
        <ele>98</ele>
        <time>2019-05-07T13:43:56Z</time>
      </trkpt>
      <trkpt lat="47.89314" lon="1.90642">
        <ele>98</ele>
        <time>2019-05-07T13:44:26Z</time>
      </trkpt>
      <trkpt lat="47.8919" lon="1.90612">
        <ele>100</ele>
        <time>2019-05-07T13:45:08Z</time>
      </trkpt>
      <trkpt lat="47.89179" lon="1.90729">
        <ele>97</ele>
        <time>2019-05-07T13:45:39Z</time>
      </trkpt>
      <trkpt lat="47.892" lon="1.90739">
        <ele>97</ele>
        <time>2019-05-07T13:46:01Z</time>
      </trkpt>
      <trkpt lat="47.89191" lon="1.90735">
        <ele>97</ele>
        <time>2019-05-07T13:46:11Z</time>
      </trkpt>
      <trkpt lat="47.89209" lon="1.90788">
        <ele>97</ele>
        <time>2019-05-07T13:46:36Z</time>
      </trkpt>
      <trkpt lat="47.89194" lon="1.90749">
        <ele>97</ele>
        <time>2019-05-07T13:46:47Z</time>
      </trkpt>
      <trkpt lat="47.89197" lon="1.90738">
        <ele>97</ele>
        <time>2019-05-07T13:47:09Z</time>
      </trkpt>
      <trkpt lat="47.89192" lon="1.90739">
        <ele>97</ele>
        <time>2019-05-07T13:47:32Z</time>
      </trkpt>
      <trkpt lat="47.89196" lon="1.90732">
        <ele>97</ele>
        <time>2019-05-07T13:47:41Z</time>
      </trkpt>
      <trkpt lat="47.89199" lon="1.90748">
        <ele>97</ele>
        <time>2019-05-07T13:48:03Z</time>
      </trkpt>
      <trkpt lat="47.89186" lon="1.9074">
        <ele>97</ele>
        <time>2019-05-07T13:48:18Z</time>
      </trkpt>
      <trkpt lat="47.89184" lon="1.90737">
        <ele>97</ele>
        <time>2019-05-07T13:48:32Z</time>
      </trkpt>
      <trkpt lat="47.89193" lon="1.90768">
        <ele>97</ele>
        <time>2019-05-07T13:48:40Z</time>
      </trkpt>
      <trkpt lat="47.89196" lon="1.90738">
        <ele>97</ele>
        <time>2019-05-07T13:49:22Z</time>
      </trkpt>
      <trkpt lat="47.89186" lon="1.90725">
        <ele>97</ele>
        <time>2019-05-07T13:49:43Z</time>
      </trkpt>
      <trkpt lat="47.89194" lon="1.9074">
        <ele>97</ele>
        <time>2019-05-07T13:49:57Z</time>
      </trkpt>
      <trkpt lat="47.89175" lon="1.90734">
        <ele>97</ele>
        <time>2019-05-07T13:50:10Z</time>
      </trkpt>
      <trkpt lat="47.89181" lon="1.90743">
        <ele>97</ele>
        <time>2019-05-07T13:50:16Z</time>
      </trkpt>
      <trkpt lat="47.8917" lon="1.90746">
        <ele>97</ele>
        <time>2019-05-07T13:50:21Z</time>
      </trkpt>
      <trkpt lat="47.89178" lon="1.90749">
        <ele>97</ele>
        <time>2019-05-07T13:50:39Z</time>
      </trkpt>
      <trkpt lat="47.89164" lon="1.90759">
        <ele>97</ele>
        <time>2019-05-07T13:50:51Z</time>
      </trkpt>
      <trkpt lat="47.89193" lon="1.90735">
        <ele>97</ele>
        <time>2019-05-07T13:51:00Z</time>
      </trkpt>
      <trkpt lat="47.89178" lon="1.90744">
        <ele>97</ele>
        <time>2019-05-07T13:51:26Z</time>
      </trkpt>
      <trkpt lat="47.89191" lon="1.90743">
        <ele>97</ele>
        <time>2019-05-07T13:51:35Z</time>
      </trkpt>
      <trkpt lat="47.8919" lon="1.90734">
        <ele>97</ele>
        <time>2019-05-07T13:51:47Z</time>
      </trkpt>
      <trkpt lat="47.89175" lon="1.90745">
        <ele>96</ele>
        <time>2019-05-07T13:51:53Z</time>
      </trkpt>
      <trkpt lat="47.89191" lon="1.9074">
        <ele>96</ele>
        <time>2019-05-07T13:52:03Z</time>
      </trkpt>
      <trkpt lat="47.89183" lon="1.90738">
        <ele>96</ele>
        <time>2019-05-07T13:52:10Z</time>
      </trkpt>
      <trkpt lat="47.89179" lon="1.90749">
        <ele>96</ele>
        <time>2019-05-07T13:52:20Z</time>
      </trkpt>
      <trkpt lat="47.89183" lon="1.90742">
        <ele>96</ele>
        <time>2019-05-07T13:52:26Z</time>
      </trkpt>
      <trkpt lat="47.89191" lon="1.90748">
        <ele>96</ele>
        <time>2019-05-07T13:52:43Z</time>
      </trkpt>
      <trkpt lat="47.89185" lon="1.90768">
        <ele>96</ele>
        <time>2019-05-07T13:53:09Z</time>
      </trkpt>
      <trkpt lat="47.89192" lon="1.90747">
        <ele>96</ele>
        <time>2019-05-07T13:53:43Z</time>
      </trkpt>
      <trkpt lat="47.89186" lon="1.90745">
        <ele>96</ele>
        <time>2019-05-07T13:53:57Z</time>
      </trkpt>
    </trkseg>
  </trk>
</gpx>